<?xml version="1.0" encoding="UTF-8" standalone="no" ?>
<gpx xmlns="http://www.topografix.com/GPX/1/1" xmlns:xsi="http://www.w3.org/2001/XMLSchema-instance" xsi:schemaLocation="http://www.topografix.com/GPX/1/1 http://www.topografix.com/GPX/1/1/gpx.xsd" version="1.1" creator="VisuGPX - https://www.visugpx.com">
  <metadata>
    <name>VTT LALBENQUE Lalbenque caylus 70km_950d+</name>
  </metadata>
  <trk>
    <name><![CDATA[Lalbenque_caylus_70km_950d+]]></name>
    <desc><![CDATA[]]></desc>
    <extensions>
      <line xmlns="http://www.topografix.com/GPX/gpx_style/0/2">
        <color>0000FF</color>
        <opacity>1</opacity>
        <width>4</width>
          <extensions>
            <sens>1</sens>
          </extensions>
      </line>
    </extensions>
    <trkseg>
      <trkpt lat="44.33808" lon="1.54652">
        <ele>268.7</ele>
        <time>2023-09-20T12:01:17Z</time>
      </trkpt>
      <trkpt lat="44.338" lon="1.5467">
        <ele>268</ele>
        <time>2023-09-20T12:01:18Z</time>
      </trkpt>
      <trkpt lat="44.3377" lon="1.54729">
        <ele>265.7</ele>
      </trkpt>
      <trkpt lat="44.33734" lon="1.54781">
        <ele>262.1</ele>
      </trkpt>
      <trkpt lat="44.337" lon="1.54807">
        <ele>260.9</ele>
      </trkpt>
      <trkpt lat="44.33663" lon="1.54853">
        <ele>259.1</ele>
      </trkpt>
      <trkpt lat="44.33651" lon="1.54874">
        <ele>258.7</ele>
      </trkpt>
      <trkpt lat="44.33645" lon="1.54883">
        <ele>258.8</ele>
      </trkpt>
      <trkpt lat="44.3363" lon="1.54897">
        <ele>258</ele>
      </trkpt>
      <trkpt lat="44.33614" lon="1.54904">
        <ele>256.9</ele>
      </trkpt>
      <trkpt lat="44.33592" lon="1.54915">
        <ele>257</ele>
      </trkpt>
      <trkpt lat="44.33549" lon="1.5493">
        <ele>254.6</ele>
      </trkpt>
      <trkpt lat="44.33532" lon="1.54934">
        <ele>254.3</ele>
      </trkpt>
      <trkpt lat="44.33512" lon="1.54933">
        <ele>255.6</ele>
      </trkpt>
      <trkpt lat="44.33512" lon="1.54933">
        <ele>255.6</ele>
      </trkpt>
      <trkpt lat="44.33501" lon="1.54921">
        <ele>254.7</ele>
      </trkpt>
      <trkpt lat="44.33462" lon="1.54908">
        <ele>253.6</ele>
      </trkpt>
      <trkpt lat="44.33418" lon="1.54894">
        <ele>251.9</ele>
      </trkpt>
      <trkpt lat="44.33403" lon="1.54891">
        <ele>250.9</ele>
      </trkpt>
      <trkpt lat="44.33361" lon="1.54897">
        <ele>248.5</ele>
      </trkpt>
      <trkpt lat="44.33321" lon="1.54915">
        <ele>248.5</ele>
      </trkpt>
      <trkpt lat="44.33307" lon="1.54921">
        <ele>247</ele>
        <time>2023-09-20T12:04:24Z</time>
      </trkpt>
      <trkpt lat="44.33303" lon="1.54924">
        <ele>246.6</ele>
        <time>2023-09-20T12:04:25Z</time>
      </trkpt>
      <trkpt lat="44.33298" lon="1.54925">
        <ele>246.4</ele>
        <time>2023-09-20T12:04:26Z</time>
      </trkpt>
      <trkpt lat="44.33293" lon="1.54928">
        <ele>246.2</ele>
        <time>2023-09-20T12:04:27Z</time>
      </trkpt>
      <trkpt lat="44.33289" lon="1.5493">
        <ele>246.2</ele>
        <time>2023-09-20T12:04:28Z</time>
      </trkpt>
      <trkpt lat="44.33286" lon="1.54932">
        <ele>246.2</ele>
        <time>2023-09-20T12:04:29Z</time>
      </trkpt>
      <trkpt lat="44.3328" lon="1.54935">
        <ele>246.3</ele>
        <time>2023-09-20T12:04:30Z</time>
      </trkpt>
      <trkpt lat="44.33276" lon="1.54938">
        <ele>246.8</ele>
        <time>2023-09-20T12:04:31Z</time>
      </trkpt>
      <trkpt lat="44.33271" lon="1.5494">
        <ele>247.7</ele>
        <time>2023-09-20T12:04:32Z</time>
      </trkpt>
      <trkpt lat="44.33267" lon="1.54943">
        <ele>248.5</ele>
        <time>2023-09-20T12:04:33Z</time>
      </trkpt>
      <trkpt lat="44.33263" lon="1.54944">
        <ele>249</ele>
        <time>2023-09-20T12:04:35Z</time>
      </trkpt>
      <trkpt lat="44.33259" lon="1.54947">
        <ele>249.7</ele>
        <time>2023-09-20T12:04:36Z</time>
      </trkpt>
      <trkpt lat="44.33255" lon="1.5495">
        <ele>250.2</ele>
        <time>2023-09-20T12:04:37Z</time>
      </trkpt>
      <trkpt lat="44.33252" lon="1.54953">
        <ele>250.8</ele>
        <time>2023-09-20T12:04:38Z</time>
      </trkpt>
      <trkpt lat="44.33248" lon="1.54956">
        <ele>251.3</ele>
        <time>2023-09-20T12:04:39Z</time>
      </trkpt>
      <trkpt lat="44.33242" lon="1.5496">
        <ele>252.2</ele>
        <time>2023-09-20T12:04:40Z</time>
      </trkpt>
      <trkpt lat="44.33239" lon="1.54962">
        <ele>252.7</ele>
        <time>2023-09-20T12:04:41Z</time>
      </trkpt>
      <trkpt lat="44.33235" lon="1.54965">
        <ele>253.2</ele>
        <time>2023-09-20T12:04:42Z</time>
      </trkpt>
      <trkpt lat="44.33231" lon="1.54967">
        <ele>253.7</ele>
        <time>2023-09-20T12:04:43Z</time>
      </trkpt>
      <trkpt lat="44.33228" lon="1.54969">
        <ele>254.2</ele>
        <time>2023-09-20T12:04:44Z</time>
      </trkpt>
      <trkpt lat="44.33224" lon="1.54972">
        <ele>254.7</ele>
        <time>2023-09-20T12:04:45Z</time>
      </trkpt>
      <trkpt lat="44.33221" lon="1.54974">
        <ele>255.1</ele>
        <time>2023-09-20T12:04:46Z</time>
      </trkpt>
      <trkpt lat="44.33217" lon="1.54976">
        <ele>255.3</ele>
        <time>2023-09-20T12:04:47Z</time>
      </trkpt>
      <trkpt lat="44.33213" lon="1.54979">
        <ele>255.5</ele>
        <time>2023-09-20T12:04:48Z</time>
      </trkpt>
      <trkpt lat="44.3321" lon="1.54982">
        <ele>255.7</ele>
        <time>2023-09-20T12:04:49Z</time>
      </trkpt>
      <trkpt lat="44.33207" lon="1.54984">
        <ele>255.9</ele>
        <time>2023-09-20T12:04:50Z</time>
      </trkpt>
      <trkpt lat="44.33203" lon="1.54986">
        <ele>256.2</ele>
        <time>2023-09-20T12:04:51Z</time>
      </trkpt>
      <trkpt lat="44.33199" lon="1.54988">
        <ele>256.6</ele>
        <time>2023-09-20T12:04:52Z</time>
      </trkpt>
      <trkpt lat="44.33195" lon="1.5499">
        <ele>256.9</ele>
        <time>2023-09-20T12:04:53Z</time>
      </trkpt>
      <trkpt lat="44.33192" lon="1.54992">
        <ele>257.2</ele>
        <time>2023-09-20T12:04:54Z</time>
      </trkpt>
      <trkpt lat="44.33188" lon="1.54993">
        <ele>257.5</ele>
        <time>2023-09-20T12:04:55Z</time>
      </trkpt>
      <trkpt lat="44.3318" lon="1.54996">
        <ele>258.1</ele>
        <time>2023-09-20T12:04:57Z</time>
      </trkpt>
      <trkpt lat="44.33175" lon="1.54998">
        <ele>258.4</ele>
        <time>2023-09-20T12:04:58Z</time>
      </trkpt>
      <trkpt lat="44.33172" lon="1.54999">
        <ele>258.6</ele>
        <time>2023-09-20T12:04:59Z</time>
      </trkpt>
      <trkpt lat="44.33168" lon="1.55">
        <ele>258.9</ele>
        <time>2023-09-20T12:05:00Z</time>
      </trkpt>
      <trkpt lat="44.33164" lon="1.55002">
        <ele>259</ele>
        <time>2023-09-20T12:05:01Z</time>
      </trkpt>
      <trkpt lat="44.3316" lon="1.55004">
        <ele>259</ele>
        <time>2023-09-20T12:05:02Z</time>
      </trkpt>
      <trkpt lat="44.33156" lon="1.55005">
        <ele>259.1</ele>
        <time>2023-09-20T12:05:03Z</time>
      </trkpt>
      <trkpt lat="44.33152" lon="1.55007">
        <ele>259.1</ele>
        <time>2023-09-20T12:05:04Z</time>
      </trkpt>
      <trkpt lat="44.33148" lon="1.55009">
        <ele>259.2</ele>
        <time>2023-09-20T12:05:05Z</time>
      </trkpt>
      <trkpt lat="44.33144" lon="1.55011">
        <ele>259.3</ele>
        <time>2023-09-20T12:05:06Z</time>
      </trkpt>
      <trkpt lat="44.3314" lon="1.55013">
        <ele>259.4</ele>
        <time>2023-09-20T12:05:07Z</time>
      </trkpt>
      <trkpt lat="44.33135" lon="1.55015">
        <ele>259.5</ele>
        <time>2023-09-20T12:05:08Z</time>
      </trkpt>
      <trkpt lat="44.33131" lon="1.55017">
        <ele>259.5</ele>
        <time>2023-09-20T12:05:09Z</time>
      </trkpt>
      <trkpt lat="44.33127" lon="1.55018">
        <ele>259.5</ele>
        <time>2023-09-20T12:05:10Z</time>
      </trkpt>
      <trkpt lat="44.33122" lon="1.55021">
        <ele>259.6</ele>
        <time>2023-09-20T12:05:11Z</time>
      </trkpt>
      <trkpt lat="44.33118" lon="1.55023">
        <ele>259.7</ele>
        <time>2023-09-20T12:05:12Z</time>
      </trkpt>
      <trkpt lat="44.33113" lon="1.55025">
        <ele>259.8</ele>
        <time>2023-09-20T12:05:13Z</time>
      </trkpt>
      <trkpt lat="44.33109" lon="1.55027">
        <ele>259.9</ele>
        <time>2023-09-20T12:05:14Z</time>
      </trkpt>
      <trkpt lat="44.33104" lon="1.55029">
        <ele>260</ele>
        <time>2023-09-20T12:05:15Z</time>
      </trkpt>
      <trkpt lat="44.33099" lon="1.55032">
        <ele>260.1</ele>
        <time>2023-09-20T12:05:16Z</time>
      </trkpt>
      <trkpt lat="44.33095" lon="1.55034">
        <ele>260.2</ele>
        <time>2023-09-20T12:05:17Z</time>
      </trkpt>
      <trkpt lat="44.33091" lon="1.55036">
        <ele>260.3</ele>
        <time>2023-09-20T12:05:18Z</time>
      </trkpt>
      <trkpt lat="44.33086" lon="1.55038">
        <ele>260.4</ele>
        <time>2023-09-20T12:05:19Z</time>
      </trkpt>
      <trkpt lat="44.33082" lon="1.5504">
        <ele>260.4</ele>
        <time>2023-09-20T12:05:20Z</time>
      </trkpt>
      <trkpt lat="44.33077" lon="1.55042">
        <ele>260.4</ele>
        <time>2023-09-20T12:05:21Z</time>
      </trkpt>
      <trkpt lat="44.33073" lon="1.55043">
        <ele>260.4</ele>
        <time>2023-09-20T12:05:22Z</time>
      </trkpt>
      <trkpt lat="44.33068" lon="1.55045">
        <ele>260.4</ele>
        <time>2023-09-20T12:05:23Z</time>
      </trkpt>
      <trkpt lat="44.33064" lon="1.55047">
        <ele>260.5</ele>
        <time>2023-09-20T12:05:24Z</time>
      </trkpt>
      <trkpt lat="44.33059" lon="1.5505">
        <ele>260.6</ele>
        <time>2023-09-20T12:05:25Z</time>
      </trkpt>
      <trkpt lat="44.33055" lon="1.55052">
        <ele>260.7</ele>
        <time>2023-09-20T12:05:26Z</time>
      </trkpt>
      <trkpt lat="44.3305" lon="1.55054">
        <ele>260.9</ele>
        <time>2023-09-20T12:05:27Z</time>
      </trkpt>
      <trkpt lat="44.33046" lon="1.55055">
        <ele>261</ele>
        <time>2023-09-20T12:05:28Z</time>
      </trkpt>
      <trkpt lat="44.33041" lon="1.55057">
        <ele>261</ele>
        <time>2023-09-20T12:05:29Z</time>
      </trkpt>
      <trkpt lat="44.33036" lon="1.55059">
        <ele>261.1</ele>
        <time>2023-09-20T12:05:30Z</time>
      </trkpt>
      <trkpt lat="44.33032" lon="1.55061">
        <ele>261.2</ele>
        <time>2023-09-20T12:05:31Z</time>
      </trkpt>
      <trkpt lat="44.33027" lon="1.55063">
        <ele>261.3</ele>
        <time>2023-09-20T12:05:32Z</time>
      </trkpt>
      <trkpt lat="44.33023" lon="1.55065">
        <ele>261.5</ele>
        <time>2023-09-20T12:05:33Z</time>
      </trkpt>
      <trkpt lat="44.33018" lon="1.55066">
        <ele>261.7</ele>
        <time>2023-09-20T12:05:34Z</time>
      </trkpt>
      <trkpt lat="44.33014" lon="1.55068">
        <ele>261.9</ele>
        <time>2023-09-20T12:05:35Z</time>
      </trkpt>
      <trkpt lat="44.3301" lon="1.55069">
        <ele>262.1</ele>
        <time>2023-09-20T12:05:36Z</time>
      </trkpt>
      <trkpt lat="44.33005" lon="1.55071">
        <ele>262.4</ele>
        <time>2023-09-20T12:05:37Z</time>
      </trkpt>
      <trkpt lat="44.33001" lon="1.55073">
        <ele>262.6</ele>
        <time>2023-09-20T12:05:38Z</time>
      </trkpt>
      <trkpt lat="44.32996" lon="1.55075">
        <ele>262.9</ele>
        <time>2023-09-20T12:05:39Z</time>
      </trkpt>
      <trkpt lat="44.32992" lon="1.55077">
        <ele>263.3</ele>
        <time>2023-09-20T12:05:40Z</time>
      </trkpt>
      <trkpt lat="44.32987" lon="1.55079">
        <ele>263.7</ele>
        <time>2023-09-20T12:05:41Z</time>
      </trkpt>
      <trkpt lat="44.32983" lon="1.55082">
        <ele>264.1</ele>
        <time>2023-09-20T12:05:42Z</time>
      </trkpt>
      <trkpt lat="44.32981" lon="1.55083">
        <ele>264.4</ele>
        <time>2023-09-20T12:05:43Z</time>
      </trkpt>
      <trkpt lat="44.32973" lon="1.55088">
        <ele>265.3</ele>
        <time>2023-09-20T12:05:45Z</time>
      </trkpt>
      <trkpt lat="44.3297" lon="1.55089">
        <ele>265.6</ele>
        <time>2023-09-20T12:05:46Z</time>
      </trkpt>
      <trkpt lat="44.32964" lon="1.55092">
        <ele>266.1</ele>
        <time>2023-09-20T12:05:47Z</time>
      </trkpt>
      <trkpt lat="44.32961" lon="1.55094">
        <ele>266.4</ele>
        <time>2023-09-20T12:05:48Z</time>
      </trkpt>
      <trkpt lat="44.32957" lon="1.55096">
        <ele>266.7</ele>
        <time>2023-09-20T12:05:49Z</time>
      </trkpt>
      <trkpt lat="44.32951" lon="1.55098">
        <ele>267.2</ele>
        <time>2023-09-20T12:05:51Z</time>
      </trkpt>
      <trkpt lat="44.32947" lon="1.55099">
        <ele>267.4</ele>
        <time>2023-09-20T12:05:52Z</time>
      </trkpt>
      <trkpt lat="44.32944" lon="1.55101">
        <ele>267.6</ele>
        <time>2023-09-20T12:05:53Z</time>
      </trkpt>
      <trkpt lat="44.32941" lon="1.55103">
        <ele>267.6</ele>
        <time>2023-09-20T12:05:54Z</time>
      </trkpt>
      <trkpt lat="44.32937" lon="1.55105">
        <ele>267.5</ele>
        <time>2023-09-20T12:05:55Z</time>
      </trkpt>
      <trkpt lat="44.32934" lon="1.55107">
        <ele>267.5</ele>
        <time>2023-09-20T12:05:56Z</time>
      </trkpt>
      <trkpt lat="44.3293" lon="1.5511">
        <ele>267.4</ele>
        <time>2023-09-20T12:05:57Z</time>
      </trkpt>
      <trkpt lat="44.32926" lon="1.55112">
        <ele>267.4</ele>
        <time>2023-09-20T12:05:58Z</time>
      </trkpt>
      <trkpt lat="44.32923" lon="1.55115">
        <ele>267.6</ele>
        <time>2023-09-20T12:05:59Z</time>
      </trkpt>
      <trkpt lat="44.32918" lon="1.55119">
        <ele>267.9</ele>
        <time>2023-09-20T12:06:00Z</time>
      </trkpt>
      <trkpt lat="44.32913" lon="1.55123">
        <ele>267.8</ele>
        <time>2023-09-20T12:06:01Z</time>
      </trkpt>
      <trkpt lat="44.32909" lon="1.55127">
        <ele>267.5</ele>
        <time>2023-09-20T12:06:02Z</time>
      </trkpt>
      <trkpt lat="44.32904" lon="1.55131">
        <ele>267.3</ele>
        <time>2023-09-20T12:06:03Z</time>
      </trkpt>
      <trkpt lat="44.32899" lon="1.55135">
        <ele>267.1</ele>
        <time>2023-09-20T12:06:04Z</time>
      </trkpt>
      <trkpt lat="44.32895" lon="1.55139">
        <ele>266.8</ele>
        <time>2023-09-20T12:06:05Z</time>
      </trkpt>
      <trkpt lat="44.32889" lon="1.55143">
        <ele>266.5</ele>
        <time>2023-09-20T12:06:06Z</time>
      </trkpt>
      <trkpt lat="44.32884" lon="1.55148">
        <ele>266.4</ele>
        <time>2023-09-20T12:06:07Z</time>
      </trkpt>
      <trkpt lat="44.32879" lon="1.55152">
        <ele>266.3</ele>
        <time>2023-09-20T12:06:08Z</time>
      </trkpt>
      <trkpt lat="44.32874" lon="1.55156">
        <ele>266.2</ele>
        <time>2023-09-20T12:06:09Z</time>
      </trkpt>
      <trkpt lat="44.32868" lon="1.5516">
        <ele>266</ele>
        <time>2023-09-20T12:06:10Z</time>
      </trkpt>
      <trkpt lat="44.32863" lon="1.55164">
        <ele>265.9</ele>
        <time>2023-09-20T12:06:11Z</time>
      </trkpt>
      <trkpt lat="44.32858" lon="1.55169">
        <ele>265.8</ele>
        <time>2023-09-20T12:06:12Z</time>
      </trkpt>
      <trkpt lat="44.32853" lon="1.55172">
        <ele>265.5</ele>
        <time>2023-09-20T12:06:13Z</time>
      </trkpt>
      <trkpt lat="44.32848" lon="1.55176">
        <ele>265.2</ele>
        <time>2023-09-20T12:06:14Z</time>
      </trkpt>
      <trkpt lat="44.32842" lon="1.5518">
        <ele>264.9</ele>
        <time>2023-09-20T12:06:15Z</time>
      </trkpt>
      <trkpt lat="44.32837" lon="1.55184">
        <ele>264.6</ele>
        <time>2023-09-20T12:06:16Z</time>
      </trkpt>
      <trkpt lat="44.32832" lon="1.55188">
        <ele>264.3</ele>
        <time>2023-09-20T12:06:17Z</time>
      </trkpt>
      <trkpt lat="44.32826" lon="1.55191">
        <ele>264.1</ele>
        <time>2023-09-20T12:06:18Z</time>
      </trkpt>
      <trkpt lat="44.32821" lon="1.55195">
        <ele>263.7</ele>
        <time>2023-09-20T12:06:19Z</time>
      </trkpt>
      <trkpt lat="44.32816" lon="1.55198">
        <ele>263.4</ele>
        <time>2023-09-20T12:06:20Z</time>
      </trkpt>
      <trkpt lat="44.32811" lon="1.55202">
        <ele>263.1</ele>
        <time>2023-09-20T12:06:21Z</time>
      </trkpt>
      <trkpt lat="44.32805" lon="1.55206">
        <ele>262.8</ele>
        <time>2023-09-20T12:06:22Z</time>
      </trkpt>
      <trkpt lat="44.328" lon="1.5521">
        <ele>263.2</ele>
        <time>2023-09-20T12:06:23Z</time>
      </trkpt>
      <trkpt lat="44.32794" lon="1.55215">
        <ele>263.6</ele>
        <time>2023-09-20T12:06:24Z</time>
      </trkpt>
      <trkpt lat="44.32788" lon="1.5522">
        <ele>263.9</ele>
        <time>2023-09-20T12:06:25Z</time>
      </trkpt>
      <trkpt lat="44.32782" lon="1.55226">
        <ele>264</ele>
        <time>2023-09-20T12:06:26Z</time>
      </trkpt>
      <trkpt lat="44.32777" lon="1.55231">
        <ele>264.1</ele>
        <time>2023-09-20T12:06:27Z</time>
      </trkpt>
      <trkpt lat="44.32772" lon="1.55235">
        <ele>264.7</ele>
        <time>2023-09-20T12:06:28Z</time>
      </trkpt>
      <trkpt lat="44.32766" lon="1.5524">
        <ele>265.2</ele>
        <time>2023-09-20T12:06:29Z</time>
      </trkpt>
      <trkpt lat="44.32761" lon="1.55244">
        <ele>265.8</ele>
        <time>2023-09-20T12:06:30Z</time>
      </trkpt>
      <trkpt lat="44.32757" lon="1.55247">
        <ele>266.3</ele>
        <time>2023-09-20T12:06:31Z</time>
      </trkpt>
      <trkpt lat="44.32752" lon="1.5525">
        <ele>266.8</ele>
        <time>2023-09-20T12:06:32Z</time>
      </trkpt>
      <trkpt lat="44.32747" lon="1.55253">
        <ele>267.1</ele>
        <time>2023-09-20T12:06:33Z</time>
      </trkpt>
      <trkpt lat="44.32742" lon="1.55255">
        <ele>267.4</ele>
        <time>2023-09-20T12:06:34Z</time>
      </trkpt>
      <trkpt lat="44.32738" lon="1.55258">
        <ele>267.7</ele>
        <time>2023-09-20T12:06:35Z</time>
      </trkpt>
      <trkpt lat="44.32734" lon="1.55262">
        <ele>267.9</ele>
        <time>2023-09-20T12:06:36Z</time>
      </trkpt>
      <trkpt lat="44.3273" lon="1.55265">
        <ele>268.3</ele>
        <time>2023-09-20T12:06:37Z</time>
      </trkpt>
      <trkpt lat="44.32726" lon="1.55268">
        <ele>268.6</ele>
        <time>2023-09-20T12:06:38Z</time>
      </trkpt>
      <trkpt lat="44.32721" lon="1.55271">
        <ele>269</ele>
        <time>2023-09-20T12:06:39Z</time>
      </trkpt>
      <trkpt lat="44.32717" lon="1.55274">
        <ele>269.2</ele>
        <time>2023-09-20T12:06:40Z</time>
      </trkpt>
      <trkpt lat="44.32712" lon="1.55276">
        <ele>269.4</ele>
        <time>2023-09-20T12:06:41Z</time>
      </trkpt>
      <trkpt lat="44.32708" lon="1.55278">
        <ele>269.5</ele>
        <time>2023-09-20T12:06:42Z</time>
      </trkpt>
      <trkpt lat="44.32704" lon="1.55281">
        <ele>269.6</ele>
        <time>2023-09-20T12:06:43Z</time>
      </trkpt>
      <trkpt lat="44.32699" lon="1.55283">
        <ele>269.8</ele>
        <time>2023-09-20T12:06:44Z</time>
      </trkpt>
      <trkpt lat="44.32694" lon="1.55285">
        <ele>270</ele>
        <time>2023-09-20T12:06:45Z</time>
      </trkpt>
      <trkpt lat="44.3269" lon="1.55287">
        <ele>270.2</ele>
        <time>2023-09-20T12:06:46Z</time>
      </trkpt>
      <trkpt lat="44.32685" lon="1.55289">
        <ele>270.3</ele>
        <time>2023-09-20T12:06:47Z</time>
      </trkpt>
      <trkpt lat="44.32681" lon="1.55291">
        <ele>270.5</ele>
        <time>2023-09-20T12:06:48Z</time>
      </trkpt>
      <trkpt lat="44.32676" lon="1.55293">
        <ele>270.7</ele>
        <time>2023-09-20T12:06:49Z</time>
      </trkpt>
      <trkpt lat="44.32671" lon="1.55295">
        <ele>270.8</ele>
        <time>2023-09-20T12:06:50Z</time>
      </trkpt>
      <trkpt lat="44.32666" lon="1.55297">
        <ele>271</ele>
        <time>2023-09-20T12:06:51Z</time>
      </trkpt>
      <trkpt lat="44.32662" lon="1.55299">
        <ele>271.1</ele>
        <time>2023-09-20T12:06:52Z</time>
      </trkpt>
      <trkpt lat="44.32658" lon="1.55301">
        <ele>271.3</ele>
        <time>2023-09-20T12:06:53Z</time>
      </trkpt>
      <trkpt lat="44.32653" lon="1.55303">
        <ele>271.4</ele>
        <time>2023-09-20T12:06:54Z</time>
      </trkpt>
      <trkpt lat="44.32649" lon="1.55305">
        <ele>271.6</ele>
        <time>2023-09-20T12:06:55Z</time>
      </trkpt>
      <trkpt lat="44.32644" lon="1.55307">
        <ele>271.8</ele>
        <time>2023-09-20T12:06:56Z</time>
      </trkpt>
      <trkpt lat="44.32639" lon="1.55309">
        <ele>272</ele>
        <time>2023-09-20T12:06:57Z</time>
      </trkpt>
      <trkpt lat="44.32635" lon="1.55312">
        <ele>271.8</ele>
        <time>2023-09-20T12:06:58Z</time>
      </trkpt>
      <trkpt lat="44.3263" lon="1.55314">
        <ele>271.6</ele>
        <time>2023-09-20T12:06:59Z</time>
      </trkpt>
      <trkpt lat="44.32626" lon="1.55316">
        <ele>271.4</ele>
        <time>2023-09-20T12:07:00Z</time>
      </trkpt>
      <trkpt lat="44.32621" lon="1.55318">
        <ele>271.3</ele>
        <time>2023-09-20T12:07:01Z</time>
      </trkpt>
      <trkpt lat="44.32616" lon="1.55321">
        <ele>271.3</ele>
        <time>2023-09-20T12:07:02Z</time>
      </trkpt>
      <trkpt lat="44.32612" lon="1.55323">
        <ele>271.3</ele>
        <time>2023-09-20T12:07:03Z</time>
      </trkpt>
      <trkpt lat="44.32607" lon="1.55326">
        <ele>271.5</ele>
        <time>2023-09-20T12:07:04Z</time>
      </trkpt>
      <trkpt lat="44.32602" lon="1.55328">
        <ele>271.7</ele>
        <time>2023-09-20T12:07:05Z</time>
      </trkpt>
      <trkpt lat="44.32598" lon="1.5533">
        <ele>271.8</ele>
        <time>2023-09-20T12:07:06Z</time>
      </trkpt>
      <trkpt lat="44.32593" lon="1.55332">
        <ele>271.9</ele>
        <time>2023-09-20T12:07:07Z</time>
      </trkpt>
      <trkpt lat="44.32588" lon="1.55334">
        <ele>272</ele>
        <time>2023-09-20T12:07:08Z</time>
      </trkpt>
      <trkpt lat="44.32583" lon="1.55335">
        <ele>272</ele>
        <time>2023-09-20T12:07:09Z</time>
      </trkpt>
      <trkpt lat="44.32579" lon="1.55336">
        <ele>272.3</ele>
        <time>2023-09-20T12:07:10Z</time>
      </trkpt>
      <trkpt lat="44.32575" lon="1.55336">
        <ele>272.6</ele>
        <time>2023-09-20T12:07:11Z</time>
      </trkpt>
      <trkpt lat="44.32571" lon="1.55336">
        <ele>272.9</ele>
        <time>2023-09-20T12:07:12Z</time>
      </trkpt>
      <trkpt lat="44.32567" lon="1.55336">
        <ele>273.2</ele>
        <time>2023-09-20T12:07:13Z</time>
      </trkpt>
      <trkpt lat="44.32562" lon="1.55335">
        <ele>273.5</ele>
        <time>2023-09-20T12:07:14Z</time>
      </trkpt>
      <trkpt lat="44.32558" lon="1.55335">
        <ele>273.8</ele>
        <time>2023-09-20T12:07:15Z</time>
      </trkpt>
      <trkpt lat="44.32554" lon="1.55335">
        <ele>274.1</ele>
        <time>2023-09-20T12:07:16Z</time>
      </trkpt>
      <trkpt lat="44.3255" lon="1.55335">
        <ele>274.4</ele>
        <time>2023-09-20T12:07:17Z</time>
      </trkpt>
      <trkpt lat="44.32548" lon="1.55335">
        <ele>274.6</ele>
        <time>2023-09-20T12:07:18Z</time>
      </trkpt>
      <trkpt lat="44.32541" lon="1.55336">
        <ele>275.1</ele>
        <time>2023-09-20T12:07:19Z</time>
      </trkpt>
      <trkpt lat="44.32536" lon="1.55336">
        <ele>275.4</ele>
        <time>2023-09-20T12:07:20Z</time>
      </trkpt>
      <trkpt lat="44.32528" lon="1.55337">
        <ele>276</ele>
        <time>2023-09-20T12:07:22Z</time>
      </trkpt>
      <trkpt lat="44.32522" lon="1.55341">
        <ele>276.1</ele>
        <time>2023-09-20T12:07:23Z</time>
      </trkpt>
      <trkpt lat="44.32516" lon="1.55345">
        <ele>276.2</ele>
        <time>2023-09-20T12:07:25Z</time>
      </trkpt>
      <trkpt lat="44.32511" lon="1.55347">
        <ele>276.3</ele>
        <time>2023-09-20T12:07:26Z</time>
      </trkpt>
      <trkpt lat="44.32506" lon="1.55349">
        <ele>276.4</ele>
        <time>2023-09-20T12:07:27Z</time>
      </trkpt>
      <trkpt lat="44.32503" lon="1.55351">
        <ele>276.6</ele>
        <time>2023-09-20T12:07:28Z</time>
      </trkpt>
      <trkpt lat="44.32498" lon="1.55354">
        <ele>276.7</ele>
        <time>2023-09-20T12:07:29Z</time>
      </trkpt>
      <trkpt lat="44.32494" lon="1.55356">
        <ele>276.9</ele>
        <time>2023-09-20T12:07:30Z</time>
      </trkpt>
      <trkpt lat="44.3249" lon="1.55359">
        <ele>276.9</ele>
        <time>2023-09-20T12:07:31Z</time>
      </trkpt>
      <trkpt lat="44.32486" lon="1.5536">
        <ele>277</ele>
        <time>2023-09-20T12:07:32Z</time>
      </trkpt>
      <trkpt lat="44.32483" lon="1.55362">
        <ele>277</ele>
        <time>2023-09-20T12:07:33Z</time>
      </trkpt>
      <trkpt lat="44.32479" lon="1.55364">
        <ele>277</ele>
        <time>2023-09-20T12:07:34Z</time>
      </trkpt>
      <trkpt lat="44.32476" lon="1.55367">
        <ele>277</ele>
        <time>2023-09-20T12:07:35Z</time>
      </trkpt>
      <trkpt lat="44.32472" lon="1.55369">
        <ele>277</ele>
        <time>2023-09-20T12:07:36Z</time>
      </trkpt>
      <trkpt lat="44.32468" lon="1.55371">
        <ele>277</ele>
        <time>2023-09-20T12:07:37Z</time>
      </trkpt>
      <trkpt lat="44.32464" lon="1.55375">
        <ele>277</ele>
        <time>2023-09-20T12:07:38Z</time>
      </trkpt>
      <trkpt lat="44.32458" lon="1.55378">
        <ele>277</ele>
        <time>2023-09-20T12:07:39Z</time>
      </trkpt>
      <trkpt lat="44.32453" lon="1.55381">
        <ele>277</ele>
        <time>2023-09-20T12:07:40Z</time>
      </trkpt>
      <trkpt lat="44.32449" lon="1.55385">
        <ele>277</ele>
        <time>2023-09-20T12:07:41Z</time>
      </trkpt>
      <trkpt lat="44.32444" lon="1.55388">
        <ele>277</ele>
        <time>2023-09-20T12:07:42Z</time>
      </trkpt>
      <trkpt lat="44.32438" lon="1.55392">
        <ele>276.7</ele>
        <time>2023-09-20T12:07:43Z</time>
      </trkpt>
      <trkpt lat="44.32432" lon="1.55395">
        <ele>276.4</ele>
        <time>2023-09-20T12:07:44Z</time>
      </trkpt>
      <trkpt lat="44.32427" lon="1.55399">
        <ele>276.2</ele>
        <time>2023-09-20T12:07:45Z</time>
      </trkpt>
      <trkpt lat="44.32421" lon="1.55402">
        <ele>276.1</ele>
        <time>2023-09-20T12:07:46Z</time>
      </trkpt>
      <trkpt lat="44.32416" lon="1.55406">
        <ele>276</ele>
        <time>2023-09-20T12:07:47Z</time>
      </trkpt>
      <trkpt lat="44.3241" lon="1.5541">
        <ele>275.8</ele>
        <time>2023-09-20T12:07:48Z</time>
      </trkpt>
      <trkpt lat="44.32404" lon="1.55414">
        <ele>275.6</ele>
        <time>2023-09-20T12:07:49Z</time>
      </trkpt>
      <trkpt lat="44.32399" lon="1.55418">
        <ele>275.3</ele>
        <time>2023-09-20T12:07:50Z</time>
      </trkpt>
      <trkpt lat="44.32393" lon="1.55422">
        <ele>275.1</ele>
        <time>2023-09-20T12:07:51Z</time>
      </trkpt>
      <trkpt lat="44.32387" lon="1.55426">
        <ele>274.9</ele>
        <time>2023-09-20T12:07:52Z</time>
      </trkpt>
      <trkpt lat="44.32381" lon="1.5543">
        <ele>274.7</ele>
        <time>2023-09-20T12:07:53Z</time>
      </trkpt>
      <trkpt lat="44.32375" lon="1.55435">
        <ele>274.5</ele>
        <time>2023-09-20T12:07:54Z</time>
      </trkpt>
      <trkpt lat="44.32369" lon="1.55439">
        <ele>274.3</ele>
        <time>2023-09-20T12:07:55Z</time>
      </trkpt>
      <trkpt lat="44.32363" lon="1.55443">
        <ele>274.1</ele>
        <time>2023-09-20T12:07:56Z</time>
      </trkpt>
      <trkpt lat="44.32357" lon="1.55447">
        <ele>274</ele>
        <time>2023-09-20T12:07:57Z</time>
      </trkpt>
      <trkpt lat="44.32351" lon="1.55451">
        <ele>273.9</ele>
        <time>2023-09-20T12:07:58Z</time>
      </trkpt>
      <trkpt lat="44.32345" lon="1.55455">
        <ele>273.8</ele>
        <time>2023-09-20T12:07:59Z</time>
      </trkpt>
      <trkpt lat="44.32338" lon="1.55459">
        <ele>273.6</ele>
        <time>2023-09-20T12:08:00Z</time>
      </trkpt>
      <trkpt lat="44.32331" lon="1.55464">
        <ele>273.2</ele>
        <time>2023-09-20T12:08:01Z</time>
      </trkpt>
      <trkpt lat="44.32325" lon="1.55468">
        <ele>272.8</ele>
        <time>2023-09-20T12:08:02Z</time>
      </trkpt>
      <trkpt lat="44.32318" lon="1.55472">
        <ele>272.5</ele>
        <time>2023-09-20T12:08:03Z</time>
      </trkpt>
      <trkpt lat="44.32312" lon="1.55477">
        <ele>272.2</ele>
        <time>2023-09-20T12:08:04Z</time>
      </trkpt>
      <trkpt lat="44.32306" lon="1.5548">
        <ele>272</ele>
        <time>2023-09-20T12:08:05Z</time>
      </trkpt>
      <trkpt lat="44.323" lon="1.55485">
        <ele>271.9</ele>
        <time>2023-09-20T12:08:06Z</time>
      </trkpt>
      <trkpt lat="44.32293" lon="1.55489">
        <ele>271.7</ele>
        <time>2023-09-20T12:08:07Z</time>
      </trkpt>
      <trkpt lat="44.32287" lon="1.55494">
        <ele>271.5</ele>
        <time>2023-09-20T12:08:08Z</time>
      </trkpt>
      <trkpt lat="44.3228" lon="1.55499">
        <ele>271.1</ele>
        <time>2023-09-20T12:08:09Z</time>
      </trkpt>
      <trkpt lat="44.32274" lon="1.55505">
        <ele>270.9</ele>
        <time>2023-09-20T12:08:10Z</time>
      </trkpt>
      <trkpt lat="44.32269" lon="1.55511">
        <ele>270.7</ele>
        <time>2023-09-20T12:08:11Z</time>
      </trkpt>
      <trkpt lat="44.32264" lon="1.55519">
        <ele>270.5</ele>
        <time>2023-09-20T12:08:12Z</time>
      </trkpt>
      <trkpt lat="44.32259" lon="1.55525">
        <ele>270.3</ele>
        <time>2023-09-20T12:08:13Z</time>
      </trkpt>
      <trkpt lat="44.32254" lon="1.55532">
        <ele>270.1</ele>
        <time>2023-09-20T12:08:14Z</time>
      </trkpt>
      <trkpt lat="44.32249" lon="1.55539">
        <ele>270</ele>
        <time>2023-09-20T12:08:15Z</time>
      </trkpt>
      <trkpt lat="44.32244" lon="1.55546">
        <ele>269.8</ele>
        <time>2023-09-20T12:08:16Z</time>
      </trkpt>
      <trkpt lat="44.32239" lon="1.55552">
        <ele>269.6</ele>
        <time>2023-09-20T12:08:17Z</time>
      </trkpt>
      <trkpt lat="44.32233" lon="1.55557">
        <ele>269.4</ele>
        <time>2023-09-20T12:08:18Z</time>
      </trkpt>
      <trkpt lat="44.32227" lon="1.55562">
        <ele>269.1</ele>
        <time>2023-09-20T12:08:19Z</time>
      </trkpt>
      <trkpt lat="44.32221" lon="1.55567">
        <ele>268.9</ele>
        <time>2023-09-20T12:08:20Z</time>
      </trkpt>
      <trkpt lat="44.32215" lon="1.55573">
        <ele>268.5</ele>
        <time>2023-09-20T12:08:21Z</time>
      </trkpt>
      <trkpt lat="44.32209" lon="1.55579">
        <ele>268</ele>
        <time>2023-09-20T12:08:22Z</time>
      </trkpt>
      <trkpt lat="44.32204" lon="1.55587">
        <ele>267.7</ele>
        <time>2023-09-20T12:08:23Z</time>
      </trkpt>
      <trkpt lat="44.32199" lon="1.55595">
        <ele>267.5</ele>
        <time>2023-09-20T12:08:24Z</time>
      </trkpt>
      <trkpt lat="44.32194" lon="1.55602">
        <ele>267.7</ele>
        <time>2023-09-20T12:08:25Z</time>
      </trkpt>
      <trkpt lat="44.3219" lon="1.5561">
        <ele>267.6</ele>
        <time>2023-09-20T12:08:26Z</time>
      </trkpt>
      <trkpt lat="44.32184" lon="1.55618">
        <ele>267.2</ele>
        <time>2023-09-20T12:08:27Z</time>
      </trkpt>
      <trkpt lat="44.32179" lon="1.55626">
        <ele>266.9</ele>
        <time>2023-09-20T12:08:28Z</time>
      </trkpt>
      <trkpt lat="44.32173" lon="1.55633">
        <ele>266.9</ele>
        <time>2023-09-20T12:08:29Z</time>
      </trkpt>
      <trkpt lat="44.32167" lon="1.55639">
        <ele>267</ele>
        <time>2023-09-20T12:08:30Z</time>
      </trkpt>
      <trkpt lat="44.32161" lon="1.55644">
        <ele>266.6</ele>
        <time>2023-09-20T12:08:31Z</time>
      </trkpt>
      <trkpt lat="44.32154" lon="1.55649">
        <ele>266.3</ele>
        <time>2023-09-20T12:08:32Z</time>
      </trkpt>
      <trkpt lat="44.32148" lon="1.55654">
        <ele>266</ele>
        <time>2023-09-20T12:08:33Z</time>
      </trkpt>
      <trkpt lat="44.32142" lon="1.55658">
        <ele>265.8</ele>
        <time>2023-09-20T12:08:34Z</time>
      </trkpt>
      <trkpt lat="44.32135" lon="1.55663">
        <ele>265.6</ele>
        <time>2023-09-20T12:08:35Z</time>
      </trkpt>
      <trkpt lat="44.32128" lon="1.55667">
        <ele>265.2</ele>
        <time>2023-09-20T12:08:36Z</time>
      </trkpt>
      <trkpt lat="44.32121" lon="1.55672">
        <ele>264.7</ele>
        <time>2023-09-20T12:08:37Z</time>
      </trkpt>
      <trkpt lat="44.32115" lon="1.55678">
        <ele>264.2</ele>
        <time>2023-09-20T12:08:38Z</time>
      </trkpt>
      <trkpt lat="44.32108" lon="1.55682">
        <ele>263.7</ele>
        <time>2023-09-20T12:08:39Z</time>
      </trkpt>
      <trkpt lat="44.321" lon="1.55688">
        <ele>263.1</ele>
        <time>2023-09-20T12:08:40Z</time>
      </trkpt>
      <trkpt lat="44.32093" lon="1.55693">
        <ele>262.7</ele>
        <time>2023-09-20T12:08:41Z</time>
      </trkpt>
      <trkpt lat="44.32086" lon="1.55699">
        <ele>262.2</ele>
        <time>2023-09-20T12:08:42Z</time>
      </trkpt>
      <trkpt lat="44.32079" lon="1.55704">
        <ele>261.6</ele>
        <time>2023-09-20T12:08:43Z</time>
      </trkpt>
      <trkpt lat="44.32071" lon="1.55708">
        <ele>260.9</ele>
        <time>2023-09-20T12:08:44Z</time>
      </trkpt>
      <trkpt lat="44.32063" lon="1.5571">
        <ele>260.2</ele>
        <time>2023-09-20T12:08:45Z</time>
      </trkpt>
      <trkpt lat="44.32056" lon="1.55712">
        <ele>259.7</ele>
        <time>2023-09-20T12:08:46Z</time>
      </trkpt>
      <trkpt lat="44.32048" lon="1.55715">
        <ele>259</ele>
        <time>2023-09-20T12:08:47Z</time>
      </trkpt>
      <trkpt lat="44.3204" lon="1.55718">
        <ele>258.2</ele>
        <time>2023-09-20T12:08:48Z</time>
      </trkpt>
      <trkpt lat="44.32032" lon="1.55721">
        <ele>257.4</ele>
        <time>2023-09-20T12:08:49Z</time>
      </trkpt>
      <trkpt lat="44.32023" lon="1.55724">
        <ele>256.6</ele>
        <time>2023-09-20T12:08:50Z</time>
      </trkpt>
      <trkpt lat="44.32014" lon="1.55726">
        <ele>255.8</ele>
        <time>2023-09-20T12:08:51Z</time>
      </trkpt>
      <trkpt lat="44.32006" lon="1.55728">
        <ele>254.9</ele>
        <time>2023-09-20T12:08:52Z</time>
      </trkpt>
      <trkpt lat="44.31996" lon="1.5573">
        <ele>254.1</ele>
        <time>2023-09-20T12:08:53Z</time>
      </trkpt>
      <trkpt lat="44.31987" lon="1.55733">
        <ele>253.3</ele>
        <time>2023-09-20T12:08:54Z</time>
      </trkpt>
      <trkpt lat="44.31978" lon="1.55735">
        <ele>252.5</ele>
        <time>2023-09-20T12:08:55Z</time>
      </trkpt>
      <trkpt lat="44.31969" lon="1.55738">
        <ele>251.8</ele>
        <time>2023-09-20T12:08:56Z</time>
      </trkpt>
      <trkpt lat="44.31959" lon="1.55742">
        <ele>251</ele>
        <time>2023-09-20T12:08:57Z</time>
      </trkpt>
      <trkpt lat="44.3195" lon="1.55747">
        <ele>249.8</ele>
        <time>2023-09-20T12:08:58Z</time>
      </trkpt>
      <trkpt lat="44.31941" lon="1.55752">
        <ele>248.9</ele>
        <time>2023-09-20T12:08:59Z</time>
      </trkpt>
      <trkpt lat="44.31932" lon="1.55756">
        <ele>248.2</ele>
        <time>2023-09-20T12:09:00Z</time>
      </trkpt>
      <trkpt lat="44.31922" lon="1.55758">
        <ele>247.1</ele>
        <time>2023-09-20T12:09:01Z</time>
      </trkpt>
      <trkpt lat="44.31912" lon="1.5576">
        <ele>246.4</ele>
        <time>2023-09-20T12:09:02Z</time>
      </trkpt>
      <trkpt lat="44.31903" lon="1.55762">
        <ele>246.2</ele>
        <time>2023-09-20T12:09:03Z</time>
      </trkpt>
      <trkpt lat="44.31894" lon="1.55766">
        <ele>245.8</ele>
        <time>2023-09-20T12:09:04Z</time>
      </trkpt>
      <trkpt lat="44.31887" lon="1.55771">
        <ele>245</ele>
        <time>2023-09-20T12:09:05Z</time>
      </trkpt>
      <trkpt lat="44.31879" lon="1.55779">
        <ele>244.6</ele>
        <time>2023-09-20T12:09:06Z</time>
      </trkpt>
      <trkpt lat="44.31872" lon="1.55787">
        <ele>244</ele>
        <time>2023-09-20T12:09:07Z</time>
      </trkpt>
      <trkpt lat="44.31865" lon="1.55797">
        <ele>243.1</ele>
        <time>2023-09-20T12:09:08Z</time>
      </trkpt>
      <trkpt lat="44.31858" lon="1.55805">
        <ele>241.9</ele>
        <time>2023-09-20T12:09:09Z</time>
      </trkpt>
      <trkpt lat="44.3185" lon="1.55812">
        <ele>240.7</ele>
        <time>2023-09-20T12:09:10Z</time>
      </trkpt>
      <trkpt lat="44.31841" lon="1.55818">
        <ele>239.8</ele>
        <time>2023-09-20T12:09:11Z</time>
      </trkpt>
      <trkpt lat="44.31833" lon="1.55821">
        <ele>239.3</ele>
        <time>2023-09-20T12:09:12Z</time>
      </trkpt>
      <trkpt lat="44.31826" lon="1.55819">
        <ele>238.4</ele>
        <time>2023-09-20T12:09:13Z</time>
      </trkpt>
      <trkpt lat="44.3182" lon="1.55814">
        <ele>237.7</ele>
        <time>2023-09-20T12:09:14Z</time>
      </trkpt>
      <trkpt lat="44.31814" lon="1.55807">
        <ele>236.7</ele>
        <time>2023-09-20T12:09:15Z</time>
      </trkpt>
      <trkpt lat="44.31807" lon="1.55799">
        <ele>235</ele>
        <time>2023-09-20T12:09:16Z</time>
      </trkpt>
      <trkpt lat="44.31798" lon="1.55791">
        <ele>234</ele>
        <time>2023-09-20T12:09:17Z</time>
      </trkpt>
      <trkpt lat="44.3179" lon="1.55784">
        <ele>233.4</ele>
        <time>2023-09-20T12:09:18Z</time>
      </trkpt>
      <trkpt lat="44.3178" lon="1.55778">
        <ele>233.1</ele>
        <time>2023-09-20T12:09:19Z</time>
      </trkpt>
      <trkpt lat="44.31771" lon="1.55773">
        <ele>233.5</ele>
        <time>2023-09-20T12:09:20Z</time>
      </trkpt>
      <trkpt lat="44.31763" lon="1.55769">
        <ele>234</ele>
        <time>2023-09-20T12:09:21Z</time>
      </trkpt>
      <trkpt lat="44.31755" lon="1.55765">
        <ele>234.2</ele>
        <time>2023-09-20T12:09:22Z</time>
      </trkpt>
      <trkpt lat="44.31749" lon="1.55762">
        <ele>234.4</ele>
        <time>2023-09-20T12:09:23Z</time>
      </trkpt>
      <trkpt lat="44.31743" lon="1.5576">
        <ele>234.5</ele>
        <time>2023-09-20T12:09:24Z</time>
      </trkpt>
      <trkpt lat="44.31737" lon="1.5576">
        <ele>234.8</ele>
        <time>2023-09-20T12:09:25Z</time>
      </trkpt>
      <trkpt lat="44.31732" lon="1.55759">
        <ele>235.1</ele>
        <time>2023-09-20T12:09:26Z</time>
      </trkpt>
      <trkpt lat="44.31726" lon="1.55759">
        <ele>235.4</ele>
        <time>2023-09-20T12:09:27Z</time>
      </trkpt>
      <trkpt lat="44.31721" lon="1.55759">
        <ele>235.6</ele>
        <time>2023-09-20T12:09:28Z</time>
      </trkpt>
      <trkpt lat="44.31715" lon="1.55759">
        <ele>235.6</ele>
        <time>2023-09-20T12:09:29Z</time>
      </trkpt>
      <trkpt lat="44.3171" lon="1.5576">
        <ele>235.7</ele>
        <time>2023-09-20T12:09:30Z</time>
      </trkpt>
      <trkpt lat="44.31705" lon="1.55761">
        <ele>235.8</ele>
        <time>2023-09-20T12:09:31Z</time>
      </trkpt>
      <trkpt lat="44.31699" lon="1.55763">
        <ele>235.9</ele>
        <time>2023-09-20T12:09:32Z</time>
      </trkpt>
      <trkpt lat="44.31693" lon="1.55764">
        <ele>235.9</ele>
        <time>2023-09-20T12:09:33Z</time>
      </trkpt>
      <trkpt lat="44.31687" lon="1.55766">
        <ele>235.8</ele>
        <time>2023-09-20T12:09:34Z</time>
      </trkpt>
      <trkpt lat="44.3168" lon="1.55769">
        <ele>235.7</ele>
        <time>2023-09-20T12:09:35Z</time>
      </trkpt>
      <trkpt lat="44.31674" lon="1.55771">
        <ele>235.6</ele>
        <time>2023-09-20T12:09:36Z</time>
      </trkpt>
      <trkpt lat="44.31668" lon="1.55774">
        <ele>235.6</ele>
        <time>2023-09-20T12:09:37Z</time>
      </trkpt>
      <trkpt lat="44.31662" lon="1.55776">
        <ele>235.4</ele>
        <time>2023-09-20T12:09:38Z</time>
      </trkpt>
      <trkpt lat="44.31656" lon="1.55778">
        <ele>235.2</ele>
        <time>2023-09-20T12:09:39Z</time>
      </trkpt>
      <trkpt lat="44.3165" lon="1.5578">
        <ele>234.9</ele>
        <time>2023-09-20T12:09:40Z</time>
      </trkpt>
      <trkpt lat="44.31645" lon="1.55783">
        <ele>234.6</ele>
        <time>2023-09-20T12:09:41Z</time>
      </trkpt>
      <trkpt lat="44.31638" lon="1.55786">
        <ele>234.2</ele>
        <time>2023-09-20T12:09:42Z</time>
      </trkpt>
      <trkpt lat="44.31632" lon="1.55789">
        <ele>233.7</ele>
        <time>2023-09-20T12:09:43Z</time>
      </trkpt>
      <trkpt lat="44.31625" lon="1.55792">
        <ele>233.3</ele>
        <time>2023-09-20T12:09:44Z</time>
      </trkpt>
      <trkpt lat="44.31618" lon="1.55795">
        <ele>232.8</ele>
        <time>2023-09-20T12:09:45Z</time>
      </trkpt>
      <trkpt lat="44.31611" lon="1.55798">
        <ele>232.4</ele>
        <time>2023-09-20T12:09:46Z</time>
      </trkpt>
      <trkpt lat="44.31604" lon="1.558">
        <ele>232.3</ele>
        <time>2023-09-20T12:09:47Z</time>
      </trkpt>
      <trkpt lat="44.31598" lon="1.55802">
        <ele>232.2</ele>
        <time>2023-09-20T12:09:48Z</time>
      </trkpt>
      <trkpt lat="44.3159" lon="1.55804">
        <ele>232.1</ele>
        <time>2023-09-20T12:09:49Z</time>
      </trkpt>
      <trkpt lat="44.31584" lon="1.55806">
        <ele>232</ele>
        <time>2023-09-20T12:09:50Z</time>
      </trkpt>
      <trkpt lat="44.31577" lon="1.55808">
        <ele>232</ele>
        <time>2023-09-20T12:09:51Z</time>
      </trkpt>
      <trkpt lat="44.31571" lon="1.5581">
        <ele>232</ele>
        <time>2023-09-20T12:09:52Z</time>
      </trkpt>
      <trkpt lat="44.31564" lon="1.55812">
        <ele>231.9</ele>
        <time>2023-09-20T12:09:53Z</time>
      </trkpt>
      <trkpt lat="44.31558" lon="1.55814">
        <ele>231.9</ele>
        <time>2023-09-20T12:09:54Z</time>
      </trkpt>
      <trkpt lat="44.31551" lon="1.55816">
        <ele>231.9</ele>
        <time>2023-09-20T12:09:55Z</time>
      </trkpt>
      <trkpt lat="44.31545" lon="1.55817">
        <ele>231.9</ele>
        <time>2023-09-20T12:09:56Z</time>
      </trkpt>
      <trkpt lat="44.31538" lon="1.55818">
        <ele>231.7</ele>
        <time>2023-09-20T12:09:57Z</time>
      </trkpt>
      <trkpt lat="44.31531" lon="1.55819">
        <ele>231.5</ele>
        <time>2023-09-20T12:09:58Z</time>
      </trkpt>
      <trkpt lat="44.31525" lon="1.55819">
        <ele>231.4</ele>
        <time>2023-09-20T12:09:59Z</time>
      </trkpt>
      <trkpt lat="44.31518" lon="1.55819">
        <ele>231.4</ele>
        <time>2023-09-20T12:10:00Z</time>
      </trkpt>
      <trkpt lat="44.31512" lon="1.55819">
        <ele>231.4</ele>
        <time>2023-09-20T12:10:01Z</time>
      </trkpt>
      <trkpt lat="44.31506" lon="1.55818">
        <ele>231.4</ele>
        <time>2023-09-20T12:10:02Z</time>
      </trkpt>
      <trkpt lat="44.315" lon="1.55817">
        <ele>231.3</ele>
        <time>2023-09-20T12:10:03Z</time>
      </trkpt>
      <trkpt lat="44.31494" lon="1.55817">
        <ele>230.9</ele>
        <time>2023-09-20T12:10:04Z</time>
      </trkpt>
      <trkpt lat="44.31487" lon="1.55817">
        <ele>230.6</ele>
        <time>2023-09-20T12:10:05Z</time>
      </trkpt>
      <trkpt lat="44.3148" lon="1.55818">
        <ele>230.3</ele>
        <time>2023-09-20T12:10:06Z</time>
      </trkpt>
      <trkpt lat="44.31474" lon="1.55819">
        <ele>230</ele>
        <time>2023-09-20T12:10:07Z</time>
      </trkpt>
      <trkpt lat="44.31467" lon="1.5582">
        <ele>229.7</ele>
        <time>2023-09-20T12:10:08Z</time>
      </trkpt>
      <trkpt lat="44.31461" lon="1.55821">
        <ele>229.3</ele>
        <time>2023-09-20T12:10:09Z</time>
      </trkpt>
      <trkpt lat="44.31454" lon="1.5582">
        <ele>228.7</ele>
        <time>2023-09-20T12:10:10Z</time>
      </trkpt>
      <trkpt lat="44.31446" lon="1.55818">
        <ele>228</ele>
        <time>2023-09-20T12:10:11Z</time>
      </trkpt>
      <trkpt lat="44.31438" lon="1.55818">
        <ele>227.4</ele>
        <time>2023-09-20T12:10:12Z</time>
      </trkpt>
      <trkpt lat="44.31431" lon="1.5582">
        <ele>227.1</ele>
        <time>2023-09-20T12:10:13Z</time>
      </trkpt>
      <trkpt lat="44.31424" lon="1.55825">
        <ele>226.9</ele>
        <time>2023-09-20T12:10:14Z</time>
      </trkpt>
      <trkpt lat="44.31418" lon="1.5583">
        <ele>226.9</ele>
        <time>2023-09-20T12:10:15Z</time>
      </trkpt>
      <trkpt lat="44.31413" lon="1.55837">
        <ele>226.9</ele>
        <time>2023-09-20T12:10:16Z</time>
      </trkpt>
      <trkpt lat="44.31407" lon="1.55844">
        <ele>226.8</ele>
        <time>2023-09-20T12:10:17Z</time>
      </trkpt>
      <trkpt lat="44.31401" lon="1.5585">
        <ele>226.4</ele>
        <time>2023-09-20T12:10:18Z</time>
      </trkpt>
      <trkpt lat="44.31396" lon="1.55858">
        <ele>225.9</ele>
        <time>2023-09-20T12:10:19Z</time>
      </trkpt>
      <trkpt lat="44.31391" lon="1.55865">
        <ele>225.6</ele>
        <time>2023-09-20T12:10:20Z</time>
      </trkpt>
      <trkpt lat="44.31385" lon="1.55873">
        <ele>225.6</ele>
        <time>2023-09-20T12:10:21Z</time>
      </trkpt>
      <trkpt lat="44.31379" lon="1.55879">
        <ele>225.5</ele>
        <time>2023-09-20T12:10:22Z</time>
      </trkpt>
      <trkpt lat="44.31373" lon="1.55885">
        <ele>225.2</ele>
        <time>2023-09-20T12:10:23Z</time>
      </trkpt>
      <trkpt lat="44.31368" lon="1.55892">
        <ele>224.7</ele>
        <time>2023-09-20T12:10:24Z</time>
      </trkpt>
      <trkpt lat="44.31362" lon="1.55899">
        <ele>224</ele>
        <time>2023-09-20T12:10:25Z</time>
      </trkpt>
      <trkpt lat="44.31356" lon="1.55907">
        <ele>223.8</ele>
        <time>2023-09-20T12:10:26Z</time>
      </trkpt>
      <trkpt lat="44.3135" lon="1.55914">
        <ele>223.6</ele>
        <time>2023-09-20T12:10:27Z</time>
      </trkpt>
      <trkpt lat="44.31345" lon="1.5592">
        <ele>223.4</ele>
        <time>2023-09-20T12:10:28Z</time>
      </trkpt>
      <trkpt lat="44.31339" lon="1.55927">
        <ele>223.1</ele>
        <time>2023-09-20T12:10:29Z</time>
      </trkpt>
      <trkpt lat="44.31334" lon="1.55933">
        <ele>223</ele>
        <time>2023-09-20T12:10:30Z</time>
      </trkpt>
      <trkpt lat="44.31329" lon="1.55939">
        <ele>223.1</ele>
        <time>2023-09-20T12:10:31Z</time>
      </trkpt>
      <trkpt lat="44.31323" lon="1.55945">
        <ele>223.4</ele>
        <time>2023-09-20T12:10:32Z</time>
      </trkpt>
      <trkpt lat="44.31318" lon="1.5595">
        <ele>223.5</ele>
        <time>2023-09-20T12:10:33Z</time>
      </trkpt>
      <trkpt lat="44.31313" lon="1.55955">
        <ele>223.7</ele>
        <time>2023-09-20T12:10:34Z</time>
      </trkpt>
      <trkpt lat="44.31308" lon="1.5596">
        <ele>223.9</ele>
        <time>2023-09-20T12:10:35Z</time>
      </trkpt>
      <trkpt lat="44.31304" lon="1.55965">
        <ele>224.1</ele>
        <time>2023-09-20T12:10:36Z</time>
      </trkpt>
      <trkpt lat="44.313" lon="1.55968">
        <ele>224.4</ele>
        <time>2023-09-20T12:10:37Z</time>
      </trkpt>
      <trkpt lat="44.31296" lon="1.55972">
        <ele>224.7</ele>
        <time>2023-09-20T12:10:38Z</time>
      </trkpt>
      <trkpt lat="44.31292" lon="1.55976">
        <ele>225.1</ele>
        <time>2023-09-20T12:10:39Z</time>
      </trkpt>
      <trkpt lat="44.3129" lon="1.5598">
        <ele>225.4</ele>
        <time>2023-09-20T12:10:40Z</time>
      </trkpt>
      <trkpt lat="44.31287" lon="1.55983">
        <ele>225.7</ele>
        <time>2023-09-20T12:10:41Z</time>
      </trkpt>
      <trkpt lat="44.31284" lon="1.55986">
        <ele>226</ele>
        <time>2023-09-20T12:10:42Z</time>
      </trkpt>
      <trkpt lat="44.31281" lon="1.5599">
        <ele>226.4</ele>
        <time>2023-09-20T12:10:43Z</time>
      </trkpt>
      <trkpt lat="44.31278" lon="1.55994">
        <ele>226.7</ele>
        <time>2023-09-20T12:10:44Z</time>
      </trkpt>
      <trkpt lat="44.31276" lon="1.55999">
        <ele>227</ele>
        <time>2023-09-20T12:10:45Z</time>
      </trkpt>
      <trkpt lat="44.31273" lon="1.56004">
        <ele>227.1</ele>
        <time>2023-09-20T12:10:46Z</time>
      </trkpt>
      <trkpt lat="44.31269" lon="1.56009">
        <ele>227.1</ele>
        <time>2023-09-20T12:10:47Z</time>
      </trkpt>
      <trkpt lat="44.31265" lon="1.56014">
        <ele>227.2</ele>
        <time>2023-09-20T12:10:49Z</time>
      </trkpt>
      <trkpt lat="44.31261" lon="1.56019">
        <ele>227.3</ele>
        <time>2023-09-20T12:10:50Z</time>
      </trkpt>
      <trkpt lat="44.31255" lon="1.56028">
        <ele>227.6</ele>
        <time>2023-09-20T12:10:51Z</time>
      </trkpt>
      <trkpt lat="44.31252" lon="1.56032">
        <ele>227.8</ele>
        <time>2023-09-20T12:10:52Z</time>
      </trkpt>
      <trkpt lat="44.31249" lon="1.56037">
        <ele>228</ele>
        <time>2023-09-20T12:10:53Z</time>
      </trkpt>
      <trkpt lat="44.31248" lon="1.56038">
        <ele>228</ele>
        <time>2023-09-20T12:10:54Z</time>
      </trkpt>
      <trkpt lat="44.31243" lon="1.56046">
        <ele>228.2</ele>
        <time>2023-09-20T12:10:56Z</time>
      </trkpt>
      <trkpt lat="44.31239" lon="1.56054">
        <ele>228.4</ele>
        <time>2023-09-20T12:10:57Z</time>
      </trkpt>
      <trkpt lat="44.31236" lon="1.56058">
        <ele>228.4</ele>
        <time>2023-09-20T12:10:58Z</time>
      </trkpt>
      <trkpt lat="44.31234" lon="1.56062">
        <ele>228.4</ele>
        <time>2023-09-20T12:10:59Z</time>
      </trkpt>
      <trkpt lat="44.3123" lon="1.56068">
        <ele>228.5</ele>
        <time>2023-09-20T12:11:00Z</time>
      </trkpt>
      <trkpt lat="44.31228" lon="1.56072">
        <ele>228.6</ele>
        <time>2023-09-20T12:11:01Z</time>
      </trkpt>
      <trkpt lat="44.31225" lon="1.56077">
        <ele>228.7</ele>
        <time>2023-09-20T12:11:02Z</time>
      </trkpt>
      <trkpt lat="44.31224" lon="1.56082">
        <ele>228.8</ele>
        <time>2023-09-20T12:11:03Z</time>
      </trkpt>
      <trkpt lat="44.31222" lon="1.56088">
        <ele>229</ele>
        <time>2023-09-20T12:11:04Z</time>
      </trkpt>
      <trkpt lat="44.3122" lon="1.56093">
        <ele>229.1</ele>
        <time>2023-09-20T12:11:05Z</time>
      </trkpt>
      <trkpt lat="44.31217" lon="1.56097">
        <ele>229.3</ele>
        <time>2023-09-20T12:11:06Z</time>
      </trkpt>
      <trkpt lat="44.31214" lon="1.56101">
        <ele>229.5</ele>
        <time>2023-09-20T12:11:07Z</time>
      </trkpt>
      <trkpt lat="44.31212" lon="1.56107">
        <ele>229.7</ele>
        <time>2023-09-20T12:11:08Z</time>
      </trkpt>
      <trkpt lat="44.31211" lon="1.56111">
        <ele>229.8</ele>
        <time>2023-09-20T12:11:09Z</time>
      </trkpt>
      <trkpt lat="44.31209" lon="1.56116">
        <ele>230</ele>
        <time>2023-09-20T12:11:10Z</time>
      </trkpt>
      <trkpt lat="44.31206" lon="1.5612">
        <ele>230.1</ele>
        <time>2023-09-20T12:11:11Z</time>
      </trkpt>
      <trkpt lat="44.31203" lon="1.56123">
        <ele>230.4</ele>
        <time>2023-09-20T12:11:12Z</time>
      </trkpt>
      <trkpt lat="44.312" lon="1.56127">
        <ele>230.6</ele>
        <time>2023-09-20T12:11:13Z</time>
      </trkpt>
      <trkpt lat="44.31198" lon="1.5613">
        <ele>230.8</ele>
        <time>2023-09-20T12:11:14Z</time>
      </trkpt>
      <trkpt lat="44.31195" lon="1.56134">
        <ele>231</ele>
        <time>2023-09-20T12:11:15Z</time>
      </trkpt>
      <trkpt lat="44.31192" lon="1.56138">
        <ele>231.1</ele>
        <time>2023-09-20T12:11:16Z</time>
      </trkpt>
      <trkpt lat="44.31189" lon="1.5614">
        <ele>231.2</ele>
        <time>2023-09-20T12:11:17Z</time>
      </trkpt>
      <trkpt lat="44.31186" lon="1.56143">
        <ele>231.4</ele>
        <time>2023-09-20T12:11:18Z</time>
      </trkpt>
      <trkpt lat="44.31183" lon="1.56148">
        <ele>231.6</ele>
        <time>2023-09-20T12:11:19Z</time>
      </trkpt>
      <trkpt lat="44.3118" lon="1.56151">
        <ele>231.8</ele>
        <time>2023-09-20T12:11:20Z</time>
      </trkpt>
      <trkpt lat="44.31177" lon="1.56154">
        <ele>232</ele>
        <time>2023-09-20T12:11:21Z</time>
      </trkpt>
      <trkpt lat="44.31173" lon="1.56157">
        <ele>232.3</ele>
        <time>2023-09-20T12:11:22Z</time>
      </trkpt>
      <trkpt lat="44.3117" lon="1.56162">
        <ele>232.6</ele>
        <time>2023-09-20T12:11:23Z</time>
      </trkpt>
      <trkpt lat="44.31167" lon="1.56166">
        <ele>233</ele>
        <time>2023-09-20T12:11:24Z</time>
      </trkpt>
      <trkpt lat="44.31164" lon="1.56171">
        <ele>233.3</ele>
        <time>2023-09-20T12:11:25Z</time>
      </trkpt>
      <trkpt lat="44.31161" lon="1.56176">
        <ele>233.7</ele>
        <time>2023-09-20T12:11:26Z</time>
      </trkpt>
      <trkpt lat="44.31159" lon="1.56182">
        <ele>234.1</ele>
        <time>2023-09-20T12:11:27Z</time>
      </trkpt>
      <trkpt lat="44.31158" lon="1.56186">
        <ele>234.4</ele>
        <time>2023-09-20T12:11:28Z</time>
      </trkpt>
      <trkpt lat="44.31156" lon="1.56192">
        <ele>234.9</ele>
        <time>2023-09-20T12:11:29Z</time>
      </trkpt>
      <trkpt lat="44.31154" lon="1.56197">
        <ele>235.4</ele>
        <time>2023-09-20T12:11:30Z</time>
      </trkpt>
      <trkpt lat="44.31152" lon="1.56202">
        <ele>235.7</ele>
        <time>2023-09-20T12:11:31Z</time>
      </trkpt>
      <trkpt lat="44.3115" lon="1.56206">
        <ele>236.1</ele>
        <time>2023-09-20T12:11:32Z</time>
      </trkpt>
      <trkpt lat="44.31148" lon="1.5621">
        <ele>236.4</ele>
        <time>2023-09-20T12:11:33Z</time>
      </trkpt>
      <trkpt lat="44.31146" lon="1.56215">
        <ele>236.7</ele>
        <time>2023-09-20T12:11:34Z</time>
      </trkpt>
      <trkpt lat="44.31143" lon="1.56219">
        <ele>237.2</ele>
        <time>2023-09-20T12:11:35Z</time>
      </trkpt>
      <trkpt lat="44.31141" lon="1.56221">
        <ele>237.6</ele>
        <time>2023-09-20T12:11:36Z</time>
      </trkpt>
      <trkpt lat="44.31115" lon="1.56258">
        <ele>238.6</ele>
      </trkpt>
      <trkpt lat="44.31061" lon="1.56287">
        <ele>239.9</ele>
        <time>2023-09-20T12:14:30Z</time>
      </trkpt>
      <trkpt lat="44.3106" lon="1.5629">
        <ele>239.9</ele>
        <time>2023-09-20T12:14:31Z</time>
      </trkpt>
      <trkpt lat="44.3106" lon="1.56291">
        <ele>239.9</ele>
        <time>2023-09-20T12:14:32Z</time>
      </trkpt>
      <trkpt lat="44.31059" lon="1.56292">
        <ele>239.9</ele>
        <time>2023-09-20T12:14:33Z</time>
      </trkpt>
      <trkpt lat="44.31059" lon="1.56294">
        <ele>239.9</ele>
        <time>2023-09-20T12:14:34Z</time>
      </trkpt>
      <trkpt lat="44.31059" lon="1.56296">
        <ele>239.9</ele>
        <time>2023-09-20T12:14:35Z</time>
      </trkpt>
      <trkpt lat="44.3106" lon="1.56302">
        <ele>239.9</ele>
        <time>2023-09-20T12:14:36Z</time>
        <extensions>
          <visugpx:TrkExtension xmlns:visugpx="https://www.visugpx.com/editgpx/">
            <visugpx:node>1</visugpx:node>
            </visugpx:TrkExtension>
        </extensions>
      </trkpt>
      <trkpt lat="44.30188" lon="1.57065">
        <ele>268.6</ele>
        <extensions>
          <visugpx:TrkExtension xmlns:visugpx="https://www.visugpx.com/editgpx/">
            <visugpx:node>2</visugpx:node>
            </visugpx:TrkExtension>
        </extensions>
      </trkpt>
      <trkpt lat="44.30331" lon="1.57514">
        <ele>262.7</ele>
        <extensions>
          <visugpx:TrkExtension xmlns:visugpx="https://www.visugpx.com/editgpx/">
            <visugpx:node>3</visugpx:node>
            </visugpx:TrkExtension>
        </extensions>
      </trkpt>
      <trkpt lat="44.30356" lon="1.57551">
        <ele>262.3</ele>
        <time>2023-09-20T12:26:28Z</time>
      </trkpt>
      <trkpt lat="44.30355" lon="1.57556">
        <ele>262.4</ele>
        <time>2023-09-20T12:26:29Z</time>
      </trkpt>
      <trkpt lat="44.30354" lon="1.57561">
        <ele>262.2</ele>
        <time>2023-09-20T12:26:30Z</time>
      </trkpt>
      <trkpt lat="44.30354" lon="1.57562">
        <ele>262.1</ele>
        <time>2023-09-20T12:26:31Z</time>
      </trkpt>
      <trkpt lat="44.30355" lon="1.57566">
        <ele>261.8</ele>
        <time>2023-09-20T12:26:32Z</time>
      </trkpt>
      <trkpt lat="44.30357" lon="1.5757">
        <ele>261.5</ele>
        <time>2023-09-20T12:26:33Z</time>
      </trkpt>
      <trkpt lat="44.30358" lon="1.57576">
        <ele>260.9</ele>
        <time>2023-09-20T12:26:34Z</time>
      </trkpt>
      <trkpt lat="44.30359" lon="1.57584">
        <ele>260.4</ele>
        <time>2023-09-20T12:26:35Z</time>
      </trkpt>
      <trkpt lat="44.30359" lon="1.5759">
        <ele>260.2</ele>
        <time>2023-09-20T12:26:36Z</time>
      </trkpt>
      <trkpt lat="44.3036" lon="1.57599">
        <ele>260.2</ele>
        <time>2023-09-20T12:26:37Z</time>
      </trkpt>
      <trkpt lat="44.3036" lon="1.57606">
        <ele>260.1</ele>
        <time>2023-09-20T12:26:38Z</time>
      </trkpt>
      <trkpt lat="44.30361" lon="1.57616">
        <ele>260</ele>
        <time>2023-09-20T12:26:39Z</time>
      </trkpt>
      <trkpt lat="44.30362" lon="1.57626">
        <ele>259.9</ele>
        <time>2023-09-20T12:26:40Z</time>
      </trkpt>
      <trkpt lat="44.30362" lon="1.57635">
        <ele>259.9</ele>
        <time>2023-09-20T12:26:41Z</time>
      </trkpt>
      <trkpt lat="44.30361" lon="1.57643">
        <ele>259.8</ele>
        <time>2023-09-20T12:26:42Z</time>
      </trkpt>
      <trkpt lat="44.3036" lon="1.5765">
        <ele>259.7</ele>
        <time>2023-09-20T12:26:43Z</time>
      </trkpt>
      <trkpt lat="44.3036" lon="1.57658">
        <ele>259.4</ele>
        <time>2023-09-20T12:26:45Z</time>
      </trkpt>
      <trkpt lat="44.3036" lon="1.57664">
        <ele>259.3</ele>
        <time>2023-09-20T12:26:46Z</time>
      </trkpt>
      <trkpt lat="44.3036" lon="1.5767">
        <ele>259.2</ele>
        <time>2023-09-20T12:26:47Z</time>
      </trkpt>
      <trkpt lat="44.30358" lon="1.5768">
        <ele>259.3</ele>
        <time>2023-09-20T12:26:48Z</time>
      </trkpt>
      <trkpt lat="44.30357" lon="1.57686">
        <ele>259.4</ele>
        <time>2023-09-20T12:26:49Z</time>
      </trkpt>
      <trkpt lat="44.30356" lon="1.57692">
        <ele>259.4</ele>
        <time>2023-09-20T12:26:50Z</time>
      </trkpt>
      <trkpt lat="44.30355" lon="1.57699">
        <ele>259.4</ele>
        <time>2023-09-20T12:26:51Z</time>
      </trkpt>
      <trkpt lat="44.30355" lon="1.57707">
        <ele>259.2</ele>
        <time>2023-09-20T12:26:52Z</time>
      </trkpt>
      <trkpt lat="44.30355" lon="1.57715">
        <ele>259.1</ele>
        <time>2023-09-20T12:26:53Z</time>
      </trkpt>
      <trkpt lat="44.30356" lon="1.57725">
        <ele>259</ele>
        <time>2023-09-20T12:26:54Z</time>
      </trkpt>
      <trkpt lat="44.30358" lon="1.57734">
        <ele>259</ele>
        <time>2023-09-20T12:26:55Z</time>
      </trkpt>
      <trkpt lat="44.3036" lon="1.57745">
        <ele>259</ele>
        <time>2023-09-20T12:26:57Z</time>
      </trkpt>
      <trkpt lat="44.30363" lon="1.57759">
        <ele>259.5</ele>
        <time>2023-09-20T12:26:58Z</time>
      </trkpt>
      <trkpt lat="44.30365" lon="1.57761">
        <ele>259.9</ele>
        <time>2023-09-20T12:26:59Z</time>
      </trkpt>
      <trkpt lat="44.30364" lon="1.5777">
        <ele>260.1</ele>
        <time>2023-09-20T12:27:01Z</time>
      </trkpt>
      <trkpt lat="44.30365" lon="1.57779">
        <ele>260.5</ele>
        <time>2023-09-20T12:27:02Z</time>
      </trkpt>
      <trkpt lat="44.30367" lon="1.57786">
        <ele>261</ele>
        <time>2023-09-20T12:27:03Z</time>
      </trkpt>
      <trkpt lat="44.3037" lon="1.57789">
        <ele>261.4</ele>
        <time>2023-09-20T12:27:04Z</time>
      </trkpt>
      <trkpt lat="44.30374" lon="1.5779">
        <ele>262</ele>
        <time>2023-09-20T12:27:05Z</time>
      </trkpt>
      <trkpt lat="44.30379" lon="1.57786">
        <ele>262.8</ele>
        <time>2023-09-20T12:27:06Z</time>
      </trkpt>
      <trkpt lat="44.30382" lon="1.57784">
        <ele>263.2</ele>
        <time>2023-09-20T12:27:07Z</time>
      </trkpt>
      <trkpt lat="44.30386" lon="1.5778">
        <ele>263.6</ele>
        <time>2023-09-20T12:27:08Z</time>
      </trkpt>
      <trkpt lat="44.3039" lon="1.57778">
        <ele>264.3</ele>
        <time>2023-09-20T12:27:09Z</time>
      </trkpt>
      <trkpt lat="44.30394" lon="1.57777">
        <ele>265</ele>
        <time>2023-09-20T12:27:10Z</time>
      </trkpt>
      <trkpt lat="44.30399" lon="1.57778">
        <ele>266.2</ele>
        <time>2023-09-20T12:27:11Z</time>
      </trkpt>
      <trkpt lat="44.30403" lon="1.57778">
        <ele>267.1</ele>
        <time>2023-09-20T12:27:12Z</time>
      </trkpt>
      <trkpt lat="44.30407" lon="1.57777">
        <ele>267.7</ele>
        <time>2023-09-20T12:27:13Z</time>
      </trkpt>
      <trkpt lat="44.30412" lon="1.57775">
        <ele>268.6</ele>
        <time>2023-09-20T12:27:14Z</time>
      </trkpt>
      <trkpt lat="44.30415" lon="1.57774">
        <ele>269.1</ele>
        <time>2023-09-20T12:27:15Z</time>
      </trkpt>
      <trkpt lat="44.30419" lon="1.57772">
        <ele>269.4</ele>
        <time>2023-09-20T12:27:16Z</time>
      </trkpt>
      <trkpt lat="44.30422" lon="1.57772">
        <ele>269.6</ele>
        <time>2023-09-20T12:27:17Z</time>
      </trkpt>
      <trkpt lat="44.30425" lon="1.57771">
        <ele>269.7</ele>
        <time>2023-09-20T12:27:18Z</time>
      </trkpt>
      <trkpt lat="44.30429" lon="1.5777">
        <ele>269.9</ele>
        <time>2023-09-20T12:27:19Z</time>
      </trkpt>
      <trkpt lat="44.30432" lon="1.57769">
        <ele>270.2</ele>
        <time>2023-09-20T12:27:20Z</time>
      </trkpt>
      <trkpt lat="44.30435" lon="1.5777">
        <ele>270.6</ele>
        <time>2023-09-20T12:27:21Z</time>
      </trkpt>
      <trkpt lat="44.30438" lon="1.57772">
        <ele>270.9</ele>
        <time>2023-09-20T12:27:22Z</time>
      </trkpt>
      <trkpt lat="44.30439" lon="1.57775">
        <ele>271.4</ele>
        <time>2023-09-20T12:27:23Z</time>
      </trkpt>
      <trkpt lat="44.3044" lon="1.57779">
        <ele>271.7</ele>
        <time>2023-09-20T12:27:24Z</time>
      </trkpt>
      <trkpt lat="44.30442" lon="1.57784">
        <ele>272.3</ele>
        <time>2023-09-20T12:27:25Z</time>
      </trkpt>
      <trkpt lat="44.30443" lon="1.57787">
        <ele>272.5</ele>
        <time>2023-09-20T12:27:26Z</time>
      </trkpt>
      <trkpt lat="44.30444" lon="1.5779">
        <ele>272.9</ele>
        <time>2023-09-20T12:27:27Z</time>
      </trkpt>
      <trkpt lat="44.30445" lon="1.57796">
        <ele>273.3</ele>
        <time>2023-09-20T12:27:28Z</time>
      </trkpt>
      <trkpt lat="44.30446" lon="1.57802">
        <ele>273.8</ele>
        <time>2023-09-20T12:27:29Z</time>
      </trkpt>
      <trkpt lat="44.30447" lon="1.57806">
        <ele>274.1</ele>
        <time>2023-09-20T12:27:30Z</time>
      </trkpt>
      <trkpt lat="44.30448" lon="1.57814">
        <ele>274.4</ele>
        <time>2023-09-20T12:27:31Z</time>
      </trkpt>
      <trkpt lat="44.30449" lon="1.5782">
        <ele>274.7</ele>
        <time>2023-09-20T12:27:32Z</time>
      </trkpt>
      <trkpt lat="44.3045" lon="1.57825">
        <ele>274.9</ele>
        <time>2023-09-20T12:27:33Z</time>
      </trkpt>
      <trkpt lat="44.30452" lon="1.57831">
        <ele>275.2</ele>
        <time>2023-09-20T12:27:34Z</time>
      </trkpt>
      <trkpt lat="44.30453" lon="1.57837">
        <ele>275.3</ele>
        <time>2023-09-20T12:27:35Z</time>
      </trkpt>
      <trkpt lat="44.30454" lon="1.57843">
        <ele>275.5</ele>
        <time>2023-09-20T12:27:36Z</time>
      </trkpt>
      <trkpt lat="44.30454" lon="1.57848">
        <ele>275.5</ele>
        <time>2023-09-20T12:27:37Z</time>
      </trkpt>
      <trkpt lat="44.30455" lon="1.57854">
        <ele>275.7</ele>
        <time>2023-09-20T12:27:38Z</time>
      </trkpt>
      <trkpt lat="44.30456" lon="1.5786">
        <ele>275.8</ele>
        <time>2023-09-20T12:27:39Z</time>
      </trkpt>
      <trkpt lat="44.30457" lon="1.57866">
        <ele>275.9</ele>
        <time>2023-09-20T12:27:40Z</time>
      </trkpt>
      <trkpt lat="44.3046" lon="1.57872">
        <ele>276.1</ele>
        <time>2023-09-20T12:27:41Z</time>
      </trkpt>
      <trkpt lat="44.30461" lon="1.57878">
        <ele>276.2</ele>
        <time>2023-09-20T12:27:42Z</time>
      </trkpt>
      <trkpt lat="44.30462" lon="1.57884">
        <ele>276.3</ele>
        <time>2023-09-20T12:27:43Z</time>
      </trkpt>
      <trkpt lat="44.30463" lon="1.57889">
        <ele>276.4</ele>
        <time>2023-09-20T12:27:44Z</time>
      </trkpt>
      <trkpt lat="44.30464" lon="1.57895">
        <ele>276.6</ele>
        <time>2023-09-20T12:27:45Z</time>
      </trkpt>
      <trkpt lat="44.30465" lon="1.579">
        <ele>276.9</ele>
        <time>2023-09-20T12:27:46Z</time>
      </trkpt>
      <trkpt lat="44.30466" lon="1.57905">
        <ele>277.1</ele>
        <time>2023-09-20T12:27:47Z</time>
      </trkpt>
      <trkpt lat="44.30467" lon="1.57911">
        <ele>277.4</ele>
        <time>2023-09-20T12:27:48Z</time>
      </trkpt>
      <trkpt lat="44.30468" lon="1.57916">
        <ele>277.7</ele>
        <time>2023-09-20T12:27:49Z</time>
      </trkpt>
      <trkpt lat="44.30471" lon="1.57926">
        <ele>277.9</ele>
        <time>2023-09-20T12:27:51Z</time>
      </trkpt>
      <trkpt lat="44.30472" lon="1.57934">
        <ele>278</ele>
        <time>2023-09-20T12:27:53Z</time>
      </trkpt>
      <trkpt lat="44.30473" lon="1.5794">
        <ele>278</ele>
        <time>2023-09-20T12:27:54Z</time>
      </trkpt>
      <trkpt lat="44.30475" lon="1.5795">
        <ele>278.1</ele>
        <time>2023-09-20T12:27:55Z</time>
      </trkpt>
      <trkpt lat="44.30477" lon="1.57957">
        <ele>278.2</ele>
        <time>2023-09-20T12:27:56Z</time>
      </trkpt>
      <trkpt lat="44.30479" lon="1.57965">
        <ele>278.3</ele>
        <time>2023-09-20T12:27:58Z</time>
      </trkpt>
      <trkpt lat="44.3048" lon="1.57973">
        <ele>278.4</ele>
        <time>2023-09-20T12:27:59Z</time>
      </trkpt>
      <trkpt lat="44.30483" lon="1.57988">
        <ele>278.2</ele>
        <time>2023-09-20T12:28:00Z</time>
      </trkpt>
      <trkpt lat="44.30485" lon="1.57996">
        <ele>278.1</ele>
        <time>2023-09-20T12:28:01Z</time>
      </trkpt>
      <trkpt lat="44.30487" lon="1.58002">
        <ele>278</ele>
        <time>2023-09-20T12:28:03Z</time>
      </trkpt>
      <trkpt lat="44.30492" lon="1.58017">
        <ele>277.6</ele>
        <time>2023-09-20T12:28:04Z</time>
      </trkpt>
      <trkpt lat="44.30494" lon="1.58023">
        <ele>277.4</ele>
        <time>2023-09-20T12:28:05Z</time>
      </trkpt>
      <trkpt lat="44.30498" lon="1.58029">
        <ele>277.2</ele>
        <time>2023-09-20T12:28:06Z</time>
      </trkpt>
      <trkpt lat="44.30501" lon="1.58035">
        <ele>277.2</ele>
        <time>2023-09-20T12:28:07Z</time>
      </trkpt>
      <trkpt lat="44.30505" lon="1.58039">
        <ele>277.1</ele>
        <time>2023-09-20T12:28:08Z</time>
      </trkpt>
      <trkpt lat="44.3051" lon="1.58044">
        <ele>277</ele>
        <time>2023-09-20T12:28:09Z</time>
      </trkpt>
      <trkpt lat="44.30514" lon="1.58049">
        <ele>276.9</ele>
        <time>2023-09-20T12:28:10Z</time>
      </trkpt>
      <trkpt lat="44.30518" lon="1.58054">
        <ele>276.7</ele>
        <time>2023-09-20T12:28:11Z</time>
      </trkpt>
      <trkpt lat="44.30522" lon="1.58059">
        <ele>276.5</ele>
        <time>2023-09-20T12:28:12Z</time>
      </trkpt>
      <trkpt lat="44.30526" lon="1.58064">
        <ele>276.4</ele>
        <time>2023-09-20T12:28:13Z</time>
      </trkpt>
      <trkpt lat="44.30529" lon="1.58069">
        <ele>276.4</ele>
        <time>2023-09-20T12:28:14Z</time>
      </trkpt>
      <trkpt lat="44.30532" lon="1.58073">
        <ele>276.5</ele>
        <time>2023-09-20T12:28:15Z</time>
      </trkpt>
      <trkpt lat="44.30533" lon="1.58077">
        <ele>276.6</ele>
        <time>2023-09-20T12:28:16Z</time>
      </trkpt>
      <trkpt lat="44.30531" lon="1.58081">
        <ele>276.8</ele>
        <time>2023-09-20T12:28:17Z</time>
      </trkpt>
      <trkpt lat="44.3053" lon="1.58082">
        <ele>276.9</ele>
        <time>2023-09-20T12:28:18Z</time>
      </trkpt>
      <trkpt lat="44.30527" lon="1.58083">
        <ele>277</ele>
        <time>2023-09-20T12:28:19Z</time>
      </trkpt>
      <trkpt lat="44.30524" lon="1.58083">
        <ele>277.1</ele>
        <time>2023-09-20T12:28:20Z</time>
      </trkpt>
      <trkpt lat="44.30521" lon="1.58083">
        <ele>277.2</ele>
        <time>2023-09-20T12:28:21Z</time>
      </trkpt>
      <trkpt lat="44.30517" lon="1.58084">
        <ele>277.4</ele>
        <time>2023-09-20T12:28:23Z</time>
      </trkpt>
      <trkpt lat="44.30513" lon="1.58086">
        <ele>277.6</ele>
        <time>2023-09-20T12:28:24Z</time>
      </trkpt>
      <trkpt lat="44.3051" lon="1.58089">
        <ele>277.8</ele>
        <time>2023-09-20T12:28:25Z</time>
      </trkpt>
      <trkpt lat="44.30507" lon="1.58092">
        <ele>278</ele>
        <time>2023-09-20T12:28:26Z</time>
      </trkpt>
      <trkpt lat="44.30502" lon="1.58095">
        <ele>278.3</ele>
        <time>2023-09-20T12:28:27Z</time>
      </trkpt>
      <trkpt lat="44.30497" lon="1.58097">
        <ele>278.7</ele>
        <time>2023-09-20T12:28:28Z</time>
      </trkpt>
      <trkpt lat="44.30494" lon="1.58099">
        <ele>279</ele>
        <time>2023-09-20T12:28:29Z</time>
      </trkpt>
      <trkpt lat="44.30491" lon="1.58102">
        <ele>279.3</ele>
        <time>2023-09-20T12:28:30Z</time>
      </trkpt>
      <trkpt lat="44.30487" lon="1.58104">
        <ele>279.7</ele>
        <time>2023-09-20T12:28:31Z</time>
      </trkpt>
      <trkpt lat="44.30485" lon="1.58107">
        <ele>280</ele>
        <time>2023-09-20T12:28:32Z</time>
      </trkpt>
      <trkpt lat="44.30482" lon="1.58109">
        <ele>280.2</ele>
        <time>2023-09-20T12:28:33Z</time>
      </trkpt>
      <trkpt lat="44.30478" lon="1.5811">
        <ele>280.5</ele>
        <time>2023-09-20T12:28:34Z</time>
      </trkpt>
      <trkpt lat="44.30474" lon="1.58111">
        <ele>280.9</ele>
        <time>2023-09-20T12:28:35Z</time>
      </trkpt>
      <trkpt lat="44.30471" lon="1.58113">
        <ele>281.2</ele>
        <time>2023-09-20T12:28:36Z</time>
      </trkpt>
      <trkpt lat="44.30468" lon="1.58115">
        <ele>281.4</ele>
        <time>2023-09-20T12:28:37Z</time>
      </trkpt>
      <trkpt lat="44.30465" lon="1.58117">
        <ele>281.7</ele>
        <time>2023-09-20T12:28:38Z</time>
      </trkpt>
      <trkpt lat="44.30462" lon="1.58119">
        <ele>282</ele>
        <time>2023-09-20T12:28:39Z</time>
      </trkpt>
      <trkpt lat="44.30459" lon="1.58122">
        <ele>282.4</ele>
        <time>2023-09-20T12:28:40Z</time>
      </trkpt>
      <trkpt lat="44.30456" lon="1.58124">
        <ele>282.6</ele>
        <time>2023-09-20T12:28:41Z</time>
      </trkpt>
      <trkpt lat="44.30453" lon="1.58127">
        <ele>282.9</ele>
        <time>2023-09-20T12:28:42Z</time>
      </trkpt>
      <trkpt lat="44.3045" lon="1.58129">
        <ele>283.2</ele>
        <time>2023-09-20T12:28:43Z</time>
      </trkpt>
      <trkpt lat="44.30448" lon="1.58131">
        <ele>283.5</ele>
        <time>2023-09-20T12:28:44Z</time>
      </trkpt>
      <trkpt lat="44.30445" lon="1.58135">
        <ele>283.8</ele>
        <time>2023-09-20T12:28:45Z</time>
      </trkpt>
      <trkpt lat="44.30444" lon="1.58138">
        <ele>283.8</ele>
        <time>2023-09-20T12:28:46Z</time>
      </trkpt>
      <trkpt lat="44.30442" lon="1.58142">
        <ele>284</ele>
        <time>2023-09-20T12:28:47Z</time>
      </trkpt>
      <trkpt lat="44.30441" lon="1.58147">
        <ele>284.2</ele>
        <time>2023-09-20T12:28:48Z</time>
      </trkpt>
      <trkpt lat="44.3044" lon="1.58149">
        <ele>284.3</ele>
        <time>2023-09-20T12:28:49Z</time>
      </trkpt>
      <trkpt lat="44.30439" lon="1.58154">
        <ele>284.7</ele>
        <time>2023-09-20T12:28:50Z</time>
      </trkpt>
      <trkpt lat="44.30438" lon="1.5816">
        <ele>285.1</ele>
        <time>2023-09-20T12:28:52Z</time>
      </trkpt>
      <trkpt lat="44.30438" lon="1.58164">
        <ele>285.5</ele>
        <time>2023-09-20T12:28:53Z</time>
      </trkpt>
      <trkpt lat="44.30438" lon="1.58169">
        <ele>286</ele>
        <time>2023-09-20T12:28:54Z</time>
      </trkpt>
      <trkpt lat="44.30437" lon="1.58178">
        <ele>286.7</ele>
        <time>2023-09-20T12:28:56Z</time>
      </trkpt>
      <trkpt lat="44.30435" lon="1.58183">
        <ele>287.1</ele>
        <time>2023-09-20T12:28:57Z</time>
      </trkpt>
      <trkpt lat="44.30433" lon="1.58188">
        <ele>287.5</ele>
        <time>2023-09-20T12:28:58Z</time>
      </trkpt>
      <trkpt lat="44.3043" lon="1.58191">
        <ele>287.7</ele>
        <time>2023-09-20T12:28:59Z</time>
      </trkpt>
      <trkpt lat="44.30428" lon="1.58194">
        <ele>288</ele>
        <time>2023-09-20T12:29:01Z</time>
      </trkpt>
      <trkpt lat="44.30425" lon="1.58198">
        <ele>288.2</ele>
        <time>2023-09-20T12:29:02Z</time>
      </trkpt>
      <trkpt lat="44.30422" lon="1.58203">
        <ele>288.6</ele>
        <time>2023-09-20T12:29:03Z</time>
      </trkpt>
      <trkpt lat="44.30417" lon="1.58212">
        <ele>289.2</ele>
        <time>2023-09-20T12:29:05Z</time>
      </trkpt>
      <trkpt lat="44.30413" lon="1.58218">
        <ele>289.4</ele>
        <time>2023-09-20T12:29:07Z</time>
      </trkpt>
      <trkpt lat="44.30409" lon="1.58224">
        <ele>289.6</ele>
        <time>2023-09-20T12:29:09Z</time>
      </trkpt>
      <trkpt lat="44.30407" lon="1.58228">
        <ele>289.6</ele>
        <time>2023-09-20T12:29:10Z</time>
      </trkpt>
      <trkpt lat="44.30404" lon="1.58232">
        <ele>289.8</ele>
        <time>2023-09-20T12:29:11Z</time>
      </trkpt>
      <trkpt lat="44.304" lon="1.5824">
        <ele>290.2</ele>
        <time>2023-09-20T12:29:13Z</time>
      </trkpt>
      <trkpt lat="44.30398" lon="1.58245">
        <ele>290.6</ele>
        <time>2023-09-20T12:29:14Z</time>
      </trkpt>
      <trkpt lat="44.30396" lon="1.58248">
        <ele>290.8</ele>
        <time>2023-09-20T12:29:15Z</time>
      </trkpt>
      <trkpt lat="44.30394" lon="1.58252">
        <ele>291</ele>
        <time>2023-09-20T12:29:16Z</time>
      </trkpt>
      <trkpt lat="44.30392" lon="1.58256">
        <ele>291.1</ele>
        <time>2023-09-20T12:29:17Z</time>
      </trkpt>
      <trkpt lat="44.30391" lon="1.58261">
        <ele>291.3</ele>
        <time>2023-09-20T12:29:18Z</time>
      </trkpt>
      <trkpt lat="44.30389" lon="1.58265">
        <ele>291.5</ele>
        <time>2023-09-20T12:29:19Z</time>
      </trkpt>
      <trkpt lat="44.30387" lon="1.58271">
        <ele>291.4</ele>
        <time>2023-09-20T12:29:20Z</time>
      </trkpt>
      <trkpt lat="44.30385" lon="1.58276">
        <ele>291.2</ele>
        <time>2023-09-20T12:29:21Z</time>
      </trkpt>
      <trkpt lat="44.30383" lon="1.58281">
        <ele>290.9</ele>
        <time>2023-09-20T12:29:22Z</time>
      </trkpt>
      <trkpt lat="44.30382" lon="1.58286">
        <ele>290.7</ele>
        <time>2023-09-20T12:29:23Z</time>
      </trkpt>
      <trkpt lat="44.30381" lon="1.5829">
        <ele>290.5</ele>
        <time>2023-09-20T12:29:24Z</time>
      </trkpt>
      <trkpt lat="44.30379" lon="1.58294">
        <ele>290.3</ele>
        <time>2023-09-20T12:29:25Z</time>
      </trkpt>
      <trkpt lat="44.30378" lon="1.58299">
        <ele>290.1</ele>
        <time>2023-09-20T12:29:26Z</time>
      </trkpt>
      <trkpt lat="44.30376" lon="1.58303">
        <ele>290</ele>
        <time>2023-09-20T12:29:27Z</time>
      </trkpt>
      <trkpt lat="44.30375" lon="1.58308">
        <ele>290</ele>
        <time>2023-09-20T12:29:28Z</time>
      </trkpt>
      <trkpt lat="44.30375" lon="1.58313">
        <ele>290</ele>
        <time>2023-09-20T12:29:29Z</time>
      </trkpt>
      <trkpt lat="44.30375" lon="1.58315">
        <ele>290</ele>
        <time>2023-09-20T12:29:30Z</time>
      </trkpt>
      <trkpt lat="44.30374" lon="1.58318">
        <ele>290</ele>
        <time>2023-09-20T12:29:31Z</time>
      </trkpt>
      <trkpt lat="44.30373" lon="1.58321">
        <ele>290</ele>
        <time>2023-09-20T12:29:32Z</time>
      </trkpt>
      <trkpt lat="44.30373" lon="1.58324">
        <ele>290.1</ele>
        <time>2023-09-20T12:29:33Z</time>
      </trkpt>
      <trkpt lat="44.30372" lon="1.58325">
        <ele>290.1</ele>
        <time>2023-09-20T12:29:34Z</time>
      </trkpt>
      <trkpt lat="44.30372" lon="1.58325">
        <ele>290.1</ele>
        <time>2023-09-20T12:29:35Z</time>
      </trkpt>
      <trkpt lat="44.30371" lon="1.58329">
        <ele>290.2</ele>
        <time>2023-09-20T12:29:36Z</time>
      </trkpt>
      <trkpt lat="44.3037" lon="1.58331">
        <ele>290.3</ele>
        <time>2023-09-20T12:29:37Z</time>
      </trkpt>
      <trkpt lat="44.30368" lon="1.58336">
        <ele>290.6</ele>
        <time>2023-09-20T12:29:38Z</time>
      </trkpt>
      <trkpt lat="44.30367" lon="1.5834">
        <ele>290.8</ele>
        <time>2023-09-20T12:29:39Z</time>
      </trkpt>
      <trkpt lat="44.30365" lon="1.58345">
        <ele>291.1</ele>
        <time>2023-09-20T12:29:40Z</time>
      </trkpt>
      <trkpt lat="44.30364" lon="1.5835">
        <ele>291.3</ele>
        <time>2023-09-20T12:29:41Z</time>
      </trkpt>
      <trkpt lat="44.30363" lon="1.58355">
        <ele>291.6</ele>
        <time>2023-09-20T12:29:42Z</time>
      </trkpt>
      <trkpt lat="44.30362" lon="1.58361">
        <ele>291.9</ele>
        <time>2023-09-20T12:29:43Z</time>
      </trkpt>
      <trkpt lat="44.30361" lon="1.58366">
        <ele>292.3</ele>
        <time>2023-09-20T12:29:44Z</time>
      </trkpt>
      <trkpt lat="44.30359" lon="1.58371">
        <ele>292.4</ele>
        <time>2023-09-20T12:29:45Z</time>
      </trkpt>
      <trkpt lat="44.30358" lon="1.58376">
        <ele>292.5</ele>
        <time>2023-09-20T12:29:46Z</time>
      </trkpt>
      <trkpt lat="44.30356" lon="1.58382">
        <ele>292.8</ele>
        <time>2023-09-20T12:29:47Z</time>
      </trkpt>
      <trkpt lat="44.30355" lon="1.58387">
        <ele>293</ele>
        <time>2023-09-20T12:29:48Z</time>
      </trkpt>
      <trkpt lat="44.30355" lon="1.58391">
        <ele>293.2</ele>
        <time>2023-09-20T12:29:49Z</time>
      </trkpt>
      <trkpt lat="44.30353" lon="1.58397">
        <ele>293.2</ele>
        <time>2023-09-20T12:29:50Z</time>
      </trkpt>
      <trkpt lat="44.30351" lon="1.58401">
        <ele>293.1</ele>
        <time>2023-09-20T12:29:51Z</time>
      </trkpt>
      <trkpt lat="44.30348" lon="1.58406">
        <ele>293</ele>
        <time>2023-09-20T12:29:53Z</time>
      </trkpt>
      <trkpt lat="44.30347" lon="1.58413">
        <ele>293.3</ele>
        <time>2023-09-20T12:29:54Z</time>
      </trkpt>
      <trkpt lat="44.30346" lon="1.58417">
        <ele>293.4</ele>
        <time>2023-09-20T12:29:55Z</time>
      </trkpt>
      <trkpt lat="44.30345" lon="1.58422">
        <ele>293.4</ele>
        <time>2023-09-20T12:29:56Z</time>
      </trkpt>
      <trkpt lat="44.30343" lon="1.58428">
        <ele>293.5</ele>
        <time>2023-09-20T12:29:57Z</time>
      </trkpt>
      <trkpt lat="44.30341" lon="1.58434">
        <ele>293.5</ele>
        <time>2023-09-20T12:29:58Z</time>
      </trkpt>
      <trkpt lat="44.3034" lon="1.58439">
        <ele>293.7</ele>
        <time>2023-09-20T12:29:59Z</time>
      </trkpt>
      <trkpt lat="44.30338" lon="1.58443">
        <ele>293.9</ele>
        <time>2023-09-20T12:30:00Z</time>
      </trkpt>
      <trkpt lat="44.30337" lon="1.58448">
        <ele>294.2</ele>
        <time>2023-09-20T12:30:01Z</time>
      </trkpt>
      <trkpt lat="44.30336" lon="1.58452">
        <ele>294.5</ele>
        <time>2023-09-20T12:30:02Z</time>
      </trkpt>
      <trkpt lat="44.30334" lon="1.58457">
        <ele>294.9</ele>
        <time>2023-09-20T12:30:03Z</time>
      </trkpt>
      <trkpt lat="44.30332" lon="1.58462">
        <ele>295</ele>
        <time>2023-09-20T12:30:04Z</time>
      </trkpt>
      <trkpt lat="44.30331" lon="1.58467">
        <ele>295</ele>
        <time>2023-09-20T12:30:05Z</time>
      </trkpt>
      <trkpt lat="44.30329" lon="1.58473">
        <ele>295</ele>
        <time>2023-09-20T12:30:06Z</time>
      </trkpt>
      <trkpt lat="44.30328" lon="1.58478">
        <ele>294.7</ele>
        <time>2023-09-20T12:30:07Z</time>
      </trkpt>
      <trkpt lat="44.30327" lon="1.58484">
        <ele>294.3</ele>
        <time>2023-09-20T12:30:08Z</time>
      </trkpt>
      <trkpt lat="44.30325" lon="1.58489">
        <ele>293.9</ele>
        <time>2023-09-20T12:30:09Z</time>
      </trkpt>
      <trkpt lat="44.30323" lon="1.58494">
        <ele>293.7</ele>
        <time>2023-09-20T12:30:10Z</time>
      </trkpt>
      <trkpt lat="44.30321" lon="1.58498">
        <ele>293.6</ele>
        <time>2023-09-20T12:30:11Z</time>
      </trkpt>
      <trkpt lat="44.30319" lon="1.58503">
        <ele>293.6</ele>
        <time>2023-09-20T12:30:12Z</time>
      </trkpt>
      <trkpt lat="44.30317" lon="1.58508">
        <ele>293.7</ele>
        <time>2023-09-20T12:30:13Z</time>
      </trkpt>
      <trkpt lat="44.30314" lon="1.58512">
        <ele>293.9</ele>
        <time>2023-09-20T12:30:14Z</time>
      </trkpt>
      <trkpt lat="44.3031" lon="1.58516">
        <ele>294.4</ele>
        <time>2023-09-20T12:30:15Z</time>
      </trkpt>
      <trkpt lat="44.30308" lon="1.58521">
        <ele>295.1</ele>
        <time>2023-09-20T12:30:16Z</time>
      </trkpt>
      <trkpt lat="44.30307" lon="1.58527">
        <ele>295.7</ele>
        <time>2023-09-20T12:30:17Z</time>
      </trkpt>
      <trkpt lat="44.30307" lon="1.58534">
        <ele>295.8</ele>
        <time>2023-09-20T12:30:18Z</time>
      </trkpt>
      <trkpt lat="44.30307" lon="1.58539">
        <ele>295.7</ele>
        <time>2023-09-20T12:30:19Z</time>
      </trkpt>
      <trkpt lat="44.30306" lon="1.58542">
        <ele>295.9</ele>
        <time>2023-09-20T12:30:20Z</time>
      </trkpt>
      <trkpt lat="44.30304" lon="1.58547">
        <ele>295.9</ele>
        <time>2023-09-20T12:30:21Z</time>
      </trkpt>
      <trkpt lat="44.30303" lon="1.58549">
        <ele>295.8</ele>
        <time>2023-09-20T12:30:22Z</time>
      </trkpt>
      <trkpt lat="44.30301" lon="1.58553">
        <ele>295.8</ele>
        <time>2023-09-20T12:30:23Z</time>
      </trkpt>
      <trkpt lat="44.30298" lon="1.58559">
        <ele>295.7</ele>
        <time>2023-09-20T12:30:24Z</time>
      </trkpt>
      <trkpt lat="44.30296" lon="1.58564">
        <ele>295.7</ele>
        <time>2023-09-20T12:30:25Z</time>
      </trkpt>
      <trkpt lat="44.30293" lon="1.58568">
        <ele>295.7</ele>
        <time>2023-09-20T12:30:26Z</time>
      </trkpt>
      <trkpt lat="44.3029" lon="1.58572">
        <ele>295.8</ele>
        <time>2023-09-20T12:30:27Z</time>
      </trkpt>
      <trkpt lat="44.30287" lon="1.58575">
        <ele>296.1</ele>
        <time>2023-09-20T12:30:28Z</time>
      </trkpt>
      <trkpt lat="44.30284" lon="1.58579">
        <ele>296.4</ele>
        <time>2023-09-20T12:30:29Z</time>
      </trkpt>
      <trkpt lat="44.30281" lon="1.58582">
        <ele>296.7</ele>
        <time>2023-09-20T12:30:30Z</time>
      </trkpt>
      <trkpt lat="44.30279" lon="1.58587">
        <ele>297.1</ele>
        <time>2023-09-20T12:30:31Z</time>
      </trkpt>
      <trkpt lat="44.30276" lon="1.58591">
        <ele>297.1</ele>
        <time>2023-09-20T12:30:32Z</time>
      </trkpt>
      <trkpt lat="44.30273" lon="1.58595">
        <ele>296.9</ele>
        <time>2023-09-20T12:30:33Z</time>
      </trkpt>
      <trkpt lat="44.3027" lon="1.58599">
        <ele>296.9</ele>
        <time>2023-09-20T12:30:34Z</time>
      </trkpt>
      <trkpt lat="44.30267" lon="1.58604">
        <ele>297.1</ele>
        <time>2023-09-20T12:30:35Z</time>
      </trkpt>
      <trkpt lat="44.30264" lon="1.58609">
        <ele>297.3</ele>
        <time>2023-09-20T12:30:36Z</time>
      </trkpt>
      <trkpt lat="44.30261" lon="1.58616">
        <ele>297.5</ele>
        <time>2023-09-20T12:30:38Z</time>
      </trkpt>
      <trkpt lat="44.30258" lon="1.58622">
        <ele>297.6</ele>
        <time>2023-09-20T12:30:39Z</time>
      </trkpt>
      <trkpt lat="44.30256" lon="1.58626">
        <ele>297.8</ele>
        <time>2023-09-20T12:30:40Z</time>
      </trkpt>
      <trkpt lat="44.30254" lon="1.5863">
        <ele>298.1</ele>
        <time>2023-09-20T12:30:41Z</time>
      </trkpt>
      <trkpt lat="44.30252" lon="1.58635">
        <ele>298.5</ele>
        <time>2023-09-20T12:30:42Z</time>
      </trkpt>
      <trkpt lat="44.30249" lon="1.5864">
        <ele>298.9</ele>
        <time>2023-09-20T12:30:43Z</time>
      </trkpt>
      <trkpt lat="44.30247" lon="1.58644">
        <ele>298.4</ele>
        <time>2023-09-20T12:30:44Z</time>
      </trkpt>
      <trkpt lat="44.30244" lon="1.58649">
        <ele>298.1</ele>
        <time>2023-09-20T12:30:45Z</time>
      </trkpt>
      <trkpt lat="44.30241" lon="1.58654">
        <ele>297.9</ele>
        <time>2023-09-20T12:30:46Z</time>
      </trkpt>
      <trkpt lat="44.30239" lon="1.58659">
        <ele>297.8</ele>
        <time>2023-09-20T12:30:47Z</time>
      </trkpt>
      <trkpt lat="44.30236" lon="1.58664">
        <ele>297.9</ele>
        <time>2023-09-20T12:30:48Z</time>
      </trkpt>
      <trkpt lat="44.30234" lon="1.58668">
        <ele>298</ele>
        <time>2023-09-20T12:30:49Z</time>
      </trkpt>
      <trkpt lat="44.30232" lon="1.58671">
        <ele>298.2</ele>
        <time>2023-09-20T12:30:50Z</time>
      </trkpt>
      <trkpt lat="44.30229" lon="1.58675">
        <ele>298.4</ele>
        <time>2023-09-20T12:30:51Z</time>
      </trkpt>
      <trkpt lat="44.30223" lon="1.58684">
        <ele>299.2</ele>
        <time>2023-09-20T12:30:53Z</time>
      </trkpt>
      <trkpt lat="44.30219" lon="1.58691">
        <ele>299.4</ele>
        <time>2023-09-20T12:30:55Z</time>
      </trkpt>
      <trkpt lat="44.30213" lon="1.58699">
        <ele>299</ele>
        <time>2023-09-20T12:30:57Z</time>
      </trkpt>
      <trkpt lat="44.30208" lon="1.58703">
        <ele>298.8</ele>
        <time>2023-09-20T12:30:58Z</time>
      </trkpt>
      <trkpt lat="44.30204" lon="1.58707">
        <ele>298.8</ele>
        <time>2023-09-20T12:30:59Z</time>
      </trkpt>
      <trkpt lat="44.302" lon="1.58712">
        <ele>299</ele>
        <time>2023-09-20T12:31:00Z</time>
      </trkpt>
      <trkpt lat="44.30196" lon="1.58716">
        <ele>299.4</ele>
        <time>2023-09-20T12:31:01Z</time>
      </trkpt>
      <trkpt lat="44.30192" lon="1.5872">
        <ele>299.7</ele>
        <time>2023-09-20T12:31:02Z</time>
      </trkpt>
      <trkpt lat="44.30187" lon="1.58724">
        <ele>299.7</ele>
        <time>2023-09-20T12:31:03Z</time>
      </trkpt>
      <trkpt lat="44.30182" lon="1.58729">
        <ele>299.6</ele>
        <time>2023-09-20T12:31:05Z</time>
      </trkpt>
      <trkpt lat="44.30178" lon="1.58732">
        <ele>299.7</ele>
        <time>2023-09-20T12:31:06Z</time>
      </trkpt>
      <trkpt lat="44.30175" lon="1.58734">
        <ele>299.8</ele>
        <time>2023-09-20T12:31:07Z</time>
      </trkpt>
      <trkpt lat="44.30171" lon="1.58737">
        <ele>299.9</ele>
        <time>2023-09-20T12:31:08Z</time>
      </trkpt>
      <trkpt lat="44.30167" lon="1.58739">
        <ele>300.2</ele>
        <time>2023-09-20T12:31:09Z</time>
      </trkpt>
      <trkpt lat="44.30163" lon="1.58741">
        <ele>300.3</ele>
        <time>2023-09-20T12:31:10Z</time>
      </trkpt>
      <trkpt lat="44.30157" lon="1.58744">
        <ele>300.5</ele>
        <time>2023-09-20T12:31:11Z</time>
      </trkpt>
      <trkpt lat="44.30149" lon="1.58748">
        <ele>300.8</ele>
        <time>2023-09-20T12:31:13Z</time>
      </trkpt>
      <trkpt lat="44.30142" lon="1.58751">
        <ele>301</ele>
        <time>2023-09-20T12:31:15Z</time>
      </trkpt>
      <trkpt lat="44.30138" lon="1.58752">
        <ele>301.2</ele>
        <time>2023-09-20T12:31:16Z</time>
      </trkpt>
      <trkpt lat="44.30135" lon="1.58753">
        <ele>301.2</ele>
        <time>2023-09-20T12:31:17Z</time>
      </trkpt>
      <trkpt lat="44.30131" lon="1.58754">
        <ele>301.3</ele>
        <time>2023-09-20T12:31:18Z</time>
      </trkpt>
      <trkpt lat="44.30127" lon="1.58754">
        <ele>301.3</ele>
        <time>2023-09-20T12:31:19Z</time>
      </trkpt>
      <trkpt lat="44.30121" lon="1.58755">
        <ele>301.4</ele>
        <time>2023-09-20T12:31:20Z</time>
      </trkpt>
      <trkpt lat="44.30116" lon="1.58756">
        <ele>301.4</ele>
        <time>2023-09-20T12:31:21Z</time>
      </trkpt>
      <trkpt lat="44.3011" lon="1.58757">
        <ele>301.6</ele>
        <time>2023-09-20T12:31:23Z</time>
      </trkpt>
      <trkpt lat="44.30103" lon="1.58758">
        <ele>302.1</ele>
        <time>2023-09-20T12:31:24Z</time>
      </trkpt>
      <trkpt lat="44.30099" lon="1.58759">
        <ele>302.4</ele>
        <time>2023-09-20T12:31:25Z</time>
      </trkpt>
      <trkpt lat="44.30094" lon="1.5876">
        <ele>302.8</ele>
        <time>2023-09-20T12:31:26Z</time>
      </trkpt>
      <trkpt lat="44.30089" lon="1.58761">
        <ele>303.1</ele>
        <time>2023-09-20T12:31:27Z</time>
      </trkpt>
      <trkpt lat="44.30085" lon="1.58761">
        <ele>303.3</ele>
        <time>2023-09-20T12:31:28Z</time>
      </trkpt>
      <trkpt lat="44.30081" lon="1.58762">
        <ele>303.5</ele>
        <time>2023-09-20T12:31:29Z</time>
      </trkpt>
      <trkpt lat="44.30076" lon="1.58762">
        <ele>303.6</ele>
        <time>2023-09-20T12:31:30Z</time>
      </trkpt>
      <trkpt lat="44.30072" lon="1.58762">
        <ele>303.7</ele>
        <time>2023-09-20T12:31:31Z</time>
      </trkpt>
      <trkpt lat="44.30067" lon="1.58761">
        <ele>303.8</ele>
        <time>2023-09-20T12:31:32Z</time>
      </trkpt>
      <trkpt lat="44.30062" lon="1.58762">
        <ele>303.9</ele>
        <time>2023-09-20T12:31:33Z</time>
      </trkpt>
      <trkpt lat="44.30056" lon="1.58761">
        <ele>304</ele>
        <time>2023-09-20T12:31:34Z</time>
      </trkpt>
      <trkpt lat="44.30052" lon="1.58761">
        <ele>303.9</ele>
        <time>2023-09-20T12:31:35Z</time>
      </trkpt>
      <trkpt lat="44.30048" lon="1.58759">
        <ele>303.8</ele>
        <time>2023-09-20T12:31:36Z</time>
      </trkpt>
      <trkpt lat="44.30044" lon="1.58759">
        <ele>303.7</ele>
        <time>2023-09-20T12:31:37Z</time>
      </trkpt>
      <trkpt lat="44.30039" lon="1.58759">
        <ele>303.6</ele>
        <time>2023-09-20T12:31:38Z</time>
      </trkpt>
      <trkpt lat="44.30035" lon="1.58759">
        <ele>303.5</ele>
        <time>2023-09-20T12:31:39Z</time>
      </trkpt>
      <trkpt lat="44.30031" lon="1.58759">
        <ele>303.4</ele>
        <time>2023-09-20T12:31:40Z</time>
      </trkpt>
      <trkpt lat="44.30026" lon="1.58759">
        <ele>303.3</ele>
        <time>2023-09-20T12:31:41Z</time>
      </trkpt>
      <trkpt lat="44.30021" lon="1.58758">
        <ele>303.3</ele>
        <time>2023-09-20T12:31:42Z</time>
      </trkpt>
      <trkpt lat="44.30016" lon="1.58756">
        <ele>303.2</ele>
        <time>2023-09-20T12:31:43Z</time>
      </trkpt>
      <trkpt lat="44.30012" lon="1.58756">
        <ele>303.2</ele>
        <time>2023-09-20T12:31:44Z</time>
      </trkpt>
      <trkpt lat="44.30003" lon="1.58753">
        <ele>303.1</ele>
        <time>2023-09-20T12:31:46Z</time>
      </trkpt>
      <trkpt lat="44.29998" lon="1.58752">
        <ele>303.1</ele>
        <time>2023-09-20T12:31:47Z</time>
      </trkpt>
      <trkpt lat="44.29993" lon="1.58751">
        <ele>303.3</ele>
        <time>2023-09-20T12:31:48Z</time>
      </trkpt>
      <trkpt lat="44.29989" lon="1.58751">
        <ele>303.4</ele>
        <time>2023-09-20T12:31:50Z</time>
      </trkpt>
      <trkpt lat="44.29982" lon="1.5875">
        <ele>303.6</ele>
        <time>2023-09-20T12:31:51Z</time>
      </trkpt>
      <trkpt lat="44.29976" lon="1.58748">
        <ele>303.7</ele>
        <time>2023-09-20T12:31:52Z</time>
      </trkpt>
      <trkpt lat="44.2997" lon="1.58747">
        <ele>303.8</ele>
        <time>2023-09-20T12:31:54Z</time>
      </trkpt>
      <trkpt lat="44.29964" lon="1.58746">
        <ele>303.8</ele>
        <time>2023-09-20T12:31:55Z</time>
      </trkpt>
      <trkpt lat="44.29958" lon="1.58746">
        <ele>303.8</ele>
        <time>2023-09-20T12:31:56Z</time>
      </trkpt>
      <trkpt lat="44.29953" lon="1.58744">
        <ele>303.9</ele>
        <time>2023-09-20T12:31:57Z</time>
      </trkpt>
      <trkpt lat="44.29948" lon="1.58743">
        <ele>303.9</ele>
        <time>2023-09-20T12:31:58Z</time>
      </trkpt>
      <trkpt lat="44.29944" lon="1.58742">
        <ele>304</ele>
        <time>2023-09-20T12:31:59Z</time>
      </trkpt>
      <trkpt lat="44.2994" lon="1.58741">
        <ele>304.4</ele>
        <time>2023-09-20T12:32:00Z</time>
      </trkpt>
      <trkpt lat="44.29936" lon="1.58741">
        <ele>304.6</ele>
        <time>2023-09-20T12:32:01Z</time>
      </trkpt>
      <trkpt lat="44.29929" lon="1.5874">
        <ele>305.1</ele>
        <time>2023-09-20T12:32:03Z</time>
      </trkpt>
      <trkpt lat="44.29924" lon="1.5874">
        <ele>305.5</ele>
        <time>2023-09-20T12:32:04Z</time>
      </trkpt>
      <trkpt lat="44.29919" lon="1.58738">
        <ele>305.8</ele>
        <time>2023-09-20T12:32:05Z</time>
      </trkpt>
      <trkpt lat="44.29914" lon="1.58737">
        <ele>306.1</ele>
        <time>2023-09-20T12:32:06Z</time>
      </trkpt>
      <trkpt lat="44.2991" lon="1.58737">
        <ele>306.3</ele>
        <time>2023-09-20T12:32:07Z</time>
      </trkpt>
      <trkpt lat="44.29905" lon="1.58739">
        <ele>306.4</ele>
        <time>2023-09-20T12:32:08Z</time>
      </trkpt>
      <trkpt lat="44.299" lon="1.58743">
        <ele>306.6</ele>
        <time>2023-09-20T12:32:09Z</time>
      </trkpt>
      <trkpt lat="44.29895" lon="1.58748">
        <ele>306.8</ele>
        <time>2023-09-20T12:32:10Z</time>
      </trkpt>
      <trkpt lat="44.29891" lon="1.58752">
        <ele>307</ele>
        <time>2023-09-20T12:32:11Z</time>
      </trkpt>
      <trkpt lat="44.29888" lon="1.58755">
        <ele>307.2</ele>
        <time>2023-09-20T12:32:12Z</time>
      </trkpt>
      <trkpt lat="44.29884" lon="1.58759">
        <ele>307.6</ele>
        <time>2023-09-20T12:32:13Z</time>
      </trkpt>
      <trkpt lat="44.29881" lon="1.58763">
        <ele>307.9</ele>
        <time>2023-09-20T12:32:14Z</time>
      </trkpt>
      <trkpt lat="44.29878" lon="1.58766">
        <ele>308.2</ele>
        <time>2023-09-20T12:32:15Z</time>
      </trkpt>
      <trkpt lat="44.29875" lon="1.58769">
        <ele>308.6</ele>
        <time>2023-09-20T12:32:16Z</time>
      </trkpt>
      <trkpt lat="44.29873" lon="1.58772">
        <ele>308.8</ele>
        <time>2023-09-20T12:32:17Z</time>
      </trkpt>
      <trkpt lat="44.29869" lon="1.58776">
        <ele>309.3</ele>
        <time>2023-09-20T12:32:18Z</time>
      </trkpt>
      <trkpt lat="44.29866" lon="1.5878">
        <ele>309.7</ele>
        <time>2023-09-20T12:32:19Z</time>
      </trkpt>
      <trkpt lat="44.29863" lon="1.58784">
        <ele>310.1</ele>
        <time>2023-09-20T12:32:20Z</time>
      </trkpt>
      <trkpt lat="44.2986" lon="1.58788">
        <ele>310.4</ele>
        <time>2023-09-20T12:32:21Z</time>
      </trkpt>
      <trkpt lat="44.29858" lon="1.58793">
        <ele>310.5</ele>
        <time>2023-09-20T12:32:22Z</time>
      </trkpt>
      <trkpt lat="44.29855" lon="1.58797">
        <ele>310.6</ele>
        <time>2023-09-20T12:32:23Z</time>
      </trkpt>
      <trkpt lat="44.29853" lon="1.58802">
        <ele>310.8</ele>
        <time>2023-09-20T12:32:25Z</time>
      </trkpt>
      <trkpt lat="44.29851" lon="1.58806">
        <ele>311</ele>
        <time>2023-09-20T12:32:26Z</time>
      </trkpt>
      <trkpt lat="44.29849" lon="1.58811">
        <ele>311.1</ele>
        <time>2023-09-20T12:32:27Z</time>
      </trkpt>
      <trkpt lat="44.29847" lon="1.5882">
        <ele>311.3</ele>
        <time>2023-09-20T12:32:28Z</time>
      </trkpt>
      <trkpt lat="44.29844" lon="1.5883">
        <ele>311.5</ele>
        <time>2023-09-20T12:32:30Z</time>
      </trkpt>
      <trkpt lat="44.29837" lon="1.58832">
        <ele>311.8</ele>
        <time>2023-09-20T12:32:53Z</time>
      </trkpt>
      <trkpt lat="44.29827" lon="1.58836">
        <ele>312.1</ele>
        <time>2023-09-20T12:32:55Z</time>
      </trkpt>
      <trkpt lat="44.29823" lon="1.5884">
        <ele>312.2</ele>
        <time>2023-09-20T12:32:56Z</time>
      </trkpt>
      <trkpt lat="44.29819" lon="1.58844">
        <ele>312.2</ele>
        <time>2023-09-20T12:32:57Z</time>
      </trkpt>
      <trkpt lat="44.29815" lon="1.58847">
        <ele>312.2</ele>
        <time>2023-09-20T12:32:58Z</time>
      </trkpt>
      <trkpt lat="44.29811" lon="1.5885">
        <ele>312.1</ele>
        <time>2023-09-20T12:32:59Z</time>
      </trkpt>
      <trkpt lat="44.29807" lon="1.58853">
        <ele>312</ele>
        <time>2023-09-20T12:33:00Z</time>
      </trkpt>
      <trkpt lat="44.29802" lon="1.58856">
        <ele>311.9</ele>
        <time>2023-09-20T12:33:01Z</time>
      </trkpt>
      <trkpt lat="44.29799" lon="1.58858">
        <ele>311.7</ele>
        <time>2023-09-20T12:33:02Z</time>
      </trkpt>
      <trkpt lat="44.29795" lon="1.5886">
        <ele>311.6</ele>
        <time>2023-09-20T12:33:03Z</time>
      </trkpt>
      <trkpt lat="44.2979" lon="1.58862">
        <ele>311.4</ele>
        <time>2023-09-20T12:33:04Z</time>
      </trkpt>
      <trkpt lat="44.29784" lon="1.58863">
        <ele>311.2</ele>
        <time>2023-09-20T12:33:05Z</time>
      </trkpt>
      <trkpt lat="44.29778" lon="1.58865">
        <ele>311</ele>
        <time>2023-09-20T12:33:06Z</time>
      </trkpt>
      <trkpt lat="44.29772" lon="1.58867">
        <ele>310.6</ele>
        <time>2023-09-20T12:33:07Z</time>
      </trkpt>
      <trkpt lat="44.29766" lon="1.5887">
        <ele>310.2</ele>
        <time>2023-09-20T12:33:08Z</time>
      </trkpt>
      <trkpt lat="44.29761" lon="1.58873">
        <ele>309.8</ele>
        <time>2023-09-20T12:33:09Z</time>
      </trkpt>
      <trkpt lat="44.29756" lon="1.58876">
        <ele>309.4</ele>
        <time>2023-09-20T12:33:10Z</time>
      </trkpt>
      <trkpt lat="44.2975" lon="1.5888">
        <ele>309</ele>
        <time>2023-09-20T12:33:11Z</time>
      </trkpt>
      <trkpt lat="44.29745" lon="1.58883">
        <ele>308.8</ele>
        <time>2023-09-20T12:33:12Z</time>
      </trkpt>
      <trkpt lat="44.2974" lon="1.58887">
        <ele>308.6</ele>
        <time>2023-09-20T12:33:13Z</time>
      </trkpt>
      <trkpt lat="44.29735" lon="1.58889">
        <ele>308.5</ele>
        <time>2023-09-20T12:33:14Z</time>
      </trkpt>
      <trkpt lat="44.29732" lon="1.5889">
        <ele>308.3</ele>
        <time>2023-09-20T12:33:15Z</time>
      </trkpt>
      <trkpt lat="44.29729" lon="1.58891">
        <ele>308.2</ele>
        <time>2023-09-20T12:33:16Z</time>
      </trkpt>
      <trkpt lat="44.29728" lon="1.58891">
        <ele>308.2</ele>
        <time>2023-09-20T12:33:17Z</time>
      </trkpt>
      <trkpt lat="44.29724" lon="1.58889">
        <ele>308.1</ele>
        <time>2023-09-20T12:33:18Z</time>
      </trkpt>
      <trkpt lat="44.29723" lon="1.58888">
        <ele>308</ele>
        <time>2023-09-20T12:33:19Z</time>
      </trkpt>
      <trkpt lat="44.29722" lon="1.58885">
        <ele>308</ele>
        <time>2023-09-20T12:33:20Z</time>
      </trkpt>
      <trkpt lat="44.29722" lon="1.58884">
        <ele>308</ele>
        <time>2023-09-20T12:33:21Z</time>
      </trkpt>
      <trkpt lat="44.29722" lon="1.58883">
        <ele>308</ele>
        <time>2023-09-20T12:33:22Z</time>
      </trkpt>
      <trkpt lat="44.29717" lon="1.58876">
        <ele>308</ele>
        <time>2023-09-20T12:33:24Z</time>
      </trkpt>
      <trkpt lat="44.29711" lon="1.58872">
        <ele>308</ele>
        <time>2023-09-20T12:33:26Z</time>
      </trkpt>
      <trkpt lat="44.29704" lon="1.58869">
        <ele>308</ele>
        <time>2023-09-20T12:33:27Z</time>
      </trkpt>
      <trkpt lat="44.29699" lon="1.5887">
        <ele>308</ele>
        <time>2023-09-20T12:33:28Z</time>
      </trkpt>
      <trkpt lat="44.29694" lon="1.58872">
        <ele>308</ele>
        <time>2023-09-20T12:33:29Z</time>
      </trkpt>
      <trkpt lat="44.29689" lon="1.58875">
        <ele>308</ele>
        <time>2023-09-20T12:33:30Z</time>
      </trkpt>
      <trkpt lat="44.29685" lon="1.58878">
        <ele>308</ele>
        <time>2023-09-20T12:33:31Z</time>
      </trkpt>
      <trkpt lat="44.29682" lon="1.58881">
        <ele>308</ele>
        <time>2023-09-20T12:33:32Z</time>
      </trkpt>
      <trkpt lat="44.29682" lon="1.58881">
        <ele>308</ele>
        <time>2023-09-20T12:33:33Z</time>
      </trkpt>
      <trkpt lat="44.29682" lon="1.58881">
        <ele>308</ele>
        <time>2023-09-20T12:33:34Z</time>
      </trkpt>
      <trkpt lat="44.29682" lon="1.58882">
        <ele>308</ele>
        <time>2023-09-20T12:33:35Z</time>
      </trkpt>
      <trkpt lat="44.29682" lon="1.58882">
        <ele>308</ele>
        <time>2023-09-20T12:33:36Z</time>
      </trkpt>
      <trkpt lat="44.29681" lon="1.58882">
        <ele>308</ele>
        <time>2023-09-20T12:33:37Z</time>
      </trkpt>
      <trkpt lat="44.29681" lon="1.58883">
        <ele>308</ele>
        <time>2023-09-20T12:33:38Z</time>
      </trkpt>
      <trkpt lat="44.29681" lon="1.58883">
        <ele>308</ele>
        <time>2023-09-20T12:33:39Z</time>
      </trkpt>
      <trkpt lat="44.29681" lon="1.58883">
        <ele>308</ele>
        <time>2023-09-20T12:33:40Z</time>
      </trkpt>
      <trkpt lat="44.29681" lon="1.58884">
        <ele>308</ele>
        <time>2023-09-20T12:33:41Z</time>
      </trkpt>
      <trkpt lat="44.29682" lon="1.58884">
        <ele>308</ele>
        <time>2023-09-20T12:33:42Z</time>
      </trkpt>
      <trkpt lat="44.29682" lon="1.58884">
        <ele>308</ele>
        <time>2023-09-20T12:33:43Z</time>
      </trkpt>
      <trkpt lat="44.29682" lon="1.58884">
        <ele>308</ele>
        <time>2023-09-20T12:33:44Z</time>
      </trkpt>
      <trkpt lat="44.29682" lon="1.58884">
        <ele>308</ele>
        <time>2023-09-20T12:33:45Z</time>
      </trkpt>
      <trkpt lat="44.29681" lon="1.58884">
        <ele>308</ele>
        <time>2023-09-20T12:33:46Z</time>
      </trkpt>
      <trkpt lat="44.29681" lon="1.58884">
        <ele>308</ele>
        <time>2023-09-20T12:33:47Z</time>
      </trkpt>
      <trkpt lat="44.29681" lon="1.58884">
        <ele>308</ele>
        <time>2023-09-20T12:33:48Z</time>
      </trkpt>
      <trkpt lat="44.2968" lon="1.58884">
        <ele>308</ele>
        <time>2023-09-20T12:33:49Z</time>
      </trkpt>
      <trkpt lat="44.2968" lon="1.58884">
        <ele>308</ele>
        <time>2023-09-20T12:33:50Z</time>
      </trkpt>
      <trkpt lat="44.2968" lon="1.58884">
        <ele>308</ele>
        <time>2023-09-20T12:33:51Z</time>
      </trkpt>
      <trkpt lat="44.29679" lon="1.58884">
        <ele>308</ele>
        <time>2023-09-20T12:33:52Z</time>
      </trkpt>
      <trkpt lat="44.29678" lon="1.58884">
        <ele>308</ele>
        <time>2023-09-20T12:33:53Z</time>
      </trkpt>
      <trkpt lat="44.29676" lon="1.58885">
        <ele>308</ele>
        <time>2023-09-20T12:33:54Z</time>
      </trkpt>
      <trkpt lat="44.29673" lon="1.58885">
        <ele>308</ele>
        <time>2023-09-20T12:33:55Z</time>
      </trkpt>
      <trkpt lat="44.29672" lon="1.58885">
        <ele>308</ele>
        <time>2023-09-20T12:33:56Z</time>
      </trkpt>
      <trkpt lat="44.29668" lon="1.58884">
        <ele>308</ele>
        <time>2023-09-20T12:33:57Z</time>
      </trkpt>
      <trkpt lat="44.29667" lon="1.58883">
        <ele>308</ele>
        <time>2023-09-20T12:33:58Z</time>
      </trkpt>
      <trkpt lat="44.29663" lon="1.58882">
        <ele>307.9</ele>
        <time>2023-09-20T12:33:59Z</time>
      </trkpt>
      <trkpt lat="44.2966" lon="1.58882">
        <ele>307.8</ele>
        <time>2023-09-20T12:34:00Z</time>
      </trkpt>
      <trkpt lat="44.29655" lon="1.58884">
        <ele>307.7</ele>
        <time>2023-09-20T12:34:01Z</time>
      </trkpt>
      <trkpt lat="44.29652" lon="1.58885">
        <ele>307.5</ele>
        <time>2023-09-20T12:34:02Z</time>
      </trkpt>
      <trkpt lat="44.29649" lon="1.58886">
        <ele>307.4</ele>
        <time>2023-09-20T12:34:03Z</time>
      </trkpt>
      <trkpt lat="44.29646" lon="1.58887">
        <ele>307.3</ele>
        <time>2023-09-20T12:34:04Z</time>
      </trkpt>
      <trkpt lat="44.29642" lon="1.58889">
        <ele>307.1</ele>
        <time>2023-09-20T12:34:05Z</time>
      </trkpt>
      <trkpt lat="44.29638" lon="1.58889">
        <ele>307</ele>
        <time>2023-09-20T12:34:06Z</time>
      </trkpt>
      <trkpt lat="44.29634" lon="1.5889">
        <ele>307</ele>
        <time>2023-09-20T12:34:07Z</time>
      </trkpt>
      <trkpt lat="44.2963" lon="1.58892">
        <ele>307</ele>
        <time>2023-09-20T12:34:08Z</time>
      </trkpt>
      <trkpt lat="44.29626" lon="1.58895">
        <ele>307</ele>
        <time>2023-09-20T12:34:09Z</time>
      </trkpt>
      <trkpt lat="44.29622" lon="1.58897">
        <ele>307</ele>
        <time>2023-09-20T12:34:10Z</time>
      </trkpt>
      <trkpt lat="44.29618" lon="1.58899">
        <ele>307</ele>
        <time>2023-09-20T12:34:11Z</time>
      </trkpt>
      <trkpt lat="44.29614" lon="1.58899">
        <ele>307</ele>
        <time>2023-09-20T12:34:12Z</time>
      </trkpt>
      <trkpt lat="44.29611" lon="1.58898">
        <ele>307</ele>
        <time>2023-09-20T12:34:13Z</time>
      </trkpt>
      <trkpt lat="44.29608" lon="1.58899">
        <ele>307</ele>
        <time>2023-09-20T12:34:14Z</time>
      </trkpt>
      <trkpt lat="44.29604" lon="1.589">
        <ele>306.9</ele>
        <time>2023-09-20T12:34:15Z</time>
      </trkpt>
      <trkpt lat="44.296" lon="1.58903">
        <ele>306.8</ele>
        <time>2023-09-20T12:34:16Z</time>
      </trkpt>
      <trkpt lat="44.29599" lon="1.58903">
        <ele>306.8</ele>
        <time>2023-09-20T12:34:17Z</time>
      </trkpt>
      <trkpt lat="44.29596" lon="1.58905">
        <ele>306.7</ele>
        <time>2023-09-20T12:34:18Z</time>
      </trkpt>
      <trkpt lat="44.29596" lon="1.58905">
        <ele>306.7</ele>
        <time>2023-09-20T12:34:20Z</time>
      </trkpt>
      <trkpt lat="44.29597" lon="1.58904">
        <ele>306.7</ele>
        <time>2023-09-20T12:34:21Z</time>
      </trkpt>
      <trkpt lat="44.29596" lon="1.58904">
        <ele>306.7</ele>
        <time>2023-09-20T12:34:22Z</time>
      </trkpt>
      <trkpt lat="44.29596" lon="1.58904">
        <ele>306.7</ele>
        <time>2023-09-20T12:34:23Z</time>
      </trkpt>
      <trkpt lat="44.29596" lon="1.58905">
        <ele>306.7</ele>
        <time>2023-09-20T12:34:24Z</time>
      </trkpt>
      <trkpt lat="44.29596" lon="1.58905">
        <ele>306.7</ele>
        <time>2023-09-20T12:34:25Z</time>
      </trkpt>
      <trkpt lat="44.29596" lon="1.58905">
        <ele>306.7</ele>
        <time>2023-09-20T12:34:26Z</time>
      </trkpt>
      <trkpt lat="44.29597" lon="1.58905">
        <ele>306.7</ele>
        <time>2023-09-20T12:34:27Z</time>
      </trkpt>
      <trkpt lat="44.29597" lon="1.58905">
        <ele>306.7</ele>
        <time>2023-09-20T12:34:28Z</time>
      </trkpt>
      <trkpt lat="44.29597" lon="1.58905">
        <ele>306.7</ele>
        <time>2023-09-20T12:34:29Z</time>
      </trkpt>
      <trkpt lat="44.29596" lon="1.58905">
        <ele>306.7</ele>
        <time>2023-09-20T12:34:30Z</time>
      </trkpt>
      <trkpt lat="44.29596" lon="1.58905">
        <ele>306.7</ele>
        <time>2023-09-20T12:34:31Z</time>
      </trkpt>
      <trkpt lat="44.29596" lon="1.58906">
        <ele>306.7</ele>
        <time>2023-09-20T12:34:32Z</time>
      </trkpt>
      <trkpt lat="44.29596" lon="1.58906">
        <ele>306.7</ele>
        <time>2023-09-20T12:34:33Z</time>
      </trkpt>
      <trkpt lat="44.29596" lon="1.58906">
        <ele>306.7</ele>
        <time>2023-09-20T12:34:34Z</time>
      </trkpt>
      <trkpt lat="44.29596" lon="1.58906">
        <ele>306.7</ele>
        <time>2023-09-20T12:34:35Z</time>
      </trkpt>
      <trkpt lat="44.29596" lon="1.58906">
        <ele>306.7</ele>
        <time>2023-09-20T12:34:36Z</time>
      </trkpt>
      <trkpt lat="44.29594" lon="1.58906">
        <ele>306.6</ele>
        <time>2023-09-20T12:34:37Z</time>
      </trkpt>
      <trkpt lat="44.29593" lon="1.58906">
        <ele>306.6</ele>
        <time>2023-09-20T12:34:38Z</time>
      </trkpt>
      <trkpt lat="44.2959" lon="1.58906">
        <ele>306.5</ele>
        <time>2023-09-20T12:34:39Z</time>
      </trkpt>
      <trkpt lat="44.29588" lon="1.58906">
        <ele>306.5</ele>
        <time>2023-09-20T12:34:40Z</time>
      </trkpt>
      <trkpt lat="44.29583" lon="1.58908">
        <ele>306.3</ele>
        <time>2023-09-20T12:34:41Z</time>
      </trkpt>
      <trkpt lat="44.2958" lon="1.58909">
        <ele>306.2</ele>
        <time>2023-09-20T12:34:42Z</time>
      </trkpt>
      <trkpt lat="44.29577" lon="1.58911">
        <ele>306</ele>
        <time>2023-09-20T12:34:43Z</time>
      </trkpt>
      <trkpt lat="44.29574" lon="1.58913">
        <ele>305.8</ele>
        <time>2023-09-20T12:34:44Z</time>
      </trkpt>
      <trkpt lat="44.29571" lon="1.58914">
        <ele>305.6</ele>
        <time>2023-09-20T12:34:45Z</time>
      </trkpt>
      <trkpt lat="44.29567" lon="1.58915">
        <ele>305.5</ele>
        <time>2023-09-20T12:34:46Z</time>
      </trkpt>
      <trkpt lat="44.29563" lon="1.58916">
        <ele>305.3</ele>
        <time>2023-09-20T12:34:47Z</time>
      </trkpt>
      <trkpt lat="44.29559" lon="1.58917">
        <ele>305.1</ele>
        <time>2023-09-20T12:34:48Z</time>
      </trkpt>
      <trkpt lat="44.29556" lon="1.58918">
        <ele>305</ele>
        <time>2023-09-20T12:34:49Z</time>
      </trkpt>
      <trkpt lat="44.29551" lon="1.5892">
        <ele>304.9</ele>
        <time>2023-09-20T12:34:50Z</time>
      </trkpt>
      <trkpt lat="44.29546" lon="1.58922">
        <ele>304.7</ele>
        <time>2023-09-20T12:34:51Z</time>
      </trkpt>
      <trkpt lat="44.29542" lon="1.58924">
        <ele>304.5</ele>
        <time>2023-09-20T12:34:52Z</time>
      </trkpt>
      <trkpt lat="44.29536" lon="1.58928">
        <ele>304.3</ele>
        <time>2023-09-20T12:34:54Z</time>
      </trkpt>
      <trkpt lat="44.29532" lon="1.58931">
        <ele>304.1</ele>
        <time>2023-09-20T12:34:55Z</time>
      </trkpt>
      <trkpt lat="44.29527" lon="1.58936">
        <ele>304</ele>
        <time>2023-09-20T12:34:56Z</time>
      </trkpt>
      <trkpt lat="44.29518" lon="1.58942">
        <ele>303.7</ele>
        <time>2023-09-20T12:34:58Z</time>
      </trkpt>
      <trkpt lat="44.29515" lon="1.58947">
        <ele>303.5</ele>
        <time>2023-09-20T12:34:59Z</time>
      </trkpt>
      <trkpt lat="44.29512" lon="1.58951">
        <ele>303.4</ele>
        <time>2023-09-20T12:35:01Z</time>
      </trkpt>
      <trkpt lat="44.2951" lon="1.58957">
        <ele>303.3</ele>
        <time>2023-09-20T12:35:02Z</time>
      </trkpt>
      <trkpt lat="44.29505" lon="1.58966">
        <ele>303.2</ele>
        <time>2023-09-20T12:35:03Z</time>
      </trkpt>
      <trkpt lat="44.29502" lon="1.58969">
        <ele>303.1</ele>
        <time>2023-09-20T12:35:04Z</time>
      </trkpt>
      <trkpt lat="44.29498" lon="1.58972">
        <ele>302.9</ele>
        <time>2023-09-20T12:35:06Z</time>
      </trkpt>
      <trkpt lat="44.29494" lon="1.58978">
        <ele>302.8</ele>
        <time>2023-09-20T12:35:07Z</time>
      </trkpt>
      <trkpt lat="44.29489" lon="1.58989">
        <ele>302.6</ele>
        <time>2023-09-20T12:35:08Z</time>
      </trkpt>
      <trkpt lat="44.29487" lon="1.58995">
        <ele>302.5</ele>
        <time>2023-09-20T12:35:09Z</time>
      </trkpt>
      <trkpt lat="44.29485" lon="1.59003">
        <ele>302.5</ele>
        <time>2023-09-20T12:35:10Z</time>
      </trkpt>
      <trkpt lat="44.29483" lon="1.5901">
        <ele>302.6</ele>
        <time>2023-09-20T12:35:11Z</time>
      </trkpt>
      <trkpt lat="44.29481" lon="1.59017">
        <ele>302.7</ele>
        <time>2023-09-20T12:35:12Z</time>
      </trkpt>
      <trkpt lat="44.29479" lon="1.59023">
        <ele>302.9</ele>
        <time>2023-09-20T12:35:13Z</time>
      </trkpt>
      <trkpt lat="44.29478" lon="1.59029">
        <ele>303</ele>
        <time>2023-09-20T12:35:15Z</time>
      </trkpt>
      <trkpt lat="44.29477" lon="1.59038">
        <ele>303.1</ele>
        <time>2023-09-20T12:35:16Z</time>
      </trkpt>
      <trkpt lat="44.29476" lon="1.59044">
        <ele>303.1</ele>
        <time>2023-09-20T12:35:17Z</time>
      </trkpt>
      <trkpt lat="44.29474" lon="1.59048">
        <ele>303</ele>
        <time>2023-09-20T12:35:18Z</time>
      </trkpt>
      <trkpt lat="44.29471" lon="1.59052">
        <ele>303</ele>
        <time>2023-09-20T12:35:19Z</time>
      </trkpt>
      <trkpt lat="44.29468" lon="1.59055">
        <ele>303</ele>
        <time>2023-09-20T12:35:20Z</time>
      </trkpt>
      <trkpt lat="44.29464" lon="1.59056">
        <ele>303.1</ele>
        <time>2023-09-20T12:35:21Z</time>
      </trkpt>
      <trkpt lat="44.2946" lon="1.59059">
        <ele>303.2</ele>
        <time>2023-09-20T12:35:22Z</time>
      </trkpt>
      <trkpt lat="44.29456" lon="1.59059">
        <ele>303.2</ele>
        <time>2023-09-20T12:35:23Z</time>
      </trkpt>
      <trkpt lat="44.29452" lon="1.5906">
        <ele>303.2</ele>
        <time>2023-09-20T12:35:24Z</time>
      </trkpt>
      <trkpt lat="44.29448" lon="1.59061">
        <ele>303.2</ele>
        <time>2023-09-20T12:35:25Z</time>
      </trkpt>
      <trkpt lat="44.29441" lon="1.59063">
        <ele>303.1</ele>
        <time>2023-09-20T12:35:26Z</time>
      </trkpt>
      <trkpt lat="44.29433" lon="1.59065">
        <ele>302.7</ele>
        <time>2023-09-20T12:35:27Z</time>
      </trkpt>
      <trkpt lat="44.29427" lon="1.59067">
        <ele>302.4</ele>
        <time>2023-09-20T12:35:28Z</time>
      </trkpt>
      <trkpt lat="44.29422" lon="1.59068">
        <ele>302.2</ele>
        <time>2023-09-20T12:35:29Z</time>
      </trkpt>
      <trkpt lat="44.29415" lon="1.59068">
        <ele>301.9</ele>
        <time>2023-09-20T12:35:31Z</time>
      </trkpt>
      <trkpt lat="44.29408" lon="1.59069">
        <ele>301.6</ele>
        <time>2023-09-20T12:35:32Z</time>
      </trkpt>
      <trkpt lat="44.29402" lon="1.59069">
        <ele>301.4</ele>
        <time>2023-09-20T12:35:33Z</time>
      </trkpt>
      <trkpt lat="44.29398" lon="1.59069">
        <ele>301.3</ele>
        <time>2023-09-20T12:35:34Z</time>
      </trkpt>
      <trkpt lat="44.29395" lon="1.5907">
        <ele>301.2</ele>
        <time>2023-09-20T12:35:35Z</time>
      </trkpt>
      <trkpt lat="44.29394" lon="1.5907">
        <ele>301.2</ele>
        <time>2023-09-20T12:35:36Z</time>
      </trkpt>
      <trkpt lat="44.29393" lon="1.59069">
        <ele>301.1</ele>
        <time>2023-09-20T12:35:37Z</time>
      </trkpt>
      <trkpt lat="44.29392" lon="1.59069">
        <ele>301.1</ele>
        <time>2023-09-20T12:35:38Z</time>
      </trkpt>
      <trkpt lat="44.29392" lon="1.5907">
        <ele>301.1</ele>
        <time>2023-09-20T12:35:39Z</time>
      </trkpt>
      <trkpt lat="44.29391" lon="1.5907">
        <ele>301.1</ele>
        <time>2023-09-20T12:35:40Z</time>
      </trkpt>
      <trkpt lat="44.29391" lon="1.5907">
        <ele>301.1</ele>
        <time>2023-09-20T12:35:41Z</time>
      </trkpt>
      <trkpt lat="44.2939" lon="1.5907">
        <ele>301.1</ele>
        <time>2023-09-20T12:35:42Z</time>
      </trkpt>
      <trkpt lat="44.2939" lon="1.5907">
        <ele>301.1</ele>
        <time>2023-09-20T12:35:43Z</time>
      </trkpt>
      <trkpt lat="44.29389" lon="1.5907">
        <ele>301</ele>
        <time>2023-09-20T12:35:44Z</time>
      </trkpt>
      <trkpt lat="44.29389" lon="1.5907">
        <ele>301</ele>
        <time>2023-09-20T12:35:45Z</time>
      </trkpt>
      <trkpt lat="44.29388" lon="1.59071">
        <ele>301</ele>
        <time>2023-09-20T12:35:46Z</time>
      </trkpt>
      <trkpt lat="44.29387" lon="1.5907">
        <ele>301</ele>
        <time>2023-09-20T12:35:47Z</time>
      </trkpt>
      <trkpt lat="44.29387" lon="1.5907">
        <ele>300.9</ele>
        <time>2023-09-20T12:35:48Z</time>
      </trkpt>
      <trkpt lat="44.29386" lon="1.5907">
        <ele>300.9</ele>
        <time>2023-09-20T12:35:49Z</time>
      </trkpt>
      <trkpt lat="44.29385" lon="1.59069">
        <ele>300.8</ele>
        <time>2023-09-20T12:35:50Z</time>
      </trkpt>
      <trkpt lat="44.29384" lon="1.5907">
        <ele>300.8</ele>
        <time>2023-09-20T12:35:51Z</time>
      </trkpt>
      <trkpt lat="44.29383" lon="1.59073">
        <ele>300.9</ele>
        <time>2023-09-20T12:35:52Z</time>
      </trkpt>
      <trkpt lat="44.29382" lon="1.59074">
        <ele>300.9</ele>
        <time>2023-09-20T12:35:53Z</time>
      </trkpt>
      <trkpt lat="44.29383" lon="1.59075">
        <ele>301</ele>
        <time>2023-09-20T12:35:54Z</time>
      </trkpt>
      <trkpt lat="44.29383" lon="1.59076">
        <ele>301.1</ele>
        <time>2023-09-20T12:35:55Z</time>
      </trkpt>
      <trkpt lat="44.29383" lon="1.59076">
        <ele>301.1</ele>
        <time>2023-09-20T12:35:56Z</time>
      </trkpt>
      <trkpt lat="44.29383" lon="1.59076">
        <ele>301.1</ele>
        <time>2023-09-20T12:35:57Z</time>
      </trkpt>
      <trkpt lat="44.29383" lon="1.59076">
        <ele>301.1</ele>
        <time>2023-09-20T12:35:58Z</time>
      </trkpt>
      <trkpt lat="44.29383" lon="1.59076">
        <ele>301.1</ele>
        <time>2023-09-20T12:35:59Z</time>
      </trkpt>
      <trkpt lat="44.29384" lon="1.59076">
        <ele>301.2</ele>
        <time>2023-09-20T12:36:00Z</time>
      </trkpt>
      <trkpt lat="44.29384" lon="1.59076">
        <ele>301.2</ele>
        <time>2023-09-20T12:36:01Z</time>
      </trkpt>
      <trkpt lat="44.29384" lon="1.59076">
        <ele>301.2</ele>
        <time>2023-09-20T12:36:02Z</time>
      </trkpt>
      <trkpt lat="44.29384" lon="1.59076">
        <ele>301.2</ele>
        <time>2023-09-20T12:36:03Z</time>
      </trkpt>
      <trkpt lat="44.29385" lon="1.59075">
        <ele>301.2</ele>
        <time>2023-09-20T12:36:05Z</time>
      </trkpt>
      <trkpt lat="44.29385" lon="1.59075">
        <ele>301.2</ele>
        <time>2023-09-20T12:36:06Z</time>
      </trkpt>
      <trkpt lat="44.29386" lon="1.59074">
        <ele>301.2</ele>
        <time>2023-09-20T12:36:07Z</time>
      </trkpt>
      <trkpt lat="44.29386" lon="1.59074">
        <ele>301.2</ele>
        <time>2023-09-20T12:36:08Z</time>
      </trkpt>
      <trkpt lat="44.29386" lon="1.59074">
        <ele>301.2</ele>
        <time>2023-09-20T12:36:09Z</time>
      </trkpt>
      <trkpt lat="44.29386" lon="1.59074">
        <ele>301.2</ele>
        <time>2023-09-20T12:36:10Z</time>
      </trkpt>
      <trkpt lat="44.29386" lon="1.59074">
        <ele>301.1</ele>
        <time>2023-09-20T12:36:11Z</time>
      </trkpt>
      <trkpt lat="44.29386" lon="1.59074">
        <ele>301.1</ele>
        <time>2023-09-20T12:36:12Z</time>
      </trkpt>
      <trkpt lat="44.29386" lon="1.59074">
        <ele>301.1</ele>
        <time>2023-09-20T12:36:13Z</time>
      </trkpt>
      <trkpt lat="44.29386" lon="1.59074">
        <ele>301.2</ele>
        <time>2023-09-20T12:36:14Z</time>
      </trkpt>
      <trkpt lat="44.29386" lon="1.59074">
        <ele>301.2</ele>
        <time>2023-09-20T12:36:15Z</time>
      </trkpt>
      <trkpt lat="44.29387" lon="1.59074">
        <ele>301.2</ele>
        <time>2023-09-20T12:36:16Z</time>
      </trkpt>
      <trkpt lat="44.29387" lon="1.59074">
        <ele>301.2</ele>
        <time>2023-09-20T12:36:17Z</time>
      </trkpt>
      <trkpt lat="44.29387" lon="1.59075">
        <ele>301.3</ele>
        <time>2023-09-20T12:36:18Z</time>
      </trkpt>
      <trkpt lat="44.29387" lon="1.59075">
        <ele>301.3</ele>
        <time>2023-09-20T12:36:19Z</time>
      </trkpt>
      <trkpt lat="44.29387" lon="1.59075">
        <ele>301.3</ele>
        <time>2023-09-20T12:36:20Z</time>
      </trkpt>
      <trkpt lat="44.29387" lon="1.59075">
        <ele>301.3</ele>
        <time>2023-09-20T12:36:21Z</time>
      </trkpt>
      <trkpt lat="44.29387" lon="1.59075">
        <ele>301.3</ele>
        <time>2023-09-20T12:36:22Z</time>
      </trkpt>
      <trkpt lat="44.29388" lon="1.59075">
        <ele>301.3</ele>
        <time>2023-09-20T12:36:23Z</time>
      </trkpt>
      <trkpt lat="44.29388" lon="1.59076">
        <ele>301.4</ele>
        <time>2023-09-20T12:36:24Z</time>
      </trkpt>
      <trkpt lat="44.29388" lon="1.59076">
        <ele>301.4</ele>
        <time>2023-09-20T12:36:25Z</time>
      </trkpt>
      <trkpt lat="44.29388" lon="1.59076">
        <ele>301.4</ele>
        <time>2023-09-20T12:36:26Z</time>
      </trkpt>
      <trkpt lat="44.29388" lon="1.59076">
        <ele>301.4</ele>
        <time>2023-09-20T12:36:27Z</time>
      </trkpt>
      <trkpt lat="44.29388" lon="1.59076">
        <ele>301.4</ele>
        <time>2023-09-20T12:36:28Z</time>
      </trkpt>
      <trkpt lat="44.29387" lon="1.59075">
        <ele>301.3</ele>
        <time>2023-09-20T12:36:29Z</time>
      </trkpt>
      <trkpt lat="44.29387" lon="1.59075">
        <ele>301.3</ele>
        <time>2023-09-20T12:36:30Z</time>
      </trkpt>
      <trkpt lat="44.29386" lon="1.59075">
        <ele>301.2</ele>
        <time>2023-09-20T12:36:31Z</time>
      </trkpt>
      <trkpt lat="44.29385" lon="1.59075">
        <ele>301.1</ele>
        <time>2023-09-20T12:36:32Z</time>
      </trkpt>
      <trkpt lat="44.29384" lon="1.59075">
        <ele>301.1</ele>
        <time>2023-09-20T12:36:33Z</time>
      </trkpt>
      <trkpt lat="44.29384" lon="1.59074">
        <ele>301</ele>
        <time>2023-09-20T12:36:34Z</time>
      </trkpt>
      <trkpt lat="44.29383" lon="1.59074">
        <ele>301</ele>
        <time>2023-09-20T12:36:35Z</time>
      </trkpt>
      <trkpt lat="44.29382" lon="1.59074">
        <ele>300.9</ele>
        <time>2023-09-20T12:36:36Z</time>
      </trkpt>
      <trkpt lat="44.29382" lon="1.59074">
        <ele>300.9</ele>
        <time>2023-09-20T12:36:37Z</time>
      </trkpt>
      <trkpt lat="44.29377" lon="1.59072">
        <ele>300.5</ele>
        <time>2023-09-20T12:36:38Z</time>
      </trkpt>
      <trkpt lat="44.29373" lon="1.59071">
        <ele>300.2</ele>
        <time>2023-09-20T12:36:39Z</time>
      </trkpt>
      <trkpt lat="44.29369" lon="1.59071">
        <ele>300</ele>
        <time>2023-09-20T12:36:40Z</time>
      </trkpt>
      <trkpt lat="44.29366" lon="1.59072">
        <ele>299.9</ele>
        <time>2023-09-20T12:36:41Z</time>
      </trkpt>
      <trkpt lat="44.29363" lon="1.59073">
        <ele>299.8</ele>
        <time>2023-09-20T12:36:42Z</time>
      </trkpt>
      <trkpt lat="44.2936" lon="1.59076">
        <ele>299.7</ele>
        <time>2023-09-20T12:36:43Z</time>
      </trkpt>
      <trkpt lat="44.29355" lon="1.59081">
        <ele>299.7</ele>
        <time>2023-09-20T12:36:45Z</time>
      </trkpt>
      <trkpt lat="44.29352" lon="1.59085">
        <ele>299.8</ele>
        <time>2023-09-20T12:36:46Z</time>
      </trkpt>
      <trkpt lat="44.29349" lon="1.59091">
        <ele>299.9</ele>
        <time>2023-09-20T12:36:47Z</time>
      </trkpt>
      <trkpt lat="44.29347" lon="1.59094">
        <ele>300</ele>
        <time>2023-09-20T12:36:48Z</time>
      </trkpt>
      <trkpt lat="44.29344" lon="1.59099">
        <ele>300.1</ele>
        <time>2023-09-20T12:36:49Z</time>
      </trkpt>
      <trkpt lat="44.29341" lon="1.59104">
        <ele>300.2</ele>
        <time>2023-09-20T12:36:50Z</time>
      </trkpt>
      <trkpt lat="44.2934" lon="1.59106">
        <ele>300.2</ele>
        <time>2023-09-20T12:36:51Z</time>
      </trkpt>
      <trkpt lat="44.29336" lon="1.59114">
        <ele>300.4</ele>
        <time>2023-09-20T12:36:53Z</time>
      </trkpt>
      <trkpt lat="44.29334" lon="1.59117">
        <ele>300.5</ele>
        <time>2023-09-20T12:36:55Z</time>
      </trkpt>
      <trkpt lat="44.29332" lon="1.59121">
        <ele>300.7</ele>
        <time>2023-09-20T12:36:56Z</time>
      </trkpt>
      <trkpt lat="44.2933" lon="1.59123">
        <ele>300.7</ele>
        <time>2023-09-20T12:36:57Z</time>
      </trkpt>
      <trkpt lat="44.29329" lon="1.59124">
        <ele>300.7</ele>
        <time>2023-09-20T12:36:58Z</time>
      </trkpt>
      <trkpt lat="44.29328" lon="1.59126">
        <ele>300.8</ele>
        <time>2023-09-20T12:36:59Z</time>
      </trkpt>
      <trkpt lat="44.29327" lon="1.59128">
        <ele>300.9</ele>
        <time>2023-09-20T12:37:00Z</time>
      </trkpt>
      <trkpt lat="44.29327" lon="1.59132">
        <ele>301.1</ele>
        <time>2023-09-20T12:37:01Z</time>
      </trkpt>
      <trkpt lat="44.29327" lon="1.59133">
        <ele>301.2</ele>
        <time>2023-09-20T12:37:02Z</time>
      </trkpt>
      <trkpt lat="44.29326" lon="1.59137">
        <ele>301.4</ele>
        <time>2023-09-20T12:37:03Z</time>
      </trkpt>
      <trkpt lat="44.29327" lon="1.59143">
        <ele>301.8</ele>
        <time>2023-09-20T12:37:04Z</time>
      </trkpt>
      <trkpt lat="44.29327" lon="1.59145">
        <ele>302</ele>
        <time>2023-09-20T12:37:05Z</time>
      </trkpt>
      <trkpt lat="44.29328" lon="1.59151">
        <ele>302.4</ele>
        <time>2023-09-20T12:37:06Z</time>
      </trkpt>
      <trkpt lat="44.29328" lon="1.59155">
        <ele>302.7</ele>
        <time>2023-09-20T12:37:07Z</time>
      </trkpt>
      <trkpt lat="44.29328" lon="1.59156">
        <ele>302.8</ele>
        <time>2023-09-20T12:37:08Z</time>
      </trkpt>
      <trkpt lat="44.29329" lon="1.59157">
        <ele>302.9</ele>
        <time>2023-09-20T12:37:09Z</time>
      </trkpt>
      <trkpt lat="44.29329" lon="1.59159">
        <ele>303</ele>
        <time>2023-09-20T12:37:10Z</time>
      </trkpt>
      <trkpt lat="44.29329" lon="1.5916">
        <ele>303.1</ele>
        <time>2023-09-20T12:37:11Z</time>
      </trkpt>
      <trkpt lat="44.29329" lon="1.59164">
        <ele>303.3</ele>
        <time>2023-09-20T12:37:12Z</time>
      </trkpt>
      <trkpt lat="44.29329" lon="1.59166">
        <ele>303.5</ele>
        <time>2023-09-20T12:37:13Z</time>
      </trkpt>
      <trkpt lat="44.29328" lon="1.59171">
        <ele>303.6</ele>
        <time>2023-09-20T12:37:14Z</time>
      </trkpt>
      <trkpt lat="44.29327" lon="1.59178">
        <ele>303.8</ele>
        <time>2023-09-20T12:37:15Z</time>
      </trkpt>
      <trkpt lat="44.29326" lon="1.59183">
        <ele>304</ele>
        <time>2023-09-20T12:37:16Z</time>
      </trkpt>
      <trkpt lat="44.29326" lon="1.59188">
        <ele>304.1</ele>
        <time>2023-09-20T12:37:17Z</time>
      </trkpt>
      <trkpt lat="44.29325" lon="1.59192">
        <ele>304.2</ele>
        <time>2023-09-20T12:37:18Z</time>
      </trkpt>
      <trkpt lat="44.29323" lon="1.59198">
        <ele>304.2</ele>
        <time>2023-09-20T12:37:19Z</time>
      </trkpt>
      <trkpt lat="44.29321" lon="1.59204">
        <ele>304.1</ele>
        <time>2023-09-20T12:37:20Z</time>
      </trkpt>
      <trkpt lat="44.2932" lon="1.5921">
        <ele>304.1</ele>
        <time>2023-09-20T12:37:21Z</time>
      </trkpt>
      <trkpt lat="44.29319" lon="1.59216">
        <ele>304</ele>
        <time>2023-09-20T12:37:22Z</time>
      </trkpt>
      <trkpt lat="44.29318" lon="1.59223">
        <ele>303.9</ele>
        <time>2023-09-20T12:37:23Z</time>
      </trkpt>
      <trkpt lat="44.29316" lon="1.59231">
        <ele>303.8</ele>
        <time>2023-09-20T12:37:24Z</time>
      </trkpt>
      <trkpt lat="44.29314" lon="1.59243">
        <ele>303.6</ele>
        <time>2023-09-20T12:37:25Z</time>
      </trkpt>
      <trkpt lat="44.29313" lon="1.59253">
        <ele>303.4</ele>
        <time>2023-09-20T12:37:26Z</time>
      </trkpt>
      <trkpt lat="44.29313" lon="1.59261">
        <ele>303.2</ele>
        <time>2023-09-20T12:37:27Z</time>
      </trkpt>
      <trkpt lat="44.29313" lon="1.59268">
        <ele>302.9</ele>
        <time>2023-09-20T12:37:28Z</time>
      </trkpt>
      <trkpt lat="44.29314" lon="1.59277">
        <ele>302.6</ele>
        <time>2023-09-20T12:37:29Z</time>
      </trkpt>
      <trkpt lat="44.29313" lon="1.59285">
        <ele>302.6</ele>
        <time>2023-09-20T12:37:30Z</time>
      </trkpt>
      <trkpt lat="44.29312" lon="1.59293">
        <ele>302.6</ele>
        <time>2023-09-20T12:37:31Z</time>
      </trkpt>
      <trkpt lat="44.29311" lon="1.59301">
        <ele>302.6</ele>
        <time>2023-09-20T12:37:32Z</time>
      </trkpt>
      <trkpt lat="44.29311" lon="1.59307">
        <ele>302.6</ele>
        <time>2023-09-20T12:37:33Z</time>
      </trkpt>
      <trkpt lat="44.29311" lon="1.59314">
        <ele>302.6</ele>
        <time>2023-09-20T12:37:34Z</time>
      </trkpt>
      <trkpt lat="44.29311" lon="1.5932">
        <ele>302.6</ele>
        <time>2023-09-20T12:37:35Z</time>
      </trkpt>
      <trkpt lat="44.29311" lon="1.59326">
        <ele>302.6</ele>
        <time>2023-09-20T12:37:36Z</time>
      </trkpt>
      <trkpt lat="44.29311" lon="1.59332">
        <ele>302.6</ele>
        <time>2023-09-20T12:37:37Z</time>
      </trkpt>
      <trkpt lat="44.29311" lon="1.59336">
        <ele>302.6</ele>
        <time>2023-09-20T12:37:38Z</time>
      </trkpt>
      <trkpt lat="44.29312" lon="1.59346">
        <ele>302.8</ele>
        <time>2023-09-20T12:37:40Z</time>
      </trkpt>
      <trkpt lat="44.29313" lon="1.59354">
        <ele>303</ele>
        <time>2023-09-20T12:37:41Z</time>
      </trkpt>
      <trkpt lat="44.29314" lon="1.59362">
        <ele>303.2</ele>
        <time>2023-09-20T12:37:42Z</time>
      </trkpt>
      <trkpt lat="44.29314" lon="1.59368">
        <ele>303.2</ele>
        <time>2023-09-20T12:37:43Z</time>
      </trkpt>
      <trkpt lat="44.29314" lon="1.59372">
        <ele>303.2</ele>
        <time>2023-09-20T12:37:44Z</time>
      </trkpt>
      <trkpt lat="44.29314" lon="1.59378">
        <ele>303.2</ele>
        <time>2023-09-20T12:37:45Z</time>
      </trkpt>
      <trkpt lat="44.29314" lon="1.59383">
        <ele>303.2</ele>
        <time>2023-09-20T12:37:46Z</time>
      </trkpt>
      <trkpt lat="44.29314" lon="1.59389">
        <ele>303.2</ele>
        <time>2023-09-20T12:37:47Z</time>
      </trkpt>
      <trkpt lat="44.29313" lon="1.59394">
        <ele>303.3</ele>
        <time>2023-09-20T12:37:48Z</time>
      </trkpt>
      <trkpt lat="44.29312" lon="1.594">
        <ele>303.3</ele>
        <time>2023-09-20T12:37:49Z</time>
      </trkpt>
      <trkpt lat="44.29311" lon="1.59406">
        <ele>303.3</ele>
        <time>2023-09-20T12:37:50Z</time>
      </trkpt>
      <trkpt lat="44.2931" lon="1.59413">
        <ele>303.4</ele>
        <time>2023-09-20T12:37:51Z</time>
      </trkpt>
      <trkpt lat="44.29308" lon="1.59419">
        <ele>303.3</ele>
        <time>2023-09-20T12:37:52Z</time>
      </trkpt>
      <trkpt lat="44.29306" lon="1.59425">
        <ele>303.3</ele>
        <time>2023-09-20T12:37:53Z</time>
      </trkpt>
      <trkpt lat="44.29302" lon="1.59432">
        <ele>303.2</ele>
        <time>2023-09-20T12:37:55Z</time>
      </trkpt>
      <trkpt lat="44.29301" lon="1.59435">
        <ele>303.3</ele>
        <time>2023-09-20T12:37:56Z</time>
      </trkpt>
      <trkpt lat="44.29297" lon="1.59444">
        <ele>303.4</ele>
        <time>2023-09-20T12:37:57Z</time>
      </trkpt>
      <trkpt lat="44.29295" lon="1.5945">
        <ele>303.4</ele>
        <time>2023-09-20T12:37:58Z</time>
      </trkpt>
      <trkpt lat="44.29292" lon="1.59458">
        <ele>303.5</ele>
        <time>2023-09-20T12:37:59Z</time>
      </trkpt>
      <trkpt lat="44.29291" lon="1.59465">
        <ele>303.7</ele>
        <time>2023-09-20T12:38:00Z</time>
      </trkpt>
      <trkpt lat="44.29289" lon="1.59474">
        <ele>303.9</ele>
        <time>2023-09-20T12:38:02Z</time>
      </trkpt>
      <trkpt lat="44.29287" lon="1.59485">
        <ele>304.3</ele>
        <time>2023-09-20T12:38:03Z</time>
      </trkpt>
      <trkpt lat="44.29286" lon="1.59492">
        <ele>304.5</ele>
        <time>2023-09-20T12:38:05Z</time>
      </trkpt>
      <trkpt lat="44.29285" lon="1.59497">
        <ele>304.6</ele>
        <time>2023-09-20T12:38:06Z</time>
      </trkpt>
      <trkpt lat="44.29282" lon="1.59504">
        <ele>304.7</ele>
        <time>2023-09-20T12:38:07Z</time>
      </trkpt>
      <trkpt lat="44.29282" lon="1.59509">
        <ele>304.7</ele>
        <time>2023-09-20T12:38:08Z</time>
      </trkpt>
      <trkpt lat="44.29282" lon="1.59513">
        <ele>304.9</ele>
        <time>2023-09-20T12:38:09Z</time>
      </trkpt>
      <trkpt lat="44.29281" lon="1.59518">
        <ele>305</ele>
        <time>2023-09-20T12:38:10Z</time>
      </trkpt>
      <trkpt lat="44.2928" lon="1.59523">
        <ele>305</ele>
        <time>2023-09-20T12:38:11Z</time>
      </trkpt>
      <trkpt lat="44.29278" lon="1.59529">
        <ele>305.1</ele>
        <time>2023-09-20T12:38:12Z</time>
      </trkpt>
      <trkpt lat="44.29277" lon="1.59534">
        <ele>305.2</ele>
        <time>2023-09-20T12:38:13Z</time>
      </trkpt>
      <trkpt lat="44.29277" lon="1.5954">
        <ele>305.3</ele>
        <time>2023-09-20T12:38:14Z</time>
      </trkpt>
      <trkpt lat="44.29277" lon="1.59547">
        <ele>305.6</ele>
        <time>2023-09-20T12:38:15Z</time>
      </trkpt>
      <trkpt lat="44.29279" lon="1.59556">
        <ele>306.1</ele>
        <time>2023-09-20T12:38:16Z</time>
      </trkpt>
      <trkpt lat="44.29281" lon="1.59564">
        <ele>306.4</ele>
        <time>2023-09-20T12:38:17Z</time>
      </trkpt>
      <trkpt lat="44.29283" lon="1.5957">
        <ele>306.5</ele>
        <time>2023-09-20T12:38:18Z</time>
      </trkpt>
      <trkpt lat="44.29283" lon="1.59575">
        <ele>306.6</ele>
        <time>2023-09-20T12:38:19Z</time>
      </trkpt>
      <trkpt lat="44.29284" lon="1.59581">
        <ele>306.6</ele>
        <time>2023-09-20T12:38:20Z</time>
      </trkpt>
      <trkpt lat="44.29285" lon="1.59586">
        <ele>306.8</ele>
        <time>2023-09-20T12:38:21Z</time>
      </trkpt>
      <trkpt lat="44.29289" lon="1.59593">
        <ele>307.2</ele>
        <time>2023-09-20T12:38:22Z</time>
      </trkpt>
      <trkpt lat="44.29291" lon="1.59597">
        <ele>307.4</ele>
        <time>2023-09-20T12:38:23Z</time>
      </trkpt>
      <trkpt lat="44.29294" lon="1.59602">
        <ele>307.7</ele>
        <time>2023-09-20T12:38:24Z</time>
      </trkpt>
      <trkpt lat="44.29297" lon="1.59606">
        <ele>308.1</ele>
        <time>2023-09-20T12:38:25Z</time>
      </trkpt>
      <trkpt lat="44.293" lon="1.59612">
        <ele>308.4</ele>
        <time>2023-09-20T12:38:26Z</time>
      </trkpt>
      <trkpt lat="44.29304" lon="1.59616">
        <ele>308.6</ele>
        <time>2023-09-20T12:38:27Z</time>
      </trkpt>
      <trkpt lat="44.29308" lon="1.59621">
        <ele>308.8</ele>
        <time>2023-09-20T12:38:28Z</time>
      </trkpt>
      <trkpt lat="44.2931" lon="1.59627">
        <ele>308.9</ele>
        <time>2023-09-20T12:38:29Z</time>
      </trkpt>
      <trkpt lat="44.29313" lon="1.59633">
        <ele>308.9</ele>
        <time>2023-09-20T12:38:30Z</time>
      </trkpt>
      <trkpt lat="44.29316" lon="1.59642">
        <ele>309.1</ele>
        <time>2023-09-20T12:38:32Z</time>
      </trkpt>
      <trkpt lat="44.29318" lon="1.59648">
        <ele>309.2</ele>
        <time>2023-09-20T12:38:33Z</time>
      </trkpt>
      <trkpt lat="44.29319" lon="1.59656">
        <ele>309.2</ele>
        <time>2023-09-20T12:38:35Z</time>
      </trkpt>
      <trkpt lat="44.2932" lon="1.59663">
        <ele>309.1</ele>
        <time>2023-09-20T12:38:36Z</time>
      </trkpt>
      <trkpt lat="44.29324" lon="1.59675">
        <ele>309</ele>
        <time>2023-09-20T12:38:37Z</time>
      </trkpt>
      <trkpt lat="44.29324" lon="1.59681">
        <ele>308.8</ele>
        <time>2023-09-20T12:38:39Z</time>
      </trkpt>
      <trkpt lat="44.29327" lon="1.59687">
        <ele>308.8</ele>
        <time>2023-09-20T12:38:40Z</time>
      </trkpt>
      <trkpt lat="44.2933" lon="1.59693">
        <ele>308.8</ele>
        <time>2023-09-20T12:38:41Z</time>
      </trkpt>
      <trkpt lat="44.29335" lon="1.59702">
        <ele>308.8</ele>
        <time>2023-09-20T12:38:42Z</time>
      </trkpt>
      <trkpt lat="44.29338" lon="1.5971">
        <ele>308.8</ele>
        <time>2023-09-20T12:38:43Z</time>
      </trkpt>
      <trkpt lat="44.29342" lon="1.59717">
        <ele>308.8</ele>
        <time>2023-09-20T12:38:44Z</time>
      </trkpt>
      <trkpt lat="44.29345" lon="1.59725">
        <ele>308.8</ele>
        <time>2023-09-20T12:38:45Z</time>
      </trkpt>
      <trkpt lat="44.29348" lon="1.59729">
        <ele>308.9</ele>
        <time>2023-09-20T12:38:46Z</time>
      </trkpt>
      <trkpt lat="44.29352" lon="1.59738">
        <ele>309.1</ele>
        <time>2023-09-20T12:38:48Z</time>
      </trkpt>
      <trkpt lat="44.29353" lon="1.59743">
        <ele>309.2</ele>
        <time>2023-09-20T12:38:49Z</time>
      </trkpt>
      <trkpt lat="44.29355" lon="1.59747">
        <ele>309.4</ele>
        <time>2023-09-20T12:38:50Z</time>
      </trkpt>
      <trkpt lat="44.29357" lon="1.5975">
        <ele>309.5</ele>
        <time>2023-09-20T12:38:51Z</time>
      </trkpt>
      <trkpt lat="44.29358" lon="1.59755">
        <ele>309.4</ele>
        <time>2023-09-20T12:38:52Z</time>
      </trkpt>
      <trkpt lat="44.2936" lon="1.59761">
        <ele>309.5</ele>
        <time>2023-09-20T12:38:54Z</time>
      </trkpt>
      <trkpt lat="44.29364" lon="1.59769">
        <ele>309.5</ele>
        <time>2023-09-20T12:38:55Z</time>
      </trkpt>
      <trkpt lat="44.29371" lon="1.59781">
        <ele>309.2</ele>
        <time>2023-09-20T12:38:56Z</time>
      </trkpt>
      <trkpt lat="44.29376" lon="1.59788">
        <ele>309</ele>
        <time>2023-09-20T12:38:57Z</time>
      </trkpt>
      <trkpt lat="44.29381" lon="1.59793">
        <ele>309</ele>
        <time>2023-09-20T12:38:59Z</time>
      </trkpt>
      <trkpt lat="44.29385" lon="1.59797">
        <ele>309.1</ele>
        <time>2023-09-20T12:39:00Z</time>
      </trkpt>
      <trkpt lat="44.29394" lon="1.59806">
        <ele>309.2</ele>
        <time>2023-09-20T12:39:01Z</time>
      </trkpt>
      <trkpt lat="44.29399" lon="1.5981">
        <ele>309.1</ele>
        <time>2023-09-20T12:39:02Z</time>
      </trkpt>
      <trkpt lat="44.29403" lon="1.59814">
        <ele>309.1</ele>
        <time>2023-09-20T12:39:04Z</time>
      </trkpt>
      <trkpt lat="44.29407" lon="1.59819">
        <ele>309</ele>
        <time>2023-09-20T12:39:05Z</time>
      </trkpt>
      <trkpt lat="44.29415" lon="1.59828">
        <ele>309.1</ele>
        <time>2023-09-20T12:39:06Z</time>
      </trkpt>
      <trkpt lat="44.29419" lon="1.59833">
        <ele>309.2</ele>
        <time>2023-09-20T12:39:08Z</time>
      </trkpt>
      <trkpt lat="44.29423" lon="1.59837">
        <ele>309.5</ele>
        <time>2023-09-20T12:39:09Z</time>
      </trkpt>
      <trkpt lat="44.29425" lon="1.59843">
        <ele>309.6</ele>
        <time>2023-09-20T12:39:10Z</time>
      </trkpt>
      <trkpt lat="44.29427" lon="1.59848">
        <ele>309.7</ele>
        <time>2023-09-20T12:39:11Z</time>
      </trkpt>
      <trkpt lat="44.29428" lon="1.5986">
        <ele>309.8</ele>
        <time>2023-09-20T12:39:12Z</time>
      </trkpt>
      <trkpt lat="44.29429" lon="1.59866">
        <ele>310.1</ele>
        <time>2023-09-20T12:39:13Z</time>
      </trkpt>
      <trkpt lat="44.29432" lon="1.59879">
        <ele>310.7</ele>
        <time>2023-09-20T12:39:15Z</time>
      </trkpt>
      <trkpt lat="44.29433" lon="1.59886">
        <ele>311.1</ele>
        <time>2023-09-20T12:39:16Z</time>
      </trkpt>
      <trkpt lat="44.29435" lon="1.59895">
        <ele>311.6</ele>
        <time>2023-09-20T12:39:18Z</time>
      </trkpt>
      <trkpt lat="44.29435" lon="1.59901">
        <ele>311.9</ele>
        <time>2023-09-20T12:39:19Z</time>
      </trkpt>
      <trkpt lat="44.29435" lon="1.59907">
        <ele>312.2</ele>
        <time>2023-09-20T12:39:20Z</time>
      </trkpt>
      <trkpt lat="44.29435" lon="1.59914">
        <ele>312.5</ele>
        <time>2023-09-20T12:39:21Z</time>
      </trkpt>
      <trkpt lat="44.29434" lon="1.59919">
        <ele>312.7</ele>
        <time>2023-09-20T12:39:22Z</time>
      </trkpt>
      <trkpt lat="44.29432" lon="1.59923">
        <ele>312.8</ele>
        <time>2023-09-20T12:39:23Z</time>
      </trkpt>
      <trkpt lat="44.29431" lon="1.59926">
        <ele>312.8</ele>
        <time>2023-09-20T12:39:24Z</time>
      </trkpt>
      <trkpt lat="44.29429" lon="1.59931">
        <ele>312.9</ele>
        <time>2023-09-20T12:39:25Z</time>
      </trkpt>
      <trkpt lat="44.29427" lon="1.59934">
        <ele>313</ele>
        <time>2023-09-20T12:39:26Z</time>
      </trkpt>
      <trkpt lat="44.29425" lon="1.5994">
        <ele>313.1</ele>
        <time>2023-09-20T12:39:27Z</time>
      </trkpt>
      <trkpt lat="44.29425" lon="1.59944">
        <ele>313.3</ele>
        <time>2023-09-20T12:39:28Z</time>
      </trkpt>
      <trkpt lat="44.29423" lon="1.59949">
        <ele>313.4</ele>
        <time>2023-09-20T12:39:29Z</time>
      </trkpt>
      <trkpt lat="44.29422" lon="1.59953">
        <ele>313.6</ele>
        <time>2023-09-20T12:39:30Z</time>
      </trkpt>
      <trkpt lat="44.29421" lon="1.59959">
        <ele>313.7</ele>
        <time>2023-09-20T12:39:31Z</time>
      </trkpt>
      <trkpt lat="44.29419" lon="1.59964">
        <ele>313.8</ele>
        <time>2023-09-20T12:39:32Z</time>
      </trkpt>
      <trkpt lat="44.29417" lon="1.59969">
        <ele>313.9</ele>
        <time>2023-09-20T12:39:33Z</time>
      </trkpt>
      <trkpt lat="44.29415" lon="1.59974">
        <ele>314</ele>
        <time>2023-09-20T12:39:34Z</time>
      </trkpt>
      <trkpt lat="44.29413" lon="1.59979">
        <ele>314.1</ele>
        <time>2023-09-20T12:39:35Z</time>
      </trkpt>
      <trkpt lat="44.2941" lon="1.59982">
        <ele>314.1</ele>
        <time>2023-09-20T12:39:36Z</time>
      </trkpt>
      <trkpt lat="44.29407" lon="1.59986">
        <ele>314.2</ele>
        <time>2023-09-20T12:39:37Z</time>
      </trkpt>
      <trkpt lat="44.29405" lon="1.5999">
        <ele>314.2</ele>
        <time>2023-09-20T12:39:38Z</time>
      </trkpt>
      <trkpt lat="44.29402" lon="1.59996">
        <ele>314.3</ele>
        <time>2023-09-20T12:39:39Z</time>
      </trkpt>
      <trkpt lat="44.29401" lon="1.60001">
        <ele>314.5</ele>
        <time>2023-09-20T12:39:40Z</time>
      </trkpt>
      <trkpt lat="44.29399" lon="1.60006">
        <ele>314.6</ele>
        <time>2023-09-20T12:39:41Z</time>
      </trkpt>
      <trkpt lat="44.29397" lon="1.60012">
        <ele>314.7</ele>
        <time>2023-09-20T12:39:42Z</time>
      </trkpt>
      <trkpt lat="44.29395" lon="1.60017">
        <ele>314.8</ele>
        <time>2023-09-20T12:39:43Z</time>
      </trkpt>
      <trkpt lat="44.29394" lon="1.60022">
        <ele>315</ele>
        <time>2023-09-20T12:39:44Z</time>
      </trkpt>
      <trkpt lat="44.29391" lon="1.60027">
        <ele>315.1</ele>
        <time>2023-09-20T12:39:45Z</time>
      </trkpt>
      <trkpt lat="44.29389" lon="1.60032">
        <ele>315</ele>
        <time>2023-09-20T12:39:46Z</time>
      </trkpt>
      <trkpt lat="44.29388" lon="1.60037">
        <ele>314.9</ele>
        <time>2023-09-20T12:39:47Z</time>
      </trkpt>
      <trkpt lat="44.29385" lon="1.60042">
        <ele>314.7</ele>
        <time>2023-09-20T12:39:48Z</time>
      </trkpt>
      <trkpt lat="44.29383" lon="1.60046">
        <ele>314.6</ele>
        <time>2023-09-20T12:39:49Z</time>
      </trkpt>
      <trkpt lat="44.2938" lon="1.60051">
        <ele>314.3</ele>
        <time>2023-09-20T12:39:50Z</time>
      </trkpt>
      <trkpt lat="44.29377" lon="1.60057">
        <ele>314.2</ele>
        <time>2023-09-20T12:39:51Z</time>
      </trkpt>
      <trkpt lat="44.29374" lon="1.60061">
        <ele>314</ele>
        <time>2023-09-20T12:39:52Z</time>
      </trkpt>
      <trkpt lat="44.29371" lon="1.6007">
        <ele>313.7</ele>
        <time>2023-09-20T12:39:54Z</time>
      </trkpt>
      <trkpt lat="44.29369" lon="1.60078">
        <ele>313.6</ele>
        <time>2023-09-20T12:39:55Z</time>
      </trkpt>
      <trkpt lat="44.29368" lon="1.60085">
        <ele>313.5</ele>
        <time>2023-09-20T12:39:56Z</time>
      </trkpt>
      <trkpt lat="44.29367" lon="1.60092">
        <ele>313.4</ele>
        <time>2023-09-20T12:39:57Z</time>
      </trkpt>
      <trkpt lat="44.29365" lon="1.60098">
        <ele>313.3</ele>
        <time>2023-09-20T12:39:58Z</time>
      </trkpt>
      <trkpt lat="44.29365" lon="1.60103">
        <ele>313.2</ele>
        <time>2023-09-20T12:39:59Z</time>
      </trkpt>
      <trkpt lat="44.29365" lon="1.60107">
        <ele>313.3</ele>
        <time>2023-09-20T12:40:00Z</time>
      </trkpt>
      <trkpt lat="44.29364" lon="1.60113">
        <ele>313.3</ele>
        <time>2023-09-20T12:40:01Z</time>
      </trkpt>
      <trkpt lat="44.29363" lon="1.60118">
        <ele>313.4</ele>
        <time>2023-09-20T12:40:02Z</time>
      </trkpt>
      <trkpt lat="44.29361" lon="1.60124">
        <ele>313.4</ele>
        <time>2023-09-20T12:40:03Z</time>
      </trkpt>
      <trkpt lat="44.29359" lon="1.60129">
        <ele>313.5</ele>
        <time>2023-09-20T12:40:04Z</time>
      </trkpt>
      <trkpt lat="44.29357" lon="1.60135">
        <ele>313.6</ele>
        <time>2023-09-20T12:40:05Z</time>
      </trkpt>
      <trkpt lat="44.29354" lon="1.6014">
        <ele>313.5</ele>
        <time>2023-09-20T12:40:06Z</time>
      </trkpt>
      <trkpt lat="44.29351" lon="1.60145">
        <ele>313.3</ele>
        <time>2023-09-20T12:40:07Z</time>
      </trkpt>
      <trkpt lat="44.29347" lon="1.6015">
        <ele>313.2</ele>
        <time>2023-09-20T12:40:08Z</time>
      </trkpt>
      <trkpt lat="44.29345" lon="1.60153">
        <ele>313.1</ele>
        <time>2023-09-20T12:40:09Z</time>
      </trkpt>
      <trkpt lat="44.29341" lon="1.60156">
        <ele>313</ele>
        <time>2023-09-20T12:40:10Z</time>
      </trkpt>
      <trkpt lat="44.29338" lon="1.60159">
        <ele>312.9</ele>
        <time>2023-09-20T12:40:11Z</time>
      </trkpt>
      <trkpt lat="44.29336" lon="1.60162">
        <ele>312.9</ele>
        <time>2023-09-20T12:40:12Z</time>
      </trkpt>
      <trkpt lat="44.29333" lon="1.60165">
        <ele>312.9</ele>
        <time>2023-09-20T12:40:13Z</time>
      </trkpt>
      <trkpt lat="44.29331" lon="1.60169">
        <ele>312.9</ele>
        <time>2023-09-20T12:40:14Z</time>
      </trkpt>
      <trkpt lat="44.29329" lon="1.60175">
        <ele>313</ele>
        <time>2023-09-20T12:40:15Z</time>
      </trkpt>
      <trkpt lat="44.29327" lon="1.60182">
        <ele>313.1</ele>
        <time>2023-09-20T12:40:16Z</time>
      </trkpt>
      <trkpt lat="44.29326" lon="1.60187">
        <ele>313.2</ele>
        <time>2023-09-20T12:40:17Z</time>
      </trkpt>
      <trkpt lat="44.29324" lon="1.60193">
        <ele>313.3</ele>
        <time>2023-09-20T12:40:18Z</time>
      </trkpt>
      <trkpt lat="44.29321" lon="1.60198">
        <ele>313.2</ele>
        <time>2023-09-20T12:40:19Z</time>
      </trkpt>
      <trkpt lat="44.29321" lon="1.60206">
        <ele>313.3</ele>
        <time>2023-09-20T12:40:20Z</time>
      </trkpt>
      <trkpt lat="44.29324" lon="1.60211">
        <ele>313.5</ele>
        <time>2023-09-20T12:40:21Z</time>
      </trkpt>
      <trkpt lat="44.29326" lon="1.60216">
        <ele>313.7</ele>
        <time>2023-09-20T12:40:22Z</time>
      </trkpt>
      <trkpt lat="44.29329" lon="1.60221">
        <ele>313.8</ele>
        <time>2023-09-20T12:40:23Z</time>
      </trkpt>
      <trkpt lat="44.29332" lon="1.60227">
        <ele>314.1</ele>
        <time>2023-09-20T12:40:24Z</time>
      </trkpt>
      <trkpt lat="44.29332" lon="1.60232">
        <ele>314.3</ele>
        <time>2023-09-20T12:40:25Z</time>
      </trkpt>
      <trkpt lat="44.29329" lon="1.60237">
        <ele>314.3</ele>
        <time>2023-09-20T12:40:26Z</time>
      </trkpt>
      <trkpt lat="44.29327" lon="1.60242">
        <ele>314.3</ele>
        <time>2023-09-20T12:40:27Z</time>
      </trkpt>
      <trkpt lat="44.2933" lon="1.60248">
        <ele>314.7</ele>
        <time>2023-09-20T12:40:28Z</time>
      </trkpt>
      <trkpt lat="44.29332" lon="1.6025">
        <ele>314.9</ele>
        <time>2023-09-20T12:40:29Z</time>
      </trkpt>
      <trkpt lat="44.29335" lon="1.60255">
        <ele>315</ele>
        <time>2023-09-20T12:40:31Z</time>
      </trkpt>
      <trkpt lat="44.29337" lon="1.6026">
        <ele>315.1</ele>
        <time>2023-09-20T12:40:32Z</time>
      </trkpt>
      <trkpt lat="44.29341" lon="1.60266">
        <ele>315.3</ele>
        <time>2023-09-20T12:40:33Z</time>
      </trkpt>
      <trkpt lat="44.29343" lon="1.60271">
        <ele>315.3</ele>
        <time>2023-09-20T12:40:34Z</time>
      </trkpt>
      <trkpt lat="44.29345" lon="1.60275">
        <ele>315.4</ele>
        <time>2023-09-20T12:40:35Z</time>
      </trkpt>
      <trkpt lat="44.29348" lon="1.60278">
        <ele>315.5</ele>
        <time>2023-09-20T12:40:36Z</time>
      </trkpt>
      <trkpt lat="44.29352" lon="1.6028">
        <ele>315.7</ele>
        <time>2023-09-20T12:40:37Z</time>
      </trkpt>
      <trkpt lat="44.29357" lon="1.60281">
        <ele>315.8</ele>
        <time>2023-09-20T12:40:38Z</time>
      </trkpt>
      <trkpt lat="44.29361" lon="1.60283">
        <ele>316</ele>
        <time>2023-09-20T12:40:39Z</time>
      </trkpt>
      <trkpt lat="44.29365" lon="1.60283">
        <ele>316.2</ele>
        <time>2023-09-20T12:40:40Z</time>
      </trkpt>
      <trkpt lat="44.29369" lon="1.60284">
        <ele>316.3</ele>
        <time>2023-09-20T12:40:41Z</time>
      </trkpt>
      <trkpt lat="44.29373" lon="1.60284">
        <ele>316.5</ele>
        <time>2023-09-20T12:40:42Z</time>
      </trkpt>
      <trkpt lat="44.29378" lon="1.60284">
        <ele>316.7</ele>
        <time>2023-09-20T12:40:43Z</time>
      </trkpt>
      <trkpt lat="44.29382" lon="1.60284">
        <ele>316.9</ele>
        <time>2023-09-20T12:40:44Z</time>
      </trkpt>
      <trkpt lat="44.29386" lon="1.60281">
        <ele>317</ele>
        <time>2023-09-20T12:40:45Z</time>
      </trkpt>
      <trkpt lat="44.29389" lon="1.60279">
        <ele>317</ele>
        <time>2023-09-20T12:40:46Z</time>
      </trkpt>
      <trkpt lat="44.29393" lon="1.60278">
        <ele>317.2</ele>
        <time>2023-09-20T12:40:47Z</time>
      </trkpt>
      <trkpt lat="44.29397" lon="1.60278">
        <ele>317.3</ele>
        <time>2023-09-20T12:40:48Z</time>
      </trkpt>
      <trkpt lat="44.29401" lon="1.60276">
        <ele>317.4</ele>
        <time>2023-09-20T12:40:49Z</time>
      </trkpt>
      <trkpt lat="44.29405" lon="1.60273">
        <ele>317.6</ele>
        <time>2023-09-20T12:40:50Z</time>
      </trkpt>
      <trkpt lat="44.29408" lon="1.60271">
        <ele>317.7</ele>
        <time>2023-09-20T12:40:51Z</time>
      </trkpt>
      <trkpt lat="44.29412" lon="1.60271">
        <ele>317.8</ele>
        <time>2023-09-20T12:40:52Z</time>
      </trkpt>
      <trkpt lat="44.29416" lon="1.60272">
        <ele>318</ele>
        <time>2023-09-20T12:40:53Z</time>
      </trkpt>
      <trkpt lat="44.2942" lon="1.60271">
        <ele>318.1</ele>
        <time>2023-09-20T12:40:54Z</time>
      </trkpt>
      <trkpt lat="44.29422" lon="1.60267">
        <ele>318.1</ele>
        <time>2023-09-20T12:40:55Z</time>
      </trkpt>
      <trkpt lat="44.29427" lon="1.60254">
        <ele>318</ele>
        <time>2023-09-20T12:40:57Z</time>
      </trkpt>
      <trkpt lat="44.29431" lon="1.60246">
        <ele>317.9</ele>
        <time>2023-09-20T12:40:58Z</time>
      </trkpt>
      <trkpt lat="44.29435" lon="1.6024">
        <ele>317.9</ele>
        <time>2023-09-20T12:40:59Z</time>
      </trkpt>
      <trkpt lat="44.29439" lon="1.60236">
        <ele>317.9</ele>
        <time>2023-09-20T12:41:00Z</time>
      </trkpt>
      <trkpt lat="44.29443" lon="1.60234">
        <ele>318</ele>
        <time>2023-09-20T12:41:01Z</time>
      </trkpt>
      <trkpt lat="44.29448" lon="1.60231">
        <ele>318.3</ele>
        <time>2023-09-20T12:41:02Z</time>
      </trkpt>
      <trkpt lat="44.29452" lon="1.60227">
        <ele>318.6</ele>
        <time>2023-09-20T12:41:03Z</time>
      </trkpt>
      <trkpt lat="44.29456" lon="1.60224">
        <ele>318.8</ele>
        <time>2023-09-20T12:41:04Z</time>
      </trkpt>
      <trkpt lat="44.2946" lon="1.6022">
        <ele>319.1</ele>
        <time>2023-09-20T12:41:05Z</time>
      </trkpt>
      <trkpt lat="44.29464" lon="1.60216">
        <ele>319.5</ele>
        <time>2023-09-20T12:41:06Z</time>
      </trkpt>
      <trkpt lat="44.29468" lon="1.6021">
        <ele>319.8</ele>
        <time>2023-09-20T12:41:07Z</time>
      </trkpt>
      <trkpt lat="44.29471" lon="1.60205">
        <ele>319.9</ele>
        <time>2023-09-20T12:41:08Z</time>
      </trkpt>
      <trkpt lat="44.29474" lon="1.60198">
        <ele>320.1</ele>
        <time>2023-09-20T12:41:10Z</time>
      </trkpt>
      <trkpt lat="44.29477" lon="1.60195">
        <ele>320.3</ele>
        <time>2023-09-20T12:41:11Z</time>
      </trkpt>
      <trkpt lat="44.2948" lon="1.60194">
        <ele>320.5</ele>
        <time>2023-09-20T12:41:12Z</time>
      </trkpt>
      <trkpt lat="44.29483" lon="1.60193">
        <ele>320.8</ele>
        <time>2023-09-20T12:41:13Z</time>
      </trkpt>
      <trkpt lat="44.29486" lon="1.60191">
        <ele>321</ele>
        <time>2023-09-20T12:41:14Z</time>
      </trkpt>
      <trkpt lat="44.2949" lon="1.60189">
        <ele>321.3</ele>
        <time>2023-09-20T12:41:15Z</time>
      </trkpt>
      <trkpt lat="44.29493" lon="1.60186">
        <ele>321.5</ele>
        <time>2023-09-20T12:41:16Z</time>
      </trkpt>
      <trkpt lat="44.29496" lon="1.6018">
        <ele>321.7</ele>
        <time>2023-09-20T12:41:17Z</time>
      </trkpt>
      <trkpt lat="44.29499" lon="1.60173">
        <ele>321.9</ele>
        <time>2023-09-20T12:41:18Z</time>
      </trkpt>
      <trkpt lat="44.295" lon="1.60166">
        <ele>322</ele>
        <time>2023-09-20T12:41:19Z</time>
      </trkpt>
      <trkpt lat="44.29502" lon="1.60158">
        <ele>322.1</ele>
        <time>2023-09-20T12:41:20Z</time>
      </trkpt>
      <trkpt lat="44.29503" lon="1.60151">
        <ele>322.1</ele>
        <time>2023-09-20T12:41:21Z</time>
      </trkpt>
      <trkpt lat="44.29504" lon="1.60147">
        <ele>322.1</ele>
        <time>2023-09-20T12:41:22Z</time>
      </trkpt>
      <trkpt lat="44.29505" lon="1.60143">
        <ele>322.2</ele>
        <time>2023-09-20T12:41:23Z</time>
      </trkpt>
      <trkpt lat="44.29507" lon="1.60139">
        <ele>322.3</ele>
        <time>2023-09-20T12:41:24Z</time>
      </trkpt>
      <trkpt lat="44.29509" lon="1.60138">
        <ele>322.3</ele>
        <time>2023-09-20T12:41:25Z</time>
      </trkpt>
      <trkpt lat="44.29512" lon="1.60136">
        <ele>322.4</ele>
        <time>2023-09-20T12:41:26Z</time>
      </trkpt>
      <trkpt lat="44.29516" lon="1.60134">
        <ele>322.6</ele>
        <time>2023-09-20T12:41:27Z</time>
      </trkpt>
      <trkpt lat="44.29518" lon="1.60132">
        <ele>322.7</ele>
        <time>2023-09-20T12:41:28Z</time>
      </trkpt>
      <trkpt lat="44.29522" lon="1.6013">
        <ele>322.8</ele>
        <time>2023-09-20T12:41:29Z</time>
      </trkpt>
      <trkpt lat="44.29526" lon="1.60126">
        <ele>322.9</ele>
        <time>2023-09-20T12:41:30Z</time>
      </trkpt>
      <trkpt lat="44.2953" lon="1.60124">
        <ele>323.1</ele>
        <time>2023-09-20T12:41:31Z</time>
      </trkpt>
      <trkpt lat="44.29533" lon="1.60121">
        <ele>323.2</ele>
        <time>2023-09-20T12:41:32Z</time>
      </trkpt>
      <trkpt lat="44.29537" lon="1.60118">
        <ele>323.3</ele>
        <time>2023-09-20T12:41:33Z</time>
      </trkpt>
      <trkpt lat="44.29541" lon="1.60114">
        <ele>323.5</ele>
        <time>2023-09-20T12:41:34Z</time>
      </trkpt>
      <trkpt lat="44.29544" lon="1.60111">
        <ele>323.6</ele>
        <time>2023-09-20T12:41:35Z</time>
      </trkpt>
      <trkpt lat="44.29548" lon="1.60109">
        <ele>323.7</ele>
        <time>2023-09-20T12:41:36Z</time>
      </trkpt>
      <trkpt lat="44.29549" lon="1.60108">
        <ele>323.8</ele>
        <time>2023-09-20T12:41:37Z</time>
      </trkpt>
      <trkpt lat="44.29552" lon="1.60107">
        <ele>323.9</ele>
        <time>2023-09-20T12:41:38Z</time>
      </trkpt>
      <trkpt lat="44.29556" lon="1.60105">
        <ele>324</ele>
        <time>2023-09-20T12:41:39Z</time>
      </trkpt>
      <trkpt lat="44.29559" lon="1.60103">
        <ele>324.1</ele>
        <time>2023-09-20T12:41:40Z</time>
      </trkpt>
      <trkpt lat="44.29563" lon="1.60101">
        <ele>324.3</ele>
        <time>2023-09-20T12:41:41Z</time>
      </trkpt>
      <trkpt lat="44.29566" lon="1.60099">
        <ele>324.4</ele>
        <time>2023-09-20T12:41:42Z</time>
      </trkpt>
      <trkpt lat="44.29569" lon="1.60097">
        <ele>324.5</ele>
        <time>2023-09-20T12:41:43Z</time>
      </trkpt>
      <trkpt lat="44.29572" lon="1.60095">
        <ele>324.6</ele>
        <time>2023-09-20T12:41:44Z</time>
      </trkpt>
      <trkpt lat="44.29576" lon="1.60093">
        <ele>324.7</ele>
        <time>2023-09-20T12:41:45Z</time>
      </trkpt>
      <trkpt lat="44.29578" lon="1.60089">
        <ele>324.8</ele>
        <time>2023-09-20T12:41:46Z</time>
      </trkpt>
      <trkpt lat="44.29581" lon="1.60085">
        <ele>324.9</ele>
        <time>2023-09-20T12:41:47Z</time>
      </trkpt>
      <trkpt lat="44.29583" lon="1.60083">
        <ele>325</ele>
        <time>2023-09-20T12:42:47Z</time>
      </trkpt>
      <trkpt lat="44.29583" lon="1.60089">
        <ele>325</ele>
        <time>2023-09-20T12:42:48Z</time>
      </trkpt>
      <trkpt lat="44.29582" lon="1.60095">
        <ele>325</ele>
        <time>2023-09-20T12:42:49Z</time>
      </trkpt>
      <trkpt lat="44.29583" lon="1.60101">
        <ele>325</ele>
        <time>2023-09-20T12:42:50Z</time>
      </trkpt>
      <trkpt lat="44.29582" lon="1.60105">
        <ele>325</ele>
        <time>2023-09-20T12:42:51Z</time>
      </trkpt>
      <trkpt lat="44.29581" lon="1.60109">
        <ele>324.9</ele>
        <time>2023-09-20T12:42:52Z</time>
      </trkpt>
      <trkpt lat="44.29578" lon="1.60119">
        <ele>325</ele>
        <time>2023-09-20T12:42:54Z</time>
      </trkpt>
      <trkpt lat="44.29577" lon="1.60124">
        <ele>325.1</ele>
        <time>2023-09-20T12:42:55Z</time>
      </trkpt>
      <trkpt lat="44.29578" lon="1.60129">
        <ele>325.3</ele>
        <time>2023-09-20T12:42:56Z</time>
      </trkpt>
      <trkpt lat="44.29577" lon="1.60136">
        <ele>325.5</ele>
        <time>2023-09-20T12:42:57Z</time>
      </trkpt>
      <trkpt lat="44.29577" lon="1.60146">
        <ele>325.6</ele>
        <time>2023-09-20T12:42:59Z</time>
      </trkpt>
      <trkpt lat="44.29577" lon="1.60156">
        <ele>325.7</ele>
        <time>2023-09-20T12:43:00Z</time>
      </trkpt>
      <trkpt lat="44.29577" lon="1.60165">
        <ele>325.7</ele>
        <time>2023-09-20T12:43:01Z</time>
      </trkpt>
      <trkpt lat="44.29577" lon="1.60172">
        <ele>325.8</ele>
        <time>2023-09-20T12:43:02Z</time>
      </trkpt>
      <trkpt lat="44.29573" lon="1.6019">
        <ele>325.6</ele>
        <time>2023-09-20T12:43:04Z</time>
      </trkpt>
      <trkpt lat="44.29572" lon="1.60198">
        <ele>325.6</ele>
        <time>2023-09-20T12:43:05Z</time>
      </trkpt>
      <trkpt lat="44.29571" lon="1.60206">
        <ele>325.8</ele>
        <time>2023-09-20T12:43:06Z</time>
      </trkpt>
      <trkpt lat="44.2957" lon="1.60214">
        <ele>325.9</ele>
        <time>2023-09-20T12:43:07Z</time>
      </trkpt>
      <trkpt lat="44.2957" lon="1.60223">
        <ele>326.1</ele>
        <time>2023-09-20T12:43:08Z</time>
      </trkpt>
      <trkpt lat="44.29572" lon="1.60232">
        <ele>326.3</ele>
        <time>2023-09-20T12:43:09Z</time>
      </trkpt>
      <trkpt lat="44.29573" lon="1.6024">
        <ele>326.5</ele>
        <time>2023-09-20T12:43:10Z</time>
      </trkpt>
      <trkpt lat="44.29575" lon="1.60247">
        <ele>326.7</ele>
        <time>2023-09-20T12:43:11Z</time>
      </trkpt>
      <trkpt lat="44.29576" lon="1.60254">
        <ele>326.7</ele>
        <time>2023-09-20T12:43:12Z</time>
      </trkpt>
      <trkpt lat="44.29575" lon="1.60265">
        <ele>326.7</ele>
        <time>2023-09-20T12:43:14Z</time>
      </trkpt>
      <trkpt lat="44.29573" lon="1.60274">
        <ele>326.6</ele>
        <time>2023-09-20T12:43:16Z</time>
      </trkpt>
      <trkpt lat="44.29571" lon="1.60284">
        <ele>326.6</ele>
        <time>2023-09-20T12:43:17Z</time>
      </trkpt>
      <trkpt lat="44.29569" lon="1.60291">
        <ele>326.5</ele>
        <time>2023-09-20T12:43:18Z</time>
      </trkpt>
      <trkpt lat="44.29568" lon="1.60306">
        <ele>326.4</ele>
        <time>2023-09-20T12:43:20Z</time>
      </trkpt>
      <trkpt lat="44.29568" lon="1.60314">
        <ele>326.7</ele>
        <time>2023-09-20T12:43:21Z</time>
      </trkpt>
      <trkpt lat="44.29568" lon="1.60321">
        <ele>327</ele>
        <time>2023-09-20T12:43:22Z</time>
      </trkpt>
      <trkpt lat="44.29567" lon="1.60335">
        <ele>327.4</ele>
        <time>2023-09-20T12:43:24Z</time>
      </trkpt>
      <trkpt lat="44.29567" lon="1.60343">
        <ele>327.4</ele>
        <time>2023-09-20T12:43:25Z</time>
      </trkpt>
      <trkpt lat="44.29567" lon="1.6035">
        <ele>327.4</ele>
        <time>2023-09-20T12:43:26Z</time>
      </trkpt>
      <trkpt lat="44.29566" lon="1.60357">
        <ele>327.4</ele>
        <time>2023-09-20T12:43:27Z</time>
      </trkpt>
      <trkpt lat="44.29566" lon="1.60365">
        <ele>327.5</ele>
        <time>2023-09-20T12:43:28Z</time>
      </trkpt>
      <trkpt lat="44.29567" lon="1.60372">
        <ele>327.8</ele>
        <time>2023-09-20T12:43:29Z</time>
      </trkpt>
      <trkpt lat="44.29569" lon="1.6038">
        <ele>328.1</ele>
        <time>2023-09-20T12:43:30Z</time>
      </trkpt>
      <trkpt lat="44.2957" lon="1.60387">
        <ele>328.4</ele>
        <time>2023-09-20T12:43:31Z</time>
      </trkpt>
      <trkpt lat="44.29571" lon="1.60393">
        <ele>328.6</ele>
        <time>2023-09-20T12:43:32Z</time>
      </trkpt>
      <trkpt lat="44.29571" lon="1.60399">
        <ele>328.8</ele>
        <time>2023-09-20T12:43:34Z</time>
      </trkpt>
      <trkpt lat="44.2957" lon="1.60406">
        <ele>328.9</ele>
        <time>2023-09-20T12:43:35Z</time>
      </trkpt>
      <trkpt lat="44.2957" lon="1.60412">
        <ele>329</ele>
        <time>2023-09-20T12:43:36Z</time>
      </trkpt>
      <trkpt lat="44.29572" lon="1.60418">
        <ele>329.2</ele>
        <time>2023-09-20T12:43:37Z</time>
      </trkpt>
      <trkpt lat="44.29574" lon="1.60423">
        <ele>329.3</ele>
        <time>2023-09-20T12:43:38Z</time>
      </trkpt>
      <trkpt lat="44.29576" lon="1.6043">
        <ele>329.5</ele>
        <time>2023-09-20T12:43:39Z</time>
      </trkpt>
      <trkpt lat="44.29578" lon="1.60437">
        <ele>329.6</ele>
        <time>2023-09-20T12:43:40Z</time>
      </trkpt>
      <trkpt lat="44.2958" lon="1.60441">
        <ele>329.7</ele>
        <time>2023-09-20T12:43:41Z</time>
      </trkpt>
      <trkpt lat="44.29581" lon="1.60447">
        <ele>329.7</ele>
        <time>2023-09-20T12:43:42Z</time>
      </trkpt>
      <trkpt lat="44.29582" lon="1.60453">
        <ele>329.6</ele>
        <time>2023-09-20T12:43:43Z</time>
      </trkpt>
      <trkpt lat="44.29583" lon="1.60459">
        <ele>329.5</ele>
        <time>2023-09-20T12:43:44Z</time>
      </trkpt>
      <trkpt lat="44.29585" lon="1.60467">
        <ele>329.2</ele>
        <time>2023-09-20T12:43:45Z</time>
      </trkpt>
      <trkpt lat="44.29586" lon="1.60474">
        <ele>329.1</ele>
        <time>2023-09-20T12:43:46Z</time>
      </trkpt>
      <trkpt lat="44.29588" lon="1.60484">
        <ele>329.2</ele>
        <time>2023-09-20T12:43:47Z</time>
      </trkpt>
      <trkpt lat="44.2959" lon="1.60493">
        <ele>329.2</ele>
        <time>2023-09-20T12:43:48Z</time>
      </trkpt>
      <trkpt lat="44.29591" lon="1.60501">
        <ele>329.3</ele>
        <time>2023-09-20T12:43:49Z</time>
      </trkpt>
      <trkpt lat="44.29593" lon="1.6051">
        <ele>329.3</ele>
        <time>2023-09-20T12:43:50Z</time>
      </trkpt>
      <trkpt lat="44.29594" lon="1.60518">
        <ele>329.4</ele>
        <time>2023-09-20T12:43:51Z</time>
      </trkpt>
      <trkpt lat="44.29596" lon="1.60527">
        <ele>329.4</ele>
        <time>2023-09-20T12:43:52Z</time>
      </trkpt>
      <trkpt lat="44.29597" lon="1.60535">
        <ele>329.3</ele>
        <time>2023-09-20T12:43:53Z</time>
      </trkpt>
      <trkpt lat="44.296" lon="1.6055">
        <ele>328.8</ele>
        <time>2023-09-20T12:43:55Z</time>
      </trkpt>
      <trkpt lat="44.296" lon="1.60565">
        <ele>328.6</ele>
        <time>2023-09-20T12:43:57Z</time>
      </trkpt>
      <trkpt lat="44.29601" lon="1.60573">
        <ele>328.6</ele>
        <time>2023-09-20T12:43:58Z</time>
      </trkpt>
      <trkpt lat="44.29602" lon="1.60583">
        <ele>328.7</ele>
        <time>2023-09-20T12:44:00Z</time>
      </trkpt>
      <trkpt lat="44.29604" lon="1.60601">
        <ele>328.1</ele>
        <time>2023-09-20T12:44:01Z</time>
      </trkpt>
      <trkpt lat="44.29605" lon="1.60609">
        <ele>327.8</ele>
        <time>2023-09-20T12:44:02Z</time>
      </trkpt>
      <trkpt lat="44.29605" lon="1.60617">
        <ele>327.8</ele>
        <time>2023-09-20T12:44:03Z</time>
      </trkpt>
      <trkpt lat="44.29606" lon="1.60626">
        <ele>327.9</ele>
        <time>2023-09-20T12:44:04Z</time>
      </trkpt>
      <trkpt lat="44.29607" lon="1.60634">
        <ele>328</ele>
        <time>2023-09-20T12:44:05Z</time>
      </trkpt>
      <trkpt lat="44.29608" lon="1.60642">
        <ele>328</ele>
        <time>2023-09-20T12:44:06Z</time>
      </trkpt>
      <trkpt lat="44.2961" lon="1.6065">
        <ele>328</ele>
        <time>2023-09-20T12:44:07Z</time>
      </trkpt>
      <trkpt lat="44.29612" lon="1.60658">
        <ele>328</ele>
        <time>2023-09-20T12:44:08Z</time>
      </trkpt>
      <trkpt lat="44.29613" lon="1.60665">
        <ele>328</ele>
        <time>2023-09-20T12:44:09Z</time>
      </trkpt>
      <trkpt lat="44.29614" lon="1.60674">
        <ele>327.8</ele>
        <time>2023-09-20T12:44:10Z</time>
      </trkpt>
      <trkpt lat="44.29616" lon="1.60682">
        <ele>327.4</ele>
        <time>2023-09-20T12:44:11Z</time>
      </trkpt>
      <trkpt lat="44.29619" lon="1.6069">
        <ele>327.2</ele>
        <time>2023-09-20T12:44:12Z</time>
      </trkpt>
      <trkpt lat="44.29621" lon="1.60697">
        <ele>326.9</ele>
        <time>2023-09-20T12:44:13Z</time>
      </trkpt>
      <trkpt lat="44.29623" lon="1.60705">
        <ele>326.6</ele>
        <time>2023-09-20T12:44:14Z</time>
      </trkpt>
      <trkpt lat="44.29625" lon="1.60713">
        <ele>326.3</ele>
        <time>2023-09-20T12:44:15Z</time>
      </trkpt>
      <trkpt lat="44.29626" lon="1.60721">
        <ele>326</ele>
        <time>2023-09-20T12:44:16Z</time>
      </trkpt>
      <trkpt lat="44.29627" lon="1.6073">
        <ele>325.7</ele>
        <time>2023-09-20T12:44:17Z</time>
      </trkpt>
      <trkpt lat="44.29628" lon="1.60737">
        <ele>325.5</ele>
        <time>2023-09-20T12:44:18Z</time>
      </trkpt>
      <trkpt lat="44.2963" lon="1.60746">
        <ele>325.2</ele>
        <time>2023-09-20T12:44:19Z</time>
      </trkpt>
      <trkpt lat="44.29632" lon="1.60753">
        <ele>324.9</ele>
        <time>2023-09-20T12:44:20Z</time>
      </trkpt>
      <trkpt lat="44.29634" lon="1.60761">
        <ele>324.6</ele>
        <time>2023-09-20T12:44:21Z</time>
      </trkpt>
      <trkpt lat="44.29635" lon="1.6077">
        <ele>324.3</ele>
        <time>2023-09-20T12:44:22Z</time>
      </trkpt>
      <trkpt lat="44.29637" lon="1.6078">
        <ele>324</ele>
        <time>2023-09-20T12:44:23Z</time>
      </trkpt>
      <trkpt lat="44.29638" lon="1.60789">
        <ele>324</ele>
        <time>2023-09-20T12:44:24Z</time>
      </trkpt>
      <trkpt lat="44.2964" lon="1.60799">
        <ele>324</ele>
        <time>2023-09-20T12:44:25Z</time>
      </trkpt>
      <trkpt lat="44.29642" lon="1.60809">
        <ele>323.8</ele>
        <time>2023-09-20T12:44:26Z</time>
      </trkpt>
      <trkpt lat="44.29644" lon="1.60817">
        <ele>323.5</ele>
        <time>2023-09-20T12:44:27Z</time>
      </trkpt>
      <trkpt lat="44.29647" lon="1.60827">
        <ele>323.2</ele>
        <time>2023-09-20T12:44:28Z</time>
      </trkpt>
      <trkpt lat="44.29648" lon="1.60836">
        <ele>322.9</ele>
        <time>2023-09-20T12:44:29Z</time>
      </trkpt>
      <trkpt lat="44.29649" lon="1.60845">
        <ele>322.6</ele>
        <time>2023-09-20T12:44:30Z</time>
      </trkpt>
      <trkpt lat="44.2965" lon="1.60854">
        <ele>322.3</ele>
        <time>2023-09-20T12:44:31Z</time>
      </trkpt>
      <trkpt lat="44.29651" lon="1.60863">
        <ele>322</ele>
        <time>2023-09-20T12:44:32Z</time>
      </trkpt>
      <trkpt lat="44.29653" lon="1.60872">
        <ele>321.8</ele>
        <time>2023-09-20T12:44:33Z</time>
      </trkpt>
      <trkpt lat="44.29654" lon="1.60882">
        <ele>321.6</ele>
        <time>2023-09-20T12:44:34Z</time>
      </trkpt>
      <trkpt lat="44.29654" lon="1.60892">
        <ele>321.4</ele>
        <time>2023-09-20T12:44:35Z</time>
      </trkpt>
      <trkpt lat="44.29654" lon="1.60901">
        <ele>321.2</ele>
        <time>2023-09-20T12:44:36Z</time>
      </trkpt>
      <trkpt lat="44.29655" lon="1.60911">
        <ele>321.1</ele>
        <time>2023-09-20T12:44:37Z</time>
      </trkpt>
      <trkpt lat="44.29656" lon="1.60921">
        <ele>320.8</ele>
        <time>2023-09-20T12:44:38Z</time>
      </trkpt>
      <trkpt lat="44.29657" lon="1.60931">
        <ele>320.5</ele>
        <time>2023-09-20T12:44:39Z</time>
      </trkpt>
      <trkpt lat="44.29658" lon="1.60942">
        <ele>320.1</ele>
        <time>2023-09-20T12:44:40Z</time>
      </trkpt>
      <trkpt lat="44.29658" lon="1.60952">
        <ele>319.5</ele>
        <time>2023-09-20T12:44:41Z</time>
      </trkpt>
      <trkpt lat="44.29659" lon="1.60963">
        <ele>318.9</ele>
        <time>2023-09-20T12:44:42Z</time>
      </trkpt>
      <trkpt lat="44.29661" lon="1.60974">
        <ele>318.1</ele>
        <time>2023-09-20T12:44:43Z</time>
      </trkpt>
      <trkpt lat="44.29663" lon="1.60985">
        <ele>317.6</ele>
        <time>2023-09-20T12:44:44Z</time>
      </trkpt>
      <trkpt lat="44.29664" lon="1.60996">
        <ele>317.2</ele>
        <time>2023-09-20T12:44:45Z</time>
      </trkpt>
      <trkpt lat="44.29665" lon="1.61007">
        <ele>316.8</ele>
        <time>2023-09-20T12:44:46Z</time>
      </trkpt>
      <trkpt lat="44.29666" lon="1.61018">
        <ele>316.4</ele>
        <time>2023-09-20T12:44:47Z</time>
      </trkpt>
      <trkpt lat="44.29666" lon="1.61029">
        <ele>316</ele>
        <time>2023-09-20T12:44:48Z</time>
      </trkpt>
      <trkpt lat="44.29666" lon="1.6104">
        <ele>315.6</ele>
        <time>2023-09-20T12:44:49Z</time>
      </trkpt>
      <trkpt lat="44.29667" lon="1.61051">
        <ele>315.2</ele>
        <time>2023-09-20T12:44:50Z</time>
      </trkpt>
      <trkpt lat="44.29667" lon="1.61061">
        <ele>314.8</ele>
        <time>2023-09-20T12:44:51Z</time>
      </trkpt>
      <trkpt lat="44.29668" lon="1.61071">
        <ele>314.4</ele>
        <time>2023-09-20T12:44:52Z</time>
      </trkpt>
      <trkpt lat="44.29668" lon="1.61082">
        <ele>314.1</ele>
        <time>2023-09-20T12:44:53Z</time>
      </trkpt>
      <trkpt lat="44.29669" lon="1.61092">
        <ele>313.7</ele>
        <time>2023-09-20T12:44:54Z</time>
      </trkpt>
      <trkpt lat="44.29671" lon="1.61103">
        <ele>313.3</ele>
        <time>2023-09-20T12:44:55Z</time>
      </trkpt>
      <trkpt lat="44.29672" lon="1.61114">
        <ele>312.9</ele>
        <time>2023-09-20T12:44:57Z</time>
      </trkpt>
      <trkpt lat="44.29673" lon="1.61135">
        <ele>312.2</ele>
        <time>2023-09-20T12:44:58Z</time>
      </trkpt>
      <trkpt lat="44.29673" lon="1.61145">
        <ele>311.8</ele>
        <time>2023-09-20T12:44:59Z</time>
      </trkpt>
      <trkpt lat="44.29673" lon="1.61155">
        <ele>311.6</ele>
        <time>2023-09-20T12:45:00Z</time>
      </trkpt>
      <trkpt lat="44.29675" lon="1.61175">
        <ele>311.2</ele>
        <time>2023-09-20T12:45:02Z</time>
      </trkpt>
      <trkpt lat="44.29675" lon="1.61185">
        <ele>311.1</ele>
        <time>2023-09-20T12:45:03Z</time>
      </trkpt>
      <trkpt lat="44.29676" lon="1.61195">
        <ele>311</ele>
        <time>2023-09-20T12:45:04Z</time>
      </trkpt>
      <trkpt lat="44.29679" lon="1.61214">
        <ele>310.6</ele>
        <time>2023-09-20T12:45:06Z</time>
      </trkpt>
      <trkpt lat="44.2968" lon="1.61224">
        <ele>310.5</ele>
        <time>2023-09-20T12:45:07Z</time>
      </trkpt>
      <trkpt lat="44.29682" lon="1.61234">
        <ele>310.3</ele>
        <time>2023-09-20T12:45:08Z</time>
      </trkpt>
      <trkpt lat="44.29685" lon="1.61255">
        <ele>309.9</ele>
        <time>2023-09-20T12:45:10Z</time>
      </trkpt>
      <trkpt lat="44.29686" lon="1.61265">
        <ele>309.8</ele>
        <time>2023-09-20T12:45:11Z</time>
      </trkpt>
      <trkpt lat="44.29688" lon="1.61274">
        <ele>309.8</ele>
        <time>2023-09-20T12:45:12Z</time>
      </trkpt>
      <trkpt lat="44.2969" lon="1.61285">
        <ele>309.6</ele>
        <time>2023-09-20T12:45:14Z</time>
      </trkpt>
      <trkpt lat="44.29695" lon="1.61306">
        <ele>309</ele>
        <time>2023-09-20T12:45:15Z</time>
      </trkpt>
      <trkpt lat="44.29697" lon="1.61317">
        <ele>309</ele>
        <time>2023-09-20T12:45:16Z</time>
      </trkpt>
      <trkpt lat="44.29699" lon="1.61328">
        <ele>308.9</ele>
        <time>2023-09-20T12:45:17Z</time>
      </trkpt>
      <trkpt lat="44.29701" lon="1.61338">
        <ele>308.6</ele>
        <time>2023-09-20T12:45:18Z</time>
      </trkpt>
      <trkpt lat="44.29706" lon="1.61359">
        <ele>308</ele>
        <time>2023-09-20T12:45:20Z</time>
      </trkpt>
      <trkpt lat="44.29707" lon="1.61369">
        <ele>307.8</ele>
        <time>2023-09-20T12:45:21Z</time>
      </trkpt>
      <trkpt lat="44.29709" lon="1.61379">
        <ele>307.7</ele>
        <time>2023-09-20T12:45:22Z</time>
      </trkpt>
      <trkpt lat="44.29711" lon="1.61389">
        <ele>307.6</ele>
        <time>2023-09-20T12:45:23Z</time>
      </trkpt>
      <trkpt lat="44.29713" lon="1.61399">
        <ele>307.7</ele>
        <time>2023-09-20T12:45:24Z</time>
      </trkpt>
      <trkpt lat="44.29715" lon="1.61408">
        <ele>307.7</ele>
        <time>2023-09-20T12:45:25Z</time>
      </trkpt>
      <trkpt lat="44.29716" lon="1.61418">
        <ele>307.8</ele>
        <time>2023-09-20T12:45:26Z</time>
      </trkpt>
      <trkpt lat="44.29717" lon="1.61428">
        <ele>307.8</ele>
        <time>2023-09-20T12:45:27Z</time>
      </trkpt>
      <trkpt lat="44.29718" lon="1.61437">
        <ele>307.8</ele>
        <time>2023-09-20T12:45:28Z</time>
      </trkpt>
      <trkpt lat="44.2972" lon="1.61447">
        <ele>308</ele>
        <time>2023-09-20T12:45:29Z</time>
      </trkpt>
      <trkpt lat="44.29722" lon="1.61455">
        <ele>308.4</ele>
        <time>2023-09-20T12:45:30Z</time>
      </trkpt>
      <trkpt lat="44.29723" lon="1.61463">
        <ele>308.6</ele>
        <time>2023-09-20T12:45:31Z</time>
      </trkpt>
      <trkpt lat="44.29724" lon="1.61469">
        <ele>308.8</ele>
        <time>2023-09-20T12:45:32Z</time>
      </trkpt>
      <trkpt lat="44.29726" lon="1.61475">
        <ele>308.9</ele>
        <time>2023-09-20T12:45:33Z</time>
      </trkpt>
      <trkpt lat="44.29727" lon="1.6148">
        <ele>308.9</ele>
        <time>2023-09-20T12:45:34Z</time>
      </trkpt>
      <trkpt lat="44.29728" lon="1.61486">
        <ele>308.9</ele>
        <time>2023-09-20T12:45:35Z</time>
      </trkpt>
      <trkpt lat="44.29728" lon="1.61493">
        <ele>308.9</ele>
        <time>2023-09-20T12:45:36Z</time>
      </trkpt>
      <trkpt lat="44.29729" lon="1.615">
        <ele>309</ele>
        <time>2023-09-20T12:45:37Z</time>
      </trkpt>
      <trkpt lat="44.29731" lon="1.61507">
        <ele>309.3</ele>
        <time>2023-09-20T12:45:38Z</time>
      </trkpt>
      <trkpt lat="44.29733" lon="1.61514">
        <ele>309.7</ele>
        <time>2023-09-20T12:45:39Z</time>
      </trkpt>
      <trkpt lat="44.29735" lon="1.61521">
        <ele>310.1</ele>
        <time>2023-09-20T12:45:40Z</time>
      </trkpt>
      <trkpt lat="44.29738" lon="1.61528">
        <ele>310.6</ele>
        <time>2023-09-20T12:45:41Z</time>
      </trkpt>
      <trkpt lat="44.29739" lon="1.61535">
        <ele>310.9</ele>
        <time>2023-09-20T12:45:42Z</time>
      </trkpt>
      <trkpt lat="44.29741" lon="1.61542">
        <ele>311.2</ele>
        <time>2023-09-20T12:45:43Z</time>
      </trkpt>
      <trkpt lat="44.29743" lon="1.61549">
        <ele>311.5</ele>
        <time>2023-09-20T12:45:44Z</time>
      </trkpt>
      <trkpt lat="44.29745" lon="1.61555">
        <ele>311.8</ele>
        <time>2023-09-20T12:45:45Z</time>
      </trkpt>
      <trkpt lat="44.29747" lon="1.61562">
        <ele>311.9</ele>
        <time>2023-09-20T12:45:46Z</time>
      </trkpt>
      <trkpt lat="44.29749" lon="1.61568">
        <ele>312</ele>
        <time>2023-09-20T12:45:47Z</time>
      </trkpt>
      <trkpt lat="44.2975" lon="1.61575">
        <ele>312</ele>
        <time>2023-09-20T12:45:48Z</time>
      </trkpt>
      <trkpt lat="44.29752" lon="1.61582">
        <ele>312.1</ele>
        <time>2023-09-20T12:45:49Z</time>
      </trkpt>
      <trkpt lat="44.29755" lon="1.61589">
        <ele>312.4</ele>
        <time>2023-09-20T12:45:50Z</time>
      </trkpt>
      <trkpt lat="44.29757" lon="1.61595">
        <ele>312.7</ele>
        <time>2023-09-20T12:45:51Z</time>
      </trkpt>
      <trkpt lat="44.2976" lon="1.61602">
        <ele>313</ele>
        <time>2023-09-20T12:45:52Z</time>
      </trkpt>
      <trkpt lat="44.29762" lon="1.61609">
        <ele>313.3</ele>
        <time>2023-09-20T12:45:53Z</time>
      </trkpt>
      <trkpt lat="44.29764" lon="1.61615">
        <ele>313.5</ele>
        <time>2023-09-20T12:45:54Z</time>
      </trkpt>
      <trkpt lat="44.29766" lon="1.61622">
        <ele>313.6</ele>
        <time>2023-09-20T12:45:55Z</time>
      </trkpt>
      <trkpt lat="44.29768" lon="1.61627">
        <ele>313.6</ele>
        <time>2023-09-20T12:45:56Z</time>
      </trkpt>
      <trkpt lat="44.2977" lon="1.61632">
        <ele>313.7</ele>
        <time>2023-09-20T12:45:57Z</time>
      </trkpt>
      <trkpt lat="44.29771" lon="1.61637">
        <ele>313.8</ele>
        <time>2023-09-20T12:45:58Z</time>
      </trkpt>
      <trkpt lat="44.29772" lon="1.61642">
        <ele>313.8</ele>
        <time>2023-09-20T12:45:59Z</time>
      </trkpt>
      <trkpt lat="44.29773" lon="1.61647">
        <ele>313.9</ele>
        <time>2023-09-20T12:46:00Z</time>
      </trkpt>
      <trkpt lat="44.29775" lon="1.61652">
        <ele>313.9</ele>
        <time>2023-09-20T12:46:01Z</time>
      </trkpt>
      <trkpt lat="44.29775" lon="1.61654">
        <ele>314</ele>
        <time>2023-09-20T12:46:02Z</time>
      </trkpt>
      <trkpt lat="44.29776" lon="1.61661">
        <ele>314</ele>
        <time>2023-09-20T12:46:04Z</time>
      </trkpt>
      <trkpt lat="44.29773" lon="1.61668">
        <ele>314</ele>
        <time>2023-09-20T12:46:06Z</time>
      </trkpt>
      <trkpt lat="44.29772" lon="1.61674">
        <ele>313.9</ele>
        <time>2023-09-20T12:46:07Z</time>
      </trkpt>
      <trkpt lat="44.29771" lon="1.61677">
        <ele>313.9</ele>
        <time>2023-09-20T12:46:08Z</time>
      </trkpt>
      <trkpt lat="44.29771" lon="1.61683">
        <ele>313.9</ele>
        <time>2023-09-20T12:46:09Z</time>
      </trkpt>
      <trkpt lat="44.29774" lon="1.61689">
        <ele>313.9</ele>
        <time>2023-09-20T12:46:10Z</time>
      </trkpt>
      <trkpt lat="44.29778" lon="1.61692">
        <ele>314</ele>
        <time>2023-09-20T12:46:11Z</time>
      </trkpt>
      <trkpt lat="44.29782" lon="1.61694">
        <ele>314</ele>
        <time>2023-09-20T12:46:12Z</time>
      </trkpt>
      <trkpt lat="44.29786" lon="1.61697">
        <ele>313.9</ele>
        <time>2023-09-20T12:46:13Z</time>
      </trkpt>
      <trkpt lat="44.29789" lon="1.61699">
        <ele>313.8</ele>
        <time>2023-09-20T12:46:14Z</time>
      </trkpt>
      <trkpt lat="44.29793" lon="1.61701">
        <ele>313.8</ele>
        <time>2023-09-20T12:46:15Z</time>
      </trkpt>
      <trkpt lat="44.29796" lon="1.61704">
        <ele>313.7</ele>
        <time>2023-09-20T12:46:16Z</time>
      </trkpt>
      <trkpt lat="44.29801" lon="1.61707">
        <ele>313.6</ele>
        <time>2023-09-20T12:46:17Z</time>
      </trkpt>
      <trkpt lat="44.29805" lon="1.6171">
        <ele>313.5</ele>
        <time>2023-09-20T12:46:18Z</time>
      </trkpt>
      <trkpt lat="44.29809" lon="1.61712">
        <ele>313.3</ele>
        <time>2023-09-20T12:46:19Z</time>
      </trkpt>
      <trkpt lat="44.29814" lon="1.61714">
        <ele>313.2</ele>
        <time>2023-09-20T12:46:20Z</time>
      </trkpt>
      <trkpt lat="44.29819" lon="1.61717">
        <ele>313.1</ele>
        <time>2023-09-20T12:46:21Z</time>
      </trkpt>
      <trkpt lat="44.29823" lon="1.6172">
        <ele>313</ele>
        <time>2023-09-20T12:46:22Z</time>
      </trkpt>
      <trkpt lat="44.29828" lon="1.61723">
        <ele>313</ele>
        <time>2023-09-20T12:46:23Z</time>
      </trkpt>
      <trkpt lat="44.29832" lon="1.61725">
        <ele>313</ele>
        <time>2023-09-20T12:46:24Z</time>
      </trkpt>
      <trkpt lat="44.29837" lon="1.61728">
        <ele>312.9</ele>
        <time>2023-09-20T12:46:25Z</time>
      </trkpt>
      <trkpt lat="44.29841" lon="1.61731">
        <ele>312.8</ele>
        <time>2023-09-20T12:46:26Z</time>
      </trkpt>
      <trkpt lat="44.29845" lon="1.61734">
        <ele>312.8</ele>
        <time>2023-09-20T12:46:27Z</time>
      </trkpt>
      <trkpt lat="44.2985" lon="1.61737">
        <ele>312.7</ele>
        <time>2023-09-20T12:46:28Z</time>
      </trkpt>
      <trkpt lat="44.29855" lon="1.61739">
        <ele>312.7</ele>
        <time>2023-09-20T12:46:29Z</time>
      </trkpt>
      <trkpt lat="44.2986" lon="1.61742">
        <ele>312.7</ele>
        <time>2023-09-20T12:46:30Z</time>
      </trkpt>
      <trkpt lat="44.29865" lon="1.61744">
        <ele>312.7</ele>
        <time>2023-09-20T12:46:31Z</time>
      </trkpt>
      <trkpt lat="44.2987" lon="1.61746">
        <ele>312.5</ele>
        <time>2023-09-20T12:46:32Z</time>
      </trkpt>
      <trkpt lat="44.29875" lon="1.61748">
        <ele>312.4</ele>
        <time>2023-09-20T12:46:33Z</time>
      </trkpt>
      <trkpt lat="44.29881" lon="1.61751">
        <ele>312.3</ele>
        <time>2023-09-20T12:46:34Z</time>
      </trkpt>
      <trkpt lat="44.29886" lon="1.61752">
        <ele>312.2</ele>
        <time>2023-09-20T12:46:35Z</time>
      </trkpt>
      <trkpt lat="44.29892" lon="1.61754">
        <ele>312</ele>
        <time>2023-09-20T12:46:36Z</time>
      </trkpt>
      <trkpt lat="44.29898" lon="1.61754">
        <ele>311.9</ele>
        <time>2023-09-20T12:46:37Z</time>
      </trkpt>
      <trkpt lat="44.29903" lon="1.61755">
        <ele>311.8</ele>
        <time>2023-09-20T12:46:38Z</time>
      </trkpt>
      <trkpt lat="44.29909" lon="1.61756">
        <ele>311.6</ele>
        <time>2023-09-20T12:46:39Z</time>
      </trkpt>
      <trkpt lat="44.29914" lon="1.61756">
        <ele>311.5</ele>
        <time>2023-09-20T12:46:40Z</time>
      </trkpt>
      <trkpt lat="44.2992" lon="1.61756">
        <ele>311.4</ele>
        <time>2023-09-20T12:46:41Z</time>
      </trkpt>
      <trkpt lat="44.29925" lon="1.61756">
        <ele>311.3</ele>
        <time>2023-09-20T12:46:42Z</time>
      </trkpt>
      <trkpt lat="44.29931" lon="1.61756">
        <ele>311.2</ele>
        <time>2023-09-20T12:46:43Z</time>
      </trkpt>
      <trkpt lat="44.29936" lon="1.61755">
        <ele>311.1</ele>
        <time>2023-09-20T12:46:44Z</time>
      </trkpt>
      <trkpt lat="44.29942" lon="1.61755">
        <ele>311</ele>
        <time>2023-09-20T12:46:45Z</time>
      </trkpt>
      <trkpt lat="44.29947" lon="1.61754">
        <ele>310.9</ele>
        <time>2023-09-20T12:46:46Z</time>
      </trkpt>
      <trkpt lat="44.29954" lon="1.61754">
        <ele>310.7</ele>
        <time>2023-09-20T12:46:47Z</time>
      </trkpt>
      <trkpt lat="44.2996" lon="1.61753">
        <ele>310.5</ele>
        <time>2023-09-20T12:46:48Z</time>
      </trkpt>
      <trkpt lat="44.29965" lon="1.61754">
        <ele>310.2</ele>
        <time>2023-09-20T12:46:49Z</time>
      </trkpt>
      <trkpt lat="44.29971" lon="1.61754">
        <ele>310</ele>
        <time>2023-09-20T12:46:50Z</time>
      </trkpt>
      <trkpt lat="44.29977" lon="1.61754">
        <ele>310</ele>
        <time>2023-09-20T12:46:51Z</time>
      </trkpt>
      <trkpt lat="44.29982" lon="1.61754">
        <ele>309.9</ele>
        <time>2023-09-20T12:46:52Z</time>
      </trkpt>
      <trkpt lat="44.29987" lon="1.61755">
        <ele>309.9</ele>
        <time>2023-09-20T12:46:53Z</time>
      </trkpt>
      <trkpt lat="44.29991" lon="1.61759">
        <ele>309.8</ele>
        <time>2023-09-20T12:46:54Z</time>
      </trkpt>
      <trkpt lat="44.29993" lon="1.61764">
        <ele>309.6</ele>
        <time>2023-09-20T12:46:55Z</time>
      </trkpt>
      <trkpt lat="44.29994" lon="1.6177">
        <ele>309.4</ele>
        <time>2023-09-20T12:46:56Z</time>
      </trkpt>
      <trkpt lat="44.29994" lon="1.61776">
        <ele>309.3</ele>
        <time>2023-09-20T12:46:57Z</time>
      </trkpt>
      <trkpt lat="44.29992" lon="1.61782">
        <ele>309.1</ele>
        <time>2023-09-20T12:46:58Z</time>
      </trkpt>
      <trkpt lat="44.2999" lon="1.61788">
        <ele>309</ele>
        <time>2023-09-20T12:46:59Z</time>
      </trkpt>
      <trkpt lat="44.29987" lon="1.61794">
        <ele>308.9</ele>
        <time>2023-09-20T12:47:00Z</time>
      </trkpt>
      <trkpt lat="44.29984" lon="1.618">
        <ele>308.8</ele>
        <time>2023-09-20T12:47:01Z</time>
      </trkpt>
      <trkpt lat="44.29981" lon="1.61806">
        <ele>308.7</ele>
        <time>2023-09-20T12:47:02Z</time>
      </trkpt>
      <trkpt lat="44.29978" lon="1.61813">
        <ele>308.3</ele>
        <time>2023-09-20T12:47:03Z</time>
      </trkpt>
      <trkpt lat="44.29975" lon="1.61819">
        <ele>308</ele>
        <time>2023-09-20T12:47:04Z</time>
      </trkpt>
      <trkpt lat="44.29973" lon="1.61826">
        <ele>307.5</ele>
        <time>2023-09-20T12:47:05Z</time>
      </trkpt>
      <trkpt lat="44.2997" lon="1.61832">
        <ele>307.3</ele>
        <time>2023-09-20T12:47:06Z</time>
      </trkpt>
      <trkpt lat="44.29967" lon="1.61838">
        <ele>307.4</ele>
        <time>2023-09-20T12:47:07Z</time>
      </trkpt>
      <trkpt lat="44.29965" lon="1.61843">
        <ele>307.5</ele>
        <time>2023-09-20T12:47:08Z</time>
      </trkpt>
      <trkpt lat="44.29963" lon="1.61845">
        <ele>307.7</ele>
        <time>2023-09-20T12:47:09Z</time>
      </trkpt>
      <trkpt lat="44.29959" lon="1.61851">
        <ele>307.9</ele>
        <time>2023-09-20T12:47:11Z</time>
      </trkpt>
      <trkpt lat="44.29955" lon="1.6186">
        <ele>308.2</ele>
        <time>2023-09-20T12:47:12Z</time>
      </trkpt>
      <trkpt lat="44.2995" lon="1.61868">
        <ele>308.4</ele>
        <time>2023-09-20T12:47:13Z</time>
      </trkpt>
      <trkpt lat="44.29945" lon="1.61873">
        <ele>308.5</ele>
        <time>2023-09-20T12:47:14Z</time>
      </trkpt>
      <trkpt lat="44.29942" lon="1.6188">
        <ele>308.5</ele>
        <time>2023-09-20T12:47:15Z</time>
      </trkpt>
      <trkpt lat="44.29939" lon="1.61887">
        <ele>308.4</ele>
        <time>2023-09-20T12:47:16Z</time>
      </trkpt>
      <trkpt lat="44.29937" lon="1.61893">
        <ele>308.5</ele>
        <time>2023-09-20T12:47:17Z</time>
      </trkpt>
      <trkpt lat="44.29934" lon="1.619">
        <ele>308.6</ele>
        <time>2023-09-20T12:47:18Z</time>
      </trkpt>
      <trkpt lat="44.29932" lon="1.61908">
        <ele>308.6</ele>
        <time>2023-09-20T12:47:19Z</time>
      </trkpt>
      <trkpt lat="44.29929" lon="1.61915">
        <ele>308.6</ele>
        <time>2023-09-20T12:47:20Z</time>
      </trkpt>
      <trkpt lat="44.29927" lon="1.61923">
        <ele>308.6</ele>
        <time>2023-09-20T12:47:21Z</time>
      </trkpt>
      <trkpt lat="44.29924" lon="1.6193">
        <ele>308.7</ele>
        <time>2023-09-20T12:47:22Z</time>
      </trkpt>
      <trkpt lat="44.29921" lon="1.61936">
        <ele>308.8</ele>
        <time>2023-09-20T12:47:23Z</time>
      </trkpt>
      <trkpt lat="44.29919" lon="1.61943">
        <ele>308.9</ele>
        <time>2023-09-20T12:47:24Z</time>
      </trkpt>
      <trkpt lat="44.29917" lon="1.61949">
        <ele>308.8</ele>
        <time>2023-09-20T12:47:25Z</time>
      </trkpt>
      <trkpt lat="44.29914" lon="1.61956">
        <ele>308.7</ele>
        <time>2023-09-20T12:47:26Z</time>
      </trkpt>
      <trkpt lat="44.29912" lon="1.61962">
        <ele>308.7</ele>
        <time>2023-09-20T12:47:27Z</time>
      </trkpt>
      <trkpt lat="44.29909" lon="1.61967">
        <ele>308.7</ele>
        <time>2023-09-20T12:47:28Z</time>
      </trkpt>
      <trkpt lat="44.29906" lon="1.61973">
        <ele>308.7</ele>
        <time>2023-09-20T12:47:29Z</time>
      </trkpt>
      <trkpt lat="44.29904" lon="1.61978">
        <ele>308.9</ele>
        <time>2023-09-20T12:47:30Z</time>
      </trkpt>
      <trkpt lat="44.29901" lon="1.61983">
        <ele>309.1</ele>
        <time>2023-09-20T12:47:31Z</time>
      </trkpt>
      <trkpt lat="44.29898" lon="1.61989">
        <ele>309.4</ele>
        <time>2023-09-20T12:47:32Z</time>
      </trkpt>
      <trkpt lat="44.29895" lon="1.61994">
        <ele>309.5</ele>
        <time>2023-09-20T12:47:33Z</time>
      </trkpt>
      <trkpt lat="44.29893" lon="1.62">
        <ele>309.7</ele>
        <time>2023-09-20T12:47:34Z</time>
      </trkpt>
      <trkpt lat="44.29891" lon="1.62005">
        <ele>309.7</ele>
        <time>2023-09-20T12:47:35Z</time>
      </trkpt>
      <trkpt lat="44.29888" lon="1.6201">
        <ele>309.6</ele>
        <time>2023-09-20T12:47:36Z</time>
      </trkpt>
      <trkpt lat="44.29886" lon="1.62015">
        <ele>309.5</ele>
        <time>2023-09-20T12:47:37Z</time>
      </trkpt>
      <trkpt lat="44.29883" lon="1.62021">
        <ele>309.4</ele>
        <time>2023-09-20T12:47:38Z</time>
      </trkpt>
      <trkpt lat="44.2988" lon="1.62026">
        <ele>309.4</ele>
        <time>2023-09-20T12:47:39Z</time>
      </trkpt>
      <trkpt lat="44.29877" lon="1.62031">
        <ele>309.4</ele>
        <time>2023-09-20T12:47:40Z</time>
      </trkpt>
      <trkpt lat="44.29875" lon="1.62036">
        <ele>309.4</ele>
        <time>2023-09-20T12:47:41Z</time>
      </trkpt>
      <trkpt lat="44.29872" lon="1.62042">
        <ele>309.4</ele>
        <time>2023-09-20T12:47:42Z</time>
      </trkpt>
      <trkpt lat="44.29869" lon="1.62048">
        <ele>309.5</ele>
        <time>2023-09-20T12:47:43Z</time>
      </trkpt>
      <trkpt lat="44.29867" lon="1.62054">
        <ele>309.6</ele>
        <time>2023-09-20T12:47:44Z</time>
      </trkpt>
      <trkpt lat="44.29864" lon="1.62059">
        <ele>309.6</ele>
        <time>2023-09-20T12:47:45Z</time>
      </trkpt>
      <trkpt lat="44.29862" lon="1.62065">
        <ele>309.6</ele>
        <time>2023-09-20T12:47:46Z</time>
      </trkpt>
      <trkpt lat="44.29859" lon="1.62071">
        <ele>309.5</ele>
        <time>2023-09-20T12:47:47Z</time>
      </trkpt>
      <trkpt lat="44.29857" lon="1.62077">
        <ele>309.3</ele>
        <time>2023-09-20T12:47:48Z</time>
      </trkpt>
      <trkpt lat="44.29855" lon="1.62082">
        <ele>309.3</ele>
        <time>2023-09-20T12:47:49Z</time>
      </trkpt>
      <trkpt lat="44.29853" lon="1.62088">
        <ele>309.3</ele>
        <time>2023-09-20T12:47:50Z</time>
      </trkpt>
      <trkpt lat="44.2985" lon="1.62093">
        <ele>309.4</ele>
        <time>2023-09-20T12:47:51Z</time>
      </trkpt>
      <trkpt lat="44.29848" lon="1.62099">
        <ele>309.5</ele>
        <time>2023-09-20T12:47:52Z</time>
      </trkpt>
      <trkpt lat="44.29846" lon="1.62106">
        <ele>309.5</ele>
        <time>2023-09-20T12:47:53Z</time>
      </trkpt>
      <trkpt lat="44.29844" lon="1.62112">
        <ele>309.6</ele>
        <time>2023-09-20T12:47:54Z</time>
      </trkpt>
      <trkpt lat="44.29842" lon="1.62119">
        <ele>309.7</ele>
        <time>2023-09-20T12:47:55Z</time>
      </trkpt>
      <trkpt lat="44.29839" lon="1.62126">
        <ele>309.8</ele>
        <time>2023-09-20T12:47:56Z</time>
      </trkpt>
      <trkpt lat="44.29837" lon="1.62133">
        <ele>309.9</ele>
        <time>2023-09-20T12:47:57Z</time>
      </trkpt>
      <trkpt lat="44.29835" lon="1.62139">
        <ele>309.9</ele>
        <time>2023-09-20T12:47:58Z</time>
      </trkpt>
      <trkpt lat="44.29832" lon="1.62145">
        <ele>310</ele>
        <time>2023-09-20T12:47:59Z</time>
      </trkpt>
      <trkpt lat="44.2983" lon="1.62152">
        <ele>309.9</ele>
        <time>2023-09-20T12:48:00Z</time>
      </trkpt>
      <trkpt lat="44.29827" lon="1.62158">
        <ele>309.8</ele>
        <time>2023-09-20T12:48:01Z</time>
      </trkpt>
      <trkpt lat="44.29824" lon="1.62165">
        <ele>309.7</ele>
        <time>2023-09-20T12:48:02Z</time>
      </trkpt>
      <trkpt lat="44.29822" lon="1.62171">
        <ele>309.7</ele>
        <time>2023-09-20T12:48:03Z</time>
      </trkpt>
      <trkpt lat="44.29819" lon="1.62177">
        <ele>309.7</ele>
        <time>2023-09-20T12:48:04Z</time>
      </trkpt>
      <trkpt lat="44.29817" lon="1.62184">
        <ele>309.8</ele>
        <time>2023-09-20T12:48:05Z</time>
      </trkpt>
      <trkpt lat="44.29815" lon="1.6219">
        <ele>309.9</ele>
        <time>2023-09-20T12:48:06Z</time>
      </trkpt>
      <trkpt lat="44.29813" lon="1.62195">
        <ele>310</ele>
        <time>2023-09-20T12:48:07Z</time>
      </trkpt>
      <trkpt lat="44.2981" lon="1.62201">
        <ele>310</ele>
        <time>2023-09-20T12:48:08Z</time>
      </trkpt>
      <trkpt lat="44.29808" lon="1.62207">
        <ele>310</ele>
        <time>2023-09-20T12:48:09Z</time>
      </trkpt>
      <trkpt lat="44.29805" lon="1.62213">
        <ele>310</ele>
        <time>2023-09-20T12:48:10Z</time>
      </trkpt>
      <trkpt lat="44.29803" lon="1.62219">
        <ele>309.9</ele>
        <time>2023-09-20T12:48:11Z</time>
      </trkpt>
      <trkpt lat="44.29801" lon="1.62224">
        <ele>309.8</ele>
        <time>2023-09-20T12:48:12Z</time>
      </trkpt>
      <trkpt lat="44.29798" lon="1.62228">
        <ele>309.8</ele>
        <time>2023-09-20T12:48:13Z</time>
      </trkpt>
      <trkpt lat="44.29795" lon="1.62234">
        <ele>309.8</ele>
        <time>2023-09-20T12:48:14Z</time>
      </trkpt>
      <trkpt lat="44.29793" lon="1.6224">
        <ele>309.8</ele>
        <time>2023-09-20T12:48:15Z</time>
      </trkpt>
      <trkpt lat="44.2979" lon="1.62246">
        <ele>309.9</ele>
        <time>2023-09-20T12:48:16Z</time>
      </trkpt>
      <trkpt lat="44.29787" lon="1.62253">
        <ele>310</ele>
        <time>2023-09-20T12:48:17Z</time>
      </trkpt>
      <trkpt lat="44.29785" lon="1.62258">
        <ele>310</ele>
        <time>2023-09-20T12:48:18Z</time>
      </trkpt>
      <trkpt lat="44.29785" lon="1.62264">
        <ele>310</ele>
        <time>2023-09-20T12:48:20Z</time>
      </trkpt>
      <trkpt lat="44.2978" lon="1.62268">
        <ele>310</ele>
        <time>2023-09-20T12:48:21Z</time>
      </trkpt>
      <trkpt lat="44.29778" lon="1.62271">
        <ele>310</ele>
        <time>2023-09-20T12:48:22Z</time>
      </trkpt>
      <trkpt lat="44.29776" lon="1.62277">
        <ele>309.9</ele>
        <time>2023-09-20T12:48:23Z</time>
      </trkpt>
      <trkpt lat="44.29775" lon="1.62279">
        <ele>309.8</ele>
        <time>2023-09-20T12:48:24Z</time>
      </trkpt>
      <trkpt lat="44.29775" lon="1.62284">
        <ele>309.8</ele>
        <time>2023-09-20T12:48:25Z</time>
      </trkpt>
      <trkpt lat="44.29775" lon="1.62291">
        <ele>309.8</ele>
        <time>2023-09-20T12:48:26Z</time>
      </trkpt>
      <trkpt lat="44.29775" lon="1.62298">
        <ele>309.9</ele>
        <time>2023-09-20T12:48:27Z</time>
      </trkpt>
      <trkpt lat="44.29775" lon="1.62304">
        <ele>309.9</ele>
        <time>2023-09-20T12:48:28Z</time>
      </trkpt>
      <trkpt lat="44.29775" lon="1.62311">
        <ele>309.9</ele>
        <time>2023-09-20T12:48:29Z</time>
      </trkpt>
      <trkpt lat="44.29775" lon="1.62316">
        <ele>309.9</ele>
        <time>2023-09-20T12:48:30Z</time>
      </trkpt>
      <trkpt lat="44.29775" lon="1.62323">
        <ele>309.9</ele>
        <time>2023-09-20T12:48:31Z</time>
      </trkpt>
      <trkpt lat="44.29775" lon="1.62329">
        <ele>309.9</ele>
        <time>2023-09-20T12:48:32Z</time>
      </trkpt>
      <trkpt lat="44.29774" lon="1.62336">
        <ele>309.9</ele>
        <time>2023-09-20T12:48:33Z</time>
      </trkpt>
      <trkpt lat="44.29774" lon="1.62342">
        <ele>309.9</ele>
        <time>2023-09-20T12:48:34Z</time>
      </trkpt>
      <trkpt lat="44.29773" lon="1.62348">
        <ele>309.9</ele>
        <time>2023-09-20T12:48:35Z</time>
      </trkpt>
      <trkpt lat="44.29772" lon="1.62354">
        <ele>310</ele>
        <time>2023-09-20T12:48:36Z</time>
      </trkpt>
      <trkpt lat="44.29772" lon="1.6236">
        <ele>310</ele>
        <time>2023-09-20T12:48:37Z</time>
      </trkpt>
      <trkpt lat="44.29772" lon="1.62366">
        <ele>309.9</ele>
        <time>2023-09-20T12:48:38Z</time>
      </trkpt>
      <trkpt lat="44.29771" lon="1.62373">
        <ele>309.7</ele>
        <time>2023-09-20T12:48:39Z</time>
      </trkpt>
      <trkpt lat="44.29771" lon="1.62379">
        <ele>309.5</ele>
        <time>2023-09-20T12:48:40Z</time>
      </trkpt>
      <trkpt lat="44.29771" lon="1.62385">
        <ele>309.4</ele>
        <time>2023-09-20T12:48:41Z</time>
      </trkpt>
      <trkpt lat="44.29769" lon="1.6239">
        <ele>309.2</ele>
        <time>2023-09-20T12:48:42Z</time>
      </trkpt>
      <trkpt lat="44.29768" lon="1.62395">
        <ele>309</ele>
        <time>2023-09-20T12:48:43Z</time>
      </trkpt>
      <trkpt lat="44.29767" lon="1.62401">
        <ele>308.7</ele>
        <time>2023-09-20T12:48:44Z</time>
      </trkpt>
      <trkpt lat="44.29767" lon="1.62406">
        <ele>308.4</ele>
        <time>2023-09-20T12:48:45Z</time>
      </trkpt>
      <trkpt lat="44.29768" lon="1.62411">
        <ele>308.1</ele>
        <time>2023-09-20T12:48:46Z</time>
      </trkpt>
      <trkpt lat="44.29768" lon="1.62416">
        <ele>307.7</ele>
        <time>2023-09-20T12:48:47Z</time>
      </trkpt>
      <trkpt lat="44.29768" lon="1.62422">
        <ele>307.6</ele>
        <time>2023-09-20T12:48:48Z</time>
      </trkpt>
      <trkpt lat="44.29768" lon="1.62432">
        <ele>307.3</ele>
        <time>2023-09-20T12:48:49Z</time>
        <extensions>
          <visugpx:TrkExtension xmlns:visugpx="https://www.visugpx.com/editgpx/">
            <visugpx:node>4</visugpx:node>
            </visugpx:TrkExtension>
        </extensions>
      </trkpt>
      <trkpt lat="44.29766" lon="1.62416">
        <ele>307.9</ele>
      </trkpt>
      <trkpt lat="44.29764" lon="1.624">
        <ele>308.9</ele>
      </trkpt>
      <trkpt lat="44.29737" lon="1.62433">
        <ele>309</ele>
      </trkpt>
      <trkpt lat="44.29716" lon="1.62449">
        <ele>308.8</ele>
      </trkpt>
      <trkpt lat="44.29695" lon="1.62458">
        <ele>308.5</ele>
      </trkpt>
      <trkpt lat="44.29677" lon="1.62459">
        <ele>308.2</ele>
      </trkpt>
      <trkpt lat="44.29653" lon="1.62455">
        <ele>307.7</ele>
      </trkpt>
      <trkpt lat="44.29633" lon="1.62443">
        <ele>306.7</ele>
      </trkpt>
      <trkpt lat="44.2961" lon="1.62459">
        <ele>307.1</ele>
      </trkpt>
      <trkpt lat="44.29592" lon="1.62473">
        <ele>308.7</ele>
      </trkpt>
      <trkpt lat="44.2962" lon="1.6261">
        <ele>311.4</ele>
      </trkpt>
      <trkpt lat="44.2962" lon="1.62639">
        <ele>311.4</ele>
      </trkpt>
      <trkpt lat="44.29598" lon="1.62722">
        <ele>314.9</ele>
      </trkpt>
      <trkpt lat="44.29559" lon="1.6278">
        <ele>320.3</ele>
      </trkpt>
      <trkpt lat="44.2954" lon="1.62792">
        <ele>322.5</ele>
      </trkpt>
      <trkpt lat="44.29488" lon="1.6284">
        <ele>327.9</ele>
      </trkpt>
      <trkpt lat="44.29412" lon="1.62998">
        <ele>327.8</ele>
        <extensions>
          <visugpx:TrkExtension xmlns:visugpx="https://www.visugpx.com/editgpx/">
            <visugpx:node>5</visugpx:node>
            </visugpx:TrkExtension>
        </extensions>
      </trkpt>
      <trkpt lat="44.2937" lon="1.63086">
        <ele>324.6</ele>
      </trkpt>
      <trkpt lat="44.2937" lon="1.63131">
        <ele>322.8</ele>
        <extensions>
          <visugpx:TrkExtension xmlns:visugpx="https://www.visugpx.com/editgpx/">
            <visugpx:node>6</visugpx:node>
            </visugpx:TrkExtension>
        </extensions>
      </trkpt>
      <trkpt lat="44.29385" lon="1.63195">
        <ele>319.4</ele>
      </trkpt>
      <trkpt lat="44.2894" lon="1.63172">
        <ele>315.5</ele>
      </trkpt>
      <trkpt lat="44.28608" lon="1.63154">
        <ele>295.4</ele>
        <extensions>
          <visugpx:TrkExtension xmlns:visugpx="https://www.visugpx.com/editgpx/">
            <visugpx:node>7</visugpx:node>
            </visugpx:TrkExtension>
        </extensions>
      </trkpt>
      <trkpt lat="44.28468" lon="1.63146">
        <ele>300.3</ele>
        <time>2023-01-26T16:05:55Z</time>
        <extensions>
          <visugpx:TrkExtension xmlns:visugpx="https://www.visugpx.com/editgpx/">
            <visugpx:node>8</visugpx:node>
            </visugpx:TrkExtension>
        </extensions>
      </trkpt>
      <trkpt lat="44.28466" lon="1.63142">
        <ele>300.3</ele>
        <time>2023-01-26T16:05:56Z</time>
      </trkpt>
      <trkpt lat="44.28464" lon="1.63137">
        <ele>300.2</ele>
        <time>2023-01-26T16:05:57Z</time>
      </trkpt>
      <trkpt lat="44.28461" lon="1.63132">
        <ele>300.2</ele>
        <time>2023-01-26T16:05:58Z</time>
      </trkpt>
      <trkpt lat="44.28459" lon="1.63127">
        <ele>300.2</ele>
        <time>2023-01-26T16:05:59Z</time>
      </trkpt>
      <trkpt lat="44.28456" lon="1.63121">
        <ele>300.2</ele>
        <time>2023-01-26T16:06:00Z</time>
      </trkpt>
      <trkpt lat="44.28455" lon="1.63118">
        <ele>300.2</ele>
        <time>2023-01-26T16:06:01Z</time>
      </trkpt>
      <trkpt lat="44.28452" lon="1.63114">
        <ele>300.2</ele>
        <time>2023-01-26T16:06:02Z</time>
      </trkpt>
      <trkpt lat="44.28446" lon="1.63109">
        <ele>300.1</ele>
        <time>2023-01-26T16:06:03Z</time>
      </trkpt>
      <trkpt lat="44.28439" lon="1.63104">
        <ele>300.1</ele>
        <time>2023-01-26T16:06:05Z</time>
      </trkpt>
      <trkpt lat="44.28434" lon="1.63103">
        <ele>300.1</ele>
        <time>2023-01-26T16:06:06Z</time>
      </trkpt>
      <trkpt lat="44.28429" lon="1.63103">
        <ele>300.1</ele>
        <time>2023-01-26T16:06:07Z</time>
      </trkpt>
      <trkpt lat="44.28425" lon="1.63103">
        <ele>300.1</ele>
        <time>2023-01-26T16:06:08Z</time>
      </trkpt>
      <trkpt lat="44.28416" lon="1.63103">
        <ele>299.9</ele>
        <time>2023-01-26T16:06:09Z</time>
      </trkpt>
      <trkpt lat="44.28412" lon="1.63105">
        <ele>299.9</ele>
        <time>2023-01-26T16:06:10Z</time>
      </trkpt>
      <trkpt lat="44.28406" lon="1.63107">
        <ele>299.9</ele>
        <time>2023-01-26T16:06:12Z</time>
      </trkpt>
      <trkpt lat="44.28401" lon="1.63109">
        <ele>299.7</ele>
        <time>2023-01-26T16:06:13Z</time>
      </trkpt>
      <trkpt lat="44.28397" lon="1.63112">
        <ele>299.7</ele>
        <time>2023-01-26T16:06:14Z</time>
      </trkpt>
      <trkpt lat="44.28393" lon="1.63114">
        <ele>300.2</ele>
        <time>2023-01-26T16:06:15Z</time>
      </trkpt>
      <trkpt lat="44.28387" lon="1.63118">
        <ele>300.1</ele>
        <time>2023-01-26T16:06:16Z</time>
      </trkpt>
      <trkpt lat="44.2838" lon="1.63121">
        <ele>300.1</ele>
        <time>2023-01-26T16:06:18Z</time>
      </trkpt>
      <trkpt lat="44.28376" lon="1.63124">
        <ele>299.9</ele>
        <time>2023-01-26T16:06:19Z</time>
      </trkpt>
      <trkpt lat="44.28371" lon="1.63126">
        <ele>299.9</ele>
        <time>2023-01-26T16:06:20Z</time>
      </trkpt>
      <trkpt lat="44.28367" lon="1.63128">
        <ele>299.7</ele>
        <time>2023-01-26T16:06:21Z</time>
      </trkpt>
      <trkpt lat="44.28362" lon="1.63131">
        <ele>300.1</ele>
        <time>2023-01-26T16:06:22Z</time>
      </trkpt>
      <trkpt lat="44.28356" lon="1.63133">
        <ele>300.1</ele>
        <time>2023-01-26T16:06:23Z</time>
      </trkpt>
      <trkpt lat="44.28352" lon="1.63135">
        <ele>299.7</ele>
        <time>2023-01-26T16:06:24Z</time>
      </trkpt>
      <trkpt lat="44.28346" lon="1.63138">
        <ele>299.7</ele>
        <time>2023-01-26T16:06:25Z</time>
      </trkpt>
      <trkpt lat="44.28339" lon="1.63142">
        <ele>299.1</ele>
        <time>2023-01-26T16:06:27Z</time>
      </trkpt>
      <trkpt lat="44.28336" lon="1.63144">
        <ele>299.1</ele>
        <time>2023-01-26T16:06:28Z</time>
      </trkpt>
      <trkpt lat="44.28332" lon="1.63145">
        <ele>299.1</ele>
        <time>2023-01-26T16:06:29Z</time>
      </trkpt>
      <trkpt lat="44.28328" lon="1.63146">
        <ele>298.3</ele>
        <time>2023-01-26T16:06:31Z</time>
      </trkpt>
      <trkpt lat="44.2832" lon="1.63149">
        <ele>299.1</ele>
        <time>2023-01-26T16:06:32Z</time>
      </trkpt>
      <trkpt lat="44.28316" lon="1.63151">
        <ele>298.4</ele>
        <time>2023-01-26T16:06:33Z</time>
      </trkpt>
      <trkpt lat="44.28308" lon="1.63155">
        <ele>298.4</ele>
        <time>2023-01-26T16:06:35Z</time>
      </trkpt>
      <trkpt lat="44.28305" lon="1.63159">
        <ele>297.5</ele>
        <time>2023-01-26T16:06:36Z</time>
      </trkpt>
      <trkpt lat="44.283" lon="1.63161">
        <ele>297.5</ele>
        <time>2023-01-26T16:06:37Z</time>
      </trkpt>
      <trkpt lat="44.28293" lon="1.63165">
        <ele>297.5</ele>
        <time>2023-01-26T16:06:39Z</time>
      </trkpt>
      <trkpt lat="44.28289" lon="1.63166">
        <ele>297.5</ele>
        <time>2023-01-26T16:06:40Z</time>
      </trkpt>
      <trkpt lat="44.28286" lon="1.63169">
        <ele>297.5</ele>
        <time>2023-01-26T16:06:41Z</time>
      </trkpt>
      <trkpt lat="44.28282" lon="1.63171">
        <ele>297.5</ele>
        <time>2023-01-26T16:06:42Z</time>
      </trkpt>
      <trkpt lat="44.2828" lon="1.63173">
        <ele>296.8</ele>
        <time>2023-01-26T16:06:43Z</time>
      </trkpt>
      <trkpt lat="44.28273" lon="1.63179">
        <ele>296.8</ele>
        <time>2023-01-26T16:06:45Z</time>
      </trkpt>
      <trkpt lat="44.2827" lon="1.63182">
        <ele>297.3</ele>
        <time>2023-01-26T16:06:46Z</time>
      </trkpt>
      <trkpt lat="44.28267" lon="1.63185">
        <ele>296.4</ele>
        <time>2023-01-26T16:06:47Z</time>
      </trkpt>
      <trkpt lat="44.28264" lon="1.63188">
        <ele>296.4</ele>
        <time>2023-01-26T16:06:48Z</time>
      </trkpt>
      <trkpt lat="44.28261" lon="1.63197">
        <ele>296.4</ele>
        <time>2023-01-26T16:06:49Z</time>
      </trkpt>
      <trkpt lat="44.28259" lon="1.63201">
        <ele>296.6</ele>
        <time>2023-01-26T16:06:50Z</time>
      </trkpt>
      <trkpt lat="44.28256" lon="1.63206">
        <ele>295.5</ele>
        <time>2023-01-26T16:06:52Z</time>
      </trkpt>
      <trkpt lat="44.28256" lon="1.63208">
        <ele>295.5</ele>
        <time>2023-01-26T16:06:53Z</time>
      </trkpt>
      <trkpt lat="44.28255" lon="1.63209">
        <ele>295.5</ele>
        <time>2023-01-26T16:06:54Z</time>
      </trkpt>
      <trkpt lat="44.28254" lon="1.63214">
        <ele>295.5</ele>
        <time>2023-01-26T16:06:55Z</time>
      </trkpt>
      <trkpt lat="44.28254" lon="1.63215">
        <ele>295.5</ele>
        <time>2023-01-26T16:06:56Z</time>
      </trkpt>
      <trkpt lat="44.28254" lon="1.6322">
        <ele>295.9</ele>
        <time>2023-01-26T16:06:57Z</time>
      </trkpt>
      <trkpt lat="44.28254" lon="1.63221">
        <ele>295.9</ele>
        <time>2023-01-26T16:06:58Z</time>
      </trkpt>
      <trkpt lat="44.28254" lon="1.63223">
        <ele>295.9</ele>
        <time>2023-01-26T16:06:59Z</time>
      </trkpt>
      <trkpt lat="44.28254" lon="1.63223">
        <ele>295.9</ele>
        <time>2023-01-26T16:07:01Z</time>
      </trkpt>
      <trkpt lat="44.28254" lon="1.63223">
        <ele>295.9</ele>
        <time>2023-01-26T16:07:02Z</time>
      </trkpt>
      <trkpt lat="44.28254" lon="1.63223">
        <ele>295.9</ele>
        <time>2023-01-26T16:07:04Z</time>
      </trkpt>
      <trkpt lat="44.28254" lon="1.63223">
        <ele>295.9</ele>
        <time>2023-01-26T16:07:06Z</time>
      </trkpt>
      <trkpt lat="44.28254" lon="1.63223">
        <ele>295.9</ele>
        <time>2023-01-26T16:07:07Z</time>
      </trkpt>
      <trkpt lat="44.28254" lon="1.63224">
        <ele>295.9</ele>
        <time>2023-01-26T16:07:08Z</time>
      </trkpt>
      <trkpt lat="44.28255" lon="1.63225">
        <ele>295.9</ele>
        <time>2023-01-26T16:07:09Z</time>
      </trkpt>
      <trkpt lat="44.28255" lon="1.63225">
        <ele>295.9</ele>
        <time>2023-01-26T16:07:11Z</time>
      </trkpt>
      <trkpt lat="44.28255" lon="1.63225">
        <ele>295.9</ele>
        <time>2023-01-26T16:07:12Z</time>
      </trkpt>
      <trkpt lat="44.28257" lon="1.63226">
        <ele>295.9</ele>
        <time>2023-01-26T16:07:13Z</time>
      </trkpt>
      <trkpt lat="44.28253" lon="1.63226">
        <ele>295.9</ele>
        <time>2023-01-26T16:07:14Z</time>
      </trkpt>
      <trkpt lat="44.28252" lon="1.63225">
        <ele>295.9</ele>
        <time>2023-01-26T16:07:15Z</time>
      </trkpt>
      <trkpt lat="44.28251" lon="1.63222">
        <ele>295.9</ele>
        <time>2023-01-26T16:07:16Z</time>
      </trkpt>
      <trkpt lat="44.28251" lon="1.63221">
        <ele>295.9</ele>
        <time>2023-01-26T16:07:17Z</time>
      </trkpt>
      <trkpt lat="44.28251" lon="1.6322">
        <ele>295.9</ele>
        <time>2023-01-26T16:07:18Z</time>
      </trkpt>
      <trkpt lat="44.2825" lon="1.63219">
        <ele>295.9</ele>
        <time>2023-01-26T16:07:19Z</time>
      </trkpt>
      <trkpt lat="44.2825" lon="1.63218">
        <ele>295.9</ele>
        <time>2023-01-26T16:07:20Z</time>
      </trkpt>
      <trkpt lat="44.2825" lon="1.63218">
        <ele>295.9</ele>
        <time>2023-01-26T16:07:21Z</time>
      </trkpt>
      <trkpt lat="44.2825" lon="1.63219">
        <ele>295.9</ele>
        <time>2023-01-26T16:07:22Z</time>
      </trkpt>
      <trkpt lat="44.2825" lon="1.63219">
        <ele>295.9</ele>
        <time>2023-01-26T16:07:23Z</time>
      </trkpt>
      <trkpt lat="44.2825" lon="1.6322">
        <ele>295.9</ele>
        <time>2023-01-26T16:07:24Z</time>
      </trkpt>
      <trkpt lat="44.28249" lon="1.6322">
        <ele>295.9</ele>
        <time>2023-01-26T16:07:25Z</time>
      </trkpt>
      <trkpt lat="44.28249" lon="1.6322">
        <ele>295.9</ele>
        <time>2023-01-26T16:07:26Z</time>
      </trkpt>
      <trkpt lat="44.28249" lon="1.6322">
        <ele>295.9</ele>
        <time>2023-01-26T16:07:27Z</time>
      </trkpt>
      <trkpt lat="44.28249" lon="1.6322">
        <ele>295.9</ele>
        <time>2023-01-26T16:07:28Z</time>
      </trkpt>
      <trkpt lat="44.28249" lon="1.6322">
        <ele>295.9</ele>
        <time>2023-01-26T16:07:29Z</time>
      </trkpt>
      <trkpt lat="44.28249" lon="1.6322">
        <ele>295.9</ele>
        <time>2023-01-26T16:07:30Z</time>
      </trkpt>
      <trkpt lat="44.28249" lon="1.63221">
        <ele>295.9</ele>
        <time>2023-01-26T16:07:31Z</time>
      </trkpt>
      <trkpt lat="44.28254" lon="1.63219">
        <ele>295.9</ele>
        <time>2023-01-26T16:09:09Z</time>
      </trkpt>
      <trkpt lat="44.28255" lon="1.63218">
        <ele>295.9</ele>
        <time>2023-01-26T16:09:10Z</time>
      </trkpt>
      <trkpt lat="44.28256" lon="1.63216">
        <ele>295.9</ele>
        <time>2023-01-26T16:09:11Z</time>
      </trkpt>
      <trkpt lat="44.28256" lon="1.63216">
        <ele>295.9</ele>
        <time>2023-01-26T16:09:12Z</time>
      </trkpt>
      <trkpt lat="44.28255" lon="1.63218">
        <ele>295.9</ele>
        <time>2023-01-26T16:09:13Z</time>
      </trkpt>
      <trkpt lat="44.28255" lon="1.63219">
        <ele>295.9</ele>
        <time>2023-01-26T16:09:14Z</time>
      </trkpt>
      <trkpt lat="44.28255" lon="1.63218">
        <ele>295.9</ele>
        <time>2023-01-26T16:09:15Z</time>
      </trkpt>
      <trkpt lat="44.28256" lon="1.63218">
        <ele>295.9</ele>
        <time>2023-01-26T16:09:17Z</time>
      </trkpt>
      <trkpt lat="44.28257" lon="1.63218">
        <ele>295.9</ele>
        <time>2023-01-26T16:09:18Z</time>
      </trkpt>
      <trkpt lat="44.28257" lon="1.63219">
        <ele>296.9</ele>
        <time>2023-01-26T16:09:19Z</time>
      </trkpt>
      <trkpt lat="44.28257" lon="1.6322">
        <ele>296.9</ele>
        <time>2023-01-26T16:09:20Z</time>
      </trkpt>
      <trkpt lat="44.28257" lon="1.6322">
        <ele>296.9</ele>
        <time>2023-01-26T16:09:21Z</time>
        <extensions>
          <visugpx:TrkExtension xmlns:visugpx="https://www.visugpx.com/editgpx/">
            <visugpx:node>9</visugpx:node>
            </visugpx:TrkExtension>
        </extensions>
      </trkpt>
      <trkpt lat="44.28254" lon="1.6322">
        <ele>295.9</ele>
        <time>2023-01-26T11:58:03Z</time>
        <extensions>
          <visugpx:TrkExtension xmlns:visugpx="https://www.visugpx.com/editgpx/">
            <visugpx:node>10</visugpx:node>
            </visugpx:TrkExtension>
        </extensions>
      </trkpt>
      <trkpt lat="44.28256" lon="1.6322">
        <ele>295.9</ele>
        <time>2023-01-26T11:58:04Z</time>
      </trkpt>
      <trkpt lat="44.28256" lon="1.63224">
        <ele>295.9</ele>
        <time>2023-01-26T11:58:06Z</time>
      </trkpt>
      <trkpt lat="44.28254" lon="1.63224">
        <ele>295.9</ele>
        <time>2023-01-26T11:58:07Z</time>
      </trkpt>
      <trkpt lat="44.28253" lon="1.63225">
        <ele>295.9</ele>
        <time>2023-01-26T11:58:08Z</time>
      </trkpt>
      <trkpt lat="44.28253" lon="1.63224">
        <ele>295.9</ele>
        <time>2023-01-26T11:58:09Z</time>
      </trkpt>
      <trkpt lat="44.28254" lon="1.63224">
        <ele>295.9</ele>
        <time>2023-01-26T11:58:10Z</time>
      </trkpt>
      <trkpt lat="44.28254" lon="1.63224">
        <ele>295.9</ele>
        <time>2023-01-26T11:58:11Z</time>
      </trkpt>
      <trkpt lat="44.28255" lon="1.63225">
        <ele>295.9</ele>
        <time>2023-01-26T11:58:12Z</time>
      </trkpt>
      <trkpt lat="44.28255" lon="1.63225">
        <ele>295.9</ele>
        <time>2023-01-26T11:58:13Z</time>
      </trkpt>
      <trkpt lat="44.28255" lon="1.63226">
        <ele>295.9</ele>
        <time>2023-01-26T11:58:14Z</time>
      </trkpt>
      <trkpt lat="44.28256" lon="1.63226">
        <ele>295.9</ele>
        <time>2023-01-26T11:58:15Z</time>
      </trkpt>
      <trkpt lat="44.28257" lon="1.63226">
        <ele>296</ele>
        <time>2023-01-26T11:58:16Z</time>
      </trkpt>
      <trkpt lat="44.28257" lon="1.63226">
        <ele>296</ele>
        <time>2023-01-26T11:58:17Z</time>
      </trkpt>
      <trkpt lat="44.28258" lon="1.63225">
        <ele>296</ele>
        <time>2023-01-26T11:58:18Z</time>
      </trkpt>
      <trkpt lat="44.28258" lon="1.63225">
        <ele>296</ele>
        <time>2023-01-26T11:58:19Z</time>
      </trkpt>
      <trkpt lat="44.28258" lon="1.63225">
        <ele>296</ele>
        <time>2023-01-26T11:58:20Z</time>
      </trkpt>
      <trkpt lat="44.28258" lon="1.63225">
        <ele>296</ele>
        <time>2023-01-26T11:58:21Z</time>
      </trkpt>
      <trkpt lat="44.28258" lon="1.63225">
        <ele>296</ele>
        <time>2023-01-26T11:58:22Z</time>
      </trkpt>
      <trkpt lat="44.28258" lon="1.63225">
        <ele>296</ele>
        <time>2023-01-26T11:58:23Z</time>
      </trkpt>
      <trkpt lat="44.28258" lon="1.63225">
        <ele>296</ele>
        <time>2023-01-26T11:58:24Z</time>
      </trkpt>
      <trkpt lat="44.28258" lon="1.63225">
        <ele>296</ele>
        <time>2023-01-26T11:58:25Z</time>
      </trkpt>
      <trkpt lat="44.28258" lon="1.63225">
        <ele>296</ele>
        <time>2023-01-26T11:58:26Z</time>
      </trkpt>
      <trkpt lat="44.28258" lon="1.63225">
        <ele>296</ele>
        <time>2023-01-26T11:58:27Z</time>
      </trkpt>
      <trkpt lat="44.28258" lon="1.63224">
        <ele>296</ele>
        <time>2023-01-26T11:58:28Z</time>
      </trkpt>
      <trkpt lat="44.28258" lon="1.63225">
        <ele>296</ele>
        <time>2023-01-26T11:58:29Z</time>
      </trkpt>
      <trkpt lat="44.28258" lon="1.63225">
        <ele>296</ele>
        <time>2023-01-26T11:58:30Z</time>
      </trkpt>
      <trkpt lat="44.28257" lon="1.6322">
        <ele>296</ele>
        <time>2023-01-26T11:58:53Z</time>
      </trkpt>
      <trkpt lat="44.28257" lon="1.6322">
        <ele>296</ele>
        <time>2023-01-26T11:58:54Z</time>
      </trkpt>
      <trkpt lat="44.28256" lon="1.63219">
        <ele>296</ele>
        <time>2023-01-26T11:58:55Z</time>
      </trkpt>
      <trkpt lat="44.28256" lon="1.63219">
        <ele>296</ele>
        <time>2023-01-26T11:58:56Z</time>
      </trkpt>
      <trkpt lat="44.28256" lon="1.63219">
        <ele>296</ele>
        <time>2023-01-26T11:58:57Z</time>
      </trkpt>
      <trkpt lat="44.28256" lon="1.63218">
        <ele>296</ele>
        <time>2023-01-26T11:58:58Z</time>
      </trkpt>
      <trkpt lat="44.28256" lon="1.63218">
        <ele>296</ele>
        <time>2023-01-26T11:58:59Z</time>
      </trkpt>
      <trkpt lat="44.28256" lon="1.63217">
        <ele>296</ele>
        <time>2023-01-26T11:59:00Z</time>
      </trkpt>
      <trkpt lat="44.28256" lon="1.63218">
        <ele>296</ele>
        <time>2023-01-26T11:59:01Z</time>
      </trkpt>
      <trkpt lat="44.28256" lon="1.63217">
        <ele>296</ele>
        <time>2023-01-26T11:59:02Z</time>
      </trkpt>
      <trkpt lat="44.28256" lon="1.63217">
        <ele>296</ele>
        <time>2023-01-26T11:59:03Z</time>
      </trkpt>
      <trkpt lat="44.28256" lon="1.63217">
        <ele>296</ele>
        <time>2023-01-26T11:59:04Z</time>
      </trkpt>
      <trkpt lat="44.28256" lon="1.63217">
        <ele>296</ele>
        <time>2023-01-26T11:59:21Z</time>
      </trkpt>
      <trkpt lat="44.28256" lon="1.63217">
        <ele>296</ele>
        <time>2023-01-26T11:59:22Z</time>
      </trkpt>
      <trkpt lat="44.28256" lon="1.63217">
        <ele>296</ele>
        <time>2023-01-26T11:59:23Z</time>
      </trkpt>
      <trkpt lat="44.28256" lon="1.63218">
        <ele>296</ele>
        <time>2023-01-26T11:59:24Z</time>
      </trkpt>
      <trkpt lat="44.28256" lon="1.63218">
        <ele>296</ele>
        <time>2023-01-26T11:59:25Z</time>
      </trkpt>
      <trkpt lat="44.28256" lon="1.63218">
        <ele>296</ele>
        <time>2023-01-26T11:59:26Z</time>
      </trkpt>
      <trkpt lat="44.28256" lon="1.63218">
        <ele>296</ele>
        <time>2023-01-26T11:59:27Z</time>
      </trkpt>
      <trkpt lat="44.28256" lon="1.63218">
        <ele>296</ele>
        <time>2023-01-26T11:59:28Z</time>
      </trkpt>
      <trkpt lat="44.28257" lon="1.63219">
        <ele>296</ele>
        <time>2023-01-26T11:59:29Z</time>
      </trkpt>
      <trkpt lat="44.28258" lon="1.63219">
        <ele>296</ele>
        <time>2023-01-26T11:59:30Z</time>
      </trkpt>
      <trkpt lat="44.28259" lon="1.6322">
        <ele>296</ele>
        <time>2023-01-26T11:59:31Z</time>
      </trkpt>
      <trkpt lat="44.28259" lon="1.63221">
        <ele>296</ele>
        <time>2023-01-26T11:59:32Z</time>
      </trkpt>
      <trkpt lat="44.2826" lon="1.63221">
        <ele>296</ele>
        <time>2023-01-26T11:59:33Z</time>
      </trkpt>
      <trkpt lat="44.2826" lon="1.63222">
        <ele>296</ele>
        <time>2023-01-26T11:59:34Z</time>
      </trkpt>
      <trkpt lat="44.2826" lon="1.63222">
        <ele>296</ele>
        <time>2023-01-26T11:59:35Z</time>
      </trkpt>
      <trkpt lat="44.28261" lon="1.63222">
        <ele>296</ele>
        <time>2023-01-26T11:59:36Z</time>
      </trkpt>
      <trkpt lat="44.28261" lon="1.63222">
        <ele>296</ele>
        <time>2023-01-26T11:59:37Z</time>
      </trkpt>
      <trkpt lat="44.28261" lon="1.63222">
        <ele>296</ele>
        <time>2023-01-26T11:59:38Z</time>
      </trkpt>
      <trkpt lat="44.28261" lon="1.63222">
        <ele>296</ele>
        <time>2023-01-26T11:59:39Z</time>
      </trkpt>
      <trkpt lat="44.28261" lon="1.63222">
        <ele>296</ele>
        <time>2023-01-26T11:59:40Z</time>
      </trkpt>
      <trkpt lat="44.28261" lon="1.63222">
        <ele>296</ele>
        <time>2023-01-26T11:59:41Z</time>
      </trkpt>
      <trkpt lat="44.28261" lon="1.63222">
        <ele>296</ele>
        <time>2023-01-26T11:59:42Z</time>
      </trkpt>
      <trkpt lat="44.28261" lon="1.63222">
        <ele>296</ele>
        <time>2023-01-26T11:59:43Z</time>
      </trkpt>
      <trkpt lat="44.28258" lon="1.63221">
        <ele>296</ele>
        <time>2023-01-26T11:59:59Z</time>
      </trkpt>
      <trkpt lat="44.28257" lon="1.63221">
        <ele>296</ele>
        <time>2023-01-26T12:00:00Z</time>
      </trkpt>
      <trkpt lat="44.28257" lon="1.6322">
        <ele>296</ele>
        <time>2023-01-26T12:00:01Z</time>
      </trkpt>
      <trkpt lat="44.28256" lon="1.6322">
        <ele>296</ele>
        <time>2023-01-26T12:00:02Z</time>
      </trkpt>
      <trkpt lat="44.28256" lon="1.63219">
        <ele>296</ele>
        <time>2023-01-26T12:00:03Z</time>
      </trkpt>
      <trkpt lat="44.28256" lon="1.63219">
        <ele>296</ele>
        <time>2023-01-26T12:00:04Z</time>
      </trkpt>
      <trkpt lat="44.28256" lon="1.63219">
        <ele>296</ele>
        <time>2023-01-26T12:00:05Z</time>
      </trkpt>
      <trkpt lat="44.28256" lon="1.63219">
        <ele>296</ele>
        <time>2023-01-26T12:00:06Z</time>
      </trkpt>
      <trkpt lat="44.28256" lon="1.63219">
        <ele>296</ele>
        <time>2023-01-26T12:00:07Z</time>
      </trkpt>
      <trkpt lat="44.28256" lon="1.63219">
        <ele>296</ele>
        <time>2023-01-26T12:00:08Z</time>
      </trkpt>
      <trkpt lat="44.28256" lon="1.63219">
        <ele>296</ele>
        <time>2023-01-26T12:00:09Z</time>
      </trkpt>
      <trkpt lat="44.28256" lon="1.63219">
        <ele>296</ele>
        <time>2023-01-26T12:00:10Z</time>
      </trkpt>
      <trkpt lat="44.28256" lon="1.63219">
        <ele>296</ele>
        <time>2023-01-26T12:00:11Z</time>
      </trkpt>
      <trkpt lat="44.28256" lon="1.63219">
        <ele>296</ele>
        <time>2023-01-26T12:00:27Z</time>
      </trkpt>
      <trkpt lat="44.28256" lon="1.63219">
        <ele>296</ele>
        <time>2023-01-26T12:00:28Z</time>
      </trkpt>
      <trkpt lat="44.28256" lon="1.6322">
        <ele>296</ele>
        <time>2023-01-26T12:00:29Z</time>
      </trkpt>
      <trkpt lat="44.28256" lon="1.6322">
        <ele>296</ele>
        <time>2023-01-26T12:00:30Z</time>
      </trkpt>
      <trkpt lat="44.28256" lon="1.6322">
        <ele>296</ele>
        <time>2023-01-26T12:00:31Z</time>
      </trkpt>
      <trkpt lat="44.28256" lon="1.6322">
        <ele>296</ele>
        <time>2023-01-26T12:00:32Z</time>
      </trkpt>
      <trkpt lat="44.28256" lon="1.63219">
        <ele>296</ele>
        <time>2023-01-26T12:00:33Z</time>
      </trkpt>
      <trkpt lat="44.28257" lon="1.63219">
        <ele>296</ele>
        <time>2023-01-26T12:00:34Z</time>
      </trkpt>
      <trkpt lat="44.28257" lon="1.63219">
        <ele>296</ele>
        <time>2023-01-26T12:00:35Z</time>
      </trkpt>
      <trkpt lat="44.28257" lon="1.63219">
        <ele>296</ele>
        <time>2023-01-26T12:00:36Z</time>
      </trkpt>
      <trkpt lat="44.28257" lon="1.63219">
        <ele>296</ele>
        <time>2023-01-26T12:00:37Z</time>
      </trkpt>
      <trkpt lat="44.28257" lon="1.63218">
        <ele>296</ele>
        <time>2023-01-26T12:00:38Z</time>
      </trkpt>
      <trkpt lat="44.28255" lon="1.63212">
        <ele>296</ele>
        <time>2023-01-26T12:01:52Z</time>
      </trkpt>
      <trkpt lat="44.28255" lon="1.63212">
        <ele>296</ele>
        <time>2023-01-26T12:01:53Z</time>
      </trkpt>
      <trkpt lat="44.28254" lon="1.63212">
        <ele>296</ele>
        <time>2023-01-26T12:01:54Z</time>
      </trkpt>
      <trkpt lat="44.28254" lon="1.63212">
        <ele>296</ele>
        <time>2023-01-26T12:01:55Z</time>
      </trkpt>
      <trkpt lat="44.28254" lon="1.63212">
        <ele>296</ele>
        <time>2023-01-26T12:01:56Z</time>
      </trkpt>
      <trkpt lat="44.28255" lon="1.63212">
        <ele>296</ele>
        <time>2023-01-26T12:01:57Z</time>
      </trkpt>
      <trkpt lat="44.28255" lon="1.63212">
        <ele>296</ele>
        <time>2023-01-26T12:01:58Z</time>
      </trkpt>
      <trkpt lat="44.28256" lon="1.63212">
        <ele>296</ele>
        <time>2023-01-26T12:02:00Z</time>
      </trkpt>
      <trkpt lat="44.28256" lon="1.63212">
        <ele>296</ele>
        <time>2023-01-26T12:02:01Z</time>
      </trkpt>
      <trkpt lat="44.28256" lon="1.63213">
        <ele>296</ele>
        <time>2023-01-26T12:02:02Z</time>
      </trkpt>
      <trkpt lat="44.28256" lon="1.63213">
        <ele>296</ele>
        <time>2023-01-26T12:02:03Z</time>
      </trkpt>
      <trkpt lat="44.28256" lon="1.63213">
        <ele>296</ele>
        <time>2023-01-26T12:02:05Z</time>
      </trkpt>
      <trkpt lat="44.28256" lon="1.63214">
        <ele>296</ele>
        <time>2023-01-26T12:02:06Z</time>
      </trkpt>
      <trkpt lat="44.28256" lon="1.63215">
        <ele>296</ele>
        <time>2023-01-26T12:02:07Z</time>
      </trkpt>
      <trkpt lat="44.28258" lon="1.63214">
        <ele>296</ele>
        <time>2023-01-26T12:02:35Z</time>
      </trkpt>
      <trkpt lat="44.28259" lon="1.63214">
        <ele>296</ele>
        <time>2023-01-26T12:02:37Z</time>
      </trkpt>
      <trkpt lat="44.2826" lon="1.63214">
        <ele>296</ele>
        <time>2023-01-26T12:02:38Z</time>
      </trkpt>
      <trkpt lat="44.2826" lon="1.63215">
        <ele>296</ele>
        <time>2023-01-26T12:02:39Z</time>
      </trkpt>
      <trkpt lat="44.2826" lon="1.63216">
        <ele>296</ele>
        <time>2023-01-26T12:02:41Z</time>
      </trkpt>
      <trkpt lat="44.2826" lon="1.63216">
        <ele>296</ele>
        <time>2023-01-26T12:02:43Z</time>
      </trkpt>
      <trkpt lat="44.2826" lon="1.63217">
        <ele>296</ele>
        <time>2023-01-26T12:02:44Z</time>
      </trkpt>
      <trkpt lat="44.2826" lon="1.63217">
        <ele>296</ele>
        <time>2023-01-26T12:02:45Z</time>
      </trkpt>
      <trkpt lat="44.2826" lon="1.63217">
        <ele>296</ele>
        <time>2023-01-26T12:02:46Z</time>
      </trkpt>
      <trkpt lat="44.28261" lon="1.63218">
        <ele>296</ele>
        <time>2023-01-26T12:02:47Z</time>
      </trkpt>
      <trkpt lat="44.28261" lon="1.63218">
        <ele>296</ele>
        <time>2023-01-26T12:02:49Z</time>
      </trkpt>
      <trkpt lat="44.28259" lon="1.63219">
        <ele>296</ele>
        <time>2023-01-26T12:03:10Z</time>
      </trkpt>
      <trkpt lat="44.28258" lon="1.63221">
        <ele>296</ele>
        <time>2023-01-26T12:03:11Z</time>
      </trkpt>
      <trkpt lat="44.28258" lon="1.63222">
        <ele>296</ele>
        <time>2023-01-26T12:03:12Z</time>
      </trkpt>
      <trkpt lat="44.28258" lon="1.63224">
        <ele>296</ele>
        <time>2023-01-26T12:03:13Z</time>
      </trkpt>
      <trkpt lat="44.28257" lon="1.63226">
        <ele>296</ele>
        <time>2023-01-26T12:03:14Z</time>
      </trkpt>
      <trkpt lat="44.28253" lon="1.63229">
        <ele>296</ele>
        <time>2023-01-26T12:03:16Z</time>
      </trkpt>
      <trkpt lat="44.28251" lon="1.63235">
        <ele>296</ele>
        <time>2023-01-26T12:03:17Z</time>
      </trkpt>
      <trkpt lat="44.2825" lon="1.63241">
        <ele>296</ele>
        <time>2023-01-26T12:03:18Z</time>
      </trkpt>
      <trkpt lat="44.28251" lon="1.63248">
        <ele>296</ele>
        <time>2023-01-26T12:03:20Z</time>
      </trkpt>
      <trkpt lat="44.28249" lon="1.63251">
        <ele>296</ele>
        <time>2023-01-26T12:03:21Z</time>
      </trkpt>
      <trkpt lat="44.28247" lon="1.63255">
        <ele>296</ele>
        <time>2023-01-26T12:03:23Z</time>
      </trkpt>
      <trkpt lat="44.28244" lon="1.63258">
        <ele>296</ele>
        <time>2023-01-26T12:03:24Z</time>
      </trkpt>
      <trkpt lat="44.28243" lon="1.6326">
        <ele>296</ele>
        <time>2023-01-26T12:03:25Z</time>
      </trkpt>
      <trkpt lat="44.28242" lon="1.63263">
        <ele>295.8</ele>
        <time>2023-01-26T12:03:26Z</time>
      </trkpt>
      <trkpt lat="44.28239" lon="1.63269">
        <ele>295.5</ele>
        <time>2023-01-26T12:03:28Z</time>
      </trkpt>
      <trkpt lat="44.28238" lon="1.63273">
        <ele>295.2</ele>
        <time>2023-01-26T12:03:29Z</time>
      </trkpt>
      <trkpt lat="44.28236" lon="1.6328">
        <ele>294.8</ele>
        <time>2023-01-26T12:03:31Z</time>
      </trkpt>
      <trkpt lat="44.28234" lon="1.63285">
        <ele>294.4</ele>
        <time>2023-01-26T12:03:32Z</time>
      </trkpt>
      <trkpt lat="44.28233" lon="1.63289">
        <ele>294.1</ele>
        <time>2023-01-26T12:03:33Z</time>
      </trkpt>
      <trkpt lat="44.2823" lon="1.63293">
        <ele>293.7</ele>
        <time>2023-01-26T12:03:34Z</time>
      </trkpt>
      <trkpt lat="44.28225" lon="1.63295">
        <ele>292.8</ele>
        <time>2023-01-26T12:03:36Z</time>
      </trkpt>
      <trkpt lat="44.28221" lon="1.63295">
        <ele>292.5</ele>
        <time>2023-01-26T12:03:37Z</time>
      </trkpt>
      <trkpt lat="44.28217" lon="1.63294">
        <ele>292.2</ele>
        <time>2023-01-26T12:03:38Z</time>
      </trkpt>
      <trkpt lat="44.28212" lon="1.63294">
        <ele>291.8</ele>
        <time>2023-01-26T12:03:39Z</time>
      </trkpt>
      <trkpt lat="44.28208" lon="1.63297">
        <ele>291.5</ele>
        <time>2023-01-26T12:03:40Z</time>
      </trkpt>
      <trkpt lat="44.28205" lon="1.63304">
        <ele>291</ele>
        <time>2023-01-26T12:03:41Z</time>
      </trkpt>
      <trkpt lat="44.28204" lon="1.63312">
        <ele>290.5</ele>
        <time>2023-01-26T12:03:42Z</time>
      </trkpt>
      <trkpt lat="44.28203" lon="1.63319">
        <ele>290.1</ele>
        <time>2023-01-26T12:03:43Z</time>
      </trkpt>
      <trkpt lat="44.28201" lon="1.63326">
        <ele>289.7</ele>
        <time>2023-01-26T12:03:44Z</time>
      </trkpt>
      <trkpt lat="44.28199" lon="1.63333">
        <ele>289.2</ele>
        <time>2023-01-26T12:03:45Z</time>
      </trkpt>
      <trkpt lat="44.28196" lon="1.63339">
        <ele>288.7</ele>
        <time>2023-01-26T12:03:46Z</time>
      </trkpt>
      <trkpt lat="44.28193" lon="1.63345">
        <ele>288.2</ele>
        <time>2023-01-26T12:03:47Z</time>
      </trkpt>
      <trkpt lat="44.28191" lon="1.63352">
        <ele>287.1</ele>
        <time>2023-01-26T12:03:48Z</time>
      </trkpt>
      <trkpt lat="44.2819" lon="1.6336">
        <ele>285.9</ele>
        <time>2023-01-26T12:03:49Z</time>
      </trkpt>
      <trkpt lat="44.28189" lon="1.63368">
        <ele>284.7</ele>
        <time>2023-01-26T12:03:50Z</time>
      </trkpt>
      <trkpt lat="44.28189" lon="1.63376">
        <ele>283.5</ele>
        <time>2023-01-26T12:03:51Z</time>
      </trkpt>
      <trkpt lat="44.28191" lon="1.63384">
        <ele>282.2</ele>
        <time>2023-01-26T12:03:52Z</time>
      </trkpt>
      <trkpt lat="44.28193" lon="1.63392">
        <ele>281</ele>
        <time>2023-01-26T12:03:53Z</time>
      </trkpt>
      <trkpt lat="44.28195" lon="1.63401">
        <ele>281</ele>
        <time>2023-01-26T12:03:54Z</time>
      </trkpt>
      <trkpt lat="44.28198" lon="1.63409">
        <ele>281.1</ele>
        <time>2023-01-26T12:03:55Z</time>
      </trkpt>
      <trkpt lat="44.28201" lon="1.63415">
        <ele>281.2</ele>
        <time>2023-01-26T12:03:56Z</time>
      </trkpt>
      <trkpt lat="44.28204" lon="1.63421">
        <ele>281.3</ele>
        <time>2023-01-26T12:03:57Z</time>
      </trkpt>
      <trkpt lat="44.28207" lon="1.63426">
        <ele>281.5</ele>
        <time>2023-01-26T12:03:58Z</time>
      </trkpt>
      <trkpt lat="44.2821" lon="1.63431">
        <ele>281.7</ele>
        <time>2023-01-26T12:03:59Z</time>
      </trkpt>
      <trkpt lat="44.28212" lon="1.63436">
        <ele>281.9</ele>
        <time>2023-01-26T12:04:00Z</time>
      </trkpt>
      <trkpt lat="44.28214" lon="1.63439">
        <ele>282.1</ele>
        <time>2023-01-26T12:04:01Z</time>
      </trkpt>
      <trkpt lat="44.28215" lon="1.63443">
        <ele>282.3</ele>
        <time>2023-01-26T12:04:02Z</time>
      </trkpt>
      <trkpt lat="44.28217" lon="1.63449">
        <ele>282.4</ele>
        <time>2023-01-26T12:04:03Z</time>
      </trkpt>
      <trkpt lat="44.28217" lon="1.63451">
        <ele>282.5</ele>
        <time>2023-01-26T12:04:04Z</time>
      </trkpt>
      <trkpt lat="44.28218" lon="1.63456">
        <ele>282.7</ele>
        <time>2023-01-26T12:04:05Z</time>
      </trkpt>
      <trkpt lat="44.28216" lon="1.63461">
        <ele>282.2</ele>
        <time>2023-01-26T12:04:06Z</time>
      </trkpt>
      <trkpt lat="44.28214" lon="1.63462">
        <ele>282</ele>
        <time>2023-01-26T12:04:07Z</time>
      </trkpt>
      <trkpt lat="44.2821" lon="1.63464">
        <ele>281.5</ele>
        <time>2023-01-26T12:04:08Z</time>
      </trkpt>
      <trkpt lat="44.28205" lon="1.63467">
        <ele>280.7</ele>
        <time>2023-01-26T12:04:09Z</time>
      </trkpt>
      <trkpt lat="44.28199" lon="1.63468">
        <ele>280</ele>
        <time>2023-01-26T12:04:10Z</time>
      </trkpt>
      <trkpt lat="44.28194" lon="1.6347">
        <ele>279.3</ele>
        <time>2023-01-26T12:04:11Z</time>
      </trkpt>
      <trkpt lat="44.28189" lon="1.63476">
        <ele>278.5</ele>
        <time>2023-01-26T12:04:12Z</time>
      </trkpt>
      <trkpt lat="44.28185" lon="1.63481">
        <ele>277.9</ele>
        <time>2023-01-26T12:04:13Z</time>
      </trkpt>
      <trkpt lat="44.28181" lon="1.63486">
        <ele>277.4</ele>
        <time>2023-01-26T12:04:14Z</time>
      </trkpt>
      <trkpt lat="44.28178" lon="1.63488">
        <ele>276.9</ele>
        <time>2023-01-26T12:04:15Z</time>
      </trkpt>
      <trkpt lat="44.28175" lon="1.63489">
        <ele>276.6</ele>
        <time>2023-01-26T12:04:16Z</time>
      </trkpt>
      <trkpt lat="44.28174" lon="1.63494">
        <ele>275</ele>
        <time>2023-01-26T12:04:17Z</time>
      </trkpt>
      <trkpt lat="44.28173" lon="1.63496">
        <ele>275.1</ele>
        <time>2023-01-26T12:04:18Z</time>
      </trkpt>
      <trkpt lat="44.28176" lon="1.63503">
        <ele>275.1</ele>
        <time>2023-01-26T12:04:19Z</time>
      </trkpt>
      <trkpt lat="44.28178" lon="1.63509">
        <ele>275.3</ele>
        <time>2023-01-26T12:04:20Z</time>
      </trkpt>
      <trkpt lat="44.2818" lon="1.63515">
        <ele>275.4</ele>
        <time>2023-01-26T12:04:21Z</time>
      </trkpt>
      <trkpt lat="44.28183" lon="1.63521">
        <ele>275.6</ele>
        <time>2023-01-26T12:04:22Z</time>
      </trkpt>
      <trkpt lat="44.28186" lon="1.63528">
        <ele>275.7</ele>
        <time>2023-01-26T12:04:23Z</time>
      </trkpt>
      <trkpt lat="44.28189" lon="1.63535">
        <ele>275.9</ele>
        <time>2023-01-26T12:04:24Z</time>
      </trkpt>
      <trkpt lat="44.2819" lon="1.63543">
        <ele>276</ele>
        <time>2023-01-26T12:04:25Z</time>
      </trkpt>
      <trkpt lat="44.28192" lon="1.63551">
        <ele>276.1</ele>
        <time>2023-01-26T12:04:26Z</time>
      </trkpt>
      <trkpt lat="44.28192" lon="1.63559">
        <ele>276.2</ele>
        <time>2023-01-26T12:04:27Z</time>
      </trkpt>
      <trkpt lat="44.28192" lon="1.63567">
        <ele>276.2</ele>
        <time>2023-01-26T12:04:28Z</time>
      </trkpt>
      <trkpt lat="44.28191" lon="1.63575">
        <ele>276.2</ele>
        <time>2023-01-26T12:04:29Z</time>
      </trkpt>
      <trkpt lat="44.28187" lon="1.63583">
        <ele>276</ele>
        <time>2023-01-26T12:04:30Z</time>
      </trkpt>
      <trkpt lat="44.28183" lon="1.6359">
        <ele>275.3</ele>
        <time>2023-01-26T12:04:31Z</time>
      </trkpt>
      <trkpt lat="44.2818" lon="1.63593">
        <ele>274.9</ele>
        <time>2023-01-26T12:04:32Z</time>
      </trkpt>
      <trkpt lat="44.28177" lon="1.63596">
        <ele>274.5</ele>
        <time>2023-01-26T12:04:33Z</time>
      </trkpt>
      <trkpt lat="44.28174" lon="1.63604">
        <ele>273.8</ele>
        <time>2023-01-26T12:04:34Z</time>
      </trkpt>
      <trkpt lat="44.28171" lon="1.63612">
        <ele>273.3</ele>
        <time>2023-01-26T12:04:35Z</time>
      </trkpt>
      <trkpt lat="44.28169" lon="1.6362">
        <ele>272.8</ele>
        <time>2023-01-26T12:04:36Z</time>
      </trkpt>
      <trkpt lat="44.28168" lon="1.63628">
        <ele>272.5</ele>
        <time>2023-01-26T12:04:37Z</time>
      </trkpt>
      <trkpt lat="44.28166" lon="1.63636">
        <ele>272.2</ele>
        <time>2023-01-26T12:04:38Z</time>
      </trkpt>
      <trkpt lat="44.28164" lon="1.63645">
        <ele>271.9</ele>
        <time>2023-01-26T12:04:39Z</time>
      </trkpt>
      <trkpt lat="44.28163" lon="1.63654">
        <ele>271.6</ele>
        <time>2023-01-26T12:04:40Z</time>
      </trkpt>
      <trkpt lat="44.28161" lon="1.63664">
        <ele>271.2</ele>
        <time>2023-01-26T12:04:41Z</time>
      </trkpt>
      <trkpt lat="44.2816" lon="1.63673">
        <ele>270.8</ele>
        <time>2023-01-26T12:04:42Z</time>
      </trkpt>
      <trkpt lat="44.28158" lon="1.63681">
        <ele>270.5</ele>
        <time>2023-01-26T12:04:43Z</time>
      </trkpt>
      <trkpt lat="44.28155" lon="1.63689">
        <ele>270.1</ele>
        <time>2023-01-26T12:04:44Z</time>
      </trkpt>
      <trkpt lat="44.28153" lon="1.63697">
        <ele>269.7</ele>
        <time>2023-01-26T12:04:45Z</time>
      </trkpt>
      <trkpt lat="44.2815" lon="1.63705">
        <ele>269.3</ele>
        <time>2023-01-26T12:04:46Z</time>
      </trkpt>
      <trkpt lat="44.28147" lon="1.63712">
        <ele>269</ele>
        <time>2023-01-26T12:04:47Z</time>
      </trkpt>
      <trkpt lat="44.28143" lon="1.63719">
        <ele>268.7</ele>
        <time>2023-01-26T12:04:48Z</time>
      </trkpt>
      <trkpt lat="44.2814" lon="1.63727">
        <ele>268.3</ele>
        <time>2023-01-26T12:04:49Z</time>
      </trkpt>
      <trkpt lat="44.28136" lon="1.63735">
        <ele>268.1</ele>
        <time>2023-01-26T12:04:50Z</time>
      </trkpt>
      <trkpt lat="44.28133" lon="1.63743">
        <ele>267.9</ele>
        <time>2023-01-26T12:04:51Z</time>
      </trkpt>
      <trkpt lat="44.28128" lon="1.63751">
        <ele>267.7</ele>
        <time>2023-01-26T12:04:52Z</time>
      </trkpt>
      <trkpt lat="44.28124" lon="1.63759">
        <ele>267.5</ele>
        <time>2023-01-26T12:04:53Z</time>
      </trkpt>
      <trkpt lat="44.28121" lon="1.63767">
        <ele>267.5</ele>
        <time>2023-01-26T12:04:54Z</time>
      </trkpt>
      <trkpt lat="44.28119" lon="1.63776">
        <ele>267.5</ele>
        <time>2023-01-26T12:04:55Z</time>
      </trkpt>
      <trkpt lat="44.28117" lon="1.63784">
        <ele>267.5</ele>
        <time>2023-01-26T12:04:56Z</time>
      </trkpt>
      <trkpt lat="44.28116" lon="1.63792">
        <ele>267.6</ele>
        <time>2023-01-26T12:04:57Z</time>
      </trkpt>
      <trkpt lat="44.28116" lon="1.638">
        <ele>267.8</ele>
        <time>2023-01-26T12:04:58Z</time>
      </trkpt>
      <trkpt lat="44.28116" lon="1.63809">
        <ele>268</ele>
        <time>2023-01-26T12:04:59Z</time>
      </trkpt>
      <trkpt lat="44.28116" lon="1.63818">
        <ele>268.2</ele>
        <time>2023-01-26T12:05:00Z</time>
      </trkpt>
      <trkpt lat="44.28116" lon="1.63826">
        <ele>268.3</ele>
        <time>2023-01-26T12:05:01Z</time>
      </trkpt>
      <trkpt lat="44.28117" lon="1.63833">
        <ele>268.4</ele>
        <time>2023-01-26T12:05:02Z</time>
      </trkpt>
      <trkpt lat="44.28119" lon="1.6384">
        <ele>268.4</ele>
        <time>2023-01-26T12:05:03Z</time>
      </trkpt>
      <trkpt lat="44.28121" lon="1.63847">
        <ele>268.5</ele>
        <time>2023-01-26T12:05:04Z</time>
      </trkpt>
      <trkpt lat="44.28124" lon="1.63854">
        <ele>268.6</ele>
        <time>2023-01-26T12:05:05Z</time>
      </trkpt>
      <trkpt lat="44.28125" lon="1.6386">
        <ele>268.6</ele>
        <time>2023-01-26T12:05:06Z</time>
      </trkpt>
      <trkpt lat="44.28126" lon="1.63867">
        <ele>268.5</ele>
        <time>2023-01-26T12:05:07Z</time>
      </trkpt>
      <trkpt lat="44.28124" lon="1.63871">
        <ele>268.4</ele>
        <time>2023-01-26T12:05:08Z</time>
      </trkpt>
      <trkpt lat="44.2812" lon="1.63874">
        <ele>267.9</ele>
        <time>2023-01-26T12:05:09Z</time>
      </trkpt>
      <trkpt lat="44.28116" lon="1.63876">
        <ele>267.7</ele>
        <time>2023-01-26T12:05:10Z</time>
      </trkpt>
      <trkpt lat="44.28109" lon="1.63878">
        <ele>267.4</ele>
        <time>2023-01-26T12:05:11Z</time>
      </trkpt>
      <trkpt lat="44.28102" lon="1.63881">
        <ele>267.1</ele>
        <time>2023-01-26T12:05:12Z</time>
      </trkpt>
      <trkpt lat="44.28098" lon="1.63888">
        <ele>266.8</ele>
        <time>2023-01-26T12:05:13Z</time>
      </trkpt>
      <trkpt lat="44.28094" lon="1.63894">
        <ele>266.5</ele>
        <time>2023-01-26T12:05:14Z</time>
      </trkpt>
      <trkpt lat="44.28089" lon="1.63901">
        <ele>266.2</ele>
        <time>2023-01-26T12:05:15Z</time>
      </trkpt>
      <trkpt lat="44.28086" lon="1.63908">
        <ele>265.8</ele>
        <time>2023-01-26T12:05:16Z</time>
      </trkpt>
      <trkpt lat="44.28083" lon="1.63916">
        <ele>265.3</ele>
        <time>2023-01-26T12:05:17Z</time>
      </trkpt>
      <trkpt lat="44.2808" lon="1.63924">
        <ele>264.8</ele>
        <time>2023-01-26T12:05:18Z</time>
      </trkpt>
      <trkpt lat="44.28077" lon="1.63932">
        <ele>264.3</ele>
        <time>2023-01-26T12:05:19Z</time>
      </trkpt>
      <trkpt lat="44.28073" lon="1.63938">
        <ele>263.8</ele>
        <time>2023-01-26T12:05:20Z</time>
      </trkpt>
      <trkpt lat="44.28068" lon="1.63945">
        <ele>263.2</ele>
        <time>2023-01-26T12:05:21Z</time>
      </trkpt>
      <trkpt lat="44.28064" lon="1.63953">
        <ele>262.7</ele>
        <time>2023-01-26T12:05:22Z</time>
      </trkpt>
      <trkpt lat="44.28061" lon="1.6396">
        <ele>262.4</ele>
        <time>2023-01-26T12:05:23Z</time>
      </trkpt>
      <trkpt lat="44.28057" lon="1.63967">
        <ele>262</ele>
        <time>2023-01-26T12:05:24Z</time>
      </trkpt>
      <trkpt lat="44.28053" lon="1.63974">
        <ele>261.6</ele>
        <time>2023-01-26T12:05:25Z</time>
      </trkpt>
      <trkpt lat="44.2805" lon="1.63982">
        <ele>261.2</ele>
        <time>2023-01-26T12:05:26Z</time>
      </trkpt>
      <trkpt lat="44.28047" lon="1.6399">
        <ele>260.9</ele>
        <time>2023-01-26T12:05:27Z</time>
      </trkpt>
      <trkpt lat="44.28044" lon="1.63999">
        <ele>260.6</ele>
        <time>2023-01-26T12:05:28Z</time>
      </trkpt>
      <trkpt lat="44.28042" lon="1.64007">
        <ele>260.4</ele>
        <time>2023-01-26T12:05:29Z</time>
      </trkpt>
      <trkpt lat="44.2804" lon="1.64014">
        <ele>260.2</ele>
        <time>2023-01-26T12:05:30Z</time>
      </trkpt>
      <trkpt lat="44.28038" lon="1.64022">
        <ele>260</ele>
        <time>2023-01-26T12:05:31Z</time>
      </trkpt>
      <trkpt lat="44.28036" lon="1.64031">
        <ele>259.7</ele>
        <time>2023-01-26T12:05:32Z</time>
      </trkpt>
      <trkpt lat="44.28034" lon="1.64038">
        <ele>259.4</ele>
        <time>2023-01-26T12:05:33Z</time>
      </trkpt>
      <trkpt lat="44.28031" lon="1.64046">
        <ele>259.1</ele>
        <time>2023-01-26T12:05:34Z</time>
      </trkpt>
      <trkpt lat="44.28028" lon="1.64053">
        <ele>258.8</ele>
        <time>2023-01-26T12:05:35Z</time>
      </trkpt>
      <trkpt lat="44.28025" lon="1.6406">
        <ele>258.5</ele>
        <time>2023-01-26T12:05:36Z</time>
      </trkpt>
      <trkpt lat="44.28023" lon="1.64068">
        <ele>258.2</ele>
        <time>2023-01-26T12:05:37Z</time>
      </trkpt>
      <trkpt lat="44.2802" lon="1.64075">
        <ele>258</ele>
        <time>2023-01-26T12:05:38Z</time>
      </trkpt>
      <trkpt lat="44.28018" lon="1.64082">
        <ele>257.7</ele>
        <time>2023-01-26T12:05:39Z</time>
      </trkpt>
      <trkpt lat="44.28016" lon="1.64089">
        <ele>257.4</ele>
        <time>2023-01-26T12:05:40Z</time>
      </trkpt>
      <trkpt lat="44.28014" lon="1.64097">
        <ele>257.1</ele>
        <time>2023-01-26T12:05:41Z</time>
      </trkpt>
      <trkpt lat="44.28011" lon="1.64104">
        <ele>256.8</ele>
        <time>2023-01-26T12:05:42Z</time>
      </trkpt>
      <trkpt lat="44.28009" lon="1.64111">
        <ele>256.5</ele>
        <time>2023-01-26T12:05:43Z</time>
      </trkpt>
      <trkpt lat="44.28006" lon="1.64119">
        <ele>256.1</ele>
        <time>2023-01-26T12:05:44Z</time>
      </trkpt>
      <trkpt lat="44.28003" lon="1.64126">
        <ele>255.7</ele>
        <time>2023-01-26T12:05:45Z</time>
      </trkpt>
      <trkpt lat="44.28" lon="1.64133">
        <ele>255.3</ele>
        <time>2023-01-26T12:05:46Z</time>
      </trkpt>
      <trkpt lat="44.27997" lon="1.64139">
        <ele>254.9</ele>
        <time>2023-01-26T12:05:47Z</time>
      </trkpt>
      <trkpt lat="44.27994" lon="1.64147">
        <ele>254.5</ele>
        <time>2023-01-26T12:05:48Z</time>
      </trkpt>
      <trkpt lat="44.27992" lon="1.64154">
        <ele>254</ele>
        <time>2023-01-26T12:05:49Z</time>
      </trkpt>
      <trkpt lat="44.2799" lon="1.64162">
        <ele>253.6</ele>
        <time>2023-01-26T12:05:50Z</time>
      </trkpt>
      <trkpt lat="44.27987" lon="1.64169">
        <ele>253.2</ele>
        <time>2023-01-26T12:05:51Z</time>
      </trkpt>
      <trkpt lat="44.27984" lon="1.64177">
        <ele>252.7</ele>
        <time>2023-01-26T12:05:52Z</time>
      </trkpt>
      <trkpt lat="44.27982" lon="1.64184">
        <ele>252.3</ele>
        <time>2023-01-26T12:05:53Z</time>
      </trkpt>
      <trkpt lat="44.2798" lon="1.64192">
        <ele>251.9</ele>
        <time>2023-01-26T12:05:54Z</time>
      </trkpt>
      <trkpt lat="44.27979" lon="1.642">
        <ele>251.5</ele>
        <time>2023-01-26T12:05:55Z</time>
      </trkpt>
      <trkpt lat="44.27979" lon="1.6421">
        <ele>251.1</ele>
        <time>2023-01-26T12:05:56Z</time>
      </trkpt>
      <trkpt lat="44.27979" lon="1.64218">
        <ele>250.8</ele>
        <time>2023-01-26T12:05:57Z</time>
      </trkpt>
      <trkpt lat="44.27979" lon="1.64226">
        <ele>250.5</ele>
        <time>2023-01-26T12:05:58Z</time>
      </trkpt>
      <trkpt lat="44.27979" lon="1.64234">
        <ele>250.3</ele>
        <time>2023-01-26T12:05:59Z</time>
      </trkpt>
      <trkpt lat="44.27978" lon="1.64242">
        <ele>250</ele>
        <time>2023-01-26T12:06:00Z</time>
      </trkpt>
      <trkpt lat="44.27977" lon="1.64249">
        <ele>249.7</ele>
        <time>2023-01-26T12:06:01Z</time>
      </trkpt>
      <trkpt lat="44.27975" lon="1.64256">
        <ele>249.5</ele>
        <time>2023-01-26T12:06:02Z</time>
      </trkpt>
      <trkpt lat="44.27973" lon="1.64264">
        <ele>249.1</ele>
        <time>2023-01-26T12:06:03Z</time>
      </trkpt>
      <trkpt lat="44.2797" lon="1.64272">
        <ele>248.7</ele>
        <time>2023-01-26T12:06:04Z</time>
      </trkpt>
      <trkpt lat="44.27967" lon="1.6428">
        <ele>248.3</ele>
        <time>2023-01-26T12:06:05Z</time>
      </trkpt>
      <trkpt lat="44.27965" lon="1.64287">
        <ele>248</ele>
        <time>2023-01-26T12:06:06Z</time>
      </trkpt>
      <trkpt lat="44.27963" lon="1.64292">
        <ele>247.7</ele>
        <time>2023-01-26T12:06:07Z</time>
      </trkpt>
      <trkpt lat="44.27959" lon="1.64297">
        <ele>247.4</ele>
        <time>2023-01-26T12:06:08Z</time>
      </trkpt>
      <trkpt lat="44.27954" lon="1.64302">
        <ele>246.9</ele>
        <time>2023-01-26T12:06:09Z</time>
      </trkpt>
      <trkpt lat="44.2795" lon="1.64309">
        <ele>246.3</ele>
        <time>2023-01-26T12:06:10Z</time>
      </trkpt>
      <trkpt lat="44.27948" lon="1.64318">
        <ele>245.7</ele>
        <time>2023-01-26T12:06:11Z</time>
      </trkpt>
      <trkpt lat="44.27947" lon="1.64327">
        <ele>245.2</ele>
        <time>2023-01-26T12:06:12Z</time>
      </trkpt>
      <trkpt lat="44.27946" lon="1.64335">
        <ele>244.8</ele>
        <time>2023-01-26T12:06:13Z</time>
      </trkpt>
      <trkpt lat="44.27944" lon="1.64344">
        <ele>244.5</ele>
        <time>2023-01-26T12:06:14Z</time>
      </trkpt>
      <trkpt lat="44.27943" lon="1.64352">
        <ele>244.2</ele>
        <time>2023-01-26T12:06:15Z</time>
      </trkpt>
      <trkpt lat="44.27941" lon="1.6436">
        <ele>243.9</ele>
        <time>2023-01-26T12:06:16Z</time>
      </trkpt>
      <trkpt lat="44.27939" lon="1.64368">
        <ele>243.6</ele>
        <time>2023-01-26T12:06:17Z</time>
      </trkpt>
      <trkpt lat="44.27937" lon="1.64376">
        <ele>243.4</ele>
        <time>2023-01-26T12:06:18Z</time>
      </trkpt>
      <trkpt lat="44.27935" lon="1.64385">
        <ele>243.2</ele>
        <time>2023-01-26T12:06:19Z</time>
      </trkpt>
      <trkpt lat="44.27934" lon="1.64393">
        <ele>243</ele>
        <time>2023-01-26T12:06:20Z</time>
      </trkpt>
      <trkpt lat="44.27932" lon="1.64401">
        <ele>242.8</ele>
        <time>2023-01-26T12:06:21Z</time>
      </trkpt>
      <trkpt lat="44.2793" lon="1.64408">
        <ele>242.7</ele>
        <time>2023-01-26T12:06:22Z</time>
      </trkpt>
      <trkpt lat="44.27928" lon="1.64411">
        <ele>242.6</ele>
        <time>2023-01-26T12:06:23Z</time>
      </trkpt>
      <trkpt lat="44.27927" lon="1.64413">
        <ele>242.5</ele>
        <time>2023-01-26T12:06:24Z</time>
      </trkpt>
      <trkpt lat="44.27926" lon="1.64413">
        <ele>242.5</ele>
        <time>2023-01-26T12:06:25Z</time>
      </trkpt>
      <trkpt lat="44.27925" lon="1.64414">
        <ele>242.5</ele>
        <time>2023-01-26T12:06:26Z</time>
      </trkpt>
      <trkpt lat="44.27925" lon="1.64414">
        <ele>242.5</ele>
        <time>2023-01-26T12:06:27Z</time>
      </trkpt>
      <trkpt lat="44.27925" lon="1.64414">
        <ele>242.5</ele>
        <time>2023-01-26T12:06:28Z</time>
      </trkpt>
      <trkpt lat="44.27925" lon="1.64414">
        <ele>242.5</ele>
        <time>2023-01-26T12:06:29Z</time>
      </trkpt>
      <trkpt lat="44.27925" lon="1.64414">
        <ele>242.5</ele>
        <time>2023-01-26T12:06:30Z</time>
      </trkpt>
      <trkpt lat="44.27925" lon="1.64414">
        <ele>242.5</ele>
        <time>2023-01-26T12:06:31Z</time>
      </trkpt>
      <trkpt lat="44.27925" lon="1.64414">
        <ele>242.5</ele>
        <time>2023-01-26T12:06:32Z</time>
      </trkpt>
      <trkpt lat="44.27925" lon="1.64414">
        <ele>242.4</ele>
        <time>2023-01-26T12:06:33Z</time>
      </trkpt>
      <trkpt lat="44.27925" lon="1.64414">
        <ele>242.4</ele>
        <time>2023-01-26T12:06:34Z</time>
      </trkpt>
      <trkpt lat="44.27925" lon="1.64414">
        <ele>242.4</ele>
        <time>2023-01-26T12:06:35Z</time>
      </trkpt>
      <trkpt lat="44.27923" lon="1.64415">
        <ele>242.4</ele>
        <time>2023-01-26T12:08:18Z</time>
      </trkpt>
      <trkpt lat="44.27922" lon="1.64415">
        <ele>242.3</ele>
        <time>2023-01-26T12:08:19Z</time>
      </trkpt>
      <trkpt lat="44.2792" lon="1.64415">
        <ele>242.3</ele>
        <time>2023-01-26T12:08:20Z</time>
      </trkpt>
      <trkpt lat="44.27918" lon="1.64415">
        <ele>242.4</ele>
        <time>2023-01-26T12:08:21Z</time>
      </trkpt>
      <trkpt lat="44.27917" lon="1.64414">
        <ele>242.4</ele>
        <time>2023-01-26T12:08:22Z</time>
      </trkpt>
      <trkpt lat="44.27914" lon="1.64411">
        <ele>242.4</ele>
        <time>2023-01-26T12:08:23Z</time>
      </trkpt>
      <trkpt lat="44.27911" lon="1.64409">
        <ele>242.4</ele>
        <time>2023-01-26T12:08:24Z</time>
      </trkpt>
      <trkpt lat="44.27907" lon="1.64406">
        <ele>242.5</ele>
        <time>2023-01-26T12:08:25Z</time>
      </trkpt>
      <trkpt lat="44.27903" lon="1.64404">
        <ele>242.5</ele>
        <time>2023-01-26T12:08:26Z</time>
      </trkpt>
      <trkpt lat="44.27894" lon="1.644">
        <ele>242.6</ele>
        <time>2023-01-26T12:08:28Z</time>
      </trkpt>
      <trkpt lat="44.27887" lon="1.64398">
        <ele>242.6</ele>
        <time>2023-01-26T12:08:29Z</time>
      </trkpt>
      <trkpt lat="44.27882" lon="1.64397">
        <ele>242.7</ele>
        <time>2023-01-26T12:08:30Z</time>
      </trkpt>
      <trkpt lat="44.27877" lon="1.64394">
        <ele>242.7</ele>
        <time>2023-01-26T12:08:31Z</time>
      </trkpt>
      <trkpt lat="44.27868" lon="1.64392">
        <ele>242.8</ele>
        <time>2023-01-26T12:08:33Z</time>
      </trkpt>
      <trkpt lat="44.27859" lon="1.64389">
        <ele>242.9</ele>
        <time>2023-01-26T12:08:34Z</time>
      </trkpt>
      <trkpt lat="44.27851" lon="1.64387">
        <ele>242.9</ele>
        <time>2023-01-26T12:08:36Z</time>
      </trkpt>
      <trkpt lat="44.27845" lon="1.64385">
        <ele>243</ele>
        <time>2023-01-26T12:08:37Z</time>
      </trkpt>
      <trkpt lat="44.27838" lon="1.64383">
        <ele>243</ele>
        <time>2023-01-26T12:08:38Z</time>
      </trkpt>
      <trkpt lat="44.27833" lon="1.64382">
        <ele>243.1</ele>
        <time>2023-01-26T12:08:39Z</time>
      </trkpt>
      <trkpt lat="44.27828" lon="1.6438">
        <ele>243.1</ele>
        <time>2023-01-26T12:08:40Z</time>
      </trkpt>
      <trkpt lat="44.27823" lon="1.64378">
        <ele>243.2</ele>
        <time>2023-01-26T12:08:41Z</time>
      </trkpt>
      <trkpt lat="44.27817" lon="1.64376">
        <ele>243.2</ele>
        <time>2023-01-26T12:08:42Z</time>
      </trkpt>
      <trkpt lat="44.27812" lon="1.64374">
        <ele>243.3</ele>
        <time>2023-01-26T12:08:43Z</time>
      </trkpt>
      <trkpt lat="44.27807" lon="1.64373">
        <ele>243.3</ele>
        <time>2023-01-26T12:08:44Z</time>
      </trkpt>
      <trkpt lat="44.27804" lon="1.64371">
        <ele>243.3</ele>
        <time>2023-01-26T12:08:45Z</time>
      </trkpt>
      <trkpt lat="44.27795" lon="1.64368">
        <ele>243.4</ele>
        <time>2023-01-26T12:08:46Z</time>
      </trkpt>
      <trkpt lat="44.27788" lon="1.64366">
        <ele>243.4</ele>
        <time>2023-01-26T12:08:48Z</time>
      </trkpt>
      <trkpt lat="44.27783" lon="1.64364">
        <ele>243.5</ele>
        <time>2023-01-26T12:08:49Z</time>
      </trkpt>
      <trkpt lat="44.27779" lon="1.64363">
        <ele>243.5</ele>
        <time>2023-01-26T12:08:50Z</time>
      </trkpt>
      <trkpt lat="44.27775" lon="1.64361">
        <ele>243.6</ele>
        <time>2023-01-26T12:08:51Z</time>
      </trkpt>
      <trkpt lat="44.27769" lon="1.64359">
        <ele>243.6</ele>
        <time>2023-01-26T12:08:52Z</time>
      </trkpt>
      <trkpt lat="44.27764" lon="1.64358">
        <ele>243.6</ele>
        <time>2023-01-26T12:08:53Z</time>
      </trkpt>
      <trkpt lat="44.27759" lon="1.64356">
        <ele>243.7</ele>
        <time>2023-01-26T12:08:54Z</time>
      </trkpt>
      <trkpt lat="44.27754" lon="1.64354">
        <ele>243.7</ele>
        <time>2023-01-26T12:08:55Z</time>
      </trkpt>
      <trkpt lat="44.2775" lon="1.64353">
        <ele>243.8</ele>
        <time>2023-01-26T12:08:56Z</time>
      </trkpt>
      <trkpt lat="44.27747" lon="1.64354">
        <ele>243.8</ele>
        <time>2023-01-26T12:08:57Z</time>
      </trkpt>
      <trkpt lat="44.27741" lon="1.64353">
        <ele>243.8</ele>
        <time>2023-01-26T12:08:58Z</time>
      </trkpt>
      <trkpt lat="44.27732" lon="1.64348">
        <ele>243.9</ele>
        <time>2023-01-26T12:09:00Z</time>
      </trkpt>
      <trkpt lat="44.27727" lon="1.64345">
        <ele>244</ele>
        <time>2023-01-26T12:09:01Z</time>
      </trkpt>
      <trkpt lat="44.27722" lon="1.64343">
        <ele>244</ele>
        <time>2023-01-26T12:09:02Z</time>
      </trkpt>
      <trkpt lat="44.27718" lon="1.64341">
        <ele>244</ele>
        <time>2023-01-26T12:09:03Z</time>
      </trkpt>
      <trkpt lat="44.27713" lon="1.64339">
        <ele>244.1</ele>
        <time>2023-01-26T12:09:04Z</time>
      </trkpt>
      <trkpt lat="44.27709" lon="1.6434">
        <ele>244.1</ele>
        <time>2023-01-26T12:09:05Z</time>
      </trkpt>
      <trkpt lat="44.27703" lon="1.64336">
        <ele>244.2</ele>
        <time>2023-01-26T12:09:07Z</time>
      </trkpt>
      <trkpt lat="44.27699" lon="1.64334">
        <ele>244.2</ele>
        <time>2023-01-26T12:09:08Z</time>
      </trkpt>
      <trkpt lat="44.27693" lon="1.64332">
        <ele>244.2</ele>
        <time>2023-01-26T12:09:09Z</time>
      </trkpt>
      <trkpt lat="44.27688" lon="1.6433">
        <ele>244.3</ele>
        <time>2023-01-26T12:09:11Z</time>
      </trkpt>
      <trkpt lat="44.27684" lon="1.64328">
        <ele>244.3</ele>
        <time>2023-01-26T12:09:12Z</time>
      </trkpt>
      <trkpt lat="44.27679" lon="1.64326">
        <ele>244.4</ele>
        <time>2023-01-26T12:09:13Z</time>
      </trkpt>
      <trkpt lat="44.27675" lon="1.64325">
        <ele>244.4</ele>
        <time>2023-01-26T12:09:14Z</time>
      </trkpt>
      <trkpt lat="44.27667" lon="1.64322">
        <ele>244.5</ele>
        <time>2023-01-26T12:09:16Z</time>
      </trkpt>
      <trkpt lat="44.27661" lon="1.64322">
        <ele>244.5</ele>
        <time>2023-01-26T12:09:18Z</time>
      </trkpt>
      <trkpt lat="44.27657" lon="1.64322">
        <ele>244.5</ele>
        <time>2023-01-26T12:09:19Z</time>
      </trkpt>
      <trkpt lat="44.27652" lon="1.64321">
        <ele>244.6</ele>
        <time>2023-01-26T12:09:20Z</time>
      </trkpt>
      <trkpt lat="44.27648" lon="1.6432">
        <ele>244.6</ele>
        <time>2023-01-26T12:09:21Z</time>
      </trkpt>
      <trkpt lat="44.27643" lon="1.64319">
        <ele>244.7</ele>
        <time>2023-01-26T12:09:23Z</time>
      </trkpt>
      <trkpt lat="44.27639" lon="1.64318">
        <ele>244.7</ele>
        <time>2023-01-26T12:09:24Z</time>
      </trkpt>
      <trkpt lat="44.27635" lon="1.64315">
        <ele>244.7</ele>
        <time>2023-01-26T12:09:25Z</time>
      </trkpt>
      <trkpt lat="44.27631" lon="1.64313">
        <ele>244.8</ele>
        <time>2023-01-26T12:09:26Z</time>
      </trkpt>
      <trkpt lat="44.27623" lon="1.64309">
        <ele>244.8</ele>
        <time>2023-01-26T12:09:28Z</time>
      </trkpt>
      <trkpt lat="44.27619" lon="1.64307">
        <ele>244.9</ele>
        <time>2023-01-26T12:09:29Z</time>
      </trkpt>
      <trkpt lat="44.27612" lon="1.64304">
        <ele>244.9</ele>
        <time>2023-01-26T12:09:31Z</time>
      </trkpt>
      <trkpt lat="44.27607" lon="1.64301">
        <ele>245</ele>
        <time>2023-01-26T12:09:32Z</time>
      </trkpt>
      <trkpt lat="44.27603" lon="1.643">
        <ele>245</ele>
        <time>2023-01-26T12:09:33Z</time>
      </trkpt>
      <trkpt lat="44.27598" lon="1.64297">
        <ele>245</ele>
        <time>2023-01-26T12:09:34Z</time>
      </trkpt>
      <trkpt lat="44.27595" lon="1.64295">
        <ele>245.1</ele>
        <time>2023-01-26T12:09:35Z</time>
      </trkpt>
      <trkpt lat="44.27589" lon="1.64292">
        <ele>245.1</ele>
        <time>2023-01-26T12:09:36Z</time>
      </trkpt>
      <trkpt lat="44.27583" lon="1.64289">
        <ele>245.2</ele>
        <time>2023-01-26T12:09:38Z</time>
      </trkpt>
      <trkpt lat="44.27578" lon="1.64288">
        <ele>245.2</ele>
        <time>2023-01-26T12:09:39Z</time>
      </trkpt>
      <trkpt lat="44.27574" lon="1.64286">
        <ele>245.2</ele>
        <time>2023-01-26T12:09:40Z</time>
      </trkpt>
      <trkpt lat="44.2757" lon="1.64284">
        <ele>245.3</ele>
        <time>2023-01-26T12:09:41Z</time>
      </trkpt>
      <trkpt lat="44.27566" lon="1.64283">
        <ele>245.3</ele>
        <time>2023-01-26T12:09:42Z</time>
      </trkpt>
      <trkpt lat="44.27561" lon="1.6428">
        <ele>245.4</ele>
        <time>2023-01-26T12:09:43Z</time>
      </trkpt>
      <trkpt lat="44.27557" lon="1.64278">
        <ele>245.4</ele>
        <time>2023-01-26T12:09:44Z</time>
      </trkpt>
      <trkpt lat="44.27546" lon="1.64274">
        <ele>245.5</ele>
        <time>2023-01-26T12:09:46Z</time>
      </trkpt>
      <trkpt lat="44.2754" lon="1.64272">
        <ele>245.5</ele>
        <time>2023-01-26T12:09:48Z</time>
      </trkpt>
      <trkpt lat="44.27534" lon="1.6427">
        <ele>245.6</ele>
        <time>2023-01-26T12:09:49Z</time>
      </trkpt>
      <trkpt lat="44.2753" lon="1.64269">
        <ele>245.6</ele>
        <time>2023-01-26T12:09:50Z</time>
      </trkpt>
      <trkpt lat="44.27525" lon="1.64267">
        <ele>245.6</ele>
        <time>2023-01-26T12:09:51Z</time>
      </trkpt>
      <trkpt lat="44.27519" lon="1.64266">
        <ele>245.7</ele>
        <time>2023-01-26T12:09:53Z</time>
      </trkpt>
      <trkpt lat="44.27515" lon="1.64264">
        <ele>245.7</ele>
        <time>2023-01-26T12:09:54Z</time>
      </trkpt>
      <trkpt lat="44.2751" lon="1.64261">
        <ele>245.8</ele>
        <time>2023-01-26T12:09:55Z</time>
      </trkpt>
      <trkpt lat="44.27503" lon="1.64258">
        <ele>245.8</ele>
        <time>2023-01-26T12:09:57Z</time>
      </trkpt>
      <trkpt lat="44.27499" lon="1.64256">
        <ele>245.9</ele>
        <time>2023-01-26T12:09:58Z</time>
      </trkpt>
      <trkpt lat="44.27494" lon="1.64254">
        <ele>245.9</ele>
        <time>2023-01-26T12:09:59Z</time>
      </trkpt>
      <trkpt lat="44.27489" lon="1.64252">
        <ele>245.9</ele>
        <time>2023-01-26T12:10:00Z</time>
      </trkpt>
      <trkpt lat="44.27486" lon="1.6425">
        <ele>246</ele>
        <time>2023-01-26T12:10:01Z</time>
      </trkpt>
      <trkpt lat="44.27483" lon="1.64247">
        <ele>246</ele>
        <time>2023-01-26T12:10:03Z</time>
      </trkpt>
      <trkpt lat="44.27481" lon="1.64245">
        <ele>246</ele>
        <time>2023-01-26T12:10:04Z</time>
      </trkpt>
      <trkpt lat="44.27478" lon="1.64242">
        <ele>246</ele>
        <time>2023-01-26T12:10:05Z</time>
      </trkpt>
      <trkpt lat="44.27474" lon="1.64239">
        <ele>246.1</ele>
        <time>2023-01-26T12:10:07Z</time>
      </trkpt>
      <trkpt lat="44.27471" lon="1.6424">
        <ele>245.8</ele>
        <time>2023-01-26T12:10:08Z</time>
      </trkpt>
      <trkpt lat="44.27469" lon="1.64241">
        <ele>245.8</ele>
        <time>2023-01-26T12:10:09Z</time>
      </trkpt>
      <trkpt lat="44.27466" lon="1.64244">
        <ele>245.6</ele>
        <time>2023-01-26T12:10:10Z</time>
      </trkpt>
      <trkpt lat="44.27461" lon="1.64247">
        <ele>245.4</ele>
        <time>2023-01-26T12:10:12Z</time>
      </trkpt>
      <trkpt lat="44.27457" lon="1.64249">
        <ele>245.2</ele>
        <time>2023-01-26T12:10:13Z</time>
      </trkpt>
      <trkpt lat="44.27453" lon="1.64252">
        <ele>245</ele>
        <time>2023-01-26T12:10:14Z</time>
      </trkpt>
      <trkpt lat="44.2745" lon="1.64255">
        <ele>244.8</ele>
        <time>2023-01-26T12:10:15Z</time>
      </trkpt>
      <trkpt lat="44.27445" lon="1.64257">
        <ele>244.5</ele>
        <time>2023-01-26T12:10:16Z</time>
      </trkpt>
      <trkpt lat="44.2744" lon="1.6426">
        <ele>244.3</ele>
        <time>2023-01-26T12:10:17Z</time>
      </trkpt>
      <trkpt lat="44.27435" lon="1.64262">
        <ele>244.1</ele>
        <time>2023-01-26T12:10:18Z</time>
      </trkpt>
      <trkpt lat="44.27429" lon="1.64264">
        <ele>243.9</ele>
        <time>2023-01-26T12:10:19Z</time>
      </trkpt>
      <trkpt lat="44.27423" lon="1.64267">
        <ele>243.8</ele>
        <time>2023-01-26T12:10:20Z</time>
      </trkpt>
      <trkpt lat="44.27418" lon="1.6427">
        <ele>243.7</ele>
        <time>2023-01-26T12:10:21Z</time>
      </trkpt>
      <trkpt lat="44.27412" lon="1.64273">
        <ele>243.6</ele>
        <time>2023-01-26T12:10:22Z</time>
      </trkpt>
      <trkpt lat="44.27406" lon="1.64276">
        <ele>243.5</ele>
        <time>2023-01-26T12:10:23Z</time>
      </trkpt>
      <trkpt lat="44.274" lon="1.64279">
        <ele>243.4</ele>
        <time>2023-01-26T12:10:24Z</time>
      </trkpt>
      <trkpt lat="44.27394" lon="1.64282">
        <ele>243.4</ele>
        <time>2023-01-26T12:10:25Z</time>
      </trkpt>
      <trkpt lat="44.27388" lon="1.64285">
        <ele>243.3</ele>
        <time>2023-01-26T12:10:26Z</time>
      </trkpt>
      <trkpt lat="44.27382" lon="1.64289">
        <ele>243.3</ele>
        <time>2023-01-26T12:10:27Z</time>
      </trkpt>
      <trkpt lat="44.27376" lon="1.64292">
        <ele>243.3</ele>
        <time>2023-01-26T12:10:28Z</time>
      </trkpt>
      <trkpt lat="44.27371" lon="1.64295">
        <ele>243.4</ele>
        <time>2023-01-26T12:10:29Z</time>
      </trkpt>
      <trkpt lat="44.27365" lon="1.64298">
        <ele>243.4</ele>
        <time>2023-01-26T12:10:30Z</time>
      </trkpt>
      <trkpt lat="44.2736" lon="1.64301">
        <ele>243.5</ele>
        <time>2023-01-26T12:10:31Z</time>
      </trkpt>
      <trkpt lat="44.27355" lon="1.64304">
        <ele>243.5</ele>
        <time>2023-01-26T12:10:32Z</time>
      </trkpt>
      <trkpt lat="44.27349" lon="1.64307">
        <ele>243.5</ele>
        <time>2023-01-26T12:10:33Z</time>
      </trkpt>
      <trkpt lat="44.27344" lon="1.6431">
        <ele>243.5</ele>
        <time>2023-01-26T12:10:34Z</time>
      </trkpt>
      <trkpt lat="44.27338" lon="1.64312">
        <ele>243.5</ele>
        <time>2023-01-26T12:10:35Z</time>
      </trkpt>
      <trkpt lat="44.27333" lon="1.64315">
        <ele>243.4</ele>
        <time>2023-01-26T12:10:36Z</time>
      </trkpt>
      <trkpt lat="44.27328" lon="1.64318">
        <ele>243.4</ele>
        <time>2023-01-26T12:10:37Z</time>
      </trkpt>
      <trkpt lat="44.27322" lon="1.64321">
        <ele>243.2</ele>
        <time>2023-01-26T12:10:38Z</time>
      </trkpt>
      <trkpt lat="44.27317" lon="1.64325">
        <ele>243.1</ele>
        <time>2023-01-26T12:10:39Z</time>
      </trkpt>
      <trkpt lat="44.27312" lon="1.64328">
        <ele>243</ele>
        <time>2023-01-26T12:10:40Z</time>
      </trkpt>
      <trkpt lat="44.27307" lon="1.64332">
        <ele>242.9</ele>
        <time>2023-01-26T12:10:41Z</time>
      </trkpt>
      <trkpt lat="44.27302" lon="1.64335">
        <ele>242.8</ele>
        <time>2023-01-26T12:10:42Z</time>
      </trkpt>
      <trkpt lat="44.27298" lon="1.64338">
        <ele>242.7</ele>
        <time>2023-01-26T12:10:43Z</time>
      </trkpt>
      <trkpt lat="44.27293" lon="1.64341">
        <ele>242.7</ele>
        <time>2023-01-26T12:10:44Z</time>
      </trkpt>
      <trkpt lat="44.27287" lon="1.64342">
        <ele>242.7</ele>
        <time>2023-01-26T12:10:45Z</time>
      </trkpt>
      <trkpt lat="44.27283" lon="1.64341">
        <ele>242.7</ele>
        <time>2023-01-26T12:10:46Z</time>
      </trkpt>
      <trkpt lat="44.27278" lon="1.64339">
        <ele>242.7</ele>
        <time>2023-01-26T12:10:47Z</time>
      </trkpt>
      <trkpt lat="44.27273" lon="1.64336">
        <ele>242.3</ele>
        <time>2023-01-26T12:10:48Z</time>
      </trkpt>
      <trkpt lat="44.27268" lon="1.64334">
        <ele>242.3</ele>
        <time>2023-01-26T12:10:49Z</time>
      </trkpt>
      <trkpt lat="44.27263" lon="1.64331">
        <ele>241.9</ele>
        <time>2023-01-26T12:10:50Z</time>
      </trkpt>
      <trkpt lat="44.27258" lon="1.64329">
        <ele>241.5</ele>
        <time>2023-01-26T12:10:51Z</time>
      </trkpt>
      <trkpt lat="44.27253" lon="1.64326">
        <ele>241.5</ele>
        <time>2023-01-26T12:10:52Z</time>
      </trkpt>
      <trkpt lat="44.27248" lon="1.64323">
        <ele>241.1</ele>
        <time>2023-01-26T12:10:53Z</time>
      </trkpt>
      <trkpt lat="44.27242" lon="1.64319">
        <ele>241.1</ele>
        <time>2023-01-26T12:10:54Z</time>
      </trkpt>
      <trkpt lat="44.27236" lon="1.64316">
        <ele>240.9</ele>
        <time>2023-01-26T12:10:55Z</time>
      </trkpt>
      <trkpt lat="44.2723" lon="1.64313">
        <ele>240.5</ele>
        <time>2023-01-26T12:10:56Z</time>
      </trkpt>
      <trkpt lat="44.27224" lon="1.6431">
        <ele>240.4</ele>
        <time>2023-01-26T12:10:57Z</time>
      </trkpt>
      <trkpt lat="44.27219" lon="1.64307">
        <ele>240.4</ele>
        <time>2023-01-26T12:10:58Z</time>
      </trkpt>
      <trkpt lat="44.27213" lon="1.64305">
        <ele>240.4</ele>
        <time>2023-01-26T12:10:59Z</time>
      </trkpt>
      <trkpt lat="44.27207" lon="1.64302">
        <ele>240.3</ele>
        <time>2023-01-26T12:11:00Z</time>
      </trkpt>
      <trkpt lat="44.27201" lon="1.64299">
        <ele>240.3</ele>
        <time>2023-01-26T12:11:01Z</time>
      </trkpt>
      <trkpt lat="44.27196" lon="1.64297">
        <ele>240.2</ele>
        <time>2023-01-26T12:11:02Z</time>
      </trkpt>
      <trkpt lat="44.2719" lon="1.64296">
        <ele>239.7</ele>
        <time>2023-01-26T12:11:03Z</time>
      </trkpt>
      <trkpt lat="44.27185" lon="1.64294">
        <ele>239.6</ele>
        <time>2023-01-26T12:11:04Z</time>
      </trkpt>
      <trkpt lat="44.27182" lon="1.64292">
        <ele>239.6</ele>
        <time>2023-01-26T12:11:05Z</time>
      </trkpt>
      <trkpt lat="44.27178" lon="1.64289">
        <ele>239.6</ele>
        <time>2023-01-26T12:11:06Z</time>
      </trkpt>
      <trkpt lat="44.27173" lon="1.64287">
        <ele>239.5</ele>
        <time>2023-01-26T12:11:07Z</time>
      </trkpt>
      <trkpt lat="44.27168" lon="1.64285">
        <ele>239.5</ele>
        <time>2023-01-26T12:11:08Z</time>
      </trkpt>
      <trkpt lat="44.27163" lon="1.64283">
        <ele>239.4</ele>
        <time>2023-01-26T12:11:09Z</time>
      </trkpt>
      <trkpt lat="44.27157" lon="1.64281">
        <ele>239.4</ele>
        <time>2023-01-26T12:11:10Z</time>
      </trkpt>
      <trkpt lat="44.27152" lon="1.64278">
        <ele>238.8</ele>
        <time>2023-01-26T12:11:11Z</time>
      </trkpt>
      <trkpt lat="44.27146" lon="1.64276">
        <ele>238.7</ele>
        <time>2023-01-26T12:11:12Z</time>
      </trkpt>
      <trkpt lat="44.27141" lon="1.64273">
        <ele>238.7</ele>
        <time>2023-01-26T12:11:13Z</time>
      </trkpt>
      <trkpt lat="44.27135" lon="1.64271">
        <ele>238.6</ele>
        <time>2023-01-26T12:11:14Z</time>
      </trkpt>
      <trkpt lat="44.2713" lon="1.64268">
        <ele>238.6</ele>
        <time>2023-01-26T12:11:15Z</time>
      </trkpt>
      <trkpt lat="44.27124" lon="1.64266">
        <ele>238.4</ele>
        <time>2023-01-26T12:11:16Z</time>
      </trkpt>
      <trkpt lat="44.27119" lon="1.64263">
        <ele>238.4</ele>
        <time>2023-01-26T12:11:17Z</time>
      </trkpt>
      <trkpt lat="44.27113" lon="1.64261">
        <ele>237.9</ele>
        <time>2023-01-26T12:11:18Z</time>
      </trkpt>
      <trkpt lat="44.27108" lon="1.64258">
        <ele>237.9</ele>
        <time>2023-01-26T12:11:19Z</time>
      </trkpt>
      <trkpt lat="44.27103" lon="1.64256">
        <ele>237.9</ele>
        <time>2023-01-26T12:11:20Z</time>
      </trkpt>
      <trkpt lat="44.27098" lon="1.64252">
        <ele>237.7</ele>
        <time>2023-01-26T12:11:21Z</time>
      </trkpt>
      <trkpt lat="44.27094" lon="1.64249">
        <ele>237.7</ele>
        <time>2023-01-26T12:11:22Z</time>
      </trkpt>
      <trkpt lat="44.27089" lon="1.64245">
        <ele>237</ele>
        <time>2023-01-26T12:11:23Z</time>
      </trkpt>
      <trkpt lat="44.27085" lon="1.64241">
        <ele>237</ele>
        <time>2023-01-26T12:11:24Z</time>
      </trkpt>
      <trkpt lat="44.2708" lon="1.64237">
        <ele>237</ele>
        <time>2023-01-26T12:11:25Z</time>
      </trkpt>
      <trkpt lat="44.27077" lon="1.64233">
        <ele>236.8</ele>
        <time>2023-01-26T12:11:26Z</time>
      </trkpt>
      <trkpt lat="44.27073" lon="1.64228">
        <ele>236.4</ele>
        <time>2023-01-26T12:11:27Z</time>
      </trkpt>
      <trkpt lat="44.2707" lon="1.64226">
        <ele>236.4</ele>
        <time>2023-01-26T12:11:28Z</time>
      </trkpt>
      <trkpt lat="44.27067" lon="1.64222">
        <ele>236.4</ele>
        <time>2023-01-26T12:11:29Z</time>
      </trkpt>
      <trkpt lat="44.27063" lon="1.64219">
        <ele>236.3</ele>
        <time>2023-01-26T12:11:30Z</time>
      </trkpt>
      <trkpt lat="44.2706" lon="1.64218">
        <ele>236.3</ele>
        <time>2023-01-26T12:11:31Z</time>
      </trkpt>
      <trkpt lat="44.27057" lon="1.64216">
        <ele>236.3</ele>
        <time>2023-01-26T12:11:32Z</time>
      </trkpt>
      <trkpt lat="44.27056" lon="1.64214">
        <ele>236.3</ele>
        <time>2023-01-26T12:11:33Z</time>
      </trkpt>
      <trkpt lat="44.27053" lon="1.6421">
        <ele>236</ele>
        <time>2023-01-26T12:11:34Z</time>
      </trkpt>
      <trkpt lat="44.27052" lon="1.64208">
        <ele>236</ele>
        <time>2023-01-26T12:11:35Z</time>
      </trkpt>
      <trkpt lat="44.27047" lon="1.64203">
        <ele>236</ele>
        <time>2023-01-26T12:11:37Z</time>
      </trkpt>
      <trkpt lat="44.27044" lon="1.64199">
        <ele>236</ele>
        <time>2023-01-26T12:11:38Z</time>
      </trkpt>
      <trkpt lat="44.2704" lon="1.64192">
        <ele>235.7</ele>
        <time>2023-01-26T12:11:39Z</time>
      </trkpt>
      <trkpt lat="44.27039" lon="1.64189">
        <ele>235.7</ele>
        <time>2023-01-26T12:11:40Z</time>
      </trkpt>
      <trkpt lat="44.27034" lon="1.64182">
        <ele>235.7</ele>
        <time>2023-01-26T12:11:42Z</time>
      </trkpt>
      <trkpt lat="44.27031" lon="1.64177">
        <ele>235.7</ele>
        <time>2023-01-26T12:11:43Z</time>
      </trkpt>
      <trkpt lat="44.27029" lon="1.64173">
        <ele>235.5</ele>
        <time>2023-01-26T12:11:44Z</time>
      </trkpt>
      <trkpt lat="44.27027" lon="1.64169">
        <ele>235.6</ele>
        <time>2023-01-26T12:11:45Z</time>
      </trkpt>
      <trkpt lat="44.27025" lon="1.64165">
        <ele>235.6</ele>
        <time>2023-01-26T12:11:47Z</time>
      </trkpt>
      <trkpt lat="44.27024" lon="1.64159">
        <ele>235.2</ele>
        <time>2023-01-26T12:11:48Z</time>
      </trkpt>
      <trkpt lat="44.27023" lon="1.64156">
        <ele>235.2</ele>
        <time>2023-01-26T12:11:49Z</time>
      </trkpt>
      <trkpt lat="44.27021" lon="1.64148">
        <ele>235.2</ele>
        <time>2023-01-26T12:11:51Z</time>
      </trkpt>
      <trkpt lat="44.2702" lon="1.64143">
        <ele>235.2</ele>
        <time>2023-01-26T12:11:52Z</time>
      </trkpt>
      <trkpt lat="44.27019" lon="1.64141">
        <ele>234.8</ele>
        <time>2023-01-26T12:11:53Z</time>
      </trkpt>
      <trkpt lat="44.27018" lon="1.64138">
        <ele>234.8</ele>
        <time>2023-01-26T12:11:54Z</time>
      </trkpt>
      <trkpt lat="44.27015" lon="1.64136">
        <ele>234.9</ele>
        <time>2023-01-26T12:11:56Z</time>
      </trkpt>
      <trkpt lat="44.27014" lon="1.64136">
        <ele>234.9</ele>
        <time>2023-01-26T12:11:57Z</time>
      </trkpt>
      <trkpt lat="44.27012" lon="1.64134">
        <ele>234.9</ele>
        <time>2023-01-26T12:11:58Z</time>
      </trkpt>
      <trkpt lat="44.27011" lon="1.6413">
        <ele>234.9</ele>
        <time>2023-01-26T12:12:00Z</time>
      </trkpt>
      <trkpt lat="44.27009" lon="1.64126">
        <ele>234.9</ele>
        <time>2023-01-26T12:12:01Z</time>
      </trkpt>
      <trkpt lat="44.27008" lon="1.64123">
        <ele>234.5</ele>
        <time>2023-01-26T12:12:02Z</time>
      </trkpt>
      <trkpt lat="44.27006" lon="1.6412">
        <ele>234.5</ele>
        <time>2023-01-26T12:12:03Z</time>
      </trkpt>
      <trkpt lat="44.27004" lon="1.64117">
        <ele>234.5</ele>
        <time>2023-01-26T12:12:04Z</time>
      </trkpt>
      <trkpt lat="44.27002" lon="1.64112">
        <ele>234.6</ele>
        <time>2023-01-26T12:12:06Z</time>
      </trkpt>
      <trkpt lat="44.27" lon="1.64108">
        <ele>234.4</ele>
        <time>2023-01-26T12:12:07Z</time>
      </trkpt>
      <trkpt lat="44.26999" lon="1.64104">
        <ele>234.4</ele>
        <time>2023-01-26T12:12:08Z</time>
      </trkpt>
      <trkpt lat="44.26999" lon="1.641">
        <ele>234.4</ele>
        <time>2023-01-26T12:12:09Z</time>
      </trkpt>
      <trkpt lat="44.26997" lon="1.64094">
        <ele>234.4</ele>
        <time>2023-01-26T12:12:10Z</time>
      </trkpt>
      <trkpt lat="44.26996" lon="1.64089">
        <ele>234.4</ele>
        <time>2023-01-26T12:12:11Z</time>
      </trkpt>
      <trkpt lat="44.26995" lon="1.64084">
        <ele>234.4</ele>
        <time>2023-01-26T12:12:13Z</time>
      </trkpt>
      <trkpt lat="44.26994" lon="1.6408">
        <ele>234.4</ele>
        <time>2023-01-26T12:12:14Z</time>
      </trkpt>
      <trkpt lat="44.26993" lon="1.64076">
        <ele>234.4</ele>
        <time>2023-01-26T12:12:15Z</time>
      </trkpt>
      <trkpt lat="44.26992" lon="1.64072">
        <ele>234.5</ele>
        <time>2023-01-26T12:12:16Z</time>
      </trkpt>
      <trkpt lat="44.26991" lon="1.64068">
        <ele>234.5</ele>
        <time>2023-01-26T12:12:17Z</time>
      </trkpt>
      <trkpt lat="44.2699" lon="1.64064">
        <ele>234.5</ele>
        <time>2023-01-26T12:12:18Z</time>
      </trkpt>
      <trkpt lat="44.26989" lon="1.64059">
        <ele>234.5</ele>
        <time>2023-01-26T12:12:19Z</time>
      </trkpt>
      <trkpt lat="44.26988" lon="1.64055">
        <ele>234.7</ele>
        <time>2023-01-26T12:12:20Z</time>
      </trkpt>
      <trkpt lat="44.26988" lon="1.64051">
        <ele>234.7</ele>
        <time>2023-01-26T12:12:21Z</time>
      </trkpt>
      <trkpt lat="44.26986" lon="1.64045">
        <ele>234.7</ele>
        <time>2023-01-26T12:12:23Z</time>
      </trkpt>
      <trkpt lat="44.26986" lon="1.6404">
        <ele>234.7</ele>
        <time>2023-01-26T12:12:24Z</time>
      </trkpt>
      <trkpt lat="44.26985" lon="1.64035">
        <ele>234.9</ele>
        <time>2023-01-26T12:12:25Z</time>
      </trkpt>
      <trkpt lat="44.26984" lon="1.6403">
        <ele>234.9</ele>
        <time>2023-01-26T12:12:26Z</time>
      </trkpt>
      <trkpt lat="44.26984" lon="1.64025">
        <ele>234.9</ele>
        <time>2023-01-26T12:12:28Z</time>
      </trkpt>
      <trkpt lat="44.26983" lon="1.64017">
        <ele>235.2</ele>
        <time>2023-01-26T12:12:29Z</time>
      </trkpt>
      <trkpt lat="44.26983" lon="1.6401">
        <ele>235.2</ele>
        <time>2023-01-26T12:12:30Z</time>
      </trkpt>
      <trkpt lat="44.26982" lon="1.64004">
        <ele>235.5</ele>
        <time>2023-01-26T12:12:32Z</time>
      </trkpt>
      <trkpt lat="44.2698" lon="1.63998">
        <ele>235.5</ele>
        <time>2023-01-26T12:12:33Z</time>
      </trkpt>
      <trkpt lat="44.26979" lon="1.63993">
        <ele>235.5</ele>
        <time>2023-01-26T12:12:34Z</time>
      </trkpt>
      <trkpt lat="44.26978" lon="1.63988">
        <ele>235.4</ele>
        <time>2023-01-26T12:12:35Z</time>
      </trkpt>
      <trkpt lat="44.26977" lon="1.63983">
        <ele>235.8</ele>
        <time>2023-01-26T12:12:36Z</time>
      </trkpt>
      <trkpt lat="44.26975" lon="1.63977">
        <ele>235.8</ele>
        <time>2023-01-26T12:12:38Z</time>
      </trkpt>
      <trkpt lat="44.26973" lon="1.63968">
        <ele>236.2</ele>
        <time>2023-01-26T12:12:39Z</time>
      </trkpt>
      <trkpt lat="44.26972" lon="1.63963">
        <ele>236.2</ele>
        <time>2023-01-26T12:12:41Z</time>
      </trkpt>
      <trkpt lat="44.2697" lon="1.63958">
        <ele>236.2</ele>
        <time>2023-01-26T12:12:42Z</time>
      </trkpt>
      <trkpt lat="44.26968" lon="1.63952">
        <ele>236.5</ele>
        <time>2023-01-26T12:12:43Z</time>
      </trkpt>
      <trkpt lat="44.26967" lon="1.63948">
        <ele>236.5</ele>
        <time>2023-01-26T12:12:44Z</time>
      </trkpt>
      <trkpt lat="44.26964" lon="1.6394">
        <ele>236.3</ele>
        <time>2023-01-26T12:12:46Z</time>
      </trkpt>
      <trkpt lat="44.26962" lon="1.63936">
        <ele>236.5</ele>
        <time>2023-01-26T12:12:47Z</time>
      </trkpt>
      <trkpt lat="44.26957" lon="1.6393">
        <ele>236.5</ele>
        <time>2023-01-26T12:12:49Z</time>
      </trkpt>
      <trkpt lat="44.26954" lon="1.63927">
        <ele>236.3</ele>
        <time>2023-01-26T12:12:50Z</time>
      </trkpt>
      <trkpt lat="44.2695" lon="1.63923">
        <ele>236.3</ele>
        <time>2023-01-26T12:12:51Z</time>
      </trkpt>
      <trkpt lat="44.26947" lon="1.6392">
        <ele>236.3</ele>
        <time>2023-01-26T12:12:52Z</time>
      </trkpt>
      <trkpt lat="44.26942" lon="1.63915">
        <ele>236.5</ele>
        <time>2023-01-26T12:12:54Z</time>
      </trkpt>
      <trkpt lat="44.26939" lon="1.63912">
        <ele>236.2</ele>
        <time>2023-01-26T12:12:55Z</time>
      </trkpt>
      <trkpt lat="44.26935" lon="1.6391">
        <ele>236.2</ele>
        <time>2023-01-26T12:12:56Z</time>
      </trkpt>
      <trkpt lat="44.2693" lon="1.63907">
        <ele>236.2</ele>
        <time>2023-01-26T12:12:58Z</time>
      </trkpt>
      <trkpt lat="44.26927" lon="1.63904">
        <ele>235.9</ele>
        <time>2023-01-26T12:12:59Z</time>
      </trkpt>
      <trkpt lat="44.26924" lon="1.63903">
        <ele>235.9</ele>
        <time>2023-01-26T12:13:00Z</time>
      </trkpt>
      <trkpt lat="44.26919" lon="1.63903">
        <ele>235.9</ele>
        <time>2023-01-26T12:13:02Z</time>
      </trkpt>
      <trkpt lat="44.26915" lon="1.63903">
        <ele>235.7</ele>
        <time>2023-01-26T12:13:03Z</time>
      </trkpt>
      <trkpt lat="44.26911" lon="1.63902">
        <ele>235.9</ele>
        <time>2023-01-26T12:13:04Z</time>
      </trkpt>
      <trkpt lat="44.26907" lon="1.63899">
        <ele>235.9</ele>
        <time>2023-01-26T12:13:06Z</time>
      </trkpt>
      <trkpt lat="44.26904" lon="1.63899">
        <ele>235.7</ele>
        <time>2023-01-26T12:13:07Z</time>
      </trkpt>
      <trkpt lat="44.269" lon="1.63899">
        <ele>235.7</ele>
        <time>2023-01-26T12:13:08Z</time>
      </trkpt>
      <trkpt lat="44.26895" lon="1.63896">
        <ele>235.7</ele>
        <time>2023-01-26T12:13:09Z</time>
      </trkpt>
      <trkpt lat="44.26892" lon="1.63895">
        <ele>235.5</ele>
        <time>2023-01-26T12:13:11Z</time>
      </trkpt>
      <trkpt lat="44.26888" lon="1.63895">
        <ele>235.5</ele>
        <time>2023-01-26T12:13:12Z</time>
      </trkpt>
      <trkpt lat="44.26884" lon="1.63894">
        <ele>235.5</ele>
        <time>2023-01-26T12:13:13Z</time>
      </trkpt>
      <trkpt lat="44.26879" lon="1.63892">
        <ele>235.3</ele>
        <time>2023-01-26T12:13:15Z</time>
      </trkpt>
      <trkpt lat="44.26873" lon="1.6389">
        <ele>235.3</ele>
        <time>2023-01-26T12:13:16Z</time>
      </trkpt>
      <trkpt lat="44.2687" lon="1.63889">
        <ele>235.3</ele>
        <time>2023-01-26T12:13:18Z</time>
      </trkpt>
      <trkpt lat="44.26866" lon="1.63889">
        <ele>235.2</ele>
        <time>2023-01-26T12:13:19Z</time>
      </trkpt>
      <trkpt lat="44.26863" lon="1.63888">
        <ele>235.2</ele>
        <time>2023-01-26T12:13:20Z</time>
      </trkpt>
      <trkpt lat="44.26855" lon="1.63885">
        <ele>235.3</ele>
        <time>2023-01-26T12:13:22Z</time>
      </trkpt>
      <trkpt lat="44.26851" lon="1.63884">
        <ele>235.3</ele>
        <time>2023-01-26T12:13:24Z</time>
      </trkpt>
      <trkpt lat="44.26847" lon="1.63884">
        <ele>235.3</ele>
        <time>2023-01-26T12:13:25Z</time>
      </trkpt>
      <trkpt lat="44.26842" lon="1.63882">
        <ele>235.1</ele>
        <time>2023-01-26T12:13:26Z</time>
      </trkpt>
      <trkpt lat="44.26838" lon="1.63881">
        <ele>235.1</ele>
        <time>2023-01-26T12:13:28Z</time>
      </trkpt>
      <trkpt lat="44.26834" lon="1.6388">
        <ele>235.1</ele>
        <time>2023-01-26T12:13:29Z</time>
      </trkpt>
      <trkpt lat="44.26831" lon="1.6388">
        <ele>234.9</ele>
        <time>2023-01-26T12:13:30Z</time>
      </trkpt>
      <trkpt lat="44.26826" lon="1.63879">
        <ele>234.9</ele>
        <time>2023-01-26T12:13:31Z</time>
      </trkpt>
      <trkpt lat="44.26822" lon="1.63878">
        <ele>234.9</ele>
        <time>2023-01-26T12:13:32Z</time>
      </trkpt>
      <trkpt lat="44.26818" lon="1.63879">
        <ele>234.8</ele>
        <time>2023-01-26T12:13:34Z</time>
      </trkpt>
      <trkpt lat="44.26815" lon="1.63879">
        <ele>234.8</ele>
        <time>2023-01-26T12:13:35Z</time>
      </trkpt>
      <trkpt lat="44.26812" lon="1.63878">
        <ele>234.8</ele>
        <time>2023-01-26T12:13:36Z</time>
      </trkpt>
      <trkpt lat="44.26809" lon="1.63877">
        <ele>234.8</ele>
        <time>2023-01-26T12:13:37Z</time>
      </trkpt>
      <trkpt lat="44.26806" lon="1.63876">
        <ele>234.5</ele>
        <time>2023-01-26T12:13:38Z</time>
      </trkpt>
      <trkpt lat="44.26802" lon="1.63874">
        <ele>234.5</ele>
        <time>2023-01-26T12:13:39Z</time>
      </trkpt>
      <trkpt lat="44.26798" lon="1.6387">
        <ele>234.5</ele>
        <time>2023-01-26T12:13:41Z</time>
      </trkpt>
      <trkpt lat="44.26795" lon="1.63865">
        <ele>234.8</ele>
        <time>2023-01-26T12:13:42Z</time>
      </trkpt>
      <trkpt lat="44.26792" lon="1.63861">
        <ele>234.6</ele>
        <time>2023-01-26T12:13:43Z</time>
      </trkpt>
      <trkpt lat="44.26786" lon="1.63854">
        <ele>234.6</ele>
        <time>2023-01-26T12:13:45Z</time>
      </trkpt>
      <trkpt lat="44.26782" lon="1.63849">
        <ele>234.5</ele>
        <time>2023-01-26T12:13:46Z</time>
      </trkpt>
      <trkpt lat="44.26779" lon="1.63847">
        <ele>234.4</ele>
        <time>2023-01-26T12:13:47Z</time>
      </trkpt>
      <trkpt lat="44.26775" lon="1.63842">
        <ele>234.4</ele>
        <time>2023-01-26T12:13:48Z</time>
      </trkpt>
      <trkpt lat="44.26772" lon="1.63838">
        <ele>234.4</ele>
        <time>2023-01-26T12:13:49Z</time>
      </trkpt>
      <trkpt lat="44.26769" lon="1.63834">
        <ele>234.1</ele>
        <time>2023-01-26T12:13:51Z</time>
      </trkpt>
      <trkpt lat="44.26767" lon="1.6383">
        <ele>234.1</ele>
        <time>2023-01-26T12:13:52Z</time>
      </trkpt>
      <trkpt lat="44.26764" lon="1.63826">
        <ele>234.1</ele>
        <time>2023-01-26T12:13:53Z</time>
      </trkpt>
      <trkpt lat="44.26759" lon="1.63822">
        <ele>234.1</ele>
        <time>2023-01-26T12:13:54Z</time>
      </trkpt>
      <trkpt lat="44.26751" lon="1.63814">
        <ele>233.6</ele>
        <time>2023-01-26T12:13:56Z</time>
      </trkpt>
      <trkpt lat="44.26748" lon="1.63811">
        <ele>233.6</ele>
        <time>2023-01-26T12:13:57Z</time>
      </trkpt>
      <trkpt lat="44.26744" lon="1.63808">
        <ele>233.2</ele>
        <time>2023-01-26T12:13:58Z</time>
      </trkpt>
      <trkpt lat="44.2674" lon="1.63805">
        <ele>233.2</ele>
        <time>2023-01-26T12:13:59Z</time>
      </trkpt>
      <trkpt lat="44.26736" lon="1.63799">
        <ele>233.2</ele>
        <time>2023-01-26T12:14:00Z</time>
      </trkpt>
      <trkpt lat="44.26729" lon="1.63797">
        <ele>232.9</ele>
        <time>2023-01-26T12:14:02Z</time>
      </trkpt>
      <trkpt lat="44.26726" lon="1.63796">
        <ele>232.9</ele>
        <time>2023-01-26T12:14:03Z</time>
      </trkpt>
      <trkpt lat="44.26721" lon="1.63794">
        <ele>232.9</ele>
        <time>2023-01-26T12:14:04Z</time>
      </trkpt>
      <trkpt lat="44.26715" lon="1.6379">
        <ele>232.7</ele>
        <time>2023-01-26T12:14:06Z</time>
      </trkpt>
      <trkpt lat="44.26711" lon="1.63788">
        <ele>232.7</ele>
        <time>2023-01-26T12:14:07Z</time>
      </trkpt>
      <trkpt lat="44.26706" lon="1.63786">
        <ele>232.5</ele>
        <time>2023-01-26T12:14:08Z</time>
      </trkpt>
      <trkpt lat="44.26703" lon="1.63785">
        <ele>232.5</ele>
        <time>2023-01-26T12:14:09Z</time>
      </trkpt>
      <trkpt lat="44.26697" lon="1.63784">
        <ele>232.5</ele>
        <time>2023-01-26T12:14:11Z</time>
      </trkpt>
      <trkpt lat="44.26692" lon="1.63782">
        <ele>232.3</ele>
        <time>2023-01-26T12:14:12Z</time>
      </trkpt>
      <trkpt lat="44.26688" lon="1.63781">
        <ele>232.4</ele>
        <time>2023-01-26T12:14:13Z</time>
      </trkpt>
      <trkpt lat="44.26683" lon="1.63779">
        <ele>232.3</ele>
        <time>2023-01-26T12:14:14Z</time>
      </trkpt>
      <trkpt lat="44.26679" lon="1.63778">
        <ele>232.3</ele>
        <time>2023-01-26T12:14:15Z</time>
      </trkpt>
      <trkpt lat="44.26674" lon="1.63776">
        <ele>232.2</ele>
        <time>2023-01-26T12:14:16Z</time>
      </trkpt>
      <trkpt lat="44.2667" lon="1.63775">
        <ele>232</ele>
        <time>2023-01-26T12:14:17Z</time>
      </trkpt>
      <trkpt lat="44.26665" lon="1.63774">
        <ele>232</ele>
        <time>2023-01-26T12:14:18Z</time>
      </trkpt>
      <trkpt lat="44.2666" lon="1.63774">
        <ele>232</ele>
        <time>2023-01-26T12:14:19Z</time>
      </trkpt>
      <trkpt lat="44.26656" lon="1.63773">
        <ele>231.6</ele>
        <time>2023-01-26T12:14:20Z</time>
      </trkpt>
      <trkpt lat="44.26652" lon="1.63772">
        <ele>231.6</ele>
        <time>2023-01-26T12:14:21Z</time>
      </trkpt>
      <trkpt lat="44.26642" lon="1.63769">
        <ele>231.2</ele>
        <time>2023-01-26T12:14:23Z</time>
      </trkpt>
      <trkpt lat="44.26637" lon="1.63767">
        <ele>231.2</ele>
        <time>2023-01-26T12:14:24Z</time>
      </trkpt>
      <trkpt lat="44.26633" lon="1.63765">
        <ele>230.8</ele>
        <time>2023-01-26T12:14:25Z</time>
      </trkpt>
      <trkpt lat="44.26628" lon="1.63762">
        <ele>230.9</ele>
        <time>2023-01-26T12:14:26Z</time>
      </trkpt>
      <trkpt lat="44.26621" lon="1.63759">
        <ele>230.6</ele>
        <time>2023-01-26T12:14:28Z</time>
      </trkpt>
      <trkpt lat="44.26616" lon="1.63757">
        <ele>230.6</ele>
        <time>2023-01-26T12:14:29Z</time>
      </trkpt>
      <trkpt lat="44.26612" lon="1.63756">
        <ele>230.6</ele>
        <time>2023-01-26T12:14:30Z</time>
      </trkpt>
      <trkpt lat="44.26605" lon="1.63753">
        <ele>230.2</ele>
        <time>2023-01-26T12:14:31Z</time>
      </trkpt>
      <trkpt lat="44.26601" lon="1.6375">
        <ele>230.2</ele>
        <time>2023-01-26T12:14:33Z</time>
      </trkpt>
      <trkpt lat="44.26596" lon="1.63748">
        <ele>229.9</ele>
        <time>2023-01-26T12:14:34Z</time>
      </trkpt>
      <trkpt lat="44.26592" lon="1.63746">
        <ele>230</ele>
        <time>2023-01-26T12:14:35Z</time>
      </trkpt>
      <trkpt lat="44.26587" lon="1.63745">
        <ele>230</ele>
        <time>2023-01-26T12:14:36Z</time>
      </trkpt>
      <trkpt lat="44.26584" lon="1.63744">
        <ele>229.7</ele>
        <time>2023-01-26T12:14:37Z</time>
      </trkpt>
      <trkpt lat="44.26578" lon="1.6374">
        <ele>229.7</ele>
        <time>2023-01-26T12:14:38Z</time>
      </trkpt>
      <trkpt lat="44.26569" lon="1.63735">
        <ele>229.5</ele>
        <time>2023-01-26T12:14:40Z</time>
      </trkpt>
      <trkpt lat="44.26565" lon="1.63733">
        <ele>229.5</ele>
        <time>2023-01-26T12:14:41Z</time>
      </trkpt>
      <trkpt lat="44.26561" lon="1.6373">
        <ele>229.5</ele>
        <time>2023-01-26T12:14:42Z</time>
      </trkpt>
      <trkpt lat="44.26557" lon="1.63729">
        <ele>229.5</ele>
        <time>2023-01-26T12:14:43Z</time>
      </trkpt>
      <trkpt lat="44.2655" lon="1.63724">
        <ele>229.5</ele>
        <time>2023-01-26T12:14:45Z</time>
      </trkpt>
      <trkpt lat="44.26546" lon="1.63722">
        <ele>229.3</ele>
        <time>2023-01-26T12:14:46Z</time>
      </trkpt>
      <trkpt lat="44.26542" lon="1.63719">
        <ele>229.3</ele>
        <time>2023-01-26T12:14:47Z</time>
      </trkpt>
      <trkpt lat="44.26538" lon="1.63716">
        <ele>229.3</ele>
        <time>2023-01-26T12:14:48Z</time>
      </trkpt>
      <trkpt lat="44.26534" lon="1.63713">
        <ele>229.5</ele>
        <time>2023-01-26T12:14:49Z</time>
      </trkpt>
      <trkpt lat="44.26531" lon="1.6371">
        <ele>229.6</ele>
        <time>2023-01-26T12:14:50Z</time>
      </trkpt>
      <trkpt lat="44.26526" lon="1.63707">
        <ele>229.6</ele>
        <time>2023-01-26T12:14:51Z</time>
      </trkpt>
      <trkpt lat="44.26522" lon="1.63705">
        <ele>229.6</ele>
        <time>2023-01-26T12:14:53Z</time>
      </trkpt>
      <trkpt lat="44.26517" lon="1.63703">
        <ele>229.7</ele>
        <time>2023-01-26T12:14:54Z</time>
      </trkpt>
      <trkpt lat="44.26513" lon="1.63701">
        <ele>229.8</ele>
        <time>2023-01-26T12:14:55Z</time>
      </trkpt>
      <trkpt lat="44.26509" lon="1.63696">
        <ele>229.8</ele>
        <time>2023-01-26T12:14:57Z</time>
      </trkpt>
      <trkpt lat="44.26505" lon="1.63692">
        <ele>229.9</ele>
        <time>2023-01-26T12:14:58Z</time>
      </trkpt>
      <trkpt lat="44.26501" lon="1.63688">
        <ele>230</ele>
        <time>2023-01-26T12:14:59Z</time>
      </trkpt>
      <trkpt lat="44.26496" lon="1.63683">
        <ele>230.1</ele>
        <time>2023-01-26T12:15:01Z</time>
      </trkpt>
      <trkpt lat="44.26493" lon="1.63679">
        <ele>230.1</ele>
        <time>2023-01-26T12:15:02Z</time>
      </trkpt>
      <trkpt lat="44.26492" lon="1.63678">
        <ele>230.1</ele>
        <time>2023-01-26T12:15:03Z</time>
      </trkpt>
      <trkpt lat="44.26489" lon="1.63674">
        <ele>230.2</ele>
        <time>2023-01-26T12:15:04Z</time>
      </trkpt>
      <trkpt lat="44.26485" lon="1.6367">
        <ele>230.2</ele>
        <time>2023-01-26T12:15:05Z</time>
      </trkpt>
      <trkpt lat="44.2648" lon="1.63665">
        <ele>230.3</ele>
        <time>2023-01-26T12:15:07Z</time>
      </trkpt>
      <trkpt lat="44.26475" lon="1.63662">
        <ele>230.4</ele>
        <time>2023-01-26T12:15:08Z</time>
      </trkpt>
      <trkpt lat="44.26472" lon="1.63659">
        <ele>230.5</ele>
        <time>2023-01-26T12:15:10Z</time>
      </trkpt>
      <trkpt lat="44.26468" lon="1.63656">
        <ele>230.5</ele>
        <time>2023-01-26T12:15:11Z</time>
      </trkpt>
      <trkpt lat="44.26463" lon="1.63651">
        <ele>230.6</ele>
        <time>2023-01-26T12:15:12Z</time>
      </trkpt>
      <trkpt lat="44.2646" lon="1.63648">
        <ele>230.6</ele>
        <time>2023-01-26T12:15:13Z</time>
      </trkpt>
      <trkpt lat="44.26456" lon="1.63645">
        <ele>230.7</ele>
        <time>2023-01-26T12:15:14Z</time>
      </trkpt>
      <trkpt lat="44.26452" lon="1.63641">
        <ele>230.7</ele>
        <time>2023-01-26T12:15:16Z</time>
      </trkpt>
      <trkpt lat="44.26448" lon="1.63638">
        <ele>230.7</ele>
        <time>2023-01-26T12:15:17Z</time>
      </trkpt>
      <trkpt lat="44.26445" lon="1.63635">
        <ele>230.8</ele>
        <time>2023-01-26T12:15:18Z</time>
      </trkpt>
      <trkpt lat="44.26439" lon="1.63632">
        <ele>231</ele>
        <time>2023-01-26T12:15:20Z</time>
      </trkpt>
      <trkpt lat="44.26434" lon="1.6363">
        <ele>231.1</ele>
        <time>2023-01-26T12:15:21Z</time>
      </trkpt>
      <trkpt lat="44.26431" lon="1.63629">
        <ele>231.2</ele>
        <time>2023-01-26T12:15:22Z</time>
      </trkpt>
      <trkpt lat="44.26425" lon="1.63626">
        <ele>231.3</ele>
        <time>2023-01-26T12:15:24Z</time>
      </trkpt>
      <trkpt lat="44.26421" lon="1.63624">
        <ele>231.4</ele>
        <time>2023-01-26T12:15:25Z</time>
      </trkpt>
      <trkpt lat="44.26417" lon="1.6362">
        <ele>231.5</ele>
        <time>2023-01-26T12:15:26Z</time>
      </trkpt>
      <trkpt lat="44.26412" lon="1.63615">
        <ele>231.7</ele>
        <time>2023-01-26T12:15:28Z</time>
      </trkpt>
      <trkpt lat="44.26405" lon="1.6361">
        <ele>231.9</ele>
        <time>2023-01-26T12:15:30Z</time>
      </trkpt>
      <trkpt lat="44.26401" lon="1.63608">
        <ele>232.1</ele>
        <time>2023-01-26T12:15:31Z</time>
      </trkpt>
      <trkpt lat="44.26397" lon="1.63605">
        <ele>232.2</ele>
        <time>2023-01-26T12:15:32Z</time>
      </trkpt>
      <trkpt lat="44.26395" lon="1.63602">
        <ele>232.3</ele>
        <time>2023-01-26T12:15:33Z</time>
      </trkpt>
      <trkpt lat="44.2639" lon="1.63595">
        <ele>232.6</ele>
        <time>2023-01-26T12:15:35Z</time>
      </trkpt>
      <trkpt lat="44.26386" lon="1.63592">
        <ele>232.7</ele>
        <time>2023-01-26T12:15:36Z</time>
      </trkpt>
      <trkpt lat="44.26383" lon="1.63589">
        <ele>232.9</ele>
        <time>2023-01-26T12:15:37Z</time>
      </trkpt>
      <trkpt lat="44.26378" lon="1.63584">
        <ele>233</ele>
        <time>2023-01-26T12:15:39Z</time>
      </trkpt>
      <trkpt lat="44.26374" lon="1.6358">
        <ele>233.2</ele>
        <time>2023-01-26T12:15:40Z</time>
      </trkpt>
      <trkpt lat="44.26367" lon="1.63574">
        <ele>233.5</ele>
        <time>2023-01-26T12:15:42Z</time>
      </trkpt>
      <trkpt lat="44.26364" lon="1.63571">
        <ele>233.6</ele>
        <time>2023-01-26T12:15:44Z</time>
      </trkpt>
      <trkpt lat="44.26361" lon="1.63568">
        <ele>233.8</ele>
        <time>2023-01-26T12:15:45Z</time>
      </trkpt>
      <trkpt lat="44.26358" lon="1.63566">
        <ele>233.9</ele>
        <time>2023-01-26T12:15:46Z</time>
      </trkpt>
      <trkpt lat="44.26355" lon="1.63563">
        <ele>234.1</ele>
        <time>2023-01-26T12:15:47Z</time>
      </trkpt>
      <trkpt lat="44.26352" lon="1.63561">
        <ele>234.2</ele>
        <time>2023-01-26T12:15:48Z</time>
      </trkpt>
      <trkpt lat="44.26347" lon="1.63557">
        <ele>234.4</ele>
        <time>2023-01-26T12:15:50Z</time>
      </trkpt>
      <trkpt lat="44.26342" lon="1.63552">
        <ele>234.6</ele>
        <time>2023-01-26T12:15:52Z</time>
      </trkpt>
      <trkpt lat="44.26338" lon="1.63548">
        <ele>234.7</ele>
        <time>2023-01-26T12:15:53Z</time>
      </trkpt>
      <trkpt lat="44.26336" lon="1.63545">
        <ele>234.7</ele>
        <time>2023-01-26T12:15:54Z</time>
      </trkpt>
      <trkpt lat="44.26334" lon="1.63543">
        <ele>234.8</ele>
        <time>2023-01-26T12:15:55Z</time>
      </trkpt>
      <trkpt lat="44.2633" lon="1.63538">
        <ele>234.9</ele>
        <time>2023-01-26T12:15:57Z</time>
      </trkpt>
      <trkpt lat="44.26326" lon="1.63535">
        <ele>235</ele>
        <time>2023-01-26T12:15:58Z</time>
      </trkpt>
      <trkpt lat="44.26323" lon="1.63533">
        <ele>235</ele>
        <time>2023-01-26T12:15:59Z</time>
      </trkpt>
      <trkpt lat="44.26317" lon="1.63528">
        <ele>235.2</ele>
        <time>2023-01-26T12:16:01Z</time>
      </trkpt>
      <trkpt lat="44.26315" lon="1.63525">
        <ele>235.3</ele>
        <time>2023-01-26T12:16:03Z</time>
      </trkpt>
      <trkpt lat="44.26311" lon="1.6352">
        <ele>235.5</ele>
        <time>2023-01-26T12:16:04Z</time>
      </trkpt>
      <trkpt lat="44.26308" lon="1.63517">
        <ele>235.7</ele>
        <time>2023-01-26T12:16:06Z</time>
      </trkpt>
      <trkpt lat="44.26306" lon="1.63515">
        <ele>235.8</ele>
        <time>2023-01-26T12:16:07Z</time>
      </trkpt>
      <trkpt lat="44.26303" lon="1.6351">
        <ele>236</ele>
        <time>2023-01-26T12:16:08Z</time>
      </trkpt>
      <trkpt lat="44.26301" lon="1.63507">
        <ele>236.1</ele>
        <time>2023-01-26T12:16:10Z</time>
      </trkpt>
      <trkpt lat="44.26298" lon="1.63503">
        <ele>236.3</ele>
        <time>2023-01-26T12:16:11Z</time>
      </trkpt>
      <trkpt lat="44.26294" lon="1.635">
        <ele>236.5</ele>
        <time>2023-01-26T12:16:12Z</time>
      </trkpt>
      <trkpt lat="44.2629" lon="1.63495">
        <ele>236.8</ele>
        <time>2023-01-26T12:16:13Z</time>
      </trkpt>
      <trkpt lat="44.26288" lon="1.63492">
        <ele>237</ele>
        <time>2023-01-26T12:16:14Z</time>
      </trkpt>
      <trkpt lat="44.26284" lon="1.63488">
        <ele>237.3</ele>
        <time>2023-01-26T12:16:16Z</time>
      </trkpt>
      <trkpt lat="44.26282" lon="1.63485">
        <ele>237.5</ele>
        <time>2023-01-26T12:16:17Z</time>
      </trkpt>
      <trkpt lat="44.26279" lon="1.63482">
        <ele>237.7</ele>
        <time>2023-01-26T12:16:18Z</time>
      </trkpt>
      <trkpt lat="44.26276" lon="1.63479">
        <ele>238</ele>
        <time>2023-01-26T12:16:19Z</time>
      </trkpt>
      <trkpt lat="44.26274" lon="1.63475">
        <ele>238.3</ele>
        <time>2023-01-26T12:16:20Z</time>
      </trkpt>
      <trkpt lat="44.2627" lon="1.63471">
        <ele>238.7</ele>
        <time>2023-01-26T12:16:22Z</time>
      </trkpt>
      <trkpt lat="44.26267" lon="1.63468">
        <ele>238.9</ele>
        <time>2023-01-26T12:16:23Z</time>
      </trkpt>
      <trkpt lat="44.26264" lon="1.63464">
        <ele>239.2</ele>
        <time>2023-01-26T12:16:24Z</time>
      </trkpt>
      <trkpt lat="44.2626" lon="1.63459">
        <ele>239.5</ele>
        <time>2023-01-26T12:16:26Z</time>
      </trkpt>
      <trkpt lat="44.26258" lon="1.63456">
        <ele>239.7</ele>
        <time>2023-01-26T12:16:27Z</time>
      </trkpt>
      <trkpt lat="44.26255" lon="1.63453">
        <ele>239.9</ele>
        <time>2023-01-26T12:16:28Z</time>
      </trkpt>
      <trkpt lat="44.26251" lon="1.63449">
        <ele>240.2</ele>
        <time>2023-01-26T12:16:30Z</time>
      </trkpt>
      <trkpt lat="44.2625" lon="1.63447">
        <ele>240.4</ele>
        <time>2023-01-26T12:16:31Z</time>
      </trkpt>
      <trkpt lat="44.26246" lon="1.63444">
        <ele>240.8</ele>
        <time>2023-01-26T12:16:33Z</time>
      </trkpt>
      <trkpt lat="44.26244" lon="1.63442">
        <ele>241</ele>
        <time>2023-01-26T12:16:34Z</time>
      </trkpt>
      <trkpt lat="44.2624" lon="1.63439">
        <ele>241.4</ele>
        <time>2023-01-26T12:16:36Z</time>
      </trkpt>
      <trkpt lat="44.26237" lon="1.63438">
        <ele>241.7</ele>
        <time>2023-01-26T12:16:37Z</time>
      </trkpt>
      <trkpt lat="44.26234" lon="1.6344">
        <ele>241</ele>
        <time>2023-01-26T12:16:38Z</time>
      </trkpt>
      <trkpt lat="44.26233" lon="1.63441">
        <ele>241.1</ele>
        <time>2023-01-26T12:16:39Z</time>
      </trkpt>
      <trkpt lat="44.26231" lon="1.63446">
        <ele>241.1</ele>
        <time>2023-01-26T12:16:41Z</time>
      </trkpt>
      <trkpt lat="44.2623" lon="1.63447">
        <ele>241.1</ele>
        <time>2023-01-26T12:16:43Z</time>
      </trkpt>
      <trkpt lat="44.26229" lon="1.63449">
        <ele>242.6</ele>
        <time>2023-01-26T12:16:44Z</time>
      </trkpt>
      <trkpt lat="44.26228" lon="1.63451">
        <ele>242.6</ele>
        <time>2023-01-26T12:16:45Z</time>
      </trkpt>
      <trkpt lat="44.26227" lon="1.63454">
        <ele>242.6</ele>
        <time>2023-01-26T12:16:46Z</time>
      </trkpt>
      <trkpt lat="44.26225" lon="1.63459">
        <ele>242.1</ele>
        <time>2023-01-26T12:16:48Z</time>
      </trkpt>
      <trkpt lat="44.26223" lon="1.63464">
        <ele>241.9</ele>
        <time>2023-01-26T12:16:49Z</time>
      </trkpt>
      <trkpt lat="44.26222" lon="1.63469">
        <ele>241.7</ele>
        <time>2023-01-26T12:16:51Z</time>
      </trkpt>
      <trkpt lat="44.2622" lon="1.63473">
        <ele>241.5</ele>
        <time>2023-01-26T12:16:52Z</time>
      </trkpt>
      <trkpt lat="44.26218" lon="1.63477">
        <ele>241.4</ele>
        <time>2023-01-26T12:16:53Z</time>
      </trkpt>
      <trkpt lat="44.26215" lon="1.63483">
        <ele>241.3</ele>
        <time>2023-01-26T12:16:54Z</time>
      </trkpt>
      <trkpt lat="44.26213" lon="1.63488">
        <ele>241.3</ele>
        <time>2023-01-26T12:16:56Z</time>
      </trkpt>
      <trkpt lat="44.26211" lon="1.63492">
        <ele>241.3</ele>
        <time>2023-01-26T12:16:57Z</time>
      </trkpt>
      <trkpt lat="44.26209" lon="1.63497">
        <ele>241.3</ele>
        <time>2023-01-26T12:16:58Z</time>
      </trkpt>
      <trkpt lat="44.26207" lon="1.63504">
        <ele>241.2</ele>
        <time>2023-01-26T12:17:00Z</time>
      </trkpt>
      <trkpt lat="44.26204" lon="1.63512">
        <ele>241.2</ele>
        <time>2023-01-26T12:17:02Z</time>
      </trkpt>
      <trkpt lat="44.26203" lon="1.63517">
        <ele>241.2</ele>
        <time>2023-01-26T12:17:03Z</time>
      </trkpt>
      <trkpt lat="44.26202" lon="1.63522">
        <ele>241.1</ele>
        <time>2023-01-26T12:17:04Z</time>
      </trkpt>
      <trkpt lat="44.26199" lon="1.63529">
        <ele>241.1</ele>
        <time>2023-01-26T12:17:05Z</time>
      </trkpt>
      <trkpt lat="44.26198" lon="1.63534">
        <ele>241.1</ele>
        <time>2023-01-26T12:17:06Z</time>
      </trkpt>
      <trkpt lat="44.26197" lon="1.63539">
        <ele>241</ele>
        <time>2023-01-26T12:17:07Z</time>
      </trkpt>
      <trkpt lat="44.26195" lon="1.63545">
        <ele>241</ele>
        <time>2023-01-26T12:17:09Z</time>
      </trkpt>
      <trkpt lat="44.26194" lon="1.63551">
        <ele>241</ele>
        <time>2023-01-26T12:17:10Z</time>
      </trkpt>
      <trkpt lat="44.26193" lon="1.63556">
        <ele>240.9</ele>
        <time>2023-01-26T12:17:11Z</time>
      </trkpt>
      <trkpt lat="44.26192" lon="1.63563">
        <ele>240.9</ele>
        <time>2023-01-26T12:17:12Z</time>
      </trkpt>
      <trkpt lat="44.26191" lon="1.63572">
        <ele>240.8</ele>
        <time>2023-01-26T12:17:14Z</time>
      </trkpt>
      <trkpt lat="44.2619" lon="1.63583">
        <ele>240.8</ele>
        <time>2023-01-26T12:17:16Z</time>
      </trkpt>
      <trkpt lat="44.26189" lon="1.63589">
        <ele>240.7</ele>
        <time>2023-01-26T12:17:17Z</time>
      </trkpt>
      <trkpt lat="44.26187" lon="1.63596">
        <ele>240.6</ele>
        <time>2023-01-26T12:17:18Z</time>
      </trkpt>
      <trkpt lat="44.26185" lon="1.63605">
        <ele>240.5</ele>
        <time>2023-01-26T12:17:20Z</time>
      </trkpt>
      <trkpt lat="44.26183" lon="1.63612">
        <ele>240.3</ele>
        <time>2023-01-26T12:17:21Z</time>
      </trkpt>
      <trkpt lat="44.26181" lon="1.63618">
        <ele>240.2</ele>
        <time>2023-01-26T12:17:22Z</time>
      </trkpt>
      <trkpt lat="44.26179" lon="1.63624">
        <ele>240.1</ele>
        <time>2023-01-26T12:17:23Z</time>
      </trkpt>
      <trkpt lat="44.26179" lon="1.6363">
        <ele>239.9</ele>
        <time>2023-01-26T12:17:24Z</time>
      </trkpt>
      <trkpt lat="44.26178" lon="1.63639">
        <ele>239.7</ele>
        <time>2023-01-26T12:17:26Z</time>
      </trkpt>
      <trkpt lat="44.26177" lon="1.63645">
        <ele>239.6</ele>
        <time>2023-01-26T12:17:27Z</time>
      </trkpt>
      <trkpt lat="44.26176" lon="1.63655">
        <ele>239.3</ele>
        <time>2023-01-26T12:17:29Z</time>
      </trkpt>
      <trkpt lat="44.26175" lon="1.63661">
        <ele>239.2</ele>
        <time>2023-01-26T12:17:30Z</time>
      </trkpt>
      <trkpt lat="44.26173" lon="1.6367">
        <ele>239</ele>
        <time>2023-01-26T12:17:32Z</time>
      </trkpt>
      <trkpt lat="44.26172" lon="1.63677">
        <ele>238.8</ele>
        <time>2023-01-26T12:17:33Z</time>
      </trkpt>
      <trkpt lat="44.26171" lon="1.63683">
        <ele>238.6</ele>
        <time>2023-01-26T12:17:34Z</time>
      </trkpt>
      <trkpt lat="44.26169" lon="1.63691">
        <ele>238.4</ele>
        <time>2023-01-26T12:17:35Z</time>
      </trkpt>
      <trkpt lat="44.26169" lon="1.63697">
        <ele>238.3</ele>
        <time>2023-01-26T12:17:36Z</time>
      </trkpt>
      <trkpt lat="44.26168" lon="1.63703">
        <ele>238.1</ele>
        <time>2023-01-26T12:17:37Z</time>
      </trkpt>
      <trkpt lat="44.26167" lon="1.63712">
        <ele>237.9</ele>
        <time>2023-01-26T12:17:38Z</time>
      </trkpt>
      <trkpt lat="44.26166" lon="1.63718">
        <ele>237.8</ele>
        <time>2023-01-26T12:17:39Z</time>
      </trkpt>
      <trkpt lat="44.26165" lon="1.63724">
        <ele>237.6</ele>
        <time>2023-01-26T12:17:41Z</time>
      </trkpt>
      <trkpt lat="44.26164" lon="1.6373">
        <ele>237.5</ele>
        <time>2023-01-26T12:17:42Z</time>
      </trkpt>
      <trkpt lat="44.26163" lon="1.63738">
        <ele>237.3</ele>
        <time>2023-01-26T12:17:43Z</time>
      </trkpt>
      <trkpt lat="44.26162" lon="1.63747">
        <ele>237.1</ele>
        <time>2023-01-26T12:17:45Z</time>
      </trkpt>
      <trkpt lat="44.26162" lon="1.63752">
        <ele>237</ele>
        <time>2023-01-26T12:17:46Z</time>
      </trkpt>
      <trkpt lat="44.26162" lon="1.6376">
        <ele>236.8</ele>
        <time>2023-01-26T12:17:48Z</time>
      </trkpt>
      <trkpt lat="44.26162" lon="1.63766">
        <ele>236.7</ele>
        <time>2023-01-26T12:17:49Z</time>
      </trkpt>
      <trkpt lat="44.26163" lon="1.63775">
        <ele>236.5</ele>
        <time>2023-01-26T12:17:50Z</time>
      </trkpt>
      <trkpt lat="44.26162" lon="1.63783">
        <ele>236.4</ele>
        <time>2023-01-26T12:17:52Z</time>
      </trkpt>
      <trkpt lat="44.26162" lon="1.63788">
        <ele>236.2</ele>
        <time>2023-01-26T12:17:53Z</time>
      </trkpt>
      <trkpt lat="44.26162" lon="1.63794">
        <ele>236.1</ele>
        <time>2023-01-26T12:17:54Z</time>
      </trkpt>
      <trkpt lat="44.26162" lon="1.63799">
        <ele>236</ele>
        <time>2023-01-26T12:17:55Z</time>
      </trkpt>
      <trkpt lat="44.26161" lon="1.63809">
        <ele>235.8</ele>
        <time>2023-01-26T12:17:57Z</time>
      </trkpt>
      <trkpt lat="44.26157" lon="1.63814">
        <ele>235.6</ele>
        <time>2023-01-26T12:17:58Z</time>
      </trkpt>
      <trkpt lat="44.26154" lon="1.63822">
        <ele>235.4</ele>
        <time>2023-01-26T12:17:59Z</time>
      </trkpt>
      <trkpt lat="44.26153" lon="1.63828">
        <ele>235.3</ele>
        <time>2023-01-26T12:18:00Z</time>
      </trkpt>
      <trkpt lat="44.26152" lon="1.63837">
        <ele>235.2</ele>
        <time>2023-01-26T12:18:02Z</time>
      </trkpt>
      <trkpt lat="44.26151" lon="1.63844">
        <ele>235.1</ele>
        <time>2023-01-26T12:18:03Z</time>
      </trkpt>
      <trkpt lat="44.26151" lon="1.63851">
        <ele>235</ele>
        <time>2023-01-26T12:18:04Z</time>
      </trkpt>
      <trkpt lat="44.26151" lon="1.63858">
        <ele>235</ele>
        <time>2023-01-26T12:18:05Z</time>
      </trkpt>
      <trkpt lat="44.26151" lon="1.63865">
        <ele>234.9</ele>
        <time>2023-01-26T12:18:06Z</time>
      </trkpt>
      <trkpt lat="44.2615" lon="1.63877">
        <ele>234.8</ele>
        <time>2023-01-26T12:18:08Z</time>
      </trkpt>
      <trkpt lat="44.2615" lon="1.63885">
        <ele>234.7</ele>
        <time>2023-01-26T12:18:09Z</time>
      </trkpt>
      <trkpt lat="44.26149" lon="1.63893">
        <ele>234.6</ele>
        <time>2023-01-26T12:18:10Z</time>
      </trkpt>
      <trkpt lat="44.26149" lon="1.63904">
        <ele>234.5</ele>
        <time>2023-01-26T12:18:12Z</time>
      </trkpt>
      <trkpt lat="44.26149" lon="1.63909">
        <ele>234.4</ele>
        <time>2023-01-26T12:18:13Z</time>
      </trkpt>
      <trkpt lat="44.26148" lon="1.6392">
        <ele>234.2</ele>
        <time>2023-01-26T12:18:15Z</time>
      </trkpt>
      <trkpt lat="44.26148" lon="1.63927">
        <ele>234.1</ele>
        <time>2023-01-26T12:18:16Z</time>
      </trkpt>
      <trkpt lat="44.26148" lon="1.63934">
        <ele>234</ele>
        <time>2023-01-26T12:18:17Z</time>
      </trkpt>
      <trkpt lat="44.26148" lon="1.63941">
        <ele>233.9</ele>
        <time>2023-01-26T12:18:18Z</time>
      </trkpt>
      <trkpt lat="44.26148" lon="1.63948">
        <ele>233.8</ele>
        <time>2023-01-26T12:18:19Z</time>
      </trkpt>
      <trkpt lat="44.26148" lon="1.63955">
        <ele>233.6</ele>
        <time>2023-01-26T12:18:20Z</time>
      </trkpt>
      <trkpt lat="44.26147" lon="1.63962">
        <ele>233.4</ele>
        <time>2023-01-26T12:18:22Z</time>
      </trkpt>
      <trkpt lat="44.26146" lon="1.63968">
        <ele>233.2</ele>
        <time>2023-01-26T12:18:23Z</time>
      </trkpt>
      <trkpt lat="44.26145" lon="1.63977">
        <ele>232.9</ele>
        <time>2023-01-26T12:18:24Z</time>
      </trkpt>
      <trkpt lat="44.26145" lon="1.63984">
        <ele>232.8</ele>
        <time>2023-01-26T12:18:26Z</time>
      </trkpt>
      <trkpt lat="44.26144" lon="1.63991">
        <ele>232.6</ele>
        <time>2023-01-26T12:18:27Z</time>
      </trkpt>
      <trkpt lat="44.26144" lon="1.63997">
        <ele>232.5</ele>
        <time>2023-01-26T12:18:28Z</time>
      </trkpt>
      <trkpt lat="44.26144" lon="1.64003">
        <ele>232.3</ele>
        <time>2023-01-26T12:18:29Z</time>
      </trkpt>
      <trkpt lat="44.26143" lon="1.6401">
        <ele>232.1</ele>
        <time>2023-01-26T12:18:30Z</time>
      </trkpt>
      <trkpt lat="44.26142" lon="1.64017">
        <ele>231.8</ele>
        <time>2023-01-26T12:18:31Z</time>
      </trkpt>
      <trkpt lat="44.26141" lon="1.64024">
        <ele>231.6</ele>
        <time>2023-01-26T12:18:33Z</time>
      </trkpt>
      <trkpt lat="44.2614" lon="1.64031">
        <ele>231.3</ele>
        <time>2023-01-26T12:18:34Z</time>
      </trkpt>
      <trkpt lat="44.26138" lon="1.64039">
        <ele>231</ele>
        <time>2023-01-26T12:18:35Z</time>
      </trkpt>
      <trkpt lat="44.26136" lon="1.64047">
        <ele>230.7</ele>
        <time>2023-01-26T12:18:36Z</time>
      </trkpt>
      <trkpt lat="44.26135" lon="1.64055">
        <ele>230.5</ele>
        <time>2023-01-26T12:18:37Z</time>
      </trkpt>
      <trkpt lat="44.26135" lon="1.6406">
        <ele>230.3</ele>
        <time>2023-01-26T12:18:38Z</time>
      </trkpt>
      <trkpt lat="44.26134" lon="1.64066">
        <ele>230.2</ele>
        <time>2023-01-26T12:18:39Z</time>
      </trkpt>
      <trkpt lat="44.26134" lon="1.64071">
        <ele>230</ele>
        <time>2023-01-26T12:18:40Z</time>
      </trkpt>
      <trkpt lat="44.26133" lon="1.64079">
        <ele>229.8</ele>
        <time>2023-01-26T12:18:41Z</time>
      </trkpt>
      <trkpt lat="44.26132" lon="1.64087">
        <ele>229.6</ele>
        <time>2023-01-26T12:18:42Z</time>
      </trkpt>
      <trkpt lat="44.26131" lon="1.64092">
        <ele>229.4</ele>
        <time>2023-01-26T12:18:43Z</time>
      </trkpt>
      <trkpt lat="44.26129" lon="1.64098">
        <ele>229.3</ele>
        <time>2023-01-26T12:18:45Z</time>
      </trkpt>
      <trkpt lat="44.26127" lon="1.64105">
        <ele>229.1</ele>
        <time>2023-01-26T12:18:46Z</time>
      </trkpt>
      <trkpt lat="44.26125" lon="1.64111">
        <ele>229</ele>
        <time>2023-01-26T12:18:47Z</time>
      </trkpt>
      <trkpt lat="44.26123" lon="1.64121">
        <ele>228.8</ele>
        <time>2023-01-26T12:18:48Z</time>
      </trkpt>
      <trkpt lat="44.26122" lon="1.64128">
        <ele>228.6</ele>
        <time>2023-01-26T12:18:49Z</time>
      </trkpt>
      <trkpt lat="44.26121" lon="1.64135">
        <ele>228.5</ele>
        <time>2023-01-26T12:18:51Z</time>
      </trkpt>
      <trkpt lat="44.2612" lon="1.64143">
        <ele>228.3</ele>
        <time>2023-01-26T12:18:52Z</time>
      </trkpt>
      <trkpt lat="44.26118" lon="1.64148">
        <ele>228.2</ele>
        <time>2023-01-26T12:18:53Z</time>
      </trkpt>
      <trkpt lat="44.26114" lon="1.64158">
        <ele>227.9</ele>
        <time>2023-01-26T12:18:55Z</time>
      </trkpt>
      <trkpt lat="44.26114" lon="1.64163">
        <ele>227.8</ele>
        <time>2023-01-26T12:18:56Z</time>
      </trkpt>
      <trkpt lat="44.2611" lon="1.64171">
        <ele>227.5</ele>
        <time>2023-01-26T12:18:57Z</time>
      </trkpt>
      <trkpt lat="44.26108" lon="1.64179">
        <ele>227.4</ele>
        <time>2023-01-26T12:18:58Z</time>
      </trkpt>
      <trkpt lat="44.26106" lon="1.64184">
        <ele>227.2</ele>
        <time>2023-01-26T12:18:59Z</time>
      </trkpt>
      <trkpt lat="44.26103" lon="1.6419">
        <ele>227.1</ele>
        <time>2023-01-26T12:19:01Z</time>
      </trkpt>
      <trkpt lat="44.261" lon="1.64197">
        <ele>226.9</ele>
        <time>2023-01-26T12:19:02Z</time>
      </trkpt>
      <trkpt lat="44.26099" lon="1.64204">
        <ele>226.8</ele>
        <time>2023-01-26T12:19:03Z</time>
      </trkpt>
      <trkpt lat="44.26099" lon="1.64211">
        <ele>226.7</ele>
        <time>2023-01-26T12:19:04Z</time>
      </trkpt>
      <trkpt lat="44.26099" lon="1.64217">
        <ele>226.6</ele>
        <time>2023-01-26T12:19:05Z</time>
      </trkpt>
      <trkpt lat="44.261" lon="1.64225">
        <ele>226.6</ele>
        <time>2023-01-26T12:19:06Z</time>
      </trkpt>
      <trkpt lat="44.26101" lon="1.64232">
        <ele>226.5</ele>
        <time>2023-01-26T12:19:07Z</time>
      </trkpt>
      <trkpt lat="44.26102" lon="1.64241">
        <ele>226.4</ele>
        <time>2023-01-26T12:19:09Z</time>
      </trkpt>
      <trkpt lat="44.26103" lon="1.64246">
        <ele>226.4</ele>
        <time>2023-01-26T12:19:10Z</time>
      </trkpt>
      <trkpt lat="44.26104" lon="1.64253">
        <ele>226.3</ele>
        <time>2023-01-26T12:19:11Z</time>
      </trkpt>
      <trkpt lat="44.26105" lon="1.6426">
        <ele>226.2</ele>
        <time>2023-01-26T12:19:12Z</time>
      </trkpt>
      <trkpt lat="44.26105" lon="1.64271">
        <ele>226.2</ele>
        <time>2023-01-26T12:19:14Z</time>
      </trkpt>
      <trkpt lat="44.26105" lon="1.64278">
        <ele>226.1</ele>
        <time>2023-01-26T12:19:15Z</time>
      </trkpt>
      <trkpt lat="44.26103" lon="1.6429">
        <ele>226.1</ele>
        <time>2023-01-26T12:19:16Z</time>
      </trkpt>
      <trkpt lat="44.26102" lon="1.64297">
        <ele>226.1</ele>
        <time>2023-01-26T12:19:18Z</time>
      </trkpt>
      <trkpt lat="44.261" lon="1.64303">
        <ele>226.1</ele>
        <time>2023-01-26T12:19:19Z</time>
      </trkpt>
      <trkpt lat="44.26097" lon="1.64314">
        <ele>226.1</ele>
        <time>2023-01-26T12:19:21Z</time>
      </trkpt>
      <trkpt lat="44.26096" lon="1.64321">
        <ele>226</ele>
        <time>2023-01-26T12:19:22Z</time>
      </trkpt>
      <trkpt lat="44.26096" lon="1.64329">
        <ele>226</ele>
        <time>2023-01-26T12:19:23Z</time>
      </trkpt>
      <trkpt lat="44.26095" lon="1.64336">
        <ele>225.9</ele>
        <time>2023-01-26T12:19:24Z</time>
      </trkpt>
      <trkpt lat="44.26095" lon="1.64343">
        <ele>225.7</ele>
        <time>2023-01-26T12:19:25Z</time>
      </trkpt>
      <trkpt lat="44.26095" lon="1.64351">
        <ele>225.6</ele>
        <time>2023-01-26T12:19:26Z</time>
      </trkpt>
      <trkpt lat="44.26096" lon="1.64357">
        <ele>225.5</ele>
        <time>2023-01-26T12:19:27Z</time>
      </trkpt>
      <trkpt lat="44.26097" lon="1.64366">
        <ele>225.3</ele>
        <time>2023-01-26T12:19:29Z</time>
      </trkpt>
      <trkpt lat="44.26098" lon="1.64373">
        <ele>225.1</ele>
        <time>2023-01-26T12:19:30Z</time>
      </trkpt>
      <trkpt lat="44.26099" lon="1.64379">
        <ele>225</ele>
        <time>2023-01-26T12:19:31Z</time>
      </trkpt>
      <trkpt lat="44.261" lon="1.64385">
        <ele>224.9</ele>
        <time>2023-01-26T12:19:32Z</time>
      </trkpt>
      <trkpt lat="44.261" lon="1.64392">
        <ele>225.1</ele>
        <time>2023-01-26T12:19:34Z</time>
      </trkpt>
      <trkpt lat="44.261" lon="1.64394">
        <ele>225.2</ele>
        <time>2023-01-26T12:19:35Z</time>
      </trkpt>
      <trkpt lat="44.261" lon="1.64397">
        <ele>225.3</ele>
        <time>2023-01-26T12:19:36Z</time>
      </trkpt>
      <trkpt lat="44.26099" lon="1.64401">
        <ele>225.5</ele>
        <time>2023-01-26T12:19:37Z</time>
      </trkpt>
      <trkpt lat="44.26096" lon="1.64405">
        <ele>225.8</ele>
        <time>2023-01-26T12:19:38Z</time>
      </trkpt>
      <trkpt lat="44.26095" lon="1.64406">
        <ele>225.9</ele>
        <time>2023-01-26T12:19:39Z</time>
      </trkpt>
      <trkpt lat="44.26094" lon="1.64409">
        <ele>226</ele>
        <time>2023-01-26T12:19:40Z</time>
      </trkpt>
      <trkpt lat="44.26092" lon="1.64414">
        <ele>226.3</ele>
        <time>2023-01-26T12:19:42Z</time>
      </trkpt>
      <trkpt lat="44.26091" lon="1.6442">
        <ele>226.5</ele>
        <time>2023-01-26T12:19:43Z</time>
      </trkpt>
      <trkpt lat="44.26091" lon="1.64422">
        <ele>226.6</ele>
        <time>2023-01-26T12:19:44Z</time>
      </trkpt>
      <trkpt lat="44.2609" lon="1.64427">
        <ele>226.7</ele>
        <time>2023-01-26T12:19:45Z</time>
      </trkpt>
      <trkpt lat="44.26088" lon="1.64431">
        <ele>226.8</ele>
        <time>2023-01-26T12:19:46Z</time>
      </trkpt>
      <trkpt lat="44.26087" lon="1.64437">
        <ele>227</ele>
        <time>2023-01-26T12:19:48Z</time>
      </trkpt>
      <trkpt lat="44.26086" lon="1.64442">
        <ele>227.1</ele>
        <time>2023-01-26T12:19:49Z</time>
      </trkpt>
      <trkpt lat="44.26085" lon="1.64447">
        <ele>227.2</ele>
        <time>2023-01-26T12:19:50Z</time>
      </trkpt>
      <trkpt lat="44.26084" lon="1.64452">
        <ele>227.4</ele>
        <time>2023-01-26T12:19:51Z</time>
      </trkpt>
      <trkpt lat="44.26083" lon="1.64457">
        <ele>227.5</ele>
        <time>2023-01-26T12:19:52Z</time>
      </trkpt>
      <trkpt lat="44.26081" lon="1.64464">
        <ele>227.7</ele>
        <time>2023-01-26T12:19:54Z</time>
      </trkpt>
      <trkpt lat="44.26079" lon="1.64466">
        <ele>227.9</ele>
        <time>2023-01-26T12:19:55Z</time>
      </trkpt>
      <trkpt lat="44.26076" lon="1.64468">
        <ele>228</ele>
        <time>2023-01-26T12:19:56Z</time>
      </trkpt>
      <trkpt lat="44.26073" lon="1.64469">
        <ele>228.1</ele>
        <time>2023-01-26T12:19:57Z</time>
      </trkpt>
      <trkpt lat="44.26068" lon="1.64469">
        <ele>228.4</ele>
        <time>2023-01-26T12:19:58Z</time>
      </trkpt>
      <trkpt lat="44.26065" lon="1.64469">
        <ele>228.6</ele>
        <time>2023-01-26T12:20:00Z</time>
      </trkpt>
      <trkpt lat="44.26062" lon="1.64469">
        <ele>228.7</ele>
        <time>2023-01-26T12:20:01Z</time>
      </trkpt>
      <trkpt lat="44.26059" lon="1.6447">
        <ele>228.8</ele>
        <time>2023-01-26T12:20:02Z</time>
      </trkpt>
      <trkpt lat="44.26057" lon="1.64471">
        <ele>228.9</ele>
        <time>2023-01-26T12:20:03Z</time>
      </trkpt>
      <trkpt lat="44.26051" lon="1.64475">
        <ele>229.1</ele>
        <time>2023-01-26T12:20:04Z</time>
      </trkpt>
      <trkpt lat="44.26048" lon="1.64478">
        <ele>229.3</ele>
        <time>2023-01-26T12:20:06Z</time>
      </trkpt>
      <trkpt lat="44.26047" lon="1.64481">
        <ele>229.3</ele>
        <time>2023-01-26T12:20:07Z</time>
      </trkpt>
      <trkpt lat="44.26046" lon="1.64487">
        <ele>229.2</ele>
        <time>2023-01-26T12:20:09Z</time>
      </trkpt>
      <trkpt lat="44.26046" lon="1.64488">
        <ele>229.2</ele>
        <time>2023-01-26T12:20:10Z</time>
      </trkpt>
      <trkpt lat="44.26046" lon="1.64488">
        <ele>229.2</ele>
        <time>2023-01-26T12:20:11Z</time>
      </trkpt>
      <trkpt lat="44.26046" lon="1.64488">
        <ele>229.2</ele>
        <time>2023-01-26T12:20:13Z</time>
      </trkpt>
      <trkpt lat="44.26046" lon="1.64488">
        <ele>229.2</ele>
        <time>2023-01-26T12:20:14Z</time>
      </trkpt>
      <trkpt lat="44.26046" lon="1.64488">
        <ele>229.2</ele>
        <time>2023-01-26T12:20:15Z</time>
      </trkpt>
      <trkpt lat="44.26046" lon="1.64489">
        <ele>229.3</ele>
        <time>2023-01-26T12:20:17Z</time>
      </trkpt>
      <trkpt lat="44.26045" lon="1.64489">
        <ele>229.3</ele>
        <time>2023-01-26T12:20:18Z</time>
      </trkpt>
      <trkpt lat="44.26045" lon="1.64489">
        <ele>229.3</ele>
        <time>2023-01-26T12:20:19Z</time>
      </trkpt>
      <trkpt lat="44.26045" lon="1.6449">
        <ele>229.3</ele>
        <time>2023-01-26T12:20:20Z</time>
      </trkpt>
      <trkpt lat="44.26044" lon="1.64497">
        <ele>229.8</ele>
        <time>2023-01-26T12:20:22Z</time>
      </trkpt>
      <trkpt lat="44.26044" lon="1.64502">
        <ele>229.8</ele>
        <time>2023-01-26T12:20:24Z</time>
      </trkpt>
      <trkpt lat="44.26044" lon="1.64503">
        <ele>229.8</ele>
        <time>2023-01-26T12:20:25Z</time>
      </trkpt>
      <trkpt lat="44.26044" lon="1.64509">
        <ele>229.7</ele>
        <time>2023-01-26T12:20:26Z</time>
      </trkpt>
      <trkpt lat="44.26044" lon="1.6451">
        <ele>229.7</ele>
        <time>2023-01-26T12:20:27Z</time>
      </trkpt>
      <trkpt lat="44.26043" lon="1.64515">
        <ele>229.7</ele>
        <time>2023-01-26T12:20:28Z</time>
      </trkpt>
      <trkpt lat="44.26042" lon="1.6452">
        <ele>229.7</ele>
        <time>2023-01-26T12:20:29Z</time>
      </trkpt>
      <trkpt lat="44.26042" lon="1.64522">
        <ele>229.6</ele>
        <time>2023-01-26T12:20:30Z</time>
      </trkpt>
      <trkpt lat="44.26042" lon="1.64527">
        <ele>229.6</ele>
        <time>2023-01-26T12:20:32Z</time>
      </trkpt>
      <trkpt lat="44.26042" lon="1.64531">
        <ele>229.6</ele>
        <time>2023-01-26T12:20:33Z</time>
      </trkpt>
      <trkpt lat="44.26041" lon="1.64536">
        <ele>229.6</ele>
        <time>2023-01-26T12:20:34Z</time>
      </trkpt>
      <trkpt lat="44.26041" lon="1.64543">
        <ele>229.4</ele>
        <time>2023-01-26T12:20:35Z</time>
      </trkpt>
      <trkpt lat="44.26041" lon="1.64549">
        <ele>229.4</ele>
        <time>2023-01-26T12:20:37Z</time>
      </trkpt>
      <trkpt lat="44.2604" lon="1.64555">
        <ele>229.2</ele>
        <time>2023-01-26T12:20:38Z</time>
      </trkpt>
      <trkpt lat="44.26039" lon="1.64558">
        <ele>229.2</ele>
        <time>2023-01-26T12:20:39Z</time>
      </trkpt>
      <trkpt lat="44.26037" lon="1.64564">
        <ele>229.2</ele>
        <time>2023-01-26T12:20:40Z</time>
      </trkpt>
      <trkpt lat="44.26035" lon="1.64568">
        <ele>229.2</ele>
        <time>2023-01-26T12:20:41Z</time>
      </trkpt>
      <trkpt lat="44.26031" lon="1.64581">
        <ele>229.4</ele>
        <time>2023-01-26T12:20:43Z</time>
      </trkpt>
      <trkpt lat="44.26028" lon="1.64588">
        <ele>229.5</ele>
        <time>2023-01-26T12:20:45Z</time>
      </trkpt>
      <trkpt lat="44.26026" lon="1.64593">
        <ele>229.4</ele>
        <time>2023-01-26T12:20:46Z</time>
      </trkpt>
      <trkpt lat="44.26023" lon="1.64601">
        <ele>229.4</ele>
        <time>2023-01-26T12:20:47Z</time>
      </trkpt>
      <trkpt lat="44.2602" lon="1.64611">
        <ele>229.4</ele>
        <time>2023-01-26T12:20:48Z</time>
      </trkpt>
      <trkpt lat="44.26017" lon="1.64623">
        <ele>229.4</ele>
        <time>2023-01-26T12:20:50Z</time>
      </trkpt>
      <trkpt lat="44.26013" lon="1.64634">
        <ele>229.3</ele>
        <time>2023-01-26T12:20:51Z</time>
      </trkpt>
      <trkpt lat="44.2601" lon="1.64641">
        <ele>229.2</ele>
        <time>2023-01-26T12:20:52Z</time>
      </trkpt>
      <trkpt lat="44.26007" lon="1.6465">
        <ele>229.3</ele>
        <time>2023-01-26T12:20:54Z</time>
      </trkpt>
      <trkpt lat="44.26002" lon="1.64657">
        <ele>229.3</ele>
        <time>2023-01-26T12:20:55Z</time>
      </trkpt>
      <trkpt lat="44.25998" lon="1.64664">
        <ele>229.2</ele>
        <time>2023-01-26T12:20:56Z</time>
      </trkpt>
      <trkpt lat="44.25995" lon="1.64669">
        <ele>229.4</ele>
        <time>2023-01-26T12:20:57Z</time>
      </trkpt>
      <trkpt lat="44.2599" lon="1.64679">
        <ele>229.2</ele>
        <time>2023-01-26T12:20:59Z</time>
      </trkpt>
      <trkpt lat="44.25986" lon="1.64686">
        <ele>229.3</ele>
        <time>2023-01-26T12:21:00Z</time>
      </trkpt>
      <trkpt lat="44.25983" lon="1.64691">
        <ele>229.3</ele>
        <time>2023-01-26T12:21:01Z</time>
      </trkpt>
      <trkpt lat="44.25979" lon="1.64699">
        <ele>229.1</ele>
        <time>2023-01-26T12:21:03Z</time>
      </trkpt>
      <trkpt lat="44.25975" lon="1.64707">
        <ele>229.1</ele>
        <time>2023-01-26T12:21:04Z</time>
      </trkpt>
      <trkpt lat="44.25972" lon="1.64712">
        <ele>228.8</ele>
        <time>2023-01-26T12:21:05Z</time>
      </trkpt>
      <trkpt lat="44.25969" lon="1.64722">
        <ele>228.6</ele>
        <time>2023-01-26T12:21:07Z</time>
      </trkpt>
      <trkpt lat="44.25967" lon="1.6473">
        <ele>228.2</ele>
        <time>2023-01-26T12:21:08Z</time>
      </trkpt>
      <trkpt lat="44.25964" lon="1.64736">
        <ele>228.2</ele>
        <time>2023-01-26T12:21:09Z</time>
      </trkpt>
      <trkpt lat="44.25958" lon="1.64747">
        <ele>227.3</ele>
        <time>2023-01-26T12:21:11Z</time>
      </trkpt>
      <trkpt lat="44.25953" lon="1.64754">
        <ele>227.3</ele>
        <time>2023-01-26T12:21:13Z</time>
      </trkpt>
      <trkpt lat="44.25949" lon="1.64759">
        <ele>227.3</ele>
        <time>2023-01-26T12:21:14Z</time>
      </trkpt>
      <trkpt lat="44.25945" lon="1.64767">
        <ele>226.3</ele>
        <time>2023-01-26T12:21:15Z</time>
      </trkpt>
      <trkpt lat="44.25941" lon="1.6477">
        <ele>226.3</ele>
        <time>2023-01-26T12:21:16Z</time>
      </trkpt>
      <trkpt lat="44.25932" lon="1.64779">
        <ele>225.4</ele>
        <time>2023-01-26T12:21:18Z</time>
      </trkpt>
      <trkpt lat="44.25927" lon="1.64784">
        <ele>225.4</ele>
        <time>2023-01-26T12:21:20Z</time>
      </trkpt>
      <trkpt lat="44.25924" lon="1.64789">
        <ele>225.4</ele>
        <time>2023-01-26T12:21:21Z</time>
      </trkpt>
      <trkpt lat="44.25921" lon="1.64794">
        <ele>225.3</ele>
        <time>2023-01-26T12:21:22Z</time>
      </trkpt>
      <trkpt lat="44.25916" lon="1.64802">
        <ele>224.7</ele>
        <time>2023-01-26T12:21:23Z</time>
      </trkpt>
      <trkpt lat="44.25913" lon="1.64808">
        <ele>224.7</ele>
        <time>2023-01-26T12:21:24Z</time>
      </trkpt>
      <trkpt lat="44.25911" lon="1.64814">
        <ele>223.5</ele>
        <time>2023-01-26T12:21:25Z</time>
      </trkpt>
      <trkpt lat="44.25909" lon="1.6482">
        <ele>223.3</ele>
        <time>2023-01-26T12:21:26Z</time>
      </trkpt>
      <trkpt lat="44.25907" lon="1.64828">
        <ele>223.4</ele>
        <time>2023-01-26T12:21:27Z</time>
      </trkpt>
      <trkpt lat="44.25898" lon="1.64835">
        <ele>220.7</ele>
        <time>2023-01-26T12:21:29Z</time>
      </trkpt>
      <trkpt lat="44.25894" lon="1.6484">
        <ele>220.5</ele>
        <time>2023-01-26T12:21:30Z</time>
      </trkpt>
      <trkpt lat="44.25889" lon="1.64844">
        <ele>220.5</ele>
        <time>2023-01-26T12:21:31Z</time>
      </trkpt>
      <trkpt lat="44.25884" lon="1.64848">
        <ele>217.9</ele>
        <time>2023-01-26T12:21:32Z</time>
      </trkpt>
      <trkpt lat="44.2588" lon="1.64851">
        <ele>217.9</ele>
        <time>2023-01-26T12:21:33Z</time>
      </trkpt>
      <trkpt lat="44.25876" lon="1.64854">
        <ele>217.9</ele>
        <time>2023-01-26T12:21:34Z</time>
      </trkpt>
      <trkpt lat="44.25873" lon="1.64856">
        <ele>217.9</ele>
        <time>2023-01-26T12:21:35Z</time>
      </trkpt>
      <trkpt lat="44.25868" lon="1.64861">
        <ele>218.2</ele>
        <time>2023-01-26T12:21:36Z</time>
      </trkpt>
      <trkpt lat="44.25863" lon="1.64863">
        <ele>218.2</ele>
        <time>2023-01-26T12:21:37Z</time>
      </trkpt>
      <trkpt lat="44.25859" lon="1.64863">
        <ele>218.7</ele>
        <time>2023-01-26T12:21:38Z</time>
      </trkpt>
      <trkpt lat="44.25855" lon="1.64863">
        <ele>218.8</ele>
        <time>2023-01-26T12:21:39Z</time>
      </trkpt>
      <trkpt lat="44.25851" lon="1.64863">
        <ele>218.8</ele>
        <time>2023-01-26T12:21:40Z</time>
      </trkpt>
      <trkpt lat="44.25847" lon="1.64865">
        <ele>216.8</ele>
        <time>2023-01-26T12:21:41Z</time>
      </trkpt>
      <trkpt lat="44.25842" lon="1.64872">
        <ele>216.8</ele>
        <time>2023-01-26T12:21:42Z</time>
      </trkpt>
      <trkpt lat="44.25838" lon="1.64876">
        <ele>216.8</ele>
        <time>2023-01-26T12:21:43Z</time>
      </trkpt>
      <trkpt lat="44.25835" lon="1.6488">
        <ele>217.5</ele>
        <time>2023-01-26T12:21:44Z</time>
      </trkpt>
      <trkpt lat="44.25827" lon="1.64883">
        <ele>214.7</ele>
        <time>2023-01-26T12:21:46Z</time>
      </trkpt>
      <trkpt lat="44.2582" lon="1.64882">
        <ele>214.9</ele>
        <time>2023-01-26T12:21:47Z</time>
      </trkpt>
      <trkpt lat="44.25811" lon="1.64885">
        <ele>215.2</ele>
        <time>2023-01-26T12:21:49Z</time>
      </trkpt>
      <trkpt lat="44.25806" lon="1.64886">
        <ele>215.2</ele>
        <time>2023-01-26T12:21:50Z</time>
      </trkpt>
      <trkpt lat="44.25799" lon="1.64883">
        <ele>215.2</ele>
        <time>2023-01-26T12:21:51Z</time>
      </trkpt>
      <trkpt lat="44.25792" lon="1.64886">
        <ele>215.6</ele>
        <time>2023-01-26T12:21:53Z</time>
      </trkpt>
      <trkpt lat="44.25787" lon="1.64888">
        <ele>215.6</ele>
        <time>2023-01-26T12:21:54Z</time>
      </trkpt>
      <trkpt lat="44.25782" lon="1.64889">
        <ele>216.3</ele>
        <time>2023-01-26T12:21:55Z</time>
      </trkpt>
      <trkpt lat="44.25777" lon="1.64891">
        <ele>216.3</ele>
        <time>2023-01-26T12:21:56Z</time>
      </trkpt>
      <trkpt lat="44.2577" lon="1.64894">
        <ele>217.3</ele>
        <time>2023-01-26T12:21:58Z</time>
      </trkpt>
      <trkpt lat="44.25762" lon="1.64895">
        <ele>218.3</ele>
        <time>2023-01-26T12:22:00Z</time>
      </trkpt>
      <trkpt lat="44.25759" lon="1.64894">
        <ele>218.3</ele>
        <time>2023-01-26T12:22:01Z</time>
      </trkpt>
      <trkpt lat="44.25756" lon="1.64892">
        <ele>218.3</ele>
        <time>2023-01-26T12:22:02Z</time>
      </trkpt>
      <trkpt lat="44.25751" lon="1.64892">
        <ele>218.3</ele>
        <time>2023-01-26T12:22:04Z</time>
      </trkpt>
      <trkpt lat="44.25746" lon="1.64893">
        <ele>219.3</ele>
        <time>2023-01-26T12:22:05Z</time>
      </trkpt>
      <trkpt lat="44.25742" lon="1.64894">
        <ele>219.3</ele>
        <time>2023-01-26T12:22:06Z</time>
      </trkpt>
      <trkpt lat="44.25736" lon="1.64896">
        <ele>219.9</ele>
        <time>2023-01-26T12:22:08Z</time>
      </trkpt>
      <trkpt lat="44.25729" lon="1.649">
        <ele>217.2</ele>
        <time>2023-01-26T12:22:09Z</time>
      </trkpt>
      <trkpt lat="44.25723" lon="1.64903">
        <ele>217.8</ele>
        <time>2023-01-26T12:22:11Z</time>
      </trkpt>
      <trkpt lat="44.25718" lon="1.64904">
        <ele>217.9</ele>
        <time>2023-01-26T12:22:12Z</time>
      </trkpt>
      <trkpt lat="44.25713" lon="1.64906">
        <ele>217.9</ele>
        <time>2023-01-26T12:22:13Z</time>
      </trkpt>
      <trkpt lat="44.25705" lon="1.64908">
        <ele>218.3</ele>
        <time>2023-01-26T12:22:15Z</time>
      </trkpt>
      <trkpt lat="44.25701" lon="1.64908">
        <ele>218.3</ele>
        <time>2023-01-26T12:22:16Z</time>
      </trkpt>
      <trkpt lat="44.25693" lon="1.64907">
        <ele>218.4</ele>
        <time>2023-01-26T12:22:17Z</time>
      </trkpt>
      <trkpt lat="44.25687" lon="1.64906">
        <ele>218.5</ele>
        <time>2023-01-26T12:22:19Z</time>
      </trkpt>
      <trkpt lat="44.25683" lon="1.64904">
        <ele>218.5</ele>
        <time>2023-01-26T12:22:20Z</time>
      </trkpt>
      <trkpt lat="44.25679" lon="1.64902">
        <ele>218.5</ele>
        <time>2023-01-26T12:22:21Z</time>
      </trkpt>
      <trkpt lat="44.25676" lon="1.64901">
        <ele>218.7</ele>
        <time>2023-01-26T12:22:22Z</time>
      </trkpt>
      <trkpt lat="44.25668" lon="1.649">
        <ele>218.7</ele>
        <time>2023-01-26T12:22:24Z</time>
      </trkpt>
      <trkpt lat="44.25662" lon="1.649">
        <ele>218.7</ele>
        <time>2023-01-26T12:22:25Z</time>
      </trkpt>
      <trkpt lat="44.25656" lon="1.649">
        <ele>218.8</ele>
        <time>2023-01-26T12:22:26Z</time>
      </trkpt>
      <trkpt lat="44.25651" lon="1.64899">
        <ele>218.8</ele>
        <time>2023-01-26T12:22:27Z</time>
      </trkpt>
      <trkpt lat="44.25646" lon="1.64898">
        <ele>220.1</ele>
        <time>2023-01-26T12:22:28Z</time>
      </trkpt>
      <trkpt lat="44.25642" lon="1.64898">
        <ele>220.2</ele>
        <time>2023-01-26T12:22:29Z</time>
      </trkpt>
      <trkpt lat="44.25637" lon="1.64899">
        <ele>218.2</ele>
        <time>2023-01-26T12:22:30Z</time>
      </trkpt>
      <trkpt lat="44.25633" lon="1.649">
        <ele>218.2</ele>
        <time>2023-01-26T12:22:31Z</time>
      </trkpt>
      <trkpt lat="44.25628" lon="1.649">
        <ele>218.2</ele>
        <time>2023-01-26T12:22:32Z</time>
      </trkpt>
      <trkpt lat="44.25623" lon="1.64899">
        <ele>217.7</ele>
        <time>2023-01-26T12:22:33Z</time>
      </trkpt>
      <trkpt lat="44.25619" lon="1.64897">
        <ele>219.3</ele>
        <time>2023-01-26T12:22:34Z</time>
      </trkpt>
      <trkpt lat="44.25616" lon="1.64896">
        <ele>219.3</ele>
        <time>2023-01-26T12:22:35Z</time>
      </trkpt>
      <trkpt lat="44.2561" lon="1.64891">
        <ele>218.5</ele>
        <time>2023-01-26T12:22:37Z</time>
      </trkpt>
      <trkpt lat="44.25605" lon="1.64887">
        <ele>218.6</ele>
        <time>2023-01-26T12:22:38Z</time>
      </trkpt>
      <trkpt lat="44.25602" lon="1.64884">
        <ele>218.6</ele>
        <time>2023-01-26T12:22:39Z</time>
      </trkpt>
      <trkpt lat="44.25597" lon="1.64879">
        <ele>219.2</ele>
        <time>2023-01-26T12:22:41Z</time>
      </trkpt>
      <trkpt lat="44.25593" lon="1.64877">
        <ele>219.2</ele>
        <time>2023-01-26T12:22:42Z</time>
      </trkpt>
      <trkpt lat="44.25587" lon="1.64877">
        <ele>218.2</ele>
        <time>2023-01-26T12:22:43Z</time>
      </trkpt>
      <trkpt lat="44.25581" lon="1.64876">
        <ele>218.3</ele>
        <time>2023-01-26T12:22:45Z</time>
      </trkpt>
      <trkpt lat="44.25576" lon="1.64869">
        <ele>217.2</ele>
        <time>2023-01-26T12:22:47Z</time>
      </trkpt>
      <trkpt lat="44.25573" lon="1.64864">
        <ele>217.2</ele>
        <time>2023-01-26T12:22:48Z</time>
      </trkpt>
      <trkpt lat="44.2557" lon="1.64862">
        <ele>218.8</ele>
        <time>2023-01-26T12:22:49Z</time>
      </trkpt>
      <trkpt lat="44.25566" lon="1.64861">
        <ele>218.8</ele>
        <time>2023-01-26T12:22:50Z</time>
      </trkpt>
      <trkpt lat="44.25562" lon="1.6486">
        <ele>217.9</ele>
        <time>2023-01-26T12:22:51Z</time>
      </trkpt>
      <trkpt lat="44.25557" lon="1.64857">
        <ele>218</ele>
        <time>2023-01-26T12:22:53Z</time>
      </trkpt>
      <trkpt lat="44.25552" lon="1.64853">
        <ele>216.8</ele>
        <time>2023-01-26T12:22:54Z</time>
      </trkpt>
      <trkpt lat="44.25548" lon="1.64848">
        <ele>216.8</ele>
        <time>2023-01-26T12:22:55Z</time>
      </trkpt>
      <trkpt lat="44.25545" lon="1.64842">
        <ele>218.3</ele>
        <time>2023-01-26T12:22:56Z</time>
      </trkpt>
      <trkpt lat="44.2554" lon="1.64834">
        <ele>217.2</ele>
        <time>2023-01-26T12:22:58Z</time>
      </trkpt>
      <trkpt lat="44.25537" lon="1.6483">
        <ele>217.3</ele>
        <time>2023-01-26T12:22:59Z</time>
      </trkpt>
      <trkpt lat="44.25532" lon="1.64826">
        <ele>218.9</ele>
        <time>2023-01-26T12:23:00Z</time>
      </trkpt>
      <trkpt lat="44.25529" lon="1.64823">
        <ele>218.9</ele>
        <time>2023-01-26T12:23:01Z</time>
      </trkpt>
      <trkpt lat="44.25524" lon="1.6482">
        <ele>217.8</ele>
        <time>2023-01-26T12:23:03Z</time>
      </trkpt>
      <trkpt lat="44.25523" lon="1.64816">
        <ele>217.8</ele>
        <time>2023-01-26T12:23:04Z</time>
      </trkpt>
      <trkpt lat="44.25521" lon="1.64812">
        <ele>219.4</ele>
        <time>2023-01-26T12:23:05Z</time>
      </trkpt>
      <trkpt lat="44.25518" lon="1.64809">
        <ele>219.4</ele>
        <time>2023-01-26T12:23:06Z</time>
      </trkpt>
      <trkpt lat="44.25515" lon="1.64807">
        <ele>218.6</ele>
        <time>2023-01-26T12:23:07Z</time>
      </trkpt>
      <trkpt lat="44.25511" lon="1.64803">
        <ele>218.6</ele>
        <time>2023-01-26T12:23:08Z</time>
      </trkpt>
      <trkpt lat="44.25508" lon="1.64801">
        <ele>218.6</ele>
        <time>2023-01-26T12:23:09Z</time>
      </trkpt>
      <trkpt lat="44.25505" lon="1.64797">
        <ele>218.6</ele>
        <time>2023-01-26T12:23:10Z</time>
      </trkpt>
      <trkpt lat="44.25501" lon="1.64793">
        <ele>219.3</ele>
        <time>2023-01-26T12:23:12Z</time>
      </trkpt>
      <trkpt lat="44.255" lon="1.64791">
        <ele>219.4</ele>
        <time>2023-01-26T12:23:13Z</time>
      </trkpt>
      <trkpt lat="44.25499" lon="1.64789">
        <ele>219.4</ele>
        <time>2023-01-26T12:23:14Z</time>
      </trkpt>
      <trkpt lat="44.25498" lon="1.64787">
        <ele>219.4</ele>
        <time>2023-01-26T12:23:15Z</time>
      </trkpt>
      <trkpt lat="44.25498" lon="1.64786">
        <ele>219.4</ele>
        <time>2023-01-26T12:23:17Z</time>
      </trkpt>
      <trkpt lat="44.25498" lon="1.64785">
        <ele>219.4</ele>
        <time>2023-01-26T12:23:18Z</time>
      </trkpt>
      <trkpt lat="44.25498" lon="1.64785">
        <ele>219.5</ele>
        <time>2023-01-26T12:23:20Z</time>
      </trkpt>
      <trkpt lat="44.25498" lon="1.64784">
        <ele>219.5</ele>
        <time>2023-01-26T12:23:21Z</time>
      </trkpt>
      <trkpt lat="44.25497" lon="1.64783">
        <ele>219.5</ele>
        <time>2023-01-26T12:23:22Z</time>
      </trkpt>
      <trkpt lat="44.25496" lon="1.64783">
        <ele>219.5</ele>
        <time>2023-01-26T12:23:23Z</time>
      </trkpt>
      <trkpt lat="44.25496" lon="1.64782">
        <ele>219.5</ele>
        <time>2023-01-26T12:23:25Z</time>
      </trkpt>
      <trkpt lat="44.25495" lon="1.64781">
        <ele>219.5</ele>
        <time>2023-01-26T12:23:26Z</time>
      </trkpt>
      <trkpt lat="44.25495" lon="1.64781">
        <ele>219.6</ele>
        <time>2023-01-26T12:23:28Z</time>
      </trkpt>
      <trkpt lat="44.25494" lon="1.6478">
        <ele>219.6</ele>
        <time>2023-01-26T12:24:24Z</time>
      </trkpt>
      <trkpt lat="44.25493" lon="1.64779">
        <ele>219.6</ele>
        <time>2023-01-26T12:24:25Z</time>
      </trkpt>
      <trkpt lat="44.25493" lon="1.64779">
        <ele>219.6</ele>
        <time>2023-01-26T12:24:26Z</time>
      </trkpt>
      <trkpt lat="44.25491" lon="1.64776">
        <ele>220.6</ele>
        <time>2023-01-26T12:24:27Z</time>
      </trkpt>
      <trkpt lat="44.2549" lon="1.64775">
        <ele>220.6</ele>
        <time>2023-01-26T12:24:28Z</time>
      </trkpt>
      <trkpt lat="44.25488" lon="1.64773">
        <ele>220.7</ele>
        <time>2023-01-26T12:24:29Z</time>
      </trkpt>
      <trkpt lat="44.25482" lon="1.64772">
        <ele>220.7</ele>
        <time>2023-01-26T12:24:30Z</time>
      </trkpt>
      <trkpt lat="44.25478" lon="1.64771">
        <ele>219.3</ele>
        <time>2023-01-26T12:24:32Z</time>
      </trkpt>
      <trkpt lat="44.25474" lon="1.6477">
        <ele>219.4</ele>
        <time>2023-01-26T12:24:33Z</time>
      </trkpt>
      <trkpt lat="44.25471" lon="1.64769">
        <ele>219.4</ele>
        <time>2023-01-26T12:24:34Z</time>
      </trkpt>
      <trkpt lat="44.25469" lon="1.64768">
        <ele>219.4</ele>
        <time>2023-01-26T12:24:35Z</time>
      </trkpt>
      <trkpt lat="44.25466" lon="1.64767">
        <ele>217.7</ele>
        <time>2023-01-26T12:24:36Z</time>
      </trkpt>
      <trkpt lat="44.25465" lon="1.64766">
        <ele>217.7</ele>
        <time>2023-01-26T12:24:38Z</time>
      </trkpt>
      <trkpt lat="44.25463" lon="1.64763">
        <ele>217.8</ele>
        <time>2023-01-26T12:24:39Z</time>
      </trkpt>
      <trkpt lat="44.25462" lon="1.64762">
        <ele>217.8</ele>
        <time>2023-01-26T12:24:40Z</time>
      </trkpt>
      <trkpt lat="44.2546" lon="1.64759">
        <ele>219.7</ele>
        <time>2023-01-26T12:24:41Z</time>
      </trkpt>
      <trkpt lat="44.25459" lon="1.64758">
        <ele>219.8</ele>
        <time>2023-01-26T12:24:42Z</time>
      </trkpt>
      <trkpt lat="44.25456" lon="1.64753">
        <ele>219.8</ele>
        <time>2023-01-26T12:24:44Z</time>
      </trkpt>
      <trkpt lat="44.25455" lon="1.64751">
        <ele>219.8</ele>
        <time>2023-01-26T12:24:45Z</time>
      </trkpt>
      <trkpt lat="44.25454" lon="1.64749">
        <ele>218.6</ele>
        <time>2023-01-26T12:24:46Z</time>
      </trkpt>
      <trkpt lat="44.25452" lon="1.64746">
        <ele>218.6</ele>
        <time>2023-01-26T12:24:47Z</time>
      </trkpt>
      <trkpt lat="44.25451" lon="1.64744">
        <ele>218.6</ele>
        <time>2023-01-26T12:24:49Z</time>
      </trkpt>
      <trkpt lat="44.25448" lon="1.64739">
        <ele>220.8</ele>
        <time>2023-01-26T12:24:50Z</time>
      </trkpt>
      <trkpt lat="44.25447" lon="1.64738">
        <ele>220.9</ele>
        <time>2023-01-26T12:24:51Z</time>
      </trkpt>
      <trkpt lat="44.25446" lon="1.64736">
        <ele>220.9</ele>
        <time>2023-01-26T12:24:52Z</time>
      </trkpt>
      <trkpt lat="44.25444" lon="1.64734">
        <ele>220.9</ele>
        <time>2023-01-26T12:24:54Z</time>
      </trkpt>
      <trkpt lat="44.25442" lon="1.6473">
        <ele>220</ele>
        <time>2023-01-26T12:24:55Z</time>
      </trkpt>
      <trkpt lat="44.25438" lon="1.64726">
        <ele>221.8</ele>
        <time>2023-01-26T12:24:57Z</time>
      </trkpt>
      <trkpt lat="44.25437" lon="1.64725">
        <ele>221.8</ele>
        <time>2023-01-26T12:24:58Z</time>
      </trkpt>
      <trkpt lat="44.25436" lon="1.64723">
        <ele>221.8</ele>
        <time>2023-01-26T12:24:59Z</time>
      </trkpt>
      <trkpt lat="44.25433" lon="1.64721">
        <ele>221.9</ele>
        <time>2023-01-26T12:25:00Z</time>
      </trkpt>
      <trkpt lat="44.25431" lon="1.64718">
        <ele>221.9</ele>
        <time>2023-01-26T12:25:02Z</time>
      </trkpt>
      <trkpt lat="44.25429" lon="1.64717">
        <ele>221.4</ele>
        <time>2023-01-26T12:25:03Z</time>
      </trkpt>
      <trkpt lat="44.25428" lon="1.64716">
        <ele>221.4</ele>
        <time>2023-01-26T12:25:04Z</time>
      </trkpt>
      <trkpt lat="44.25427" lon="1.64716">
        <ele>221.4</ele>
        <time>2023-01-26T12:25:05Z</time>
      </trkpt>
      <trkpt lat="44.25425" lon="1.64716">
        <ele>221.4</ele>
        <time>2023-01-26T12:25:06Z</time>
      </trkpt>
      <trkpt lat="44.25424" lon="1.64717">
        <ele>221.4</ele>
        <time>2023-01-26T12:25:08Z</time>
      </trkpt>
      <trkpt lat="44.25422" lon="1.64717">
        <ele>221.4</ele>
        <time>2023-01-26T12:25:09Z</time>
      </trkpt>
      <trkpt lat="44.2542" lon="1.64718">
        <ele>221.5</ele>
        <time>2023-01-26T12:25:10Z</time>
      </trkpt>
      <trkpt lat="44.25418" lon="1.64718">
        <ele>221.5</ele>
        <time>2023-01-26T12:25:12Z</time>
      </trkpt>
      <trkpt lat="44.25416" lon="1.6472">
        <ele>220.8</ele>
        <time>2023-01-26T12:25:13Z</time>
      </trkpt>
      <trkpt lat="44.25415" lon="1.64722">
        <ele>220.8</ele>
        <time>2023-01-26T12:25:14Z</time>
      </trkpt>
      <trkpt lat="44.25414" lon="1.64723">
        <ele>220.8</ele>
        <time>2023-01-26T12:25:16Z</time>
      </trkpt>
      <trkpt lat="44.25413" lon="1.64724">
        <ele>220.8</ele>
        <time>2023-01-26T12:25:17Z</time>
      </trkpt>
      <trkpt lat="44.2541" lon="1.64725">
        <ele>220.9</ele>
        <time>2023-01-26T12:25:18Z</time>
      </trkpt>
      <trkpt lat="44.25409" lon="1.64726">
        <ele>220.9</ele>
        <time>2023-01-26T12:25:19Z</time>
      </trkpt>
      <trkpt lat="44.25406" lon="1.64728">
        <ele>218.2</ele>
        <time>2023-01-26T12:25:20Z</time>
      </trkpt>
      <trkpt lat="44.25404" lon="1.64729">
        <ele>217.2</ele>
        <time>2023-01-26T12:25:21Z</time>
      </trkpt>
      <trkpt lat="44.254" lon="1.6473">
        <ele>217.2</ele>
        <time>2023-01-26T12:25:23Z</time>
      </trkpt>
      <trkpt lat="44.25399" lon="1.64729">
        <ele>217.2</ele>
        <time>2023-01-26T12:25:24Z</time>
      </trkpt>
      <trkpt lat="44.25397" lon="1.64727">
        <ele>217.2</ele>
        <time>2023-01-26T12:25:25Z</time>
      </trkpt>
      <trkpt lat="44.25395" lon="1.64724">
        <ele>220.1</ele>
        <time>2023-01-26T12:25:27Z</time>
      </trkpt>
      <trkpt lat="44.25394" lon="1.6472">
        <ele>220.2</ele>
        <time>2023-01-26T12:25:28Z</time>
      </trkpt>
      <trkpt lat="44.25393" lon="1.64715">
        <ele>218.9</ele>
        <time>2023-01-26T12:25:30Z</time>
      </trkpt>
      <trkpt lat="44.25392" lon="1.64714">
        <ele>218.9</ele>
        <time>2023-01-26T12:25:31Z</time>
      </trkpt>
      <trkpt lat="44.25392" lon="1.64714">
        <ele>218.9</ele>
        <time>2023-01-26T12:25:33Z</time>
      </trkpt>
      <trkpt lat="44.25391" lon="1.64713">
        <ele>218.9</ele>
        <time>2023-01-26T12:25:34Z</time>
      </trkpt>
      <trkpt lat="44.25391" lon="1.64712">
        <ele>218.9</ele>
        <time>2023-01-26T12:25:36Z</time>
      </trkpt>
      <trkpt lat="44.25391" lon="1.64711">
        <ele>219</ele>
        <time>2023-01-26T12:25:37Z</time>
      </trkpt>
      <trkpt lat="44.25386" lon="1.64709">
        <ele>219</ele>
        <time>2023-01-26T12:25:38Z</time>
      </trkpt>
      <trkpt lat="44.25383" lon="1.64708">
        <ele>221.5</ele>
        <time>2023-01-26T12:25:39Z</time>
      </trkpt>
      <trkpt lat="44.2538" lon="1.64705">
        <ele>220.3</ele>
        <time>2023-01-26T12:25:40Z</time>
        <extensions>
          <visugpx:TrkExtension xmlns:visugpx="https://www.visugpx.com/editgpx/">
            <visugpx:node>11</visugpx:node>
            </visugpx:TrkExtension>
        </extensions>
      </trkpt>
      <trkpt lat="44.25372" lon="1.64685">
        <ele>217.6</ele>
      </trkpt>
      <trkpt lat="44.25341" lon="1.64722">
        <ele>212.9</ele>
      </trkpt>
      <trkpt lat="44.25323" lon="1.64754">
        <ele>209.5</ele>
      </trkpt>
      <trkpt lat="44.25321" lon="1.64778">
        <ele>207.8</ele>
      </trkpt>
      <trkpt lat="44.25331" lon="1.64814">
        <ele>205.8</ele>
      </trkpt>
      <trkpt lat="44.25311" lon="1.64836">
        <ele>203.8</ele>
      </trkpt>
      <trkpt lat="44.25284" lon="1.64866">
        <ele>202.2</ele>
      </trkpt>
      <trkpt lat="44.25245" lon="1.64998">
        <ele>200.1</ele>
      </trkpt>
      <trkpt lat="44.25223" lon="1.65056">
        <ele>198.1</ele>
      </trkpt>
      <trkpt lat="44.25221" lon="1.651">
        <ele>196.4</ele>
        <extensions>
          <visugpx:TrkExtension xmlns:visugpx="https://www.visugpx.com/editgpx/">
            <visugpx:node>12</visugpx:node>
            </visugpx:TrkExtension>
        </extensions>
      </trkpt>
      <trkpt lat="44.25221" lon="1.65115">
        <ele>195.6</ele>
      </trkpt>
      <trkpt lat="44.25209" lon="1.65167">
        <ele>192.5</ele>
      </trkpt>
      <trkpt lat="44.25212" lon="1.65209">
        <ele>188.4</ele>
      </trkpt>
      <trkpt lat="44.25222" lon="1.6526">
        <ele>183.6</ele>
      </trkpt>
      <trkpt lat="44.25224" lon="1.65258">
        <ele>183.7</ele>
        <extensions>
          <visugpx:TrkExtension xmlns:visugpx="https://www.visugpx.com/editgpx/">
            <visugpx:node>13</visugpx:node>
            </visugpx:TrkExtension>
        </extensions>
      </trkpt>
      <trkpt lat="44.25232" lon="1.65254">
        <ele>183.6</ele>
      </trkpt>
      <trkpt lat="44.25241" lon="1.65246">
        <ele>183.3</ele>
        <extensions>
          <visugpx:TrkExtension xmlns:visugpx="https://www.visugpx.com/editgpx/">
            <visugpx:node>14</visugpx:node>
            </visugpx:TrkExtension>
        </extensions>
      </trkpt>
      <trkpt lat="44.25253" lon="1.65236">
        <ele>183</ele>
      </trkpt>
      <trkpt lat="44.25264" lon="1.65241">
        <ele>182.5</ele>
      </trkpt>
      <trkpt lat="44.25271" lon="1.65254">
        <ele>182.1</ele>
      </trkpt>
      <trkpt lat="44.25275" lon="1.65263">
        <ele>182.4</ele>
      </trkpt>
      <trkpt lat="44.25284" lon="1.65266">
        <ele>182.7</ele>
      </trkpt>
      <trkpt lat="44.25294" lon="1.65269">
        <ele>182.9</ele>
      </trkpt>
      <trkpt lat="44.253" lon="1.65269">
        <ele>182.9</ele>
        <extensions>
          <visugpx:TrkExtension xmlns:visugpx="https://www.visugpx.com/editgpx/">
            <visugpx:node>15</visugpx:node>
            </visugpx:TrkExtension>
        </extensions>
      </trkpt>
      <trkpt lat="44.25319" lon="1.65306">
        <ele>184.6</ele>
        <time>2023-01-26T12:41:53Z</time>
      </trkpt>
      <trkpt lat="44.2532" lon="1.65304">
        <ele>184.6</ele>
        <time>2023-01-26T12:41:54Z</time>
      </trkpt>
      <trkpt lat="44.2532" lon="1.65303">
        <ele>184.6</ele>
        <time>2023-01-26T12:41:55Z</time>
      </trkpt>
      <trkpt lat="44.2532" lon="1.65298">
        <ele>184.6</ele>
        <time>2023-01-26T12:41:56Z</time>
      </trkpt>
      <trkpt lat="44.2532" lon="1.65294">
        <ele>184.5</ele>
        <time>2023-01-26T12:41:57Z</time>
      </trkpt>
      <trkpt lat="44.2532" lon="1.6529">
        <ele>185.4</ele>
        <time>2023-01-26T12:41:59Z</time>
      </trkpt>
      <trkpt lat="44.25321" lon="1.65285">
        <ele>185.4</ele>
        <time>2023-01-26T12:42:00Z</time>
      </trkpt>
      <trkpt lat="44.25319" lon="1.6528">
        <ele>185.4</ele>
        <time>2023-01-26T12:42:01Z</time>
      </trkpt>
      <trkpt lat="44.25316" lon="1.65279">
        <ele>185.4</ele>
        <time>2023-01-26T12:42:02Z</time>
      </trkpt>
      <trkpt lat="44.25314" lon="1.6528">
        <ele>185.4</ele>
        <time>2023-01-26T12:42:04Z</time>
      </trkpt>
      <trkpt lat="44.25313" lon="1.6528">
        <ele>185.4</ele>
        <time>2023-01-26T12:42:06Z</time>
      </trkpt>
      <trkpt lat="44.25313" lon="1.6528">
        <ele>185.4</ele>
        <time>2023-01-26T12:42:07Z</time>
      </trkpt>
      <trkpt lat="44.25313" lon="1.6528">
        <ele>185.4</ele>
        <time>2023-01-26T12:42:09Z</time>
      </trkpt>
      <trkpt lat="44.25313" lon="1.6528">
        <ele>185.4</ele>
        <time>2023-01-26T12:42:10Z</time>
      </trkpt>
      <trkpt lat="44.25313" lon="1.6528">
        <ele>185.4</ele>
        <time>2023-01-26T12:42:12Z</time>
      </trkpt>
      <trkpt lat="44.25313" lon="1.65279">
        <ele>185.4</ele>
        <time>2023-01-26T12:42:13Z</time>
      </trkpt>
      <trkpt lat="44.25314" lon="1.65279">
        <ele>185.4</ele>
        <time>2023-01-26T12:42:14Z</time>
      </trkpt>
      <trkpt lat="44.25314" lon="1.65279">
        <ele>185.4</ele>
        <time>2023-01-26T12:42:15Z</time>
      </trkpt>
      <trkpt lat="44.25314" lon="1.6528">
        <ele>185.4</ele>
        <time>2023-01-26T12:42:16Z</time>
      </trkpt>
      <trkpt lat="44.25314" lon="1.6528">
        <ele>185.4</ele>
        <time>2023-01-26T12:42:18Z</time>
      </trkpt>
      <trkpt lat="44.25314" lon="1.6528">
        <ele>185.4</ele>
        <time>2023-01-26T12:42:20Z</time>
      </trkpt>
      <trkpt lat="44.25314" lon="1.6528">
        <ele>185.4</ele>
        <time>2023-01-26T12:42:21Z</time>
      </trkpt>
      <trkpt lat="44.25314" lon="1.65281">
        <ele>185.4</ele>
        <time>2023-01-26T12:42:23Z</time>
      </trkpt>
      <trkpt lat="44.25314" lon="1.65281">
        <ele>185.4</ele>
        <time>2023-01-26T12:42:24Z</time>
      </trkpt>
      <trkpt lat="44.25314" lon="1.65281">
        <ele>185.4</ele>
        <time>2023-01-26T12:42:25Z</time>
      </trkpt>
      <trkpt lat="44.25312" lon="1.65285">
        <ele>185.4</ele>
        <time>2023-01-26T12:42:56Z</time>
      </trkpt>
      <trkpt lat="44.25311" lon="1.65284">
        <ele>185.4</ele>
        <time>2023-01-26T12:42:57Z</time>
      </trkpt>
      <trkpt lat="44.25311" lon="1.65283">
        <ele>185.4</ele>
        <time>2023-01-26T12:42:58Z</time>
      </trkpt>
      <trkpt lat="44.2531" lon="1.65282">
        <ele>185.4</ele>
        <time>2023-01-26T12:42:59Z</time>
      </trkpt>
      <trkpt lat="44.25309" lon="1.65281">
        <ele>185.4</ele>
        <time>2023-01-26T12:43:00Z</time>
      </trkpt>
      <trkpt lat="44.25309" lon="1.6528">
        <ele>185.4</ele>
        <time>2023-01-26T12:43:02Z</time>
      </trkpt>
      <trkpt lat="44.25307" lon="1.65278">
        <ele>185.4</ele>
        <time>2023-01-26T12:43:03Z</time>
      </trkpt>
      <trkpt lat="44.25307" lon="1.65277">
        <ele>185.4</ele>
        <time>2023-01-26T12:43:05Z</time>
      </trkpt>
      <trkpt lat="44.25306" lon="1.65276">
        <ele>185.4</ele>
        <time>2023-01-26T12:43:06Z</time>
      </trkpt>
      <trkpt lat="44.25306" lon="1.65275">
        <ele>185.4</ele>
        <time>2023-01-26T12:43:08Z</time>
      </trkpt>
      <trkpt lat="44.25306" lon="1.65275">
        <ele>185.4</ele>
        <time>2023-01-26T12:43:09Z</time>
      </trkpt>
      <trkpt lat="44.25306" lon="1.65275">
        <ele>185.4</ele>
        <time>2023-01-26T12:43:10Z</time>
      </trkpt>
      <trkpt lat="44.25305" lon="1.65275">
        <ele>185.4</ele>
        <time>2023-01-26T12:43:12Z</time>
      </trkpt>
      <trkpt lat="44.25305" lon="1.65275">
        <ele>185.4</ele>
        <time>2023-01-26T12:43:13Z</time>
      </trkpt>
      <trkpt lat="44.25305" lon="1.65274">
        <ele>185.4</ele>
        <time>2023-01-26T12:43:14Z</time>
      </trkpt>
      <trkpt lat="44.25305" lon="1.65274">
        <ele>185.4</ele>
        <time>2023-01-26T12:43:16Z</time>
      </trkpt>
      <trkpt lat="44.25308" lon="1.65279">
        <ele>185.4</ele>
        <time>2023-01-26T12:43:33Z</time>
      </trkpt>
      <trkpt lat="44.25309" lon="1.6528">
        <ele>185.4</ele>
        <time>2023-01-26T12:43:34Z</time>
      </trkpt>
      <trkpt lat="44.25308" lon="1.65279">
        <ele>185.4</ele>
        <time>2023-01-26T12:43:35Z</time>
      </trkpt>
      <trkpt lat="44.25308" lon="1.65281">
        <ele>185.4</ele>
        <time>2023-01-26T12:43:37Z</time>
      </trkpt>
      <trkpt lat="44.25309" lon="1.65282">
        <ele>185.4</ele>
        <time>2023-01-26T12:43:38Z</time>
      </trkpt>
      <trkpt lat="44.2531" lon="1.65283">
        <ele>185.4</ele>
        <time>2023-01-26T12:43:39Z</time>
      </trkpt>
      <trkpt lat="44.25311" lon="1.65284">
        <ele>185.4</ele>
        <time>2023-01-26T12:43:40Z</time>
      </trkpt>
      <trkpt lat="44.25311" lon="1.65284">
        <ele>185.4</ele>
        <time>2023-01-26T12:43:41Z</time>
      </trkpt>
      <trkpt lat="44.25312" lon="1.65285">
        <ele>185.4</ele>
        <time>2023-01-26T12:43:43Z</time>
      </trkpt>
      <trkpt lat="44.25313" lon="1.65285">
        <ele>185.4</ele>
        <time>2023-01-26T12:43:44Z</time>
      </trkpt>
      <trkpt lat="44.25313" lon="1.65286">
        <ele>185.4</ele>
        <time>2023-01-26T12:43:45Z</time>
      </trkpt>
      <trkpt lat="44.25314" lon="1.65286">
        <ele>185.4</ele>
        <time>2023-01-26T12:43:47Z</time>
      </trkpt>
      <trkpt lat="44.25315" lon="1.65287">
        <ele>185.4</ele>
        <time>2023-01-26T12:43:48Z</time>
      </trkpt>
      <trkpt lat="44.25315" lon="1.65287">
        <ele>185.4</ele>
        <time>2023-01-26T12:43:50Z</time>
      </trkpt>
      <trkpt lat="44.25316" lon="1.65288">
        <ele>185.4</ele>
        <time>2023-01-26T12:44:20Z</time>
      </trkpt>
      <trkpt lat="44.25317" lon="1.65288">
        <ele>185.4</ele>
        <time>2023-01-26T12:44:21Z</time>
      </trkpt>
      <trkpt lat="44.25317" lon="1.65289">
        <ele>185.4</ele>
        <time>2023-01-26T12:44:22Z</time>
      </trkpt>
      <trkpt lat="44.25318" lon="1.65289">
        <ele>185.4</ele>
        <time>2023-01-26T12:44:23Z</time>
      </trkpt>
      <trkpt lat="44.25321" lon="1.65293">
        <ele>185.3</ele>
        <time>2023-01-26T12:44:24Z</time>
      </trkpt>
      <trkpt lat="44.25322" lon="1.65294">
        <ele>185.3</ele>
        <time>2023-01-26T12:44:25Z</time>
      </trkpt>
      <trkpt lat="44.25324" lon="1.65296">
        <ele>185.3</ele>
        <time>2023-01-26T12:44:26Z</time>
      </trkpt>
      <trkpt lat="44.25327" lon="1.653">
        <ele>185.3</ele>
        <time>2023-01-26T12:44:28Z</time>
      </trkpt>
      <trkpt lat="44.25328" lon="1.65302">
        <ele>185.2</ele>
        <time>2023-01-26T12:44:29Z</time>
      </trkpt>
      <trkpt lat="44.2533" lon="1.65304">
        <ele>185.2</ele>
        <time>2023-01-26T12:44:31Z</time>
      </trkpt>
      <trkpt lat="44.25333" lon="1.65307">
        <ele>185.2</ele>
        <time>2023-01-26T12:44:32Z</time>
      </trkpt>
      <trkpt lat="44.25334" lon="1.65308">
        <ele>185.2</ele>
        <time>2023-01-26T12:44:33Z</time>
      </trkpt>
      <trkpt lat="44.25336" lon="1.6531">
        <ele>185.2</ele>
        <time>2023-01-26T12:44:34Z</time>
      </trkpt>
      <trkpt lat="44.25338" lon="1.65313">
        <ele>185.2</ele>
        <time>2023-01-26T12:44:36Z</time>
      </trkpt>
      <trkpt lat="44.2534" lon="1.65319">
        <ele>185.1</ele>
        <time>2023-01-26T12:44:37Z</time>
      </trkpt>
      <trkpt lat="44.25341" lon="1.65321">
        <ele>185.1</ele>
        <time>2023-01-26T12:44:38Z</time>
      </trkpt>
      <trkpt lat="44.25343" lon="1.65324">
        <ele>185.1</ele>
        <time>2023-01-26T12:44:39Z</time>
      </trkpt>
      <trkpt lat="44.25344" lon="1.65329">
        <ele>185.1</ele>
        <time>2023-01-26T12:44:41Z</time>
      </trkpt>
      <trkpt lat="44.25345" lon="1.65333">
        <ele>185.1</ele>
        <time>2023-01-26T12:44:42Z</time>
      </trkpt>
      <trkpt lat="44.25347" lon="1.65339">
        <ele>185</ele>
        <time>2023-01-26T12:44:43Z</time>
      </trkpt>
      <trkpt lat="44.25348" lon="1.65348">
        <ele>185</ele>
        <time>2023-01-26T12:44:45Z</time>
      </trkpt>
      <trkpt lat="44.25349" lon="1.65354">
        <ele>185</ele>
        <time>2023-01-26T12:44:46Z</time>
      </trkpt>
      <trkpt lat="44.25351" lon="1.6536">
        <ele>185</ele>
        <time>2023-01-26T12:44:47Z</time>
      </trkpt>
      <trkpt lat="44.25354" lon="1.65369">
        <ele>185</ele>
        <time>2023-01-26T12:44:49Z</time>
      </trkpt>
      <trkpt lat="44.25355" lon="1.65375">
        <ele>185</ele>
        <time>2023-01-26T12:44:50Z</time>
      </trkpt>
      <trkpt lat="44.25356" lon="1.6538">
        <ele>185.1</ele>
        <time>2023-01-26T12:44:51Z</time>
      </trkpt>
      <trkpt lat="44.25357" lon="1.65385">
        <ele>185.1</ele>
        <time>2023-01-26T12:44:52Z</time>
      </trkpt>
      <trkpt lat="44.25358" lon="1.65393">
        <ele>185.2</ele>
        <time>2023-01-26T12:44:53Z</time>
      </trkpt>
      <trkpt lat="44.25359" lon="1.65398">
        <ele>185.2</ele>
        <time>2023-01-26T12:44:54Z</time>
      </trkpt>
      <trkpt lat="44.2536" lon="1.65407">
        <ele>185.3</ele>
        <time>2023-01-26T12:44:56Z</time>
      </trkpt>
      <trkpt lat="44.25361" lon="1.65417">
        <ele>185.4</ele>
        <time>2023-01-26T12:44:57Z</time>
      </trkpt>
      <trkpt lat="44.25362" lon="1.65425">
        <ele>185.5</ele>
        <time>2023-01-26T12:44:58Z</time>
      </trkpt>
      <trkpt lat="44.25365" lon="1.65436">
        <ele>185.6</ele>
        <time>2023-01-26T12:45:00Z</time>
      </trkpt>
      <trkpt lat="44.25369" lon="1.65443">
        <ele>185.6</ele>
        <time>2023-01-26T12:45:01Z</time>
      </trkpt>
      <trkpt lat="44.25371" lon="1.65448">
        <ele>185.6</ele>
        <time>2023-01-26T12:45:02Z</time>
      </trkpt>
      <trkpt lat="44.25378" lon="1.6546">
        <ele>185.6</ele>
        <time>2023-01-26T12:45:04Z</time>
      </trkpt>
      <trkpt lat="44.25383" lon="1.65467">
        <ele>185.6</ele>
        <time>2023-01-26T12:45:06Z</time>
      </trkpt>
      <trkpt lat="44.25385" lon="1.6547">
        <ele>185.6</ele>
        <time>2023-01-26T12:45:07Z</time>
      </trkpt>
      <trkpt lat="44.25388" lon="1.65475">
        <ele>185.7</ele>
        <time>2023-01-26T12:45:08Z</time>
      </trkpt>
      <trkpt lat="44.25393" lon="1.65479">
        <ele>185.7</ele>
        <time>2023-01-26T12:45:09Z</time>
      </trkpt>
      <trkpt lat="44.25399" lon="1.65484">
        <ele>185.8</ele>
        <time>2023-01-26T12:45:10Z</time>
      </trkpt>
      <trkpt lat="44.25403" lon="1.65488">
        <ele>185.8</ele>
        <time>2023-01-26T12:45:11Z</time>
      </trkpt>
      <trkpt lat="44.25411" lon="1.65495">
        <ele>186</ele>
        <time>2023-01-26T12:45:13Z</time>
      </trkpt>
      <trkpt lat="44.25414" lon="1.655">
        <ele>186.1</ele>
        <time>2023-01-26T12:45:15Z</time>
      </trkpt>
      <trkpt lat="44.25417" lon="1.65505">
        <ele>186.2</ele>
        <time>2023-01-26T12:45:16Z</time>
      </trkpt>
      <trkpt lat="44.25421" lon="1.65513">
        <ele>186.5</ele>
        <time>2023-01-26T12:45:17Z</time>
      </trkpt>
      <trkpt lat="44.25426" lon="1.65518">
        <ele>186.7</ele>
        <time>2023-01-26T12:45:19Z</time>
      </trkpt>
      <trkpt lat="44.25428" lon="1.65522">
        <ele>186.8</ele>
        <time>2023-01-26T12:45:20Z</time>
      </trkpt>
      <trkpt lat="44.25432" lon="1.6553">
        <ele>187.1</ele>
        <time>2023-01-26T12:45:22Z</time>
      </trkpt>
      <trkpt lat="44.25433" lon="1.65535">
        <ele>187.2</ele>
        <time>2023-01-26T12:45:23Z</time>
      </trkpt>
      <trkpt lat="44.25434" lon="1.65542">
        <ele>187.3</ele>
        <time>2023-01-26T12:45:24Z</time>
      </trkpt>
      <trkpt lat="44.25436" lon="1.65548">
        <ele>187.5</ele>
        <time>2023-01-26T12:45:25Z</time>
      </trkpt>
      <trkpt lat="44.25437" lon="1.65556">
        <ele>187.6</ele>
        <time>2023-01-26T12:45:27Z</time>
      </trkpt>
      <trkpt lat="44.25438" lon="1.65563">
        <ele>187.7</ele>
        <time>2023-01-26T12:45:28Z</time>
      </trkpt>
      <trkpt lat="44.25438" lon="1.65569">
        <ele>187.8</ele>
        <time>2023-01-26T12:45:29Z</time>
      </trkpt>
      <trkpt lat="44.25438" lon="1.65578">
        <ele>187.9</ele>
        <time>2023-01-26T12:45:30Z</time>
      </trkpt>
      <trkpt lat="44.25439" lon="1.65586">
        <ele>188</ele>
        <time>2023-01-26T12:45:32Z</time>
      </trkpt>
      <trkpt lat="44.25439" lon="1.65592">
        <ele>188</ele>
        <time>2023-01-26T12:45:33Z</time>
      </trkpt>
      <trkpt lat="44.25438" lon="1.65601">
        <ele>188.1</ele>
        <time>2023-01-26T12:45:34Z</time>
      </trkpt>
      <trkpt lat="44.25439" lon="1.65608">
        <ele>188.2</ele>
        <time>2023-01-26T12:45:36Z</time>
      </trkpt>
      <trkpt lat="44.25439" lon="1.65614">
        <ele>188.2</ele>
        <time>2023-01-26T12:45:37Z</time>
      </trkpt>
      <trkpt lat="44.2544" lon="1.6562">
        <ele>188.3</ele>
        <time>2023-01-26T12:45:38Z</time>
      </trkpt>
      <trkpt lat="44.2544" lon="1.65627">
        <ele>188.3</ele>
        <time>2023-01-26T12:45:39Z</time>
      </trkpt>
      <trkpt lat="44.2544" lon="1.65632">
        <ele>188.4</ele>
        <time>2023-01-26T12:45:40Z</time>
      </trkpt>
      <trkpt lat="44.25441" lon="1.6564">
        <ele>188.5</ele>
        <time>2023-01-26T12:45:41Z</time>
      </trkpt>
      <trkpt lat="44.25442" lon="1.65647">
        <ele>188.6</ele>
        <time>2023-01-26T12:45:43Z</time>
      </trkpt>
      <trkpt lat="44.25442" lon="1.65653">
        <ele>188.7</ele>
        <time>2023-01-26T12:45:44Z</time>
      </trkpt>
      <trkpt lat="44.25442" lon="1.65664">
        <ele>189</ele>
        <time>2023-01-26T12:45:46Z</time>
      </trkpt>
      <trkpt lat="44.25443" lon="1.6567">
        <ele>189.1</ele>
        <time>2023-01-26T12:45:47Z</time>
      </trkpt>
      <trkpt lat="44.25442" lon="1.65674">
        <ele>189.3</ele>
        <time>2023-01-26T12:45:48Z</time>
      </trkpt>
      <trkpt lat="44.2544" lon="1.6568">
        <ele>189.4</ele>
        <time>2023-01-26T12:45:49Z</time>
      </trkpt>
      <trkpt lat="44.25438" lon="1.65683">
        <ele>189.5</ele>
        <time>2023-01-26T12:45:50Z</time>
      </trkpt>
      <trkpt lat="44.25437" lon="1.65687">
        <ele>189.6</ele>
        <time>2023-01-26T12:45:52Z</time>
      </trkpt>
      <trkpt lat="44.25438" lon="1.65691">
        <ele>189.7</ele>
        <time>2023-01-26T12:45:53Z</time>
      </trkpt>
      <trkpt lat="44.2544" lon="1.65695">
        <ele>189.8</ele>
        <time>2023-01-26T12:45:54Z</time>
      </trkpt>
      <trkpt lat="44.25443" lon="1.65698">
        <ele>189.9</ele>
        <time>2023-01-26T12:45:55Z</time>
      </trkpt>
      <trkpt lat="44.25448" lon="1.65701">
        <ele>190</ele>
        <time>2023-01-26T12:45:56Z</time>
      </trkpt>
      <trkpt lat="44.2545" lon="1.65703">
        <ele>190.1</ele>
        <time>2023-01-26T12:45:57Z</time>
      </trkpt>
      <trkpt lat="44.25452" lon="1.65705">
        <ele>190.2</ele>
        <time>2023-01-26T12:45:58Z</time>
      </trkpt>
      <trkpt lat="44.25458" lon="1.65711">
        <ele>190.4</ele>
        <time>2023-01-26T12:46:00Z</time>
      </trkpt>
      <trkpt lat="44.25462" lon="1.65714">
        <ele>190.5</ele>
        <time>2023-01-26T12:46:02Z</time>
      </trkpt>
      <trkpt lat="44.25465" lon="1.65717">
        <ele>190.6</ele>
        <time>2023-01-26T12:46:03Z</time>
      </trkpt>
      <trkpt lat="44.25468" lon="1.65719">
        <ele>190.7</ele>
        <time>2023-01-26T12:46:04Z</time>
      </trkpt>
      <trkpt lat="44.25475" lon="1.65722">
        <ele>190.9</ele>
        <time>2023-01-26T12:46:06Z</time>
      </trkpt>
      <trkpt lat="44.2548" lon="1.65723">
        <ele>191.1</ele>
        <time>2023-01-26T12:46:07Z</time>
      </trkpt>
      <trkpt lat="44.25485" lon="1.65724">
        <ele>191.2</ele>
        <time>2023-01-26T12:46:08Z</time>
      </trkpt>
      <trkpt lat="44.25492" lon="1.65725">
        <ele>191.4</ele>
        <time>2023-01-26T12:46:10Z</time>
      </trkpt>
      <trkpt lat="44.25497" lon="1.65726">
        <ele>191.5</ele>
        <time>2023-01-26T12:46:11Z</time>
      </trkpt>
      <trkpt lat="44.255" lon="1.65726">
        <ele>191.6</ele>
        <time>2023-01-26T12:46:12Z</time>
      </trkpt>
      <trkpt lat="44.25506" lon="1.65728">
        <ele>191.8</ele>
        <time>2023-01-26T12:46:14Z</time>
      </trkpt>
      <trkpt lat="44.25509" lon="1.65728">
        <ele>191.9</ele>
        <time>2023-01-26T12:46:15Z</time>
      </trkpt>
      <trkpt lat="44.25513" lon="1.65729">
        <ele>192</ele>
        <time>2023-01-26T12:46:16Z</time>
      </trkpt>
      <trkpt lat="44.25516" lon="1.6573">
        <ele>192.1</ele>
        <time>2023-01-26T12:46:17Z</time>
      </trkpt>
      <trkpt lat="44.25522" lon="1.65731">
        <ele>192.2</ele>
        <time>2023-01-26T12:46:19Z</time>
      </trkpt>
      <trkpt lat="44.25525" lon="1.65731">
        <ele>192.3</ele>
        <time>2023-01-26T12:46:20Z</time>
      </trkpt>
      <trkpt lat="44.2553" lon="1.65731">
        <ele>192.5</ele>
        <time>2023-01-26T12:46:21Z</time>
      </trkpt>
      <trkpt lat="44.25533" lon="1.65732">
        <ele>192.6</ele>
        <time>2023-01-26T12:46:22Z</time>
      </trkpt>
      <trkpt lat="44.25538" lon="1.65734">
        <ele>192.7</ele>
        <time>2023-01-26T12:46:24Z</time>
      </trkpt>
      <trkpt lat="44.25545" lon="1.65739">
        <ele>192.9</ele>
        <time>2023-01-26T12:46:25Z</time>
      </trkpt>
      <trkpt lat="44.2555" lon="1.6574">
        <ele>193.1</ele>
        <time>2023-01-26T12:46:27Z</time>
      </trkpt>
      <trkpt lat="44.25554" lon="1.65742">
        <ele>193.2</ele>
        <time>2023-01-26T12:46:28Z</time>
      </trkpt>
      <trkpt lat="44.2556" lon="1.65744">
        <ele>193.4</ele>
        <time>2023-01-26T12:46:29Z</time>
      </trkpt>
      <trkpt lat="44.25564" lon="1.65745">
        <ele>193.5</ele>
        <time>2023-01-26T12:46:31Z</time>
      </trkpt>
      <trkpt lat="44.25568" lon="1.65745">
        <ele>193.6</ele>
        <time>2023-01-26T12:46:32Z</time>
      </trkpt>
      <trkpt lat="44.25574" lon="1.65746">
        <ele>193.8</ele>
        <time>2023-01-26T12:46:34Z</time>
      </trkpt>
      <trkpt lat="44.25579" lon="1.65747">
        <ele>193.9</ele>
        <time>2023-01-26T12:46:35Z</time>
      </trkpt>
      <trkpt lat="44.25585" lon="1.65747">
        <ele>194.1</ele>
        <time>2023-01-26T12:46:36Z</time>
      </trkpt>
      <trkpt lat="44.2559" lon="1.65747">
        <ele>194.2</ele>
        <time>2023-01-26T12:46:37Z</time>
      </trkpt>
      <trkpt lat="44.25596" lon="1.65746">
        <ele>194.4</ele>
        <time>2023-01-26T12:46:38Z</time>
      </trkpt>
      <trkpt lat="44.25599" lon="1.65745">
        <ele>194.5</ele>
        <time>2023-01-26T12:46:39Z</time>
      </trkpt>
      <trkpt lat="44.25603" lon="1.65744">
        <ele>194.6</ele>
        <time>2023-01-26T12:46:41Z</time>
      </trkpt>
      <trkpt lat="44.25607" lon="1.65743">
        <ele>194.7</ele>
        <time>2023-01-26T12:46:42Z</time>
      </trkpt>
      <trkpt lat="44.25612" lon="1.65742">
        <ele>194.8</ele>
        <time>2023-01-26T12:46:43Z</time>
      </trkpt>
      <trkpt lat="44.25616" lon="1.65741">
        <ele>195</ele>
        <time>2023-01-26T12:46:44Z</time>
      </trkpt>
      <trkpt lat="44.25621" lon="1.6574">
        <ele>195.1</ele>
        <time>2023-01-26T12:46:45Z</time>
      </trkpt>
      <trkpt lat="44.2563" lon="1.65739">
        <ele>195.3</ele>
        <time>2023-01-26T12:46:47Z</time>
      </trkpt>
      <trkpt lat="44.25634" lon="1.65738">
        <ele>195.4</ele>
        <time>2023-01-26T12:46:48Z</time>
      </trkpt>
      <trkpt lat="44.25638" lon="1.65737">
        <ele>195.6</ele>
        <time>2023-01-26T12:46:49Z</time>
      </trkpt>
      <trkpt lat="44.25642" lon="1.65736">
        <ele>195.7</ele>
        <time>2023-01-26T12:46:50Z</time>
      </trkpt>
      <trkpt lat="44.25644" lon="1.65736">
        <ele>195.7</ele>
        <time>2023-01-26T12:46:51Z</time>
      </trkpt>
      <trkpt lat="44.25648" lon="1.65736">
        <ele>195.8</ele>
        <time>2023-01-26T12:46:53Z</time>
      </trkpt>
      <trkpt lat="44.25651" lon="1.65735">
        <ele>195.9</ele>
        <time>2023-01-26T12:46:54Z</time>
      </trkpt>
      <trkpt lat="44.25655" lon="1.65734">
        <ele>196</ele>
        <time>2023-01-26T12:46:55Z</time>
      </trkpt>
      <trkpt lat="44.25659" lon="1.65734">
        <ele>196.2</ele>
        <time>2023-01-26T12:46:56Z</time>
      </trkpt>
      <trkpt lat="44.25662" lon="1.65733">
        <ele>196.2</ele>
        <time>2023-01-26T12:46:57Z</time>
      </trkpt>
      <trkpt lat="44.25668" lon="1.65733">
        <ele>196.4</ele>
        <time>2023-01-26T12:46:59Z</time>
      </trkpt>
      <trkpt lat="44.25672" lon="1.65733">
        <ele>196.5</ele>
        <time>2023-01-26T12:47:01Z</time>
      </trkpt>
      <trkpt lat="44.25676" lon="1.65734">
        <ele>196.6</ele>
        <time>2023-01-26T12:47:02Z</time>
      </trkpt>
      <trkpt lat="44.25677" lon="1.65734">
        <ele>196.7</ele>
        <time>2023-01-26T12:47:03Z</time>
      </trkpt>
      <trkpt lat="44.2568" lon="1.65736">
        <ele>196.8</ele>
        <time>2023-01-26T12:47:04Z</time>
      </trkpt>
      <trkpt lat="44.25683" lon="1.65738">
        <ele>196.8</ele>
        <time>2023-01-26T12:47:05Z</time>
      </trkpt>
      <trkpt lat="44.25685" lon="1.65742">
        <ele>196.9</ele>
        <time>2023-01-26T12:47:06Z</time>
      </trkpt>
      <trkpt lat="44.25686" lon="1.65748">
        <ele>197.1</ele>
        <time>2023-01-26T12:47:08Z</time>
      </trkpt>
      <trkpt lat="44.25687" lon="1.65756">
        <ele>197.2</ele>
        <time>2023-01-26T12:47:09Z</time>
      </trkpt>
      <trkpt lat="44.25689" lon="1.65761">
        <ele>197.3</ele>
        <time>2023-01-26T12:47:11Z</time>
      </trkpt>
      <trkpt lat="44.2569" lon="1.65766">
        <ele>197.5</ele>
        <time>2023-01-26T12:47:12Z</time>
      </trkpt>
      <trkpt lat="44.2569" lon="1.65772">
        <ele>197.6</ele>
        <time>2023-01-26T12:47:13Z</time>
      </trkpt>
      <trkpt lat="44.25689" lon="1.65777">
        <ele>197.7</ele>
        <time>2023-01-26T12:47:14Z</time>
      </trkpt>
      <trkpt lat="44.25688" lon="1.65786">
        <ele>197.9</ele>
        <time>2023-01-26T12:47:16Z</time>
      </trkpt>
      <trkpt lat="44.25688" lon="1.65798">
        <ele>198.1</ele>
        <time>2023-01-26T12:47:17Z</time>
      </trkpt>
      <trkpt lat="44.25689" lon="1.65805">
        <ele>198.2</ele>
        <time>2023-01-26T12:47:19Z</time>
      </trkpt>
      <trkpt lat="44.2569" lon="1.65811">
        <ele>198.4</ele>
        <time>2023-01-26T12:47:20Z</time>
      </trkpt>
      <trkpt lat="44.25691" lon="1.65817">
        <ele>198.5</ele>
        <time>2023-01-26T12:47:21Z</time>
      </trkpt>
      <trkpt lat="44.25693" lon="1.65826">
        <ele>198.7</ele>
        <time>2023-01-26T12:47:23Z</time>
      </trkpt>
      <trkpt lat="44.25694" lon="1.65832">
        <ele>198.8</ele>
        <time>2023-01-26T12:47:24Z</time>
      </trkpt>
      <trkpt lat="44.25696" lon="1.65841">
        <ele>199</ele>
        <time>2023-01-26T12:47:25Z</time>
      </trkpt>
      <trkpt lat="44.25697" lon="1.65846">
        <ele>199.1</ele>
        <time>2023-01-26T12:47:26Z</time>
      </trkpt>
      <trkpt lat="44.25698" lon="1.65855">
        <ele>199.3</ele>
        <time>2023-01-26T12:47:28Z</time>
      </trkpt>
      <trkpt lat="44.257" lon="1.65863">
        <ele>199.4</ele>
        <time>2023-01-26T12:47:30Z</time>
      </trkpt>
      <trkpt lat="44.25702" lon="1.65868">
        <ele>199.6</ele>
        <time>2023-01-26T12:47:31Z</time>
      </trkpt>
      <trkpt lat="44.25705" lon="1.65874">
        <ele>199.7</ele>
        <time>2023-01-26T12:47:32Z</time>
      </trkpt>
      <trkpt lat="44.25709" lon="1.6588">
        <ele>199.9</ele>
        <time>2023-01-26T12:47:34Z</time>
      </trkpt>
      <trkpt lat="44.25713" lon="1.65888">
        <ele>200.1</ele>
        <time>2023-01-26T12:47:35Z</time>
      </trkpt>
      <trkpt lat="44.25715" lon="1.65893">
        <ele>200.2</ele>
        <time>2023-01-26T12:47:37Z</time>
      </trkpt>
      <trkpt lat="44.25717" lon="1.65899">
        <ele>200.3</ele>
        <time>2023-01-26T12:47:38Z</time>
      </trkpt>
      <trkpt lat="44.25718" lon="1.65903">
        <ele>200.4</ele>
        <time>2023-01-26T12:47:39Z</time>
      </trkpt>
      <trkpt lat="44.2572" lon="1.65907">
        <ele>200.5</ele>
        <time>2023-01-26T12:47:40Z</time>
      </trkpt>
      <trkpt lat="44.25723" lon="1.65913">
        <ele>200.6</ele>
        <time>2023-01-26T12:47:42Z</time>
      </trkpt>
      <trkpt lat="44.25726" lon="1.6592">
        <ele>200.8</ele>
        <time>2023-01-26T12:47:43Z</time>
      </trkpt>
      <trkpt lat="44.25728" lon="1.65926">
        <ele>200.9</ele>
        <time>2023-01-26T12:47:45Z</time>
      </trkpt>
      <trkpt lat="44.25728" lon="1.65932">
        <ele>201.1</ele>
        <time>2023-01-26T12:47:46Z</time>
      </trkpt>
      <trkpt lat="44.25728" lon="1.65938">
        <ele>201.2</ele>
        <time>2023-01-26T12:47:47Z</time>
      </trkpt>
      <trkpt lat="44.25726" lon="1.65948">
        <ele>201.4</ele>
        <time>2023-01-26T12:47:48Z</time>
      </trkpt>
      <trkpt lat="44.25724" lon="1.65952">
        <ele>201.5</ele>
        <time>2023-01-26T12:47:49Z</time>
      </trkpt>
      <trkpt lat="44.25722" lon="1.65956">
        <ele>201.6</ele>
        <time>2023-01-26T12:47:50Z</time>
      </trkpt>
      <trkpt lat="44.25718" lon="1.65961">
        <ele>201.7</ele>
        <time>2023-01-26T12:47:52Z</time>
      </trkpt>
      <trkpt lat="44.25715" lon="1.65966">
        <ele>201.9</ele>
        <time>2023-01-26T12:47:53Z</time>
      </trkpt>
      <trkpt lat="44.25713" lon="1.6597">
        <ele>202</ele>
        <time>2023-01-26T12:47:54Z</time>
      </trkpt>
      <trkpt lat="44.25709" lon="1.65976">
        <ele>202.1</ele>
        <time>2023-01-26T12:47:55Z</time>
      </trkpt>
      <trkpt lat="44.25706" lon="1.6598">
        <ele>202.3</ele>
        <time>2023-01-26T12:47:57Z</time>
      </trkpt>
      <trkpt lat="44.25703" lon="1.65983">
        <ele>202.3</ele>
        <time>2023-01-26T12:47:58Z</time>
      </trkpt>
      <trkpt lat="44.257" lon="1.65987">
        <ele>202.4</ele>
        <time>2023-01-26T12:47:59Z</time>
      </trkpt>
      <trkpt lat="44.25697" lon="1.6599">
        <ele>202.6</ele>
        <time>2023-01-26T12:48:00Z</time>
      </trkpt>
      <trkpt lat="44.25694" lon="1.65994">
        <ele>202.7</ele>
        <time>2023-01-26T12:48:02Z</time>
      </trkpt>
      <trkpt lat="44.2569" lon="1.65998">
        <ele>202.8</ele>
        <time>2023-01-26T12:48:03Z</time>
      </trkpt>
      <trkpt lat="44.25687" lon="1.66003">
        <ele>202.9</ele>
        <time>2023-01-26T12:48:04Z</time>
      </trkpt>
      <trkpt lat="44.25686" lon="1.66012">
        <ele>203.1</ele>
        <time>2023-01-26T12:48:05Z</time>
      </trkpt>
      <trkpt lat="44.25688" lon="1.66018">
        <ele>203.3</ele>
        <time>2023-01-26T12:48:07Z</time>
      </trkpt>
      <trkpt lat="44.25691" lon="1.66022">
        <ele>203.4</ele>
        <time>2023-01-26T12:48:08Z</time>
      </trkpt>
      <trkpt lat="44.25693" lon="1.66026">
        <ele>203.5</ele>
        <time>2023-01-26T12:48:09Z</time>
      </trkpt>
      <trkpt lat="44.25695" lon="1.6603">
        <ele>203.5</ele>
        <time>2023-01-26T12:48:10Z</time>
      </trkpt>
      <trkpt lat="44.25697" lon="1.66037">
        <ele>203.7</ele>
        <time>2023-01-26T12:48:12Z</time>
      </trkpt>
      <trkpt lat="44.25698" lon="1.66044">
        <ele>203.9</ele>
        <time>2023-01-26T12:48:13Z</time>
      </trkpt>
      <trkpt lat="44.25697" lon="1.6605">
        <ele>204</ele>
        <time>2023-01-26T12:48:15Z</time>
      </trkpt>
      <trkpt lat="44.25697" lon="1.66057">
        <ele>204.1</ele>
        <time>2023-01-26T12:48:16Z</time>
      </trkpt>
      <trkpt lat="44.25696" lon="1.66062">
        <ele>204.2</ele>
        <time>2023-01-26T12:48:17Z</time>
      </trkpt>
      <trkpt lat="44.25694" lon="1.66067">
        <ele>204.3</ele>
        <time>2023-01-26T12:48:18Z</time>
      </trkpt>
      <trkpt lat="44.2569" lon="1.66076">
        <ele>204.5</ele>
        <time>2023-01-26T12:48:20Z</time>
      </trkpt>
      <trkpt lat="44.25686" lon="1.66085">
        <ele>204.8</ele>
        <time>2023-01-26T12:48:22Z</time>
      </trkpt>
      <trkpt lat="44.25685" lon="1.66088">
        <ele>204.8</ele>
        <time>2023-01-26T12:48:23Z</time>
      </trkpt>
      <trkpt lat="44.25683" lon="1.66093">
        <ele>204.9</ele>
        <time>2023-01-26T12:48:24Z</time>
      </trkpt>
      <trkpt lat="44.25681" lon="1.66099">
        <ele>205.1</ele>
        <time>2023-01-26T12:48:25Z</time>
      </trkpt>
      <trkpt lat="44.25681" lon="1.66104">
        <ele>205.2</ele>
        <time>2023-01-26T12:48:26Z</time>
      </trkpt>
      <trkpt lat="44.25682" lon="1.6611">
        <ele>205.3</ele>
        <time>2023-01-26T12:48:27Z</time>
      </trkpt>
      <trkpt lat="44.25685" lon="1.66117">
        <ele>205.5</ele>
        <time>2023-01-26T12:48:29Z</time>
      </trkpt>
      <trkpt lat="44.25686" lon="1.66121">
        <ele>205.5</ele>
        <time>2023-01-26T12:48:30Z</time>
      </trkpt>
      <trkpt lat="44.25688" lon="1.66125">
        <ele>205.6</ele>
        <time>2023-01-26T12:48:31Z</time>
      </trkpt>
      <trkpt lat="44.2569" lon="1.6613">
        <ele>205.7</ele>
        <time>2023-01-26T12:48:32Z</time>
      </trkpt>
      <trkpt lat="44.25692" lon="1.66137">
        <ele>205.9</ele>
        <time>2023-01-26T12:48:34Z</time>
      </trkpt>
      <trkpt lat="44.25694" lon="1.66141">
        <ele>206</ele>
        <time>2023-01-26T12:48:35Z</time>
      </trkpt>
      <trkpt lat="44.25696" lon="1.66145">
        <ele>206.1</ele>
        <time>2023-01-26T12:48:36Z</time>
      </trkpt>
      <trkpt lat="44.25699" lon="1.66151">
        <ele>206.3</ele>
        <time>2023-01-26T12:48:37Z</time>
      </trkpt>
      <trkpt lat="44.25701" lon="1.66155">
        <ele>206.3</ele>
        <time>2023-01-26T12:48:38Z</time>
      </trkpt>
      <trkpt lat="44.25703" lon="1.66161">
        <ele>206.5</ele>
        <time>2023-01-26T12:48:40Z</time>
      </trkpt>
      <trkpt lat="44.25703" lon="1.66166">
        <ele>206.6</ele>
        <time>2023-01-26T12:48:41Z</time>
      </trkpt>
      <trkpt lat="44.25707" lon="1.66172">
        <ele>206.7</ele>
        <time>2023-01-26T12:48:43Z</time>
      </trkpt>
      <trkpt lat="44.2571" lon="1.66176">
        <ele>206.8</ele>
        <time>2023-01-26T12:48:44Z</time>
      </trkpt>
      <trkpt lat="44.25713" lon="1.66178">
        <ele>206.9</ele>
        <time>2023-01-26T12:48:45Z</time>
      </trkpt>
      <trkpt lat="44.25718" lon="1.66183">
        <ele>207.1</ele>
        <time>2023-01-26T12:48:47Z</time>
      </trkpt>
      <trkpt lat="44.25723" lon="1.66188">
        <ele>207.3</ele>
        <time>2023-01-26T12:48:48Z</time>
      </trkpt>
      <trkpt lat="44.25728" lon="1.66192">
        <ele>207.4</ele>
        <time>2023-01-26T12:48:50Z</time>
      </trkpt>
      <trkpt lat="44.25731" lon="1.66194">
        <ele>207.5</ele>
        <time>2023-01-26T12:48:51Z</time>
      </trkpt>
      <trkpt lat="44.25738" lon="1.66198">
        <ele>207.7</ele>
        <time>2023-01-26T12:48:53Z</time>
      </trkpt>
      <trkpt lat="44.25741" lon="1.662">
        <ele>207.8</ele>
        <time>2023-01-26T12:48:54Z</time>
      </trkpt>
      <trkpt lat="44.25745" lon="1.66201">
        <ele>208</ele>
        <time>2023-01-26T12:48:55Z</time>
      </trkpt>
      <trkpt lat="44.25746" lon="1.66202">
        <ele>208</ele>
        <time>2023-01-26T12:48:56Z</time>
      </trkpt>
      <trkpt lat="44.25752" lon="1.66203">
        <ele>208.1</ele>
        <time>2023-01-26T12:48:58Z</time>
      </trkpt>
      <trkpt lat="44.25758" lon="1.66203">
        <ele>208.3</ele>
        <time>2023-01-26T12:48:59Z</time>
      </trkpt>
      <trkpt lat="44.25762" lon="1.66205">
        <ele>208.4</ele>
        <time>2023-01-26T12:49:01Z</time>
      </trkpt>
      <trkpt lat="44.25765" lon="1.66206">
        <ele>208.5</ele>
        <time>2023-01-26T12:49:02Z</time>
      </trkpt>
      <trkpt lat="44.25769" lon="1.66207">
        <ele>208.6</ele>
        <time>2023-01-26T12:49:03Z</time>
      </trkpt>
      <trkpt lat="44.25772" lon="1.66209">
        <ele>208.7</ele>
        <time>2023-01-26T12:49:04Z</time>
      </trkpt>
      <trkpt lat="44.25774" lon="1.66213">
        <ele>208.8</ele>
        <time>2023-01-26T12:49:06Z</time>
      </trkpt>
      <trkpt lat="44.25777" lon="1.66219">
        <ele>209</ele>
        <time>2023-01-26T12:49:08Z</time>
      </trkpt>
      <trkpt lat="44.2578" lon="1.66222">
        <ele>209.1</ele>
        <time>2023-01-26T12:49:09Z</time>
      </trkpt>
      <trkpt lat="44.25783" lon="1.66227">
        <ele>209.2</ele>
        <time>2023-01-26T12:49:10Z</time>
      </trkpt>
      <trkpt lat="44.25786" lon="1.6623">
        <ele>209.3</ele>
        <time>2023-01-26T12:49:11Z</time>
      </trkpt>
      <trkpt lat="44.25789" lon="1.66236">
        <ele>209.4</ele>
        <time>2023-01-26T12:49:13Z</time>
      </trkpt>
      <trkpt lat="44.25791" lon="1.66241">
        <ele>209.6</ele>
        <time>2023-01-26T12:49:14Z</time>
      </trkpt>
      <trkpt lat="44.25793" lon="1.66247">
        <ele>209.7</ele>
        <time>2023-01-26T12:49:15Z</time>
      </trkpt>
      <trkpt lat="44.25796" lon="1.66254">
        <ele>209.9</ele>
        <time>2023-01-26T12:49:17Z</time>
      </trkpt>
      <trkpt lat="44.25798" lon="1.66261">
        <ele>210</ele>
        <time>2023-01-26T12:49:18Z</time>
      </trkpt>
      <trkpt lat="44.25799" lon="1.66268">
        <ele>210.2</ele>
        <time>2023-01-26T12:49:20Z</time>
      </trkpt>
      <trkpt lat="44.258" lon="1.66274">
        <ele>210.3</ele>
        <time>2023-01-26T12:49:21Z</time>
      </trkpt>
      <trkpt lat="44.258" lon="1.6628">
        <ele>210.4</ele>
        <time>2023-01-26T12:49:22Z</time>
      </trkpt>
      <trkpt lat="44.25801" lon="1.66286">
        <ele>210.5</ele>
        <time>2023-01-26T12:49:24Z</time>
      </trkpt>
      <trkpt lat="44.25802" lon="1.66291">
        <ele>210.6</ele>
        <time>2023-01-26T12:49:25Z</time>
      </trkpt>
      <trkpt lat="44.25803" lon="1.66296">
        <ele>210.7</ele>
        <time>2023-01-26T12:49:26Z</time>
      </trkpt>
      <trkpt lat="44.25807" lon="1.66301">
        <ele>210.9</ele>
        <time>2023-01-26T12:49:27Z</time>
      </trkpt>
      <trkpt lat="44.2581" lon="1.66303">
        <ele>211</ele>
        <time>2023-01-26T12:49:28Z</time>
      </trkpt>
      <trkpt lat="44.25818" lon="1.66309">
        <ele>211.2</ele>
        <time>2023-01-26T12:49:30Z</time>
      </trkpt>
      <trkpt lat="44.25823" lon="1.66312">
        <ele>211.4</ele>
        <time>2023-01-26T12:49:32Z</time>
      </trkpt>
      <trkpt lat="44.25827" lon="1.66315">
        <ele>211.5</ele>
        <time>2023-01-26T12:49:33Z</time>
      </trkpt>
      <trkpt lat="44.25831" lon="1.66318">
        <ele>211.6</ele>
        <time>2023-01-26T12:49:34Z</time>
      </trkpt>
      <trkpt lat="44.25835" lon="1.66321">
        <ele>211.8</ele>
        <time>2023-01-26T12:49:35Z</time>
      </trkpt>
      <trkpt lat="44.25838" lon="1.66323">
        <ele>211.9</ele>
        <time>2023-01-26T12:49:36Z</time>
      </trkpt>
      <trkpt lat="44.25845" lon="1.6633">
        <ele>212.1</ele>
        <time>2023-01-26T12:49:38Z</time>
      </trkpt>
      <trkpt lat="44.25848" lon="1.66334">
        <ele>212.2</ele>
        <time>2023-01-26T12:49:40Z</time>
      </trkpt>
      <trkpt lat="44.2585" lon="1.66337">
        <ele>212.3</ele>
        <time>2023-01-26T12:49:41Z</time>
      </trkpt>
      <trkpt lat="44.25852" lon="1.66342">
        <ele>212.4</ele>
        <time>2023-01-26T12:49:42Z</time>
      </trkpt>
      <trkpt lat="44.25853" lon="1.66347">
        <ele>212.5</ele>
        <time>2023-01-26T12:49:43Z</time>
      </trkpt>
      <trkpt lat="44.25853" lon="1.66355">
        <ele>212.7</ele>
        <time>2023-01-26T12:49:44Z</time>
      </trkpt>
      <trkpt lat="44.25853" lon="1.66361">
        <ele>212.8</ele>
        <time>2023-01-26T12:49:45Z</time>
      </trkpt>
      <trkpt lat="44.25851" lon="1.66369">
        <ele>213</ele>
        <time>2023-01-26T12:49:46Z</time>
      </trkpt>
      <trkpt lat="44.25851" lon="1.66375">
        <ele>213.1</ele>
        <time>2023-01-26T12:49:48Z</time>
      </trkpt>
      <trkpt lat="44.25851" lon="1.66383">
        <ele>213.2</ele>
        <time>2023-01-26T12:49:49Z</time>
      </trkpt>
      <trkpt lat="44.25852" lon="1.66392">
        <ele>213.4</ele>
        <time>2023-01-26T12:49:50Z</time>
      </trkpt>
      <trkpt lat="44.25851" lon="1.66397">
        <ele>213.5</ele>
        <time>2023-01-26T12:49:51Z</time>
      </trkpt>
      <trkpt lat="44.25851" lon="1.66404">
        <ele>213.7</ele>
        <time>2023-01-26T12:49:52Z</time>
      </trkpt>
      <trkpt lat="44.25851" lon="1.66412">
        <ele>213.8</ele>
        <time>2023-01-26T12:49:54Z</time>
      </trkpt>
      <trkpt lat="44.25852" lon="1.66419">
        <ele>214</ele>
        <time>2023-01-26T12:49:55Z</time>
      </trkpt>
      <trkpt lat="44.25853" lon="1.66427">
        <ele>214.1</ele>
        <time>2023-01-26T12:49:57Z</time>
      </trkpt>
      <trkpt lat="44.25853" lon="1.66435">
        <ele>214.3</ele>
        <time>2023-01-26T12:49:58Z</time>
      </trkpt>
      <trkpt lat="44.25853" lon="1.66443">
        <ele>214.5</ele>
        <time>2023-01-26T12:50:00Z</time>
      </trkpt>
      <trkpt lat="44.25852" lon="1.6645">
        <ele>214.6</ele>
        <time>2023-01-26T12:50:01Z</time>
      </trkpt>
      <trkpt lat="44.25852" lon="1.66455">
        <ele>214.7</ele>
        <time>2023-01-26T12:50:02Z</time>
      </trkpt>
      <trkpt lat="44.2585" lon="1.66461">
        <ele>214.8</ele>
        <time>2023-01-26T12:50:03Z</time>
      </trkpt>
      <trkpt lat="44.25849" lon="1.66465">
        <ele>214.9</ele>
        <time>2023-01-26T12:50:04Z</time>
      </trkpt>
      <trkpt lat="44.25848" lon="1.66471">
        <ele>215</ele>
        <time>2023-01-26T12:50:06Z</time>
      </trkpt>
      <trkpt lat="44.25848" lon="1.66475">
        <ele>215.1</ele>
        <time>2023-01-26T12:50:07Z</time>
      </trkpt>
      <trkpt lat="44.25848" lon="1.66481">
        <ele>215.2</ele>
        <time>2023-01-26T12:50:08Z</time>
      </trkpt>
      <trkpt lat="44.25848" lon="1.66485">
        <ele>215.3</ele>
        <time>2023-01-26T12:50:09Z</time>
      </trkpt>
      <trkpt lat="44.25848" lon="1.6649">
        <ele>215.4</ele>
        <time>2023-01-26T12:50:10Z</time>
      </trkpt>
      <trkpt lat="44.25847" lon="1.66497">
        <ele>215.6</ele>
        <time>2023-01-26T12:50:11Z</time>
      </trkpt>
      <trkpt lat="44.25846" lon="1.66502">
        <ele>215.5</ele>
        <time>2023-01-26T12:50:12Z</time>
      </trkpt>
      <trkpt lat="44.25846" lon="1.66509">
        <ele>215.4</ele>
        <time>2023-01-26T12:50:14Z</time>
      </trkpt>
      <trkpt lat="44.25848" lon="1.66516">
        <ele>215.3</ele>
        <time>2023-01-26T12:50:15Z</time>
      </trkpt>
      <trkpt lat="44.2585" lon="1.66524">
        <ele>215.1</ele>
        <time>2023-01-26T12:50:17Z</time>
      </trkpt>
      <trkpt lat="44.2585" lon="1.66529">
        <ele>215</ele>
        <time>2023-01-26T12:50:18Z</time>
      </trkpt>
      <trkpt lat="44.25851" lon="1.66534">
        <ele>214.9</ele>
        <time>2023-01-26T12:50:19Z</time>
      </trkpt>
      <trkpt lat="44.25852" lon="1.66538">
        <ele>214.9</ele>
        <time>2023-01-26T12:50:20Z</time>
      </trkpt>
      <trkpt lat="44.25855" lon="1.66545">
        <ele>214.8</ele>
        <time>2023-01-26T12:50:22Z</time>
      </trkpt>
      <trkpt lat="44.25857" lon="1.66552">
        <ele>214.7</ele>
        <time>2023-01-26T12:50:23Z</time>
      </trkpt>
      <trkpt lat="44.25858" lon="1.66556">
        <ele>214.7</ele>
        <time>2023-01-26T12:50:24Z</time>
      </trkpt>
      <trkpt lat="44.25859" lon="1.66563">
        <ele>214.7</ele>
        <time>2023-01-26T12:50:26Z</time>
      </trkpt>
      <trkpt lat="44.25862" lon="1.6657">
        <ele>214.8</ele>
        <time>2023-01-26T12:50:27Z</time>
      </trkpt>
      <trkpt lat="44.25864" lon="1.66575">
        <ele>214.9</ele>
        <time>2023-01-26T12:50:29Z</time>
      </trkpt>
      <trkpt lat="44.25866" lon="1.66578">
        <ele>214.9</ele>
        <time>2023-01-26T12:50:30Z</time>
      </trkpt>
      <trkpt lat="44.25869" lon="1.66584">
        <ele>214.9</ele>
        <time>2023-01-26T12:50:32Z</time>
      </trkpt>
      <trkpt lat="44.25872" lon="1.66587">
        <ele>215</ele>
        <time>2023-01-26T12:50:33Z</time>
      </trkpt>
      <trkpt lat="44.25875" lon="1.66591">
        <ele>215</ele>
        <time>2023-01-26T12:50:34Z</time>
      </trkpt>
      <trkpt lat="44.25877" lon="1.66592">
        <ele>215</ele>
        <time>2023-01-26T12:50:35Z</time>
      </trkpt>
      <trkpt lat="44.25881" lon="1.66594">
        <ele>215.1</ele>
        <time>2023-01-26T12:50:37Z</time>
      </trkpt>
      <trkpt lat="44.25883" lon="1.66594">
        <ele>215.1</ele>
        <time>2023-01-26T12:50:38Z</time>
      </trkpt>
      <trkpt lat="44.25886" lon="1.66596">
        <ele>215.1</ele>
        <time>2023-01-26T12:50:40Z</time>
      </trkpt>
      <trkpt lat="44.25888" lon="1.66596">
        <ele>215</ele>
        <time>2023-01-26T12:50:41Z</time>
      </trkpt>
      <trkpt lat="44.25889" lon="1.66596">
        <ele>215</ele>
        <time>2023-01-26T12:50:43Z</time>
      </trkpt>
      <trkpt lat="44.25889" lon="1.66595">
        <ele>215</ele>
        <time>2023-01-26T12:50:44Z</time>
      </trkpt>
      <trkpt lat="44.25889" lon="1.66595">
        <ele>215</ele>
        <time>2023-01-26T12:50:45Z</time>
      </trkpt>
      <trkpt lat="44.25889" lon="1.66596">
        <ele>215</ele>
        <time>2023-01-26T12:50:47Z</time>
      </trkpt>
      <trkpt lat="44.25889" lon="1.66596">
        <ele>215</ele>
        <time>2023-01-26T12:50:48Z</time>
      </trkpt>
      <trkpt lat="44.25889" lon="1.66597">
        <ele>215</ele>
        <time>2023-01-26T12:50:49Z</time>
      </trkpt>
      <trkpt lat="44.25889" lon="1.66597">
        <ele>215</ele>
        <time>2023-01-26T12:50:51Z</time>
      </trkpt>
      <trkpt lat="44.25889" lon="1.66597">
        <ele>215</ele>
        <time>2023-01-26T12:50:52Z</time>
      </trkpt>
      <trkpt lat="44.25889" lon="1.66597">
        <ele>215</ele>
        <time>2023-01-26T12:50:53Z</time>
      </trkpt>
      <trkpt lat="44.2589" lon="1.66598">
        <ele>215</ele>
        <time>2023-01-26T12:50:55Z</time>
      </trkpt>
      <trkpt lat="44.25891" lon="1.66602">
        <ele>215.3</ele>
        <time>2023-01-26T12:51:14Z</time>
      </trkpt>
      <trkpt lat="44.25891" lon="1.66603">
        <ele>215.3</ele>
        <time>2023-01-26T12:51:15Z</time>
      </trkpt>
      <trkpt lat="44.25891" lon="1.66603">
        <ele>215.3</ele>
        <time>2023-01-26T12:51:17Z</time>
      </trkpt>
      <trkpt lat="44.25889" lon="1.66605">
        <ele>215.5</ele>
        <time>2023-01-26T12:51:18Z</time>
      </trkpt>
      <trkpt lat="44.25884" lon="1.6661">
        <ele>215.8</ele>
        <time>2023-01-26T12:51:19Z</time>
      </trkpt>
      <trkpt lat="44.25883" lon="1.66612">
        <ele>216</ele>
        <time>2023-01-26T12:51:20Z</time>
      </trkpt>
      <trkpt lat="44.2588" lon="1.66616">
        <ele>216.2</ele>
        <time>2023-01-26T12:51:22Z</time>
      </trkpt>
      <trkpt lat="44.25879" lon="1.66619">
        <ele>216.4</ele>
        <time>2023-01-26T12:51:23Z</time>
      </trkpt>
      <trkpt lat="44.25876" lon="1.66626">
        <ele>216.7</ele>
        <time>2023-01-26T12:51:24Z</time>
      </trkpt>
      <trkpt lat="44.25874" lon="1.66628">
        <ele>216.9</ele>
        <time>2023-01-26T12:51:25Z</time>
      </trkpt>
      <trkpt lat="44.25872" lon="1.66633">
        <ele>217.1</ele>
        <time>2023-01-26T12:51:27Z</time>
      </trkpt>
      <trkpt lat="44.25867" lon="1.66639">
        <ele>217.5</ele>
        <time>2023-01-26T12:51:28Z</time>
      </trkpt>
      <trkpt lat="44.25863" lon="1.66643">
        <ele>217.8</ele>
        <time>2023-01-26T12:51:30Z</time>
      </trkpt>
      <trkpt lat="44.2586" lon="1.66647">
        <ele>218.1</ele>
        <time>2023-01-26T12:51:31Z</time>
      </trkpt>
      <trkpt lat="44.25857" lon="1.66653">
        <ele>218.4</ele>
        <time>2023-01-26T12:51:33Z</time>
      </trkpt>
      <trkpt lat="44.25854" lon="1.66657">
        <ele>218.7</ele>
        <time>2023-01-26T12:51:34Z</time>
      </trkpt>
      <trkpt lat="44.25851" lon="1.66661">
        <ele>218.9</ele>
        <time>2023-01-26T12:51:35Z</time>
      </trkpt>
      <trkpt lat="44.25848" lon="1.66663">
        <ele>219.1</ele>
        <time>2023-01-26T12:51:36Z</time>
      </trkpt>
      <trkpt lat="44.25844" lon="1.66666">
        <ele>219.4</ele>
        <time>2023-01-26T12:51:37Z</time>
      </trkpt>
      <trkpt lat="44.25842" lon="1.66667">
        <ele>219.7</ele>
        <time>2023-01-26T12:51:38Z</time>
      </trkpt>
      <trkpt lat="44.25838" lon="1.66668">
        <ele>219.9</ele>
        <time>2023-01-26T12:51:40Z</time>
      </trkpt>
      <trkpt lat="44.25835" lon="1.6667">
        <ele>220.2</ele>
        <time>2023-01-26T12:51:41Z</time>
      </trkpt>
      <trkpt lat="44.25833" lon="1.6667">
        <ele>220.2</ele>
        <time>2023-01-26T12:51:42Z</time>
      </trkpt>
      <trkpt lat="44.2583" lon="1.66671">
        <ele>220.5</ele>
        <time>2023-01-26T12:51:43Z</time>
      </trkpt>
      <trkpt lat="44.25828" lon="1.66672">
        <ele>220.5</ele>
        <time>2023-01-26T12:51:44Z</time>
      </trkpt>
      <trkpt lat="44.25825" lon="1.66673">
        <ele>220.7</ele>
        <time>2023-01-26T12:51:45Z</time>
      </trkpt>
      <trkpt lat="44.25822" lon="1.66675">
        <ele>220.9</ele>
        <time>2023-01-26T12:51:47Z</time>
      </trkpt>
      <trkpt lat="44.25821" lon="1.66675">
        <ele>221</ele>
        <time>2023-01-26T12:51:48Z</time>
      </trkpt>
      <trkpt lat="44.25818" lon="1.66676">
        <ele>221.2</ele>
        <time>2023-01-26T12:51:49Z</time>
      </trkpt>
      <trkpt lat="44.25816" lon="1.66677">
        <ele>221.4</ele>
        <time>2023-01-26T12:51:50Z</time>
      </trkpt>
      <trkpt lat="44.25812" lon="1.66678">
        <ele>221.6</ele>
        <time>2023-01-26T12:51:52Z</time>
      </trkpt>
      <trkpt lat="44.25809" lon="1.6668">
        <ele>221.8</ele>
        <time>2023-01-26T12:51:53Z</time>
      </trkpt>
      <trkpt lat="44.25805" lon="1.66682">
        <ele>222</ele>
        <time>2023-01-26T12:51:54Z</time>
      </trkpt>
      <trkpt lat="44.25801" lon="1.66685">
        <ele>222.3</ele>
        <time>2023-01-26T12:51:55Z</time>
      </trkpt>
      <trkpt lat="44.25798" lon="1.66688">
        <ele>222.5</ele>
        <time>2023-01-26T12:51:57Z</time>
      </trkpt>
      <trkpt lat="44.25794" lon="1.66691">
        <ele>222.8</ele>
        <time>2023-01-26T12:51:58Z</time>
      </trkpt>
      <trkpt lat="44.2579" lon="1.66693">
        <ele>223.1</ele>
        <time>2023-01-26T12:51:59Z</time>
      </trkpt>
      <trkpt lat="44.25786" lon="1.66697">
        <ele>223.4</ele>
        <time>2023-01-26T12:52:01Z</time>
      </trkpt>
      <trkpt lat="44.25782" lon="1.66701">
        <ele>223.6</ele>
        <time>2023-01-26T12:52:02Z</time>
      </trkpt>
      <trkpt lat="44.25781" lon="1.66702">
        <ele>223.7</ele>
        <time>2023-01-26T12:52:03Z</time>
      </trkpt>
      <trkpt lat="44.25778" lon="1.66705">
        <ele>223.9</ele>
        <time>2023-01-26T12:52:04Z</time>
      </trkpt>
      <trkpt lat="44.25774" lon="1.66708">
        <ele>224.2</ele>
        <time>2023-01-26T12:52:06Z</time>
      </trkpt>
      <trkpt lat="44.25772" lon="1.66709">
        <ele>224.3</ele>
        <time>2023-01-26T12:52:07Z</time>
      </trkpt>
      <trkpt lat="44.25771" lon="1.66711">
        <ele>224.4</ele>
        <time>2023-01-26T12:52:08Z</time>
      </trkpt>
      <trkpt lat="44.25766" lon="1.66714">
        <ele>224.7</ele>
        <time>2023-01-26T12:52:09Z</time>
      </trkpt>
      <trkpt lat="44.25762" lon="1.66718">
        <ele>225.1</ele>
        <time>2023-01-26T12:52:11Z</time>
      </trkpt>
      <trkpt lat="44.2576" lon="1.6672">
        <ele>225.2</ele>
        <time>2023-01-26T12:52:12Z</time>
      </trkpt>
      <trkpt lat="44.25759" lon="1.66722">
        <ele>225.3</ele>
        <time>2023-01-26T12:52:13Z</time>
      </trkpt>
      <trkpt lat="44.25757" lon="1.66725">
        <ele>225.5</ele>
        <time>2023-01-26T12:52:14Z</time>
      </trkpt>
      <trkpt lat="44.25753" lon="1.66728">
        <ele>225.8</ele>
        <time>2023-01-26T12:52:16Z</time>
      </trkpt>
      <trkpt lat="44.25751" lon="1.6673">
        <ele>225.9</ele>
        <time>2023-01-26T12:52:17Z</time>
      </trkpt>
      <trkpt lat="44.25748" lon="1.66733">
        <ele>226.1</ele>
        <time>2023-01-26T12:52:18Z</time>
      </trkpt>
      <trkpt lat="44.25746" lon="1.66734">
        <ele>226.2</ele>
        <time>2023-01-26T12:52:19Z</time>
      </trkpt>
      <trkpt lat="44.25743" lon="1.66738">
        <ele>226.5</ele>
        <time>2023-01-26T12:52:20Z</time>
      </trkpt>
      <trkpt lat="44.25738" lon="1.66743">
        <ele>226.9</ele>
        <time>2023-01-26T12:52:22Z</time>
      </trkpt>
      <trkpt lat="44.25736" lon="1.66745">
        <ele>227</ele>
        <time>2023-01-26T12:52:23Z</time>
      </trkpt>
      <trkpt lat="44.25735" lon="1.66747">
        <ele>227.1</ele>
        <time>2023-01-26T12:52:24Z</time>
      </trkpt>
      <trkpt lat="44.25732" lon="1.6675">
        <ele>227.3</ele>
        <time>2023-01-26T12:52:26Z</time>
      </trkpt>
      <trkpt lat="44.2573" lon="1.66753">
        <ele>227.5</ele>
        <time>2023-01-26T12:52:27Z</time>
      </trkpt>
      <trkpt lat="44.25728" lon="1.66757">
        <ele>227.7</ele>
        <time>2023-01-26T12:52:28Z</time>
      </trkpt>
      <trkpt lat="44.25725" lon="1.66761">
        <ele>228</ele>
        <time>2023-01-26T12:52:29Z</time>
      </trkpt>
      <trkpt lat="44.25724" lon="1.66762">
        <ele>228</ele>
        <time>2023-01-26T12:52:30Z</time>
      </trkpt>
      <trkpt lat="44.2572" lon="1.66767">
        <ele>228.3</ele>
        <time>2023-01-26T12:52:31Z</time>
      </trkpt>
      <trkpt lat="44.25717" lon="1.66769">
        <ele>228.6</ele>
        <time>2023-01-26T12:52:33Z</time>
      </trkpt>
      <trkpt lat="44.25714" lon="1.66772">
        <ele>228.8</ele>
        <time>2023-01-26T12:52:34Z</time>
      </trkpt>
      <trkpt lat="44.2571" lon="1.66775">
        <ele>229</ele>
        <time>2023-01-26T12:52:35Z</time>
      </trkpt>
      <trkpt lat="44.25706" lon="1.66779">
        <ele>229.3</ele>
        <time>2023-01-26T12:52:36Z</time>
      </trkpt>
      <trkpt lat="44.25704" lon="1.66782">
        <ele>229.5</ele>
        <time>2023-01-26T12:52:37Z</time>
      </trkpt>
      <trkpt lat="44.257" lon="1.66786">
        <ele>229.8</ele>
        <time>2023-01-26T12:52:39Z</time>
      </trkpt>
      <trkpt lat="44.25698" lon="1.6679">
        <ele>230</ele>
        <time>2023-01-26T12:52:40Z</time>
      </trkpt>
      <trkpt lat="44.25694" lon="1.66795">
        <ele>230.3</ele>
        <time>2023-01-26T12:52:41Z</time>
      </trkpt>
      <trkpt lat="44.25692" lon="1.66797">
        <ele>230.5</ele>
        <time>2023-01-26T12:52:42Z</time>
      </trkpt>
      <trkpt lat="44.2569" lon="1.668">
        <ele>230.7</ele>
        <time>2023-01-26T12:52:43Z</time>
      </trkpt>
      <trkpt lat="44.25687" lon="1.66804">
        <ele>230.9</ele>
        <time>2023-01-26T12:52:45Z</time>
      </trkpt>
      <trkpt lat="44.25684" lon="1.66807">
        <ele>231.1</ele>
        <time>2023-01-26T12:52:46Z</time>
      </trkpt>
      <trkpt lat="44.25682" lon="1.66811">
        <ele>231.4</ele>
        <time>2023-01-26T12:52:47Z</time>
      </trkpt>
      <trkpt lat="44.25679" lon="1.66814">
        <ele>231.6</ele>
        <time>2023-01-26T12:52:48Z</time>
      </trkpt>
      <trkpt lat="44.25676" lon="1.66819">
        <ele>231.8</ele>
        <time>2023-01-26T12:52:49Z</time>
      </trkpt>
      <trkpt lat="44.25674" lon="1.66821">
        <ele>232</ele>
        <time>2023-01-26T12:52:50Z</time>
      </trkpt>
      <trkpt lat="44.2567" lon="1.66825">
        <ele>232.3</ele>
        <time>2023-01-26T12:52:52Z</time>
      </trkpt>
      <trkpt lat="44.25667" lon="1.66829">
        <ele>232.5</ele>
        <time>2023-01-26T12:52:53Z</time>
      </trkpt>
      <trkpt lat="44.25666" lon="1.66831">
        <ele>232.6</ele>
        <time>2023-01-26T12:52:54Z</time>
      </trkpt>
      <trkpt lat="44.25663" lon="1.66835">
        <ele>232.9</ele>
        <time>2023-01-26T12:52:55Z</time>
      </trkpt>
      <trkpt lat="44.25661" lon="1.66837">
        <ele>233</ele>
        <time>2023-01-26T12:52:56Z</time>
      </trkpt>
      <trkpt lat="44.25659" lon="1.66839">
        <ele>233.2</ele>
        <time>2023-01-26T12:52:57Z</time>
      </trkpt>
      <trkpt lat="44.25654" lon="1.66843">
        <ele>233.5</ele>
        <time>2023-01-26T12:52:59Z</time>
      </trkpt>
      <trkpt lat="44.25652" lon="1.66847">
        <ele>233.7</ele>
        <time>2023-01-26T12:53:01Z</time>
      </trkpt>
      <trkpt lat="44.25649" lon="1.66849">
        <ele>233.9</ele>
        <time>2023-01-26T12:53:02Z</time>
      </trkpt>
      <trkpt lat="44.25646" lon="1.66852">
        <ele>234.1</ele>
        <time>2023-01-26T12:53:03Z</time>
      </trkpt>
      <trkpt lat="44.25644" lon="1.66854">
        <ele>234.3</ele>
        <time>2023-01-26T12:53:04Z</time>
      </trkpt>
      <trkpt lat="44.2564" lon="1.66857">
        <ele>234.5</ele>
        <time>2023-01-26T12:53:05Z</time>
      </trkpt>
      <trkpt lat="44.25638" lon="1.66858">
        <ele>234.7</ele>
        <time>2023-01-26T12:53:06Z</time>
      </trkpt>
      <trkpt lat="44.25632" lon="1.66863">
        <ele>235.1</ele>
        <time>2023-01-26T12:53:08Z</time>
      </trkpt>
      <trkpt lat="44.2563" lon="1.66865">
        <ele>235.3</ele>
        <time>2023-01-26T12:53:10Z</time>
      </trkpt>
      <trkpt lat="44.25626" lon="1.66868">
        <ele>235.5</ele>
        <time>2023-01-26T12:53:11Z</time>
      </trkpt>
      <trkpt lat="44.25624" lon="1.66869">
        <ele>235.6</ele>
        <time>2023-01-26T12:53:12Z</time>
      </trkpt>
      <trkpt lat="44.25621" lon="1.66872">
        <ele>235.9</ele>
        <time>2023-01-26T12:53:13Z</time>
      </trkpt>
      <trkpt lat="44.25619" lon="1.66874">
        <ele>236.1</ele>
        <time>2023-01-26T12:53:14Z</time>
      </trkpt>
      <trkpt lat="44.25614" lon="1.66878">
        <ele>236.4</ele>
        <time>2023-01-26T12:53:16Z</time>
      </trkpt>
      <trkpt lat="44.2561" lon="1.66883">
        <ele>236.7</ele>
        <time>2023-01-26T12:53:17Z</time>
      </trkpt>
      <trkpt lat="44.25607" lon="1.66886">
        <ele>236.9</ele>
        <time>2023-01-26T12:53:19Z</time>
      </trkpt>
      <trkpt lat="44.25603" lon="1.66889">
        <ele>237.2</ele>
        <time>2023-01-26T12:53:20Z</time>
      </trkpt>
      <trkpt lat="44.25598" lon="1.66893">
        <ele>237.5</ele>
        <time>2023-01-26T12:53:22Z</time>
      </trkpt>
      <trkpt lat="44.25595" lon="1.66896">
        <ele>237.8</ele>
        <time>2023-01-26T12:53:23Z</time>
      </trkpt>
      <trkpt lat="44.25591" lon="1.669">
        <ele>238</ele>
        <time>2023-01-26T12:53:24Z</time>
      </trkpt>
      <trkpt lat="44.25588" lon="1.66902">
        <ele>238.3</ele>
        <time>2023-01-26T12:53:25Z</time>
      </trkpt>
      <trkpt lat="44.25585" lon="1.66906">
        <ele>238.5</ele>
        <time>2023-01-26T12:53:26Z</time>
      </trkpt>
      <trkpt lat="44.25582" lon="1.6691">
        <ele>238.7</ele>
        <time>2023-01-26T12:53:28Z</time>
      </trkpt>
      <trkpt lat="44.25579" lon="1.66913">
        <ele>239</ele>
        <time>2023-01-26T12:53:29Z</time>
      </trkpt>
      <trkpt lat="44.25577" lon="1.66916">
        <ele>239.2</ele>
        <time>2023-01-26T12:53:30Z</time>
      </trkpt>
      <trkpt lat="44.25573" lon="1.66919">
        <ele>239.4</ele>
        <time>2023-01-26T12:53:31Z</time>
      </trkpt>
      <trkpt lat="44.25571" lon="1.66922">
        <ele>239.6</ele>
        <time>2023-01-26T12:53:32Z</time>
      </trkpt>
      <trkpt lat="44.25568" lon="1.66926">
        <ele>239.9</ele>
        <time>2023-01-26T12:53:34Z</time>
      </trkpt>
      <trkpt lat="44.25566" lon="1.6693">
        <ele>240.1</ele>
        <time>2023-01-26T12:53:35Z</time>
      </trkpt>
      <trkpt lat="44.25563" lon="1.66934">
        <ele>240.3</ele>
        <time>2023-01-26T12:53:36Z</time>
      </trkpt>
      <trkpt lat="44.25561" lon="1.66937">
        <ele>240.5</ele>
        <time>2023-01-26T12:53:37Z</time>
      </trkpt>
      <trkpt lat="44.25556" lon="1.66946">
        <ele>241</ele>
        <time>2023-01-26T12:53:39Z</time>
      </trkpt>
      <trkpt lat="44.25554" lon="1.6695">
        <ele>241.2</ele>
        <time>2023-01-26T12:53:41Z</time>
      </trkpt>
      <trkpt lat="44.25552" lon="1.66954">
        <ele>241.4</ele>
        <time>2023-01-26T12:53:42Z</time>
      </trkpt>
      <trkpt lat="44.25549" lon="1.6696">
        <ele>241.7</ele>
        <time>2023-01-26T12:53:44Z</time>
      </trkpt>
      <trkpt lat="44.25548" lon="1.66964">
        <ele>241.9</ele>
        <time>2023-01-26T12:53:45Z</time>
      </trkpt>
      <trkpt lat="44.25546" lon="1.66967">
        <ele>242.1</ele>
        <time>2023-01-26T12:53:46Z</time>
      </trkpt>
      <trkpt lat="44.25543" lon="1.66974">
        <ele>242.4</ele>
        <time>2023-01-26T12:53:48Z</time>
      </trkpt>
      <trkpt lat="44.25541" lon="1.66978">
        <ele>242.6</ele>
        <time>2023-01-26T12:53:49Z</time>
      </trkpt>
      <trkpt lat="44.25539" lon="1.66982">
        <ele>242.8</ele>
        <time>2023-01-26T12:53:50Z</time>
      </trkpt>
      <trkpt lat="44.25537" lon="1.66988">
        <ele>243.1</ele>
        <time>2023-01-26T12:53:51Z</time>
      </trkpt>
      <trkpt lat="44.25536" lon="1.66992">
        <ele>243.3</ele>
        <time>2023-01-26T12:53:52Z</time>
      </trkpt>
      <trkpt lat="44.25533" lon="1.66996">
        <ele>243.5</ele>
        <time>2023-01-26T12:53:54Z</time>
      </trkpt>
      <trkpt lat="44.25531" lon="1.67">
        <ele>243.7</ele>
        <time>2023-01-26T12:53:55Z</time>
      </trkpt>
      <trkpt lat="44.2553" lon="1.67003">
        <ele>243.9</ele>
        <time>2023-01-26T12:53:56Z</time>
      </trkpt>
      <trkpt lat="44.25528" lon="1.67008">
        <ele>244.1</ele>
        <time>2023-01-26T12:53:57Z</time>
      </trkpt>
      <trkpt lat="44.25525" lon="1.67013">
        <ele>244.4</ele>
        <time>2023-01-26T12:53:58Z</time>
      </trkpt>
      <trkpt lat="44.25522" lon="1.67019">
        <ele>244.8</ele>
        <time>2023-01-26T12:54:00Z</time>
      </trkpt>
      <trkpt lat="44.2552" lon="1.67024">
        <ele>245</ele>
        <time>2023-01-26T12:54:01Z</time>
      </trkpt>
      <trkpt lat="44.25518" lon="1.67031">
        <ele>245.3</ele>
        <time>2023-01-26T12:54:02Z</time>
      </trkpt>
      <trkpt lat="44.25514" lon="1.67039">
        <ele>245.7</ele>
        <time>2023-01-26T12:54:04Z</time>
      </trkpt>
      <trkpt lat="44.2551" lon="1.67045">
        <ele>246.1</ele>
        <time>2023-01-26T12:54:05Z</time>
      </trkpt>
      <trkpt lat="44.25507" lon="1.67051">
        <ele>246.4</ele>
        <time>2023-01-26T12:54:06Z</time>
      </trkpt>
      <trkpt lat="44.25503" lon="1.67057">
        <ele>246.7</ele>
        <time>2023-01-26T12:54:07Z</time>
      </trkpt>
      <trkpt lat="44.25498" lon="1.67065">
        <ele>247.2</ele>
        <time>2023-01-26T12:54:09Z</time>
      </trkpt>
      <trkpt lat="44.25493" lon="1.67072">
        <ele>247.6</ele>
        <time>2023-01-26T12:54:10Z</time>
      </trkpt>
      <trkpt lat="44.25488" lon="1.67079">
        <ele>248.1</ele>
        <time>2023-01-26T12:54:12Z</time>
      </trkpt>
      <trkpt lat="44.25484" lon="1.67085">
        <ele>248.4</ele>
        <time>2023-01-26T12:54:13Z</time>
      </trkpt>
      <trkpt lat="44.25479" lon="1.67094">
        <ele>248.9</ele>
        <time>2023-01-26T12:54:15Z</time>
      </trkpt>
      <trkpt lat="44.25477" lon="1.671">
        <ele>249.2</ele>
        <time>2023-01-26T12:54:16Z</time>
      </trkpt>
      <trkpt lat="44.25476" lon="1.67106">
        <ele>249.5</ele>
        <time>2023-01-26T12:54:17Z</time>
      </trkpt>
      <trkpt lat="44.25476" lon="1.6711">
        <ele>249.7</ele>
        <time>2023-01-26T12:54:18Z</time>
      </trkpt>
      <trkpt lat="44.25476" lon="1.67119">
        <ele>250</ele>
        <time>2023-01-26T12:54:19Z</time>
      </trkpt>
      <trkpt lat="44.25476" lon="1.67125">
        <ele>250.3</ele>
        <time>2023-01-26T12:54:21Z</time>
      </trkpt>
      <trkpt lat="44.25477" lon="1.6713">
        <ele>250.5</ele>
        <time>2023-01-26T12:54:22Z</time>
      </trkpt>
      <trkpt lat="44.25476" lon="1.67139">
        <ele>250.9</ele>
        <time>2023-01-26T12:54:24Z</time>
      </trkpt>
      <trkpt lat="44.25475" lon="1.67143">
        <ele>251.1</ele>
        <time>2023-01-26T12:54:25Z</time>
      </trkpt>
      <trkpt lat="44.25474" lon="1.67149">
        <ele>251.3</ele>
        <time>2023-01-26T12:54:27Z</time>
      </trkpt>
      <trkpt lat="44.25474" lon="1.67153">
        <ele>251.5</ele>
        <time>2023-01-26T12:54:28Z</time>
      </trkpt>
      <trkpt lat="44.25472" lon="1.67158">
        <ele>251.7</ele>
        <time>2023-01-26T12:54:29Z</time>
      </trkpt>
      <trkpt lat="44.2547" lon="1.67163">
        <ele>252</ele>
        <time>2023-01-26T12:54:30Z</time>
      </trkpt>
      <trkpt lat="44.25469" lon="1.67168">
        <ele>252.2</ele>
        <time>2023-01-26T12:54:32Z</time>
      </trkpt>
      <trkpt lat="44.25467" lon="1.67172">
        <ele>252.4</ele>
        <time>2023-01-26T12:54:33Z</time>
      </trkpt>
      <trkpt lat="44.25465" lon="1.67177">
        <ele>252.7</ele>
        <time>2023-01-26T12:54:34Z</time>
      </trkpt>
      <trkpt lat="44.25463" lon="1.6718">
        <ele>252.9</ele>
        <time>2023-01-26T12:54:35Z</time>
      </trkpt>
      <trkpt lat="44.25461" lon="1.67185">
        <ele>253.1</ele>
        <time>2023-01-26T12:54:36Z</time>
      </trkpt>
      <trkpt lat="44.2546" lon="1.67189">
        <ele>253.3</ele>
        <time>2023-01-26T12:54:37Z</time>
      </trkpt>
      <trkpt lat="44.25458" lon="1.67198">
        <ele>253.7</ele>
        <time>2023-01-26T12:54:39Z</time>
      </trkpt>
      <trkpt lat="44.25456" lon="1.67203">
        <ele>253.9</ele>
        <time>2023-01-26T12:54:41Z</time>
      </trkpt>
      <trkpt lat="44.25454" lon="1.67206">
        <ele>254.1</ele>
        <time>2023-01-26T12:54:42Z</time>
      </trkpt>
      <trkpt lat="44.25452" lon="1.67209">
        <ele>254.3</ele>
        <time>2023-01-26T12:54:43Z</time>
      </trkpt>
      <trkpt lat="44.2545" lon="1.67213">
        <ele>254.5</ele>
        <time>2023-01-26T12:54:44Z</time>
      </trkpt>
      <trkpt lat="44.25448" lon="1.67217">
        <ele>254.7</ele>
        <time>2023-01-26T12:54:45Z</time>
      </trkpt>
      <trkpt lat="44.25446" lon="1.6722">
        <ele>254.9</ele>
        <time>2023-01-26T12:54:46Z</time>
      </trkpt>
      <trkpt lat="44.25444" lon="1.67223">
        <ele>255.1</ele>
        <time>2023-01-26T12:54:47Z</time>
      </trkpt>
      <trkpt lat="44.25441" lon="1.67228">
        <ele>255.3</ele>
        <time>2023-01-26T12:54:49Z</time>
      </trkpt>
      <trkpt lat="44.25439" lon="1.67232">
        <ele>255.6</ele>
        <time>2023-01-26T12:54:50Z</time>
      </trkpt>
      <trkpt lat="44.25437" lon="1.67236">
        <ele>255.8</ele>
        <time>2023-01-26T12:54:51Z</time>
      </trkpt>
      <trkpt lat="44.25435" lon="1.67241">
        <ele>256</ele>
        <time>2023-01-26T12:54:52Z</time>
      </trkpt>
      <trkpt lat="44.25432" lon="1.67245">
        <ele>256.3</ele>
        <time>2023-01-26T12:54:53Z</time>
      </trkpt>
      <trkpt lat="44.2543" lon="1.67251">
        <ele>256.5</ele>
        <time>2023-01-26T12:54:54Z</time>
      </trkpt>
      <trkpt lat="44.25427" lon="1.67261">
        <ele>257</ele>
        <time>2023-01-26T12:54:56Z</time>
      </trkpt>
      <trkpt lat="44.25426" lon="1.67267">
        <ele>257.3</ele>
        <time>2023-01-26T12:54:58Z</time>
      </trkpt>
      <trkpt lat="44.25425" lon="1.6727">
        <ele>257.4</ele>
        <time>2023-01-26T12:54:59Z</time>
      </trkpt>
      <trkpt lat="44.25423" lon="1.67275">
        <ele>257.6</ele>
        <time>2023-01-26T12:55:00Z</time>
      </trkpt>
      <trkpt lat="44.25421" lon="1.67279">
        <ele>257.9</ele>
        <time>2023-01-26T12:55:01Z</time>
      </trkpt>
      <trkpt lat="44.25419" lon="1.67282">
        <ele>258.1</ele>
        <time>2023-01-26T12:55:02Z</time>
      </trkpt>
      <trkpt lat="44.25414" lon="1.67289">
        <ele>258.5</ele>
        <time>2023-01-26T12:55:04Z</time>
      </trkpt>
      <trkpt lat="44.25412" lon="1.67293">
        <ele>258.7</ele>
        <time>2023-01-26T12:55:06Z</time>
      </trkpt>
      <trkpt lat="44.2541" lon="1.67297">
        <ele>258.9</ele>
        <time>2023-01-26T12:55:07Z</time>
      </trkpt>
      <trkpt lat="44.25408" lon="1.67299">
        <ele>259</ele>
        <time>2023-01-26T12:55:08Z</time>
      </trkpt>
      <trkpt lat="44.25405" lon="1.67303">
        <ele>259.3</ele>
        <time>2023-01-26T12:55:10Z</time>
      </trkpt>
      <trkpt lat="44.25404" lon="1.67308">
        <ele>259.5</ele>
        <time>2023-01-26T12:55:11Z</time>
      </trkpt>
      <trkpt lat="44.25405" lon="1.67314">
        <ele>259.8</ele>
        <time>2023-01-26T12:55:12Z</time>
      </trkpt>
      <trkpt lat="44.25406" lon="1.6732">
        <ele>260</ele>
        <time>2023-01-26T12:55:13Z</time>
      </trkpt>
      <trkpt lat="44.25405" lon="1.67324">
        <ele>260.2</ele>
        <time>2023-01-26T12:55:14Z</time>
      </trkpt>
      <trkpt lat="44.25401" lon="1.67328">
        <ele>260.5</ele>
        <time>2023-01-26T12:55:16Z</time>
      </trkpt>
      <trkpt lat="44.25398" lon="1.6733">
        <ele>260.7</ele>
        <time>2023-01-26T12:55:17Z</time>
      </trkpt>
      <trkpt lat="44.25394" lon="1.67333">
        <ele>261</ele>
        <time>2023-01-26T12:55:18Z</time>
      </trkpt>
      <trkpt lat="44.2539" lon="1.67336">
        <ele>261.3</ele>
        <time>2023-01-26T12:55:19Z</time>
      </trkpt>
      <trkpt lat="44.25385" lon="1.67342">
        <ele>261.7</ele>
        <time>2023-01-26T12:55:21Z</time>
      </trkpt>
      <trkpt lat="44.25383" lon="1.67347">
        <ele>261.9</ele>
        <time>2023-01-26T12:55:22Z</time>
      </trkpt>
      <trkpt lat="44.25381" lon="1.67352">
        <ele>262.2</ele>
        <time>2023-01-26T12:55:23Z</time>
      </trkpt>
      <trkpt lat="44.25377" lon="1.6736">
        <ele>262.6</ele>
        <time>2023-01-26T12:55:25Z</time>
      </trkpt>
      <trkpt lat="44.25377" lon="1.67366">
        <ele>262.8</ele>
        <time>2023-01-26T12:55:26Z</time>
      </trkpt>
      <trkpt lat="44.25376" lon="1.67372">
        <ele>263.1</ele>
        <time>2023-01-26T12:55:27Z</time>
      </trkpt>
      <trkpt lat="44.25375" lon="1.6738">
        <ele>263.4</ele>
        <time>2023-01-26T12:55:29Z</time>
      </trkpt>
      <trkpt lat="44.25374" lon="1.67385">
        <ele>263.6</ele>
        <time>2023-01-26T12:55:30Z</time>
      </trkpt>
      <trkpt lat="44.25373" lon="1.67391">
        <ele>263.9</ele>
        <time>2023-01-26T12:55:31Z</time>
      </trkpt>
      <trkpt lat="44.25371" lon="1.67399">
        <ele>264.3</ele>
        <time>2023-01-26T12:55:33Z</time>
      </trkpt>
      <trkpt lat="44.2537" lon="1.67404">
        <ele>264.5</ele>
        <time>2023-01-26T12:55:34Z</time>
      </trkpt>
      <trkpt lat="44.25368" lon="1.67409">
        <ele>264.8</ele>
        <time>2023-01-26T12:55:35Z</time>
      </trkpt>
      <trkpt lat="44.25365" lon="1.67414">
        <ele>265</ele>
        <time>2023-01-26T12:55:36Z</time>
      </trkpt>
      <trkpt lat="44.25362" lon="1.67418">
        <ele>265.3</ele>
        <time>2023-01-26T12:55:37Z</time>
      </trkpt>
      <trkpt lat="44.25357" lon="1.67425">
        <ele>265.7</ele>
        <time>2023-01-26T12:55:39Z</time>
      </trkpt>
      <trkpt lat="44.25353" lon="1.67428">
        <ele>266</ele>
        <time>2023-01-26T12:55:41Z</time>
      </trkpt>
      <trkpt lat="44.25351" lon="1.67431">
        <ele>266.2</ele>
        <time>2023-01-26T12:55:42Z</time>
      </trkpt>
      <trkpt lat="44.25346" lon="1.67435">
        <ele>266.5</ele>
        <time>2023-01-26T12:55:43Z</time>
      </trkpt>
      <trkpt lat="44.25342" lon="1.67439">
        <ele>266.8</ele>
        <time>2023-01-26T12:55:45Z</time>
      </trkpt>
      <trkpt lat="44.25338" lon="1.67443">
        <ele>267.1</ele>
        <time>2023-01-26T12:55:46Z</time>
      </trkpt>
      <trkpt lat="44.25334" lon="1.67449">
        <ele>267.4</ele>
        <time>2023-01-26T12:55:47Z</time>
      </trkpt>
      <trkpt lat="44.25331" lon="1.67454">
        <ele>267.7</ele>
        <time>2023-01-26T12:55:49Z</time>
      </trkpt>
      <trkpt lat="44.2533" lon="1.67459">
        <ele>267.9</ele>
        <time>2023-01-26T12:55:50Z</time>
      </trkpt>
      <trkpt lat="44.25329" lon="1.67465">
        <ele>268.2</ele>
        <time>2023-01-26T12:55:51Z</time>
      </trkpt>
      <trkpt lat="44.25329" lon="1.6747">
        <ele>268.4</ele>
        <time>2023-01-26T12:55:52Z</time>
      </trkpt>
      <trkpt lat="44.25327" lon="1.67476">
        <ele>268.7</ele>
        <time>2023-01-26T12:55:53Z</time>
      </trkpt>
      <trkpt lat="44.25325" lon="1.67481">
        <ele>268.9</ele>
        <time>2023-01-26T12:55:54Z</time>
      </trkpt>
      <trkpt lat="44.25322" lon="1.67485">
        <ele>269.2</ele>
        <time>2023-01-26T12:55:56Z</time>
      </trkpt>
      <trkpt lat="44.2532" lon="1.67489">
        <ele>269.4</ele>
        <time>2023-01-26T12:55:57Z</time>
      </trkpt>
      <trkpt lat="44.25317" lon="1.67493">
        <ele>269.6</ele>
        <time>2023-01-26T12:55:58Z</time>
      </trkpt>
      <trkpt lat="44.25314" lon="1.67498">
        <ele>269.9</ele>
        <time>2023-01-26T12:55:59Z</time>
      </trkpt>
      <trkpt lat="44.25311" lon="1.67503">
        <ele>270.2</ele>
        <time>2023-01-26T12:56:00Z</time>
      </trkpt>
      <trkpt lat="44.25308" lon="1.67506">
        <ele>270.5</ele>
        <time>2023-01-26T12:56:01Z</time>
      </trkpt>
      <trkpt lat="44.25304" lon="1.67511">
        <ele>270.8</ele>
        <time>2023-01-26T12:56:03Z</time>
      </trkpt>
      <trkpt lat="44.253" lon="1.67512">
        <ele>271</ele>
        <time>2023-01-26T12:56:04Z</time>
      </trkpt>
      <trkpt lat="44.25297" lon="1.67514">
        <ele>271.2</ele>
        <time>2023-01-26T12:56:05Z</time>
      </trkpt>
      <trkpt lat="44.25293" lon="1.67517">
        <ele>271.5</ele>
        <time>2023-01-26T12:56:06Z</time>
      </trkpt>
      <trkpt lat="44.25288" lon="1.6752">
        <ele>271.8</ele>
        <time>2023-01-26T12:56:07Z</time>
      </trkpt>
      <trkpt lat="44.25285" lon="1.67525">
        <ele>272.1</ele>
        <time>2023-01-26T12:56:09Z</time>
      </trkpt>
      <trkpt lat="44.25284" lon="1.67529">
        <ele>272.3</ele>
        <time>2023-01-26T12:56:10Z</time>
      </trkpt>
      <trkpt lat="44.25284" lon="1.67534">
        <ele>273.7</ele>
        <time>2023-01-26T12:56:11Z</time>
      </trkpt>
      <trkpt lat="44.25285" lon="1.6754">
        <ele>273.8</ele>
        <time>2023-01-26T12:56:12Z</time>
        <extensions>
          <visugpx:TrkExtension xmlns:visugpx="https://www.visugpx.com/editgpx/">
            <visugpx:node>16</visugpx:node>
            </visugpx:TrkExtension>
        </extensions>
      </trkpt>
      <trkpt lat="44.25067" lon="1.67267">
        <ele>279.8</ele>
        <extensions>
          <visugpx:TrkExtension xmlns:visugpx="https://www.visugpx.com/editgpx/">
            <visugpx:node>17</visugpx:node>
            </visugpx:TrkExtension>
        </extensions>
      </trkpt>
      <trkpt lat="44.25015" lon="1.67601">
        <ele>289.4</ele>
        <extensions>
          <visugpx:TrkExtension xmlns:visugpx="https://www.visugpx.com/editgpx/">
            <visugpx:node>18</visugpx:node>
            </visugpx:TrkExtension>
        </extensions>
      </trkpt>
      <trkpt lat="44.25048" lon="1.67639">
        <ele>289.6</ele>
        <time>2023-01-26T13:07:39Z</time>
      </trkpt>
      <trkpt lat="44.25046" lon="1.6764">
        <ele>289.6</ele>
        <time>2023-01-26T13:07:40Z</time>
      </trkpt>
      <trkpt lat="44.25043" lon="1.67641">
        <ele>289.6</ele>
        <time>2023-01-26T13:07:41Z</time>
      </trkpt>
      <trkpt lat="44.25039" lon="1.67642">
        <ele>289.6</ele>
        <time>2023-01-26T13:07:43Z</time>
      </trkpt>
      <trkpt lat="44.25037" lon="1.67645">
        <ele>290</ele>
        <time>2023-01-26T13:07:44Z</time>
      </trkpt>
      <trkpt lat="44.25035" lon="1.67646">
        <ele>291.4</ele>
        <time>2023-01-26T13:07:45Z</time>
      </trkpt>
      <trkpt lat="44.25032" lon="1.67645">
        <ele>291.4</ele>
        <time>2023-01-26T13:07:47Z</time>
      </trkpt>
      <trkpt lat="44.25031" lon="1.67646">
        <ele>291.5</ele>
        <time>2023-01-26T13:07:48Z</time>
      </trkpt>
      <trkpt lat="44.2503" lon="1.67649">
        <ele>291.7</ele>
        <time>2023-01-26T13:07:49Z</time>
      </trkpt>
      <trkpt lat="44.2503" lon="1.67653">
        <ele>291.9</ele>
        <time>2023-01-26T13:07:51Z</time>
      </trkpt>
      <trkpt lat="44.2503" lon="1.67655">
        <ele>292.1</ele>
        <time>2023-01-26T13:07:52Z</time>
      </trkpt>
      <trkpt lat="44.2503" lon="1.67659">
        <ele>292.3</ele>
        <time>2023-01-26T13:07:54Z</time>
      </trkpt>
      <trkpt lat="44.2503" lon="1.67662">
        <ele>292.4</ele>
        <time>2023-01-26T13:07:55Z</time>
      </trkpt>
      <trkpt lat="44.25031" lon="1.67669">
        <ele>292.8</ele>
        <time>2023-01-26T13:07:57Z</time>
      </trkpt>
      <trkpt lat="44.25031" lon="1.67672">
        <ele>293</ele>
        <time>2023-01-26T13:07:58Z</time>
      </trkpt>
      <trkpt lat="44.2503" lon="1.67679">
        <ele>293.4</ele>
        <time>2023-01-26T13:08:00Z</time>
      </trkpt>
      <trkpt lat="44.2503" lon="1.67684">
        <ele>293.6</ele>
        <time>2023-01-26T13:08:01Z</time>
      </trkpt>
      <trkpt lat="44.2503" lon="1.67688">
        <ele>293.7</ele>
        <time>2023-01-26T13:08:02Z</time>
      </trkpt>
      <trkpt lat="44.25031" lon="1.67694">
        <ele>294</ele>
        <time>2023-01-26T13:08:03Z</time>
      </trkpt>
      <trkpt lat="44.25031" lon="1.67698">
        <ele>294.1</ele>
        <time>2023-01-26T13:08:04Z</time>
      </trkpt>
      <trkpt lat="44.2503" lon="1.67706">
        <ele>294.3</ele>
        <time>2023-01-26T13:08:06Z</time>
      </trkpt>
      <trkpt lat="44.2503" lon="1.67714">
        <ele>294.5</ele>
        <time>2023-01-26T13:08:07Z</time>
      </trkpt>
      <trkpt lat="44.2503" lon="1.6772">
        <ele>294.7</ele>
        <time>2023-01-26T13:08:09Z</time>
      </trkpt>
      <trkpt lat="44.25029" lon="1.67724">
        <ele>294.8</ele>
        <time>2023-01-26T13:08:10Z</time>
      </trkpt>
      <trkpt lat="44.25028" lon="1.67728">
        <ele>294.9</ele>
        <time>2023-01-26T13:08:11Z</time>
      </trkpt>
      <trkpt lat="44.25028" lon="1.67737">
        <ele>295</ele>
        <time>2023-01-26T13:08:13Z</time>
      </trkpt>
      <trkpt lat="44.25028" lon="1.67741">
        <ele>295.1</ele>
        <time>2023-01-26T13:08:14Z</time>
      </trkpt>
      <trkpt lat="44.25028" lon="1.67748">
        <ele>295.2</ele>
        <time>2023-01-26T13:08:16Z</time>
      </trkpt>
      <trkpt lat="44.25028" lon="1.67752">
        <ele>295.3</ele>
        <time>2023-01-26T13:08:17Z</time>
      </trkpt>
      <trkpt lat="44.25028" lon="1.67758">
        <ele>295.4</ele>
        <time>2023-01-26T13:08:19Z</time>
      </trkpt>
      <trkpt lat="44.25026" lon="1.67765">
        <ele>295.6</ele>
        <time>2023-01-26T13:08:20Z</time>
      </trkpt>
      <trkpt lat="44.25025" lon="1.67768">
        <ele>295.8</ele>
        <time>2023-01-26T13:08:21Z</time>
      </trkpt>
      <trkpt lat="44.25021" lon="1.67771">
        <ele>296.1</ele>
        <time>2023-01-26T13:08:23Z</time>
      </trkpt>
      <trkpt lat="44.25017" lon="1.67771">
        <ele>296.3</ele>
        <time>2023-01-26T13:08:24Z</time>
      </trkpt>
      <trkpt lat="44.2501" lon="1.67764">
        <ele>296.8</ele>
        <time>2023-01-26T13:08:26Z</time>
      </trkpt>
      <trkpt lat="44.25007" lon="1.67761">
        <ele>297.1</ele>
        <time>2023-01-26T13:08:28Z</time>
      </trkpt>
      <trkpt lat="44.25004" lon="1.67758">
        <ele>297.2</ele>
        <time>2023-01-26T13:08:29Z</time>
      </trkpt>
      <trkpt lat="44.24999" lon="1.67754">
        <ele>297.6</ele>
        <time>2023-01-26T13:08:31Z</time>
      </trkpt>
      <trkpt lat="44.24996" lon="1.67751">
        <ele>297.8</ele>
        <time>2023-01-26T13:08:32Z</time>
      </trkpt>
      <trkpt lat="44.24989" lon="1.67745">
        <ele>298.3</ele>
        <time>2023-01-26T13:08:34Z</time>
      </trkpt>
      <trkpt lat="44.24986" lon="1.67742">
        <ele>298.5</ele>
        <time>2023-01-26T13:08:36Z</time>
      </trkpt>
      <trkpt lat="44.24982" lon="1.6774">
        <ele>298.7</ele>
        <time>2023-01-26T13:08:37Z</time>
      </trkpt>
      <trkpt lat="44.2498" lon="1.67738">
        <ele>298.8</ele>
        <time>2023-01-26T13:08:38Z</time>
      </trkpt>
      <trkpt lat="44.24975" lon="1.67734">
        <ele>299.1</ele>
        <time>2023-01-26T13:08:40Z</time>
      </trkpt>
      <trkpt lat="44.24971" lon="1.6773">
        <ele>299.4</ele>
        <time>2023-01-26T13:08:42Z</time>
      </trkpt>
      <trkpt lat="44.24968" lon="1.67727">
        <ele>299.6</ele>
        <time>2023-01-26T13:08:43Z</time>
      </trkpt>
      <trkpt lat="44.24965" lon="1.67726">
        <ele>299.7</ele>
        <time>2023-01-26T13:08:44Z</time>
      </trkpt>
      <trkpt lat="44.24961" lon="1.67724">
        <ele>299.8</ele>
        <time>2023-01-26T13:08:45Z</time>
      </trkpt>
      <trkpt lat="44.24956" lon="1.6772">
        <ele>300</ele>
        <time>2023-01-26T13:08:46Z</time>
      </trkpt>
      <trkpt lat="44.24953" lon="1.67717">
        <ele>300.2</ele>
        <time>2023-01-26T13:08:48Z</time>
      </trkpt>
      <trkpt lat="44.2495" lon="1.67715">
        <ele>300.2</ele>
        <time>2023-01-26T13:08:49Z</time>
      </trkpt>
      <trkpt lat="44.24948" lon="1.67713">
        <ele>300.3</ele>
        <time>2023-01-26T13:08:50Z</time>
      </trkpt>
      <trkpt lat="44.24945" lon="1.6771">
        <ele>300.4</ele>
        <time>2023-01-26T13:08:51Z</time>
      </trkpt>
      <trkpt lat="44.2494" lon="1.67706">
        <ele>300.5</ele>
        <time>2023-01-26T13:08:52Z</time>
      </trkpt>
      <trkpt lat="44.24936" lon="1.67703">
        <ele>300.6</ele>
        <time>2023-01-26T13:08:54Z</time>
      </trkpt>
      <trkpt lat="44.24933" lon="1.67702">
        <ele>300.6</ele>
        <time>2023-01-26T13:08:55Z</time>
      </trkpt>
      <trkpt lat="44.2493" lon="1.67701">
        <ele>300.6</ele>
        <time>2023-01-26T13:08:56Z</time>
      </trkpt>
      <trkpt lat="44.24927" lon="1.677">
        <ele>300.6</ele>
        <time>2023-01-26T13:08:57Z</time>
      </trkpt>
      <trkpt lat="44.24922" lon="1.67698">
        <ele>300.5</ele>
        <time>2023-01-26T13:08:59Z</time>
      </trkpt>
      <trkpt lat="44.24919" lon="1.67698">
        <ele>300.5</ele>
        <time>2023-01-26T13:09:00Z</time>
      </trkpt>
      <trkpt lat="44.24915" lon="1.67698">
        <ele>300.4</ele>
        <time>2023-01-26T13:09:01Z</time>
      </trkpt>
      <trkpt lat="44.24911" lon="1.67699">
        <ele>300.3</ele>
        <time>2023-01-26T13:09:02Z</time>
      </trkpt>
      <trkpt lat="44.24907" lon="1.677">
        <ele>300.2</ele>
        <time>2023-01-26T13:09:03Z</time>
      </trkpt>
      <trkpt lat="44.24902" lon="1.67701">
        <ele>300.1</ele>
        <time>2023-01-26T13:09:05Z</time>
      </trkpt>
      <trkpt lat="44.24899" lon="1.67701">
        <ele>300</ele>
        <time>2023-01-26T13:09:06Z</time>
      </trkpt>
      <trkpt lat="44.24895" lon="1.67702">
        <ele>299.8</ele>
        <time>2023-01-26T13:09:07Z</time>
      </trkpt>
      <trkpt lat="44.24893" lon="1.67701">
        <ele>299.7</ele>
        <time>2023-01-26T13:09:08Z</time>
      </trkpt>
      <trkpt lat="44.24891" lon="1.677">
        <ele>299.7</ele>
        <time>2023-01-26T13:09:09Z</time>
      </trkpt>
      <trkpt lat="44.24888" lon="1.67698">
        <ele>299.5</ele>
        <time>2023-01-26T13:09:11Z</time>
      </trkpt>
      <trkpt lat="44.24883" lon="1.67698">
        <ele>299.2</ele>
        <time>2023-01-26T13:09:13Z</time>
      </trkpt>
      <trkpt lat="44.24879" lon="1.67699">
        <ele>299</ele>
        <time>2023-01-26T13:09:14Z</time>
      </trkpt>
      <trkpt lat="44.24874" lon="1.67701">
        <ele>298.6</ele>
        <time>2023-01-26T13:09:15Z</time>
      </trkpt>
      <trkpt lat="44.2487" lon="1.67702">
        <ele>298.2</ele>
        <time>2023-01-26T13:09:16Z</time>
      </trkpt>
      <trkpt lat="44.24866" lon="1.67702">
        <ele>297.9</ele>
        <time>2023-01-26T13:09:18Z</time>
      </trkpt>
      <trkpt lat="44.24862" lon="1.67702">
        <ele>297.6</ele>
        <time>2023-01-26T13:09:19Z</time>
      </trkpt>
      <trkpt lat="44.24857" lon="1.67702">
        <ele>297.3</ele>
        <time>2023-01-26T13:09:20Z</time>
      </trkpt>
      <trkpt lat="44.24853" lon="1.67701">
        <ele>296.9</ele>
        <time>2023-01-26T13:09:21Z</time>
      </trkpt>
      <trkpt lat="44.24846" lon="1.67698">
        <ele>296.4</ele>
        <time>2023-01-26T13:09:22Z</time>
      </trkpt>
      <trkpt lat="44.24842" lon="1.67696">
        <ele>296</ele>
        <time>2023-01-26T13:09:23Z</time>
      </trkpt>
      <trkpt lat="44.24835" lon="1.67693">
        <ele>295.4</ele>
        <time>2023-01-26T13:09:24Z</time>
      </trkpt>
      <trkpt lat="44.2483" lon="1.67691">
        <ele>294.9</ele>
        <time>2023-01-26T13:09:25Z</time>
      </trkpt>
      <trkpt lat="44.24822" lon="1.67688">
        <ele>294.2</ele>
        <time>2023-01-26T13:09:27Z</time>
      </trkpt>
      <trkpt lat="44.24816" lon="1.67686">
        <ele>293.6</ele>
        <time>2023-01-26T13:09:28Z</time>
      </trkpt>
      <trkpt lat="44.24811" lon="1.67682">
        <ele>293</ele>
        <time>2023-01-26T13:09:29Z</time>
      </trkpt>
      <trkpt lat="44.24805" lon="1.67679">
        <ele>292.4</ele>
        <time>2023-01-26T13:09:30Z</time>
      </trkpt>
      <trkpt lat="44.24799" lon="1.67675">
        <ele>291.8</ele>
        <time>2023-01-26T13:09:31Z</time>
      </trkpt>
      <trkpt lat="44.24794" lon="1.67672">
        <ele>291.2</ele>
        <time>2023-01-26T13:09:32Z</time>
      </trkpt>
      <trkpt lat="44.24788" lon="1.6767">
        <ele>290.6</ele>
        <time>2023-01-26T13:09:33Z</time>
      </trkpt>
      <trkpt lat="44.24782" lon="1.67667">
        <ele>290</ele>
        <time>2023-01-26T13:09:34Z</time>
      </trkpt>
      <trkpt lat="44.24776" lon="1.67663">
        <ele>289.4</ele>
        <time>2023-01-26T13:09:35Z</time>
      </trkpt>
      <trkpt lat="44.24771" lon="1.6766">
        <ele>288.8</ele>
        <time>2023-01-26T13:09:36Z</time>
      </trkpt>
      <trkpt lat="44.24765" lon="1.67656">
        <ele>288.3</ele>
        <time>2023-01-26T13:09:37Z</time>
      </trkpt>
      <trkpt lat="44.24759" lon="1.67653">
        <ele>287.8</ele>
        <time>2023-01-26T13:09:38Z</time>
      </trkpt>
      <trkpt lat="44.24752" lon="1.67651">
        <ele>287.3</ele>
        <time>2023-01-26T13:09:39Z</time>
      </trkpt>
      <trkpt lat="44.24746" lon="1.67648">
        <ele>286.9</ele>
        <time>2023-01-26T13:09:40Z</time>
      </trkpt>
      <trkpt lat="44.2474" lon="1.67646">
        <ele>286.5</ele>
        <time>2023-01-26T13:09:41Z</time>
      </trkpt>
      <trkpt lat="44.24734" lon="1.67645">
        <ele>286.2</ele>
        <time>2023-01-26T13:09:42Z</time>
      </trkpt>
      <trkpt lat="44.24728" lon="1.67643">
        <ele>285.9</ele>
        <time>2023-01-26T13:09:43Z</time>
      </trkpt>
      <trkpt lat="44.24722" lon="1.67641">
        <ele>285.6</ele>
        <time>2023-01-26T13:09:44Z</time>
      </trkpt>
      <trkpt lat="44.24716" lon="1.67639">
        <ele>285.4</ele>
        <time>2023-01-26T13:09:45Z</time>
      </trkpt>
      <trkpt lat="44.24711" lon="1.67636">
        <ele>285.2</ele>
        <time>2023-01-26T13:09:46Z</time>
      </trkpt>
      <trkpt lat="44.24706" lon="1.67634">
        <ele>285</ele>
        <time>2023-01-26T13:09:47Z</time>
      </trkpt>
      <trkpt lat="44.24702" lon="1.67631">
        <ele>284.8</ele>
        <time>2023-01-26T13:09:48Z</time>
      </trkpt>
      <trkpt lat="44.24697" lon="1.67629">
        <ele>284.5</ele>
        <time>2023-01-26T13:09:49Z</time>
      </trkpt>
      <trkpt lat="44.24692" lon="1.6763">
        <ele>284.4</ele>
        <time>2023-01-26T13:09:50Z</time>
      </trkpt>
      <trkpt lat="44.24688" lon="1.6763">
        <ele>284.2</ele>
        <time>2023-01-26T13:09:51Z</time>
      </trkpt>
      <trkpt lat="44.24683" lon="1.6763">
        <ele>284</ele>
        <time>2023-01-26T13:09:52Z</time>
      </trkpt>
      <trkpt lat="44.24679" lon="1.67629">
        <ele>283.8</ele>
        <time>2023-01-26T13:09:53Z</time>
      </trkpt>
      <trkpt lat="44.24676" lon="1.67629">
        <ele>283.7</ele>
        <time>2023-01-26T13:09:54Z</time>
      </trkpt>
      <trkpt lat="44.24672" lon="1.67629">
        <ele>283.5</ele>
        <time>2023-01-26T13:09:55Z</time>
      </trkpt>
      <trkpt lat="44.24667" lon="1.6763">
        <ele>283.3</ele>
        <time>2023-01-26T13:09:56Z</time>
      </trkpt>
      <trkpt lat="44.24662" lon="1.67631">
        <ele>283.1</ele>
        <time>2023-01-26T13:09:57Z</time>
      </trkpt>
      <trkpt lat="44.24659" lon="1.67631">
        <ele>282.9</ele>
        <time>2023-01-26T13:09:58Z</time>
      </trkpt>
      <trkpt lat="44.24654" lon="1.6763">
        <ele>282.7</ele>
        <time>2023-01-26T13:09:59Z</time>
      </trkpt>
      <trkpt lat="44.2465" lon="1.6763">
        <ele>282.5</ele>
        <time>2023-01-26T13:10:00Z</time>
      </trkpt>
      <trkpt lat="44.24643" lon="1.67629">
        <ele>282.2</ele>
        <time>2023-01-26T13:10:02Z</time>
      </trkpt>
      <trkpt lat="44.24638" lon="1.6763">
        <ele>282</ele>
        <time>2023-01-26T13:10:03Z</time>
      </trkpt>
      <trkpt lat="44.24633" lon="1.6763">
        <ele>281.7</ele>
        <time>2023-01-26T13:10:04Z</time>
      </trkpt>
      <trkpt lat="44.24627" lon="1.6763">
        <ele>281.5</ele>
        <time>2023-01-26T13:10:05Z</time>
      </trkpt>
      <trkpt lat="44.2462" lon="1.67631">
        <ele>281.2</ele>
        <time>2023-01-26T13:10:07Z</time>
      </trkpt>
      <trkpt lat="44.24614" lon="1.67631">
        <ele>280.9</ele>
        <time>2023-01-26T13:10:08Z</time>
      </trkpt>
      <trkpt lat="44.24609" lon="1.67632">
        <ele>280.7</ele>
        <time>2023-01-26T13:10:09Z</time>
      </trkpt>
      <trkpt lat="44.24604" lon="1.67632">
        <ele>280.4</ele>
        <time>2023-01-26T13:10:10Z</time>
      </trkpt>
      <trkpt lat="44.24598" lon="1.67633">
        <ele>280.2</ele>
        <time>2023-01-26T13:10:11Z</time>
      </trkpt>
      <trkpt lat="44.24593" lon="1.67633">
        <ele>279.9</ele>
        <time>2023-01-26T13:10:12Z</time>
      </trkpt>
      <trkpt lat="44.24588" lon="1.67633">
        <ele>279.7</ele>
        <time>2023-01-26T13:10:13Z</time>
      </trkpt>
      <trkpt lat="44.24584" lon="1.67633">
        <ele>279.5</ele>
        <time>2023-01-26T13:10:14Z</time>
      </trkpt>
      <trkpt lat="44.2458" lon="1.67634">
        <ele>279.3</ele>
        <time>2023-01-26T13:10:16Z</time>
      </trkpt>
      <trkpt lat="44.24579" lon="1.67633">
        <ele>279.3</ele>
        <time>2023-01-26T13:10:17Z</time>
      </trkpt>
      <trkpt lat="44.24578" lon="1.67633">
        <ele>279.3</ele>
        <time>2023-01-26T13:10:18Z</time>
      </trkpt>
      <trkpt lat="44.24578" lon="1.67633">
        <ele>279.2</ele>
        <time>2023-01-26T13:10:19Z</time>
      </trkpt>
      <trkpt lat="44.24577" lon="1.67632">
        <ele>279.2</ele>
        <time>2023-01-26T13:10:21Z</time>
      </trkpt>
      <trkpt lat="44.24576" lon="1.67632">
        <ele>279.2</ele>
        <time>2023-01-26T13:10:22Z</time>
      </trkpt>
      <trkpt lat="44.24576" lon="1.67632">
        <ele>279.1</ele>
        <time>2023-01-26T13:10:23Z</time>
      </trkpt>
      <trkpt lat="44.24575" lon="1.67632">
        <ele>279.1</ele>
        <time>2023-01-26T13:10:24Z</time>
      </trkpt>
      <trkpt lat="44.24574" lon="1.67632">
        <ele>279.1</ele>
        <time>2023-01-26T13:10:26Z</time>
      </trkpt>
      <trkpt lat="44.24573" lon="1.67631">
        <ele>279</ele>
        <time>2023-01-26T13:10:27Z</time>
      </trkpt>
      <trkpt lat="44.24573" lon="1.67631">
        <ele>279</ele>
        <time>2023-01-26T13:10:28Z</time>
      </trkpt>
      <trkpt lat="44.24572" lon="1.67631">
        <ele>279</ele>
        <time>2023-01-26T13:10:30Z</time>
      </trkpt>
      <trkpt lat="44.24571" lon="1.67631">
        <ele>278.9</ele>
        <time>2023-01-26T13:10:31Z</time>
      </trkpt>
      <trkpt lat="44.2457" lon="1.6763">
        <ele>278.9</ele>
        <time>2023-01-26T13:10:44Z</time>
      </trkpt>
      <trkpt lat="44.2457" lon="1.6763">
        <ele>278.9</ele>
        <time>2023-01-26T13:10:45Z</time>
      </trkpt>
      <trkpt lat="44.24566" lon="1.6763">
        <ele>278.7</ele>
        <time>2023-01-26T13:10:46Z</time>
      </trkpt>
      <trkpt lat="44.24562" lon="1.6763">
        <ele>278.5</ele>
        <time>2023-01-26T13:10:48Z</time>
      </trkpt>
      <trkpt lat="44.24559" lon="1.6763">
        <ele>278.4</ele>
        <time>2023-01-26T13:10:49Z</time>
      </trkpt>
      <trkpt lat="44.24555" lon="1.6763">
        <ele>278.1</ele>
        <time>2023-01-26T13:10:50Z</time>
      </trkpt>
      <trkpt lat="44.24552" lon="1.67629">
        <ele>278</ele>
        <time>2023-01-26T13:10:51Z</time>
      </trkpt>
      <trkpt lat="44.24546" lon="1.67629">
        <ele>277.6</ele>
        <time>2023-01-26T13:10:53Z</time>
      </trkpt>
      <trkpt lat="44.2454" lon="1.67631">
        <ele>277.3</ele>
        <time>2023-01-26T13:10:54Z</time>
      </trkpt>
      <trkpt lat="44.24535" lon="1.67633">
        <ele>276.9</ele>
        <time>2023-01-26T13:10:55Z</time>
      </trkpt>
      <trkpt lat="44.24529" lon="1.67634">
        <ele>276.6</ele>
        <time>2023-01-26T13:10:56Z</time>
      </trkpt>
      <trkpt lat="44.24524" lon="1.67635">
        <ele>276.3</ele>
        <time>2023-01-26T13:10:57Z</time>
      </trkpt>
      <trkpt lat="44.24519" lon="1.67636">
        <ele>276</ele>
        <time>2023-01-26T13:10:58Z</time>
      </trkpt>
      <trkpt lat="44.24514" lon="1.67637">
        <ele>275.8</ele>
        <time>2023-01-26T13:10:59Z</time>
      </trkpt>
      <trkpt lat="44.24509" lon="1.67638">
        <ele>275.5</ele>
        <time>2023-01-26T13:11:00Z</time>
      </trkpt>
      <trkpt lat="44.24504" lon="1.67638">
        <ele>275.3</ele>
        <time>2023-01-26T13:11:01Z</time>
      </trkpt>
      <trkpt lat="44.245" lon="1.67638">
        <ele>275.2</ele>
        <time>2023-01-26T13:11:02Z</time>
      </trkpt>
      <trkpt lat="44.24493" lon="1.67638">
        <ele>275</ele>
        <time>2023-01-26T13:11:04Z</time>
      </trkpt>
      <trkpt lat="44.24488" lon="1.67638">
        <ele>274.8</ele>
        <time>2023-01-26T13:11:05Z</time>
      </trkpt>
      <trkpt lat="44.24479" lon="1.67639">
        <ele>274.6</ele>
        <time>2023-01-26T13:11:07Z</time>
      </trkpt>
      <trkpt lat="44.24471" lon="1.67641">
        <ele>274.4</ele>
        <time>2023-01-26T13:11:08Z</time>
      </trkpt>
      <trkpt lat="44.24465" lon="1.67641">
        <ele>274.2</ele>
        <time>2023-01-26T13:11:09Z</time>
      </trkpt>
      <trkpt lat="44.2446" lon="1.67641">
        <ele>274.1</ele>
        <time>2023-01-26T13:11:10Z</time>
      </trkpt>
      <trkpt lat="44.24454" lon="1.67641">
        <ele>273.9</ele>
        <time>2023-01-26T13:11:11Z</time>
      </trkpt>
      <trkpt lat="44.24449" lon="1.67641">
        <ele>273.8</ele>
        <time>2023-01-26T13:11:12Z</time>
      </trkpt>
      <trkpt lat="44.24444" lon="1.6764">
        <ele>273.7</ele>
        <time>2023-01-26T13:11:13Z</time>
      </trkpt>
      <trkpt lat="44.24438" lon="1.6764">
        <ele>273.5</ele>
        <time>2023-01-26T13:11:14Z</time>
      </trkpt>
      <trkpt lat="44.24433" lon="1.67641">
        <ele>273.4</ele>
        <time>2023-01-26T13:11:15Z</time>
      </trkpt>
      <trkpt lat="44.24428" lon="1.67641">
        <ele>273.2</ele>
        <time>2023-01-26T13:11:16Z</time>
      </trkpt>
      <trkpt lat="44.24423" lon="1.67641">
        <ele>273</ele>
        <time>2023-01-26T13:11:17Z</time>
      </trkpt>
      <trkpt lat="44.24417" lon="1.67641">
        <ele>272.8</ele>
        <time>2023-01-26T13:11:18Z</time>
      </trkpt>
      <trkpt lat="44.24411" lon="1.67641">
        <ele>272.7</ele>
        <time>2023-01-26T13:11:19Z</time>
      </trkpt>
      <trkpt lat="44.24406" lon="1.67641">
        <ele>272.6</ele>
        <time>2023-01-26T13:11:20Z</time>
      </trkpt>
      <trkpt lat="44.244" lon="1.67641">
        <ele>272.5</ele>
        <time>2023-01-26T13:11:21Z</time>
      </trkpt>
      <trkpt lat="44.24394" lon="1.67641">
        <ele>272.4</ele>
        <time>2023-01-26T13:11:22Z</time>
      </trkpt>
      <trkpt lat="44.24389" lon="1.67641">
        <ele>272.3</ele>
        <time>2023-01-26T13:11:23Z</time>
      </trkpt>
      <trkpt lat="44.24384" lon="1.67642">
        <ele>272.3</ele>
        <time>2023-01-26T13:11:24Z</time>
      </trkpt>
      <trkpt lat="44.24378" lon="1.67643">
        <ele>272.2</ele>
        <time>2023-01-26T13:11:25Z</time>
      </trkpt>
      <trkpt lat="44.24373" lon="1.67644">
        <ele>272.1</ele>
        <time>2023-01-26T13:11:26Z</time>
      </trkpt>
      <trkpt lat="44.24367" lon="1.67644">
        <ele>272</ele>
        <time>2023-01-26T13:11:27Z</time>
      </trkpt>
      <trkpt lat="44.24362" lon="1.67644">
        <ele>271.9</ele>
        <time>2023-01-26T13:11:28Z</time>
      </trkpt>
      <trkpt lat="44.24357" lon="1.67645">
        <ele>271.8</ele>
        <time>2023-01-26T13:11:29Z</time>
      </trkpt>
      <trkpt lat="44.24352" lon="1.67645">
        <ele>271.7</ele>
        <time>2023-01-26T13:11:30Z</time>
      </trkpt>
      <trkpt lat="44.24347" lon="1.67646">
        <ele>271.6</ele>
        <time>2023-01-26T13:11:31Z</time>
      </trkpt>
      <trkpt lat="44.24343" lon="1.67646">
        <ele>271.6</ele>
        <time>2023-01-26T13:11:32Z</time>
      </trkpt>
      <trkpt lat="44.24339" lon="1.67646">
        <ele>271.6</ele>
        <time>2023-01-26T13:11:33Z</time>
      </trkpt>
      <trkpt lat="44.24334" lon="1.67646">
        <ele>271.5</ele>
        <time>2023-01-26T13:11:34Z</time>
      </trkpt>
      <trkpt lat="44.24329" lon="1.67646">
        <ele>271.5</ele>
        <time>2023-01-26T13:11:35Z</time>
      </trkpt>
      <trkpt lat="44.24323" lon="1.67647">
        <ele>271.4</ele>
        <time>2023-01-26T13:11:36Z</time>
      </trkpt>
      <trkpt lat="44.24317" lon="1.67647">
        <ele>271.3</ele>
        <time>2023-01-26T13:11:37Z</time>
      </trkpt>
      <trkpt lat="44.24312" lon="1.67648">
        <ele>271.3</ele>
        <time>2023-01-26T13:11:38Z</time>
      </trkpt>
      <trkpt lat="44.24307" lon="1.67647">
        <ele>271.3</ele>
        <time>2023-01-26T13:11:39Z</time>
      </trkpt>
      <trkpt lat="44.243" lon="1.67649">
        <ele>271.2</ele>
        <time>2023-01-26T13:11:40Z</time>
      </trkpt>
      <trkpt lat="44.24296" lon="1.67652">
        <ele>271.2</ele>
        <time>2023-01-26T13:11:41Z</time>
      </trkpt>
      <trkpt lat="44.24291" lon="1.67652">
        <ele>271.1</ele>
        <time>2023-01-26T13:11:42Z</time>
      </trkpt>
      <trkpt lat="44.24284" lon="1.67652">
        <ele>271.1</ele>
        <time>2023-01-26T13:11:44Z</time>
      </trkpt>
      <trkpt lat="44.24282" lon="1.67653">
        <ele>271.1</ele>
        <time>2023-01-26T13:11:45Z</time>
      </trkpt>
      <trkpt lat="44.2428" lon="1.67657">
        <ele>270.9</ele>
        <time>2023-01-26T13:11:46Z</time>
      </trkpt>
      <trkpt lat="44.24282" lon="1.67662">
        <ele>270.8</ele>
        <time>2023-01-26T13:11:47Z</time>
      </trkpt>
      <trkpt lat="44.24282" lon="1.67664">
        <ele>270.7</ele>
        <time>2023-01-26T13:11:48Z</time>
      </trkpt>
      <trkpt lat="44.24283" lon="1.67669">
        <ele>270.7</ele>
        <time>2023-01-26T13:11:49Z</time>
      </trkpt>
      <trkpt lat="44.24284" lon="1.67674">
        <ele>270.6</ele>
        <time>2023-01-26T13:11:50Z</time>
      </trkpt>
      <trkpt lat="44.24285" lon="1.67683">
        <ele>270.5</ele>
        <time>2023-01-26T13:11:51Z</time>
      </trkpt>
      <trkpt lat="44.24286" lon="1.67686">
        <ele>270.5</ele>
        <time>2023-01-26T13:11:52Z</time>
      </trkpt>
      <trkpt lat="44.24288" lon="1.67692">
        <ele>270.4</ele>
        <time>2023-01-26T13:11:54Z</time>
      </trkpt>
      <trkpt lat="44.2429" lon="1.67697">
        <ele>270.4</ele>
        <time>2023-01-26T13:11:55Z</time>
      </trkpt>
      <trkpt lat="44.24292" lon="1.67703">
        <ele>270.3</ele>
        <time>2023-01-26T13:11:56Z</time>
      </trkpt>
      <trkpt lat="44.24294" lon="1.67711">
        <ele>270.3</ele>
        <time>2023-01-26T13:11:57Z</time>
      </trkpt>
      <trkpt lat="44.24295" lon="1.67716">
        <ele>270.3</ele>
        <time>2023-01-26T13:11:58Z</time>
      </trkpt>
      <trkpt lat="44.24296" lon="1.67724">
        <ele>270.2</ele>
        <time>2023-01-26T13:12:00Z</time>
      </trkpt>
      <trkpt lat="44.24298" lon="1.6773">
        <ele>270.2</ele>
        <time>2023-01-26T13:12:01Z</time>
      </trkpt>
      <trkpt lat="44.24299" lon="1.67736">
        <ele>270.2</ele>
        <time>2023-01-26T13:12:02Z</time>
      </trkpt>
      <trkpt lat="44.24301" lon="1.67742">
        <ele>270.2</ele>
        <time>2023-01-26T13:12:03Z</time>
      </trkpt>
      <trkpt lat="44.24303" lon="1.67749">
        <ele>270.2</ele>
        <time>2023-01-26T13:12:04Z</time>
      </trkpt>
      <trkpt lat="44.24306" lon="1.67757">
        <ele>270.2</ele>
        <time>2023-01-26T13:12:06Z</time>
      </trkpt>
      <trkpt lat="44.24307" lon="1.67764">
        <ele>270.2</ele>
        <time>2023-01-26T13:12:07Z</time>
      </trkpt>
      <trkpt lat="44.24309" lon="1.6777">
        <ele>270.1</ele>
        <time>2023-01-26T13:12:08Z</time>
      </trkpt>
      <trkpt lat="44.2431" lon="1.67777">
        <ele>270.1</ele>
        <time>2023-01-26T13:12:09Z</time>
      </trkpt>
      <trkpt lat="44.24311" lon="1.67784">
        <ele>270.1</ele>
        <time>2023-01-26T13:12:10Z</time>
      </trkpt>
      <trkpt lat="44.24313" lon="1.6779">
        <ele>270.1</ele>
        <time>2023-01-26T13:12:11Z</time>
      </trkpt>
      <trkpt lat="44.24318" lon="1.67805">
        <ele>270</ele>
        <time>2023-01-26T13:12:13Z</time>
      </trkpt>
      <trkpt lat="44.2432" lon="1.67811">
        <ele>270</ele>
        <time>2023-01-26T13:12:15Z</time>
      </trkpt>
      <trkpt lat="44.2432" lon="1.67818">
        <ele>270</ele>
        <time>2023-01-26T13:12:16Z</time>
      </trkpt>
      <trkpt lat="44.24321" lon="1.67826">
        <ele>270</ele>
        <time>2023-01-26T13:12:17Z</time>
      </trkpt>
      <trkpt lat="44.24322" lon="1.67833">
        <ele>270.1</ele>
        <time>2023-01-26T13:12:18Z</time>
      </trkpt>
      <trkpt lat="44.24322" lon="1.67839">
        <ele>270.1</ele>
        <time>2023-01-26T13:12:19Z</time>
      </trkpt>
      <trkpt lat="44.24322" lon="1.67844">
        <ele>270.2</ele>
        <time>2023-01-26T13:12:20Z</time>
      </trkpt>
      <trkpt lat="44.24323" lon="1.6785">
        <ele>270.2</ele>
        <time>2023-01-26T13:12:21Z</time>
      </trkpt>
      <trkpt lat="44.24323" lon="1.67858">
        <ele>270.2</ele>
        <time>2023-01-26T13:12:23Z</time>
      </trkpt>
      <trkpt lat="44.24324" lon="1.67865">
        <ele>270.2</ele>
        <time>2023-01-26T13:12:24Z</time>
      </trkpt>
      <trkpt lat="44.24326" lon="1.67871">
        <ele>270.2</ele>
        <time>2023-01-26T13:12:25Z</time>
      </trkpt>
      <trkpt lat="44.24328" lon="1.67877">
        <ele>270.2</ele>
        <time>2023-01-26T13:12:26Z</time>
      </trkpt>
      <trkpt lat="44.24329" lon="1.67884">
        <ele>270.2</ele>
        <time>2023-01-26T13:12:27Z</time>
      </trkpt>
      <trkpt lat="44.24331" lon="1.6789">
        <ele>270.2</ele>
        <time>2023-01-26T13:12:29Z</time>
      </trkpt>
      <trkpt lat="44.24333" lon="1.67896">
        <ele>270.2</ele>
        <time>2023-01-26T13:12:30Z</time>
      </trkpt>
      <trkpt lat="44.24334" lon="1.679">
        <ele>270.3</ele>
        <time>2023-01-26T13:12:31Z</time>
      </trkpt>
      <trkpt lat="44.24335" lon="1.67907">
        <ele>270.3</ele>
        <time>2023-01-26T13:12:32Z</time>
      </trkpt>
      <trkpt lat="44.24336" lon="1.67914">
        <ele>270.3</ele>
        <time>2023-01-26T13:12:33Z</time>
      </trkpt>
      <trkpt lat="44.24338" lon="1.6792">
        <ele>270.3</ele>
        <time>2023-01-26T13:12:34Z</time>
      </trkpt>
      <trkpt lat="44.24342" lon="1.67933">
        <ele>270.3</ele>
        <time>2023-01-26T13:12:36Z</time>
      </trkpt>
      <trkpt lat="44.24343" lon="1.67939">
        <ele>270.4</ele>
        <time>2023-01-26T13:12:38Z</time>
      </trkpt>
      <trkpt lat="44.24344" lon="1.67945">
        <ele>270.4</ele>
        <time>2023-01-26T13:12:39Z</time>
      </trkpt>
      <trkpt lat="44.24345" lon="1.67951">
        <ele>270.5</ele>
        <time>2023-01-26T13:12:40Z</time>
      </trkpt>
      <trkpt lat="44.24348" lon="1.6796">
        <ele>270.5</ele>
        <time>2023-01-26T13:12:42Z</time>
      </trkpt>
      <trkpt lat="44.2435" lon="1.67966">
        <ele>270.6</ele>
        <time>2023-01-26T13:12:43Z</time>
      </trkpt>
      <trkpt lat="44.24352" lon="1.67972">
        <ele>270.7</ele>
        <time>2023-01-26T13:12:44Z</time>
      </trkpt>
      <trkpt lat="44.24354" lon="1.67978">
        <ele>270.7</ele>
        <time>2023-01-26T13:12:45Z</time>
      </trkpt>
      <trkpt lat="44.24355" lon="1.67985">
        <ele>270.8</ele>
        <time>2023-01-26T13:12:47Z</time>
      </trkpt>
      <trkpt lat="44.24357" lon="1.6799">
        <ele>270.9</ele>
        <time>2023-01-26T13:12:48Z</time>
      </trkpt>
      <trkpt lat="44.24359" lon="1.67996">
        <ele>270.9</ele>
        <time>2023-01-26T13:12:49Z</time>
      </trkpt>
      <trkpt lat="44.2436" lon="1.68001">
        <ele>271</ele>
        <time>2023-01-26T13:12:50Z</time>
      </trkpt>
      <trkpt lat="44.24362" lon="1.68007">
        <ele>271</ele>
        <time>2023-01-26T13:12:51Z</time>
      </trkpt>
      <trkpt lat="44.24364" lon="1.68016">
        <ele>271.1</ele>
        <time>2023-01-26T13:12:53Z</time>
      </trkpt>
      <trkpt lat="44.24365" lon="1.68022">
        <ele>271.2</ele>
        <time>2023-01-26T13:12:54Z</time>
      </trkpt>
      <trkpt lat="44.24367" lon="1.68031">
        <ele>271.3</ele>
        <time>2023-01-26T13:12:55Z</time>
      </trkpt>
      <trkpt lat="44.24368" lon="1.68037">
        <ele>271.4</ele>
        <time>2023-01-26T13:12:57Z</time>
      </trkpt>
      <trkpt lat="44.24369" lon="1.68042">
        <ele>271.5</ele>
        <time>2023-01-26T13:12:58Z</time>
      </trkpt>
      <trkpt lat="44.24371" lon="1.68049">
        <ele>271.6</ele>
        <time>2023-01-26T13:12:59Z</time>
      </trkpt>
      <trkpt lat="44.24372" lon="1.68053">
        <ele>271.7</ele>
        <time>2023-01-26T13:13:00Z</time>
      </trkpt>
      <trkpt lat="44.24373" lon="1.68057">
        <ele>271.8</ele>
        <time>2023-01-26T13:13:01Z</time>
      </trkpt>
      <trkpt lat="44.24374" lon="1.68062">
        <ele>271.9</ele>
        <time>2023-01-26T13:13:02Z</time>
      </trkpt>
      <trkpt lat="44.24376" lon="1.68067">
        <ele>272</ele>
        <time>2023-01-26T13:13:04Z</time>
      </trkpt>
      <trkpt lat="44.24378" lon="1.68071">
        <ele>272.1</ele>
        <time>2023-01-26T13:13:05Z</time>
      </trkpt>
      <trkpt lat="44.24378" lon="1.68076">
        <ele>272.2</ele>
        <time>2023-01-26T13:13:06Z</time>
      </trkpt>
      <trkpt lat="44.24382" lon="1.6809">
        <ele>272.4</ele>
        <time>2023-01-26T13:13:08Z</time>
      </trkpt>
      <trkpt lat="44.24383" lon="1.68095">
        <ele>272.5</ele>
        <time>2023-01-26T13:13:10Z</time>
      </trkpt>
      <trkpt lat="44.24384" lon="1.681">
        <ele>272.6</ele>
        <time>2023-01-26T13:13:11Z</time>
      </trkpt>
      <trkpt lat="44.24385" lon="1.68107">
        <ele>272.6</ele>
        <time>2023-01-26T13:13:12Z</time>
      </trkpt>
      <trkpt lat="44.24386" lon="1.68111">
        <ele>272.6</ele>
        <time>2023-01-26T13:13:13Z</time>
      </trkpt>
      <trkpt lat="44.24386" lon="1.68117">
        <ele>272.7</ele>
        <time>2023-01-26T13:13:15Z</time>
      </trkpt>
      <trkpt lat="44.24386" lon="1.68119">
        <ele>272.7</ele>
        <time>2023-01-26T13:13:16Z</time>
      </trkpt>
      <trkpt lat="44.24386" lon="1.68122">
        <ele>272.7</ele>
        <time>2023-01-26T13:13:17Z</time>
      </trkpt>
      <trkpt lat="44.24386" lon="1.68126">
        <ele>272.7</ele>
        <time>2023-01-26T13:13:18Z</time>
      </trkpt>
      <trkpt lat="44.24387" lon="1.68131">
        <ele>272.7</ele>
        <time>2023-01-26T13:13:19Z</time>
      </trkpt>
      <trkpt lat="44.24387" lon="1.68138">
        <ele>272.8</ele>
        <time>2023-01-26T13:13:21Z</time>
      </trkpt>
      <trkpt lat="44.24385" lon="1.68144">
        <ele>272.8</ele>
        <time>2023-01-26T13:13:22Z</time>
      </trkpt>
      <trkpt lat="44.24384" lon="1.68148">
        <ele>272.8</ele>
        <time>2023-01-26T13:13:23Z</time>
      </trkpt>
      <trkpt lat="44.24383" lon="1.68152">
        <ele>272.8</ele>
        <time>2023-01-26T13:13:25Z</time>
      </trkpt>
      <trkpt lat="44.24382" lon="1.68156">
        <ele>272.8</ele>
        <time>2023-01-26T13:13:26Z</time>
      </trkpt>
      <trkpt lat="44.24382" lon="1.68159">
        <ele>272.9</ele>
        <time>2023-01-26T13:13:27Z</time>
      </trkpt>
      <trkpt lat="44.24382" lon="1.68159">
        <ele>272.9</ele>
        <time>2023-01-26T13:13:29Z</time>
      </trkpt>
      <trkpt lat="44.24383" lon="1.68159">
        <ele>272.9</ele>
        <time>2023-01-26T13:13:30Z</time>
      </trkpt>
      <trkpt lat="44.24383" lon="1.68159">
        <ele>272.9</ele>
        <time>2023-01-26T13:13:32Z</time>
      </trkpt>
      <trkpt lat="44.24384" lon="1.6816">
        <ele>272.9</ele>
        <time>2023-01-26T13:13:33Z</time>
      </trkpt>
      <trkpt lat="44.24384" lon="1.6816">
        <ele>273</ele>
        <time>2023-01-26T13:13:34Z</time>
      </trkpt>
      <trkpt lat="44.24385" lon="1.6816">
        <ele>273</ele>
        <time>2023-01-26T13:13:36Z</time>
      </trkpt>
      <trkpt lat="44.24385" lon="1.6816">
        <ele>273</ele>
        <time>2023-01-26T13:13:37Z</time>
      </trkpt>
      <trkpt lat="44.24386" lon="1.68161">
        <ele>273</ele>
        <time>2023-01-26T13:13:38Z</time>
      </trkpt>
      <trkpt lat="44.24386" lon="1.68161">
        <ele>273</ele>
        <time>2023-01-26T13:13:40Z</time>
      </trkpt>
      <trkpt lat="44.24387" lon="1.68161">
        <ele>273.1</ele>
        <time>2023-01-26T13:13:55Z</time>
      </trkpt>
      <trkpt lat="44.24388" lon="1.68161">
        <ele>273.1</ele>
        <time>2023-01-26T13:13:56Z</time>
      </trkpt>
      <trkpt lat="44.24388" lon="1.68162">
        <ele>273.1</ele>
        <time>2023-01-26T13:13:57Z</time>
      </trkpt>
      <trkpt lat="44.24389" lon="1.68163">
        <ele>273.2</ele>
        <time>2023-01-26T13:13:59Z</time>
      </trkpt>
      <trkpt lat="44.2439" lon="1.68165">
        <ele>273.2</ele>
        <time>2023-01-26T13:14:00Z</time>
      </trkpt>
      <trkpt lat="44.2439" lon="1.68168">
        <ele>273.3</ele>
        <time>2023-01-26T13:14:01Z</time>
      </trkpt>
      <trkpt lat="44.24391" lon="1.68172">
        <ele>273.4</ele>
        <time>2023-01-26T13:14:03Z</time>
      </trkpt>
      <trkpt lat="44.24392" lon="1.68177">
        <ele>273.5</ele>
        <time>2023-01-26T13:14:04Z</time>
      </trkpt>
      <trkpt lat="44.24392" lon="1.68181">
        <ele>273.6</ele>
        <time>2023-01-26T13:14:05Z</time>
      </trkpt>
      <trkpt lat="44.24392" lon="1.68187">
        <ele>273.8</ele>
        <time>2023-01-26T13:14:07Z</time>
      </trkpt>
      <trkpt lat="44.24393" lon="1.68192">
        <ele>274.2</ele>
        <time>2023-01-26T13:14:08Z</time>
      </trkpt>
      <trkpt lat="44.24395" lon="1.68196">
        <ele>274.3</ele>
        <time>2023-01-26T13:14:09Z</time>
      </trkpt>
      <trkpt lat="44.24397" lon="1.68205">
        <ele>274.5</ele>
        <time>2023-01-26T13:14:10Z</time>
      </trkpt>
      <trkpt lat="44.24398" lon="1.68212">
        <ele>274.6</ele>
        <time>2023-01-26T13:14:12Z</time>
      </trkpt>
      <trkpt lat="44.24399" lon="1.68217">
        <ele>274.7</ele>
        <time>2023-01-26T13:14:13Z</time>
      </trkpt>
      <trkpt lat="44.24399" lon="1.68224">
        <ele>274.8</ele>
        <time>2023-01-26T13:14:14Z</time>
      </trkpt>
      <trkpt lat="44.244" lon="1.68228">
        <ele>274.8</ele>
        <time>2023-01-26T13:14:15Z</time>
      </trkpt>
      <trkpt lat="44.24401" lon="1.68234">
        <ele>274.9</ele>
        <time>2023-01-26T13:14:16Z</time>
      </trkpt>
      <trkpt lat="44.24402" lon="1.68239">
        <ele>275</ele>
        <time>2023-01-26T13:14:18Z</time>
      </trkpt>
      <trkpt lat="44.24403" lon="1.68244">
        <ele>275</ele>
        <time>2023-01-26T13:14:19Z</time>
      </trkpt>
      <trkpt lat="44.24404" lon="1.68249">
        <ele>275.1</ele>
        <time>2023-01-26T13:14:20Z</time>
      </trkpt>
      <trkpt lat="44.24405" lon="1.68257">
        <ele>275.3</ele>
        <time>2023-01-26T13:14:22Z</time>
      </trkpt>
      <trkpt lat="44.24406" lon="1.68263">
        <ele>275.4</ele>
        <time>2023-01-26T13:14:23Z</time>
      </trkpt>
      <trkpt lat="44.24407" lon="1.6827">
        <ele>275.6</ele>
        <time>2023-01-26T13:14:24Z</time>
      </trkpt>
      <trkpt lat="44.24408" lon="1.68275">
        <ele>275.7</ele>
        <time>2023-01-26T13:14:25Z</time>
      </trkpt>
      <trkpt lat="44.24409" lon="1.68279">
        <ele>275.8</ele>
        <time>2023-01-26T13:14:26Z</time>
      </trkpt>
      <trkpt lat="44.2441" lon="1.68283">
        <ele>275.9</ele>
        <time>2023-01-26T13:14:27Z</time>
      </trkpt>
      <trkpt lat="44.24412" lon="1.68287">
        <ele>276</ele>
        <time>2023-01-26T13:14:29Z</time>
      </trkpt>
      <trkpt lat="44.24414" lon="1.6829">
        <ele>276.1</ele>
        <time>2023-01-26T13:14:30Z</time>
      </trkpt>
      <trkpt lat="44.24416" lon="1.68293">
        <ele>276.2</ele>
        <time>2023-01-26T13:14:31Z</time>
      </trkpt>
      <trkpt lat="44.2442" lon="1.68296">
        <ele>276.3</ele>
        <time>2023-01-26T13:14:32Z</time>
      </trkpt>
      <trkpt lat="44.24424" lon="1.68299">
        <ele>276.4</ele>
        <time>2023-01-26T13:14:34Z</time>
      </trkpt>
      <trkpt lat="44.24427" lon="1.68301">
        <ele>276.5</ele>
        <time>2023-01-26T13:14:35Z</time>
      </trkpt>
      <trkpt lat="44.2443" lon="1.68303">
        <ele>276.6</ele>
        <time>2023-01-26T13:14:36Z</time>
      </trkpt>
      <trkpt lat="44.24434" lon="1.68306">
        <ele>276.8</ele>
        <time>2023-01-26T13:14:37Z</time>
      </trkpt>
      <trkpt lat="44.24437" lon="1.68308">
        <ele>276.9</ele>
        <time>2023-01-26T13:14:38Z</time>
      </trkpt>
      <trkpt lat="44.2444" lon="1.68311">
        <ele>277</ele>
        <time>2023-01-26T13:14:40Z</time>
      </trkpt>
      <trkpt lat="44.24442" lon="1.68313">
        <ele>277.1</ele>
        <time>2023-01-26T13:14:41Z</time>
      </trkpt>
      <trkpt lat="44.24445" lon="1.68315">
        <ele>277.2</ele>
        <time>2023-01-26T13:14:42Z</time>
      </trkpt>
      <trkpt lat="44.24447" lon="1.6832">
        <ele>277.3</ele>
        <time>2023-01-26T13:14:43Z</time>
      </trkpt>
      <trkpt lat="44.24448" lon="1.68321">
        <ele>277.4</ele>
        <time>2023-01-26T13:14:44Z</time>
      </trkpt>
      <trkpt lat="44.2445" lon="1.68327">
        <ele>277.6</ele>
        <time>2023-01-26T13:14:46Z</time>
      </trkpt>
      <trkpt lat="44.24451" lon="1.68332">
        <ele>277.8</ele>
        <time>2023-01-26T13:14:47Z</time>
      </trkpt>
      <trkpt lat="44.24452" lon="1.68336">
        <ele>278</ele>
        <time>2023-01-26T13:14:48Z</time>
      </trkpt>
      <trkpt lat="44.24453" lon="1.68344">
        <ele>278.4</ele>
        <time>2023-01-26T13:14:50Z</time>
      </trkpt>
      <trkpt lat="44.24455" lon="1.68349">
        <ele>278.6</ele>
        <time>2023-01-26T13:14:51Z</time>
      </trkpt>
      <trkpt lat="44.24457" lon="1.68354">
        <ele>278.9</ele>
        <time>2023-01-26T13:14:52Z</time>
      </trkpt>
      <trkpt lat="44.24458" lon="1.68358">
        <ele>279.1</ele>
        <time>2023-01-26T13:14:53Z</time>
      </trkpt>
      <trkpt lat="44.24459" lon="1.68364">
        <ele>279.4</ele>
        <time>2023-01-26T13:14:55Z</time>
      </trkpt>
      <trkpt lat="44.2446" lon="1.68373">
        <ele>279.8</ele>
        <time>2023-01-26T13:14:57Z</time>
      </trkpt>
      <trkpt lat="44.2446" lon="1.68378">
        <ele>280.1</ele>
        <time>2023-01-26T13:14:58Z</time>
      </trkpt>
      <trkpt lat="44.24461" lon="1.68385">
        <ele>280.5</ele>
        <time>2023-01-26T13:14:59Z</time>
      </trkpt>
      <trkpt lat="44.24462" lon="1.68389">
        <ele>280.7</ele>
        <time>2023-01-26T13:15:00Z</time>
      </trkpt>
      <trkpt lat="44.24463" lon="1.68398">
        <ele>281.2</ele>
        <time>2023-01-26T13:15:02Z</time>
      </trkpt>
      <trkpt lat="44.24463" lon="1.68406">
        <ele>281.7</ele>
        <time>2023-01-26T13:15:03Z</time>
      </trkpt>
      <trkpt lat="44.24463" lon="1.68412">
        <ele>282</ele>
        <time>2023-01-26T13:15:05Z</time>
      </trkpt>
      <trkpt lat="44.24462" lon="1.68418">
        <ele>282.4</ele>
        <time>2023-01-26T13:15:06Z</time>
      </trkpt>
      <trkpt lat="44.24462" lon="1.68422">
        <ele>282.6</ele>
        <time>2023-01-26T13:15:07Z</time>
      </trkpt>
      <trkpt lat="44.24463" lon="1.6843">
        <ele>283.1</ele>
        <time>2023-01-26T13:15:08Z</time>
      </trkpt>
      <trkpt lat="44.24463" lon="1.68435">
        <ele>283.4</ele>
        <time>2023-01-26T13:15:10Z</time>
      </trkpt>
      <trkpt lat="44.24463" lon="1.6844">
        <ele>283.7</ele>
        <time>2023-01-26T13:15:11Z</time>
      </trkpt>
      <trkpt lat="44.24462" lon="1.68445">
        <ele>283.9</ele>
        <time>2023-01-26T13:15:12Z</time>
      </trkpt>
      <trkpt lat="44.24462" lon="1.68451">
        <ele>284.2</ele>
        <time>2023-01-26T13:15:13Z</time>
      </trkpt>
      <trkpt lat="44.24462" lon="1.68457">
        <ele>284.5</ele>
        <time>2023-01-26T13:15:14Z</time>
      </trkpt>
      <trkpt lat="44.24462" lon="1.68462">
        <ele>284.8</ele>
        <time>2023-01-26T13:15:15Z</time>
      </trkpt>
      <trkpt lat="44.24461" lon="1.68468">
        <ele>285.1</ele>
        <time>2023-01-26T13:15:17Z</time>
      </trkpt>
      <trkpt lat="44.24462" lon="1.68472">
        <ele>285.4</ele>
        <time>2023-01-26T13:15:18Z</time>
      </trkpt>
      <trkpt lat="44.24462" lon="1.68477">
        <ele>285.6</ele>
        <time>2023-01-26T13:15:19Z</time>
      </trkpt>
      <trkpt lat="44.24465" lon="1.68482">
        <ele>286</ele>
        <time>2023-01-26T13:15:20Z</time>
      </trkpt>
      <trkpt lat="44.24466" lon="1.68485">
        <ele>286.1</ele>
        <time>2023-01-26T13:15:21Z</time>
      </trkpt>
      <trkpt lat="44.24467" lon="1.68488">
        <ele>286.4</ele>
        <time>2023-01-26T13:15:22Z</time>
      </trkpt>
      <trkpt lat="44.24469" lon="1.68489">
        <ele>286.5</ele>
        <time>2023-01-26T13:15:23Z</time>
      </trkpt>
      <trkpt lat="44.24471" lon="1.68491">
        <ele>286.7</ele>
        <time>2023-01-26T13:15:25Z</time>
      </trkpt>
      <trkpt lat="44.24474" lon="1.68492">
        <ele>286.9</ele>
        <time>2023-01-26T13:15:26Z</time>
      </trkpt>
      <trkpt lat="44.24475" lon="1.68492">
        <ele>286.9</ele>
        <time>2023-01-26T13:15:27Z</time>
      </trkpt>
      <trkpt lat="44.24479" lon="1.68492">
        <ele>287.1</ele>
        <time>2023-01-26T13:15:28Z</time>
      </trkpt>
      <trkpt lat="44.24481" lon="1.68491">
        <ele>287.3</ele>
        <time>2023-01-26T13:15:29Z</time>
      </trkpt>
      <trkpt lat="44.24485" lon="1.68492">
        <ele>287.5</ele>
        <time>2023-01-26T13:15:31Z</time>
      </trkpt>
      <trkpt lat="44.24488" lon="1.68496">
        <ele>287.8</ele>
        <time>2023-01-26T13:15:32Z</time>
      </trkpt>
      <trkpt lat="44.24491" lon="1.68498">
        <ele>288</ele>
        <time>2023-01-26T13:15:34Z</time>
      </trkpt>
      <trkpt lat="44.24494" lon="1.685">
        <ele>288.2</ele>
        <time>2023-01-26T13:15:35Z</time>
      </trkpt>
      <trkpt lat="44.24499" lon="1.68502">
        <ele>288.6</ele>
        <time>2023-01-26T13:15:36Z</time>
      </trkpt>
      <trkpt lat="44.24503" lon="1.68504">
        <ele>288.8</ele>
        <time>2023-01-26T13:15:38Z</time>
      </trkpt>
      <trkpt lat="44.24507" lon="1.68506">
        <ele>289.1</ele>
        <time>2023-01-26T13:15:39Z</time>
      </trkpt>
      <trkpt lat="44.24511" lon="1.68507">
        <ele>289.4</ele>
        <time>2023-01-26T13:15:40Z</time>
      </trkpt>
      <trkpt lat="44.24512" lon="1.68508">
        <ele>289.5</ele>
        <time>2023-01-26T13:15:41Z</time>
      </trkpt>
      <trkpt lat="44.24515" lon="1.6851">
        <ele>289.6</ele>
        <time>2023-01-26T13:15:42Z</time>
      </trkpt>
      <trkpt lat="44.24521" lon="1.68515">
        <ele>290.1</ele>
        <time>2023-01-26T13:15:44Z</time>
      </trkpt>
      <trkpt lat="44.24527" lon="1.68514">
        <ele>290.4</ele>
        <time>2023-01-26T13:15:46Z</time>
      </trkpt>
      <trkpt lat="44.24533" lon="1.68514">
        <ele>290.7</ele>
        <time>2023-01-26T13:15:47Z</time>
      </trkpt>
      <trkpt lat="44.24539" lon="1.68515">
        <ele>290.9</ele>
        <time>2023-01-26T13:15:49Z</time>
      </trkpt>
      <trkpt lat="44.24543" lon="1.68515">
        <ele>291</ele>
        <time>2023-01-26T13:15:50Z</time>
      </trkpt>
      <trkpt lat="44.24547" lon="1.68517">
        <ele>291.1</ele>
        <time>2023-01-26T13:15:51Z</time>
      </trkpt>
      <trkpt lat="44.24551" lon="1.68518">
        <ele>291.2</ele>
        <time>2023-01-26T13:15:52Z</time>
      </trkpt>
      <trkpt lat="44.24554" lon="1.68519">
        <ele>291.3</ele>
        <time>2023-01-26T13:15:53Z</time>
      </trkpt>
      <trkpt lat="44.24563" lon="1.68521">
        <ele>291.5</ele>
        <time>2023-01-26T13:15:55Z</time>
      </trkpt>
      <trkpt lat="44.24567" lon="1.68522">
        <ele>291.5</ele>
        <time>2023-01-26T13:15:57Z</time>
      </trkpt>
      <trkpt lat="44.24571" lon="1.68523">
        <ele>291.6</ele>
        <time>2023-01-26T13:15:58Z</time>
      </trkpt>
      <trkpt lat="44.24574" lon="1.68524">
        <ele>291.7</ele>
        <time>2023-01-26T13:15:59Z</time>
      </trkpt>
      <trkpt lat="44.2458" lon="1.68526">
        <ele>291.8</ele>
        <time>2023-01-26T13:16:00Z</time>
      </trkpt>
      <trkpt lat="44.24583" lon="1.68528">
        <ele>291.9</ele>
        <time>2023-01-26T13:16:02Z</time>
      </trkpt>
      <trkpt lat="44.24586" lon="1.68529">
        <ele>292</ele>
        <time>2023-01-26T13:16:03Z</time>
      </trkpt>
      <trkpt lat="44.2459" lon="1.6853">
        <ele>292.1</ele>
        <time>2023-01-26T13:16:04Z</time>
      </trkpt>
      <trkpt lat="44.2459" lon="1.6853">
        <ele>292.1</ele>
        <time>2023-01-26T13:16:05Z</time>
      </trkpt>
      <trkpt lat="44.24591" lon="1.68532">
        <ele>292.2</ele>
        <time>2023-01-26T13:16:06Z</time>
      </trkpt>
      <trkpt lat="44.24592" lon="1.68534">
        <ele>292.3</ele>
        <time>2023-01-26T13:16:07Z</time>
      </trkpt>
      <trkpt lat="44.24592" lon="1.6854">
        <ele>292.4</ele>
        <time>2023-01-26T13:16:09Z</time>
      </trkpt>
      <trkpt lat="44.24592" lon="1.68545">
        <ele>292.6</ele>
        <time>2023-01-26T13:16:10Z</time>
      </trkpt>
      <trkpt lat="44.24592" lon="1.68549">
        <ele>292.7</ele>
        <time>2023-01-26T13:16:11Z</time>
      </trkpt>
      <trkpt lat="44.24593" lon="1.68554">
        <ele>292.9</ele>
        <time>2023-01-26T13:16:12Z</time>
      </trkpt>
      <trkpt lat="44.24594" lon="1.68561">
        <ele>293.1</ele>
        <time>2023-01-26T13:16:13Z</time>
      </trkpt>
      <trkpt lat="44.24595" lon="1.68564">
        <ele>293.2</ele>
        <time>2023-01-26T13:16:14Z</time>
      </trkpt>
      <trkpt lat="44.24595" lon="1.6857">
        <ele>293.4</ele>
        <time>2023-01-26T13:16:16Z</time>
      </trkpt>
      <trkpt lat="44.24596" lon="1.68575">
        <ele>293.5</ele>
        <time>2023-01-26T13:16:17Z</time>
      </trkpt>
      <trkpt lat="44.24597" lon="1.68578">
        <ele>293.6</ele>
        <time>2023-01-26T13:16:18Z</time>
      </trkpt>
      <trkpt lat="44.24596" lon="1.68585">
        <ele>293.8</ele>
        <time>2023-01-26T13:16:20Z</time>
      </trkpt>
      <trkpt lat="44.24596" lon="1.6859">
        <ele>293.9</ele>
        <time>2023-01-26T13:16:21Z</time>
      </trkpt>
      <trkpt lat="44.24596" lon="1.68596">
        <ele>294</ele>
        <time>2023-01-26T13:16:22Z</time>
      </trkpt>
      <trkpt lat="44.24596" lon="1.68601">
        <ele>294.2</ele>
        <time>2023-01-26T13:16:23Z</time>
      </trkpt>
      <trkpt lat="44.24596" lon="1.68605">
        <ele>294.3</ele>
        <time>2023-01-26T13:16:24Z</time>
      </trkpt>
      <trkpt lat="44.24596" lon="1.68609">
        <ele>294.4</ele>
        <time>2023-01-26T13:16:25Z</time>
      </trkpt>
      <trkpt lat="44.24595" lon="1.68613">
        <ele>294.5</ele>
        <time>2023-01-26T13:16:26Z</time>
      </trkpt>
      <trkpt lat="44.24594" lon="1.68619">
        <ele>294.7</ele>
        <time>2023-01-26T13:16:27Z</time>
      </trkpt>
      <trkpt lat="44.24594" lon="1.68624">
        <ele>294.9</ele>
        <time>2023-01-26T13:16:29Z</time>
      </trkpt>
      <trkpt lat="44.24594" lon="1.6863">
        <ele>295</ele>
        <time>2023-01-26T13:16:30Z</time>
      </trkpt>
      <trkpt lat="44.24593" lon="1.68634">
        <ele>295.2</ele>
        <time>2023-01-26T13:16:31Z</time>
      </trkpt>
      <trkpt lat="44.24593" lon="1.68642">
        <ele>295.4</ele>
        <time>2023-01-26T13:16:32Z</time>
      </trkpt>
      <trkpt lat="44.24592" lon="1.68649">
        <ele>295.6</ele>
        <time>2023-01-26T13:16:34Z</time>
      </trkpt>
      <trkpt lat="44.24592" lon="1.68653">
        <ele>295.8</ele>
        <time>2023-01-26T13:16:35Z</time>
      </trkpt>
      <trkpt lat="44.24592" lon="1.68659">
        <ele>295.9</ele>
        <time>2023-01-26T13:16:36Z</time>
      </trkpt>
      <trkpt lat="44.24591" lon="1.68664">
        <ele>296.1</ele>
        <time>2023-01-26T13:16:37Z</time>
      </trkpt>
      <trkpt lat="44.24591" lon="1.68669">
        <ele>296.3</ele>
        <time>2023-01-26T13:16:38Z</time>
      </trkpt>
      <trkpt lat="44.2459" lon="1.68675">
        <ele>296.5</ele>
        <time>2023-01-26T13:16:39Z</time>
      </trkpt>
      <trkpt lat="44.2459" lon="1.6868">
        <ele>296.7</ele>
        <time>2023-01-26T13:16:40Z</time>
      </trkpt>
      <trkpt lat="44.24591" lon="1.68685">
        <ele>296.8</ele>
        <time>2023-01-26T13:16:42Z</time>
      </trkpt>
      <trkpt lat="44.24591" lon="1.6869">
        <ele>297</ele>
        <time>2023-01-26T13:16:43Z</time>
      </trkpt>
      <trkpt lat="44.24591" lon="1.68696">
        <ele>297.1</ele>
        <time>2023-01-26T13:16:44Z</time>
      </trkpt>
      <trkpt lat="44.2459" lon="1.68702">
        <ele>297.3</ele>
        <time>2023-01-26T13:16:45Z</time>
      </trkpt>
      <trkpt lat="44.2459" lon="1.68711">
        <ele>297.5</ele>
        <time>2023-01-26T13:16:47Z</time>
      </trkpt>
      <trkpt lat="44.24591" lon="1.68716">
        <ele>297.6</ele>
        <time>2023-01-26T13:16:48Z</time>
      </trkpt>
      <trkpt lat="44.24591" lon="1.68721">
        <ele>297.7</ele>
        <time>2023-01-26T13:16:49Z</time>
      </trkpt>
      <trkpt lat="44.2459" lon="1.68726">
        <ele>297.8</ele>
        <time>2023-01-26T13:16:51Z</time>
      </trkpt>
      <trkpt lat="44.24591" lon="1.68732">
        <ele>297.9</ele>
        <time>2023-01-26T13:16:52Z</time>
      </trkpt>
      <trkpt lat="44.24591" lon="1.68734">
        <ele>297.9</ele>
        <time>2023-01-26T13:16:53Z</time>
      </trkpt>
      <trkpt lat="44.24591" lon="1.68738">
        <ele>298</ele>
        <time>2023-01-26T13:16:54Z</time>
      </trkpt>
      <trkpt lat="44.24592" lon="1.68745">
        <ele>298.1</ele>
        <time>2023-01-26T13:16:55Z</time>
      </trkpt>
      <trkpt lat="44.24592" lon="1.68751">
        <ele>298.2</ele>
        <time>2023-01-26T13:16:56Z</time>
      </trkpt>
      <trkpt lat="44.24592" lon="1.68754">
        <ele>298.3</ele>
        <time>2023-01-26T13:16:57Z</time>
      </trkpt>
      <trkpt lat="44.24591" lon="1.68759">
        <ele>298.3</ele>
        <time>2023-01-26T13:16:59Z</time>
      </trkpt>
      <trkpt lat="44.24591" lon="1.68765">
        <ele>298.4</ele>
        <time>2023-01-26T13:17:00Z</time>
      </trkpt>
      <trkpt lat="44.24591" lon="1.68771">
        <ele>298.5</ele>
        <time>2023-01-26T13:17:01Z</time>
      </trkpt>
      <trkpt lat="44.2459" lon="1.68778">
        <ele>298.6</ele>
        <time>2023-01-26T13:17:02Z</time>
      </trkpt>
      <trkpt lat="44.24588" lon="1.68785">
        <ele>298.8</ele>
        <time>2023-01-26T13:17:03Z</time>
      </trkpt>
      <trkpt lat="44.24588" lon="1.68792">
        <ele>298.9</ele>
        <time>2023-01-26T13:17:04Z</time>
      </trkpt>
      <trkpt lat="44.24587" lon="1.68797">
        <ele>299</ele>
        <time>2023-01-26T13:17:05Z</time>
      </trkpt>
      <trkpt lat="44.24585" lon="1.68808">
        <ele>299.2</ele>
        <time>2023-01-26T13:17:07Z</time>
      </trkpt>
      <trkpt lat="44.24583" lon="1.68815">
        <ele>299.4</ele>
        <time>2023-01-26T13:17:09Z</time>
      </trkpt>
      <trkpt lat="44.2458" lon="1.6882">
        <ele>299.5</ele>
        <time>2023-01-26T13:17:10Z</time>
      </trkpt>
      <trkpt lat="44.24578" lon="1.68827">
        <ele>299.7</ele>
        <time>2023-01-26T13:17:11Z</time>
      </trkpt>
      <trkpt lat="44.24578" lon="1.68831">
        <ele>299.7</ele>
        <time>2023-01-26T13:17:12Z</time>
      </trkpt>
      <trkpt lat="44.24576" lon="1.68844">
        <ele>299.9</ele>
        <time>2023-01-26T13:17:14Z</time>
      </trkpt>
      <trkpt lat="44.24576" lon="1.68851">
        <ele>300.1</ele>
        <time>2023-01-26T13:17:16Z</time>
      </trkpt>
      <trkpt lat="44.24576" lon="1.68858">
        <ele>300.2</ele>
        <time>2023-01-26T13:17:17Z</time>
      </trkpt>
      <trkpt lat="44.24576" lon="1.68864">
        <ele>300.3</ele>
        <time>2023-01-26T13:17:18Z</time>
      </trkpt>
      <trkpt lat="44.24575" lon="1.68869">
        <ele>300.4</ele>
        <time>2023-01-26T13:17:19Z</time>
      </trkpt>
      <trkpt lat="44.24574" lon="1.68877">
        <ele>300.5</ele>
        <time>2023-01-26T13:17:20Z</time>
      </trkpt>
      <trkpt lat="44.24574" lon="1.68881">
        <ele>300.7</ele>
        <time>2023-01-26T13:17:22Z</time>
      </trkpt>
      <trkpt lat="44.24574" lon="1.68886">
        <ele>300.8</ele>
        <time>2023-01-26T13:17:23Z</time>
      </trkpt>
      <trkpt lat="44.24573" lon="1.68891">
        <ele>301</ele>
        <time>2023-01-26T13:17:24Z</time>
      </trkpt>
      <trkpt lat="44.24571" lon="1.68896">
        <ele>301.2</ele>
        <time>2023-01-26T13:17:25Z</time>
      </trkpt>
      <trkpt lat="44.2457" lon="1.68902">
        <ele>301.5</ele>
        <time>2023-01-26T13:17:26Z</time>
      </trkpt>
      <trkpt lat="44.2457" lon="1.6891">
        <ele>301.9</ele>
        <time>2023-01-26T13:17:27Z</time>
      </trkpt>
      <trkpt lat="44.2457" lon="1.68917">
        <ele>302.3</ele>
        <time>2023-01-26T13:17:29Z</time>
      </trkpt>
      <trkpt lat="44.24569" lon="1.68926">
        <ele>302.8</ele>
        <time>2023-01-26T13:17:30Z</time>
      </trkpt>
      <trkpt lat="44.24568" lon="1.68932">
        <ele>303.2</ele>
        <time>2023-01-26T13:17:32Z</time>
      </trkpt>
      <trkpt lat="44.24567" lon="1.68936">
        <ele>303.4</ele>
        <time>2023-01-26T13:17:33Z</time>
      </trkpt>
      <trkpt lat="44.24567" lon="1.68942">
        <ele>303.8</ele>
        <time>2023-01-26T13:17:34Z</time>
      </trkpt>
      <trkpt lat="44.24566" lon="1.6895">
        <ele>304.2</ele>
        <time>2023-01-26T13:17:36Z</time>
      </trkpt>
      <trkpt lat="44.24566" lon="1.68956">
        <ele>304.6</ele>
        <time>2023-01-26T13:17:37Z</time>
      </trkpt>
      <trkpt lat="44.24567" lon="1.68963">
        <ele>305</ele>
        <time>2023-01-26T13:17:38Z</time>
      </trkpt>
      <trkpt lat="44.24567" lon="1.68965">
        <ele>305.2</ele>
        <time>2023-01-26T13:17:39Z</time>
      </trkpt>
      <trkpt lat="44.24567" lon="1.6897">
        <ele>305.5</ele>
        <time>2023-01-26T13:17:40Z</time>
      </trkpt>
      <trkpt lat="44.24567" lon="1.68976">
        <ele>305.8</ele>
        <time>2023-01-26T13:17:42Z</time>
      </trkpt>
      <trkpt lat="44.24566" lon="1.68981">
        <ele>306.1</ele>
        <time>2023-01-26T13:17:43Z</time>
      </trkpt>
      <trkpt lat="44.24566" lon="1.68986">
        <ele>306.4</ele>
        <time>2023-01-26T13:17:44Z</time>
      </trkpt>
      <trkpt lat="44.24566" lon="1.68991">
        <ele>306.7</ele>
        <time>2023-01-26T13:17:45Z</time>
      </trkpt>
      <trkpt lat="44.24566" lon="1.68996">
        <ele>307</ele>
        <time>2023-01-26T13:17:46Z</time>
      </trkpt>
      <trkpt lat="44.24565" lon="1.69002">
        <ele>307.3</ele>
        <time>2023-01-26T13:17:47Z</time>
      </trkpt>
      <trkpt lat="44.24565" lon="1.6901">
        <ele>307.7</ele>
        <time>2023-01-26T13:17:49Z</time>
      </trkpt>
      <trkpt lat="44.24565" lon="1.69015">
        <ele>308</ele>
        <time>2023-01-26T13:17:50Z</time>
      </trkpt>
      <trkpt lat="44.24564" lon="1.69023">
        <ele>308.4</ele>
        <time>2023-01-26T13:17:51Z</time>
      </trkpt>
      <trkpt lat="44.24564" lon="1.69028">
        <ele>308.7</ele>
        <time>2023-01-26T13:17:52Z</time>
      </trkpt>
      <trkpt lat="44.24563" lon="1.69037">
        <ele>309.2</ele>
        <time>2023-01-26T13:17:54Z</time>
      </trkpt>
      <trkpt lat="44.24563" lon="1.69042">
        <ele>309.4</ele>
        <time>2023-01-26T13:17:55Z</time>
      </trkpt>
      <trkpt lat="44.24563" lon="1.69044">
        <ele>309.5</ele>
        <time>2023-01-26T13:17:56Z</time>
      </trkpt>
      <trkpt lat="44.24563" lon="1.69049">
        <ele>309.7</ele>
        <time>2023-01-26T13:17:57Z</time>
      </trkpt>
      <trkpt lat="44.24563" lon="1.69054">
        <ele>310</ele>
        <time>2023-01-26T13:17:58Z</time>
      </trkpt>
      <trkpt lat="44.24563" lon="1.69062">
        <ele>310.4</ele>
        <time>2023-01-26T13:18:00Z</time>
      </trkpt>
      <trkpt lat="44.24566" lon="1.69067">
        <ele>310.6</ele>
        <time>2023-01-26T13:18:01Z</time>
      </trkpt>
      <trkpt lat="44.24568" lon="1.69069">
        <ele>310.8</ele>
        <time>2023-01-26T13:18:02Z</time>
      </trkpt>
      <trkpt lat="44.24573" lon="1.69073">
        <ele>311.1</ele>
        <time>2023-01-26T13:18:04Z</time>
      </trkpt>
      <trkpt lat="44.24578" lon="1.69075">
        <ele>311.3</ele>
        <time>2023-01-26T13:18:05Z</time>
      </trkpt>
      <trkpt lat="44.2458" lon="1.69078">
        <ele>311.5</ele>
        <time>2023-01-26T13:18:06Z</time>
      </trkpt>
      <trkpt lat="44.24583" lon="1.69084">
        <ele>311.7</ele>
        <time>2023-01-26T13:18:08Z</time>
      </trkpt>
      <trkpt lat="44.24584" lon="1.69089">
        <ele>311.9</ele>
        <time>2023-01-26T13:18:09Z</time>
      </trkpt>
      <trkpt lat="44.24585" lon="1.69098">
        <ele>312.3</ele>
        <time>2023-01-26T13:18:10Z</time>
      </trkpt>
      <trkpt lat="44.24585" lon="1.69105">
        <ele>312.5</ele>
        <time>2023-01-26T13:18:12Z</time>
      </trkpt>
      <trkpt lat="44.24585" lon="1.69113">
        <ele>312.9</ele>
        <time>2023-01-26T13:18:13Z</time>
      </trkpt>
      <trkpt lat="44.24585" lon="1.69119">
        <ele>313.2</ele>
        <time>2023-01-26T13:18:14Z</time>
      </trkpt>
      <trkpt lat="44.24584" lon="1.6913">
        <ele>313.7</ele>
        <time>2023-01-26T13:18:16Z</time>
      </trkpt>
      <trkpt lat="44.24584" lon="1.69138">
        <ele>314</ele>
        <time>2023-01-26T13:18:17Z</time>
      </trkpt>
      <trkpt lat="44.24584" lon="1.69143">
        <ele>314.2</ele>
        <time>2023-01-26T13:18:18Z</time>
      </trkpt>
      <trkpt lat="44.24582" lon="1.69151">
        <ele>314.5</ele>
        <time>2023-01-26T13:18:20Z</time>
      </trkpt>
      <trkpt lat="44.24581" lon="1.6916">
        <ele>314.8</ele>
        <time>2023-01-26T13:18:21Z</time>
      </trkpt>
      <trkpt lat="44.2458" lon="1.69165">
        <ele>315.1</ele>
        <time>2023-01-26T13:18:23Z</time>
      </trkpt>
      <trkpt lat="44.24578" lon="1.6917">
        <ele>315.3</ele>
        <time>2023-01-26T13:18:24Z</time>
      </trkpt>
      <trkpt lat="44.24577" lon="1.69175">
        <ele>315.4</ele>
        <time>2023-01-26T13:18:25Z</time>
      </trkpt>
      <trkpt lat="44.24574" lon="1.69182">
        <ele>315.7</ele>
        <time>2023-01-26T13:18:27Z</time>
      </trkpt>
      <trkpt lat="44.24572" lon="1.69188">
        <ele>316</ele>
        <time>2023-01-26T13:18:28Z</time>
      </trkpt>
      <trkpt lat="44.2457" lon="1.69193">
        <ele>316.2</ele>
        <time>2023-01-26T13:18:29Z</time>
      </trkpt>
      <trkpt lat="44.24568" lon="1.69198">
        <ele>316.4</ele>
        <time>2023-01-26T13:18:30Z</time>
      </trkpt>
      <trkpt lat="44.24564" lon="1.69209">
        <ele>317</ele>
        <time>2023-01-26T13:18:32Z</time>
      </trkpt>
      <trkpt lat="44.24562" lon="1.69215">
        <ele>317.3</ele>
        <time>2023-01-26T13:18:34Z</time>
      </trkpt>
      <trkpt lat="44.2456" lon="1.6922">
        <ele>317.6</ele>
        <time>2023-01-26T13:18:35Z</time>
      </trkpt>
      <trkpt lat="44.24558" lon="1.69225">
        <ele>317.8</ele>
        <time>2023-01-26T13:18:36Z</time>
      </trkpt>
      <trkpt lat="44.24554" lon="1.69231">
        <ele>318.1</ele>
        <time>2023-01-26T13:18:37Z</time>
      </trkpt>
      <trkpt lat="44.24551" lon="1.69239">
        <ele>318.4</ele>
        <time>2023-01-26T13:18:39Z</time>
      </trkpt>
      <trkpt lat="44.24548" lon="1.69248">
        <ele>318.7</ele>
        <time>2023-01-26T13:18:40Z</time>
      </trkpt>
      <trkpt lat="44.24545" lon="1.69254">
        <ele>318.9</ele>
        <time>2023-01-26T13:18:42Z</time>
      </trkpt>
      <trkpt lat="44.24544" lon="1.69258">
        <ele>319.1</ele>
        <time>2023-01-26T13:18:43Z</time>
      </trkpt>
      <trkpt lat="44.24542" lon="1.69265">
        <ele>319.3</ele>
        <time>2023-01-26T13:18:44Z</time>
      </trkpt>
      <trkpt lat="44.2454" lon="1.69269">
        <ele>319.5</ele>
        <time>2023-01-26T13:18:45Z</time>
      </trkpt>
      <trkpt lat="44.24536" lon="1.69281">
        <ele>319.9</ele>
        <time>2023-01-26T13:18:47Z</time>
      </trkpt>
      <trkpt lat="44.24535" lon="1.69287">
        <ele>320</ele>
        <time>2023-01-26T13:18:49Z</time>
      </trkpt>
      <trkpt lat="44.24533" lon="1.69291">
        <ele>320.2</ele>
        <time>2023-01-26T13:18:50Z</time>
      </trkpt>
      <trkpt lat="44.24532" lon="1.69297">
        <ele>320.3</ele>
        <time>2023-01-26T13:18:51Z</time>
      </trkpt>
      <trkpt lat="44.24531" lon="1.69303">
        <ele>320.5</ele>
        <time>2023-01-26T13:18:52Z</time>
      </trkpt>
      <trkpt lat="44.24531" lon="1.69308">
        <ele>320.7</ele>
        <time>2023-01-26T13:18:53Z</time>
      </trkpt>
      <trkpt lat="44.24531" lon="1.69317">
        <ele>320.9</ele>
        <time>2023-01-26T13:18:55Z</time>
      </trkpt>
      <trkpt lat="44.24532" lon="1.69324">
        <ele>321.1</ele>
        <time>2023-01-26T13:18:56Z</time>
      </trkpt>
      <trkpt lat="44.24533" lon="1.6933">
        <ele>321.3</ele>
        <time>2023-01-26T13:18:58Z</time>
      </trkpt>
      <trkpt lat="44.24533" lon="1.69334">
        <ele>321.4</ele>
        <time>2023-01-26T13:18:59Z</time>
      </trkpt>
      <trkpt lat="44.24532" lon="1.69339">
        <ele>321.5</ele>
        <time>2023-01-26T13:19:00Z</time>
      </trkpt>
      <trkpt lat="44.24531" lon="1.69346">
        <ele>321.7</ele>
        <time>2023-01-26T13:19:01Z</time>
      </trkpt>
      <trkpt lat="44.24527" lon="1.69357">
        <ele>321.9</ele>
        <time>2023-01-26T13:19:03Z</time>
      </trkpt>
      <trkpt lat="44.24526" lon="1.69363">
        <ele>322.1</ele>
        <time>2023-01-26T13:19:05Z</time>
      </trkpt>
      <trkpt lat="44.24524" lon="1.69369">
        <ele>322.1</ele>
        <time>2023-01-26T13:19:06Z</time>
      </trkpt>
      <trkpt lat="44.24523" lon="1.69374">
        <ele>322.2</ele>
        <time>2023-01-26T13:19:07Z</time>
      </trkpt>
      <trkpt lat="44.24521" lon="1.6938">
        <ele>322.3</ele>
        <time>2023-01-26T13:19:08Z</time>
      </trkpt>
      <trkpt lat="44.2452" lon="1.69386">
        <ele>322.4</ele>
        <time>2023-01-26T13:19:09Z</time>
      </trkpt>
      <trkpt lat="44.24518" lon="1.69393">
        <ele>322.5</ele>
        <time>2023-01-26T13:19:11Z</time>
      </trkpt>
      <trkpt lat="44.24514" lon="1.69402">
        <ele>322.7</ele>
        <time>2023-01-26T13:19:12Z</time>
      </trkpt>
      <trkpt lat="44.2451" lon="1.69409">
        <ele>322.9</ele>
        <time>2023-01-26T13:19:14Z</time>
      </trkpt>
      <trkpt lat="44.24507" lon="1.69415">
        <ele>323</ele>
        <time>2023-01-26T13:19:15Z</time>
      </trkpt>
      <trkpt lat="44.24505" lon="1.69423">
        <ele>323.2</ele>
        <time>2023-01-26T13:19:16Z</time>
      </trkpt>
      <trkpt lat="44.24503" lon="1.69432">
        <ele>323.3</ele>
        <time>2023-01-26T13:19:18Z</time>
      </trkpt>
      <trkpt lat="44.24499" lon="1.69439">
        <ele>323.4</ele>
        <time>2023-01-26T13:19:20Z</time>
      </trkpt>
      <trkpt lat="44.24497" lon="1.69445">
        <ele>323.4</ele>
        <time>2023-01-26T13:19:21Z</time>
      </trkpt>
      <trkpt lat="44.24496" lon="1.69449">
        <ele>323.5</ele>
        <time>2023-01-26T13:19:22Z</time>
      </trkpt>
      <trkpt lat="44.24494" lon="1.69456">
        <ele>323.6</ele>
        <time>2023-01-26T13:19:23Z</time>
      </trkpt>
      <trkpt lat="44.24493" lon="1.69462">
        <ele>323.6</ele>
        <time>2023-01-26T13:19:24Z</time>
      </trkpt>
      <trkpt lat="44.24492" lon="1.69471">
        <ele>323.8</ele>
        <time>2023-01-26T13:19:26Z</time>
      </trkpt>
      <trkpt lat="44.24491" lon="1.69482">
        <ele>324</ele>
        <time>2023-01-26T13:19:28Z</time>
      </trkpt>
      <trkpt lat="44.2449" lon="1.69489">
        <ele>324.1</ele>
        <time>2023-01-26T13:19:29Z</time>
      </trkpt>
      <trkpt lat="44.2449" lon="1.69495">
        <ele>324.2</ele>
        <time>2023-01-26T13:19:30Z</time>
      </trkpt>
      <trkpt lat="44.24489" lon="1.69502">
        <ele>324.4</ele>
        <time>2023-01-26T13:19:31Z</time>
      </trkpt>
      <trkpt lat="44.24488" lon="1.69509">
        <ele>324.5</ele>
        <time>2023-01-26T13:19:32Z</time>
      </trkpt>
      <trkpt lat="44.24486" lon="1.69517">
        <ele>324.6</ele>
        <time>2023-01-26T13:19:34Z</time>
      </trkpt>
      <trkpt lat="44.24485" lon="1.69522">
        <ele>324.7</ele>
        <time>2023-01-26T13:19:35Z</time>
      </trkpt>
      <trkpt lat="44.24485" lon="1.69532">
        <ele>324.9</ele>
        <time>2023-01-26T13:19:37Z</time>
      </trkpt>
      <trkpt lat="44.24485" lon="1.69539">
        <ele>325.1</ele>
        <time>2023-01-26T13:19:38Z</time>
      </trkpt>
      <trkpt lat="44.24485" lon="1.69545">
        <ele>325.2</ele>
        <time>2023-01-26T13:19:39Z</time>
      </trkpt>
      <trkpt lat="44.24486" lon="1.69552">
        <ele>325.4</ele>
        <time>2023-01-26T13:19:40Z</time>
      </trkpt>
      <trkpt lat="44.24487" lon="1.69561">
        <ele>325.5</ele>
        <time>2023-01-26T13:19:41Z</time>
      </trkpt>
      <trkpt lat="44.24488" lon="1.69568">
        <ele>325.6</ele>
        <time>2023-01-26T13:19:42Z</time>
      </trkpt>
      <trkpt lat="44.2449" lon="1.69576">
        <ele>325.7</ele>
        <time>2023-01-26T13:19:44Z</time>
      </trkpt>
      <trkpt lat="44.24492" lon="1.69583">
        <ele>325.9</ele>
        <time>2023-01-26T13:19:45Z</time>
      </trkpt>
      <trkpt lat="44.24494" lon="1.69588">
        <ele>326</ele>
        <time>2023-01-26T13:19:46Z</time>
      </trkpt>
      <trkpt lat="44.24497" lon="1.69595">
        <ele>326.2</ele>
        <time>2023-01-26T13:19:47Z</time>
      </trkpt>
      <trkpt lat="44.24499" lon="1.69601">
        <ele>326.3</ele>
        <time>2023-01-26T13:19:48Z</time>
      </trkpt>
      <trkpt lat="44.245" lon="1.69606">
        <ele>326.4</ele>
        <time>2023-01-26T13:19:49Z</time>
      </trkpt>
      <trkpt lat="44.24504" lon="1.69614">
        <ele>326.6</ele>
        <time>2023-01-26T13:19:51Z</time>
      </trkpt>
      <trkpt lat="44.24506" lon="1.69621">
        <ele>326.8</ele>
        <time>2023-01-26T13:19:52Z</time>
      </trkpt>
      <trkpt lat="44.2451" lon="1.69626">
        <ele>326.9</ele>
        <time>2023-01-26T13:19:53Z</time>
      </trkpt>
      <trkpt lat="44.24514" lon="1.69634">
        <ele>327.1</ele>
        <time>2023-01-26T13:19:55Z</time>
      </trkpt>
      <trkpt lat="44.24516" lon="1.69638">
        <ele>327.3</ele>
        <time>2023-01-26T13:19:56Z</time>
      </trkpt>
      <trkpt lat="44.24521" lon="1.69645">
        <ele>327.4</ele>
        <time>2023-01-26T13:19:57Z</time>
      </trkpt>
      <trkpt lat="44.24524" lon="1.6965">
        <ele>327.6</ele>
        <time>2023-01-26T13:19:58Z</time>
      </trkpt>
      <trkpt lat="44.24527" lon="1.69654">
        <ele>327.7</ele>
        <time>2023-01-26T13:19:59Z</time>
      </trkpt>
      <trkpt lat="44.2453" lon="1.69659">
        <ele>327.9</ele>
        <time>2023-01-26T13:20:01Z</time>
      </trkpt>
      <trkpt lat="44.24534" lon="1.69663">
        <ele>328</ele>
        <time>2023-01-26T13:20:02Z</time>
      </trkpt>
      <trkpt lat="44.24536" lon="1.69667">
        <ele>328.1</ele>
        <time>2023-01-26T13:20:03Z</time>
      </trkpt>
      <trkpt lat="44.24539" lon="1.69671">
        <ele>328.2</ele>
        <time>2023-01-26T13:20:04Z</time>
      </trkpt>
      <trkpt lat="44.24543" lon="1.69676">
        <ele>328.4</ele>
        <time>2023-01-26T13:20:05Z</time>
      </trkpt>
      <trkpt lat="44.24545" lon="1.69681">
        <ele>328.6</ele>
        <time>2023-01-26T13:20:06Z</time>
      </trkpt>
      <trkpt lat="44.24547" lon="1.69686">
        <ele>328.7</ele>
        <time>2023-01-26T13:20:07Z</time>
      </trkpt>
      <trkpt lat="44.24551" lon="1.69693">
        <ele>328.9</ele>
        <time>2023-01-26T13:20:09Z</time>
      </trkpt>
      <trkpt lat="44.24553" lon="1.69697">
        <ele>329.1</ele>
        <time>2023-01-26T13:20:10Z</time>
      </trkpt>
      <trkpt lat="44.24554" lon="1.69702">
        <ele>329.2</ele>
        <time>2023-01-26T13:20:11Z</time>
      </trkpt>
      <trkpt lat="44.24557" lon="1.69707">
        <ele>329.4</ele>
        <time>2023-01-26T13:20:12Z</time>
      </trkpt>
      <trkpt lat="44.2456" lon="1.69711">
        <ele>329.5</ele>
        <time>2023-01-26T13:20:13Z</time>
      </trkpt>
      <trkpt lat="44.24562" lon="1.69715">
        <ele>329.7</ele>
        <time>2023-01-26T13:20:14Z</time>
      </trkpt>
      <trkpt lat="44.24566" lon="1.6972">
        <ele>329.9</ele>
        <time>2023-01-26T13:20:15Z</time>
      </trkpt>
      <trkpt lat="44.24568" lon="1.69724">
        <ele>330</ele>
        <time>2023-01-26T13:20:16Z</time>
      </trkpt>
      <trkpt lat="44.24571" lon="1.69728">
        <ele>330.1</ele>
        <time>2023-01-26T13:20:18Z</time>
      </trkpt>
      <trkpt lat="44.24574" lon="1.69731">
        <ele>330.2</ele>
        <time>2023-01-26T13:20:19Z</time>
      </trkpt>
      <trkpt lat="44.24577" lon="1.69735">
        <ele>330.4</ele>
        <time>2023-01-26T13:20:20Z</time>
      </trkpt>
      <trkpt lat="44.24578" lon="1.69736">
        <ele>330.4</ele>
        <time>2023-01-26T13:20:21Z</time>
      </trkpt>
      <trkpt lat="44.24582" lon="1.69738">
        <ele>330.5</ele>
        <time>2023-01-26T13:20:23Z</time>
      </trkpt>
      <trkpt lat="44.24584" lon="1.69741">
        <ele>330.6</ele>
        <time>2023-01-26T13:20:24Z</time>
      </trkpt>
      <trkpt lat="44.24587" lon="1.69745">
        <ele>330.6</ele>
        <time>2023-01-26T13:20:25Z</time>
      </trkpt>
      <trkpt lat="44.24589" lon="1.69748">
        <ele>330.7</ele>
        <time>2023-01-26T13:20:26Z</time>
      </trkpt>
      <trkpt lat="44.24589" lon="1.69749">
        <ele>330.7</ele>
        <time>2023-01-26T13:20:27Z</time>
      </trkpt>
      <trkpt lat="44.24592" lon="1.69752">
        <ele>330.7</ele>
        <time>2023-01-26T13:20:28Z</time>
      </trkpt>
      <trkpt lat="44.24592" lon="1.69753">
        <ele>330.7</ele>
        <time>2023-01-26T13:20:29Z</time>
      </trkpt>
      <trkpt lat="44.24594" lon="1.69754">
        <ele>330.8</ele>
        <time>2023-01-26T13:20:31Z</time>
      </trkpt>
      <trkpt lat="44.24595" lon="1.69755">
        <ele>330.8</ele>
        <time>2023-01-26T13:20:32Z</time>
      </trkpt>
      <trkpt lat="44.24596" lon="1.69756">
        <ele>330.8</ele>
        <time>2023-01-26T13:20:34Z</time>
      </trkpt>
      <trkpt lat="44.24596" lon="1.69757">
        <ele>330.8</ele>
        <time>2023-01-26T13:20:35Z</time>
      </trkpt>
      <trkpt lat="44.24597" lon="1.69759">
        <ele>330.8</ele>
        <time>2023-01-26T13:20:36Z</time>
      </trkpt>
      <trkpt lat="44.24597" lon="1.6976">
        <ele>330.8</ele>
        <time>2023-01-26T13:20:38Z</time>
      </trkpt>
      <trkpt lat="44.24597" lon="1.69761">
        <ele>330.8</ele>
        <time>2023-01-26T13:20:40Z</time>
      </trkpt>
      <trkpt lat="44.24598" lon="1.69762">
        <ele>330.9</ele>
        <time>2023-01-26T13:20:41Z</time>
      </trkpt>
      <trkpt lat="44.24598" lon="1.69763">
        <ele>330.9</ele>
        <time>2023-01-26T13:20:43Z</time>
      </trkpt>
      <trkpt lat="44.24599" lon="1.69764">
        <ele>330.9</ele>
        <time>2023-01-26T13:21:07Z</time>
      </trkpt>
      <trkpt lat="44.24599" lon="1.69765">
        <ele>330.9</ele>
        <time>2023-01-26T13:21:08Z</time>
      </trkpt>
      <trkpt lat="44.246" lon="1.69766">
        <ele>330.9</ele>
        <time>2023-01-26T13:21:10Z</time>
      </trkpt>
      <trkpt lat="44.246" lon="1.69768">
        <ele>330.9</ele>
        <time>2023-01-26T13:21:11Z</time>
      </trkpt>
      <trkpt lat="44.24601" lon="1.6977">
        <ele>330.9</ele>
        <time>2023-01-26T13:21:12Z</time>
      </trkpt>
      <trkpt lat="44.24602" lon="1.69772">
        <ele>331</ele>
        <time>2023-01-26T13:21:13Z</time>
      </trkpt>
      <trkpt lat="44.24603" lon="1.69774">
        <ele>331</ele>
        <time>2023-01-26T13:21:14Z</time>
      </trkpt>
      <trkpt lat="44.24605" lon="1.69778">
        <ele>331</ele>
        <time>2023-01-26T13:21:16Z</time>
      </trkpt>
      <trkpt lat="44.24608" lon="1.69781">
        <ele>331</ele>
        <time>2023-01-26T13:21:17Z</time>
      </trkpt>
      <trkpt lat="44.24611" lon="1.69787">
        <ele>331.1</ele>
        <time>2023-01-26T13:21:19Z</time>
      </trkpt>
      <trkpt lat="44.24612" lon="1.69789">
        <ele>331.1</ele>
        <time>2023-01-26T13:21:20Z</time>
      </trkpt>
      <trkpt lat="44.24613" lon="1.69792">
        <ele>331.1</ele>
        <time>2023-01-26T13:21:21Z</time>
      </trkpt>
      <trkpt lat="44.24615" lon="1.69798">
        <ele>331.1</ele>
        <time>2023-01-26T13:21:22Z</time>
      </trkpt>
      <trkpt lat="44.24616" lon="1.69802">
        <ele>331.1</ele>
        <time>2023-01-26T13:21:23Z</time>
      </trkpt>
      <trkpt lat="44.24617" lon="1.69808">
        <ele>331.2</ele>
        <time>2023-01-26T13:21:25Z</time>
      </trkpt>
      <trkpt lat="44.24619" lon="1.69814">
        <ele>331.3</ele>
        <time>2023-01-26T13:21:27Z</time>
      </trkpt>
      <trkpt lat="44.24619" lon="1.69819">
        <ele>331.4</ele>
        <time>2023-01-26T13:21:28Z</time>
      </trkpt>
      <trkpt lat="44.24621" lon="1.69824">
        <ele>331.5</ele>
        <time>2023-01-26T13:21:29Z</time>
      </trkpt>
      <trkpt lat="44.24622" lon="1.69829">
        <ele>331.6</ele>
        <time>2023-01-26T13:21:30Z</time>
      </trkpt>
      <trkpt lat="44.24624" lon="1.69834">
        <ele>331.7</ele>
        <time>2023-01-26T13:21:31Z</time>
      </trkpt>
      <trkpt lat="44.24627" lon="1.69842">
        <ele>331.9</ele>
        <time>2023-01-26T13:21:33Z</time>
      </trkpt>
      <trkpt lat="44.24629" lon="1.69851">
        <ele>332.1</ele>
        <time>2023-01-26T13:21:34Z</time>
      </trkpt>
      <trkpt lat="44.2463" lon="1.69857">
        <ele>332.3</ele>
        <time>2023-01-26T13:21:36Z</time>
      </trkpt>
      <trkpt lat="44.24631" lon="1.69864">
        <ele>332.5</ele>
        <time>2023-01-26T13:21:37Z</time>
      </trkpt>
      <trkpt lat="44.24632" lon="1.69869">
        <ele>332.7</ele>
        <time>2023-01-26T13:21:38Z</time>
      </trkpt>
      <trkpt lat="44.24634" lon="1.69875">
        <ele>332.9</ele>
        <time>2023-01-26T13:21:39Z</time>
      </trkpt>
      <trkpt lat="44.24635" lon="1.69882">
        <ele>333.1</ele>
        <time>2023-01-26T13:21:40Z</time>
      </trkpt>
      <trkpt lat="44.24636" lon="1.69888">
        <ele>333.3</ele>
        <time>2023-01-26T13:21:41Z</time>
      </trkpt>
      <trkpt lat="44.24638" lon="1.69895">
        <ele>333.6</ele>
        <time>2023-01-26T13:21:43Z</time>
      </trkpt>
      <trkpt lat="44.24639" lon="1.699">
        <ele>333.8</ele>
        <time>2023-01-26T13:21:44Z</time>
      </trkpt>
      <trkpt lat="44.2464" lon="1.69905">
        <ele>333.9</ele>
        <time>2023-01-26T13:21:45Z</time>
      </trkpt>
      <trkpt lat="44.24641" lon="1.6991">
        <ele>334.2</ele>
        <time>2023-01-26T13:21:46Z</time>
      </trkpt>
      <trkpt lat="44.24642" lon="1.69918">
        <ele>334.4</ele>
        <time>2023-01-26T13:21:47Z</time>
      </trkpt>
      <trkpt lat="44.24643" lon="1.69922">
        <ele>334.6</ele>
        <time>2023-01-26T13:21:48Z</time>
      </trkpt>
      <trkpt lat="44.24644" lon="1.69935">
        <ele>335.1</ele>
        <time>2023-01-26T13:21:50Z</time>
      </trkpt>
      <trkpt lat="44.24645" lon="1.69942">
        <ele>335.3</ele>
        <time>2023-01-26T13:21:52Z</time>
      </trkpt>
      <trkpt lat="44.24645" lon="1.69947">
        <ele>335.5</ele>
        <time>2023-01-26T13:21:53Z</time>
      </trkpt>
      <trkpt lat="44.24646" lon="1.69954">
        <ele>335.7</ele>
        <time>2023-01-26T13:21:54Z</time>
      </trkpt>
      <trkpt lat="44.24646" lon="1.69961">
        <ele>335.9</ele>
        <time>2023-01-26T13:21:55Z</time>
      </trkpt>
      <trkpt lat="44.24647" lon="1.69968">
        <ele>336.1</ele>
        <time>2023-01-26T13:21:56Z</time>
      </trkpt>
      <trkpt lat="44.24646" lon="1.69972">
        <ele>336.1</ele>
        <time>2023-01-26T13:21:58Z</time>
      </trkpt>
      <trkpt lat="44.24645" lon="1.69979">
        <ele>336.2</ele>
        <time>2023-01-26T13:21:59Z</time>
      </trkpt>
      <trkpt lat="44.24645" lon="1.69983">
        <ele>336.3</ele>
        <time>2023-01-26T13:22:01Z</time>
      </trkpt>
      <trkpt lat="44.24643" lon="1.69983">
        <ele>336.2</ele>
        <time>2023-01-26T13:22:02Z</time>
      </trkpt>
      <trkpt lat="44.24642" lon="1.69983">
        <ele>336.2</ele>
        <time>2023-01-26T13:22:04Z</time>
      </trkpt>
      <trkpt lat="44.24641" lon="1.69983">
        <ele>336.1</ele>
        <time>2023-01-26T13:22:05Z</time>
      </trkpt>
      <trkpt lat="44.2464" lon="1.69981">
        <ele>336</ele>
        <time>2023-01-26T13:22:06Z</time>
      </trkpt>
      <trkpt lat="44.24637" lon="1.6998">
        <ele>335.9</ele>
        <time>2023-01-26T13:22:08Z</time>
      </trkpt>
      <trkpt lat="44.24633" lon="1.69977">
        <ele>335.7</ele>
        <time>2023-01-26T13:22:09Z</time>
      </trkpt>
      <trkpt lat="44.24631" lon="1.69976">
        <ele>335.6</ele>
        <time>2023-01-26T13:22:10Z</time>
      </trkpt>
      <trkpt lat="44.24627" lon="1.69974">
        <ele>335.4</ele>
        <time>2023-01-26T13:22:12Z</time>
      </trkpt>
      <trkpt lat="44.24625" lon="1.69972">
        <ele>335.3</ele>
        <time>2023-01-26T13:22:13Z</time>
      </trkpt>
      <trkpt lat="44.2462" lon="1.69969">
        <ele>335</ele>
        <time>2023-01-26T13:22:14Z</time>
      </trkpt>
      <trkpt lat="44.24616" lon="1.69967">
        <ele>334.8</ele>
        <time>2023-01-26T13:22:16Z</time>
      </trkpt>
      <trkpt lat="44.24614" lon="1.69966">
        <ele>334.7</ele>
        <time>2023-01-26T13:22:17Z</time>
      </trkpt>
      <trkpt lat="44.24611" lon="1.69964">
        <ele>334.5</ele>
        <time>2023-01-26T13:22:19Z</time>
      </trkpt>
      <trkpt lat="44.2461" lon="1.69964">
        <ele>334.4</ele>
        <time>2023-01-26T13:22:20Z</time>
      </trkpt>
      <trkpt lat="44.24609" lon="1.69964">
        <ele>334.4</ele>
        <time>2023-01-26T13:22:22Z</time>
      </trkpt>
      <trkpt lat="44.24609" lon="1.69964">
        <ele>334.4</ele>
        <time>2023-01-26T13:22:23Z</time>
      </trkpt>
      <trkpt lat="44.24608" lon="1.69963">
        <ele>334.3</ele>
        <time>2023-01-26T13:22:24Z</time>
      </trkpt>
      <trkpt lat="44.24607" lon="1.69963">
        <ele>334.3</ele>
        <time>2023-01-26T13:22:25Z</time>
      </trkpt>
      <trkpt lat="44.24606" lon="1.69963">
        <ele>334.2</ele>
        <time>2023-01-26T13:22:27Z</time>
      </trkpt>
      <trkpt lat="44.24606" lon="1.69963">
        <ele>334.1</ele>
        <time>2023-01-26T13:22:28Z</time>
      </trkpt>
      <trkpt lat="44.24605" lon="1.69963">
        <ele>334.1</ele>
        <time>2023-01-26T13:22:29Z</time>
      </trkpt>
      <trkpt lat="44.24604" lon="1.69964">
        <ele>334.1</ele>
        <time>2023-01-26T13:22:30Z</time>
      </trkpt>
      <trkpt lat="44.24603" lon="1.69964">
        <ele>334.1</ele>
        <time>2023-01-26T13:22:32Z</time>
      </trkpt>
      <trkpt lat="44.24603" lon="1.69964">
        <ele>334.1</ele>
        <time>2023-01-26T13:22:33Z</time>
      </trkpt>
      <trkpt lat="44.24602" lon="1.69964">
        <ele>334.2</ele>
        <time>2023-01-26T13:22:35Z</time>
      </trkpt>
      <trkpt lat="44.24601" lon="1.69964">
        <ele>334.2</ele>
        <time>2023-01-26T13:22:36Z</time>
      </trkpt>
      <trkpt lat="44.246" lon="1.69964">
        <ele>334.2</ele>
        <time>2023-01-26T13:22:37Z</time>
      </trkpt>
      <trkpt lat="44.246" lon="1.69964">
        <ele>334.2</ele>
        <time>2023-01-26T13:23:14Z</time>
      </trkpt>
      <trkpt lat="44.24599" lon="1.69964">
        <ele>334.2</ele>
        <time>2023-01-26T13:23:15Z</time>
      </trkpt>
      <trkpt lat="44.24596" lon="1.69968">
        <ele>334.3</ele>
        <time>2023-01-26T13:23:16Z</time>
      </trkpt>
      <trkpt lat="44.24593" lon="1.69976">
        <ele>334.3</ele>
        <time>2023-01-26T13:23:17Z</time>
      </trkpt>
      <trkpt lat="44.24592" lon="1.69981">
        <ele>334.3</ele>
        <time>2023-01-26T13:23:19Z</time>
      </trkpt>
      <trkpt lat="44.24591" lon="1.69985">
        <ele>334.3</ele>
        <time>2023-01-26T13:23:20Z</time>
      </trkpt>
      <trkpt lat="44.2459" lon="1.69989">
        <ele>334.2</ele>
        <time>2023-01-26T13:23:21Z</time>
      </trkpt>
      <trkpt lat="44.24589" lon="1.69994">
        <ele>334.1</ele>
        <time>2023-01-26T13:23:22Z</time>
      </trkpt>
      <trkpt lat="44.24586" lon="1.70002">
        <ele>333.9</ele>
        <time>2023-01-26T13:23:24Z</time>
      </trkpt>
      <trkpt lat="44.24584" lon="1.70006">
        <ele>333.7</ele>
        <time>2023-01-26T13:23:25Z</time>
      </trkpt>
      <trkpt lat="44.24581" lon="1.70011">
        <ele>333.6</ele>
        <time>2023-01-26T13:23:26Z</time>
      </trkpt>
      <trkpt lat="44.24579" lon="1.70017">
        <ele>333.4</ele>
        <time>2023-01-26T13:23:27Z</time>
      </trkpt>
      <trkpt lat="44.24576" lon="1.70025">
        <ele>333.3</ele>
        <time>2023-01-26T13:23:29Z</time>
      </trkpt>
      <trkpt lat="44.24574" lon="1.70032">
        <ele>333.2</ele>
        <time>2023-01-26T13:23:30Z</time>
      </trkpt>
      <trkpt lat="44.24572" lon="1.70036">
        <ele>333.2</ele>
        <time>2023-01-26T13:23:31Z</time>
      </trkpt>
      <trkpt lat="44.2457" lon="1.70041">
        <ele>333.2</ele>
        <time>2023-01-26T13:23:32Z</time>
      </trkpt>
      <trkpt lat="44.24568" lon="1.70048">
        <ele>333.2</ele>
        <time>2023-01-26T13:23:34Z</time>
      </trkpt>
      <trkpt lat="44.24566" lon="1.70054">
        <ele>333.2</ele>
        <time>2023-01-26T13:23:35Z</time>
      </trkpt>
      <trkpt lat="44.24564" lon="1.70059">
        <ele>333.2</ele>
        <time>2023-01-26T13:23:36Z</time>
      </trkpt>
      <trkpt lat="44.24561" lon="1.70064">
        <ele>333.2</ele>
        <time>2023-01-26T13:23:37Z</time>
      </trkpt>
      <trkpt lat="44.24559" lon="1.70071">
        <ele>333.3</ele>
        <time>2023-01-26T13:23:38Z</time>
      </trkpt>
      <trkpt lat="44.24557" lon="1.70076">
        <ele>333.4</ele>
        <time>2023-01-26T13:23:39Z</time>
      </trkpt>
      <trkpt lat="44.24553" lon="1.70084">
        <ele>333.5</ele>
        <time>2023-01-26T13:23:41Z</time>
      </trkpt>
      <trkpt lat="44.24551" lon="1.7009">
        <ele>333.5</ele>
        <time>2023-01-26T13:23:42Z</time>
      </trkpt>
      <trkpt lat="44.24549" lon="1.70096">
        <ele>333.6</ele>
        <time>2023-01-26T13:23:43Z</time>
      </trkpt>
      <trkpt lat="44.24547" lon="1.70103">
        <ele>333.6</ele>
        <time>2023-01-26T13:23:44Z</time>
      </trkpt>
      <trkpt lat="44.24546" lon="1.7011">
        <ele>333.6</ele>
        <time>2023-01-26T13:23:45Z</time>
      </trkpt>
      <trkpt lat="44.24545" lon="1.70117">
        <ele>333.7</ele>
        <time>2023-01-26T13:23:46Z</time>
      </trkpt>
      <trkpt lat="44.24543" lon="1.70124">
        <ele>333.8</ele>
        <time>2023-01-26T13:23:47Z</time>
      </trkpt>
      <trkpt lat="44.24542" lon="1.7013">
        <ele>333.8</ele>
        <time>2023-01-26T13:23:48Z</time>
      </trkpt>
      <trkpt lat="44.24541" lon="1.70137">
        <ele>333.8</ele>
        <time>2023-01-26T13:23:49Z</time>
      </trkpt>
      <trkpt lat="44.2454" lon="1.70143">
        <ele>333.8</ele>
        <time>2023-01-26T13:23:50Z</time>
      </trkpt>
      <trkpt lat="44.24539" lon="1.7015">
        <ele>333.7</ele>
        <time>2023-01-26T13:23:51Z</time>
      </trkpt>
      <trkpt lat="44.24538" lon="1.70157">
        <ele>333.6</ele>
        <time>2023-01-26T13:23:52Z</time>
      </trkpt>
      <trkpt lat="44.24537" lon="1.70164">
        <ele>333.6</ele>
        <time>2023-01-26T13:23:53Z</time>
      </trkpt>
      <trkpt lat="44.24536" lon="1.70171">
        <ele>333.7</ele>
        <time>2023-01-26T13:23:54Z</time>
      </trkpt>
      <trkpt lat="44.24535" lon="1.70177">
        <ele>333.7</ele>
        <time>2023-01-26T13:23:55Z</time>
      </trkpt>
      <trkpt lat="44.24533" lon="1.70183">
        <ele>333.8</ele>
        <time>2023-01-26T13:23:56Z</time>
      </trkpt>
      <trkpt lat="44.24532" lon="1.70187">
        <ele>333.9</ele>
        <time>2023-01-26T13:23:57Z</time>
      </trkpt>
      <trkpt lat="44.24529" lon="1.70192">
        <ele>333.9</ele>
        <time>2023-01-26T13:23:58Z</time>
      </trkpt>
      <trkpt lat="44.24527" lon="1.70195">
        <ele>333.9</ele>
        <time>2023-01-26T13:23:59Z</time>
      </trkpt>
      <trkpt lat="44.24524" lon="1.70198">
        <ele>333.9</ele>
        <time>2023-01-26T13:24:00Z</time>
      </trkpt>
      <trkpt lat="44.2452" lon="1.70202">
        <ele>333.9</ele>
        <time>2023-01-26T13:24:01Z</time>
      </trkpt>
      <trkpt lat="44.24516" lon="1.70205">
        <ele>333.8</ele>
        <time>2023-01-26T13:24:02Z</time>
      </trkpt>
      <trkpt lat="44.24511" lon="1.70209">
        <ele>333.8</ele>
        <time>2023-01-26T13:24:03Z</time>
      </trkpt>
      <trkpt lat="44.24508" lon="1.70211">
        <ele>333.8</ele>
        <time>2023-01-26T13:24:04Z</time>
      </trkpt>
      <trkpt lat="44.24502" lon="1.70214">
        <ele>333.8</ele>
        <time>2023-01-26T13:24:06Z</time>
      </trkpt>
      <trkpt lat="44.24497" lon="1.70217">
        <ele>333.8</ele>
        <time>2023-01-26T13:24:07Z</time>
      </trkpt>
      <trkpt lat="44.24491" lon="1.7022">
        <ele>333.9</ele>
        <time>2023-01-26T13:24:08Z</time>
      </trkpt>
      <trkpt lat="44.24487" lon="1.70223">
        <ele>333.9</ele>
        <time>2023-01-26T13:24:09Z</time>
      </trkpt>
      <trkpt lat="44.24482" lon="1.70225">
        <ele>333.9</ele>
        <time>2023-01-26T13:24:11Z</time>
      </trkpt>
      <trkpt lat="44.24477" lon="1.70228">
        <ele>333.9</ele>
        <time>2023-01-26T13:24:12Z</time>
      </trkpt>
      <trkpt lat="44.24473" lon="1.70231">
        <ele>334</ele>
        <time>2023-01-26T13:24:13Z</time>
      </trkpt>
      <trkpt lat="44.24469" lon="1.70233">
        <ele>334</ele>
        <time>2023-01-26T13:24:14Z</time>
      </trkpt>
      <trkpt lat="44.24462" lon="1.70238">
        <ele>334.1</ele>
        <time>2023-01-26T13:24:15Z</time>
      </trkpt>
      <trkpt lat="44.24458" lon="1.70241">
        <ele>334.1</ele>
        <time>2023-01-26T13:24:17Z</time>
      </trkpt>
      <trkpt lat="44.24455" lon="1.70243">
        <ele>334.1</ele>
        <time>2023-01-26T13:24:18Z</time>
      </trkpt>
      <trkpt lat="44.2445" lon="1.70246">
        <ele>334.1</ele>
        <time>2023-01-26T13:24:19Z</time>
      </trkpt>
      <trkpt lat="44.24445" lon="1.70248">
        <ele>334.2</ele>
        <time>2023-01-26T13:24:20Z</time>
      </trkpt>
      <trkpt lat="44.24441" lon="1.7025">
        <ele>334.2</ele>
        <time>2023-01-26T13:24:21Z</time>
      </trkpt>
      <trkpt lat="44.24437" lon="1.70253">
        <ele>334.2</ele>
        <time>2023-01-26T13:24:22Z</time>
      </trkpt>
      <trkpt lat="44.24433" lon="1.70256">
        <ele>334.2</ele>
        <time>2023-01-26T13:24:23Z</time>
      </trkpt>
      <trkpt lat="44.24429" lon="1.70263">
        <ele>334.1</ele>
        <time>2023-01-26T13:24:25Z</time>
      </trkpt>
      <trkpt lat="44.24427" lon="1.70269">
        <ele>334.1</ele>
        <time>2023-01-26T13:24:26Z</time>
      </trkpt>
      <trkpt lat="44.24425" lon="1.70274">
        <ele>334</ele>
        <time>2023-01-26T13:24:27Z</time>
      </trkpt>
      <trkpt lat="44.24421" lon="1.70281">
        <ele>333.9</ele>
        <time>2023-01-26T13:24:28Z</time>
      </trkpt>
      <trkpt lat="44.24417" lon="1.7029">
        <ele>333.6</ele>
        <time>2023-01-26T13:24:30Z</time>
      </trkpt>
      <trkpt lat="44.24414" lon="1.70296">
        <ele>333.4</ele>
        <time>2023-01-26T13:24:31Z</time>
      </trkpt>
      <trkpt lat="44.24411" lon="1.70302">
        <ele>333.3</ele>
        <time>2023-01-26T13:24:32Z</time>
      </trkpt>
      <trkpt lat="44.24408" lon="1.70308">
        <ele>333.1</ele>
        <time>2023-01-26T13:24:33Z</time>
      </trkpt>
      <trkpt lat="44.24406" lon="1.70314">
        <ele>332.9</ele>
        <time>2023-01-26T13:24:34Z</time>
      </trkpt>
      <trkpt lat="44.24402" lon="1.70319">
        <ele>332.7</ele>
        <time>2023-01-26T13:24:35Z</time>
      </trkpt>
      <trkpt lat="44.24399" lon="1.70325">
        <ele>332.4</ele>
        <time>2023-01-26T13:24:36Z</time>
      </trkpt>
      <trkpt lat="44.24397" lon="1.70331">
        <ele>332.1</ele>
        <time>2023-01-26T13:24:37Z</time>
      </trkpt>
      <trkpt lat="44.24395" lon="1.70338">
        <ele>331.7</ele>
        <time>2023-01-26T13:24:38Z</time>
      </trkpt>
      <trkpt lat="44.24392" lon="1.70345">
        <ele>331.2</ele>
        <time>2023-01-26T13:24:39Z</time>
      </trkpt>
      <trkpt lat="44.24389" lon="1.70352">
        <ele>330.7</ele>
        <time>2023-01-26T13:24:40Z</time>
      </trkpt>
      <trkpt lat="44.24385" lon="1.70359">
        <ele>330.1</ele>
        <time>2023-01-26T13:24:41Z</time>
      </trkpt>
      <trkpt lat="44.2438" lon="1.70366">
        <ele>329.6</ele>
        <time>2023-01-26T13:24:42Z</time>
      </trkpt>
      <trkpt lat="44.24376" lon="1.70373">
        <ele>329.2</ele>
        <time>2023-01-26T13:24:43Z</time>
      </trkpt>
      <trkpt lat="44.24373" lon="1.7038">
        <ele>328.7</ele>
        <time>2023-01-26T13:24:44Z</time>
      </trkpt>
      <trkpt lat="44.2437" lon="1.70389">
        <ele>328.2</ele>
        <time>2023-01-26T13:24:45Z</time>
      </trkpt>
      <trkpt lat="44.24368" lon="1.70399">
        <ele>327.5</ele>
        <time>2023-01-26T13:24:46Z</time>
      </trkpt>
      <trkpt lat="44.24366" lon="1.70409">
        <ele>326.8</ele>
        <time>2023-01-26T13:24:47Z</time>
      </trkpt>
      <trkpt lat="44.24365" lon="1.7042">
        <ele>326</ele>
        <time>2023-01-26T13:24:48Z</time>
      </trkpt>
      <trkpt lat="44.24364" lon="1.70431">
        <ele>325.2</ele>
        <time>2023-01-26T13:24:49Z</time>
      </trkpt>
      <trkpt lat="44.24362" lon="1.70443">
        <ele>324.4</ele>
        <time>2023-01-26T13:24:50Z</time>
      </trkpt>
      <trkpt lat="44.24361" lon="1.70454">
        <ele>323.6</ele>
        <time>2023-01-26T13:24:51Z</time>
      </trkpt>
      <trkpt lat="44.24359" lon="1.70466">
        <ele>322.9</ele>
        <time>2023-01-26T13:24:52Z</time>
      </trkpt>
      <trkpt lat="44.24357" lon="1.70477">
        <ele>322.2</ele>
        <time>2023-01-26T13:24:53Z</time>
      </trkpt>
      <trkpt lat="44.24356" lon="1.70488">
        <ele>321.6</ele>
        <time>2023-01-26T13:24:54Z</time>
      </trkpt>
      <trkpt lat="44.24355" lon="1.70498">
        <ele>321</ele>
        <time>2023-01-26T13:24:55Z</time>
      </trkpt>
      <trkpt lat="44.24354" lon="1.70506">
        <ele>320.5</ele>
        <time>2023-01-26T13:24:56Z</time>
      </trkpt>
      <trkpt lat="44.24352" lon="1.70514">
        <ele>320.1</ele>
        <time>2023-01-26T13:24:57Z</time>
      </trkpt>
      <trkpt lat="44.2435" lon="1.70523">
        <ele>319.7</ele>
        <time>2023-01-26T13:24:58Z</time>
      </trkpt>
      <trkpt lat="44.2435" lon="1.70532">
        <ele>319.4</ele>
        <time>2023-01-26T13:24:59Z</time>
      </trkpt>
      <trkpt lat="44.24349" lon="1.7054">
        <ele>319.2</ele>
        <time>2023-01-26T13:25:00Z</time>
      </trkpt>
      <trkpt lat="44.24348" lon="1.70547">
        <ele>319</ele>
        <time>2023-01-26T13:25:01Z</time>
      </trkpt>
      <trkpt lat="44.24348" lon="1.70552">
        <ele>318.8</ele>
        <time>2023-01-26T13:25:02Z</time>
      </trkpt>
      <trkpt lat="44.24347" lon="1.70556">
        <ele>318.6</ele>
        <time>2023-01-26T13:25:03Z</time>
      </trkpt>
      <trkpt lat="44.24347" lon="1.70558">
        <ele>318.5</ele>
        <time>2023-01-26T13:25:04Z</time>
      </trkpt>
      <trkpt lat="44.24347" lon="1.70562">
        <ele>318.3</ele>
        <time>2023-01-26T13:25:05Z</time>
      </trkpt>
      <trkpt lat="44.24348" lon="1.70564">
        <ele>318.2</ele>
        <time>2023-01-26T13:25:06Z</time>
      </trkpt>
      <trkpt lat="44.24349" lon="1.70567">
        <ele>318.1</ele>
        <time>2023-01-26T13:25:07Z</time>
      </trkpt>
      <trkpt lat="44.24351" lon="1.70571">
        <ele>318.1</ele>
        <time>2023-01-26T13:25:08Z</time>
      </trkpt>
      <trkpt lat="44.24353" lon="1.70573">
        <ele>318.1</ele>
        <time>2023-01-26T13:25:09Z</time>
      </trkpt>
      <trkpt lat="44.24358" lon="1.70581">
        <ele>318.1</ele>
        <time>2023-01-26T13:25:11Z</time>
      </trkpt>
      <trkpt lat="44.24361" lon="1.70587">
        <ele>318.1</ele>
        <time>2023-01-26T13:25:12Z</time>
      </trkpt>
      <trkpt lat="44.24364" lon="1.70593">
        <ele>317.9</ele>
        <time>2023-01-26T13:25:13Z</time>
      </trkpt>
      <trkpt lat="44.24367" lon="1.70601">
        <ele>317.4</ele>
        <time>2023-01-26T13:25:14Z</time>
      </trkpt>
      <trkpt lat="44.24367" lon="1.70608">
        <ele>316.9</ele>
        <time>2023-01-26T13:25:15Z</time>
      </trkpt>
      <trkpt lat="44.24368" lon="1.70621">
        <ele>316</ele>
        <time>2023-01-26T13:25:17Z</time>
      </trkpt>
      <trkpt lat="44.24369" lon="1.70629">
        <ele>315.3</ele>
        <time>2023-01-26T13:25:18Z</time>
      </trkpt>
      <trkpt lat="44.2437" lon="1.70638">
        <ele>314.5</ele>
        <time>2023-01-26T13:25:19Z</time>
      </trkpt>
      <trkpt lat="44.24371" lon="1.70648">
        <ele>313.7</ele>
        <time>2023-01-26T13:25:20Z</time>
      </trkpt>
      <trkpt lat="44.24372" lon="1.70657">
        <ele>312.8</ele>
        <time>2023-01-26T13:25:21Z</time>
      </trkpt>
      <trkpt lat="44.24372" lon="1.70668">
        <ele>311.9</ele>
        <time>2023-01-26T13:25:22Z</time>
      </trkpt>
      <trkpt lat="44.24374" lon="1.70683">
        <ele>310.8</ele>
        <time>2023-01-26T13:25:23Z</time>
      </trkpt>
      <trkpt lat="44.24375" lon="1.70692">
        <ele>310.1</ele>
        <time>2023-01-26T13:25:24Z</time>
      </trkpt>
      <trkpt lat="44.24376" lon="1.70704">
        <ele>309.3</ele>
        <time>2023-01-26T13:25:25Z</time>
      </trkpt>
      <trkpt lat="44.24377" lon="1.70715">
        <ele>308.6</ele>
        <time>2023-01-26T13:25:26Z</time>
      </trkpt>
      <trkpt lat="44.24378" lon="1.70727">
        <ele>307.9</ele>
        <time>2023-01-26T13:25:27Z</time>
      </trkpt>
      <trkpt lat="44.2438" lon="1.70739">
        <ele>307.2</ele>
        <time>2023-01-26T13:25:28Z</time>
      </trkpt>
      <trkpt lat="44.24382" lon="1.7075">
        <ele>306.5</ele>
        <time>2023-01-26T13:25:29Z</time>
      </trkpt>
      <trkpt lat="44.24382" lon="1.7076">
        <ele>305.8</ele>
        <time>2023-01-26T13:25:30Z</time>
      </trkpt>
      <trkpt lat="44.24382" lon="1.70769">
        <ele>305.2</ele>
        <time>2023-01-26T13:25:31Z</time>
      </trkpt>
      <trkpt lat="44.24382" lon="1.70778">
        <ele>304.5</ele>
        <time>2023-01-26T13:25:32Z</time>
      </trkpt>
      <trkpt lat="44.24384" lon="1.70787">
        <ele>303.9</ele>
        <time>2023-01-26T13:25:33Z</time>
      </trkpt>
      <trkpt lat="44.24387" lon="1.70797">
        <ele>303.4</ele>
        <time>2023-01-26T13:25:34Z</time>
      </trkpt>
      <trkpt lat="44.24389" lon="1.70807">
        <ele>302.9</ele>
        <time>2023-01-26T13:25:35Z</time>
      </trkpt>
      <trkpt lat="44.24391" lon="1.70817">
        <ele>302.5</ele>
        <time>2023-01-26T13:25:36Z</time>
      </trkpt>
      <trkpt lat="44.24392" lon="1.70827">
        <ele>302.3</ele>
        <time>2023-01-26T13:25:37Z</time>
      </trkpt>
      <trkpt lat="44.24392" lon="1.70837">
        <ele>302.1</ele>
        <time>2023-01-26T13:25:38Z</time>
      </trkpt>
      <trkpt lat="44.24394" lon="1.70847">
        <ele>302.2</ele>
        <time>2023-01-26T13:25:39Z</time>
      </trkpt>
      <trkpt lat="44.24396" lon="1.70856">
        <ele>302.4</ele>
        <time>2023-01-26T13:25:40Z</time>
      </trkpt>
      <trkpt lat="44.24398" lon="1.70864">
        <ele>302.9</ele>
        <time>2023-01-26T13:25:41Z</time>
      </trkpt>
      <trkpt lat="44.244" lon="1.7087">
        <ele>303.5</ele>
        <time>2023-01-26T13:25:42Z</time>
      </trkpt>
      <trkpt lat="44.24403" lon="1.70876">
        <ele>304.2</ele>
        <time>2023-01-26T13:25:43Z</time>
      </trkpt>
      <trkpt lat="44.24404" lon="1.70881">
        <ele>304.9</ele>
        <time>2023-01-26T13:25:44Z</time>
      </trkpt>
      <trkpt lat="44.24405" lon="1.70886">
        <ele>305.5</ele>
        <time>2023-01-26T13:25:45Z</time>
      </trkpt>
      <trkpt lat="44.24406" lon="1.70891">
        <ele>306.2</ele>
        <time>2023-01-26T13:25:46Z</time>
      </trkpt>
      <trkpt lat="44.24407" lon="1.70896">
        <ele>307</ele>
        <time>2023-01-26T13:25:47Z</time>
      </trkpt>
      <trkpt lat="44.24408" lon="1.70902">
        <ele>307.8</ele>
        <time>2023-01-26T13:25:48Z</time>
      </trkpt>
      <trkpt lat="44.24408" lon="1.70903">
        <ele>308</ele>
        <time>2023-01-26T13:25:49Z</time>
      </trkpt>
      <trkpt lat="44.24408" lon="1.70909">
        <ele>308.8</ele>
        <time>2023-01-26T13:25:50Z</time>
      </trkpt>
      <trkpt lat="44.24408" lon="1.70913">
        <ele>309.5</ele>
        <time>2023-01-26T13:25:51Z</time>
      </trkpt>
      <trkpt lat="44.24407" lon="1.70917">
        <ele>310.1</ele>
        <time>2023-01-26T13:25:52Z</time>
      </trkpt>
      <trkpt lat="44.24406" lon="1.70926">
        <ele>311.5</ele>
        <time>2023-01-26T13:25:54Z</time>
      </trkpt>
      <trkpt lat="44.24406" lon="1.70933">
        <ele>312.5</ele>
        <time>2023-01-26T13:25:55Z</time>
      </trkpt>
      <trkpt lat="44.24406" lon="1.70939">
        <ele>313.3</ele>
        <time>2023-01-26T13:25:56Z</time>
      </trkpt>
      <trkpt lat="44.24405" lon="1.70943">
        <ele>314</ele>
        <time>2023-01-26T13:25:57Z</time>
      </trkpt>
      <trkpt lat="44.24405" lon="1.70948">
        <ele>314.7</ele>
        <time>2023-01-26T13:25:58Z</time>
      </trkpt>
      <trkpt lat="44.24405" lon="1.70956">
        <ele>315.7</ele>
        <time>2023-01-26T13:26:00Z</time>
      </trkpt>
      <trkpt lat="44.24404" lon="1.7096">
        <ele>316.2</ele>
        <time>2023-01-26T13:26:02Z</time>
      </trkpt>
      <trkpt lat="44.24403" lon="1.70965">
        <ele>316.7</ele>
        <time>2023-01-26T13:26:03Z</time>
      </trkpt>
      <trkpt lat="44.24402" lon="1.70971">
        <ele>317.3</ele>
        <time>2023-01-26T13:26:04Z</time>
      </trkpt>
      <trkpt lat="44.244" lon="1.70977">
        <ele>317.8</ele>
        <time>2023-01-26T13:26:05Z</time>
      </trkpt>
      <trkpt lat="44.24398" lon="1.70981">
        <ele>318.3</ele>
        <time>2023-01-26T13:26:06Z</time>
      </trkpt>
      <trkpt lat="44.24396" lon="1.70985">
        <ele>318.6</ele>
        <time>2023-01-26T13:26:08Z</time>
      </trkpt>
      <trkpt lat="44.24394" lon="1.70989">
        <ele>318.9</ele>
        <time>2023-01-26T13:26:09Z</time>
      </trkpt>
      <trkpt lat="44.24391" lon="1.70993">
        <ele>319.3</ele>
        <time>2023-01-26T13:26:10Z</time>
      </trkpt>
      <trkpt lat="44.24388" lon="1.70998">
        <ele>319.6</ele>
        <time>2023-01-26T13:26:11Z</time>
      </trkpt>
      <trkpt lat="44.24384" lon="1.71004">
        <ele>320.1</ele>
        <time>2023-01-26T13:26:13Z</time>
      </trkpt>
      <trkpt lat="44.24381" lon="1.71009">
        <ele>320.4</ele>
        <time>2023-01-26T13:26:14Z</time>
      </trkpt>
      <trkpt lat="44.24379" lon="1.71013">
        <ele>320.7</ele>
        <time>2023-01-26T13:26:15Z</time>
      </trkpt>
      <trkpt lat="44.24377" lon="1.71019">
        <ele>321</ele>
        <time>2023-01-26T13:26:16Z</time>
      </trkpt>
      <trkpt lat="44.24375" lon="1.71022">
        <ele>321.3</ele>
        <time>2023-01-26T13:26:17Z</time>
      </trkpt>
      <trkpt lat="44.24372" lon="1.71027">
        <ele>321.6</ele>
        <time>2023-01-26T13:26:19Z</time>
      </trkpt>
      <trkpt lat="44.24369" lon="1.71031">
        <ele>321.8</ele>
        <time>2023-01-26T13:26:20Z</time>
      </trkpt>
      <trkpt lat="44.24366" lon="1.71035">
        <ele>322</ele>
        <time>2023-01-26T13:26:21Z</time>
      </trkpt>
      <trkpt lat="44.24362" lon="1.7104">
        <ele>322.2</ele>
        <time>2023-01-26T13:26:22Z</time>
      </trkpt>
      <trkpt lat="44.2436" lon="1.71044">
        <ele>322.3</ele>
        <time>2023-01-26T13:26:23Z</time>
      </trkpt>
      <trkpt lat="44.24357" lon="1.71049">
        <ele>322.4</ele>
        <time>2023-01-26T13:26:24Z</time>
      </trkpt>
      <trkpt lat="44.24355" lon="1.71052">
        <ele>322.5</ele>
        <time>2023-01-26T13:26:25Z</time>
      </trkpt>
      <trkpt lat="44.24349" lon="1.71062">
        <ele>322.6</ele>
        <time>2023-01-26T13:26:27Z</time>
      </trkpt>
      <trkpt lat="44.24345" lon="1.71068">
        <ele>322.7</ele>
        <time>2023-01-26T13:26:29Z</time>
      </trkpt>
      <trkpt lat="44.24341" lon="1.71072">
        <ele>322.8</ele>
        <time>2023-01-26T13:26:30Z</time>
      </trkpt>
      <trkpt lat="44.24337" lon="1.71078">
        <ele>323</ele>
        <time>2023-01-26T13:26:31Z</time>
      </trkpt>
      <trkpt lat="44.24335" lon="1.71083">
        <ele>323.1</ele>
        <time>2023-01-26T13:26:32Z</time>
      </trkpt>
      <trkpt lat="44.24332" lon="1.71091">
        <ele>323.2</ele>
        <time>2023-01-26T13:26:34Z</time>
      </trkpt>
      <trkpt lat="44.24328" lon="1.71099">
        <ele>323.2</ele>
        <time>2023-01-26T13:26:36Z</time>
      </trkpt>
      <trkpt lat="44.24325" lon="1.71105">
        <ele>323.2</ele>
        <time>2023-01-26T13:26:37Z</time>
      </trkpt>
      <trkpt lat="44.24323" lon="1.7111">
        <ele>323.2</ele>
        <time>2023-01-26T13:26:38Z</time>
      </trkpt>
      <trkpt lat="44.24321" lon="1.71116">
        <ele>323.1</ele>
        <time>2023-01-26T13:26:39Z</time>
      </trkpt>
      <trkpt lat="44.24318" lon="1.71125">
        <ele>322.9</ele>
        <time>2023-01-26T13:26:41Z</time>
      </trkpt>
      <trkpt lat="44.24316" lon="1.7113">
        <ele>322.8</ele>
        <time>2023-01-26T13:26:42Z</time>
      </trkpt>
      <trkpt lat="44.24313" lon="1.71136">
        <ele>322.7</ele>
        <time>2023-01-26T13:26:43Z</time>
      </trkpt>
      <trkpt lat="44.24311" lon="1.71141">
        <ele>322.6</ele>
        <time>2023-01-26T13:26:44Z</time>
      </trkpt>
      <trkpt lat="44.24309" lon="1.71145">
        <ele>322.4</ele>
        <time>2023-01-26T13:26:45Z</time>
      </trkpt>
      <trkpt lat="44.24306" lon="1.71154">
        <ele>322</ele>
        <time>2023-01-26T13:26:47Z</time>
      </trkpt>
      <trkpt lat="44.24303" lon="1.71159">
        <ele>321.7</ele>
        <time>2023-01-26T13:26:49Z</time>
      </trkpt>
      <trkpt lat="44.24299" lon="1.71163">
        <ele>321.4</ele>
        <time>2023-01-26T13:26:50Z</time>
      </trkpt>
      <trkpt lat="44.24295" lon="1.71166">
        <ele>321.1</ele>
        <time>2023-01-26T13:26:51Z</time>
      </trkpt>
      <trkpt lat="44.24288" lon="1.71172">
        <ele>320.8</ele>
        <time>2023-01-26T13:26:52Z</time>
      </trkpt>
      <trkpt lat="44.24284" lon="1.7118">
        <ele>320.6</ele>
        <time>2023-01-26T13:26:54Z</time>
      </trkpt>
      <trkpt lat="44.24283" lon="1.71188">
        <ele>320.4</ele>
        <time>2023-01-26T13:26:55Z</time>
      </trkpt>
      <trkpt lat="44.24282" lon="1.71195">
        <ele>320.2</ele>
        <time>2023-01-26T13:26:56Z</time>
      </trkpt>
      <trkpt lat="44.24281" lon="1.71201">
        <ele>320</ele>
        <time>2023-01-26T13:26:57Z</time>
      </trkpt>
      <trkpt lat="44.2428" lon="1.71206">
        <ele>319.9</ele>
        <time>2023-01-26T13:26:58Z</time>
      </trkpt>
      <trkpt lat="44.24279" lon="1.71217">
        <ele>319.5</ele>
        <time>2023-01-26T13:27:00Z</time>
      </trkpt>
      <trkpt lat="44.24279" lon="1.71224">
        <ele>319.2</ele>
        <time>2023-01-26T13:27:01Z</time>
      </trkpt>
      <trkpt lat="44.24278" lon="1.7123">
        <ele>319</ele>
        <time>2023-01-26T13:27:02Z</time>
      </trkpt>
      <trkpt lat="44.24277" lon="1.71238">
        <ele>318.7</ele>
        <time>2023-01-26T13:27:03Z</time>
      </trkpt>
      <trkpt lat="44.24276" lon="1.71244">
        <ele>318.5</ele>
        <time>2023-01-26T13:27:04Z</time>
      </trkpt>
      <trkpt lat="44.24276" lon="1.71251">
        <ele>318.2</ele>
        <time>2023-01-26T13:27:05Z</time>
      </trkpt>
      <trkpt lat="44.24276" lon="1.71257">
        <ele>318</ele>
        <time>2023-01-26T13:27:06Z</time>
      </trkpt>
      <trkpt lat="44.24276" lon="1.71264">
        <ele>317.8</ele>
        <time>2023-01-26T13:27:07Z</time>
      </trkpt>
      <trkpt lat="44.24276" lon="1.71271">
        <ele>317.6</ele>
        <time>2023-01-26T13:27:08Z</time>
      </trkpt>
      <trkpt lat="44.24276" lon="1.71278">
        <ele>317.4</ele>
        <time>2023-01-26T13:27:09Z</time>
      </trkpt>
      <trkpt lat="44.24276" lon="1.71285">
        <ele>317.2</ele>
        <time>2023-01-26T13:27:10Z</time>
      </trkpt>
      <trkpt lat="44.24276" lon="1.71292">
        <ele>317</ele>
        <time>2023-01-26T13:27:11Z</time>
      </trkpt>
      <trkpt lat="44.24276" lon="1.713">
        <ele>316.8</ele>
        <time>2023-01-26T13:27:12Z</time>
      </trkpt>
      <trkpt lat="44.24275" lon="1.71307">
        <ele>316.6</ele>
        <time>2023-01-26T13:27:13Z</time>
      </trkpt>
      <trkpt lat="44.24275" lon="1.71315">
        <ele>316.5</ele>
        <time>2023-01-26T13:27:14Z</time>
      </trkpt>
      <trkpt lat="44.24273" lon="1.71322">
        <ele>316.4</ele>
        <time>2023-01-26T13:27:15Z</time>
      </trkpt>
      <trkpt lat="44.24272" lon="1.71328">
        <ele>316.4</ele>
        <time>2023-01-26T13:27:16Z</time>
      </trkpt>
      <trkpt lat="44.2427" lon="1.71335">
        <ele>316.4</ele>
        <time>2023-01-26T13:27:17Z</time>
      </trkpt>
      <trkpt lat="44.24268" lon="1.71342">
        <ele>316.4</ele>
        <time>2023-01-26T13:27:18Z</time>
      </trkpt>
      <trkpt lat="44.24266" lon="1.71348">
        <ele>316.4</ele>
        <time>2023-01-26T13:27:19Z</time>
      </trkpt>
      <trkpt lat="44.24265" lon="1.71353">
        <ele>316.4</ele>
        <time>2023-01-26T13:27:20Z</time>
      </trkpt>
      <trkpt lat="44.24263" lon="1.71359">
        <ele>316.4</ele>
        <time>2023-01-26T13:27:21Z</time>
      </trkpt>
      <trkpt lat="44.24261" lon="1.71364">
        <ele>316.4</ele>
        <time>2023-01-26T13:27:22Z</time>
      </trkpt>
      <trkpt lat="44.2426" lon="1.71368">
        <ele>316.5</ele>
        <time>2023-01-26T13:27:23Z</time>
      </trkpt>
      <trkpt lat="44.24258" lon="1.71373">
        <ele>316.5</ele>
        <time>2023-01-26T13:27:24Z</time>
      </trkpt>
      <trkpt lat="44.24257" lon="1.71377">
        <ele>316.5</ele>
        <time>2023-01-26T13:27:25Z</time>
      </trkpt>
      <trkpt lat="44.24254" lon="1.71384">
        <ele>316.6</ele>
        <time>2023-01-26T13:27:26Z</time>
      </trkpt>
      <trkpt lat="44.24252" lon="1.7139">
        <ele>316.6</ele>
        <time>2023-01-26T13:27:27Z</time>
      </trkpt>
      <trkpt lat="44.24249" lon="1.71395">
        <ele>316.7</ele>
        <time>2023-01-26T13:27:28Z</time>
      </trkpt>
      <trkpt lat="44.24246" lon="1.71404">
        <ele>316.9</ele>
        <time>2023-01-26T13:27:30Z</time>
      </trkpt>
      <trkpt lat="44.24243" lon="1.71411">
        <ele>317.1</ele>
        <time>2023-01-26T13:27:31Z</time>
      </trkpt>
      <trkpt lat="44.24242" lon="1.71415">
        <ele>317.2</ele>
        <time>2023-01-26T13:27:32Z</time>
      </trkpt>
      <trkpt lat="44.24239" lon="1.71422">
        <ele>317.3</ele>
        <time>2023-01-26T13:27:33Z</time>
      </trkpt>
      <trkpt lat="44.24234" lon="1.71433">
        <ele>317.5</ele>
        <time>2023-01-26T13:27:35Z</time>
      </trkpt>
      <trkpt lat="44.24232" lon="1.71439">
        <ele>317.6</ele>
        <time>2023-01-26T13:27:37Z</time>
      </trkpt>
      <trkpt lat="44.2423" lon="1.71445">
        <ele>317.7</ele>
        <time>2023-01-26T13:27:38Z</time>
      </trkpt>
      <trkpt lat="44.24227" lon="1.71449">
        <ele>317.8</ele>
        <time>2023-01-26T13:27:39Z</time>
      </trkpt>
      <trkpt lat="44.24223" lon="1.71454">
        <ele>317.9</ele>
        <time>2023-01-26T13:27:40Z</time>
      </trkpt>
      <trkpt lat="44.24221" lon="1.71458">
        <ele>318</ele>
        <time>2023-01-26T13:27:41Z</time>
      </trkpt>
      <trkpt lat="44.24219" lon="1.71462">
        <ele>318.1</ele>
        <time>2023-01-26T13:27:42Z</time>
      </trkpt>
      <trkpt lat="44.24217" lon="1.71468">
        <ele>318.4</ele>
        <time>2023-01-26T13:27:43Z</time>
      </trkpt>
      <trkpt lat="44.24215" lon="1.71472">
        <ele>318.6</ele>
        <time>2023-01-26T13:27:45Z</time>
      </trkpt>
      <trkpt lat="44.24215" lon="1.71477">
        <ele>318.9</ele>
        <time>2023-01-26T13:27:46Z</time>
      </trkpt>
      <trkpt lat="44.24215" lon="1.71482">
        <ele>319.2</ele>
        <time>2023-01-26T13:27:47Z</time>
      </trkpt>
      <trkpt lat="44.24217" lon="1.71487">
        <ele>319.5</ele>
        <time>2023-01-26T13:27:48Z</time>
      </trkpt>
      <trkpt lat="44.24221" lon="1.71491">
        <ele>320</ele>
        <time>2023-01-26T13:27:49Z</time>
      </trkpt>
      <trkpt lat="44.24222" lon="1.71492">
        <ele>320.2</ele>
        <time>2023-01-26T13:27:50Z</time>
      </trkpt>
      <trkpt lat="44.24225" lon="1.71497">
        <ele>320.7</ele>
        <time>2023-01-26T13:27:52Z</time>
      </trkpt>
      <trkpt lat="44.24228" lon="1.71501">
        <ele>321.2</ele>
        <time>2023-01-26T13:27:53Z</time>
      </trkpt>
      <trkpt lat="44.2423" lon="1.71506">
        <ele>321.8</ele>
        <time>2023-01-26T13:27:54Z</time>
      </trkpt>
      <trkpt lat="44.2423" lon="1.71508">
        <ele>322</ele>
        <time>2023-01-26T13:27:55Z</time>
      </trkpt>
      <trkpt lat="44.24233" lon="1.71514">
        <ele>322.8</ele>
        <time>2023-01-26T13:27:57Z</time>
      </trkpt>
      <trkpt lat="44.24235" lon="1.71517">
        <ele>323.2</ele>
        <time>2023-01-26T13:27:59Z</time>
      </trkpt>
      <trkpt lat="44.24237" lon="1.71521">
        <ele>323.8</ele>
        <time>2023-01-26T13:28:00Z</time>
      </trkpt>
      <trkpt lat="44.24237" lon="1.71522">
        <ele>323.9</ele>
        <time>2023-01-26T13:28:01Z</time>
      </trkpt>
      <trkpt lat="44.24239" lon="1.71528">
        <ele>324.7</ele>
        <time>2023-01-26T13:28:03Z</time>
      </trkpt>
      <trkpt lat="44.24241" lon="1.71532">
        <ele>325.2</ele>
        <time>2023-01-26T13:28:04Z</time>
      </trkpt>
      <trkpt lat="44.24242" lon="1.71538">
        <ele>325.9</ele>
        <time>2023-01-26T13:28:05Z</time>
      </trkpt>
      <trkpt lat="44.24242" lon="1.7154">
        <ele>326.2</ele>
        <time>2023-01-26T13:28:06Z</time>
      </trkpt>
      <trkpt lat="44.24242" lon="1.71545">
        <ele>326.7</ele>
        <time>2023-01-26T13:28:08Z</time>
      </trkpt>
      <trkpt lat="44.24243" lon="1.71552">
        <ele>327.7</ele>
        <time>2023-01-26T13:28:09Z</time>
      </trkpt>
      <trkpt lat="44.24243" lon="1.71557">
        <ele>328.3</ele>
        <time>2023-01-26T13:28:11Z</time>
      </trkpt>
      <trkpt lat="44.24244" lon="1.71562">
        <ele>328.8</ele>
        <time>2023-01-26T13:28:12Z</time>
      </trkpt>
      <trkpt lat="44.24243" lon="1.71566">
        <ele>329.4</ele>
        <time>2023-01-26T13:28:13Z</time>
      </trkpt>
      <trkpt lat="44.24244" lon="1.7157">
        <ele>329.8</ele>
        <time>2023-01-26T13:28:14Z</time>
      </trkpt>
      <trkpt lat="44.24244" lon="1.71574">
        <ele>330.3</ele>
        <time>2023-01-26T13:28:16Z</time>
      </trkpt>
      <trkpt lat="44.24245" lon="1.71579">
        <ele>330.9</ele>
        <time>2023-01-26T13:28:17Z</time>
      </trkpt>
      <trkpt lat="44.24245" lon="1.71581">
        <ele>331.1</ele>
        <time>2023-01-26T13:28:18Z</time>
      </trkpt>
      <trkpt lat="44.24245" lon="1.71586">
        <ele>331.5</ele>
        <time>2023-01-26T13:28:19Z</time>
      </trkpt>
      <trkpt lat="44.24246" lon="1.71592">
        <ele>332.1</ele>
        <time>2023-01-26T13:28:20Z</time>
      </trkpt>
      <trkpt lat="44.24246" lon="1.71594">
        <ele>332.3</ele>
        <time>2023-01-26T13:28:21Z</time>
      </trkpt>
      <trkpt lat="44.24247" lon="1.71597">
        <ele>332.6</ele>
        <time>2023-01-26T13:28:22Z</time>
      </trkpt>
      <trkpt lat="44.24248" lon="1.71601">
        <ele>333</ele>
        <time>2023-01-26T13:28:24Z</time>
      </trkpt>
      <trkpt lat="44.2425" lon="1.71608">
        <ele>333.5</ele>
        <time>2023-01-26T13:28:25Z</time>
      </trkpt>
      <trkpt lat="44.24252" lon="1.71613">
        <ele>333.9</ele>
        <time>2023-01-26T13:28:27Z</time>
      </trkpt>
      <trkpt lat="44.24253" lon="1.71617">
        <ele>334.1</ele>
        <time>2023-01-26T13:28:28Z</time>
      </trkpt>
      <trkpt lat="44.24254" lon="1.71623">
        <ele>334.5</ele>
        <time>2023-01-26T13:28:29Z</time>
      </trkpt>
      <trkpt lat="44.24255" lon="1.7163">
        <ele>334.9</ele>
        <time>2023-01-26T13:28:31Z</time>
      </trkpt>
      <trkpt lat="44.24256" lon="1.71632">
        <ele>335</ele>
        <time>2023-01-26T13:28:32Z</time>
      </trkpt>
      <trkpt lat="44.24256" lon="1.71634">
        <ele>335.1</ele>
        <time>2023-01-26T13:28:33Z</time>
      </trkpt>
      <trkpt lat="44.24258" lon="1.71641">
        <ele>335.5</ele>
        <time>2023-01-26T13:28:35Z</time>
      </trkpt>
      <trkpt lat="44.2426" lon="1.71644">
        <ele>335.6</ele>
        <time>2023-01-26T13:28:36Z</time>
      </trkpt>
      <trkpt lat="44.24261" lon="1.71649">
        <ele>335.8</ele>
        <time>2023-01-26T13:28:37Z</time>
      </trkpt>
      <trkpt lat="44.24262" lon="1.71653">
        <ele>336</ele>
        <time>2023-01-26T13:28:38Z</time>
      </trkpt>
      <trkpt lat="44.24264" lon="1.71659">
        <ele>336.3</ele>
        <time>2023-01-26T13:28:40Z</time>
      </trkpt>
      <trkpt lat="44.24264" lon="1.71663">
        <ele>336.4</ele>
        <time>2023-01-26T13:28:41Z</time>
      </trkpt>
      <trkpt lat="44.24265" lon="1.71668">
        <ele>336.6</ele>
        <time>2023-01-26T13:28:42Z</time>
      </trkpt>
      <trkpt lat="44.24267" lon="1.71675">
        <ele>336.8</ele>
        <time>2023-01-26T13:28:43Z</time>
      </trkpt>
      <trkpt lat="44.24268" lon="1.71678">
        <ele>336.9</ele>
        <time>2023-01-26T13:28:44Z</time>
      </trkpt>
      <trkpt lat="44.24269" lon="1.71683">
        <ele>337.1</ele>
        <time>2023-01-26T13:28:46Z</time>
      </trkpt>
      <trkpt lat="44.2427" lon="1.71688">
        <ele>337.2</ele>
        <time>2023-01-26T13:28:47Z</time>
      </trkpt>
      <trkpt lat="44.24271" lon="1.71692">
        <ele>337.3</ele>
        <time>2023-01-26T13:28:48Z</time>
      </trkpt>
      <trkpt lat="44.24272" lon="1.71698">
        <ele>337.5</ele>
        <time>2023-01-26T13:28:49Z</time>
      </trkpt>
      <trkpt lat="44.24273" lon="1.71702">
        <ele>337.6</ele>
        <time>2023-01-26T13:28:50Z</time>
      </trkpt>
      <trkpt lat="44.24274" lon="1.7171">
        <ele>337.8</ele>
        <time>2023-01-26T13:28:52Z</time>
      </trkpt>
      <trkpt lat="44.24275" lon="1.71715">
        <ele>337.9</ele>
        <time>2023-01-26T13:28:53Z</time>
      </trkpt>
      <trkpt lat="44.24275" lon="1.71721">
        <ele>338.1</ele>
        <time>2023-01-26T13:28:54Z</time>
      </trkpt>
      <trkpt lat="44.24275" lon="1.71729">
        <ele>338.3</ele>
        <time>2023-01-26T13:28:56Z</time>
      </trkpt>
      <trkpt lat="44.24275" lon="1.71735">
        <ele>338.4</ele>
        <time>2023-01-26T13:28:57Z</time>
      </trkpt>
      <trkpt lat="44.24276" lon="1.71741">
        <ele>338.5</ele>
        <time>2023-01-26T13:28:58Z</time>
      </trkpt>
      <trkpt lat="44.24275" lon="1.71746">
        <ele>338.6</ele>
        <time>2023-01-26T13:28:59Z</time>
      </trkpt>
      <trkpt lat="44.24275" lon="1.71755">
        <ele>338.7</ele>
        <time>2023-01-26T13:29:01Z</time>
      </trkpt>
      <trkpt lat="44.24274" lon="1.71762">
        <ele>338.9</ele>
        <time>2023-01-26T13:29:02Z</time>
      </trkpt>
      <trkpt lat="44.24273" lon="1.71767">
        <ele>339</ele>
        <time>2023-01-26T13:29:03Z</time>
      </trkpt>
      <trkpt lat="44.24272" lon="1.71778">
        <ele>339.2</ele>
        <time>2023-01-26T13:29:05Z</time>
      </trkpt>
      <trkpt lat="44.24272" lon="1.71783">
        <ele>339.2</ele>
        <time>2023-01-26T13:29:07Z</time>
      </trkpt>
      <trkpt lat="44.24272" lon="1.71788">
        <ele>339.2</ele>
        <time>2023-01-26T13:29:08Z</time>
      </trkpt>
      <trkpt lat="44.2427" lon="1.71799">
        <ele>339</ele>
        <time>2023-01-26T13:29:10Z</time>
      </trkpt>
      <trkpt lat="44.2427" lon="1.71804">
        <ele>338.9</ele>
        <time>2023-01-26T13:29:11Z</time>
      </trkpt>
      <trkpt lat="44.24269" lon="1.7181">
        <ele>338.8</ele>
        <time>2023-01-26T13:29:12Z</time>
      </trkpt>
      <trkpt lat="44.24268" lon="1.71819">
        <ele>338.7</ele>
        <time>2023-01-26T13:29:13Z</time>
      </trkpt>
      <trkpt lat="44.24267" lon="1.71826">
        <ele>338.5</ele>
        <time>2023-01-26T13:29:15Z</time>
      </trkpt>
      <trkpt lat="44.24268" lon="1.71832">
        <ele>338.3</ele>
        <time>2023-01-26T13:29:16Z</time>
      </trkpt>
      <trkpt lat="44.24267" lon="1.71839">
        <ele>338</ele>
        <time>2023-01-26T13:29:17Z</time>
      </trkpt>
      <trkpt lat="44.24266" lon="1.71845">
        <ele>337.8</ele>
        <time>2023-01-26T13:29:18Z</time>
      </trkpt>
      <trkpt lat="44.24266" lon="1.71851">
        <ele>337.5</ele>
        <time>2023-01-26T13:29:19Z</time>
      </trkpt>
      <trkpt lat="44.24266" lon="1.71857">
        <ele>337.3</ele>
        <time>2023-01-26T13:29:20Z</time>
      </trkpt>
      <trkpt lat="44.24265" lon="1.71864">
        <ele>337.1</ele>
        <time>2023-01-26T13:29:21Z</time>
      </trkpt>
      <trkpt lat="44.24265" lon="1.7187">
        <ele>336.9</ele>
        <time>2023-01-26T13:29:22Z</time>
      </trkpt>
      <trkpt lat="44.24264" lon="1.71876">
        <ele>336.8</ele>
        <time>2023-01-26T13:29:23Z</time>
      </trkpt>
      <trkpt lat="44.24263" lon="1.71883">
        <ele>336.7</ele>
        <time>2023-01-26T13:29:24Z</time>
      </trkpt>
      <trkpt lat="44.24263" lon="1.71887">
        <ele>336.6</ele>
        <time>2023-01-26T13:29:25Z</time>
      </trkpt>
      <trkpt lat="44.24262" lon="1.719">
        <ele>336.4</ele>
        <time>2023-01-26T13:29:27Z</time>
      </trkpt>
      <trkpt lat="44.24261" lon="1.71905">
        <ele>336.4</ele>
        <time>2023-01-26T13:29:28Z</time>
      </trkpt>
      <trkpt lat="44.24261" lon="1.71915">
        <ele>336.3</ele>
        <time>2023-01-26T13:29:30Z</time>
      </trkpt>
      <trkpt lat="44.24261" lon="1.71921">
        <ele>336.4</ele>
        <time>2023-01-26T13:29:31Z</time>
      </trkpt>
      <trkpt lat="44.24261" lon="1.71927">
        <ele>336.5</ele>
        <time>2023-01-26T13:29:32Z</time>
      </trkpt>
      <trkpt lat="44.24261" lon="1.71936">
        <ele>336.7</ele>
        <time>2023-01-26T13:29:34Z</time>
      </trkpt>
      <trkpt lat="44.24261" lon="1.71942">
        <ele>336.8</ele>
        <time>2023-01-26T13:29:35Z</time>
      </trkpt>
      <trkpt lat="44.2426" lon="1.71947">
        <ele>337</ele>
        <time>2023-01-26T13:29:36Z</time>
      </trkpt>
      <trkpt lat="44.24261" lon="1.71953">
        <ele>337.1</ele>
        <time>2023-01-26T13:29:37Z</time>
      </trkpt>
      <trkpt lat="44.24263" lon="1.71963">
        <ele>337.4</ele>
        <time>2023-01-26T13:29:39Z</time>
      </trkpt>
      <trkpt lat="44.24265" lon="1.71968">
        <ele>337.6</ele>
        <time>2023-01-26T13:29:40Z</time>
      </trkpt>
      <trkpt lat="44.24267" lon="1.71977">
        <ele>338</ele>
        <time>2023-01-26T13:29:42Z</time>
      </trkpt>
      <trkpt lat="44.24268" lon="1.71982">
        <ele>338.3</ele>
        <time>2023-01-26T13:29:43Z</time>
      </trkpt>
      <trkpt lat="44.2427" lon="1.71987">
        <ele>338.6</ele>
        <time>2023-01-26T13:29:44Z</time>
      </trkpt>
      <trkpt lat="44.24273" lon="1.71991">
        <ele>339.1</ele>
        <time>2023-01-26T13:29:45Z</time>
      </trkpt>
      <trkpt lat="44.24276" lon="1.71994">
        <ele>339.5</ele>
        <time>2023-01-26T13:29:46Z</time>
      </trkpt>
      <trkpt lat="44.24281" lon="1.71997">
        <ele>340</ele>
        <time>2023-01-26T13:29:48Z</time>
      </trkpt>
      <trkpt lat="44.24284" lon="1.71998">
        <ele>340.3</ele>
        <time>2023-01-26T13:29:49Z</time>
      </trkpt>
      <trkpt lat="44.24289" lon="1.72">
        <ele>340.8</ele>
        <time>2023-01-26T13:29:50Z</time>
      </trkpt>
      <trkpt lat="44.24295" lon="1.72004">
        <ele>341.5</ele>
        <time>2023-01-26T13:29:52Z</time>
      </trkpt>
      <trkpt lat="44.243" lon="1.72005">
        <ele>341.9</ele>
        <time>2023-01-26T13:29:53Z</time>
      </trkpt>
      <trkpt lat="44.24303" lon="1.72006">
        <ele>342.3</ele>
        <time>2023-01-26T13:29:54Z</time>
      </trkpt>
      <trkpt lat="44.2431" lon="1.72008">
        <ele>343</ele>
        <time>2023-01-26T13:29:56Z</time>
      </trkpt>
      <trkpt lat="44.24315" lon="1.72008">
        <ele>343.4</ele>
        <time>2023-01-26T13:29:57Z</time>
      </trkpt>
      <trkpt lat="44.24318" lon="1.72009">
        <ele>343.7</ele>
        <time>2023-01-26T13:29:58Z</time>
      </trkpt>
      <trkpt lat="44.24324" lon="1.72009">
        <ele>344.1</ele>
        <time>2023-01-26T13:29:59Z</time>
      </trkpt>
      <trkpt lat="44.24329" lon="1.72008">
        <ele>344.5</ele>
        <time>2023-01-26T13:30:01Z</time>
      </trkpt>
      <trkpt lat="44.24333" lon="1.72005">
        <ele>344.7</ele>
        <time>2023-01-26T13:30:02Z</time>
      </trkpt>
      <trkpt lat="44.24336" lon="1.72003">
        <ele>345</ele>
        <time>2023-01-26T13:30:03Z</time>
      </trkpt>
      <trkpt lat="44.2434" lon="1.72">
        <ele>345.2</ele>
        <time>2023-01-26T13:30:04Z</time>
      </trkpt>
      <trkpt lat="44.24346" lon="1.71993">
        <ele>345.7</ele>
        <time>2023-01-26T13:30:06Z</time>
      </trkpt>
      <trkpt lat="44.24349" lon="1.7199">
        <ele>345.9</ele>
        <time>2023-01-26T13:30:07Z</time>
      </trkpt>
      <trkpt lat="44.24353" lon="1.71986">
        <ele>346.1</ele>
        <time>2023-01-26T13:30:08Z</time>
      </trkpt>
      <trkpt lat="44.24358" lon="1.71981">
        <ele>346.4</ele>
        <time>2023-01-26T13:30:10Z</time>
      </trkpt>
      <trkpt lat="44.24361" lon="1.71978">
        <ele>346.5</ele>
        <time>2023-01-26T13:30:11Z</time>
      </trkpt>
      <trkpt lat="44.24365" lon="1.71976">
        <ele>346.7</ele>
        <time>2023-01-26T13:30:12Z</time>
      </trkpt>
      <trkpt lat="44.24368" lon="1.71972">
        <ele>346.7</ele>
        <time>2023-01-26T13:30:13Z</time>
      </trkpt>
      <trkpt lat="44.24375" lon="1.71967">
        <ele>346.7</ele>
        <time>2023-01-26T13:30:15Z</time>
      </trkpt>
      <trkpt lat="44.24378" lon="1.71965">
        <ele>346.7</ele>
        <time>2023-01-26T13:30:16Z</time>
      </trkpt>
      <trkpt lat="44.24381" lon="1.71963">
        <ele>346.7</ele>
        <time>2023-01-26T13:30:17Z</time>
      </trkpt>
      <trkpt lat="44.24386" lon="1.7196">
        <ele>346.7</ele>
        <time>2023-01-26T13:30:19Z</time>
      </trkpt>
      <trkpt lat="44.24389" lon="1.71959">
        <ele>346.6</ele>
        <time>2023-01-26T13:30:20Z</time>
      </trkpt>
      <trkpt lat="44.24393" lon="1.71957">
        <ele>346.6</ele>
        <time>2023-01-26T13:30:21Z</time>
      </trkpt>
      <trkpt lat="44.24397" lon="1.71956">
        <ele>346.6</ele>
        <time>2023-01-26T13:30:22Z</time>
      </trkpt>
      <trkpt lat="44.24399" lon="1.71952">
        <ele>346.6</ele>
        <time>2023-01-26T13:31:28Z</time>
      </trkpt>
      <trkpt lat="44.24402" lon="1.71945">
        <ele>346.6</ele>
        <time>2023-01-26T13:31:30Z</time>
      </trkpt>
      <trkpt lat="44.24406" lon="1.71943">
        <ele>346.6</ele>
        <time>2023-01-26T13:31:31Z</time>
      </trkpt>
      <trkpt lat="44.24411" lon="1.71941">
        <ele>346.6</ele>
        <time>2023-01-26T13:31:32Z</time>
      </trkpt>
      <trkpt lat="44.24415" lon="1.71938">
        <ele>346.6</ele>
        <time>2023-01-26T13:31:33Z</time>
      </trkpt>
      <trkpt lat="44.2442" lon="1.71933">
        <ele>346.5</ele>
        <time>2023-01-26T13:31:35Z</time>
      </trkpt>
      <trkpt lat="44.24423" lon="1.71929">
        <ele>346.5</ele>
        <time>2023-01-26T13:31:36Z</time>
      </trkpt>
      <trkpt lat="44.24427" lon="1.71925">
        <ele>346.5</ele>
        <time>2023-01-26T13:31:37Z</time>
      </trkpt>
      <trkpt lat="44.24432" lon="1.7192">
        <ele>346.5</ele>
        <time>2023-01-26T13:31:39Z</time>
      </trkpt>
      <trkpt lat="44.24435" lon="1.71917">
        <ele>346.5</ele>
        <time>2023-01-26T13:31:40Z</time>
      </trkpt>
      <trkpt lat="44.24441" lon="1.71913">
        <ele>346.5</ele>
        <time>2023-01-26T13:31:41Z</time>
      </trkpt>
      <trkpt lat="44.24446" lon="1.7191">
        <ele>346.5</ele>
        <time>2023-01-26T13:31:42Z</time>
      </trkpt>
      <trkpt lat="44.2445" lon="1.71906">
        <ele>346.5</ele>
        <time>2023-01-26T13:31:43Z</time>
      </trkpt>
      <trkpt lat="44.24454" lon="1.71902">
        <ele>346.4</ele>
        <time>2023-01-26T13:31:45Z</time>
      </trkpt>
      <trkpt lat="44.24456" lon="1.71898">
        <ele>346.3</ele>
        <time>2023-01-26T13:31:46Z</time>
      </trkpt>
      <trkpt lat="44.2446" lon="1.71894">
        <ele>346.3</ele>
        <time>2023-01-26T13:31:47Z</time>
      </trkpt>
      <trkpt lat="44.24463" lon="1.71891">
        <ele>346.2</ele>
        <time>2023-01-26T13:31:48Z</time>
      </trkpt>
      <trkpt lat="44.24468" lon="1.71886">
        <ele>346.1</ele>
        <time>2023-01-26T13:31:49Z</time>
      </trkpt>
      <trkpt lat="44.24471" lon="1.71882">
        <ele>346</ele>
        <time>2023-01-26T13:31:50Z</time>
      </trkpt>
      <trkpt lat="44.24475" lon="1.71878">
        <ele>345.9</ele>
        <time>2023-01-26T13:31:51Z</time>
      </trkpt>
      <trkpt lat="44.24479" lon="1.71873">
        <ele>345.8</ele>
        <time>2023-01-26T13:31:52Z</time>
      </trkpt>
      <trkpt lat="44.24485" lon="1.71865">
        <ele>345.7</ele>
        <time>2023-01-26T13:31:54Z</time>
      </trkpt>
      <trkpt lat="44.24489" lon="1.71861">
        <ele>345.6</ele>
        <time>2023-01-26T13:31:55Z</time>
      </trkpt>
      <trkpt lat="44.24493" lon="1.71857">
        <ele>345.5</ele>
        <time>2023-01-26T13:31:56Z</time>
      </trkpt>
      <trkpt lat="44.24496" lon="1.71853">
        <ele>345.5</ele>
        <time>2023-01-26T13:31:57Z</time>
      </trkpt>
      <trkpt lat="44.245" lon="1.7185">
        <ele>345.4</ele>
        <time>2023-01-26T13:31:58Z</time>
      </trkpt>
      <trkpt lat="44.24507" lon="1.71841">
        <ele>345.4</ele>
        <time>2023-01-26T13:32:00Z</time>
      </trkpt>
      <trkpt lat="44.24511" lon="1.71837">
        <ele>345.4</ele>
        <time>2023-01-26T13:32:01Z</time>
      </trkpt>
      <trkpt lat="44.24515" lon="1.71833">
        <ele>345.4</ele>
        <time>2023-01-26T13:32:02Z</time>
      </trkpt>
      <trkpt lat="44.24519" lon="1.7183">
        <ele>345.5</ele>
        <time>2023-01-26T13:32:03Z</time>
      </trkpt>
      <trkpt lat="44.24523" lon="1.71828">
        <ele>345.5</ele>
        <time>2023-01-26T13:32:04Z</time>
      </trkpt>
      <trkpt lat="44.24532" lon="1.71825">
        <ele>345.7</ele>
        <time>2023-01-26T13:32:06Z</time>
      </trkpt>
      <trkpt lat="44.24539" lon="1.71831">
        <ele>346</ele>
        <time>2023-01-26T13:32:07Z</time>
      </trkpt>
      <trkpt lat="44.24545" lon="1.71837">
        <ele>346.3</ele>
        <time>2023-01-26T13:32:09Z</time>
      </trkpt>
      <trkpt lat="44.24549" lon="1.71841">
        <ele>346.6</ele>
        <time>2023-01-26T13:32:10Z</time>
      </trkpt>
      <trkpt lat="44.24555" lon="1.71849">
        <ele>347.2</ele>
        <time>2023-01-26T13:32:12Z</time>
      </trkpt>
      <trkpt lat="44.24558" lon="1.71856">
        <ele>347.5</ele>
        <time>2023-01-26T13:32:13Z</time>
      </trkpt>
      <trkpt lat="44.24562" lon="1.71861">
        <ele>347.8</ele>
        <time>2023-01-26T13:32:14Z</time>
      </trkpt>
      <trkpt lat="44.24566" lon="1.71864">
        <ele>348.1</ele>
        <time>2023-01-26T13:32:15Z</time>
      </trkpt>
      <trkpt lat="44.2457" lon="1.71867">
        <ele>348.3</ele>
        <time>2023-01-26T13:32:16Z</time>
      </trkpt>
      <trkpt lat="44.24577" lon="1.71872">
        <ele>348.7</ele>
        <time>2023-01-26T13:32:18Z</time>
      </trkpt>
      <trkpt lat="44.24581" lon="1.71875">
        <ele>348.9</ele>
        <time>2023-01-26T13:32:19Z</time>
      </trkpt>
      <trkpt lat="44.24586" lon="1.71881">
        <ele>349.2</ele>
        <time>2023-01-26T13:32:21Z</time>
      </trkpt>
      <trkpt lat="44.24589" lon="1.71883">
        <ele>349.2</ele>
        <time>2023-01-26T13:32:22Z</time>
      </trkpt>
      <trkpt lat="44.24597" lon="1.71882">
        <ele>348.8</ele>
        <time>2023-01-26T13:32:47Z</time>
      </trkpt>
      <trkpt lat="44.24614" lon="1.71884">
        <ele>348.4</ele>
        <time>2023-01-26T13:32:52Z</time>
      </trkpt>
      <trkpt lat="44.24618" lon="1.71883">
        <ele>348.2</ele>
        <time>2023-01-26T13:32:53Z</time>
      </trkpt>
      <trkpt lat="44.24623" lon="1.71883">
        <ele>348.1</ele>
        <time>2023-01-26T13:32:54Z</time>
      </trkpt>
      <trkpt lat="44.24631" lon="1.71884">
        <ele>347.8</ele>
        <time>2023-01-26T13:32:56Z</time>
      </trkpt>
      <trkpt lat="44.24639" lon="1.71884">
        <ele>347.5</ele>
        <time>2023-01-26T13:32:57Z</time>
      </trkpt>
      <trkpt lat="44.24642" lon="1.71885">
        <ele>347.4</ele>
        <time>2023-01-26T13:32:58Z</time>
      </trkpt>
      <trkpt lat="44.24647" lon="1.71885">
        <ele>347.2</ele>
        <time>2023-01-26T13:32:59Z</time>
      </trkpt>
      <trkpt lat="44.24652" lon="1.71885">
        <ele>347.1</ele>
        <time>2023-01-26T13:33:00Z</time>
      </trkpt>
      <trkpt lat="44.24657" lon="1.71886">
        <ele>347</ele>
        <time>2023-01-26T13:33:01Z</time>
      </trkpt>
      <trkpt lat="44.24662" lon="1.71886">
        <ele>346.9</ele>
        <time>2023-01-26T13:33:02Z</time>
      </trkpt>
      <trkpt lat="44.24667" lon="1.71886">
        <ele>346.7</ele>
        <time>2023-01-26T13:33:03Z</time>
      </trkpt>
      <trkpt lat="44.24672" lon="1.71886">
        <ele>346.6</ele>
        <time>2023-01-26T13:33:04Z</time>
      </trkpt>
      <trkpt lat="44.24678" lon="1.71886">
        <ele>346.5</ele>
        <time>2023-01-26T13:33:05Z</time>
      </trkpt>
      <trkpt lat="44.24683" lon="1.71886">
        <ele>346.4</ele>
        <time>2023-01-26T13:33:06Z</time>
      </trkpt>
      <trkpt lat="44.24688" lon="1.71887">
        <ele>346.3</ele>
        <time>2023-01-26T13:33:07Z</time>
      </trkpt>
      <trkpt lat="44.24694" lon="1.71888">
        <ele>346.3</ele>
        <time>2023-01-26T13:33:08Z</time>
      </trkpt>
      <trkpt lat="44.24699" lon="1.71888">
        <ele>346.2</ele>
        <time>2023-01-26T13:33:09Z</time>
      </trkpt>
      <trkpt lat="44.24704" lon="1.71888">
        <ele>346.1</ele>
        <time>2023-01-26T13:33:10Z</time>
      </trkpt>
      <trkpt lat="44.2471" lon="1.71889">
        <ele>346.1</ele>
        <time>2023-01-26T13:33:11Z</time>
      </trkpt>
      <trkpt lat="44.24715" lon="1.71889">
        <ele>346.2</ele>
        <time>2023-01-26T13:33:12Z</time>
      </trkpt>
      <trkpt lat="44.24721" lon="1.71889">
        <ele>346.2</ele>
        <time>2023-01-26T13:33:13Z</time>
      </trkpt>
      <trkpt lat="44.24726" lon="1.71889">
        <ele>346.3</ele>
        <time>2023-01-26T13:33:14Z</time>
      </trkpt>
      <trkpt lat="44.24731" lon="1.7189">
        <ele>346.4</ele>
        <time>2023-01-26T13:33:15Z</time>
      </trkpt>
      <trkpt lat="44.24737" lon="1.7189">
        <ele>346.5</ele>
        <time>2023-01-26T13:33:16Z</time>
      </trkpt>
      <trkpt lat="44.24742" lon="1.7189">
        <ele>346.6</ele>
        <time>2023-01-26T13:33:17Z</time>
      </trkpt>
      <trkpt lat="44.24747" lon="1.71891">
        <ele>346.7</ele>
        <time>2023-01-26T13:33:18Z</time>
      </trkpt>
      <trkpt lat="44.24752" lon="1.71891">
        <ele>346.9</ele>
        <time>2023-01-26T13:33:19Z</time>
      </trkpt>
      <trkpt lat="44.24757" lon="1.71891">
        <ele>347</ele>
        <time>2023-01-26T13:33:20Z</time>
      </trkpt>
      <trkpt lat="44.24762" lon="1.71891">
        <ele>347.1</ele>
        <time>2023-01-26T13:33:21Z</time>
      </trkpt>
      <trkpt lat="44.24766" lon="1.71891">
        <ele>347.3</ele>
        <time>2023-01-26T13:33:22Z</time>
      </trkpt>
      <trkpt lat="44.24771" lon="1.71891">
        <ele>347.4</ele>
        <time>2023-01-26T13:33:23Z</time>
      </trkpt>
      <trkpt lat="44.24776" lon="1.71892">
        <ele>347.6</ele>
        <time>2023-01-26T13:33:24Z</time>
      </trkpt>
      <trkpt lat="44.24781" lon="1.71892">
        <ele>347.7</ele>
        <time>2023-01-26T13:33:25Z</time>
      </trkpt>
      <trkpt lat="44.24786" lon="1.71892">
        <ele>347.9</ele>
        <time>2023-01-26T13:33:26Z</time>
      </trkpt>
      <trkpt lat="44.2479" lon="1.71892">
        <ele>348</ele>
        <time>2023-01-26T13:33:27Z</time>
      </trkpt>
      <trkpt lat="44.24795" lon="1.71893">
        <ele>348.2</ele>
        <time>2023-01-26T13:33:28Z</time>
      </trkpt>
      <trkpt lat="44.248" lon="1.71893">
        <ele>348.3</ele>
        <time>2023-01-26T13:33:29Z</time>
      </trkpt>
      <trkpt lat="44.24805" lon="1.71894">
        <ele>348.4</ele>
        <time>2023-01-26T13:33:30Z</time>
      </trkpt>
      <trkpt lat="44.24809" lon="1.71894">
        <ele>348.6</ele>
        <time>2023-01-26T13:33:31Z</time>
      </trkpt>
      <trkpt lat="44.24814" lon="1.71894">
        <ele>348.7</ele>
        <time>2023-01-26T13:33:32Z</time>
      </trkpt>
      <trkpt lat="44.24819" lon="1.71895">
        <ele>348.8</ele>
        <time>2023-01-26T13:33:33Z</time>
      </trkpt>
      <trkpt lat="44.24824" lon="1.71896">
        <ele>348.9</ele>
        <time>2023-01-26T13:33:34Z</time>
      </trkpt>
      <trkpt lat="44.24828" lon="1.71895">
        <ele>349.1</ele>
        <time>2023-01-26T13:33:35Z</time>
      </trkpt>
      <trkpt lat="44.24833" lon="1.71895">
        <ele>349.2</ele>
        <time>2023-01-26T13:33:36Z</time>
      </trkpt>
      <trkpt lat="44.24837" lon="1.71895">
        <ele>349.3</ele>
        <time>2023-01-26T13:33:37Z</time>
      </trkpt>
      <trkpt lat="44.24842" lon="1.71895">
        <ele>349.4</ele>
        <time>2023-01-26T13:33:38Z</time>
      </trkpt>
      <trkpt lat="44.24846" lon="1.71896">
        <ele>349.5</ele>
        <time>2023-01-26T13:33:39Z</time>
      </trkpt>
      <trkpt lat="44.24851" lon="1.71897">
        <ele>349.7</ele>
        <time>2023-01-26T13:33:40Z</time>
      </trkpt>
      <trkpt lat="44.24854" lon="1.71897">
        <ele>349.7</ele>
        <time>2023-01-26T13:33:41Z</time>
      </trkpt>
      <trkpt lat="44.24858" lon="1.71897">
        <ele>349.8</ele>
        <time>2023-01-26T13:33:42Z</time>
      </trkpt>
      <trkpt lat="44.24863" lon="1.71898">
        <ele>349.9</ele>
        <time>2023-01-26T13:33:43Z</time>
      </trkpt>
      <trkpt lat="44.24866" lon="1.71899">
        <ele>350</ele>
        <time>2023-01-26T13:33:44Z</time>
      </trkpt>
      <trkpt lat="44.2487" lon="1.71899">
        <ele>350</ele>
        <time>2023-01-26T13:33:45Z</time>
      </trkpt>
      <trkpt lat="44.24875" lon="1.719">
        <ele>350.1</ele>
        <time>2023-01-26T13:33:46Z</time>
      </trkpt>
      <trkpt lat="44.24878" lon="1.719">
        <ele>350.1</ele>
        <time>2023-01-26T13:33:47Z</time>
      </trkpt>
      <trkpt lat="44.24884" lon="1.71902">
        <ele>350.1</ele>
        <time>2023-01-26T13:33:48Z</time>
      </trkpt>
      <trkpt lat="44.24889" lon="1.71904">
        <ele>350</ele>
        <time>2023-01-26T13:33:50Z</time>
      </trkpt>
      <trkpt lat="44.24893" lon="1.71905">
        <ele>350</ele>
        <time>2023-01-26T13:33:51Z</time>
      </trkpt>
      <trkpt lat="44.24904" lon="1.71909">
        <ele>349.8</ele>
        <time>2023-01-26T13:33:53Z</time>
      </trkpt>
      <trkpt lat="44.24907" lon="1.71911">
        <ele>349.8</ele>
        <time>2023-01-26T13:33:54Z</time>
      </trkpt>
      <trkpt lat="44.24911" lon="1.71913">
        <ele>349.7</ele>
        <time>2023-01-26T13:33:55Z</time>
      </trkpt>
      <trkpt lat="44.24919" lon="1.71918">
        <ele>349.6</ele>
        <time>2023-01-26T13:33:57Z</time>
      </trkpt>
      <trkpt lat="44.24923" lon="1.7192">
        <ele>349.5</ele>
        <time>2023-01-26T13:33:58Z</time>
      </trkpt>
      <trkpt lat="44.24927" lon="1.71922">
        <ele>349.5</ele>
        <time>2023-01-26T13:33:59Z</time>
      </trkpt>
      <trkpt lat="44.24929" lon="1.71925">
        <ele>349.5</ele>
        <time>2023-01-26T13:34:00Z</time>
      </trkpt>
      <trkpt lat="44.24933" lon="1.7193">
        <ele>349.5</ele>
        <time>2023-01-26T13:34:01Z</time>
      </trkpt>
      <trkpt lat="44.24933" lon="1.71935">
        <ele>349.6</ele>
        <time>2023-01-26T13:34:02Z</time>
      </trkpt>
      <trkpt lat="44.24932" lon="1.71945">
        <ele>349.6</ele>
        <time>2023-01-26T13:34:04Z</time>
      </trkpt>
      <trkpt lat="44.24932" lon="1.71953">
        <ele>349.6</ele>
        <time>2023-01-26T13:34:06Z</time>
      </trkpt>
      <trkpt lat="44.24931" lon="1.71961">
        <ele>349.6</ele>
        <time>2023-01-26T13:34:07Z</time>
      </trkpt>
      <trkpt lat="44.2493" lon="1.71969">
        <ele>349.6</ele>
        <time>2023-01-26T13:34:08Z</time>
      </trkpt>
      <trkpt lat="44.24929" lon="1.71976">
        <ele>349.7</ele>
        <time>2023-01-26T13:34:09Z</time>
      </trkpt>
      <trkpt lat="44.24929" lon="1.71983">
        <ele>349.8</ele>
        <time>2023-01-26T13:34:10Z</time>
      </trkpt>
      <trkpt lat="44.24928" lon="1.7199">
        <ele>349.8</ele>
        <time>2023-01-26T13:34:11Z</time>
      </trkpt>
      <trkpt lat="44.24928" lon="1.71997">
        <ele>349.8</ele>
        <time>2023-01-26T13:34:12Z</time>
      </trkpt>
      <trkpt lat="44.24927" lon="1.72004">
        <ele>349.7</ele>
        <time>2023-01-26T13:34:13Z</time>
      </trkpt>
      <trkpt lat="44.24927" lon="1.72011">
        <ele>349.6</ele>
        <time>2023-01-26T13:34:14Z</time>
      </trkpt>
      <trkpt lat="44.24927" lon="1.72019">
        <ele>349.4</ele>
        <time>2023-01-26T13:34:15Z</time>
      </trkpt>
      <trkpt lat="44.24926" lon="1.72026">
        <ele>349.2</ele>
        <time>2023-01-26T13:34:16Z</time>
      </trkpt>
      <trkpt lat="44.24926" lon="1.72033">
        <ele>348.9</ele>
        <time>2023-01-26T13:34:17Z</time>
      </trkpt>
      <trkpt lat="44.24925" lon="1.72041">
        <ele>348.6</ele>
        <time>2023-01-26T13:34:18Z</time>
      </trkpt>
      <trkpt lat="44.24923" lon="1.72049">
        <ele>348.2</ele>
        <time>2023-01-26T13:34:19Z</time>
      </trkpt>
      <trkpt lat="44.24922" lon="1.72058">
        <ele>347.9</ele>
        <time>2023-01-26T13:34:20Z</time>
      </trkpt>
      <trkpt lat="44.24922" lon="1.72066">
        <ele>347.4</ele>
        <time>2023-01-26T13:34:21Z</time>
      </trkpt>
      <trkpt lat="44.2492" lon="1.72074">
        <ele>346.9</ele>
        <time>2023-01-26T13:34:22Z</time>
      </trkpt>
      <trkpt lat="44.24918" lon="1.72084">
        <ele>346.4</ele>
        <time>2023-01-26T13:34:23Z</time>
      </trkpt>
      <trkpt lat="44.24916" lon="1.72093">
        <ele>345.9</ele>
        <time>2023-01-26T13:34:24Z</time>
      </trkpt>
      <trkpt lat="44.24913" lon="1.72104">
        <ele>345.3</ele>
        <time>2023-01-26T13:34:25Z</time>
      </trkpt>
      <trkpt lat="44.24911" lon="1.72114">
        <ele>344.8</ele>
        <time>2023-01-26T13:34:26Z</time>
      </trkpt>
      <trkpt lat="44.24909" lon="1.72124">
        <ele>344.2</ele>
        <time>2023-01-26T13:34:27Z</time>
      </trkpt>
      <trkpt lat="44.24906" lon="1.72135">
        <ele>343.8</ele>
        <time>2023-01-26T13:34:28Z</time>
      </trkpt>
      <trkpt lat="44.24904" lon="1.72145">
        <ele>343.4</ele>
        <time>2023-01-26T13:34:29Z</time>
      </trkpt>
      <trkpt lat="44.24902" lon="1.72156">
        <ele>343.1</ele>
        <time>2023-01-26T13:34:30Z</time>
      </trkpt>
      <trkpt lat="44.24899" lon="1.72166">
        <ele>342.8</ele>
        <time>2023-01-26T13:34:31Z</time>
      </trkpt>
      <trkpt lat="44.24896" lon="1.72176">
        <ele>342.6</ele>
        <time>2023-01-26T13:34:32Z</time>
      </trkpt>
      <trkpt lat="44.24894" lon="1.72185">
        <ele>342.4</ele>
        <time>2023-01-26T13:34:33Z</time>
      </trkpt>
      <trkpt lat="44.24891" lon="1.72194">
        <ele>342.1</ele>
        <time>2023-01-26T13:34:34Z</time>
      </trkpt>
      <trkpt lat="44.24889" lon="1.72203">
        <ele>341.8</ele>
        <time>2023-01-26T13:34:35Z</time>
      </trkpt>
      <trkpt lat="44.24887" lon="1.72208">
        <ele>341.6</ele>
        <time>2023-01-26T13:34:36Z</time>
      </trkpt>
      <trkpt lat="44.24886" lon="1.72212">
        <ele>341.5</ele>
        <time>2023-01-26T13:34:37Z</time>
      </trkpt>
      <trkpt lat="44.24885" lon="1.72214">
        <ele>341.5</ele>
        <time>2023-01-26T13:34:38Z</time>
      </trkpt>
      <trkpt lat="44.24885" lon="1.72215">
        <ele>341.4</ele>
        <time>2023-01-26T13:34:39Z</time>
      </trkpt>
      <trkpt lat="44.24884" lon="1.72216">
        <ele>341.4</ele>
        <time>2023-01-26T13:34:40Z</time>
      </trkpt>
      <trkpt lat="44.24884" lon="1.72217">
        <ele>341.4</ele>
        <time>2023-01-26T13:34:41Z</time>
      </trkpt>
      <trkpt lat="44.24884" lon="1.72217">
        <ele>341.4</ele>
        <time>2023-01-26T13:34:42Z</time>
      </trkpt>
      <trkpt lat="44.24884" lon="1.72217">
        <ele>341.4</ele>
        <time>2023-01-26T13:34:43Z</time>
      </trkpt>
      <trkpt lat="44.24884" lon="1.72218">
        <ele>341.3</ele>
        <time>2023-01-26T13:34:45Z</time>
      </trkpt>
      <trkpt lat="44.24883" lon="1.72223">
        <ele>341.2</ele>
        <time>2023-01-26T13:34:46Z</time>
      </trkpt>
      <trkpt lat="44.24883" lon="1.72225">
        <ele>341.2</ele>
        <time>2023-01-26T13:34:47Z</time>
      </trkpt>
      <trkpt lat="44.24881" lon="1.72233">
        <ele>341</ele>
        <time>2023-01-26T13:34:49Z</time>
      </trkpt>
      <trkpt lat="44.24878" lon="1.72241">
        <ele>340.8</ele>
        <time>2023-01-26T13:34:50Z</time>
      </trkpt>
      <trkpt lat="44.24875" lon="1.72251">
        <ele>340.5</ele>
        <time>2023-01-26T13:34:52Z</time>
      </trkpt>
      <trkpt lat="44.24873" lon="1.72258">
        <ele>340.3</ele>
        <time>2023-01-26T13:34:53Z</time>
      </trkpt>
      <trkpt lat="44.24871" lon="1.72268">
        <ele>339.9</ele>
        <time>2023-01-26T13:34:54Z</time>
      </trkpt>
      <trkpt lat="44.2487" lon="1.72275">
        <ele>339.7</ele>
        <time>2023-01-26T13:34:55Z</time>
      </trkpt>
      <trkpt lat="44.24869" lon="1.72283">
        <ele>339.5</ele>
        <time>2023-01-26T13:34:56Z</time>
      </trkpt>
      <trkpt lat="44.24869" lon="1.7229">
        <ele>339.2</ele>
        <time>2023-01-26T13:34:57Z</time>
      </trkpt>
      <trkpt lat="44.24868" lon="1.72299">
        <ele>339</ele>
        <time>2023-01-26T13:34:58Z</time>
      </trkpt>
      <trkpt lat="44.24867" lon="1.72307">
        <ele>338.7</ele>
        <time>2023-01-26T13:34:59Z</time>
      </trkpt>
      <trkpt lat="44.24865" lon="1.72316">
        <ele>338.4</ele>
        <time>2023-01-26T13:35:00Z</time>
      </trkpt>
      <trkpt lat="44.24865" lon="1.72324">
        <ele>338.2</ele>
        <time>2023-01-26T13:35:01Z</time>
      </trkpt>
      <trkpt lat="44.24865" lon="1.72333">
        <ele>338.1</ele>
        <time>2023-01-26T13:35:02Z</time>
      </trkpt>
      <trkpt lat="44.24865" lon="1.72342">
        <ele>338</ele>
        <time>2023-01-26T13:35:03Z</time>
      </trkpt>
      <trkpt lat="44.24865" lon="1.7235">
        <ele>337.8</ele>
        <time>2023-01-26T13:35:04Z</time>
      </trkpt>
      <trkpt lat="44.24865" lon="1.72358">
        <ele>337.7</ele>
        <time>2023-01-26T13:35:05Z</time>
      </trkpt>
      <trkpt lat="44.24865" lon="1.72367">
        <ele>337.5</ele>
        <time>2023-01-26T13:35:06Z</time>
      </trkpt>
      <trkpt lat="44.24866" lon="1.72375">
        <ele>337.2</ele>
        <time>2023-01-26T13:35:07Z</time>
      </trkpt>
      <trkpt lat="44.24866" lon="1.72383">
        <ele>336.9</ele>
        <time>2023-01-26T13:35:08Z</time>
      </trkpt>
      <trkpt lat="44.24866" lon="1.72391">
        <ele>336.5</ele>
        <time>2023-01-26T13:35:09Z</time>
      </trkpt>
      <trkpt lat="44.24866" lon="1.72399">
        <ele>336.1</ele>
        <time>2023-01-26T13:35:10Z</time>
      </trkpt>
      <trkpt lat="44.24866" lon="1.72407">
        <ele>335.7</ele>
        <time>2023-01-26T13:35:11Z</time>
      </trkpt>
      <trkpt lat="44.24866" lon="1.72416">
        <ele>335.4</ele>
        <time>2023-01-26T13:35:12Z</time>
      </trkpt>
      <trkpt lat="44.24868" lon="1.72425">
        <ele>335.1</ele>
        <time>2023-01-26T13:35:13Z</time>
      </trkpt>
      <trkpt lat="44.24869" lon="1.72433">
        <ele>334.9</ele>
        <time>2023-01-26T13:35:14Z</time>
      </trkpt>
      <trkpt lat="44.2487" lon="1.72442">
        <ele>334.6</ele>
        <time>2023-01-26T13:35:15Z</time>
      </trkpt>
      <trkpt lat="44.2487" lon="1.72451">
        <ele>334.2</ele>
        <time>2023-01-26T13:35:16Z</time>
      </trkpt>
      <trkpt lat="44.24872" lon="1.7246">
        <ele>333.8</ele>
        <time>2023-01-26T13:35:17Z</time>
      </trkpt>
      <trkpt lat="44.24873" lon="1.72468">
        <ele>333.5</ele>
        <time>2023-01-26T13:35:18Z</time>
      </trkpt>
      <trkpt lat="44.24875" lon="1.72476">
        <ele>333</ele>
        <time>2023-01-26T13:35:19Z</time>
      </trkpt>
      <trkpt lat="44.24876" lon="1.72484">
        <ele>332.6</ele>
        <time>2023-01-26T13:35:20Z</time>
      </trkpt>
      <trkpt lat="44.24878" lon="1.72493">
        <ele>332.2</ele>
        <time>2023-01-26T13:35:21Z</time>
      </trkpt>
      <trkpt lat="44.2488" lon="1.72502">
        <ele>331.8</ele>
        <time>2023-01-26T13:35:22Z</time>
      </trkpt>
      <trkpt lat="44.24882" lon="1.7251">
        <ele>331.4</ele>
        <time>2023-01-26T13:35:23Z</time>
      </trkpt>
      <trkpt lat="44.24884" lon="1.72518">
        <ele>331.1</ele>
        <time>2023-01-26T13:35:24Z</time>
      </trkpt>
      <trkpt lat="44.24884" lon="1.72526">
        <ele>330.9</ele>
        <time>2023-01-26T13:35:25Z</time>
      </trkpt>
      <trkpt lat="44.24885" lon="1.72532">
        <ele>330.7</ele>
        <time>2023-01-26T13:35:26Z</time>
      </trkpt>
      <trkpt lat="44.24887" lon="1.72537">
        <ele>330.7</ele>
        <time>2023-01-26T13:35:27Z</time>
      </trkpt>
      <trkpt lat="44.24888" lon="1.72542">
        <ele>330.5</ele>
        <time>2023-01-26T13:35:28Z</time>
      </trkpt>
      <trkpt lat="44.24889" lon="1.72549">
        <ele>330.3</ele>
        <time>2023-01-26T13:35:29Z</time>
      </trkpt>
      <trkpt lat="44.24888" lon="1.72555">
        <ele>330</ele>
        <time>2023-01-26T13:35:30Z</time>
      </trkpt>
      <trkpt lat="44.24888" lon="1.72562">
        <ele>329.7</ele>
        <time>2023-01-26T13:35:31Z</time>
      </trkpt>
      <trkpt lat="44.24886" lon="1.72569">
        <ele>329.5</ele>
        <time>2023-01-26T13:35:32Z</time>
      </trkpt>
      <trkpt lat="44.24886" lon="1.72576">
        <ele>329.2</ele>
        <time>2023-01-26T13:35:33Z</time>
      </trkpt>
      <trkpt lat="44.24885" lon="1.72584">
        <ele>328.9</ele>
        <time>2023-01-26T13:35:34Z</time>
      </trkpt>
      <trkpt lat="44.24885" lon="1.72591">
        <ele>328.7</ele>
        <time>2023-01-26T13:35:35Z</time>
      </trkpt>
      <trkpt lat="44.24884" lon="1.72599">
        <ele>328.4</ele>
        <time>2023-01-26T13:35:36Z</time>
      </trkpt>
      <trkpt lat="44.24883" lon="1.72607">
        <ele>328.1</ele>
        <time>2023-01-26T13:35:37Z</time>
      </trkpt>
      <trkpt lat="44.24882" lon="1.72617">
        <ele>327.9</ele>
        <time>2023-01-26T13:35:38Z</time>
      </trkpt>
      <trkpt lat="44.24882" lon="1.72624">
        <ele>327.7</ele>
        <time>2023-01-26T13:35:39Z</time>
      </trkpt>
      <trkpt lat="44.24881" lon="1.72631">
        <ele>327.6</ele>
        <time>2023-01-26T13:35:40Z</time>
      </trkpt>
      <trkpt lat="44.2488" lon="1.72639">
        <ele>327.4</ele>
        <time>2023-01-26T13:35:41Z</time>
      </trkpt>
      <trkpt lat="44.24879" lon="1.72651">
        <ele>327.1</ele>
        <time>2023-01-26T13:35:42Z</time>
      </trkpt>
      <trkpt lat="44.24878" lon="1.72659">
        <ele>326.9</ele>
        <time>2023-01-26T13:35:43Z</time>
      </trkpt>
      <trkpt lat="44.24877" lon="1.72667">
        <ele>326.8</ele>
        <time>2023-01-26T13:35:44Z</time>
      </trkpt>
      <trkpt lat="44.24876" lon="1.72675">
        <ele>326.6</ele>
        <time>2023-01-26T13:35:45Z</time>
      </trkpt>
      <trkpt lat="44.24876" lon="1.72683">
        <ele>326.4</ele>
        <time>2023-01-26T13:35:46Z</time>
      </trkpt>
      <trkpt lat="44.24875" lon="1.72692">
        <ele>326.2</ele>
        <time>2023-01-26T13:35:47Z</time>
      </trkpt>
      <trkpt lat="44.24873" lon="1.72704">
        <ele>326</ele>
        <time>2023-01-26T13:35:48Z</time>
      </trkpt>
      <trkpt lat="44.24871" lon="1.72713">
        <ele>325.8</ele>
        <time>2023-01-26T13:35:49Z</time>
      </trkpt>
      <trkpt lat="44.2487" lon="1.7272">
        <ele>325.7</ele>
        <time>2023-01-26T13:35:50Z</time>
      </trkpt>
      <trkpt lat="44.24869" lon="1.72729">
        <ele>325.5</ele>
        <time>2023-01-26T13:35:51Z</time>
      </trkpt>
      <trkpt lat="44.24868" lon="1.72738">
        <ele>325.3</ele>
        <time>2023-01-26T13:35:52Z</time>
      </trkpt>
      <trkpt lat="44.24868" lon="1.72747">
        <ele>325.2</ele>
        <time>2023-01-26T13:35:53Z</time>
      </trkpt>
      <trkpt lat="44.24866" lon="1.72756">
        <ele>325</ele>
        <time>2023-01-26T13:35:54Z</time>
      </trkpt>
      <trkpt lat="44.24865" lon="1.72766">
        <ele>324.9</ele>
        <time>2023-01-26T13:35:55Z</time>
      </trkpt>
      <trkpt lat="44.24865" lon="1.72774">
        <ele>324.7</ele>
        <time>2023-01-26T13:35:56Z</time>
      </trkpt>
      <trkpt lat="44.24864" lon="1.72784">
        <ele>324.6</ele>
        <time>2023-01-26T13:35:57Z</time>
      </trkpt>
      <trkpt lat="44.24864" lon="1.72793">
        <ele>324.4</ele>
        <time>2023-01-26T13:35:58Z</time>
      </trkpt>
      <trkpt lat="44.24863" lon="1.72801">
        <ele>324.3</ele>
        <time>2023-01-26T13:35:59Z</time>
      </trkpt>
      <trkpt lat="44.24861" lon="1.72809">
        <ele>324.2</ele>
        <time>2023-01-26T13:36:00Z</time>
      </trkpt>
      <trkpt lat="44.2486" lon="1.72817">
        <ele>324.1</ele>
        <time>2023-01-26T13:36:01Z</time>
      </trkpt>
      <trkpt lat="44.2486" lon="1.72825">
        <ele>324</ele>
        <time>2023-01-26T13:36:02Z</time>
      </trkpt>
      <trkpt lat="44.24859" lon="1.72833">
        <ele>323.9</ele>
        <time>2023-01-26T13:36:03Z</time>
      </trkpt>
      <trkpt lat="44.24859" lon="1.72842">
        <ele>323.8</ele>
        <time>2023-01-26T13:36:04Z</time>
      </trkpt>
      <trkpt lat="44.24858" lon="1.7285">
        <ele>323.7</ele>
        <time>2023-01-26T13:36:05Z</time>
      </trkpt>
      <trkpt lat="44.24858" lon="1.72858">
        <ele>323.6</ele>
        <time>2023-01-26T13:36:06Z</time>
      </trkpt>
      <trkpt lat="44.24857" lon="1.72866">
        <ele>323.5</ele>
        <time>2023-01-26T13:36:07Z</time>
      </trkpt>
      <trkpt lat="44.24857" lon="1.72874">
        <ele>323.4</ele>
        <time>2023-01-26T13:36:08Z</time>
      </trkpt>
      <trkpt lat="44.24855" lon="1.72882">
        <ele>323.4</ele>
        <time>2023-01-26T13:36:09Z</time>
      </trkpt>
      <trkpt lat="44.24854" lon="1.7289">
        <ele>323.3</ele>
        <time>2023-01-26T13:36:10Z</time>
      </trkpt>
      <trkpt lat="44.24853" lon="1.72898">
        <ele>323.2</ele>
        <time>2023-01-26T13:36:11Z</time>
      </trkpt>
      <trkpt lat="44.2486" lon="1.7294">
        <ele>322.3</ele>
        <time>2023-01-26T13:36:24Z</time>
      </trkpt>
      <trkpt lat="44.24834" lon="1.72984">
        <ele>320</ele>
        <time>2023-01-26T13:37:11Z</time>
      </trkpt>
      <trkpt lat="44.24831" lon="1.72991">
        <ele>319.8</ele>
        <time>2023-01-26T13:37:12Z</time>
      </trkpt>
      <trkpt lat="44.24828" lon="1.73001">
        <ele>319.6</ele>
        <time>2023-01-26T13:37:13Z</time>
      </trkpt>
      <trkpt lat="44.24826" lon="1.73007">
        <ele>319.4</ele>
        <time>2023-01-26T13:37:14Z</time>
      </trkpt>
      <trkpt lat="44.24823" lon="1.73014">
        <ele>319.2</ele>
        <time>2023-01-26T13:37:15Z</time>
      </trkpt>
      <trkpt lat="44.24819" lon="1.73022">
        <ele>319</ele>
        <time>2023-01-26T13:37:16Z</time>
      </trkpt>
      <trkpt lat="44.24816" lon="1.73029">
        <ele>318.8</ele>
        <time>2023-01-26T13:37:17Z</time>
      </trkpt>
      <trkpt lat="44.24813" lon="1.73037">
        <ele>318.6</ele>
        <time>2023-01-26T13:37:18Z</time>
      </trkpt>
      <trkpt lat="44.2481" lon="1.73046">
        <ele>318.4</ele>
        <time>2023-01-26T13:37:19Z</time>
      </trkpt>
      <trkpt lat="44.24807" lon="1.73053">
        <ele>318.2</ele>
        <time>2023-01-26T13:37:20Z</time>
      </trkpt>
      <trkpt lat="44.24804" lon="1.73061">
        <ele>318.1</ele>
        <time>2023-01-26T13:37:21Z</time>
      </trkpt>
      <trkpt lat="44.24801" lon="1.73069">
        <ele>318</ele>
        <time>2023-01-26T13:37:22Z</time>
      </trkpt>
      <trkpt lat="44.24798" lon="1.73077">
        <ele>317.8</ele>
        <time>2023-01-26T13:37:23Z</time>
      </trkpt>
      <trkpt lat="44.24794" lon="1.73085">
        <ele>317.7</ele>
        <time>2023-01-26T13:37:24Z</time>
      </trkpt>
      <trkpt lat="44.24791" lon="1.73093">
        <ele>317.6</ele>
        <time>2023-01-26T13:37:25Z</time>
      </trkpt>
      <trkpt lat="44.24788" lon="1.73101">
        <ele>317.5</ele>
        <time>2023-01-26T13:37:26Z</time>
      </trkpt>
      <trkpt lat="44.24785" lon="1.73109">
        <ele>317.5</ele>
        <time>2023-01-26T13:37:27Z</time>
      </trkpt>
      <trkpt lat="44.24782" lon="1.73117">
        <ele>317.4</ele>
        <time>2023-01-26T13:37:28Z</time>
      </trkpt>
      <trkpt lat="44.24779" lon="1.73125">
        <ele>317.4</ele>
        <time>2023-01-26T13:37:29Z</time>
      </trkpt>
      <trkpt lat="44.24776" lon="1.73133">
        <ele>317.4</ele>
        <time>2023-01-26T13:37:30Z</time>
      </trkpt>
      <trkpt lat="44.24773" lon="1.7314">
        <ele>317.4</ele>
        <time>2023-01-26T13:37:31Z</time>
      </trkpt>
      <trkpt lat="44.2477" lon="1.73148">
        <ele>317.4</ele>
        <time>2023-01-26T13:37:32Z</time>
      </trkpt>
      <trkpt lat="44.24768" lon="1.73155">
        <ele>317.4</ele>
        <time>2023-01-26T13:37:33Z</time>
      </trkpt>
      <trkpt lat="44.24765" lon="1.73163">
        <ele>317.4</ele>
        <time>2023-01-26T13:37:34Z</time>
      </trkpt>
      <trkpt lat="44.24762" lon="1.7317">
        <ele>317.5</ele>
        <time>2023-01-26T13:37:35Z</time>
      </trkpt>
      <trkpt lat="44.2476" lon="1.73177">
        <ele>317.6</ele>
        <time>2023-01-26T13:37:36Z</time>
      </trkpt>
      <trkpt lat="44.24757" lon="1.73184">
        <ele>317.7</ele>
        <time>2023-01-26T13:37:37Z</time>
      </trkpt>
      <trkpt lat="44.24755" lon="1.7319">
        <ele>317.8</ele>
        <time>2023-01-26T13:37:38Z</time>
      </trkpt>
      <trkpt lat="44.24753" lon="1.73197">
        <ele>317.8</ele>
        <time>2023-01-26T13:37:39Z</time>
      </trkpt>
      <trkpt lat="44.24751" lon="1.73203">
        <ele>317.9</ele>
        <time>2023-01-26T13:37:40Z</time>
      </trkpt>
      <trkpt lat="44.24749" lon="1.73209">
        <ele>318</ele>
        <time>2023-01-26T13:37:41Z</time>
      </trkpt>
      <trkpt lat="44.24746" lon="1.73215">
        <ele>318.1</ele>
        <time>2023-01-26T13:37:42Z</time>
      </trkpt>
      <trkpt lat="44.24744" lon="1.73221">
        <ele>318.2</ele>
        <time>2023-01-26T13:37:43Z</time>
      </trkpt>
      <trkpt lat="44.24742" lon="1.73227">
        <ele>318.2</ele>
        <time>2023-01-26T13:37:44Z</time>
      </trkpt>
      <trkpt lat="44.2474" lon="1.73232">
        <ele>318.3</ele>
        <time>2023-01-26T13:37:45Z</time>
      </trkpt>
      <trkpt lat="44.24738" lon="1.73238">
        <ele>318.4</ele>
        <time>2023-01-26T13:37:46Z</time>
      </trkpt>
      <trkpt lat="44.24737" lon="1.73242">
        <ele>318.4</ele>
        <time>2023-01-26T13:37:47Z</time>
      </trkpt>
      <trkpt lat="44.24734" lon="1.73248">
        <ele>318.5</ele>
        <time>2023-01-26T13:37:48Z</time>
      </trkpt>
      <trkpt lat="44.24732" lon="1.73255">
        <ele>318.6</ele>
        <time>2023-01-26T13:37:49Z</time>
      </trkpt>
      <trkpt lat="44.2473" lon="1.73259">
        <ele>318.7</ele>
        <time>2023-01-26T13:37:50Z</time>
      </trkpt>
      <trkpt lat="44.24728" lon="1.73264">
        <ele>318.7</ele>
        <time>2023-01-26T13:37:51Z</time>
      </trkpt>
      <trkpt lat="44.24727" lon="1.73268">
        <ele>318.8</ele>
        <time>2023-01-26T13:37:52Z</time>
      </trkpt>
      <trkpt lat="44.24726" lon="1.73272">
        <ele>318.8</ele>
        <time>2023-01-26T13:37:53Z</time>
      </trkpt>
      <trkpt lat="44.24724" lon="1.73277">
        <ele>318.9</ele>
        <time>2023-01-26T13:37:54Z</time>
      </trkpt>
      <trkpt lat="44.24723" lon="1.7328">
        <ele>318.9</ele>
        <time>2023-01-26T13:37:55Z</time>
      </trkpt>
      <trkpt lat="44.24722" lon="1.73284">
        <ele>319</ele>
        <time>2023-01-26T13:37:56Z</time>
      </trkpt>
      <trkpt lat="44.2472" lon="1.73289">
        <ele>319.1</ele>
        <time>2023-01-26T13:37:57Z</time>
      </trkpt>
      <trkpt lat="44.24719" lon="1.73292">
        <ele>319.1</ele>
        <time>2023-01-26T13:37:58Z</time>
      </trkpt>
      <trkpt lat="44.24717" lon="1.73296">
        <ele>319.2</ele>
        <time>2023-01-26T13:37:59Z</time>
      </trkpt>
      <trkpt lat="44.24715" lon="1.733">
        <ele>319.2</ele>
        <time>2023-01-26T13:38:00Z</time>
      </trkpt>
      <trkpt lat="44.24712" lon="1.73308">
        <ele>319.3</ele>
        <time>2023-01-26T13:38:02Z</time>
      </trkpt>
      <trkpt lat="44.2471" lon="1.73312">
        <ele>319.4</ele>
        <time>2023-01-26T13:38:03Z</time>
      </trkpt>
      <trkpt lat="44.24708" lon="1.73316">
        <ele>319.4</ele>
        <time>2023-01-26T13:38:05Z</time>
      </trkpt>
      <trkpt lat="44.24706" lon="1.73319">
        <ele>319.5</ele>
        <time>2023-01-26T13:38:06Z</time>
      </trkpt>
      <trkpt lat="44.24706" lon="1.7332">
        <ele>319.5</ele>
        <time>2023-01-26T13:38:08Z</time>
      </trkpt>
      <trkpt lat="44.24706" lon="1.73321">
        <ele>319.5</ele>
        <time>2023-01-26T13:38:09Z</time>
      </trkpt>
      <trkpt lat="44.24706" lon="1.73321">
        <ele>319.5</ele>
        <time>2023-01-26T13:38:11Z</time>
      </trkpt>
      <trkpt lat="44.24705" lon="1.73322">
        <ele>319.5</ele>
        <time>2023-01-26T13:38:12Z</time>
      </trkpt>
      <trkpt lat="44.24705" lon="1.73323">
        <ele>319.5</ele>
        <time>2023-01-26T13:38:14Z</time>
      </trkpt>
      <trkpt lat="44.24705" lon="1.73323">
        <ele>319.5</ele>
        <time>2023-01-26T13:38:15Z</time>
      </trkpt>
      <trkpt lat="44.24705" lon="1.73324">
        <ele>319.5</ele>
        <time>2023-01-26T13:38:17Z</time>
      </trkpt>
      <trkpt lat="44.24704" lon="1.73325">
        <ele>319.5</ele>
        <time>2023-01-26T13:38:24Z</time>
      </trkpt>
      <trkpt lat="44.24704" lon="1.73326">
        <ele>319.5</ele>
        <time>2023-01-26T13:38:25Z</time>
      </trkpt>
      <trkpt lat="44.24703" lon="1.73329">
        <ele>319.6</ele>
        <time>2023-01-26T13:38:26Z</time>
      </trkpt>
      <trkpt lat="44.247" lon="1.73338">
        <ele>319.6</ele>
        <time>2023-01-26T13:38:28Z</time>
      </trkpt>
      <trkpt lat="44.24698" lon="1.73344">
        <ele>319.7</ele>
        <time>2023-01-26T13:38:29Z</time>
      </trkpt>
      <trkpt lat="44.24694" lon="1.73355">
        <ele>319.8</ele>
        <time>2023-01-26T13:38:31Z</time>
      </trkpt>
      <trkpt lat="44.24692" lon="1.73362">
        <ele>319.9</ele>
        <time>2023-01-26T13:38:32Z</time>
      </trkpt>
      <trkpt lat="44.24688" lon="1.73373">
        <ele>320</ele>
        <time>2023-01-26T13:38:34Z</time>
      </trkpt>
      <trkpt lat="44.24686" lon="1.73378">
        <ele>320.1</ele>
        <time>2023-01-26T13:38:35Z</time>
      </trkpt>
      <trkpt lat="44.24683" lon="1.73385">
        <ele>320.1</ele>
        <time>2023-01-26T13:38:36Z</time>
      </trkpt>
      <trkpt lat="44.24681" lon="1.73391">
        <ele>320.2</ele>
        <time>2023-01-26T13:38:37Z</time>
      </trkpt>
      <trkpt lat="44.24679" lon="1.73397">
        <ele>320.3</ele>
        <time>2023-01-26T13:38:38Z</time>
      </trkpt>
      <trkpt lat="44.24677" lon="1.73403">
        <ele>320.3</ele>
        <time>2023-01-26T13:38:39Z</time>
      </trkpt>
      <trkpt lat="44.24675" lon="1.73409">
        <ele>320.4</ele>
        <time>2023-01-26T13:38:40Z</time>
      </trkpt>
      <trkpt lat="44.24673" lon="1.73415">
        <ele>320.4</ele>
        <time>2023-01-26T13:38:41Z</time>
      </trkpt>
      <trkpt lat="44.24671" lon="1.73421">
        <ele>320.5</ele>
        <time>2023-01-26T13:38:42Z</time>
      </trkpt>
      <trkpt lat="44.24669" lon="1.73428">
        <ele>320.6</ele>
        <time>2023-01-26T13:38:43Z</time>
      </trkpt>
      <trkpt lat="44.24667" lon="1.73433">
        <ele>320.7</ele>
        <time>2023-01-26T13:38:44Z</time>
      </trkpt>
      <trkpt lat="44.24664" lon="1.73439">
        <ele>320.8</ele>
        <time>2023-01-26T13:38:45Z</time>
      </trkpt>
      <trkpt lat="44.24661" lon="1.73444">
        <ele>320.9</ele>
        <time>2023-01-26T13:38:46Z</time>
      </trkpt>
      <trkpt lat="44.24659" lon="1.73449">
        <ele>321</ele>
        <time>2023-01-26T13:38:47Z</time>
      </trkpt>
      <trkpt lat="44.24657" lon="1.73453">
        <ele>321.1</ele>
        <time>2023-01-26T13:38:48Z</time>
      </trkpt>
      <trkpt lat="44.24654" lon="1.73462">
        <ele>321.3</ele>
        <time>2023-01-26T13:38:50Z</time>
      </trkpt>
      <trkpt lat="44.24653" lon="1.73465">
        <ele>321.3</ele>
        <time>2023-01-26T13:38:51Z</time>
      </trkpt>
      <trkpt lat="44.2465" lon="1.73473">
        <ele>321.5</ele>
        <time>2023-01-26T13:38:53Z</time>
      </trkpt>
      <trkpt lat="44.24649" lon="1.73478">
        <ele>321.6</ele>
        <time>2023-01-26T13:38:54Z</time>
      </trkpt>
      <trkpt lat="44.24647" lon="1.73485">
        <ele>321.8</ele>
        <time>2023-01-26T13:38:56Z</time>
      </trkpt>
      <trkpt lat="44.24645" lon="1.73488">
        <ele>321.9</ele>
        <time>2023-01-26T13:38:57Z</time>
      </trkpt>
      <trkpt lat="44.24642" lon="1.73496">
        <ele>322</ele>
        <time>2023-01-26T13:38:58Z</time>
      </trkpt>
      <trkpt lat="44.24641" lon="1.73502">
        <ele>322.1</ele>
        <time>2023-01-26T13:39:00Z</time>
      </trkpt>
      <trkpt lat="44.2464" lon="1.73507">
        <ele>322.2</ele>
        <time>2023-01-26T13:39:01Z</time>
      </trkpt>
      <trkpt lat="44.24639" lon="1.73514">
        <ele>322.5</ele>
        <time>2023-01-26T13:39:02Z</time>
      </trkpt>
      <trkpt lat="44.24641" lon="1.73519">
        <ele>322.7</ele>
        <time>2023-01-26T13:39:03Z</time>
      </trkpt>
      <trkpt lat="44.24642" lon="1.73525">
        <ele>322.9</ele>
        <time>2023-01-26T13:39:04Z</time>
      </trkpt>
      <trkpt lat="44.24645" lon="1.7353">
        <ele>323.1</ele>
        <time>2023-01-26T13:39:06Z</time>
      </trkpt>
      <trkpt lat="44.24647" lon="1.73535">
        <ele>323.2</ele>
        <time>2023-01-26T13:39:07Z</time>
      </trkpt>
      <trkpt lat="44.2465" lon="1.73542">
        <ele>323.3</ele>
        <time>2023-01-26T13:39:08Z</time>
      </trkpt>
      <trkpt lat="44.24652" lon="1.73546">
        <ele>323.3</ele>
        <time>2023-01-26T13:39:10Z</time>
      </trkpt>
      <trkpt lat="44.24655" lon="1.73551">
        <ele>323.4</ele>
        <time>2023-01-26T13:39:11Z</time>
      </trkpt>
      <trkpt lat="44.24656" lon="1.73555">
        <ele>323.5</ele>
        <time>2023-01-26T13:39:12Z</time>
      </trkpt>
      <trkpt lat="44.24659" lon="1.73563">
        <ele>323.6</ele>
        <time>2023-01-26T13:39:14Z</time>
      </trkpt>
      <trkpt lat="44.24661" lon="1.73567">
        <ele>323.7</ele>
        <time>2023-01-26T13:39:15Z</time>
      </trkpt>
      <trkpt lat="44.24663" lon="1.73572">
        <ele>323.9</ele>
        <time>2023-01-26T13:39:16Z</time>
      </trkpt>
      <trkpt lat="44.24664" lon="1.73575">
        <ele>324</ele>
        <time>2023-01-26T13:39:17Z</time>
      </trkpt>
      <trkpt lat="44.24666" lon="1.7358">
        <ele>324.2</ele>
        <time>2023-01-26T13:39:19Z</time>
      </trkpt>
      <trkpt lat="44.24669" lon="1.73585">
        <ele>324.4</ele>
        <time>2023-01-26T13:39:20Z</time>
      </trkpt>
      <trkpt lat="44.2467" lon="1.73586">
        <ele>324.5</ele>
        <time>2023-01-26T13:39:21Z</time>
      </trkpt>
      <trkpt lat="44.24672" lon="1.73587">
        <ele>324.7</ele>
        <time>2023-01-26T13:39:22Z</time>
      </trkpt>
      <trkpt lat="44.24677" lon="1.73588">
        <ele>325</ele>
        <time>2023-01-26T13:39:24Z</time>
      </trkpt>
      <trkpt lat="44.24681" lon="1.73591">
        <ele>325.4</ele>
        <time>2023-01-26T13:39:25Z</time>
      </trkpt>
      <trkpt lat="44.24684" lon="1.73593">
        <ele>325.7</ele>
        <time>2023-01-26T13:39:27Z</time>
      </trkpt>
      <trkpt lat="44.24687" lon="1.73594">
        <ele>326</ele>
        <time>2023-01-26T13:39:28Z</time>
      </trkpt>
      <trkpt lat="44.24691" lon="1.73596">
        <ele>326.4</ele>
        <time>2023-01-26T13:39:29Z</time>
      </trkpt>
      <trkpt lat="44.24694" lon="1.73597">
        <ele>326.7</ele>
        <time>2023-01-26T13:39:30Z</time>
      </trkpt>
      <trkpt lat="44.24698" lon="1.73598">
        <ele>327.2</ele>
        <time>2023-01-26T13:39:32Z</time>
      </trkpt>
      <trkpt lat="44.24701" lon="1.736">
        <ele>327.6</ele>
        <time>2023-01-26T13:39:33Z</time>
      </trkpt>
      <trkpt lat="44.24702" lon="1.73601">
        <ele>327.8</ele>
        <time>2023-01-26T13:39:34Z</time>
      </trkpt>
      <trkpt lat="44.24705" lon="1.73602">
        <ele>328.3</ele>
        <time>2023-01-26T13:39:35Z</time>
      </trkpt>
      <trkpt lat="44.24707" lon="1.73603">
        <ele>328.5</ele>
        <time>2023-01-26T13:39:36Z</time>
      </trkpt>
      <trkpt lat="44.24709" lon="1.73604">
        <ele>329.1</ele>
        <time>2023-01-26T13:39:38Z</time>
      </trkpt>
      <trkpt lat="44.2471" lon="1.73605">
        <ele>329.2</ele>
        <time>2023-01-26T13:39:39Z</time>
      </trkpt>
      <trkpt lat="44.2471" lon="1.73608">
        <ele>329.2</ele>
        <time>2023-01-26T13:39:41Z</time>
      </trkpt>
      <trkpt lat="44.2471" lon="1.7361">
        <ele>329.3</ele>
        <time>2023-01-26T13:39:42Z</time>
      </trkpt>
      <trkpt lat="44.24708" lon="1.73613">
        <ele>329.4</ele>
        <time>2023-01-26T13:39:43Z</time>
      </trkpt>
      <trkpt lat="44.24706" lon="1.73618">
        <ele>329.6</ele>
        <time>2023-01-26T13:39:45Z</time>
      </trkpt>
      <trkpt lat="44.24705" lon="1.73623">
        <ele>329.8</ele>
        <time>2023-01-26T13:39:46Z</time>
      </trkpt>
      <trkpt lat="44.24703" lon="1.73629">
        <ele>330.2</ele>
        <time>2023-01-26T13:39:48Z</time>
      </trkpt>
      <trkpt lat="44.24702" lon="1.73635">
        <ele>330.6</ele>
        <time>2023-01-26T13:39:49Z</time>
      </trkpt>
      <trkpt lat="44.247" lon="1.73641">
        <ele>331.1</ele>
        <time>2023-01-26T13:39:50Z</time>
      </trkpt>
      <trkpt lat="44.247" lon="1.73643">
        <ele>331.3</ele>
        <time>2023-01-26T13:39:51Z</time>
      </trkpt>
      <trkpt lat="44.24699" lon="1.73648">
        <ele>331.7</ele>
        <time>2023-01-26T13:39:52Z</time>
      </trkpt>
      <trkpt lat="44.24697" lon="1.73659">
        <ele>332.6</ele>
        <time>2023-01-26T13:39:54Z</time>
      </trkpt>
      <trkpt lat="44.24696" lon="1.73663">
        <ele>332.9</ele>
        <time>2023-01-26T13:39:56Z</time>
      </trkpt>
      <trkpt lat="44.24696" lon="1.73665">
        <ele>333</ele>
        <time>2023-01-26T13:39:57Z</time>
      </trkpt>
      <trkpt lat="44.24694" lon="1.7367">
        <ele>333.3</ele>
        <time>2023-01-26T13:39:58Z</time>
      </trkpt>
      <trkpt lat="44.24692" lon="1.73673">
        <ele>333.5</ele>
        <time>2023-01-26T13:39:59Z</time>
      </trkpt>
      <trkpt lat="44.2469" lon="1.7368">
        <ele>333.8</ele>
        <time>2023-01-26T13:40:01Z</time>
      </trkpt>
      <trkpt lat="44.24687" lon="1.73686">
        <ele>334</ele>
        <time>2023-01-26T13:40:02Z</time>
      </trkpt>
      <trkpt lat="44.24687" lon="1.73691">
        <ele>334.1</ele>
        <time>2023-01-26T13:40:04Z</time>
      </trkpt>
      <trkpt lat="44.24686" lon="1.73696">
        <ele>334.1</ele>
        <time>2023-01-26T13:40:05Z</time>
      </trkpt>
      <trkpt lat="44.24684" lon="1.73703">
        <ele>334.2</ele>
        <time>2023-01-26T13:40:06Z</time>
      </trkpt>
      <trkpt lat="44.24683" lon="1.73709">
        <ele>334.2</ele>
        <time>2023-01-26T13:40:08Z</time>
      </trkpt>
      <trkpt lat="44.24681" lon="1.73714">
        <ele>334.2</ele>
        <time>2023-01-26T13:40:09Z</time>
      </trkpt>
      <trkpt lat="44.2468" lon="1.73719">
        <ele>334.1</ele>
        <time>2023-01-26T13:40:10Z</time>
      </trkpt>
      <trkpt lat="44.24679" lon="1.73726">
        <ele>334</ele>
        <time>2023-01-26T13:40:11Z</time>
      </trkpt>
      <trkpt lat="44.24677" lon="1.73733">
        <ele>334</ele>
        <time>2023-01-26T13:40:13Z</time>
      </trkpt>
      <trkpt lat="44.24675" lon="1.7374">
        <ele>333.9</ele>
        <time>2023-01-26T13:40:14Z</time>
      </trkpt>
      <trkpt lat="44.24673" lon="1.73748">
        <ele>333.8</ele>
        <time>2023-01-26T13:40:15Z</time>
      </trkpt>
      <trkpt lat="44.24673" lon="1.73754">
        <ele>333.7</ele>
        <time>2023-01-26T13:40:16Z</time>
      </trkpt>
      <trkpt lat="44.24671" lon="1.73765">
        <ele>333.5</ele>
        <time>2023-01-26T13:40:18Z</time>
      </trkpt>
      <trkpt lat="44.2467" lon="1.73774">
        <ele>333.3</ele>
        <time>2023-01-26T13:40:19Z</time>
      </trkpt>
      <trkpt lat="44.24669" lon="1.73781">
        <ele>333.1</ele>
        <time>2023-01-26T13:40:21Z</time>
      </trkpt>
      <trkpt lat="44.24668" lon="1.73787">
        <ele>333</ele>
        <time>2023-01-26T13:40:22Z</time>
      </trkpt>
      <trkpt lat="44.24667" lon="1.73793">
        <ele>332.8</ele>
        <time>2023-01-26T13:40:23Z</time>
      </trkpt>
      <trkpt lat="44.24665" lon="1.73801">
        <ele>332.6</ele>
        <time>2023-01-26T13:40:24Z</time>
      </trkpt>
      <trkpt lat="44.24662" lon="1.73813">
        <ele>332.2</ele>
        <time>2023-01-26T13:40:26Z</time>
      </trkpt>
      <trkpt lat="44.24661" lon="1.73821">
        <ele>331.9</ele>
        <time>2023-01-26T13:40:27Z</time>
      </trkpt>
      <trkpt lat="44.2466" lon="1.73828">
        <ele>331.7</ele>
        <time>2023-01-26T13:40:28Z</time>
      </trkpt>
      <trkpt lat="44.24659" lon="1.73835">
        <ele>331.5</ele>
        <time>2023-01-26T13:40:29Z</time>
      </trkpt>
      <trkpt lat="44.24657" lon="1.73842">
        <ele>331.3</ele>
        <time>2023-01-26T13:40:30Z</time>
      </trkpt>
      <trkpt lat="44.24656" lon="1.73849">
        <ele>331.1</ele>
        <time>2023-01-26T13:40:31Z</time>
      </trkpt>
      <trkpt lat="44.24654" lon="1.73857">
        <ele>331</ele>
        <time>2023-01-26T13:40:32Z</time>
      </trkpt>
      <trkpt lat="44.24652" lon="1.73865">
        <ele>330.9</ele>
        <time>2023-01-26T13:40:33Z</time>
      </trkpt>
      <trkpt lat="44.24651" lon="1.73872">
        <ele>330.9</ele>
        <time>2023-01-26T13:40:34Z</time>
      </trkpt>
      <trkpt lat="44.24649" lon="1.73878">
        <ele>330.8</ele>
        <time>2023-01-26T13:40:35Z</time>
      </trkpt>
      <trkpt lat="44.24647" lon="1.73884">
        <ele>330.9</ele>
        <time>2023-01-26T13:40:36Z</time>
      </trkpt>
      <trkpt lat="44.24646" lon="1.73891">
        <ele>331</ele>
        <time>2023-01-26T13:40:37Z</time>
      </trkpt>
      <trkpt lat="44.24644" lon="1.73898">
        <ele>331.1</ele>
        <time>2023-01-26T13:40:38Z</time>
      </trkpt>
      <trkpt lat="44.24643" lon="1.73904">
        <ele>331.3</ele>
        <time>2023-01-26T13:40:39Z</time>
      </trkpt>
      <trkpt lat="44.24641" lon="1.73911">
        <ele>331.5</ele>
        <time>2023-01-26T13:40:40Z</time>
      </trkpt>
      <trkpt lat="44.2464" lon="1.73917">
        <ele>331.7</ele>
        <time>2023-01-26T13:40:41Z</time>
      </trkpt>
      <trkpt lat="44.24639" lon="1.73923">
        <ele>331.9</ele>
        <time>2023-01-26T13:40:42Z</time>
      </trkpt>
      <trkpt lat="44.24638" lon="1.73926">
        <ele>332.1</ele>
        <time>2023-01-26T13:40:43Z</time>
      </trkpt>
      <trkpt lat="44.24638" lon="1.7393">
        <ele>332.3</ele>
        <time>2023-01-26T13:40:44Z</time>
      </trkpt>
      <trkpt lat="44.24637" lon="1.73937">
        <ele>332.8</ele>
        <time>2023-01-26T13:40:45Z</time>
      </trkpt>
      <trkpt lat="44.24635" lon="1.73944">
        <ele>333.2</ele>
        <time>2023-01-26T13:40:46Z</time>
      </trkpt>
      <trkpt lat="44.24633" lon="1.73948">
        <ele>333.5</ele>
        <time>2023-01-26T13:40:47Z</time>
      </trkpt>
      <trkpt lat="44.24631" lon="1.73955">
        <ele>334.1</ele>
        <time>2023-01-26T13:40:48Z</time>
      </trkpt>
      <trkpt lat="44.24628" lon="1.73962">
        <ele>334.4</ele>
        <time>2023-01-26T13:40:50Z</time>
      </trkpt>
      <trkpt lat="44.24626" lon="1.73967">
        <ele>334.6</ele>
        <time>2023-01-26T13:40:51Z</time>
      </trkpt>
      <trkpt lat="44.24624" lon="1.73972">
        <ele>334.7</ele>
        <time>2023-01-26T13:40:52Z</time>
      </trkpt>
      <trkpt lat="44.24621" lon="1.73978">
        <ele>334.8</ele>
        <time>2023-01-26T13:40:53Z</time>
      </trkpt>
      <trkpt lat="44.24619" lon="1.73981">
        <ele>334.9</ele>
        <time>2023-01-26T13:40:54Z</time>
      </trkpt>
      <trkpt lat="44.24616" lon="1.73986">
        <ele>335</ele>
        <time>2023-01-26T13:40:55Z</time>
      </trkpt>
      <trkpt lat="44.24614" lon="1.73992">
        <ele>335.2</ele>
        <time>2023-01-26T13:40:56Z</time>
      </trkpt>
      <trkpt lat="44.24611" lon="1.73998">
        <ele>335.3</ele>
        <time>2023-01-26T13:40:57Z</time>
      </trkpt>
      <trkpt lat="44.24608" lon="1.74004">
        <ele>335.4</ele>
        <time>2023-01-26T13:40:59Z</time>
      </trkpt>
      <trkpt lat="44.24607" lon="1.74009">
        <ele>335.4</ele>
        <time>2023-01-26T13:41:00Z</time>
      </trkpt>
      <trkpt lat="44.24604" lon="1.74016">
        <ele>335.4</ele>
        <time>2023-01-26T13:41:01Z</time>
      </trkpt>
      <trkpt lat="44.24601" lon="1.74022">
        <ele>335.4</ele>
        <time>2023-01-26T13:41:02Z</time>
      </trkpt>
      <trkpt lat="44.24599" lon="1.74027">
        <ele>335.3</ele>
        <time>2023-01-26T13:41:03Z</time>
      </trkpt>
      <trkpt lat="44.24596" lon="1.74032">
        <ele>335.3</ele>
        <time>2023-01-26T13:41:04Z</time>
      </trkpt>
      <trkpt lat="44.24593" lon="1.74038">
        <ele>335.2</ele>
        <time>2023-01-26T13:41:05Z</time>
      </trkpt>
      <trkpt lat="44.2459" lon="1.74043">
        <ele>335.2</ele>
        <time>2023-01-26T13:41:06Z</time>
      </trkpt>
      <trkpt lat="44.24588" lon="1.74049">
        <ele>335.1</ele>
        <time>2023-01-26T13:41:07Z</time>
      </trkpt>
      <trkpt lat="44.24585" lon="1.74055">
        <ele>335</ele>
        <time>2023-01-26T13:41:08Z</time>
      </trkpt>
      <trkpt lat="44.24583" lon="1.74062">
        <ele>335</ele>
        <time>2023-01-26T13:41:09Z</time>
      </trkpt>
      <trkpt lat="44.24581" lon="1.74069">
        <ele>334.9</ele>
        <time>2023-01-26T13:41:10Z</time>
      </trkpt>
      <trkpt lat="44.24579" lon="1.74076">
        <ele>335</ele>
        <time>2023-01-26T13:41:11Z</time>
      </trkpt>
      <trkpt lat="44.24578" lon="1.74083">
        <ele>335</ele>
        <time>2023-01-26T13:41:12Z</time>
      </trkpt>
      <trkpt lat="44.24576" lon="1.7409">
        <ele>335</ele>
        <time>2023-01-26T13:41:13Z</time>
      </trkpt>
      <trkpt lat="44.24574" lon="1.74097">
        <ele>335.1</ele>
        <time>2023-01-26T13:41:14Z</time>
      </trkpt>
      <trkpt lat="44.24572" lon="1.74105">
        <ele>335.1</ele>
        <time>2023-01-26T13:41:15Z</time>
      </trkpt>
      <trkpt lat="44.2457" lon="1.74112">
        <ele>335.2</ele>
        <time>2023-01-26T13:41:16Z</time>
      </trkpt>
      <trkpt lat="44.24568" lon="1.74119">
        <ele>335.3</ele>
        <time>2023-01-26T13:41:17Z</time>
      </trkpt>
      <trkpt lat="44.24566" lon="1.74126">
        <ele>335.3</ele>
        <time>2023-01-26T13:41:18Z</time>
      </trkpt>
      <trkpt lat="44.24563" lon="1.74134">
        <ele>335.4</ele>
        <time>2023-01-26T13:41:19Z</time>
      </trkpt>
      <trkpt lat="44.24561" lon="1.74141">
        <ele>335.5</ele>
        <time>2023-01-26T13:41:20Z</time>
      </trkpt>
      <trkpt lat="44.24558" lon="1.74148">
        <ele>335.6</ele>
        <time>2023-01-26T13:41:21Z</time>
      </trkpt>
      <trkpt lat="44.24556" lon="1.74154">
        <ele>335.6</ele>
        <time>2023-01-26T13:41:22Z</time>
      </trkpt>
      <trkpt lat="44.24554" lon="1.74161">
        <ele>335.5</ele>
        <time>2023-01-26T13:41:23Z</time>
      </trkpt>
      <trkpt lat="44.24552" lon="1.74168">
        <ele>335.4</ele>
        <time>2023-01-26T13:41:24Z</time>
      </trkpt>
      <trkpt lat="44.2455" lon="1.74175">
        <ele>335.2</ele>
        <time>2023-01-26T13:41:25Z</time>
      </trkpt>
      <trkpt lat="44.24548" lon="1.74182">
        <ele>335.1</ele>
        <time>2023-01-26T13:41:26Z</time>
      </trkpt>
      <trkpt lat="44.24545" lon="1.74189">
        <ele>335</ele>
        <time>2023-01-26T13:41:27Z</time>
      </trkpt>
      <trkpt lat="44.24541" lon="1.74195">
        <ele>335</ele>
        <time>2023-01-26T13:41:28Z</time>
      </trkpt>
      <trkpt lat="44.24538" lon="1.74202">
        <ele>335</ele>
        <time>2023-01-26T13:41:29Z</time>
      </trkpt>
      <trkpt lat="44.24535" lon="1.74208">
        <ele>334.9</ele>
        <time>2023-01-26T13:41:30Z</time>
      </trkpt>
      <trkpt lat="44.24532" lon="1.74214">
        <ele>334.9</ele>
        <time>2023-01-26T13:41:31Z</time>
      </trkpt>
      <trkpt lat="44.24529" lon="1.74221">
        <ele>334.9</ele>
        <time>2023-01-26T13:41:32Z</time>
      </trkpt>
      <trkpt lat="44.24526" lon="1.74228">
        <ele>334.9</ele>
        <time>2023-01-26T13:41:33Z</time>
      </trkpt>
      <trkpt lat="44.24523" lon="1.74235">
        <ele>334.8</ele>
        <time>2023-01-26T13:41:34Z</time>
      </trkpt>
      <trkpt lat="44.2452" lon="1.74241">
        <ele>334.8</ele>
        <time>2023-01-26T13:41:35Z</time>
      </trkpt>
      <trkpt lat="44.24517" lon="1.74248">
        <ele>334.8</ele>
        <time>2023-01-26T13:41:36Z</time>
      </trkpt>
      <trkpt lat="44.24514" lon="1.74255">
        <ele>334.8</ele>
        <time>2023-01-26T13:41:37Z</time>
      </trkpt>
      <trkpt lat="44.2451" lon="1.74262">
        <ele>334.8</ele>
        <time>2023-01-26T13:41:38Z</time>
      </trkpt>
      <trkpt lat="44.24508" lon="1.74269">
        <ele>334.8</ele>
        <time>2023-01-26T13:41:39Z</time>
      </trkpt>
      <trkpt lat="44.24505" lon="1.74276">
        <ele>334.8</ele>
        <time>2023-01-26T13:41:40Z</time>
      </trkpt>
      <trkpt lat="44.24502" lon="1.74283">
        <ele>334.8</ele>
        <time>2023-01-26T13:41:41Z</time>
      </trkpt>
      <trkpt lat="44.245" lon="1.7429">
        <ele>334.7</ele>
        <time>2023-01-26T13:41:42Z</time>
      </trkpt>
      <trkpt lat="44.24497" lon="1.74296">
        <ele>334.5</ele>
        <time>2023-01-26T13:41:43Z</time>
      </trkpt>
      <trkpt lat="44.24495" lon="1.74303">
        <ele>334.2</ele>
        <time>2023-01-26T13:41:44Z</time>
      </trkpt>
      <trkpt lat="44.24492" lon="1.74311">
        <ele>334</ele>
        <time>2023-01-26T13:41:45Z</time>
      </trkpt>
      <trkpt lat="44.24489" lon="1.74318">
        <ele>333.7</ele>
        <time>2023-01-26T13:41:46Z</time>
      </trkpt>
      <trkpt lat="44.24485" lon="1.74325">
        <ele>333.4</ele>
        <time>2023-01-26T13:41:47Z</time>
      </trkpt>
      <trkpt lat="44.24482" lon="1.74332">
        <ele>333.2</ele>
        <time>2023-01-26T13:41:48Z</time>
      </trkpt>
      <trkpt lat="44.24479" lon="1.7434">
        <ele>333</ele>
        <time>2023-01-26T13:41:49Z</time>
      </trkpt>
      <trkpt lat="44.24475" lon="1.74347">
        <ele>332.9</ele>
        <time>2023-01-26T13:41:50Z</time>
      </trkpt>
      <trkpt lat="44.24472" lon="1.74355">
        <ele>332.7</ele>
        <time>2023-01-26T13:41:51Z</time>
      </trkpt>
      <trkpt lat="44.24469" lon="1.74363">
        <ele>332.6</ele>
        <time>2023-01-26T13:41:52Z</time>
      </trkpt>
      <trkpt lat="44.24465" lon="1.7437">
        <ele>332.5</ele>
        <time>2023-01-26T13:41:53Z</time>
      </trkpt>
      <trkpt lat="44.24462" lon="1.74377">
        <ele>332.4</ele>
        <time>2023-01-26T13:41:54Z</time>
      </trkpt>
      <trkpt lat="44.24458" lon="1.74384">
        <ele>332.4</ele>
        <time>2023-01-26T13:41:55Z</time>
      </trkpt>
      <trkpt lat="44.24455" lon="1.74392">
        <ele>332.3</ele>
        <time>2023-01-26T13:41:56Z</time>
      </trkpt>
      <trkpt lat="44.24452" lon="1.74399">
        <ele>332.3</ele>
        <time>2023-01-26T13:41:57Z</time>
      </trkpt>
      <trkpt lat="44.24448" lon="1.74407">
        <ele>332.3</ele>
        <time>2023-01-26T13:41:58Z</time>
      </trkpt>
      <trkpt lat="44.24445" lon="1.74414">
        <ele>332.3</ele>
        <time>2023-01-26T13:41:59Z</time>
      </trkpt>
      <trkpt lat="44.24441" lon="1.74421">
        <ele>332.3</ele>
        <time>2023-01-26T13:42:00Z</time>
      </trkpt>
      <trkpt lat="44.24438" lon="1.74428">
        <ele>332.3</ele>
        <time>2023-01-26T13:42:01Z</time>
      </trkpt>
      <trkpt lat="44.24435" lon="1.74435">
        <ele>332.3</ele>
        <time>2023-01-26T13:42:02Z</time>
      </trkpt>
      <trkpt lat="44.24432" lon="1.74443">
        <ele>332.4</ele>
        <time>2023-01-26T13:42:03Z</time>
      </trkpt>
      <trkpt lat="44.2443" lon="1.7445">
        <ele>332.4</ele>
        <time>2023-01-26T13:42:04Z</time>
      </trkpt>
      <trkpt lat="44.24428" lon="1.74457">
        <ele>332.3</ele>
        <time>2023-01-26T13:42:05Z</time>
      </trkpt>
      <trkpt lat="44.24427" lon="1.74464">
        <ele>332.3</ele>
        <time>2023-01-26T13:42:06Z</time>
      </trkpt>
      <trkpt lat="44.24426" lon="1.74471">
        <ele>332.2</ele>
        <time>2023-01-26T13:42:07Z</time>
      </trkpt>
      <trkpt lat="44.24424" lon="1.74477">
        <ele>332.2</ele>
        <time>2023-01-26T13:42:08Z</time>
      </trkpt>
      <trkpt lat="44.24423" lon="1.74484">
        <ele>332.1</ele>
        <time>2023-01-26T13:42:09Z</time>
      </trkpt>
      <trkpt lat="44.24422" lon="1.74491">
        <ele>332.1</ele>
        <time>2023-01-26T13:42:10Z</time>
      </trkpt>
      <trkpt lat="44.24421" lon="1.74498">
        <ele>332.1</ele>
        <time>2023-01-26T13:42:11Z</time>
      </trkpt>
      <trkpt lat="44.24421" lon="1.74505">
        <ele>332.1</ele>
        <time>2023-01-26T13:42:12Z</time>
      </trkpt>
      <trkpt lat="44.24421" lon="1.74512">
        <ele>332.2</ele>
        <time>2023-01-26T13:42:13Z</time>
      </trkpt>
      <trkpt lat="44.2442" lon="1.7452">
        <ele>332.2</ele>
        <time>2023-01-26T13:42:14Z</time>
      </trkpt>
      <trkpt lat="44.2442" lon="1.74526">
        <ele>332.3</ele>
        <time>2023-01-26T13:42:15Z</time>
      </trkpt>
      <trkpt lat="44.2442" lon="1.74532">
        <ele>332.3</ele>
        <time>2023-01-26T13:42:16Z</time>
      </trkpt>
      <trkpt lat="44.24421" lon="1.74538">
        <ele>332.3</ele>
        <time>2023-01-26T13:42:17Z</time>
      </trkpt>
      <trkpt lat="44.24421" lon="1.74541">
        <ele>332.2</ele>
        <time>2023-01-26T13:42:18Z</time>
      </trkpt>
      <trkpt lat="44.24422" lon="1.74547">
        <ele>332.1</ele>
        <time>2023-01-26T13:42:19Z</time>
      </trkpt>
      <trkpt lat="44.24422" lon="1.74551">
        <ele>332</ele>
        <time>2023-01-26T13:42:20Z</time>
      </trkpt>
      <trkpt lat="44.24423" lon="1.7456">
        <ele>331.8</ele>
        <time>2023-01-26T13:42:21Z</time>
      </trkpt>
      <trkpt lat="44.24422" lon="1.74566">
        <ele>331.7</ele>
        <time>2023-01-26T13:42:22Z</time>
      </trkpt>
      <trkpt lat="44.24421" lon="1.7457">
        <ele>331.7</ele>
        <time>2023-01-26T13:42:23Z</time>
      </trkpt>
      <trkpt lat="44.24421" lon="1.74579">
        <ele>331.7</ele>
        <time>2023-01-26T13:42:24Z</time>
      </trkpt>
      <trkpt lat="44.24421" lon="1.74587">
        <ele>331.8</ele>
        <time>2023-01-26T13:42:25Z</time>
      </trkpt>
      <trkpt lat="44.2442" lon="1.74595">
        <ele>331.9</ele>
        <time>2023-01-26T13:42:26Z</time>
      </trkpt>
      <trkpt lat="44.24419" lon="1.74604">
        <ele>332</ele>
        <time>2023-01-26T13:42:27Z</time>
      </trkpt>
      <trkpt lat="44.24419" lon="1.7461">
        <ele>332.2</ele>
        <time>2023-01-26T13:42:28Z</time>
      </trkpt>
      <trkpt lat="44.24418" lon="1.74617">
        <ele>332.3</ele>
        <time>2023-01-26T13:42:29Z</time>
      </trkpt>
      <trkpt lat="44.24417" lon="1.74624">
        <ele>332.4</ele>
        <time>2023-01-26T13:42:30Z</time>
      </trkpt>
      <trkpt lat="44.24416" lon="1.74631">
        <ele>332.5</ele>
        <time>2023-01-26T13:42:31Z</time>
      </trkpt>
      <trkpt lat="44.24415" lon="1.74639">
        <ele>332.5</ele>
        <time>2023-01-26T13:42:32Z</time>
      </trkpt>
      <trkpt lat="44.24414" lon="1.74647">
        <ele>332.5</ele>
        <time>2023-01-26T13:42:33Z</time>
      </trkpt>
      <trkpt lat="44.24412" lon="1.74654">
        <ele>332.5</ele>
        <time>2023-01-26T13:42:34Z</time>
      </trkpt>
      <trkpt lat="44.2441" lon="1.74661">
        <ele>332.4</ele>
        <time>2023-01-26T13:42:35Z</time>
      </trkpt>
      <trkpt lat="44.24408" lon="1.74667">
        <ele>332.4</ele>
        <time>2023-01-26T13:42:36Z</time>
      </trkpt>
      <trkpt lat="44.24406" lon="1.74673">
        <ele>332.4</ele>
        <time>2023-01-26T13:42:37Z</time>
      </trkpt>
      <trkpt lat="44.24405" lon="1.7468">
        <ele>332.4</ele>
        <time>2023-01-26T13:42:38Z</time>
      </trkpt>
      <trkpt lat="44.24403" lon="1.74687">
        <ele>332.5</ele>
        <time>2023-01-26T13:42:39Z</time>
      </trkpt>
      <trkpt lat="44.24401" lon="1.74694">
        <ele>332.5</ele>
        <time>2023-01-26T13:42:40Z</time>
      </trkpt>
      <trkpt lat="44.24399" lon="1.747">
        <ele>332.5</ele>
        <time>2023-01-26T13:42:41Z</time>
      </trkpt>
      <trkpt lat="44.24397" lon="1.74707">
        <ele>332.6</ele>
        <time>2023-01-26T13:42:42Z</time>
      </trkpt>
      <trkpt lat="44.24395" lon="1.74714">
        <ele>332.6</ele>
        <time>2023-01-26T13:42:43Z</time>
      </trkpt>
      <trkpt lat="44.24393" lon="1.74721">
        <ele>332.6</ele>
        <time>2023-01-26T13:42:44Z</time>
      </trkpt>
      <trkpt lat="44.24391" lon="1.74728">
        <ele>332.7</ele>
        <time>2023-01-26T13:42:45Z</time>
      </trkpt>
      <trkpt lat="44.24389" lon="1.74736">
        <ele>332.7</ele>
        <time>2023-01-26T13:42:46Z</time>
      </trkpt>
      <trkpt lat="44.24387" lon="1.74744">
        <ele>332.8</ele>
        <time>2023-01-26T13:42:47Z</time>
      </trkpt>
      <trkpt lat="44.24385" lon="1.74751">
        <ele>332.8</ele>
        <time>2023-01-26T13:42:48Z</time>
      </trkpt>
      <trkpt lat="44.24383" lon="1.74758">
        <ele>332.8</ele>
        <time>2023-01-26T13:42:49Z</time>
      </trkpt>
      <trkpt lat="44.24382" lon="1.74765">
        <ele>332.9</ele>
        <time>2023-01-26T13:42:50Z</time>
      </trkpt>
      <trkpt lat="44.2438" lon="1.74772">
        <ele>333</ele>
        <time>2023-01-26T13:42:51Z</time>
      </trkpt>
      <trkpt lat="44.24379" lon="1.74779">
        <ele>333.1</ele>
        <time>2023-01-26T13:42:52Z</time>
      </trkpt>
      <trkpt lat="44.24377" lon="1.74785">
        <ele>333.1</ele>
        <time>2023-01-26T13:42:53Z</time>
      </trkpt>
      <trkpt lat="44.24375" lon="1.74792">
        <ele>333.2</ele>
        <time>2023-01-26T13:42:54Z</time>
      </trkpt>
      <trkpt lat="44.24374" lon="1.74799">
        <ele>333.3</ele>
        <time>2023-01-26T13:42:55Z</time>
      </trkpt>
      <trkpt lat="44.24372" lon="1.74806">
        <ele>333.4</ele>
        <time>2023-01-26T13:42:56Z</time>
      </trkpt>
      <trkpt lat="44.2437" lon="1.74812">
        <ele>333.5</ele>
        <time>2023-01-26T13:42:57Z</time>
      </trkpt>
      <trkpt lat="44.24368" lon="1.74819">
        <ele>333.7</ele>
        <time>2023-01-26T13:42:58Z</time>
      </trkpt>
      <trkpt lat="44.24367" lon="1.74823">
        <ele>333.9</ele>
        <time>2023-01-26T13:42:59Z</time>
      </trkpt>
      <trkpt lat="44.24365" lon="1.74831">
        <ele>334.1</ele>
        <time>2023-01-26T13:43:00Z</time>
      </trkpt>
      <trkpt lat="44.24363" lon="1.74838">
        <ele>334.4</ele>
        <time>2023-01-26T13:43:01Z</time>
      </trkpt>
      <trkpt lat="44.24361" lon="1.74844">
        <ele>334.6</ele>
        <time>2023-01-26T13:43:02Z</time>
      </trkpt>
      <trkpt lat="44.2436" lon="1.74851">
        <ele>334.8</ele>
        <time>2023-01-26T13:43:03Z</time>
      </trkpt>
      <trkpt lat="44.24358" lon="1.74857">
        <ele>335</ele>
        <time>2023-01-26T13:43:04Z</time>
      </trkpt>
      <trkpt lat="44.24356" lon="1.74861">
        <ele>335.2</ele>
        <time>2023-01-26T13:43:05Z</time>
      </trkpt>
      <trkpt lat="44.24353" lon="1.74867">
        <ele>335.3</ele>
        <time>2023-01-26T13:43:06Z</time>
      </trkpt>
      <trkpt lat="44.24351" lon="1.74879">
        <ele>335.6</ele>
        <time>2023-01-26T13:43:08Z</time>
      </trkpt>
      <trkpt lat="44.2435" lon="1.74886">
        <ele>335.9</ele>
        <time>2023-01-26T13:43:09Z</time>
      </trkpt>
      <trkpt lat="44.24349" lon="1.74892">
        <ele>336.1</ele>
        <time>2023-01-26T13:43:10Z</time>
      </trkpt>
      <trkpt lat="44.24347" lon="1.74902">
        <ele>336.5</ele>
        <time>2023-01-26T13:43:11Z</time>
      </trkpt>
      <trkpt lat="44.24346" lon="1.74908">
        <ele>336.7</ele>
        <time>2023-01-26T13:43:12Z</time>
      </trkpt>
      <trkpt lat="44.24345" lon="1.74914">
        <ele>336.9</ele>
        <time>2023-01-26T13:43:13Z</time>
      </trkpt>
      <trkpt lat="44.24343" lon="1.7492">
        <ele>337.1</ele>
        <time>2023-01-26T13:43:14Z</time>
      </trkpt>
      <trkpt lat="44.24341" lon="1.74927">
        <ele>337.3</ele>
        <time>2023-01-26T13:43:15Z</time>
      </trkpt>
      <trkpt lat="44.2434" lon="1.74933">
        <ele>337.5</ele>
        <time>2023-01-26T13:43:16Z</time>
      </trkpt>
      <trkpt lat="44.24338" lon="1.74938">
        <ele>337.7</ele>
        <time>2023-01-26T13:43:17Z</time>
      </trkpt>
      <trkpt lat="44.24335" lon="1.74946">
        <ele>337.9</ele>
        <time>2023-01-26T13:43:18Z</time>
      </trkpt>
      <trkpt lat="44.24333" lon="1.74954">
        <ele>338.2</ele>
        <time>2023-01-26T13:43:20Z</time>
      </trkpt>
      <trkpt lat="44.24332" lon="1.74961">
        <ele>338.3</ele>
        <time>2023-01-26T13:43:21Z</time>
      </trkpt>
      <trkpt lat="44.2433" lon="1.74968">
        <ele>338.5</ele>
        <time>2023-01-26T13:43:22Z</time>
      </trkpt>
      <trkpt lat="44.24328" lon="1.74973">
        <ele>338.6</ele>
        <time>2023-01-26T13:43:23Z</time>
      </trkpt>
      <trkpt lat="44.24327" lon="1.74979">
        <ele>338.7</ele>
        <time>2023-01-26T13:43:24Z</time>
      </trkpt>
      <trkpt lat="44.24324" lon="1.74988">
        <ele>338.9</ele>
        <time>2023-01-26T13:43:26Z</time>
      </trkpt>
      <trkpt lat="44.24323" lon="1.74995">
        <ele>339.1</ele>
        <time>2023-01-26T13:43:27Z</time>
      </trkpt>
      <trkpt lat="44.24322" lon="1.75">
        <ele>339.2</ele>
        <time>2023-01-26T13:43:28Z</time>
      </trkpt>
      <trkpt lat="44.2432" lon="1.75005">
        <ele>339.3</ele>
        <time>2023-01-26T13:43:29Z</time>
      </trkpt>
      <trkpt lat="44.24317" lon="1.75015">
        <ele>339.5</ele>
        <time>2023-01-26T13:43:31Z</time>
      </trkpt>
      <trkpt lat="44.24315" lon="1.75021">
        <ele>339.5</ele>
        <time>2023-01-26T13:43:33Z</time>
      </trkpt>
      <trkpt lat="44.24314" lon="1.75027">
        <ele>339.6</ele>
        <time>2023-01-26T13:43:34Z</time>
      </trkpt>
      <trkpt lat="44.24309" lon="1.75036">
        <ele>339.7</ele>
        <time>2023-01-26T13:43:36Z</time>
      </trkpt>
      <trkpt lat="44.24306" lon="1.75042">
        <ele>339.7</ele>
        <time>2023-01-26T13:43:37Z</time>
      </trkpt>
      <trkpt lat="44.24304" lon="1.75046">
        <ele>339.8</ele>
        <time>2023-01-26T13:43:38Z</time>
      </trkpt>
      <trkpt lat="44.24302" lon="1.7505">
        <ele>339.8</ele>
        <time>2023-01-26T13:43:39Z</time>
      </trkpt>
      <trkpt lat="44.24297" lon="1.75056">
        <ele>339.9</ele>
        <time>2023-01-26T13:43:41Z</time>
      </trkpt>
      <trkpt lat="44.24294" lon="1.75059">
        <ele>340</ele>
        <time>2023-01-26T13:43:42Z</time>
      </trkpt>
      <trkpt lat="44.24289" lon="1.75061">
        <ele>340</ele>
        <time>2023-01-26T13:43:43Z</time>
      </trkpt>
      <trkpt lat="44.24285" lon="1.75063">
        <ele>340.1</ele>
        <time>2023-01-26T13:43:45Z</time>
      </trkpt>
      <trkpt lat="44.24283" lon="1.75065">
        <ele>340.2</ele>
        <time>2023-01-26T13:43:46Z</time>
      </trkpt>
      <trkpt lat="44.2428" lon="1.75066">
        <ele>340.3</ele>
        <time>2023-01-26T13:43:47Z</time>
      </trkpt>
      <trkpt lat="44.24275" lon="1.75068">
        <ele>340.4</ele>
        <time>2023-01-26T13:43:49Z</time>
      </trkpt>
      <trkpt lat="44.2427" lon="1.75072">
        <ele>340.6</ele>
        <time>2023-01-26T13:43:51Z</time>
      </trkpt>
      <trkpt lat="44.24267" lon="1.75075">
        <ele>340.7</ele>
        <time>2023-01-26T13:43:52Z</time>
      </trkpt>
      <trkpt lat="44.24264" lon="1.75077">
        <ele>340.8</ele>
        <time>2023-01-26T13:43:53Z</time>
      </trkpt>
      <trkpt lat="44.24259" lon="1.75082">
        <ele>341</ele>
        <time>2023-01-26T13:43:54Z</time>
      </trkpt>
      <trkpt lat="44.24254" lon="1.75086">
        <ele>341.2</ele>
        <time>2023-01-26T13:43:56Z</time>
      </trkpt>
      <trkpt lat="44.2425" lon="1.75089">
        <ele>341.3</ele>
        <time>2023-01-26T13:43:57Z</time>
      </trkpt>
      <trkpt lat="44.24245" lon="1.75094">
        <ele>341.5</ele>
        <time>2023-01-26T13:43:59Z</time>
      </trkpt>
      <trkpt lat="44.24241" lon="1.75097">
        <ele>341.7</ele>
        <time>2023-01-26T13:44:00Z</time>
      </trkpt>
      <trkpt lat="44.24238" lon="1.75102">
        <ele>341.9</ele>
        <time>2023-01-26T13:44:01Z</time>
      </trkpt>
      <trkpt lat="44.24234" lon="1.75107">
        <ele>342</ele>
        <time>2023-01-26T13:44:03Z</time>
      </trkpt>
      <trkpt lat="44.2423" lon="1.75112">
        <ele>342.2</ele>
        <time>2023-01-26T13:44:04Z</time>
      </trkpt>
      <trkpt lat="44.24227" lon="1.75117">
        <ele>342.3</ele>
        <time>2023-01-26T13:44:05Z</time>
      </trkpt>
      <trkpt lat="44.24223" lon="1.75123">
        <ele>342.4</ele>
        <time>2023-01-26T13:44:06Z</time>
      </trkpt>
      <trkpt lat="44.2422" lon="1.75128">
        <ele>342.5</ele>
        <time>2023-01-26T13:44:07Z</time>
      </trkpt>
      <trkpt lat="44.24216" lon="1.75135">
        <ele>342.6</ele>
        <time>2023-01-26T13:44:09Z</time>
      </trkpt>
      <trkpt lat="44.24212" lon="1.7514">
        <ele>342.6</ele>
        <time>2023-01-26T13:44:10Z</time>
      </trkpt>
      <trkpt lat="44.24208" lon="1.75146">
        <ele>342.7</ele>
        <time>2023-01-26T13:44:11Z</time>
      </trkpt>
      <trkpt lat="44.24204" lon="1.75152">
        <ele>342.7</ele>
        <time>2023-01-26T13:44:12Z</time>
      </trkpt>
      <trkpt lat="44.24199" lon="1.7516">
        <ele>342.8</ele>
        <time>2023-01-26T13:44:14Z</time>
      </trkpt>
      <trkpt lat="44.24195" lon="1.75165">
        <ele>342.8</ele>
        <time>2023-01-26T13:44:15Z</time>
      </trkpt>
      <trkpt lat="44.24191" lon="1.75171">
        <ele>342.8</ele>
        <time>2023-01-26T13:44:16Z</time>
      </trkpt>
      <trkpt lat="44.24188" lon="1.75176">
        <ele>342.8</ele>
        <time>2023-01-26T13:44:17Z</time>
      </trkpt>
      <trkpt lat="44.24183" lon="1.75183">
        <ele>342.8</ele>
        <time>2023-01-26T13:44:18Z</time>
      </trkpt>
      <trkpt lat="44.24179" lon="1.75187">
        <ele>342.8</ele>
        <time>2023-01-26T13:44:19Z</time>
      </trkpt>
      <trkpt lat="44.24174" lon="1.75193">
        <ele>342.9</ele>
        <time>2023-01-26T13:44:21Z</time>
      </trkpt>
      <trkpt lat="44.24168" lon="1.75201">
        <ele>343.1</ele>
        <time>2023-01-26T13:44:22Z</time>
      </trkpt>
      <trkpt lat="44.24163" lon="1.75207">
        <ele>343.3</ele>
        <time>2023-01-26T13:44:24Z</time>
      </trkpt>
      <trkpt lat="44.2416" lon="1.75212">
        <ele>343.3</ele>
        <time>2023-01-26T13:44:25Z</time>
      </trkpt>
      <trkpt lat="44.24155" lon="1.7522">
        <ele>343.5</ele>
        <time>2023-01-26T13:44:27Z</time>
      </trkpt>
      <trkpt lat="44.24151" lon="1.75224">
        <ele>343.5</ele>
        <time>2023-01-26T13:44:28Z</time>
      </trkpt>
      <trkpt lat="44.24146" lon="1.7523">
        <ele>343.5</ele>
        <time>2023-01-26T13:44:29Z</time>
      </trkpt>
      <trkpt lat="44.24143" lon="1.75234">
        <ele>343.4</ele>
        <time>2023-01-26T13:44:30Z</time>
      </trkpt>
      <trkpt lat="44.24139" lon="1.75239">
        <ele>343.4</ele>
        <time>2023-01-26T13:44:32Z</time>
      </trkpt>
      <trkpt lat="44.24136" lon="1.75244">
        <ele>343.4</ele>
        <time>2023-01-26T13:44:33Z</time>
      </trkpt>
      <trkpt lat="44.24131" lon="1.75249">
        <ele>343.3</ele>
        <time>2023-01-26T13:44:34Z</time>
      </trkpt>
      <trkpt lat="44.24127" lon="1.75254">
        <ele>343.3</ele>
        <time>2023-01-26T13:44:35Z</time>
      </trkpt>
      <trkpt lat="44.24123" lon="1.7526">
        <ele>343.2</ele>
        <time>2023-01-26T13:44:37Z</time>
      </trkpt>
      <trkpt lat="44.24118" lon="1.75265">
        <ele>343.2</ele>
        <time>2023-01-26T13:44:38Z</time>
      </trkpt>
      <trkpt lat="44.24113" lon="1.75271">
        <ele>343.1</ele>
        <time>2023-01-26T13:44:39Z</time>
      </trkpt>
      <trkpt lat="44.2411" lon="1.75275">
        <ele>343</ele>
        <time>2023-01-26T13:44:40Z</time>
      </trkpt>
      <trkpt lat="44.24106" lon="1.75281">
        <ele>342.8</ele>
        <time>2023-01-26T13:44:42Z</time>
      </trkpt>
      <trkpt lat="44.24103" lon="1.75286">
        <ele>342.7</ele>
        <time>2023-01-26T13:44:43Z</time>
      </trkpt>
      <trkpt lat="44.24099" lon="1.75291">
        <ele>342.5</ele>
        <time>2023-01-26T13:44:44Z</time>
      </trkpt>
      <trkpt lat="44.24095" lon="1.75296">
        <ele>342.4</ele>
        <time>2023-01-26T13:44:45Z</time>
      </trkpt>
      <trkpt lat="44.24091" lon="1.75302">
        <ele>342.3</ele>
        <time>2023-01-26T13:44:46Z</time>
      </trkpt>
      <trkpt lat="44.24088" lon="1.75307">
        <ele>342.2</ele>
        <time>2023-01-26T13:44:47Z</time>
      </trkpt>
      <trkpt lat="44.24082" lon="1.75316">
        <ele>342</ele>
        <time>2023-01-26T13:44:49Z</time>
      </trkpt>
      <trkpt lat="44.24077" lon="1.75322">
        <ele>341.9</ele>
        <time>2023-01-26T13:44:50Z</time>
      </trkpt>
      <trkpt lat="44.24073" lon="1.75328">
        <ele>341.8</ele>
        <time>2023-01-26T13:44:51Z</time>
      </trkpt>
      <trkpt lat="44.24068" lon="1.75334">
        <ele>341.7</ele>
        <time>2023-01-26T13:44:53Z</time>
      </trkpt>
      <trkpt lat="44.24064" lon="1.75339">
        <ele>341.7</ele>
        <time>2023-01-26T13:44:54Z</time>
      </trkpt>
      <trkpt lat="44.2406" lon="1.75344">
        <ele>341.6</ele>
        <time>2023-01-26T13:44:55Z</time>
      </trkpt>
      <trkpt lat="44.24056" lon="1.75349">
        <ele>341.5</ele>
        <time>2023-01-26T13:44:56Z</time>
      </trkpt>
      <trkpt lat="44.24052" lon="1.75354">
        <ele>341.4</ele>
        <time>2023-01-26T13:44:57Z</time>
      </trkpt>
      <trkpt lat="44.24045" lon="1.75363">
        <ele>341.2</ele>
        <time>2023-01-26T13:44:59Z</time>
      </trkpt>
      <trkpt lat="44.2404" lon="1.75368">
        <ele>341.1</ele>
        <time>2023-01-26T13:45:00Z</time>
      </trkpt>
      <trkpt lat="44.24037" lon="1.75372">
        <ele>341</ele>
        <time>2023-01-26T13:45:01Z</time>
      </trkpt>
      <trkpt lat="44.2403" lon="1.75379">
        <ele>340.8</ele>
        <time>2023-01-26T13:45:03Z</time>
      </trkpt>
      <trkpt lat="44.24026" lon="1.75384">
        <ele>340.6</ele>
        <time>2023-01-26T13:45:04Z</time>
      </trkpt>
      <trkpt lat="44.24022" lon="1.75388">
        <ele>340.5</ele>
        <time>2023-01-26T13:45:05Z</time>
      </trkpt>
      <trkpt lat="44.24018" lon="1.75392">
        <ele>340.3</ele>
        <time>2023-01-26T13:45:06Z</time>
      </trkpt>
      <trkpt lat="44.24014" lon="1.75395">
        <ele>340.2</ele>
        <time>2023-01-26T13:45:07Z</time>
      </trkpt>
      <trkpt lat="44.2401" lon="1.754">
        <ele>340.1</ele>
        <time>2023-01-26T13:45:08Z</time>
      </trkpt>
      <trkpt lat="44.24007" lon="1.75406">
        <ele>340.1</ele>
        <time>2023-01-26T13:45:10Z</time>
      </trkpt>
      <trkpt lat="44.24006" lon="1.7541">
        <ele>340</ele>
        <time>2023-01-26T13:45:11Z</time>
      </trkpt>
      <trkpt lat="44.24005" lon="1.75416">
        <ele>340</ele>
        <time>2023-01-26T13:45:12Z</time>
      </trkpt>
      <trkpt lat="44.24002" lon="1.75421">
        <ele>340</ele>
        <time>2023-01-26T13:45:13Z</time>
      </trkpt>
      <trkpt lat="44.23999" lon="1.75428">
        <ele>340</ele>
        <time>2023-01-26T13:45:14Z</time>
      </trkpt>
      <trkpt lat="44.23998" lon="1.75434">
        <ele>339.9</ele>
        <time>2023-01-26T13:45:15Z</time>
      </trkpt>
      <trkpt lat="44.23994" lon="1.75443">
        <ele>339.9</ele>
        <time>2023-01-26T13:45:17Z</time>
      </trkpt>
      <trkpt lat="44.2399" lon="1.75451">
        <ele>339.9</ele>
        <time>2023-01-26T13:45:18Z</time>
      </trkpt>
      <trkpt lat="44.23988" lon="1.75458">
        <ele>339.9</ele>
        <time>2023-01-26T13:45:19Z</time>
      </trkpt>
      <trkpt lat="44.23986" lon="1.75464">
        <ele>339.9</ele>
        <time>2023-01-26T13:45:20Z</time>
      </trkpt>
      <trkpt lat="44.23985" lon="1.7547">
        <ele>339.9</ele>
        <time>2023-01-26T13:45:21Z</time>
      </trkpt>
      <trkpt lat="44.23983" lon="1.75475">
        <ele>340</ele>
        <time>2023-01-26T13:45:22Z</time>
      </trkpt>
      <trkpt lat="44.23981" lon="1.75487">
        <ele>340.1</ele>
        <time>2023-01-26T13:45:24Z</time>
      </trkpt>
      <trkpt lat="44.2398" lon="1.75493">
        <ele>340.2</ele>
        <time>2023-01-26T13:45:25Z</time>
      </trkpt>
      <trkpt lat="44.23978" lon="1.75498">
        <ele>340.2</ele>
        <time>2023-01-26T13:45:26Z</time>
      </trkpt>
      <trkpt lat="44.23976" lon="1.75503">
        <ele>340.3</ele>
        <time>2023-01-26T13:45:27Z</time>
      </trkpt>
      <trkpt lat="44.23975" lon="1.75507">
        <ele>340.4</ele>
        <time>2023-01-26T13:45:28Z</time>
      </trkpt>
      <trkpt lat="44.23973" lon="1.75511">
        <ele>340.5</ele>
        <time>2023-01-26T13:45:30Z</time>
      </trkpt>
      <trkpt lat="44.23972" lon="1.75512">
        <ele>340.6</ele>
        <time>2023-01-26T13:45:31Z</time>
      </trkpt>
      <trkpt lat="44.23972" lon="1.75512">
        <ele>340.6</ele>
        <time>2023-01-26T13:45:32Z</time>
      </trkpt>
      <trkpt lat="44.23971" lon="1.7551">
        <ele>340.6</ele>
        <time>2023-01-26T13:45:34Z</time>
      </trkpt>
      <trkpt lat="44.23971" lon="1.7551">
        <ele>340.6</ele>
        <time>2023-01-26T13:45:35Z</time>
      </trkpt>
      <trkpt lat="44.23971" lon="1.75511">
        <ele>340.6</ele>
        <time>2023-01-26T13:45:36Z</time>
      </trkpt>
      <trkpt lat="44.2397" lon="1.75513">
        <ele>340.7</ele>
        <time>2023-01-26T13:45:37Z</time>
      </trkpt>
      <trkpt lat="44.23968" lon="1.75516">
        <ele>340.7</ele>
        <time>2023-01-26T13:45:38Z</time>
      </trkpt>
      <trkpt lat="44.23967" lon="1.75518">
        <ele>340.7</ele>
        <time>2023-01-26T13:45:39Z</time>
      </trkpt>
      <trkpt lat="44.23966" lon="1.75524">
        <ele>340.9</ele>
        <time>2023-01-26T13:45:40Z</time>
      </trkpt>
      <trkpt lat="44.23964" lon="1.75528">
        <ele>340.9</ele>
        <time>2023-01-26T13:45:41Z</time>
      </trkpt>
      <trkpt lat="44.23963" lon="1.75534">
        <ele>341.1</ele>
        <time>2023-01-26T13:45:43Z</time>
      </trkpt>
      <trkpt lat="44.23962" lon="1.75539">
        <ele>341.2</ele>
        <time>2023-01-26T13:45:44Z</time>
      </trkpt>
      <trkpt lat="44.23961" lon="1.75545">
        <ele>341.3</ele>
        <time>2023-01-26T13:45:45Z</time>
      </trkpt>
      <trkpt lat="44.23959" lon="1.75552">
        <ele>341.4</ele>
        <time>2023-01-26T13:45:46Z</time>
      </trkpt>
      <trkpt lat="44.23958" lon="1.75558">
        <ele>341.6</ele>
        <time>2023-01-26T13:45:47Z</time>
      </trkpt>
      <trkpt lat="44.23955" lon="1.75569">
        <ele>341.8</ele>
        <time>2023-01-26T13:45:49Z</time>
      </trkpt>
      <trkpt lat="44.23954" lon="1.75575">
        <ele>341.9</ele>
        <time>2023-01-26T13:45:50Z</time>
      </trkpt>
      <trkpt lat="44.23952" lon="1.75582">
        <ele>342.1</ele>
        <time>2023-01-26T13:45:51Z</time>
      </trkpt>
      <trkpt lat="44.23952" lon="1.75587">
        <ele>342.2</ele>
        <time>2023-01-26T13:45:52Z</time>
      </trkpt>
      <trkpt lat="44.2395" lon="1.75597">
        <ele>342.4</ele>
        <time>2023-01-26T13:45:54Z</time>
      </trkpt>
      <trkpt lat="44.23948" lon="1.75605">
        <ele>342.4</ele>
        <time>2023-01-26T13:45:55Z</time>
      </trkpt>
      <trkpt lat="44.23946" lon="1.7561">
        <ele>342.5</ele>
        <time>2023-01-26T13:45:56Z</time>
      </trkpt>
      <trkpt lat="44.23942" lon="1.75619">
        <ele>342.5</ele>
        <time>2023-01-26T13:45:58Z</time>
      </trkpt>
      <trkpt lat="44.23939" lon="1.75626">
        <ele>342.5</ele>
        <time>2023-01-26T13:45:59Z</time>
      </trkpt>
      <trkpt lat="44.23938" lon="1.75631">
        <ele>342.5</ele>
        <time>2023-01-26T13:46:00Z</time>
      </trkpt>
      <trkpt lat="44.23935" lon="1.75639">
        <ele>342.6</ele>
        <time>2023-01-26T13:46:02Z</time>
      </trkpt>
      <trkpt lat="44.23931" lon="1.7565">
        <ele>342.7</ele>
        <time>2023-01-26T13:46:03Z</time>
      </trkpt>
      <trkpt lat="44.23928" lon="1.75658">
        <ele>342.8</ele>
        <time>2023-01-26T13:46:05Z</time>
      </trkpt>
      <trkpt lat="44.23925" lon="1.75663">
        <ele>342.9</ele>
        <time>2023-01-26T13:46:06Z</time>
      </trkpt>
      <trkpt lat="44.2392" lon="1.75673">
        <ele>342.9</ele>
        <time>2023-01-26T13:46:08Z</time>
      </trkpt>
      <trkpt lat="44.23917" lon="1.75679">
        <ele>342.9</ele>
        <time>2023-01-26T13:46:09Z</time>
      </trkpt>
      <trkpt lat="44.23915" lon="1.75685">
        <ele>342.9</ele>
        <time>2023-01-26T13:46:10Z</time>
      </trkpt>
      <trkpt lat="44.23912" lon="1.75691">
        <ele>342.8</ele>
        <time>2023-01-26T13:46:11Z</time>
      </trkpt>
      <trkpt lat="44.2391" lon="1.75697">
        <ele>342.7</ele>
        <time>2023-01-26T13:46:12Z</time>
      </trkpt>
      <trkpt lat="44.23908" lon="1.75702">
        <ele>342.7</ele>
        <time>2023-01-26T13:46:13Z</time>
      </trkpt>
      <trkpt lat="44.23905" lon="1.75713">
        <ele>342.5</ele>
        <time>2023-01-26T13:46:15Z</time>
      </trkpt>
      <trkpt lat="44.23901" lon="1.75724">
        <ele>342.3</ele>
        <time>2023-01-26T13:46:16Z</time>
      </trkpt>
      <trkpt lat="44.23898" lon="1.7573">
        <ele>342.2</ele>
        <time>2023-01-26T13:46:18Z</time>
      </trkpt>
      <trkpt lat="44.23895" lon="1.75738">
        <ele>342.1</ele>
        <time>2023-01-26T13:46:19Z</time>
      </trkpt>
      <trkpt lat="44.23893" lon="1.75745">
        <ele>342</ele>
        <time>2023-01-26T13:46:20Z</time>
      </trkpt>
      <trkpt lat="44.23891" lon="1.7575">
        <ele>341.9</ele>
        <time>2023-01-26T13:46:21Z</time>
      </trkpt>
      <trkpt lat="44.23889" lon="1.75756">
        <ele>341.7</ele>
        <time>2023-01-26T13:46:22Z</time>
      </trkpt>
      <trkpt lat="44.23883" lon="1.75771">
        <ele>341.3</ele>
        <time>2023-01-26T13:46:24Z</time>
      </trkpt>
      <trkpt lat="44.23877" lon="1.75782">
        <ele>341</ele>
        <time>2023-01-26T13:46:26Z</time>
      </trkpt>
      <trkpt lat="44.23874" lon="1.75789">
        <ele>340.8</ele>
        <time>2023-01-26T13:46:27Z</time>
      </trkpt>
      <trkpt lat="44.2387" lon="1.75797">
        <ele>340.7</ele>
        <time>2023-01-26T13:46:28Z</time>
      </trkpt>
      <trkpt lat="44.23867" lon="1.75804">
        <ele>340.5</ele>
        <time>2023-01-26T13:46:29Z</time>
      </trkpt>
      <trkpt lat="44.23864" lon="1.75811">
        <ele>340.4</ele>
        <time>2023-01-26T13:46:30Z</time>
      </trkpt>
      <trkpt lat="44.23861" lon="1.75819">
        <ele>340.3</ele>
        <time>2023-01-26T13:46:31Z</time>
      </trkpt>
      <trkpt lat="44.23858" lon="1.75827">
        <ele>340.2</ele>
        <time>2023-01-26T13:46:32Z</time>
      </trkpt>
      <trkpt lat="44.23855" lon="1.75834">
        <ele>340.1</ele>
        <time>2023-01-26T13:46:33Z</time>
      </trkpt>
      <trkpt lat="44.23852" lon="1.75842">
        <ele>340</ele>
        <time>2023-01-26T13:46:34Z</time>
      </trkpt>
      <trkpt lat="44.23849" lon="1.75849">
        <ele>339.9</ele>
        <time>2023-01-26T13:46:35Z</time>
      </trkpt>
      <trkpt lat="44.23845" lon="1.75856">
        <ele>339.7</ele>
        <time>2023-01-26T13:46:36Z</time>
      </trkpt>
      <trkpt lat="44.23842" lon="1.75864">
        <ele>339.5</ele>
        <time>2023-01-26T13:46:37Z</time>
      </trkpt>
      <trkpt lat="44.23839" lon="1.75871">
        <ele>339.3</ele>
        <time>2023-01-26T13:46:38Z</time>
      </trkpt>
      <trkpt lat="44.23836" lon="1.75878">
        <ele>339.1</ele>
        <time>2023-01-26T13:46:39Z</time>
      </trkpt>
      <trkpt lat="44.23833" lon="1.75885">
        <ele>339</ele>
        <time>2023-01-26T13:46:40Z</time>
      </trkpt>
      <trkpt lat="44.2383" lon="1.75891">
        <ele>338.9</ele>
        <time>2023-01-26T13:46:41Z</time>
      </trkpt>
      <trkpt lat="44.23826" lon="1.75898">
        <ele>338.8</ele>
        <time>2023-01-26T13:46:42Z</time>
      </trkpt>
      <trkpt lat="44.23823" lon="1.75905">
        <ele>338.7</ele>
        <time>2023-01-26T13:46:43Z</time>
      </trkpt>
      <trkpt lat="44.2382" lon="1.75911">
        <ele>338.5</ele>
        <time>2023-01-26T13:46:44Z</time>
      </trkpt>
      <trkpt lat="44.23817" lon="1.75918">
        <ele>338.4</ele>
        <time>2023-01-26T13:46:45Z</time>
      </trkpt>
      <trkpt lat="44.23813" lon="1.75925">
        <ele>338.3</ele>
        <time>2023-01-26T13:46:46Z</time>
      </trkpt>
      <trkpt lat="44.2381" lon="1.75932">
        <ele>338.2</ele>
        <time>2023-01-26T13:46:47Z</time>
      </trkpt>
      <trkpt lat="44.23807" lon="1.75939">
        <ele>338.1</ele>
        <time>2023-01-26T13:46:48Z</time>
      </trkpt>
      <trkpt lat="44.23804" lon="1.75945">
        <ele>338</ele>
        <time>2023-01-26T13:46:49Z</time>
      </trkpt>
      <trkpt lat="44.238" lon="1.75951">
        <ele>337.9</ele>
        <time>2023-01-26T13:46:50Z</time>
      </trkpt>
      <trkpt lat="44.23796" lon="1.75957">
        <ele>337.8</ele>
        <time>2023-01-26T13:46:51Z</time>
      </trkpt>
      <trkpt lat="44.23793" lon="1.75963">
        <ele>337.7</ele>
        <time>2023-01-26T13:46:52Z</time>
      </trkpt>
      <trkpt lat="44.2379" lon="1.7597">
        <ele>337.6</ele>
        <time>2023-01-26T13:46:53Z</time>
      </trkpt>
      <trkpt lat="44.23787" lon="1.75977">
        <ele>337.5</ele>
        <time>2023-01-26T13:46:54Z</time>
      </trkpt>
      <trkpt lat="44.23784" lon="1.75985">
        <ele>337.3</ele>
        <time>2023-01-26T13:46:55Z</time>
      </trkpt>
      <trkpt lat="44.23781" lon="1.75991">
        <ele>337.2</ele>
        <time>2023-01-26T13:46:56Z</time>
      </trkpt>
      <trkpt lat="44.23778" lon="1.75998">
        <ele>337.1</ele>
        <time>2023-01-26T13:46:57Z</time>
      </trkpt>
      <trkpt lat="44.23775" lon="1.76004">
        <ele>337</ele>
        <time>2023-01-26T13:46:58Z</time>
      </trkpt>
      <trkpt lat="44.23773" lon="1.76012">
        <ele>336.9</ele>
        <time>2023-01-26T13:46:59Z</time>
      </trkpt>
      <trkpt lat="44.2377" lon="1.76019">
        <ele>336.8</ele>
        <time>2023-01-26T13:47:00Z</time>
      </trkpt>
      <trkpt lat="44.23768" lon="1.76026">
        <ele>336.7</ele>
        <time>2023-01-26T13:47:01Z</time>
      </trkpt>
      <trkpt lat="44.23765" lon="1.76034">
        <ele>336.5</ele>
        <time>2023-01-26T13:47:02Z</time>
      </trkpt>
      <trkpt lat="44.23763" lon="1.76041">
        <ele>336.3</ele>
        <time>2023-01-26T13:47:03Z</time>
      </trkpt>
      <trkpt lat="44.2376" lon="1.76048">
        <ele>336.1</ele>
        <time>2023-01-26T13:47:04Z</time>
      </trkpt>
      <trkpt lat="44.23757" lon="1.76056">
        <ele>335.9</ele>
        <time>2023-01-26T13:47:05Z</time>
      </trkpt>
      <trkpt lat="44.23755" lon="1.76063">
        <ele>335.8</ele>
        <time>2023-01-26T13:47:06Z</time>
      </trkpt>
      <trkpt lat="44.23752" lon="1.7607">
        <ele>335.5</ele>
        <time>2023-01-26T13:47:07Z</time>
      </trkpt>
      <trkpt lat="44.23749" lon="1.76078">
        <ele>335.2</ele>
        <time>2023-01-26T13:47:08Z</time>
      </trkpt>
      <trkpt lat="44.23746" lon="1.76085">
        <ele>334.9</ele>
        <time>2023-01-26T13:47:09Z</time>
      </trkpt>
      <trkpt lat="44.23744" lon="1.76093">
        <ele>334.6</ele>
        <time>2023-01-26T13:47:10Z</time>
      </trkpt>
      <trkpt lat="44.23741" lon="1.76101">
        <ele>334.2</ele>
        <time>2023-01-26T13:47:11Z</time>
      </trkpt>
      <trkpt lat="44.23739" lon="1.76109">
        <ele>333.8</ele>
        <time>2023-01-26T13:47:12Z</time>
      </trkpt>
      <trkpt lat="44.23736" lon="1.76117">
        <ele>333.4</ele>
        <time>2023-01-26T13:47:13Z</time>
      </trkpt>
      <trkpt lat="44.23732" lon="1.76124">
        <ele>332.9</ele>
        <time>2023-01-26T13:47:14Z</time>
      </trkpt>
      <trkpt lat="44.23729" lon="1.76132">
        <ele>332.5</ele>
        <time>2023-01-26T13:47:15Z</time>
      </trkpt>
      <trkpt lat="44.23726" lon="1.7614">
        <ele>332</ele>
        <time>2023-01-26T13:47:16Z</time>
      </trkpt>
      <trkpt lat="44.23724" lon="1.76148">
        <ele>331.4</ele>
        <time>2023-01-26T13:47:17Z</time>
      </trkpt>
      <trkpt lat="44.2372" lon="1.76155">
        <ele>330.8</ele>
        <time>2023-01-26T13:47:18Z</time>
      </trkpt>
      <trkpt lat="44.23716" lon="1.76162">
        <ele>330.1</ele>
        <time>2023-01-26T13:47:19Z</time>
      </trkpt>
      <trkpt lat="44.23712" lon="1.76169">
        <ele>329.4</ele>
        <time>2023-01-26T13:47:20Z</time>
      </trkpt>
      <trkpt lat="44.23708" lon="1.76176">
        <ele>328.6</ele>
        <time>2023-01-26T13:47:21Z</time>
      </trkpt>
      <trkpt lat="44.23705" lon="1.76183">
        <ele>327.9</ele>
        <time>2023-01-26T13:47:22Z</time>
      </trkpt>
      <trkpt lat="44.23703" lon="1.76188">
        <ele>327.4</ele>
        <time>2023-01-26T13:47:23Z</time>
      </trkpt>
      <trkpt lat="44.23702" lon="1.76192">
        <ele>327</ele>
        <time>2023-01-26T13:47:24Z</time>
      </trkpt>
      <trkpt lat="44.23701" lon="1.76198">
        <ele>326.5</ele>
        <time>2023-01-26T13:47:25Z</time>
      </trkpt>
      <trkpt lat="44.237" lon="1.76201">
        <ele>326.3</ele>
        <time>2023-01-26T13:47:26Z</time>
      </trkpt>
      <trkpt lat="44.237" lon="1.76207">
        <ele>325.7</ele>
        <time>2023-01-26T13:47:27Z</time>
      </trkpt>
      <trkpt lat="44.237" lon="1.76213">
        <ele>325.3</ele>
        <time>2023-01-26T13:47:28Z</time>
      </trkpt>
      <trkpt lat="44.23699" lon="1.76219">
        <ele>324.5</ele>
        <time>2023-01-26T13:47:29Z</time>
      </trkpt>
      <trkpt lat="44.23699" lon="1.76223">
        <ele>324.2</ele>
        <time>2023-01-26T13:47:30Z</time>
      </trkpt>
      <trkpt lat="44.23699" lon="1.76231">
        <ele>323.7</ele>
        <time>2023-01-26T13:47:31Z</time>
      </trkpt>
      <trkpt lat="44.237" lon="1.7624">
        <ele>323</ele>
        <time>2023-01-26T13:47:32Z</time>
      </trkpt>
      <trkpt lat="44.23701" lon="1.76248">
        <ele>322.4</ele>
        <time>2023-01-26T13:47:33Z</time>
      </trkpt>
      <trkpt lat="44.23702" lon="1.76257">
        <ele>321.9</ele>
        <time>2023-01-26T13:47:34Z</time>
      </trkpt>
      <trkpt lat="44.23704" lon="1.76267">
        <ele>321.3</ele>
        <time>2023-01-26T13:47:35Z</time>
      </trkpt>
      <trkpt lat="44.23705" lon="1.76275">
        <ele>320.9</ele>
        <time>2023-01-26T13:47:36Z</time>
      </trkpt>
      <trkpt lat="44.23706" lon="1.76283">
        <ele>320.5</ele>
        <time>2023-01-26T13:47:37Z</time>
      </trkpt>
      <trkpt lat="44.23706" lon="1.76291">
        <ele>320.2</ele>
        <time>2023-01-26T13:47:38Z</time>
      </trkpt>
      <trkpt lat="44.23707" lon="1.763">
        <ele>319.9</ele>
        <time>2023-01-26T13:47:39Z</time>
      </trkpt>
      <trkpt lat="44.23708" lon="1.76308">
        <ele>319.6</ele>
        <time>2023-01-26T13:47:40Z</time>
      </trkpt>
      <trkpt lat="44.23709" lon="1.76316">
        <ele>319.4</ele>
        <time>2023-01-26T13:47:41Z</time>
      </trkpt>
      <trkpt lat="44.23711" lon="1.76324">
        <ele>319.1</ele>
        <time>2023-01-26T13:47:42Z</time>
      </trkpt>
      <trkpt lat="44.23713" lon="1.76332">
        <ele>318.9</ele>
        <time>2023-01-26T13:47:43Z</time>
      </trkpt>
      <trkpt lat="44.23715" lon="1.76339">
        <ele>318.6</ele>
        <time>2023-01-26T13:47:44Z</time>
      </trkpt>
      <trkpt lat="44.23717" lon="1.76347">
        <ele>318.4</ele>
        <time>2023-01-26T13:47:45Z</time>
      </trkpt>
      <trkpt lat="44.23718" lon="1.76354">
        <ele>318.1</ele>
        <time>2023-01-26T13:47:46Z</time>
      </trkpt>
      <trkpt lat="44.2372" lon="1.76359">
        <ele>317.9</ele>
        <time>2023-01-26T13:47:47Z</time>
      </trkpt>
      <trkpt lat="44.23721" lon="1.76363">
        <ele>317.7</ele>
        <time>2023-01-26T13:47:48Z</time>
      </trkpt>
      <trkpt lat="44.23722" lon="1.76369">
        <ele>317.5</ele>
        <time>2023-01-26T13:47:49Z</time>
      </trkpt>
      <trkpt lat="44.23722" lon="1.76374">
        <ele>317.3</ele>
        <time>2023-01-26T13:47:50Z</time>
      </trkpt>
      <trkpt lat="44.23722" lon="1.76378">
        <ele>317.2</ele>
        <time>2023-01-26T13:47:51Z</time>
      </trkpt>
      <trkpt lat="44.23722" lon="1.76381">
        <ele>317.1</ele>
        <time>2023-01-26T13:47:52Z</time>
      </trkpt>
      <trkpt lat="44.23721" lon="1.76381">
        <ele>317.1</ele>
        <time>2023-01-26T13:47:53Z</time>
      </trkpt>
      <trkpt lat="44.23721" lon="1.76381">
        <ele>317</ele>
        <time>2023-01-26T13:47:55Z</time>
      </trkpt>
      <trkpt lat="44.23721" lon="1.76381">
        <ele>317</ele>
        <time>2023-01-26T13:47:56Z</time>
      </trkpt>
      <trkpt lat="44.23721" lon="1.76381">
        <ele>317</ele>
        <time>2023-01-26T13:47:57Z</time>
      </trkpt>
      <trkpt lat="44.23721" lon="1.76381">
        <ele>317</ele>
        <time>2023-01-26T13:47:58Z</time>
      </trkpt>
      <trkpt lat="44.23721" lon="1.76381">
        <ele>317</ele>
        <time>2023-01-26T13:48:00Z</time>
      </trkpt>
      <trkpt lat="44.23721" lon="1.76381">
        <ele>317</ele>
        <time>2023-01-26T13:48:02Z</time>
      </trkpt>
      <trkpt lat="44.23721" lon="1.76381">
        <ele>317</ele>
        <time>2023-01-26T13:48:03Z</time>
      </trkpt>
      <trkpt lat="44.2372" lon="1.76393">
        <ele>316.7</ele>
        <time>2023-01-26T13:48:49Z</time>
      </trkpt>
      <trkpt lat="44.23723" lon="1.76395">
        <ele>316.7</ele>
        <time>2023-01-26T13:48:50Z</time>
      </trkpt>
      <trkpt lat="44.23724" lon="1.76394">
        <ele>316.7</ele>
        <time>2023-01-26T13:48:51Z</time>
      </trkpt>
      <trkpt lat="44.23724" lon="1.76393">
        <ele>316.7</ele>
        <time>2023-01-26T13:48:52Z</time>
      </trkpt>
      <trkpt lat="44.23724" lon="1.76393">
        <ele>316.7</ele>
        <time>2023-01-26T13:48:54Z</time>
      </trkpt>
      <trkpt lat="44.23724" lon="1.76393">
        <ele>316.7</ele>
        <time>2023-01-26T13:48:55Z</time>
      </trkpt>
      <trkpt lat="44.23724" lon="1.76393">
        <ele>316.7</ele>
        <time>2023-01-26T13:48:56Z</time>
      </trkpt>
      <trkpt lat="44.23724" lon="1.76392">
        <ele>316.7</ele>
        <time>2023-01-26T13:48:57Z</time>
      </trkpt>
      <trkpt lat="44.23724" lon="1.76392">
        <ele>316.7</ele>
        <time>2023-01-26T13:48:58Z</time>
      </trkpt>
      <trkpt lat="44.23723" lon="1.76392">
        <ele>316.7</ele>
        <time>2023-01-26T13:48:59Z</time>
      </trkpt>
      <trkpt lat="44.23723" lon="1.76391">
        <ele>316.7</ele>
        <time>2023-01-26T13:49:00Z</time>
      </trkpt>
      <trkpt lat="44.23723" lon="1.76391">
        <ele>316.7</ele>
        <time>2023-01-26T13:49:01Z</time>
      </trkpt>
      <trkpt lat="44.23723" lon="1.76391">
        <ele>316.7</ele>
        <time>2023-01-26T13:49:02Z</time>
      </trkpt>
      <trkpt lat="44.23723" lon="1.76391">
        <ele>316.7</ele>
        <time>2023-01-26T13:49:21Z</time>
      </trkpt>
      <trkpt lat="44.23723" lon="1.7639">
        <ele>316.7</ele>
        <time>2023-01-26T13:49:23Z</time>
      </trkpt>
      <trkpt lat="44.23723" lon="1.7639">
        <ele>316.7</ele>
        <time>2023-01-26T13:49:25Z</time>
      </trkpt>
      <trkpt lat="44.23723" lon="1.7639">
        <ele>316.7</ele>
        <time>2023-01-26T13:49:26Z</time>
      </trkpt>
      <trkpt lat="44.23721" lon="1.76391">
        <ele>316.7</ele>
        <time>2023-01-26T13:49:28Z</time>
      </trkpt>
      <trkpt lat="44.2372" lon="1.76391">
        <ele>316.7</ele>
        <time>2023-01-26T13:49:29Z</time>
      </trkpt>
      <trkpt lat="44.23715" lon="1.76391">
        <ele>316.8</ele>
        <time>2023-01-26T13:49:30Z</time>
      </trkpt>
      <trkpt lat="44.23711" lon="1.76391">
        <ele>316.8</ele>
        <time>2023-01-26T13:49:32Z</time>
      </trkpt>
      <trkpt lat="44.23708" lon="1.76391">
        <ele>316.8</ele>
        <time>2023-01-26T13:49:33Z</time>
      </trkpt>
      <trkpt lat="44.23704" lon="1.76392">
        <ele>316.8</ele>
        <time>2023-01-26T13:49:34Z</time>
      </trkpt>
      <trkpt lat="44.23697" lon="1.76393">
        <ele>316.8</ele>
        <time>2023-01-26T13:49:36Z</time>
      </trkpt>
      <trkpt lat="44.23693" lon="1.76393">
        <ele>316.9</ele>
        <time>2023-01-26T13:49:37Z</time>
      </trkpt>
      <trkpt lat="44.23684" lon="1.76391">
        <ele>316.9</ele>
        <time>2023-01-26T13:49:39Z</time>
      </trkpt>
      <trkpt lat="44.23678" lon="1.7639">
        <ele>317</ele>
        <time>2023-01-26T13:49:40Z</time>
      </trkpt>
      <trkpt lat="44.23673" lon="1.76389">
        <ele>317.1</ele>
        <time>2023-01-26T13:49:41Z</time>
      </trkpt>
      <trkpt lat="44.23666" lon="1.76389">
        <ele>317.2</ele>
        <time>2023-01-26T13:49:43Z</time>
      </trkpt>
      <trkpt lat="44.23663" lon="1.76391">
        <ele>317.3</ele>
        <time>2023-01-26T13:49:44Z</time>
      </trkpt>
      <trkpt lat="44.2366" lon="1.76393">
        <ele>317.3</ele>
        <time>2023-01-26T13:49:45Z</time>
      </trkpt>
      <trkpt lat="44.23654" lon="1.76394">
        <ele>317.4</ele>
        <time>2023-01-26T13:49:46Z</time>
      </trkpt>
      <trkpt lat="44.23649" lon="1.76394">
        <ele>317.5</ele>
        <time>2023-01-26T13:49:48Z</time>
      </trkpt>
      <trkpt lat="44.23645" lon="1.76394">
        <ele>317.6</ele>
        <time>2023-01-26T13:49:49Z</time>
      </trkpt>
      <trkpt lat="44.23639" lon="1.76394">
        <ele>317.8</ele>
        <time>2023-01-26T13:49:50Z</time>
      </trkpt>
      <trkpt lat="44.23631" lon="1.76394">
        <ele>318</ele>
        <time>2023-01-26T13:49:52Z</time>
      </trkpt>
      <trkpt lat="44.23628" lon="1.76395">
        <ele>318.1</ele>
        <time>2023-01-26T13:49:53Z</time>
      </trkpt>
      <trkpt lat="44.23624" lon="1.76395">
        <ele>318.2</ele>
        <time>2023-01-26T13:49:54Z</time>
      </trkpt>
      <trkpt lat="44.2362" lon="1.76395">
        <ele>318.4</ele>
        <time>2023-01-26T13:49:56Z</time>
      </trkpt>
      <trkpt lat="44.23617" lon="1.76394">
        <ele>318.4</ele>
        <time>2023-01-26T13:49:57Z</time>
      </trkpt>
      <trkpt lat="44.23615" lon="1.7639">
        <ele>318.3</ele>
        <time>2023-01-26T13:49:59Z</time>
      </trkpt>
      <trkpt lat="44.23619" lon="1.7639">
        <ele>318.3</ele>
        <time>2023-01-26T13:50:00Z</time>
      </trkpt>
      <trkpt lat="44.2362" lon="1.7639">
        <ele>318.2</ele>
        <time>2023-01-26T13:50:01Z</time>
      </trkpt>
      <trkpt lat="44.23626" lon="1.76392">
        <ele>318.1</ele>
        <time>2023-01-26T13:50:03Z</time>
      </trkpt>
      <trkpt lat="44.23629" lon="1.76392">
        <ele>318</ele>
        <time>2023-01-26T13:50:04Z</time>
      </trkpt>
      <trkpt lat="44.23634" lon="1.76392">
        <ele>317.9</ele>
        <time>2023-01-26T13:50:05Z</time>
      </trkpt>
      <trkpt lat="44.23641" lon="1.76392">
        <ele>317.7</ele>
        <time>2023-01-26T13:50:07Z</time>
      </trkpt>
      <trkpt lat="44.23644" lon="1.76392">
        <ele>317.6</ele>
        <time>2023-01-26T13:50:08Z</time>
      </trkpt>
      <trkpt lat="44.2365" lon="1.76394">
        <ele>317.5</ele>
        <time>2023-01-26T13:50:10Z</time>
      </trkpt>
      <trkpt lat="44.23652" lon="1.76398">
        <ele>317.5</ele>
        <time>2023-01-26T13:50:11Z</time>
      </trkpt>
      <trkpt lat="44.23653" lon="1.76404">
        <ele>317.5</ele>
        <time>2023-01-26T13:50:13Z</time>
      </trkpt>
      <trkpt lat="44.23654" lon="1.76408">
        <ele>317.5</ele>
        <time>2023-01-26T13:50:14Z</time>
      </trkpt>
      <trkpt lat="44.23654" lon="1.76409">
        <ele>317.5</ele>
        <time>2023-01-26T13:50:15Z</time>
      </trkpt>
      <trkpt lat="44.23654" lon="1.76409">
        <ele>317.5</ele>
        <time>2023-01-26T13:50:16Z</time>
      </trkpt>
      <trkpt lat="44.23654" lon="1.76408">
        <ele>317.5</ele>
        <time>2023-01-26T13:50:18Z</time>
      </trkpt>
      <trkpt lat="44.23654" lon="1.76406">
        <ele>317.5</ele>
        <time>2023-01-26T13:50:19Z</time>
      </trkpt>
      <trkpt lat="44.23654" lon="1.76405">
        <ele>317.5</ele>
        <time>2023-01-26T13:50:21Z</time>
      </trkpt>
      <trkpt lat="44.23654" lon="1.76403">
        <ele>317.5</ele>
        <time>2023-01-26T13:50:22Z</time>
      </trkpt>
      <trkpt lat="44.23653" lon="1.76402">
        <ele>317.5</ele>
        <time>2023-01-26T13:50:23Z</time>
      </trkpt>
      <trkpt lat="44.23653" lon="1.764">
        <ele>317.5</ele>
        <time>2023-01-26T13:50:25Z</time>
      </trkpt>
      <trkpt lat="44.23653" lon="1.76399">
        <ele>317.5</ele>
        <time>2023-01-26T13:50:53Z</time>
      </trkpt>
      <trkpt lat="44.23653" lon="1.76398">
        <ele>317.5</ele>
        <time>2023-01-26T13:50:55Z</time>
      </trkpt>
      <trkpt lat="44.23653" lon="1.76396">
        <ele>317.5</ele>
        <time>2023-01-26T13:50:56Z</time>
      </trkpt>
      <trkpt lat="44.23652" lon="1.76392">
        <ele>317.5</ele>
        <time>2023-01-26T13:50:58Z</time>
      </trkpt>
      <trkpt lat="44.2365" lon="1.7639">
        <ele>317.5</ele>
        <time>2023-01-26T13:50:59Z</time>
      </trkpt>
      <trkpt lat="44.23647" lon="1.7639">
        <ele>317.6</ele>
        <time>2023-01-26T13:51:00Z</time>
      </trkpt>
      <trkpt lat="44.23641" lon="1.76391">
        <ele>317.7</ele>
        <time>2023-01-26T13:51:02Z</time>
      </trkpt>
      <trkpt lat="44.23639" lon="1.76391">
        <ele>317.8</ele>
        <time>2023-01-26T13:51:03Z</time>
      </trkpt>
      <trkpt lat="44.23633" lon="1.76392">
        <ele>318</ele>
        <time>2023-01-26T13:51:05Z</time>
      </trkpt>
      <trkpt lat="44.2363" lon="1.76392">
        <ele>318.1</ele>
        <time>2023-01-26T13:51:06Z</time>
      </trkpt>
      <trkpt lat="44.23626" lon="1.76392">
        <ele>318.2</ele>
        <time>2023-01-26T13:51:07Z</time>
      </trkpt>
      <trkpt lat="44.23621" lon="1.76391">
        <ele>318.3</ele>
        <time>2023-01-26T13:51:08Z</time>
      </trkpt>
      <trkpt lat="44.23617" lon="1.76391">
        <ele>318.5</ele>
        <time>2023-01-26T13:51:09Z</time>
      </trkpt>
      <trkpt lat="44.23613" lon="1.76391">
        <ele>318.6</ele>
        <time>2023-01-26T13:51:10Z</time>
      </trkpt>
      <trkpt lat="44.2361" lon="1.76391">
        <ele>318.7</ele>
        <time>2023-01-26T13:51:11Z</time>
      </trkpt>
      <trkpt lat="44.23606" lon="1.76391">
        <ele>318.8</ele>
        <time>2023-01-26T13:51:12Z</time>
      </trkpt>
      <trkpt lat="44.23601" lon="1.76391">
        <ele>318.9</ele>
        <time>2023-01-26T13:51:13Z</time>
      </trkpt>
      <trkpt lat="44.23595" lon="1.76391">
        <ele>319</ele>
        <time>2023-01-26T13:51:15Z</time>
      </trkpt>
      <trkpt lat="44.23591" lon="1.76391">
        <ele>319.1</ele>
        <time>2023-01-26T13:51:16Z</time>
      </trkpt>
      <trkpt lat="44.23587" lon="1.7639">
        <ele>319.1</ele>
        <time>2023-01-26T13:51:17Z</time>
      </trkpt>
      <trkpt lat="44.23582" lon="1.76389">
        <ele>319.2</ele>
        <time>2023-01-26T13:51:18Z</time>
      </trkpt>
      <trkpt lat="44.23576" lon="1.76389">
        <ele>319.3</ele>
        <time>2023-01-26T13:51:20Z</time>
      </trkpt>
      <trkpt lat="44.23573" lon="1.7639">
        <ele>319.3</ele>
        <time>2023-01-26T13:51:21Z</time>
      </trkpt>
      <trkpt lat="44.2357" lon="1.7639">
        <ele>319.3</ele>
        <time>2023-01-26T13:51:22Z</time>
      </trkpt>
      <trkpt lat="44.23566" lon="1.76388">
        <ele>319.4</ele>
        <time>2023-01-26T13:51:24Z</time>
      </trkpt>
      <trkpt lat="44.23563" lon="1.76387">
        <ele>319.4</ele>
        <time>2023-01-26T13:51:25Z</time>
      </trkpt>
      <trkpt lat="44.23559" lon="1.76386">
        <ele>319.4</ele>
        <time>2023-01-26T13:51:26Z</time>
      </trkpt>
      <trkpt lat="44.23555" lon="1.76384">
        <ele>319.3</ele>
        <time>2023-01-26T13:51:27Z</time>
      </trkpt>
      <trkpt lat="44.23549" lon="1.76382">
        <ele>319.3</ele>
        <time>2023-01-26T13:51:28Z</time>
      </trkpt>
      <trkpt lat="44.23543" lon="1.7638">
        <ele>319.2</ele>
        <time>2023-01-26T13:51:29Z</time>
      </trkpt>
      <trkpt lat="44.23535" lon="1.76378">
        <ele>319</ele>
        <time>2023-01-26T13:51:31Z</time>
      </trkpt>
      <trkpt lat="44.2353" lon="1.76377">
        <ele>318.9</ele>
        <time>2023-01-26T13:51:32Z</time>
      </trkpt>
      <trkpt lat="44.23525" lon="1.76376">
        <ele>318.8</ele>
        <time>2023-01-26T13:51:33Z</time>
      </trkpt>
      <trkpt lat="44.2352" lon="1.76375">
        <ele>318.7</ele>
        <time>2023-01-26T13:51:34Z</time>
      </trkpt>
      <trkpt lat="44.23515" lon="1.76374">
        <ele>318.6</ele>
        <time>2023-01-26T13:51:35Z</time>
      </trkpt>
      <trkpt lat="44.23509" lon="1.76374">
        <ele>318.4</ele>
        <time>2023-01-26T13:51:36Z</time>
      </trkpt>
      <trkpt lat="44.23504" lon="1.76374">
        <ele>318.3</ele>
        <time>2023-01-26T13:51:37Z</time>
      </trkpt>
      <trkpt lat="44.23499" lon="1.76373">
        <ele>318.3</ele>
        <time>2023-01-26T13:51:38Z</time>
      </trkpt>
      <trkpt lat="44.23494" lon="1.76373">
        <ele>318.2</ele>
        <time>2023-01-26T13:51:39Z</time>
      </trkpt>
      <trkpt lat="44.23489" lon="1.76373">
        <ele>318.2</ele>
        <time>2023-01-26T13:51:40Z</time>
      </trkpt>
      <trkpt lat="44.23484" lon="1.76372">
        <ele>318.2</ele>
        <time>2023-01-26T13:51:41Z</time>
      </trkpt>
      <trkpt lat="44.23479" lon="1.76371">
        <ele>318.2</ele>
        <time>2023-01-26T13:51:42Z</time>
      </trkpt>
      <trkpt lat="44.23474" lon="1.76371">
        <ele>318.2</ele>
        <time>2023-01-26T13:51:43Z</time>
      </trkpt>
      <trkpt lat="44.23469" lon="1.7637">
        <ele>318.3</ele>
        <time>2023-01-26T13:51:44Z</time>
      </trkpt>
      <trkpt lat="44.23464" lon="1.76369">
        <ele>318.4</ele>
        <time>2023-01-26T13:51:45Z</time>
      </trkpt>
      <trkpt lat="44.23459" lon="1.76369">
        <ele>318.4</ele>
        <time>2023-01-26T13:51:46Z</time>
      </trkpt>
      <trkpt lat="44.23454" lon="1.76369">
        <ele>318.5</ele>
        <time>2023-01-26T13:51:47Z</time>
      </trkpt>
      <trkpt lat="44.23451" lon="1.76368">
        <ele>318.6</ele>
        <time>2023-01-26T13:51:48Z</time>
      </trkpt>
      <trkpt lat="44.23446" lon="1.76368">
        <ele>318.6</ele>
        <time>2023-01-26T13:51:49Z</time>
      </trkpt>
      <trkpt lat="44.23441" lon="1.76368">
        <ele>318.7</ele>
        <time>2023-01-26T13:51:50Z</time>
      </trkpt>
      <trkpt lat="44.23436" lon="1.76368">
        <ele>318.7</ele>
        <time>2023-01-26T13:51:51Z</time>
      </trkpt>
      <trkpt lat="44.23431" lon="1.76368">
        <ele>318.8</ele>
        <time>2023-01-26T13:51:52Z</time>
      </trkpt>
      <trkpt lat="44.23428" lon="1.76368">
        <ele>318.8</ele>
        <time>2023-01-26T13:51:53Z</time>
      </trkpt>
      <trkpt lat="44.23416" lon="1.7637">
        <ele>318.7</ele>
        <time>2023-01-26T13:51:55Z</time>
      </trkpt>
      <trkpt lat="44.2341" lon="1.76372">
        <ele>318.6</ele>
        <time>2023-01-26T13:51:56Z</time>
      </trkpt>
      <trkpt lat="44.23406" lon="1.76373">
        <ele>318.5</ele>
        <time>2023-01-26T13:51:57Z</time>
      </trkpt>
      <trkpt lat="44.234" lon="1.76376">
        <ele>318.3</ele>
        <time>2023-01-26T13:51:58Z</time>
      </trkpt>
      <trkpt lat="44.2339" lon="1.76379">
        <ele>318.1</ele>
        <time>2023-01-26T13:52:00Z</time>
      </trkpt>
      <trkpt lat="44.23386" lon="1.76382">
        <ele>317.9</ele>
        <time>2023-01-26T13:52:01Z</time>
      </trkpt>
      <trkpt lat="44.2338" lon="1.76383">
        <ele>317.8</ele>
        <time>2023-01-26T13:52:02Z</time>
      </trkpt>
      <trkpt lat="44.23375" lon="1.76384">
        <ele>317.6</ele>
        <time>2023-01-26T13:52:03Z</time>
      </trkpt>
      <trkpt lat="44.23369" lon="1.76385">
        <ele>317.5</ele>
        <time>2023-01-26T13:52:04Z</time>
      </trkpt>
      <trkpt lat="44.23364" lon="1.76387">
        <ele>317.3</ele>
        <time>2023-01-26T13:52:05Z</time>
      </trkpt>
      <trkpt lat="44.23358" lon="1.76387">
        <ele>317.2</ele>
        <time>2023-01-26T13:52:06Z</time>
      </trkpt>
      <trkpt lat="44.23351" lon="1.76388">
        <ele>317.1</ele>
        <time>2023-01-26T13:52:07Z</time>
      </trkpt>
      <trkpt lat="44.23346" lon="1.76388">
        <ele>317</ele>
        <time>2023-01-26T13:52:08Z</time>
      </trkpt>
      <trkpt lat="44.23339" lon="1.76388">
        <ele>316.9</ele>
        <time>2023-01-26T13:52:09Z</time>
      </trkpt>
      <trkpt lat="44.23333" lon="1.76388">
        <ele>316.8</ele>
        <time>2023-01-26T13:52:10Z</time>
      </trkpt>
      <trkpt lat="44.23327" lon="1.76388">
        <ele>316.7</ele>
        <time>2023-01-26T13:52:11Z</time>
      </trkpt>
      <trkpt lat="44.23321" lon="1.76388">
        <ele>316.6</ele>
        <time>2023-01-26T13:52:12Z</time>
      </trkpt>
      <trkpt lat="44.23315" lon="1.76387">
        <ele>316.5</ele>
        <time>2023-01-26T13:52:13Z</time>
      </trkpt>
      <trkpt lat="44.23309" lon="1.76387">
        <ele>316.4</ele>
        <time>2023-01-26T13:52:14Z</time>
      </trkpt>
      <trkpt lat="44.23304" lon="1.76387">
        <ele>316.2</ele>
        <time>2023-01-26T13:52:15Z</time>
      </trkpt>
      <trkpt lat="44.23298" lon="1.76387">
        <ele>316.1</ele>
        <time>2023-01-26T13:52:16Z</time>
      </trkpt>
      <trkpt lat="44.23292" lon="1.76387">
        <ele>315.9</ele>
        <time>2023-01-26T13:52:17Z</time>
      </trkpt>
      <trkpt lat="44.23286" lon="1.76388">
        <ele>315.7</ele>
        <time>2023-01-26T13:52:18Z</time>
      </trkpt>
      <trkpt lat="44.23279" lon="1.76389">
        <ele>315.5</ele>
        <time>2023-01-26T13:52:19Z</time>
      </trkpt>
      <trkpt lat="44.23273" lon="1.76389">
        <ele>315.3</ele>
        <time>2023-01-26T13:52:20Z</time>
      </trkpt>
      <trkpt lat="44.23267" lon="1.76391">
        <ele>315</ele>
        <time>2023-01-26T13:52:21Z</time>
      </trkpt>
      <trkpt lat="44.2326" lon="1.76393">
        <ele>314.8</ele>
        <time>2023-01-26T13:52:22Z</time>
      </trkpt>
      <trkpt lat="44.23254" lon="1.76396">
        <ele>314.5</ele>
        <time>2023-01-26T13:52:23Z</time>
      </trkpt>
      <trkpt lat="44.23248" lon="1.76398">
        <ele>314.3</ele>
        <time>2023-01-26T13:52:24Z</time>
      </trkpt>
      <trkpt lat="44.23241" lon="1.76401">
        <ele>314</ele>
        <time>2023-01-26T13:52:25Z</time>
      </trkpt>
      <trkpt lat="44.23235" lon="1.76404">
        <ele>313.8</ele>
        <time>2023-01-26T13:52:26Z</time>
      </trkpt>
      <trkpt lat="44.23229" lon="1.76406">
        <ele>313.5</ele>
        <time>2023-01-26T13:52:27Z</time>
      </trkpt>
      <trkpt lat="44.23223" lon="1.76408">
        <ele>313.3</ele>
        <time>2023-01-26T13:52:28Z</time>
      </trkpt>
      <trkpt lat="44.23217" lon="1.76411">
        <ele>313.1</ele>
        <time>2023-01-26T13:52:29Z</time>
      </trkpt>
      <trkpt lat="44.2321" lon="1.76413">
        <ele>313.1</ele>
        <time>2023-01-26T13:52:30Z</time>
      </trkpt>
      <trkpt lat="44.23204" lon="1.76414">
        <ele>313.1</ele>
        <time>2023-01-26T13:52:31Z</time>
      </trkpt>
      <trkpt lat="44.23198" lon="1.76412">
        <ele>313</ele>
        <time>2023-01-26T13:52:32Z</time>
      </trkpt>
      <trkpt lat="44.23192" lon="1.76408">
        <ele>313</ele>
        <time>2023-01-26T13:52:33Z</time>
      </trkpt>
      <trkpt lat="44.23188" lon="1.76402">
        <ele>312.7</ele>
        <time>2023-01-26T13:52:34Z</time>
      </trkpt>
      <trkpt lat="44.23183" lon="1.76397">
        <ele>312.4</ele>
        <time>2023-01-26T13:52:35Z</time>
      </trkpt>
      <trkpt lat="44.23178" lon="1.76394">
        <ele>312</ele>
        <time>2023-01-26T13:52:36Z</time>
      </trkpt>
      <trkpt lat="44.23173" lon="1.76392">
        <ele>311.7</ele>
        <time>2023-01-26T13:52:37Z</time>
      </trkpt>
      <trkpt lat="44.23169" lon="1.76388">
        <ele>310.4</ele>
        <time>2023-01-26T13:52:38Z</time>
      </trkpt>
      <trkpt lat="44.23165" lon="1.76383">
        <ele>310.4</ele>
        <time>2023-01-26T13:52:39Z</time>
      </trkpt>
      <trkpt lat="44.23162" lon="1.76378">
        <ele>310.5</ele>
        <time>2023-01-26T13:52:40Z</time>
      </trkpt>
      <trkpt lat="44.23159" lon="1.76373">
        <ele>310.5</ele>
        <time>2023-01-26T13:52:41Z</time>
      </trkpt>
      <trkpt lat="44.23156" lon="1.76369">
        <ele>310.4</ele>
        <time>2023-01-26T13:52:42Z</time>
      </trkpt>
      <trkpt lat="44.23153" lon="1.76365">
        <ele>310.4</ele>
        <time>2023-01-26T13:52:43Z</time>
      </trkpt>
      <trkpt lat="44.2315" lon="1.76361">
        <ele>310.4</ele>
        <time>2023-01-26T13:52:44Z</time>
      </trkpt>
      <trkpt lat="44.23149" lon="1.76359">
        <ele>310.4</ele>
        <time>2023-01-26T13:52:45Z</time>
      </trkpt>
      <trkpt lat="44.23146" lon="1.76355">
        <ele>310.4</ele>
        <time>2023-01-26T13:52:46Z</time>
      </trkpt>
      <trkpt lat="44.23146" lon="1.76355">
        <ele>310.4</ele>
        <time>2023-01-26T13:52:47Z</time>
      </trkpt>
      <trkpt lat="44.23145" lon="1.76354">
        <ele>310.4</ele>
        <time>2023-01-26T13:52:48Z</time>
      </trkpt>
      <trkpt lat="44.23145" lon="1.76353">
        <ele>310.4</ele>
        <time>2023-01-26T13:52:49Z</time>
      </trkpt>
      <trkpt lat="44.23144" lon="1.76353">
        <ele>310.4</ele>
        <time>2023-01-26T13:52:50Z</time>
      </trkpt>
      <trkpt lat="44.23144" lon="1.76353">
        <ele>310.4</ele>
        <time>2023-01-26T13:52:51Z</time>
      </trkpt>
      <trkpt lat="44.23143" lon="1.76352">
        <ele>310.4</ele>
        <time>2023-01-26T13:52:52Z</time>
      </trkpt>
      <trkpt lat="44.23143" lon="1.76352">
        <ele>310.4</ele>
        <time>2023-01-26T13:52:53Z</time>
      </trkpt>
      <trkpt lat="44.23142" lon="1.76352">
        <ele>310.4</ele>
        <time>2023-01-26T13:52:55Z</time>
      </trkpt>
      <trkpt lat="44.23142" lon="1.76351">
        <ele>310.4</ele>
        <time>2023-01-26T13:52:56Z</time>
      </trkpt>
      <trkpt lat="44.23137" lon="1.76353">
        <ele>310.4</ele>
        <time>2023-01-26T13:52:57Z</time>
      </trkpt>
      <trkpt lat="44.23131" lon="1.76355">
        <ele>310.4</ele>
        <time>2023-01-26T13:52:58Z</time>
      </trkpt>
      <trkpt lat="44.23125" lon="1.76357">
        <ele>310.4</ele>
        <time>2023-01-26T13:52:59Z</time>
      </trkpt>
      <trkpt lat="44.2312" lon="1.76358">
        <ele>310.4</ele>
        <time>2023-01-26T13:53:00Z</time>
      </trkpt>
      <trkpt lat="44.23115" lon="1.76359">
        <ele>310.3</ele>
        <time>2023-01-26T13:53:02Z</time>
      </trkpt>
      <trkpt lat="44.2311" lon="1.76361">
        <ele>310.3</ele>
        <time>2023-01-26T13:53:03Z</time>
      </trkpt>
      <trkpt lat="44.23105" lon="1.76361">
        <ele>310.3</ele>
        <time>2023-01-26T13:53:04Z</time>
      </trkpt>
      <trkpt lat="44.23097" lon="1.76361">
        <ele>310.2</ele>
        <time>2023-01-26T13:53:06Z</time>
      </trkpt>
      <trkpt lat="44.23091" lon="1.76361">
        <ele>310.1</ele>
        <time>2023-01-26T13:53:07Z</time>
      </trkpt>
      <trkpt lat="44.23085" lon="1.76362">
        <ele>310</ele>
        <time>2023-01-26T13:53:08Z</time>
      </trkpt>
      <trkpt lat="44.2308" lon="1.76363">
        <ele>309.9</ele>
        <time>2023-01-26T13:53:09Z</time>
      </trkpt>
      <trkpt lat="44.23075" lon="1.76363">
        <ele>309.8</ele>
        <time>2023-01-26T13:53:10Z</time>
      </trkpt>
      <trkpt lat="44.2307" lon="1.76364">
        <ele>309.7</ele>
        <time>2023-01-26T13:53:11Z</time>
      </trkpt>
      <trkpt lat="44.23065" lon="1.76364">
        <ele>309.6</ele>
        <time>2023-01-26T13:53:12Z</time>
      </trkpt>
      <trkpt lat="44.2306" lon="1.76364">
        <ele>309.5</ele>
        <time>2023-01-26T13:53:13Z</time>
      </trkpt>
      <trkpt lat="44.23055" lon="1.76365">
        <ele>309.4</ele>
        <time>2023-01-26T13:53:14Z</time>
      </trkpt>
      <trkpt lat="44.2305" lon="1.76365">
        <ele>309.3</ele>
        <time>2023-01-26T13:53:15Z</time>
      </trkpt>
      <trkpt lat="44.23045" lon="1.76365">
        <ele>309.2</ele>
        <time>2023-01-26T13:53:16Z</time>
      </trkpt>
      <trkpt lat="44.2304" lon="1.76365">
        <ele>309.1</ele>
        <time>2023-01-26T13:53:17Z</time>
      </trkpt>
      <trkpt lat="44.23034" lon="1.76365">
        <ele>309</ele>
        <time>2023-01-26T13:53:18Z</time>
      </trkpt>
      <trkpt lat="44.2303" lon="1.76365">
        <ele>308.9</ele>
        <time>2023-01-26T13:53:19Z</time>
      </trkpt>
      <trkpt lat="44.23024" lon="1.76365">
        <ele>308.8</ele>
        <time>2023-01-26T13:53:20Z</time>
      </trkpt>
      <trkpt lat="44.23019" lon="1.76365">
        <ele>308.6</ele>
        <time>2023-01-26T13:53:21Z</time>
      </trkpt>
      <trkpt lat="44.23014" lon="1.76364">
        <ele>308.5</ele>
        <time>2023-01-26T13:53:22Z</time>
      </trkpt>
      <trkpt lat="44.23008" lon="1.76364">
        <ele>308.3</ele>
        <time>2023-01-26T13:53:23Z</time>
      </trkpt>
      <trkpt lat="44.23002" lon="1.76363">
        <ele>308.2</ele>
        <time>2023-01-26T13:53:24Z</time>
      </trkpt>
      <trkpt lat="44.22997" lon="1.76363">
        <ele>308.1</ele>
        <time>2023-01-26T13:53:25Z</time>
      </trkpt>
      <trkpt lat="44.22991" lon="1.76363">
        <ele>307.9</ele>
        <time>2023-01-26T13:53:26Z</time>
      </trkpt>
      <trkpt lat="44.22986" lon="1.76364">
        <ele>307.8</ele>
        <time>2023-01-26T13:53:27Z</time>
      </trkpt>
      <trkpt lat="44.22981" lon="1.76365">
        <ele>307.7</ele>
        <time>2023-01-26T13:53:28Z</time>
      </trkpt>
      <trkpt lat="44.22976" lon="1.76368">
        <ele>307.5</ele>
        <time>2023-01-26T13:53:29Z</time>
      </trkpt>
      <trkpt lat="44.22971" lon="1.7637">
        <ele>307.4</ele>
        <time>2023-01-26T13:53:30Z</time>
      </trkpt>
      <trkpt lat="44.22966" lon="1.76373">
        <ele>307.2</ele>
        <time>2023-01-26T13:53:31Z</time>
      </trkpt>
      <trkpt lat="44.22961" lon="1.76376">
        <ele>307</ele>
        <time>2023-01-26T13:53:32Z</time>
      </trkpt>
      <trkpt lat="44.22956" lon="1.7638">
        <ele>306.9</ele>
        <time>2023-01-26T13:53:33Z</time>
      </trkpt>
      <trkpt lat="44.2295" lon="1.76383">
        <ele>306.7</ele>
        <time>2023-01-26T13:53:34Z</time>
      </trkpt>
      <trkpt lat="44.22945" lon="1.76386">
        <ele>306.6</ele>
        <time>2023-01-26T13:53:35Z</time>
      </trkpt>
      <trkpt lat="44.22939" lon="1.76388">
        <ele>306.5</ele>
        <time>2023-01-26T13:53:36Z</time>
      </trkpt>
      <trkpt lat="44.22933" lon="1.7639">
        <ele>306.4</ele>
        <time>2023-01-26T13:53:37Z</time>
      </trkpt>
      <trkpt lat="44.22926" lon="1.76392">
        <ele>306.3</ele>
        <time>2023-01-26T13:53:38Z</time>
      </trkpt>
      <trkpt lat="44.2292" lon="1.76393">
        <ele>306.2</ele>
        <time>2023-01-26T13:53:39Z</time>
      </trkpt>
      <trkpt lat="44.22914" lon="1.76393">
        <ele>306.2</ele>
        <time>2023-01-26T13:53:40Z</time>
      </trkpt>
      <trkpt lat="44.22909" lon="1.76394">
        <ele>306.1</ele>
        <time>2023-01-26T13:53:41Z</time>
      </trkpt>
      <trkpt lat="44.22903" lon="1.76394">
        <ele>306</ele>
        <time>2023-01-26T13:53:42Z</time>
      </trkpt>
      <trkpt lat="44.22897" lon="1.76394">
        <ele>306</ele>
        <time>2023-01-26T13:53:43Z</time>
      </trkpt>
      <trkpt lat="44.22891" lon="1.76394">
        <ele>305.9</ele>
        <time>2023-01-26T13:53:44Z</time>
      </trkpt>
      <trkpt lat="44.22885" lon="1.76394">
        <ele>305.9</ele>
        <time>2023-01-26T13:53:45Z</time>
      </trkpt>
      <trkpt lat="44.2288" lon="1.76394">
        <ele>305.9</ele>
        <time>2023-01-26T13:53:46Z</time>
      </trkpt>
      <trkpt lat="44.22874" lon="1.76394">
        <ele>305.9</ele>
        <time>2023-01-26T13:53:47Z</time>
      </trkpt>
      <trkpt lat="44.22868" lon="1.76395">
        <ele>305.9</ele>
        <time>2023-01-26T13:53:48Z</time>
      </trkpt>
      <trkpt lat="44.22862" lon="1.76396">
        <ele>305.9</ele>
        <time>2023-01-26T13:53:49Z</time>
      </trkpt>
      <trkpt lat="44.22857" lon="1.76398">
        <ele>305.8</ele>
        <time>2023-01-26T13:53:50Z</time>
      </trkpt>
      <trkpt lat="44.22851" lon="1.764">
        <ele>305.8</ele>
        <time>2023-01-26T13:53:51Z</time>
      </trkpt>
      <trkpt lat="44.22846" lon="1.76403">
        <ele>305.8</ele>
        <time>2023-01-26T13:53:52Z</time>
      </trkpt>
      <trkpt lat="44.2284" lon="1.76406">
        <ele>305.8</ele>
        <time>2023-01-26T13:53:53Z</time>
      </trkpt>
      <trkpt lat="44.22835" lon="1.76409">
        <ele>305.8</ele>
        <time>2023-01-26T13:53:54Z</time>
      </trkpt>
      <trkpt lat="44.2283" lon="1.76411">
        <ele>305.7</ele>
        <time>2023-01-26T13:53:55Z</time>
      </trkpt>
      <trkpt lat="44.22825" lon="1.76413">
        <ele>305.7</ele>
        <time>2023-01-26T13:53:56Z</time>
      </trkpt>
      <trkpt lat="44.2282" lon="1.76416">
        <ele>305.6</ele>
        <time>2023-01-26T13:53:57Z</time>
      </trkpt>
      <trkpt lat="44.22814" lon="1.76418">
        <ele>305.4</ele>
        <time>2023-01-26T13:53:58Z</time>
      </trkpt>
      <trkpt lat="44.22809" lon="1.7642">
        <ele>305.3</ele>
        <time>2023-01-26T13:53:59Z</time>
      </trkpt>
      <trkpt lat="44.22803" lon="1.76421">
        <ele>305.1</ele>
        <time>2023-01-26T13:54:00Z</time>
      </trkpt>
      <trkpt lat="44.22798" lon="1.76422">
        <ele>305</ele>
        <time>2023-01-26T13:54:01Z</time>
      </trkpt>
      <trkpt lat="44.22792" lon="1.76423">
        <ele>304.8</ele>
        <time>2023-01-26T13:54:02Z</time>
      </trkpt>
      <trkpt lat="44.22787" lon="1.76423">
        <ele>304.7</ele>
        <time>2023-01-26T13:54:03Z</time>
      </trkpt>
      <trkpt lat="44.22782" lon="1.76423">
        <ele>304.5</ele>
        <time>2023-01-26T13:54:04Z</time>
      </trkpt>
      <trkpt lat="44.22776" lon="1.76423">
        <ele>304.3</ele>
        <time>2023-01-26T13:54:05Z</time>
      </trkpt>
      <trkpt lat="44.22771" lon="1.76422">
        <ele>304.1</ele>
        <time>2023-01-26T13:54:06Z</time>
      </trkpt>
      <trkpt lat="44.22766" lon="1.7642">
        <ele>303.9</ele>
        <time>2023-01-26T13:54:07Z</time>
      </trkpt>
      <trkpt lat="44.22762" lon="1.76418">
        <ele>303.7</ele>
        <time>2023-01-26T13:54:08Z</time>
      </trkpt>
      <trkpt lat="44.22758" lon="1.76416">
        <ele>303.5</ele>
        <time>2023-01-26T13:54:09Z</time>
      </trkpt>
      <trkpt lat="44.22754" lon="1.76413">
        <ele>303.3</ele>
        <time>2023-01-26T13:54:10Z</time>
      </trkpt>
      <trkpt lat="44.2275" lon="1.7641">
        <ele>303</ele>
        <time>2023-01-26T13:54:11Z</time>
      </trkpt>
      <trkpt lat="44.22746" lon="1.76407">
        <ele>302.7</ele>
        <time>2023-01-26T13:54:12Z</time>
      </trkpt>
      <trkpt lat="44.22742" lon="1.76405">
        <ele>302.5</ele>
        <time>2023-01-26T13:54:13Z</time>
      </trkpt>
      <trkpt lat="44.22737" lon="1.76402">
        <ele>302</ele>
        <time>2023-01-26T13:54:14Z</time>
      </trkpt>
      <trkpt lat="44.22731" lon="1.76399">
        <ele>301.4</ele>
        <time>2023-01-26T13:54:15Z</time>
      </trkpt>
      <trkpt lat="44.22725" lon="1.76396">
        <ele>300.8</ele>
        <time>2023-01-26T13:54:16Z</time>
      </trkpt>
      <trkpt lat="44.22719" lon="1.76392">
        <ele>300.1</ele>
        <time>2023-01-26T13:54:17Z</time>
      </trkpt>
      <trkpt lat="44.22711" lon="1.76389">
        <ele>299.3</ele>
        <time>2023-01-26T13:54:18Z</time>
      </trkpt>
      <trkpt lat="44.22703" lon="1.76387">
        <ele>298.6</ele>
        <time>2023-01-26T13:54:19Z</time>
      </trkpt>
      <trkpt lat="44.22694" lon="1.76385">
        <ele>298</ele>
        <time>2023-01-26T13:54:20Z</time>
      </trkpt>
      <trkpt lat="44.22687" lon="1.76386">
        <ele>297.8</ele>
        <time>2023-01-26T13:54:21Z</time>
      </trkpt>
      <trkpt lat="44.22678" lon="1.76386">
        <ele>297.6</ele>
        <time>2023-01-26T13:54:22Z</time>
      </trkpt>
      <trkpt lat="44.22672" lon="1.76387">
        <ele>297.6</ele>
        <time>2023-01-26T13:54:23Z</time>
      </trkpt>
      <trkpt lat="44.22666" lon="1.76386">
        <ele>297.8</ele>
        <time>2023-01-26T13:54:24Z</time>
      </trkpt>
      <trkpt lat="44.22662" lon="1.76385">
        <ele>297.9</ele>
        <time>2023-01-26T13:54:25Z</time>
      </trkpt>
      <trkpt lat="44.22657" lon="1.76384">
        <ele>298.1</ele>
        <time>2023-01-26T13:54:26Z</time>
      </trkpt>
      <trkpt lat="44.22655" lon="1.76384">
        <ele>298.2</ele>
        <time>2023-01-26T13:54:27Z</time>
      </trkpt>
      <trkpt lat="44.22652" lon="1.76385">
        <ele>298.6</ele>
        <time>2023-01-26T13:54:29Z</time>
      </trkpt>
      <trkpt lat="44.22648" lon="1.76386">
        <ele>299</ele>
        <time>2023-01-26T13:54:30Z</time>
      </trkpt>
      <trkpt lat="44.22645" lon="1.76388">
        <ele>299.4</ele>
        <time>2023-01-26T13:54:31Z</time>
      </trkpt>
      <trkpt lat="44.22642" lon="1.7639">
        <ele>299.8</ele>
        <time>2023-01-26T13:54:32Z</time>
      </trkpt>
      <trkpt lat="44.2264" lon="1.76392">
        <ele>300.2</ele>
        <time>2023-01-26T13:54:33Z</time>
      </trkpt>
      <trkpt lat="44.22638" lon="1.76395">
        <ele>300.6</ele>
        <time>2023-01-26T13:54:34Z</time>
      </trkpt>
      <trkpt lat="44.22635" lon="1.76401">
        <ele>301.2</ele>
        <time>2023-01-26T13:54:36Z</time>
      </trkpt>
      <trkpt lat="44.22634" lon="1.76402">
        <ele>301.4</ele>
        <time>2023-01-26T13:54:37Z</time>
      </trkpt>
      <trkpt lat="44.22633" lon="1.76403">
        <ele>301.6</ele>
        <time>2023-01-26T13:54:38Z</time>
      </trkpt>
      <trkpt lat="44.2263" lon="1.76405">
        <ele>302</ele>
        <time>2023-01-26T13:54:39Z</time>
      </trkpt>
      <trkpt lat="44.22629" lon="1.76406">
        <ele>302.1</ele>
        <time>2023-01-26T13:54:40Z</time>
      </trkpt>
      <trkpt lat="44.22628" lon="1.76407">
        <ele>302.2</ele>
        <time>2023-01-26T13:54:41Z</time>
      </trkpt>
      <trkpt lat="44.22627" lon="1.76407">
        <ele>302.4</ele>
        <time>2023-01-26T13:54:42Z</time>
      </trkpt>
      <trkpt lat="44.22625" lon="1.76408">
        <ele>302.2</ele>
        <time>2023-01-26T13:54:44Z</time>
      </trkpt>
      <trkpt lat="44.22625" lon="1.76409">
        <ele>302.1</ele>
        <time>2023-01-26T13:54:45Z</time>
      </trkpt>
      <trkpt lat="44.22626" lon="1.76409">
        <ele>302.1</ele>
        <time>2023-01-26T13:54:46Z</time>
      </trkpt>
      <trkpt lat="44.22626" lon="1.76409">
        <ele>302</ele>
        <time>2023-01-26T13:54:47Z</time>
      </trkpt>
      <trkpt lat="44.22627" lon="1.76409">
        <ele>301.9</ele>
        <time>2023-01-26T13:54:49Z</time>
      </trkpt>
      <trkpt lat="44.22628" lon="1.76408">
        <ele>301.9</ele>
        <time>2023-01-26T13:54:50Z</time>
      </trkpt>
      <trkpt lat="44.22628" lon="1.76408">
        <ele>301.8</ele>
        <time>2023-01-26T13:54:51Z</time>
      </trkpt>
      <trkpt lat="44.22629" lon="1.76408">
        <ele>301.7</ele>
        <time>2023-01-26T13:54:53Z</time>
      </trkpt>
      <trkpt lat="44.22629" lon="1.76408">
        <ele>301.7</ele>
        <time>2023-01-26T13:54:54Z</time>
      </trkpt>
      <trkpt lat="44.2263" lon="1.76408">
        <ele>301.6</ele>
        <time>2023-01-26T13:54:55Z</time>
      </trkpt>
      <trkpt lat="44.22631" lon="1.76408">
        <ele>301.5</ele>
        <time>2023-01-26T13:54:56Z</time>
      </trkpt>
      <trkpt lat="44.22636" lon="1.76405">
        <ele>300.9</ele>
        <time>2023-01-26T13:54:58Z</time>
      </trkpt>
      <trkpt lat="44.2264" lon="1.76402">
        <ele>300.3</ele>
        <time>2023-01-26T13:54:59Z</time>
      </trkpt>
      <trkpt lat="44.22646" lon="1.76397">
        <ele>299.5</ele>
        <time>2023-01-26T13:55:00Z</time>
      </trkpt>
      <trkpt lat="44.22649" lon="1.76396">
        <ele>299.1</ele>
        <time>2023-01-26T13:55:01Z</time>
      </trkpt>
      <trkpt lat="44.22652" lon="1.76392">
        <ele>298.7</ele>
        <time>2023-01-26T13:55:02Z</time>
      </trkpt>
      <trkpt lat="44.22654" lon="1.7639">
        <ele>298.2</ele>
        <time>2023-01-26T13:55:03Z</time>
      </trkpt>
      <trkpt lat="44.22658" lon="1.76388">
        <ele>298.4</ele>
        <time>2023-01-26T13:55:05Z</time>
      </trkpt>
      <trkpt lat="44.2266" lon="1.76391">
        <ele>298.6</ele>
        <time>2023-01-26T13:55:07Z</time>
      </trkpt>
      <trkpt lat="44.22661" lon="1.76396">
        <ele>298.7</ele>
        <time>2023-01-26T13:55:08Z</time>
      </trkpt>
      <trkpt lat="44.22661" lon="1.76404">
        <ele>299</ele>
        <time>2023-01-26T13:55:10Z</time>
      </trkpt>
      <trkpt lat="44.22661" lon="1.76408">
        <ele>299.1</ele>
        <time>2023-01-26T13:55:11Z</time>
      </trkpt>
      <trkpt lat="44.22662" lon="1.76415">
        <ele>299.2</ele>
        <time>2023-01-26T13:55:12Z</time>
      </trkpt>
      <trkpt lat="44.22662" lon="1.7642">
        <ele>299.3</ele>
        <time>2023-01-26T13:55:13Z</time>
      </trkpt>
      <trkpt lat="44.22662" lon="1.76428">
        <ele>299.5</ele>
        <time>2023-01-26T13:55:15Z</time>
      </trkpt>
      <trkpt lat="44.22661" lon="1.76435">
        <ele>299.7</ele>
        <time>2023-01-26T13:55:16Z</time>
      </trkpt>
      <trkpt lat="44.2266" lon="1.76442">
        <ele>299.8</ele>
        <time>2023-01-26T13:55:17Z</time>
      </trkpt>
      <trkpt lat="44.22659" lon="1.76447">
        <ele>300</ele>
        <time>2023-01-26T13:55:18Z</time>
      </trkpt>
      <trkpt lat="44.22657" lon="1.76465">
        <ele>300.3</ele>
        <time>2023-01-26T13:55:20Z</time>
      </trkpt>
      <trkpt lat="44.22656" lon="1.76474">
        <ele>300.4</ele>
        <time>2023-01-26T13:55:22Z</time>
      </trkpt>
      <trkpt lat="44.22655" lon="1.76482">
        <ele>300.4</ele>
        <time>2023-01-26T13:55:23Z</time>
      </trkpt>
      <trkpt lat="44.22654" lon="1.76493">
        <ele>300.6</ele>
        <time>2023-01-26T13:55:25Z</time>
      </trkpt>
      <trkpt lat="44.22654" lon="1.76501">
        <ele>300.8</ele>
        <time>2023-01-26T13:55:26Z</time>
      </trkpt>
      <trkpt lat="44.22653" lon="1.76508">
        <ele>300.9</ele>
        <time>2023-01-26T13:55:27Z</time>
      </trkpt>
      <trkpt lat="44.22653" lon="1.76516">
        <ele>300.9</ele>
        <time>2023-01-26T13:55:28Z</time>
      </trkpt>
      <trkpt lat="44.22653" lon="1.76523">
        <ele>300.9</ele>
        <time>2023-01-26T13:55:29Z</time>
      </trkpt>
      <trkpt lat="44.22652" lon="1.76529">
        <ele>300.8</ele>
        <time>2023-01-26T13:55:30Z</time>
      </trkpt>
      <trkpt lat="44.22652" lon="1.76536">
        <ele>300.7</ele>
        <time>2023-01-26T13:55:32Z</time>
      </trkpt>
      <trkpt lat="44.22651" lon="1.76543">
        <ele>300.5</ele>
        <time>2023-01-26T13:55:33Z</time>
      </trkpt>
      <trkpt lat="44.2265" lon="1.76547">
        <ele>300.4</ele>
        <time>2023-01-26T13:55:34Z</time>
      </trkpt>
      <trkpt lat="44.22649" lon="1.76552">
        <ele>300.2</ele>
        <time>2023-01-26T13:55:35Z</time>
      </trkpt>
      <trkpt lat="44.22646" lon="1.76558">
        <ele>300</ele>
        <time>2023-01-26T13:55:36Z</time>
      </trkpt>
      <trkpt lat="44.22645" lon="1.76563">
        <ele>299.8</ele>
        <time>2023-01-26T13:55:37Z</time>
      </trkpt>
      <trkpt lat="44.22643" lon="1.76575">
        <ele>299.3</ele>
        <time>2023-01-26T13:55:39Z</time>
      </trkpt>
      <trkpt lat="44.22642" lon="1.76583">
        <ele>299</ele>
        <time>2023-01-26T13:55:40Z</time>
      </trkpt>
      <trkpt lat="44.2264" lon="1.76592">
        <ele>298.6</ele>
        <time>2023-01-26T13:55:41Z</time>
      </trkpt>
      <trkpt lat="44.22638" lon="1.76601">
        <ele>298.3</ele>
        <time>2023-01-26T13:55:42Z</time>
      </trkpt>
      <trkpt lat="44.22636" lon="1.7661">
        <ele>298</ele>
        <time>2023-01-26T13:55:43Z</time>
      </trkpt>
      <trkpt lat="44.22633" lon="1.76619">
        <ele>297.7</ele>
        <time>2023-01-26T13:55:44Z</time>
      </trkpt>
      <trkpt lat="44.2263" lon="1.7663">
        <ele>297.5</ele>
        <time>2023-01-26T13:55:45Z</time>
      </trkpt>
      <trkpt lat="44.22626" lon="1.76641">
        <ele>297.4</ele>
        <time>2023-01-26T13:55:46Z</time>
      </trkpt>
      <trkpt lat="44.22625" lon="1.7665">
        <ele>297.4</ele>
        <time>2023-01-26T13:55:47Z</time>
      </trkpt>
      <trkpt lat="44.22624" lon="1.76659">
        <ele>297.4</ele>
        <time>2023-01-26T13:55:48Z</time>
      </trkpt>
      <trkpt lat="44.22622" lon="1.76667">
        <ele>297.4</ele>
        <time>2023-01-26T13:55:49Z</time>
      </trkpt>
      <trkpt lat="44.2262" lon="1.76675">
        <ele>296.6</ele>
        <time>2023-01-26T13:55:50Z</time>
      </trkpt>
      <trkpt lat="44.22619" lon="1.76683">
        <ele>295.8</ele>
        <time>2023-01-26T13:55:51Z</time>
      </trkpt>
      <trkpt lat="44.22619" lon="1.7669">
        <ele>294.8</ele>
        <time>2023-01-26T13:55:52Z</time>
      </trkpt>
      <trkpt lat="44.22617" lon="1.76699">
        <ele>293.6</ele>
        <time>2023-01-26T13:55:53Z</time>
      </trkpt>
      <trkpt lat="44.22615" lon="1.76708">
        <ele>292.4</ele>
        <time>2023-01-26T13:55:54Z</time>
      </trkpt>
      <trkpt lat="44.22611" lon="1.76718">
        <ele>291.2</ele>
        <time>2023-01-26T13:55:55Z</time>
      </trkpt>
      <trkpt lat="44.22608" lon="1.76727">
        <ele>289.9</ele>
        <time>2023-01-26T13:55:56Z</time>
      </trkpt>
      <trkpt lat="44.22605" lon="1.76736">
        <ele>288.7</ele>
        <time>2023-01-26T13:55:57Z</time>
      </trkpt>
      <trkpt lat="44.22601" lon="1.76745">
        <ele>287.4</ele>
        <time>2023-01-26T13:55:58Z</time>
      </trkpt>
      <trkpt lat="44.22598" lon="1.76754">
        <ele>286</ele>
        <time>2023-01-26T13:55:59Z</time>
      </trkpt>
      <trkpt lat="44.22593" lon="1.76764">
        <ele>284.3</ele>
        <time>2023-01-26T13:56:00Z</time>
      </trkpt>
      <trkpt lat="44.22589" lon="1.76775">
        <ele>282.7</ele>
        <time>2023-01-26T13:56:01Z</time>
      </trkpt>
      <trkpt lat="44.22585" lon="1.76785">
        <ele>281.1</ele>
        <time>2023-01-26T13:56:02Z</time>
      </trkpt>
      <trkpt lat="44.2258" lon="1.76796">
        <ele>279.5</ele>
        <time>2023-01-26T13:56:03Z</time>
      </trkpt>
      <trkpt lat="44.22577" lon="1.76804">
        <ele>278.3</ele>
        <time>2023-01-26T13:56:04Z</time>
      </trkpt>
      <trkpt lat="44.22576" lon="1.76807">
        <ele>277.9</ele>
        <time>2023-01-26T13:56:05Z</time>
      </trkpt>
      <trkpt lat="44.22575" lon="1.76807">
        <ele>277.7</ele>
        <time>2023-01-26T13:56:06Z</time>
      </trkpt>
      <trkpt lat="44.22574" lon="1.76807">
        <ele>277.7</ele>
        <time>2023-01-26T13:56:07Z</time>
      </trkpt>
      <trkpt lat="44.22573" lon="1.76806">
        <ele>277.7</ele>
        <time>2023-01-26T13:56:08Z</time>
      </trkpt>
      <trkpt lat="44.22573" lon="1.76806">
        <ele>277.7</ele>
        <time>2023-01-26T13:56:09Z</time>
      </trkpt>
      <trkpt lat="44.22573" lon="1.76806">
        <ele>277.7</ele>
        <time>2023-01-26T13:56:10Z</time>
      </trkpt>
      <trkpt lat="44.22573" lon="1.76807">
        <ele>277.7</ele>
        <time>2023-01-26T13:56:11Z</time>
      </trkpt>
      <trkpt lat="44.22573" lon="1.76807">
        <ele>277.7</ele>
        <time>2023-01-26T13:56:12Z</time>
      </trkpt>
      <trkpt lat="44.22573" lon="1.76807">
        <ele>277.7</ele>
        <time>2023-01-26T13:56:14Z</time>
      </trkpt>
      <trkpt lat="44.22574" lon="1.76807">
        <ele>277.7</ele>
        <time>2023-01-26T13:56:15Z</time>
      </trkpt>
      <trkpt lat="44.22576" lon="1.76808">
        <ele>277.7</ele>
        <time>2023-01-26T13:56:16Z</time>
      </trkpt>
      <trkpt lat="44.22577" lon="1.76809">
        <ele>277.8</ele>
        <time>2023-01-26T13:56:17Z</time>
      </trkpt>
      <trkpt lat="44.2258" lon="1.76813">
        <ele>277.8</ele>
        <time>2023-01-26T13:56:19Z</time>
      </trkpt>
      <trkpt lat="44.22582" lon="1.76816">
        <ele>277.7</ele>
        <time>2023-01-26T13:56:20Z</time>
      </trkpt>
      <trkpt lat="44.22582" lon="1.76819">
        <ele>277.7</ele>
        <time>2023-01-26T13:56:21Z</time>
      </trkpt>
      <trkpt lat="44.22581" lon="1.76826">
        <ele>277.2</ele>
        <time>2023-01-26T13:56:23Z</time>
      </trkpt>
      <trkpt lat="44.2258" lon="1.7683">
        <ele>277</ele>
        <time>2023-01-26T13:56:24Z</time>
      </trkpt>
      <trkpt lat="44.2258" lon="1.76835">
        <ele>276.7</ele>
        <time>2023-01-26T13:56:26Z</time>
      </trkpt>
      <trkpt lat="44.22579" lon="1.76839">
        <ele>276.5</ele>
        <time>2023-01-26T13:56:27Z</time>
      </trkpt>
      <trkpt lat="44.22578" lon="1.76845">
        <ele>276.2</ele>
        <time>2023-01-26T13:56:29Z</time>
      </trkpt>
      <trkpt lat="44.22575" lon="1.76852">
        <ele>276</ele>
        <time>2023-01-26T13:56:31Z</time>
      </trkpt>
      <trkpt lat="44.22574" lon="1.76855">
        <ele>275.8</ele>
        <time>2023-01-26T13:56:32Z</time>
      </trkpt>
      <trkpt lat="44.22573" lon="1.76857">
        <ele>275.8</ele>
        <time>2023-01-26T13:56:33Z</time>
      </trkpt>
      <trkpt lat="44.22572" lon="1.7686">
        <ele>275.7</ele>
        <time>2023-01-26T13:56:35Z</time>
      </trkpt>
      <trkpt lat="44.22572" lon="1.76861">
        <ele>275.7</ele>
        <time>2023-01-26T13:56:36Z</time>
      </trkpt>
      <trkpt lat="44.22572" lon="1.76862">
        <ele>275.7</ele>
        <time>2023-01-26T13:56:37Z</time>
      </trkpt>
      <trkpt lat="44.22572" lon="1.76863">
        <ele>275.7</ele>
        <time>2023-01-26T13:56:39Z</time>
      </trkpt>
      <trkpt lat="44.22571" lon="1.76864">
        <ele>275.7</ele>
        <time>2023-01-26T13:56:40Z</time>
      </trkpt>
      <trkpt lat="44.22569" lon="1.76866">
        <ele>275.7</ele>
        <time>2023-01-26T13:56:41Z</time>
      </trkpt>
      <trkpt lat="44.22569" lon="1.76866">
        <ele>275.7</ele>
        <time>2023-01-26T13:56:42Z</time>
      </trkpt>
      <trkpt lat="44.22568" lon="1.76867">
        <ele>275.7</ele>
        <time>2023-01-26T13:56:43Z</time>
      </trkpt>
      <trkpt lat="44.22567" lon="1.76868">
        <ele>275.7</ele>
        <time>2023-01-26T13:56:44Z</time>
      </trkpt>
      <trkpt lat="44.22567" lon="1.76869">
        <ele>275.7</ele>
        <time>2023-01-26T13:56:46Z</time>
      </trkpt>
      <trkpt lat="44.22567" lon="1.7687">
        <ele>275.7</ele>
        <time>2023-01-26T13:56:47Z</time>
      </trkpt>
      <trkpt lat="44.22567" lon="1.76871">
        <ele>275.7</ele>
        <time>2023-01-26T13:56:48Z</time>
      </trkpt>
      <trkpt lat="44.22567" lon="1.76872">
        <ele>275.7</ele>
        <time>2023-01-26T13:56:49Z</time>
      </trkpt>
      <trkpt lat="44.22567" lon="1.76873">
        <ele>275.8</ele>
        <time>2023-01-26T13:56:51Z</time>
      </trkpt>
      <trkpt lat="44.22567" lon="1.76874">
        <ele>275.8</ele>
        <time>2023-01-26T13:56:52Z</time>
      </trkpt>
      <trkpt lat="44.22567" lon="1.76875">
        <ele>275.8</ele>
        <time>2023-01-26T13:56:54Z</time>
      </trkpt>
      <trkpt lat="44.22567" lon="1.76876">
        <ele>275.8</ele>
        <time>2023-01-26T13:56:55Z</time>
      </trkpt>
      <trkpt lat="44.22567" lon="1.76876">
        <ele>275.8</ele>
        <time>2023-01-26T13:56:56Z</time>
      </trkpt>
      <trkpt lat="44.22567" lon="1.76876">
        <ele>275.8</ele>
        <time>2023-01-26T13:56:57Z</time>
      </trkpt>
      <trkpt lat="44.22567" lon="1.76878">
        <ele>275.9</ele>
        <time>2023-01-26T13:56:59Z</time>
      </trkpt>
      <trkpt lat="44.22567" lon="1.7688">
        <ele>276</ele>
        <time>2023-01-26T13:57:01Z</time>
      </trkpt>
      <trkpt lat="44.22567" lon="1.76884">
        <ele>276.1</ele>
        <time>2023-01-26T13:57:02Z</time>
      </trkpt>
      <trkpt lat="44.22567" lon="1.76886">
        <ele>276.2</ele>
        <time>2023-01-26T13:57:03Z</time>
      </trkpt>
      <trkpt lat="44.22567" lon="1.76889">
        <ele>276.3</ele>
        <time>2023-01-26T13:57:04Z</time>
      </trkpt>
      <trkpt lat="44.22568" lon="1.76893">
        <ele>276.5</ele>
        <time>2023-01-26T13:57:06Z</time>
      </trkpt>
      <trkpt lat="44.22569" lon="1.76895">
        <ele>276.7</ele>
        <time>2023-01-26T13:57:07Z</time>
      </trkpt>
      <trkpt lat="44.2257" lon="1.769">
        <ele>277.1</ele>
        <time>2023-01-26T13:57:09Z</time>
      </trkpt>
      <trkpt lat="44.22571" lon="1.76901">
        <ele>277.2</ele>
        <time>2023-01-26T13:57:10Z</time>
      </trkpt>
      <trkpt lat="44.22572" lon="1.76902">
        <ele>277.3</ele>
        <time>2023-01-26T13:57:12Z</time>
      </trkpt>
      <trkpt lat="44.22573" lon="1.76901">
        <ele>277.3</ele>
        <time>2023-01-26T13:57:13Z</time>
      </trkpt>
      <trkpt lat="44.22573" lon="1.76902">
        <ele>277.4</ele>
        <time>2023-01-26T13:57:14Z</time>
      </trkpt>
      <trkpt lat="44.22573" lon="1.76903">
        <ele>277.5</ele>
        <time>2023-01-26T13:57:15Z</time>
      </trkpt>
      <trkpt lat="44.22573" lon="1.76903">
        <ele>277.5</ele>
        <time>2023-01-26T13:57:16Z</time>
      </trkpt>
      <trkpt lat="44.22573" lon="1.76903">
        <ele>277.5</ele>
        <time>2023-01-26T13:57:17Z</time>
      </trkpt>
      <trkpt lat="44.22572" lon="1.76904">
        <ele>277.5</ele>
        <time>2023-01-26T13:57:19Z</time>
      </trkpt>
      <trkpt lat="44.22572" lon="1.76904">
        <ele>277.6</ele>
        <time>2023-01-26T13:57:20Z</time>
      </trkpt>
      <trkpt lat="44.22572" lon="1.76905">
        <ele>277.6</ele>
        <time>2023-01-26T13:57:37Z</time>
      </trkpt>
      <trkpt lat="44.22572" lon="1.76905">
        <ele>277.6</ele>
        <time>2023-01-26T13:57:38Z</time>
      </trkpt>
      <trkpt lat="44.22572" lon="1.76905">
        <ele>277.7</ele>
        <time>2023-01-26T13:57:39Z</time>
      </trkpt>
      <trkpt lat="44.22572" lon="1.76906">
        <ele>277.7</ele>
        <time>2023-01-26T13:57:40Z</time>
      </trkpt>
      <trkpt lat="44.22572" lon="1.76906">
        <ele>277.7</ele>
        <time>2023-01-26T13:57:41Z</time>
      </trkpt>
      <trkpt lat="44.22572" lon="1.76906">
        <ele>277.7</ele>
        <time>2023-01-26T13:57:42Z</time>
      </trkpt>
      <trkpt lat="44.22572" lon="1.76907">
        <ele>277.8</ele>
        <time>2023-01-26T13:57:43Z</time>
      </trkpt>
      <trkpt lat="44.22572" lon="1.76907">
        <ele>277.8</ele>
        <time>2023-01-26T13:57:44Z</time>
      </trkpt>
      <trkpt lat="44.22572" lon="1.76907">
        <ele>277.8</ele>
        <time>2023-01-26T13:57:45Z</time>
      </trkpt>
      <trkpt lat="44.22573" lon="1.76909">
        <ele>278</ele>
        <time>2023-01-26T13:57:46Z</time>
      </trkpt>
      <trkpt lat="44.22574" lon="1.7691">
        <ele>278.1</ele>
        <time>2023-01-26T13:57:47Z</time>
      </trkpt>
      <trkpt lat="44.22575" lon="1.76911">
        <ele>278.2</ele>
        <time>2023-01-26T13:57:48Z</time>
      </trkpt>
      <trkpt lat="44.22575" lon="1.76912">
        <ele>278.4</ele>
        <time>2023-01-26T13:57:49Z</time>
      </trkpt>
      <trkpt lat="44.22574" lon="1.76913">
        <ele>278.5</ele>
        <time>2023-01-26T13:57:50Z</time>
      </trkpt>
      <trkpt lat="44.22574" lon="1.76915">
        <ele>278.6</ele>
        <time>2023-01-26T13:57:51Z</time>
      </trkpt>
      <trkpt lat="44.22573" lon="1.76918">
        <ele>278.8</ele>
        <time>2023-01-26T13:57:52Z</time>
      </trkpt>
      <trkpt lat="44.22573" lon="1.76921">
        <ele>279</ele>
        <time>2023-01-26T13:57:53Z</time>
      </trkpt>
      <trkpt lat="44.22572" lon="1.76924">
        <ele>279.1</ele>
        <time>2023-01-26T13:57:54Z</time>
      </trkpt>
      <trkpt lat="44.22573" lon="1.76926">
        <ele>279.2</ele>
        <time>2023-01-26T13:57:55Z</time>
      </trkpt>
      <trkpt lat="44.22574" lon="1.76927">
        <ele>279.3</ele>
        <time>2023-01-26T13:57:56Z</time>
      </trkpt>
      <trkpt lat="44.22575" lon="1.76929">
        <ele>279.4</ele>
        <time>2023-01-26T13:57:58Z</time>
      </trkpt>
      <trkpt lat="44.22576" lon="1.7693">
        <ele>279.4</ele>
        <time>2023-01-26T13:57:59Z</time>
      </trkpt>
      <trkpt lat="44.22577" lon="1.76931">
        <ele>279.4</ele>
        <time>2023-01-26T13:58:00Z</time>
      </trkpt>
      <trkpt lat="44.22577" lon="1.76932">
        <ele>279.5</ele>
        <time>2023-01-26T13:58:01Z</time>
      </trkpt>
      <trkpt lat="44.22581" lon="1.76937">
        <ele>279.5</ele>
        <time>2023-01-26T13:58:03Z</time>
      </trkpt>
      <trkpt lat="44.22581" lon="1.76941">
        <ele>279.5</ele>
        <time>2023-01-26T13:58:04Z</time>
      </trkpt>
      <trkpt lat="44.2258" lon="1.76943">
        <ele>279.5</ele>
        <time>2023-01-26T13:58:05Z</time>
      </trkpt>
      <trkpt lat="44.22578" lon="1.76947">
        <ele>279.4</ele>
        <time>2023-01-26T13:58:07Z</time>
      </trkpt>
      <trkpt lat="44.22574" lon="1.76955">
        <ele>279.2</ele>
        <time>2023-01-26T13:58:08Z</time>
      </trkpt>
      <trkpt lat="44.22571" lon="1.7696">
        <ele>279</ele>
        <time>2023-01-26T13:58:09Z</time>
      </trkpt>
      <trkpt lat="44.22568" lon="1.76969">
        <ele>278.8</ele>
        <time>2023-01-26T13:58:10Z</time>
      </trkpt>
      <trkpt lat="44.22566" lon="1.76977">
        <ele>278.6</ele>
        <time>2023-01-26T13:58:11Z</time>
      </trkpt>
      <trkpt lat="44.22566" lon="1.76985">
        <ele>278.4</ele>
        <time>2023-01-26T13:58:12Z</time>
      </trkpt>
      <trkpt lat="44.22566" lon="1.76993">
        <ele>278.1</ele>
        <time>2023-01-26T13:58:13Z</time>
      </trkpt>
      <trkpt lat="44.22567" lon="1.77">
        <ele>277.7</ele>
        <time>2023-01-26T13:58:14Z</time>
      </trkpt>
      <trkpt lat="44.22566" lon="1.77009">
        <ele>277.2</ele>
        <time>2023-01-26T13:58:15Z</time>
      </trkpt>
      <trkpt lat="44.22565" lon="1.77017">
        <ele>276.7</ele>
        <time>2023-01-26T13:58:16Z</time>
      </trkpt>
      <trkpt lat="44.22563" lon="1.77027">
        <ele>276.1</ele>
        <time>2023-01-26T13:58:17Z</time>
      </trkpt>
      <trkpt lat="44.2256" lon="1.77037">
        <ele>275.5</ele>
        <time>2023-01-26T13:58:18Z</time>
      </trkpt>
      <trkpt lat="44.22558" lon="1.77047">
        <ele>275</ele>
        <time>2023-01-26T13:58:19Z</time>
      </trkpt>
      <trkpt lat="44.22557" lon="1.77058">
        <ele>274.6</ele>
        <time>2023-01-26T13:58:20Z</time>
      </trkpt>
      <trkpt lat="44.22557" lon="1.77067">
        <ele>274.3</ele>
        <time>2023-01-26T13:58:21Z</time>
      </trkpt>
      <trkpt lat="44.22556" lon="1.77078">
        <ele>274.2</ele>
        <time>2023-01-26T13:58:22Z</time>
      </trkpt>
      <trkpt lat="44.22556" lon="1.77089">
        <ele>274.3</ele>
        <time>2023-01-26T13:58:23Z</time>
      </trkpt>
      <trkpt lat="44.22556" lon="1.77099">
        <ele>274.5</ele>
        <time>2023-01-26T13:58:24Z</time>
      </trkpt>
      <trkpt lat="44.22556" lon="1.77109">
        <ele>274.7</ele>
        <time>2023-01-26T13:58:25Z</time>
      </trkpt>
      <trkpt lat="44.22557" lon="1.77118">
        <ele>275</ele>
        <time>2023-01-26T13:58:26Z</time>
      </trkpt>
      <trkpt lat="44.22559" lon="1.77126">
        <ele>275.2</ele>
        <time>2023-01-26T13:58:27Z</time>
      </trkpt>
      <trkpt lat="44.2256" lon="1.77135">
        <ele>275.4</ele>
        <time>2023-01-26T13:58:28Z</time>
      </trkpt>
      <trkpt lat="44.22562" lon="1.77144">
        <ele>275.5</ele>
        <time>2023-01-26T13:58:29Z</time>
      </trkpt>
      <trkpt lat="44.22564" lon="1.77152">
        <ele>275.6</ele>
        <time>2023-01-26T13:58:30Z</time>
      </trkpt>
      <trkpt lat="44.22566" lon="1.77159">
        <ele>275.7</ele>
        <time>2023-01-26T13:58:31Z</time>
      </trkpt>
      <trkpt lat="44.22567" lon="1.77167">
        <ele>275.8</ele>
        <time>2023-01-26T13:58:32Z</time>
      </trkpt>
      <trkpt lat="44.22569" lon="1.77175">
        <ele>275.8</ele>
        <time>2023-01-26T13:58:33Z</time>
      </trkpt>
      <trkpt lat="44.2257" lon="1.77182">
        <ele>275.9</ele>
        <time>2023-01-26T13:58:34Z</time>
      </trkpt>
      <trkpt lat="44.22571" lon="1.7719">
        <ele>276</ele>
        <time>2023-01-26T13:58:35Z</time>
      </trkpt>
      <trkpt lat="44.22572" lon="1.77199">
        <ele>276.1</ele>
        <time>2023-01-26T13:58:36Z</time>
      </trkpt>
      <trkpt lat="44.22573" lon="1.77208">
        <ele>276.3</ele>
        <time>2023-01-26T13:58:37Z</time>
      </trkpt>
      <trkpt lat="44.22573" lon="1.77218">
        <ele>276.6</ele>
        <time>2023-01-26T13:58:38Z</time>
      </trkpt>
      <trkpt lat="44.22574" lon="1.77227">
        <ele>276.9</ele>
        <time>2023-01-26T13:58:39Z</time>
      </trkpt>
      <trkpt lat="44.22574" lon="1.77235">
        <ele>277.3</ele>
        <time>2023-01-26T13:58:40Z</time>
      </trkpt>
      <trkpt lat="44.22575" lon="1.77242">
        <ele>277.6</ele>
        <time>2023-01-26T13:58:41Z</time>
      </trkpt>
      <trkpt lat="44.22577" lon="1.77249">
        <ele>277.7</ele>
        <time>2023-01-26T13:58:42Z</time>
      </trkpt>
      <trkpt lat="44.22578" lon="1.77254">
        <ele>277.5</ele>
        <time>2023-01-26T13:58:43Z</time>
      </trkpt>
      <trkpt lat="44.22578" lon="1.77258">
        <ele>277.3</ele>
        <time>2023-01-26T13:58:44Z</time>
      </trkpt>
      <trkpt lat="44.22578" lon="1.77263">
        <ele>277.1</ele>
        <time>2023-01-26T13:58:45Z</time>
      </trkpt>
      <trkpt lat="44.22579" lon="1.77267">
        <ele>276.9</ele>
        <time>2023-01-26T13:58:46Z</time>
      </trkpt>
      <trkpt lat="44.22581" lon="1.77271">
        <ele>276.8</ele>
        <time>2023-01-26T13:58:47Z</time>
      </trkpt>
      <trkpt lat="44.22582" lon="1.77272">
        <ele>276.7</ele>
        <time>2023-01-26T13:58:48Z</time>
      </trkpt>
      <trkpt lat="44.22583" lon="1.77274">
        <ele>276.7</ele>
        <time>2023-01-26T13:58:49Z</time>
      </trkpt>
      <trkpt lat="44.22583" lon="1.77275">
        <ele>276.6</ele>
        <time>2023-01-26T13:58:50Z</time>
      </trkpt>
      <trkpt lat="44.22584" lon="1.77275">
        <ele>276.6</ele>
        <time>2023-01-26T13:58:52Z</time>
      </trkpt>
      <trkpt lat="44.22585" lon="1.77276">
        <ele>276.6</ele>
        <time>2023-01-26T13:58:53Z</time>
      </trkpt>
      <trkpt lat="44.22585" lon="1.77277">
        <ele>276.5</ele>
        <time>2023-01-26T13:58:54Z</time>
      </trkpt>
      <trkpt lat="44.22586" lon="1.77278">
        <ele>276.5</ele>
        <time>2023-01-26T13:58:56Z</time>
      </trkpt>
      <trkpt lat="44.22586" lon="1.77279">
        <ele>276.4</ele>
        <time>2023-01-26T13:58:57Z</time>
      </trkpt>
      <trkpt lat="44.22587" lon="1.7728">
        <ele>276.4</ele>
        <time>2023-01-26T13:58:58Z</time>
      </trkpt>
      <trkpt lat="44.22587" lon="1.77281">
        <ele>276.4</ele>
        <time>2023-01-26T13:58:59Z</time>
      </trkpt>
      <trkpt lat="44.22589" lon="1.77285">
        <ele>276.2</ele>
        <time>2023-01-26T13:59:00Z</time>
      </trkpt>
      <trkpt lat="44.2259" lon="1.77292">
        <ele>276</ele>
        <time>2023-01-26T13:59:02Z</time>
      </trkpt>
      <trkpt lat="44.22591" lon="1.77298">
        <ele>275.8</ele>
        <time>2023-01-26T13:59:03Z</time>
      </trkpt>
      <trkpt lat="44.22593" lon="1.77302">
        <ele>275.6</ele>
        <time>2023-01-26T13:59:04Z</time>
      </trkpt>
      <trkpt lat="44.22594" lon="1.77308">
        <ele>275.3</ele>
        <time>2023-01-26T13:59:06Z</time>
      </trkpt>
      <trkpt lat="44.22596" lon="1.77312">
        <ele>275</ele>
        <time>2023-01-26T13:59:07Z</time>
      </trkpt>
      <trkpt lat="44.22597" lon="1.77313">
        <ele>274.9</ele>
        <time>2023-01-26T13:59:08Z</time>
      </trkpt>
      <trkpt lat="44.22598" lon="1.77316">
        <ele>274.6</ele>
        <time>2023-01-26T13:59:09Z</time>
      </trkpt>
      <trkpt lat="44.22599" lon="1.77317">
        <ele>274.5</ele>
        <time>2023-01-26T13:59:10Z</time>
      </trkpt>
      <trkpt lat="44.226" lon="1.77318">
        <ele>274.4</ele>
        <time>2023-01-26T13:59:12Z</time>
      </trkpt>
      <trkpt lat="44.226" lon="1.77318">
        <ele>274.3</ele>
        <time>2023-01-26T13:59:13Z</time>
      </trkpt>
      <trkpt lat="44.226" lon="1.77318">
        <ele>274.3</ele>
        <time>2023-01-26T13:59:14Z</time>
      </trkpt>
      <trkpt lat="44.226" lon="1.77319">
        <ele>274.2</ele>
        <time>2023-01-26T13:59:16Z</time>
      </trkpt>
      <trkpt lat="44.226" lon="1.7732">
        <ele>274.2</ele>
        <time>2023-01-26T13:59:17Z</time>
      </trkpt>
      <trkpt lat="44.22601" lon="1.77321">
        <ele>274</ele>
        <time>2023-01-26T13:59:18Z</time>
      </trkpt>
      <trkpt lat="44.22601" lon="1.77323">
        <ele>273.7</ele>
        <time>2023-01-26T13:59:19Z</time>
      </trkpt>
      <trkpt lat="44.22601" lon="1.77325">
        <ele>273.6</ele>
        <time>2023-01-26T13:59:21Z</time>
      </trkpt>
      <trkpt lat="44.22601" lon="1.77327">
        <ele>273.3</ele>
        <time>2023-01-26T13:59:22Z</time>
      </trkpt>
      <trkpt lat="44.22601" lon="1.77328">
        <ele>273.1</ele>
        <time>2023-01-26T13:59:23Z</time>
      </trkpt>
      <trkpt lat="44.22602" lon="1.77331">
        <ele>272.7</ele>
        <time>2023-01-26T13:59:25Z</time>
      </trkpt>
      <trkpt lat="44.22602" lon="1.77332">
        <ele>272.4</ele>
        <time>2023-01-26T13:59:26Z</time>
      </trkpt>
      <trkpt lat="44.22602" lon="1.77334">
        <ele>272.1</ele>
        <time>2023-01-26T13:59:27Z</time>
      </trkpt>
      <trkpt lat="44.22602" lon="1.77335">
        <ele>271.9</ele>
        <time>2023-01-26T13:59:28Z</time>
      </trkpt>
      <trkpt lat="44.22601" lon="1.77336">
        <ele>271.6</ele>
        <time>2023-01-26T13:59:29Z</time>
      </trkpt>
      <trkpt lat="44.22601" lon="1.77337">
        <ele>271.4</ele>
        <time>2023-01-26T13:59:30Z</time>
      </trkpt>
      <trkpt lat="44.22602" lon="1.77339">
        <ele>271.1</ele>
        <time>2023-01-26T13:59:32Z</time>
      </trkpt>
      <trkpt lat="44.22602" lon="1.77341">
        <ele>270.7</ele>
        <time>2023-01-26T13:59:33Z</time>
      </trkpt>
      <trkpt lat="44.22602" lon="1.77343">
        <ele>270.2</ele>
        <time>2023-01-26T13:59:34Z</time>
      </trkpt>
      <trkpt lat="44.22603" lon="1.77345">
        <ele>269.7</ele>
        <time>2023-01-26T13:59:35Z</time>
      </trkpt>
      <trkpt lat="44.22603" lon="1.77348">
        <ele>269.1</ele>
        <time>2023-01-26T13:59:36Z</time>
      </trkpt>
      <trkpt lat="44.22603" lon="1.77349">
        <ele>268.9</ele>
        <time>2023-01-26T13:59:37Z</time>
      </trkpt>
      <trkpt lat="44.22603" lon="1.7735">
        <ele>268.6</ele>
        <time>2023-01-26T13:59:38Z</time>
      </trkpt>
      <trkpt lat="44.22604" lon="1.77357">
        <ele>267.1</ele>
        <time>2023-01-26T13:59:40Z</time>
      </trkpt>
      <trkpt lat="44.22605" lon="1.77363">
        <ele>265.9</ele>
        <time>2023-01-26T13:59:41Z</time>
      </trkpt>
      <trkpt lat="44.22607" lon="1.77368">
        <ele>264.6</ele>
        <time>2023-01-26T13:59:42Z</time>
      </trkpt>
      <trkpt lat="44.22611" lon="1.77376">
        <ele>262.4</ele>
        <time>2023-01-26T13:59:44Z</time>
      </trkpt>
      <trkpt lat="44.22614" lon="1.7738">
        <ele>261.3</ele>
        <time>2023-01-26T13:59:46Z</time>
      </trkpt>
      <trkpt lat="44.22614" lon="1.77386">
        <ele>260</ele>
        <time>2023-01-26T13:59:47Z</time>
      </trkpt>
      <trkpt lat="44.22613" lon="1.77389">
        <ele>259.5</ele>
        <time>2023-01-26T13:59:48Z</time>
      </trkpt>
      <trkpt lat="44.22613" lon="1.77396">
        <ele>258.1</ele>
        <time>2023-01-26T13:59:50Z</time>
      </trkpt>
      <trkpt lat="44.22613" lon="1.77401">
        <ele>257</ele>
        <time>2023-01-26T13:59:51Z</time>
      </trkpt>
      <trkpt lat="44.22614" lon="1.77405">
        <ele>256</ele>
        <time>2023-01-26T13:59:52Z</time>
      </trkpt>
      <trkpt lat="44.22614" lon="1.7741">
        <ele>254.8</ele>
        <time>2023-01-26T13:59:53Z</time>
      </trkpt>
      <trkpt lat="44.22614" lon="1.77413">
        <ele>254.3</ele>
        <time>2023-01-26T13:59:54Z</time>
      </trkpt>
      <trkpt lat="44.22615" lon="1.77416">
        <ele>253.6</ele>
        <time>2023-01-26T13:59:56Z</time>
      </trkpt>
      <trkpt lat="44.22617" lon="1.77424">
        <ele>251.6</ele>
        <time>2023-01-26T13:59:57Z</time>
      </trkpt>
      <trkpt lat="44.22619" lon="1.7743">
        <ele>250.3</ele>
        <time>2023-01-26T13:59:59Z</time>
      </trkpt>
      <trkpt lat="44.22623" lon="1.77441">
        <ele>248.3</ele>
        <time>2023-01-26T14:00:00Z</time>
      </trkpt>
      <trkpt lat="44.22626" lon="1.77448">
        <ele>247.5</ele>
        <time>2023-01-26T14:00:01Z</time>
      </trkpt>
      <trkpt lat="44.22629" lon="1.77453">
        <ele>247</ele>
        <time>2023-01-26T14:00:02Z</time>
      </trkpt>
      <trkpt lat="44.22632" lon="1.7746">
        <ele>246.7</ele>
        <time>2023-01-26T14:00:03Z</time>
      </trkpt>
      <trkpt lat="44.22635" lon="1.77468">
        <ele>246.2</ele>
        <time>2023-01-26T14:00:04Z</time>
      </trkpt>
      <trkpt lat="44.22637" lon="1.77476">
        <ele>245.7</ele>
        <time>2023-01-26T14:00:05Z</time>
      </trkpt>
      <trkpt lat="44.22639" lon="1.77485">
        <ele>245</ele>
        <time>2023-01-26T14:00:07Z</time>
      </trkpt>
      <trkpt lat="44.22639" lon="1.77495">
        <ele>244.2</ele>
        <time>2023-01-26T14:00:08Z</time>
      </trkpt>
      <trkpt lat="44.2264" lon="1.77502">
        <ele>243.6</ele>
        <time>2023-01-26T14:00:09Z</time>
      </trkpt>
      <trkpt lat="44.22641" lon="1.77509">
        <ele>242.9</ele>
        <time>2023-01-26T14:00:10Z</time>
      </trkpt>
      <trkpt lat="44.22643" lon="1.77516">
        <ele>242.2</ele>
        <time>2023-01-26T14:00:11Z</time>
      </trkpt>
      <trkpt lat="44.22645" lon="1.77524">
        <ele>241.4</ele>
        <time>2023-01-26T14:00:12Z</time>
      </trkpt>
      <trkpt lat="44.22647" lon="1.7753">
        <ele>240.6</ele>
        <time>2023-01-26T14:00:13Z</time>
      </trkpt>
      <trkpt lat="44.22649" lon="1.77536">
        <ele>239.8</ele>
        <time>2023-01-26T14:00:14Z</time>
      </trkpt>
      <trkpt lat="44.2265" lon="1.77544">
        <ele>238.7</ele>
        <time>2023-01-26T14:00:15Z</time>
      </trkpt>
      <trkpt lat="44.22653" lon="1.77551">
        <ele>237.5</ele>
        <time>2023-01-26T14:00:17Z</time>
      </trkpt>
      <trkpt lat="44.22657" lon="1.77559">
        <ele>236.1</ele>
        <time>2023-01-26T14:00:18Z</time>
      </trkpt>
      <trkpt lat="44.2266" lon="1.77565">
        <ele>235.1</ele>
        <time>2023-01-26T14:00:19Z</time>
      </trkpt>
      <trkpt lat="44.22661" lon="1.77569">
        <ele>234.5</ele>
        <time>2023-01-26T14:00:20Z</time>
      </trkpt>
      <trkpt lat="44.22668" lon="1.77577">
        <ele>233</ele>
        <time>2023-01-26T14:00:22Z</time>
      </trkpt>
      <trkpt lat="44.22672" lon="1.77582">
        <ele>232.2</ele>
        <time>2023-01-26T14:00:23Z</time>
      </trkpt>
      <trkpt lat="44.22677" lon="1.77586">
        <ele>231.6</ele>
        <time>2023-01-26T14:00:24Z</time>
      </trkpt>
      <trkpt lat="44.22683" lon="1.77593">
        <ele>230.9</ele>
        <time>2023-01-26T14:00:26Z</time>
      </trkpt>
      <trkpt lat="44.22685" lon="1.77598">
        <ele>230.5</ele>
        <time>2023-01-26T14:00:27Z</time>
      </trkpt>
      <trkpt lat="44.22686" lon="1.77607">
        <ele>230.1</ele>
        <time>2023-01-26T14:00:28Z</time>
      </trkpt>
      <trkpt lat="44.22688" lon="1.7761">
        <ele>229.8</ele>
        <time>2023-01-26T14:00:29Z</time>
      </trkpt>
      <trkpt lat="44.22692" lon="1.77615">
        <ele>229.5</ele>
        <time>2023-01-26T14:00:31Z</time>
      </trkpt>
      <trkpt lat="44.22698" lon="1.7762">
        <ele>229.1</ele>
        <time>2023-01-26T14:00:32Z</time>
      </trkpt>
      <trkpt lat="44.22701" lon="1.77623">
        <ele>229</ele>
        <time>2023-01-26T14:00:34Z</time>
      </trkpt>
      <trkpt lat="44.22704" lon="1.77626">
        <ele>228.8</ele>
        <time>2023-01-26T14:00:35Z</time>
      </trkpt>
      <trkpt lat="44.22709" lon="1.77631">
        <ele>228.7</ele>
        <time>2023-01-26T14:00:36Z</time>
      </trkpt>
      <trkpt lat="44.22713" lon="1.77635">
        <ele>228.5</ele>
        <time>2023-01-26T14:00:37Z</time>
      </trkpt>
      <trkpt lat="44.22718" lon="1.77641">
        <ele>228.4</ele>
        <time>2023-01-26T14:00:38Z</time>
      </trkpt>
      <trkpt lat="44.22722" lon="1.77646">
        <ele>228.3</ele>
        <time>2023-01-26T14:00:40Z</time>
      </trkpt>
      <trkpt lat="44.22725" lon="1.77651">
        <ele>228.3</ele>
        <time>2023-01-26T14:00:41Z</time>
      </trkpt>
      <trkpt lat="44.22729" lon="1.77658">
        <ele>228.3</ele>
        <time>2023-01-26T14:00:43Z</time>
      </trkpt>
      <trkpt lat="44.22731" lon="1.77662">
        <ele>228.3</ele>
        <time>2023-01-26T14:00:44Z</time>
      </trkpt>
      <trkpt lat="44.22734" lon="1.77665">
        <ele>228.4</ele>
        <time>2023-01-26T14:00:45Z</time>
      </trkpt>
      <trkpt lat="44.22738" lon="1.77669">
        <ele>228.4</ele>
        <time>2023-01-26T14:00:46Z</time>
      </trkpt>
      <trkpt lat="44.22741" lon="1.77672">
        <ele>228.5</ele>
        <time>2023-01-26T14:00:47Z</time>
      </trkpt>
      <trkpt lat="44.22745" lon="1.77676">
        <ele>228.7</ele>
        <time>2023-01-26T14:00:49Z</time>
      </trkpt>
      <trkpt lat="44.22748" lon="1.77678">
        <ele>228.8</ele>
        <time>2023-01-26T14:00:50Z</time>
      </trkpt>
      <trkpt lat="44.22751" lon="1.7768">
        <ele>228.9</ele>
        <time>2023-01-26T14:00:51Z</time>
      </trkpt>
      <trkpt lat="44.22755" lon="1.77682">
        <ele>229.1</ele>
        <time>2023-01-26T14:00:52Z</time>
      </trkpt>
      <trkpt lat="44.22758" lon="1.77684">
        <ele>229.2</ele>
        <time>2023-01-26T14:00:53Z</time>
      </trkpt>
      <trkpt lat="44.22761" lon="1.77685">
        <ele>229.3</ele>
        <time>2023-01-26T14:00:54Z</time>
      </trkpt>
      <trkpt lat="44.22767" lon="1.77686">
        <ele>229.5</ele>
        <time>2023-01-26T14:00:56Z</time>
      </trkpt>
      <trkpt lat="44.22771" lon="1.77685">
        <ele>229.6</ele>
        <time>2023-01-26T14:00:57Z</time>
      </trkpt>
      <trkpt lat="44.22775" lon="1.77683">
        <ele>229.7</ele>
        <time>2023-01-26T14:00:58Z</time>
      </trkpt>
      <trkpt lat="44.2278" lon="1.77683">
        <ele>229.7</ele>
        <time>2023-01-26T14:00:59Z</time>
      </trkpt>
      <trkpt lat="44.22784" lon="1.77684">
        <ele>229.6</ele>
        <time>2023-01-26T14:01:01Z</time>
      </trkpt>
      <trkpt lat="44.22787" lon="1.77685">
        <ele>229.5</ele>
        <time>2023-01-26T14:01:02Z</time>
      </trkpt>
      <trkpt lat="44.22791" lon="1.77687">
        <ele>229.2</ele>
        <time>2023-01-26T14:01:03Z</time>
      </trkpt>
      <trkpt lat="44.22794" lon="1.7769">
        <ele>228.9</ele>
        <time>2023-01-26T14:01:04Z</time>
      </trkpt>
      <trkpt lat="44.22797" lon="1.77694">
        <ele>228.4</ele>
        <time>2023-01-26T14:01:05Z</time>
      </trkpt>
      <trkpt lat="44.228" lon="1.77698">
        <ele>227.8</ele>
        <time>2023-01-26T14:01:06Z</time>
      </trkpt>
      <trkpt lat="44.22803" lon="1.77703">
        <ele>227.2</ele>
        <time>2023-01-26T14:01:07Z</time>
      </trkpt>
      <trkpt lat="44.22806" lon="1.77707">
        <ele>226.4</ele>
        <time>2023-01-26T14:01:08Z</time>
      </trkpt>
      <trkpt lat="44.22811" lon="1.77717">
        <ele>225.1</ele>
        <time>2023-01-26T14:01:10Z</time>
      </trkpt>
      <trkpt lat="44.22814" lon="1.77723">
        <ele>224.1</ele>
        <time>2023-01-26T14:01:12Z</time>
      </trkpt>
      <trkpt lat="44.22817" lon="1.7773">
        <ele>223.3</ele>
        <time>2023-01-26T14:01:13Z</time>
      </trkpt>
      <trkpt lat="44.2282" lon="1.77736">
        <ele>222.6</ele>
        <time>2023-01-26T14:01:14Z</time>
      </trkpt>
      <trkpt lat="44.22824" lon="1.77745">
        <ele>221.9</ele>
        <time>2023-01-26T14:01:15Z</time>
      </trkpt>
      <trkpt lat="44.22828" lon="1.77752">
        <ele>221.5</ele>
        <time>2023-01-26T14:01:16Z</time>
      </trkpt>
      <trkpt lat="44.22834" lon="1.77758">
        <ele>221.4</ele>
        <time>2023-01-26T14:01:17Z</time>
      </trkpt>
      <trkpt lat="44.2284" lon="1.7776">
        <ele>221.4</ele>
        <time>2023-01-26T14:01:18Z</time>
      </trkpt>
      <trkpt lat="44.22845" lon="1.77761">
        <ele>221.5</ele>
        <time>2023-01-26T14:01:19Z</time>
      </trkpt>
      <trkpt lat="44.2285" lon="1.7776">
        <ele>221.7</ele>
        <time>2023-01-26T14:01:20Z</time>
      </trkpt>
      <trkpt lat="44.22856" lon="1.77758">
        <ele>222</ele>
        <time>2023-01-26T14:01:21Z</time>
      </trkpt>
      <trkpt lat="44.2286" lon="1.77756">
        <ele>222.3</ele>
        <time>2023-01-26T14:01:22Z</time>
      </trkpt>
      <trkpt lat="44.22864" lon="1.77752">
        <ele>222.6</ele>
        <time>2023-01-26T14:01:23Z</time>
      </trkpt>
      <trkpt lat="44.22868" lon="1.7775">
        <ele>222.8</ele>
        <time>2023-01-26T14:01:24Z</time>
      </trkpt>
      <trkpt lat="44.22873" lon="1.77749">
        <ele>223</ele>
        <time>2023-01-26T14:01:26Z</time>
      </trkpt>
      <trkpt lat="44.22876" lon="1.77748">
        <ele>223.2</ele>
        <time>2023-01-26T14:01:27Z</time>
      </trkpt>
      <trkpt lat="44.2288" lon="1.77749">
        <ele>223.3</ele>
        <time>2023-01-26T14:01:28Z</time>
      </trkpt>
      <trkpt lat="44.22883" lon="1.77751">
        <ele>223.4</ele>
        <time>2023-01-26T14:01:29Z</time>
      </trkpt>
      <trkpt lat="44.22888" lon="1.77752">
        <ele>223.5</ele>
        <time>2023-01-26T14:01:31Z</time>
      </trkpt>
      <trkpt lat="44.22891" lon="1.77754">
        <ele>223.5</ele>
        <time>2023-01-26T14:01:32Z</time>
      </trkpt>
      <trkpt lat="44.22894" lon="1.77756">
        <ele>223.5</ele>
        <time>2023-01-26T14:01:33Z</time>
      </trkpt>
      <trkpt lat="44.22898" lon="1.77759">
        <ele>223.4</ele>
        <time>2023-01-26T14:01:34Z</time>
      </trkpt>
      <trkpt lat="44.22902" lon="1.77763">
        <ele>223.2</ele>
        <time>2023-01-26T14:01:35Z</time>
      </trkpt>
      <trkpt lat="44.22908" lon="1.77767">
        <ele>223</ele>
        <time>2023-01-26T14:01:37Z</time>
      </trkpt>
      <trkpt lat="44.22913" lon="1.7777">
        <ele>222.9</ele>
        <time>2023-01-26T14:01:38Z</time>
      </trkpt>
      <trkpt lat="44.22917" lon="1.77773">
        <ele>222.8</ele>
        <time>2023-01-26T14:01:39Z</time>
      </trkpt>
      <trkpt lat="44.22923" lon="1.77776">
        <ele>222.8</ele>
        <time>2023-01-26T14:01:41Z</time>
      </trkpt>
      <trkpt lat="44.22927" lon="1.77777">
        <ele>222.8</ele>
        <time>2023-01-26T14:01:42Z</time>
      </trkpt>
      <trkpt lat="44.22933" lon="1.77779">
        <ele>222.8</ele>
        <time>2023-01-26T14:01:43Z</time>
      </trkpt>
      <trkpt lat="44.22938" lon="1.77781">
        <ele>222.8</ele>
        <time>2023-01-26T14:01:44Z</time>
      </trkpt>
      <trkpt lat="44.22945" lon="1.77782">
        <ele>222.9</ele>
        <time>2023-01-26T14:01:45Z</time>
      </trkpt>
      <trkpt lat="44.2295" lon="1.77784">
        <ele>223</ele>
        <time>2023-01-26T14:01:47Z</time>
      </trkpt>
      <trkpt lat="44.22954" lon="1.77785">
        <ele>223.1</ele>
        <time>2023-01-26T14:01:48Z</time>
      </trkpt>
      <trkpt lat="44.2296" lon="1.77788">
        <ele>223.3</ele>
        <time>2023-01-26T14:01:49Z</time>
      </trkpt>
      <trkpt lat="44.22963" lon="1.77788">
        <ele>223.4</ele>
        <time>2023-01-26T14:01:50Z</time>
      </trkpt>
      <trkpt lat="44.22967" lon="1.77787">
        <ele>223.6</ele>
        <time>2023-01-26T14:01:51Z</time>
      </trkpt>
      <trkpt lat="44.2297" lon="1.77786">
        <ele>223.7</ele>
        <time>2023-01-26T14:01:53Z</time>
      </trkpt>
      <trkpt lat="44.22973" lon="1.77784">
        <ele>224</ele>
        <time>2023-01-26T14:01:54Z</time>
      </trkpt>
      <trkpt lat="44.22978" lon="1.77783">
        <ele>224.3</ele>
        <time>2023-01-26T14:01:55Z</time>
      </trkpt>
      <trkpt lat="44.22985" lon="1.77782">
        <ele>224.8</ele>
        <time>2023-01-26T14:01:57Z</time>
      </trkpt>
      <trkpt lat="44.22988" lon="1.77782">
        <ele>225.1</ele>
        <time>2023-01-26T14:01:59Z</time>
      </trkpt>
      <trkpt lat="44.22992" lon="1.77783">
        <ele>225.2</ele>
        <time>2023-01-26T14:02:00Z</time>
      </trkpt>
      <trkpt lat="44.22995" lon="1.77784">
        <ele>225.4</ele>
        <time>2023-01-26T14:02:01Z</time>
      </trkpt>
      <trkpt lat="44.22998" lon="1.77784">
        <ele>225.5</ele>
        <time>2023-01-26T14:02:02Z</time>
      </trkpt>
      <trkpt lat="44.23002" lon="1.77785">
        <ele>225.6</ele>
        <time>2023-01-26T14:02:03Z</time>
      </trkpt>
      <trkpt lat="44.23008" lon="1.77786">
        <ele>225.7</ele>
        <time>2023-01-26T14:02:05Z</time>
      </trkpt>
      <trkpt lat="44.23011" lon="1.77787">
        <ele>225.8</ele>
        <time>2023-01-26T14:02:06Z</time>
      </trkpt>
      <trkpt lat="44.23015" lon="1.77787">
        <ele>225.9</ele>
        <time>2023-01-26T14:02:07Z</time>
      </trkpt>
      <trkpt lat="44.23018" lon="1.77788">
        <ele>225.9</ele>
        <time>2023-01-26T14:02:08Z</time>
      </trkpt>
      <trkpt lat="44.23023" lon="1.77789">
        <ele>226</ele>
        <time>2023-01-26T14:02:10Z</time>
      </trkpt>
      <trkpt lat="44.23028" lon="1.7779">
        <ele>226.1</ele>
        <time>2023-01-26T14:02:11Z</time>
      </trkpt>
      <trkpt lat="44.23033" lon="1.77791">
        <ele>226.1</ele>
        <time>2023-01-26T14:02:12Z</time>
      </trkpt>
      <trkpt lat="44.23037" lon="1.77789">
        <ele>226.1</ele>
        <time>2023-01-26T14:02:13Z</time>
      </trkpt>
      <trkpt lat="44.23044" lon="1.77788">
        <ele>226.1</ele>
        <time>2023-01-26T14:02:15Z</time>
      </trkpt>
      <trkpt lat="44.23048" lon="1.77787">
        <ele>226</ele>
        <time>2023-01-26T14:02:16Z</time>
      </trkpt>
      <trkpt lat="44.23053" lon="1.77787">
        <ele>225.9</ele>
        <time>2023-01-26T14:02:17Z</time>
      </trkpt>
      <trkpt lat="44.23056" lon="1.77787">
        <ele>225.7</ele>
        <time>2023-01-26T14:02:18Z</time>
      </trkpt>
      <trkpt lat="44.2306" lon="1.77787">
        <ele>225.5</ele>
        <time>2023-01-26T14:02:19Z</time>
      </trkpt>
      <trkpt lat="44.23061" lon="1.77787">
        <ele>225.4</ele>
        <time>2023-01-26T14:02:20Z</time>
      </trkpt>
      <trkpt lat="44.23065" lon="1.77787">
        <ele>225.1</ele>
        <time>2023-01-26T14:02:21Z</time>
      </trkpt>
      <trkpt lat="44.23073" lon="1.77785">
        <ele>224.3</ele>
        <time>2023-01-26T14:02:23Z</time>
      </trkpt>
      <trkpt lat="44.23077" lon="1.77782">
        <ele>223.9</ele>
        <time>2023-01-26T14:02:25Z</time>
      </trkpt>
      <trkpt lat="44.23081" lon="1.77777">
        <ele>223.6</ele>
        <time>2023-01-26T14:02:26Z</time>
      </trkpt>
      <trkpt lat="44.23084" lon="1.77773">
        <ele>223.4</ele>
        <time>2023-01-26T14:02:27Z</time>
      </trkpt>
      <trkpt lat="44.23086" lon="1.77769">
        <ele>223.4</ele>
        <time>2023-01-26T14:02:28Z</time>
      </trkpt>
      <trkpt lat="44.23087" lon="1.77767">
        <ele>223.4</ele>
        <time>2023-01-26T14:02:29Z</time>
      </trkpt>
      <trkpt lat="44.23089" lon="1.77764">
        <ele>223.4</ele>
        <time>2023-01-26T14:02:31Z</time>
      </trkpt>
      <trkpt lat="44.2309" lon="1.77763">
        <ele>223.5</ele>
        <time>2023-01-26T14:02:32Z</time>
      </trkpt>
      <trkpt lat="44.23093" lon="1.7776">
        <ele>223.6</ele>
        <time>2023-01-26T14:02:33Z</time>
      </trkpt>
      <trkpt lat="44.23097" lon="1.77756">
        <ele>223.8</ele>
        <time>2023-01-26T14:02:34Z</time>
      </trkpt>
      <trkpt lat="44.23101" lon="1.77753">
        <ele>224</ele>
        <time>2023-01-26T14:02:35Z</time>
      </trkpt>
      <trkpt lat="44.23105" lon="1.77747">
        <ele>224.2</ele>
        <time>2023-01-26T14:02:37Z</time>
      </trkpt>
      <trkpt lat="44.23109" lon="1.77744">
        <ele>224.4</ele>
        <time>2023-01-26T14:02:38Z</time>
      </trkpt>
      <trkpt lat="44.23112" lon="1.77739">
        <ele>224.5</ele>
        <time>2023-01-26T14:02:39Z</time>
      </trkpt>
      <trkpt lat="44.23116" lon="1.77734">
        <ele>224.6</ele>
        <time>2023-01-26T14:02:41Z</time>
      </trkpt>
      <trkpt lat="44.23119" lon="1.7773">
        <ele>224.6</ele>
        <time>2023-01-26T14:02:42Z</time>
      </trkpt>
      <trkpt lat="44.23124" lon="1.77726">
        <ele>224.6</ele>
        <time>2023-01-26T14:02:43Z</time>
      </trkpt>
      <trkpt lat="44.23127" lon="1.77723">
        <ele>224.6</ele>
        <time>2023-01-26T14:02:44Z</time>
      </trkpt>
      <trkpt lat="44.23131" lon="1.77717">
        <ele>224.6</ele>
        <time>2023-01-26T14:02:46Z</time>
      </trkpt>
      <trkpt lat="44.23134" lon="1.77713">
        <ele>224.5</ele>
        <time>2023-01-26T14:02:47Z</time>
      </trkpt>
      <trkpt lat="44.23137" lon="1.7771">
        <ele>224.5</ele>
        <time>2023-01-26T14:02:48Z</time>
      </trkpt>
      <trkpt lat="44.2314" lon="1.77706">
        <ele>224.4</ele>
        <time>2023-01-26T14:02:49Z</time>
      </trkpt>
      <trkpt lat="44.23145" lon="1.777">
        <ele>224.2</ele>
        <time>2023-01-26T14:02:50Z</time>
      </trkpt>
      <trkpt lat="44.2315" lon="1.77694">
        <ele>224</ele>
        <time>2023-01-26T14:02:52Z</time>
      </trkpt>
      <trkpt lat="44.23153" lon="1.77689">
        <ele>223.8</ele>
        <time>2023-01-26T14:02:53Z</time>
      </trkpt>
      <trkpt lat="44.23157" lon="1.77683">
        <ele>223.5</ele>
        <time>2023-01-26T14:02:54Z</time>
      </trkpt>
      <trkpt lat="44.2316" lon="1.77676">
        <ele>223.2</ele>
        <time>2023-01-26T14:02:55Z</time>
      </trkpt>
      <trkpt lat="44.23163" lon="1.77667">
        <ele>222.8</ele>
        <time>2023-01-26T14:02:56Z</time>
      </trkpt>
      <trkpt lat="44.23165" lon="1.7766">
        <ele>222.4</ele>
        <time>2023-01-26T14:02:58Z</time>
      </trkpt>
      <trkpt lat="44.23167" lon="1.7765">
        <ele>221.9</ele>
        <time>2023-01-26T14:03:00Z</time>
      </trkpt>
      <trkpt lat="44.23168" lon="1.77646">
        <ele>221.6</ele>
        <time>2023-01-26T14:03:01Z</time>
      </trkpt>
      <trkpt lat="44.23172" lon="1.7764">
        <ele>221.1</ele>
        <time>2023-01-26T14:03:02Z</time>
      </trkpt>
      <trkpt lat="44.23178" lon="1.77637">
        <ele>220.3</ele>
        <time>2023-01-26T14:03:03Z</time>
      </trkpt>
      <trkpt lat="44.23187" lon="1.77634">
        <ele>219.4</ele>
        <time>2023-01-26T14:03:04Z</time>
      </trkpt>
      <trkpt lat="44.23194" lon="1.77631">
        <ele>218.5</ele>
        <time>2023-01-26T14:03:05Z</time>
      </trkpt>
      <trkpt lat="44.232" lon="1.77629">
        <ele>217.7</ele>
        <time>2023-01-26T14:03:06Z</time>
      </trkpt>
      <trkpt lat="44.23207" lon="1.77626">
        <ele>216.9</ele>
        <time>2023-01-26T14:03:07Z</time>
      </trkpt>
      <trkpt lat="44.23214" lon="1.77623">
        <ele>216.1</ele>
        <time>2023-01-26T14:03:08Z</time>
      </trkpt>
      <trkpt lat="44.2322" lon="1.7762">
        <ele>215.3</ele>
        <time>2023-01-26T14:03:09Z</time>
      </trkpt>
      <trkpt lat="44.23226" lon="1.77617">
        <ele>214.3</ele>
        <time>2023-01-26T14:03:10Z</time>
      </trkpt>
      <trkpt lat="44.23232" lon="1.77613">
        <ele>213.4</ele>
        <time>2023-01-26T14:03:11Z</time>
      </trkpt>
      <trkpt lat="44.23237" lon="1.77609">
        <ele>212.4</ele>
        <time>2023-01-26T14:03:12Z</time>
      </trkpt>
      <trkpt lat="44.23242" lon="1.77605">
        <ele>211.5</ele>
        <time>2023-01-26T14:03:13Z</time>
      </trkpt>
      <trkpt lat="44.23246" lon="1.77598">
        <ele>210.6</ele>
        <time>2023-01-26T14:03:14Z</time>
      </trkpt>
      <trkpt lat="44.2325" lon="1.77591">
        <ele>209.6</ele>
        <time>2023-01-26T14:03:15Z</time>
      </trkpt>
      <trkpt lat="44.23253" lon="1.77585">
        <ele>208.8</ele>
        <time>2023-01-26T14:03:16Z</time>
      </trkpt>
      <trkpt lat="44.23256" lon="1.77579">
        <ele>207.9</ele>
        <time>2023-01-26T14:03:17Z</time>
      </trkpt>
      <trkpt lat="44.23259" lon="1.77574">
        <ele>207.2</ele>
        <time>2023-01-26T14:03:18Z</time>
      </trkpt>
      <trkpt lat="44.23261" lon="1.7757">
        <ele>206.6</ele>
        <time>2023-01-26T14:03:19Z</time>
      </trkpt>
      <trkpt lat="44.23264" lon="1.77565">
        <ele>205.9</ele>
        <time>2023-01-26T14:03:20Z</time>
      </trkpt>
      <trkpt lat="44.23267" lon="1.77559">
        <ele>205</ele>
        <time>2023-01-26T14:03:21Z</time>
      </trkpt>
      <trkpt lat="44.23269" lon="1.77556">
        <ele>204.3</ele>
        <time>2023-01-26T14:03:22Z</time>
      </trkpt>
      <trkpt lat="44.23272" lon="1.77552">
        <ele>203.6</ele>
        <time>2023-01-26T14:03:23Z</time>
      </trkpt>
      <trkpt lat="44.23276" lon="1.77547">
        <ele>202.7</ele>
        <time>2023-01-26T14:03:24Z</time>
      </trkpt>
      <trkpt lat="44.23281" lon="1.77546">
        <ele>201.9</ele>
        <time>2023-01-26T14:03:25Z</time>
      </trkpt>
      <trkpt lat="44.23283" lon="1.77541">
        <ele>201.1</ele>
        <time>2023-01-26T14:03:26Z</time>
      </trkpt>
      <trkpt lat="44.23286" lon="1.77535">
        <ele>200.4</ele>
        <time>2023-01-26T14:03:28Z</time>
      </trkpt>
      <trkpt lat="44.23287" lon="1.77529">
        <ele>200</ele>
        <time>2023-01-26T14:03:29Z</time>
      </trkpt>
      <trkpt lat="44.23289" lon="1.77525">
        <ele>200</ele>
        <time>2023-01-26T14:03:30Z</time>
      </trkpt>
      <trkpt lat="44.23291" lon="1.7752">
        <ele>200</ele>
        <time>2023-01-26T14:03:31Z</time>
      </trkpt>
      <trkpt lat="44.23293" lon="1.77511">
        <ele>200.2</ele>
        <time>2023-01-26T14:03:33Z</time>
      </trkpt>
      <trkpt lat="44.23296" lon="1.77506">
        <ele>200.2</ele>
        <time>2023-01-26T14:03:34Z</time>
      </trkpt>
      <trkpt lat="44.23297" lon="1.77501">
        <ele>200.3</ele>
        <time>2023-01-26T14:03:35Z</time>
      </trkpt>
      <trkpt lat="44.23299" lon="1.77493">
        <ele>200.5</ele>
        <time>2023-01-26T14:03:37Z</time>
      </trkpt>
      <trkpt lat="44.23301" lon="1.77486">
        <ele>200.6</ele>
        <time>2023-01-26T14:03:39Z</time>
      </trkpt>
      <trkpt lat="44.23302" lon="1.77483">
        <ele>200.7</ele>
        <time>2023-01-26T14:03:40Z</time>
      </trkpt>
      <trkpt lat="44.23302" lon="1.77482">
        <ele>200.7</ele>
        <time>2023-01-26T14:03:41Z</time>
      </trkpt>
      <trkpt lat="44.23303" lon="1.7748">
        <ele>200.7</ele>
        <time>2023-01-26T14:03:43Z</time>
      </trkpt>
      <trkpt lat="44.23303" lon="1.77479">
        <ele>200.7</ele>
        <time>2023-01-26T14:03:44Z</time>
      </trkpt>
      <trkpt lat="44.23303" lon="1.77479">
        <ele>200.7</ele>
        <time>2023-01-26T14:03:45Z</time>
      </trkpt>
      <trkpt lat="44.23303" lon="1.77479">
        <ele>200.7</ele>
        <time>2023-01-26T14:03:47Z</time>
      </trkpt>
      <trkpt lat="44.23303" lon="1.77479">
        <ele>200.7</ele>
        <time>2023-01-26T14:03:48Z</time>
      </trkpt>
      <trkpt lat="44.23303" lon="1.77479">
        <ele>200.8</ele>
        <time>2023-01-26T14:03:50Z</time>
      </trkpt>
      <trkpt lat="44.23304" lon="1.77479">
        <ele>200.8</ele>
        <time>2023-01-26T14:03:51Z</time>
      </trkpt>
      <trkpt lat="44.23304" lon="1.77478">
        <ele>200.8</ele>
        <time>2023-01-26T14:03:53Z</time>
      </trkpt>
      <trkpt lat="44.23305" lon="1.77473">
        <ele>200.9</ele>
        <time>2023-01-26T14:04:00Z</time>
      </trkpt>
      <trkpt lat="44.23305" lon="1.77472">
        <ele>200.9</ele>
        <time>2023-01-26T14:04:01Z</time>
      </trkpt>
      <trkpt lat="44.23305" lon="1.77469">
        <ele>201</ele>
        <time>2023-01-26T14:04:02Z</time>
      </trkpt>
      <trkpt lat="44.23306" lon="1.77464">
        <ele>201.1</ele>
        <time>2023-01-26T14:04:03Z</time>
      </trkpt>
      <trkpt lat="44.23306" lon="1.77463">
        <ele>201.1</ele>
        <time>2023-01-26T14:04:04Z</time>
      </trkpt>
      <trkpt lat="44.23307" lon="1.77459">
        <ele>201.2</ele>
        <time>2023-01-26T14:04:05Z</time>
      </trkpt>
      <trkpt lat="44.23308" lon="1.77457">
        <ele>201.2</ele>
        <time>2023-01-26T14:04:06Z</time>
      </trkpt>
      <trkpt lat="44.23308" lon="1.77453">
        <ele>201.3</ele>
        <time>2023-01-26T14:04:07Z</time>
      </trkpt>
      <trkpt lat="44.23308" lon="1.77451">
        <ele>201.3</ele>
        <time>2023-01-26T14:04:08Z</time>
      </trkpt>
      <trkpt lat="44.23309" lon="1.77446">
        <ele>201.5</ele>
        <time>2023-01-26T14:04:09Z</time>
      </trkpt>
      <trkpt lat="44.23309" lon="1.77444">
        <ele>201.5</ele>
        <time>2023-01-26T14:04:10Z</time>
      </trkpt>
      <trkpt lat="44.2331" lon="1.77437">
        <ele>201.7</ele>
        <time>2023-01-26T14:04:12Z</time>
      </trkpt>
      <trkpt lat="44.23312" lon="1.77433">
        <ele>201.8</ele>
        <time>2023-01-26T14:04:13Z</time>
      </trkpt>
      <trkpt lat="44.23312" lon="1.77429">
        <ele>201.9</ele>
        <time>2023-01-26T14:04:14Z</time>
      </trkpt>
      <trkpt lat="44.23313" lon="1.77425">
        <ele>202</ele>
        <time>2023-01-26T14:04:15Z</time>
      </trkpt>
      <trkpt lat="44.23314" lon="1.77418">
        <ele>202.1</ele>
        <time>2023-01-26T14:04:17Z</time>
      </trkpt>
      <trkpt lat="44.23315" lon="1.77413">
        <ele>202.3</ele>
        <time>2023-01-26T14:04:18Z</time>
      </trkpt>
      <trkpt lat="44.23316" lon="1.77408">
        <ele>202.4</ele>
        <time>2023-01-26T14:04:19Z</time>
      </trkpt>
      <trkpt lat="44.23318" lon="1.77403">
        <ele>202.5</ele>
        <time>2023-01-26T14:04:20Z</time>
      </trkpt>
      <trkpt lat="44.2332" lon="1.77399">
        <ele>202.6</ele>
        <time>2023-01-26T14:04:22Z</time>
      </trkpt>
      <trkpt lat="44.23321" lon="1.77395">
        <ele>202.7</ele>
        <time>2023-01-26T14:04:23Z</time>
      </trkpt>
      <trkpt lat="44.23323" lon="1.7739">
        <ele>202.8</ele>
        <time>2023-01-26T14:04:24Z</time>
      </trkpt>
      <trkpt lat="44.23324" lon="1.77384">
        <ele>202.9</ele>
        <time>2023-01-26T14:04:25Z</time>
      </trkpt>
      <trkpt lat="44.23326" lon="1.77376">
        <ele>203.1</ele>
        <time>2023-01-26T14:04:27Z</time>
      </trkpt>
      <trkpt lat="44.23327" lon="1.77371">
        <ele>203.2</ele>
        <time>2023-01-26T14:04:28Z</time>
      </trkpt>
      <trkpt lat="44.23328" lon="1.77364">
        <ele>203.4</ele>
        <time>2023-01-26T14:04:29Z</time>
      </trkpt>
      <trkpt lat="44.2333" lon="1.77359">
        <ele>203.5</ele>
        <time>2023-01-26T14:04:30Z</time>
      </trkpt>
      <trkpt lat="44.23331" lon="1.77352">
        <ele>203.6</ele>
        <time>2023-01-26T14:04:32Z</time>
      </trkpt>
      <trkpt lat="44.23332" lon="1.77347">
        <ele>203.7</ele>
        <time>2023-01-26T14:04:33Z</time>
      </trkpt>
      <trkpt lat="44.23333" lon="1.77342">
        <ele>203.8</ele>
        <time>2023-01-26T14:04:34Z</time>
      </trkpt>
      <trkpt lat="44.23333" lon="1.77336">
        <ele>203.9</ele>
        <time>2023-01-26T14:04:35Z</time>
      </trkpt>
      <trkpt lat="44.23335" lon="1.77328">
        <ele>204</ele>
        <time>2023-01-26T14:04:36Z</time>
      </trkpt>
      <trkpt lat="44.23336" lon="1.77321">
        <ele>204.1</ele>
        <time>2023-01-26T14:04:38Z</time>
      </trkpt>
      <trkpt lat="44.23338" lon="1.77316">
        <ele>204.2</ele>
        <time>2023-01-26T14:04:39Z</time>
      </trkpt>
      <trkpt lat="44.23339" lon="1.77308">
        <ele>204.3</ele>
        <time>2023-01-26T14:04:40Z</time>
      </trkpt>
      <trkpt lat="44.23339" lon="1.77303">
        <ele>204.4</ele>
        <time>2023-01-26T14:04:41Z</time>
      </trkpt>
      <trkpt lat="44.23339" lon="1.77293">
        <ele>204.4</ele>
        <time>2023-01-26T14:04:43Z</time>
      </trkpt>
      <trkpt lat="44.2334" lon="1.77283">
        <ele>204.5</ele>
        <time>2023-01-26T14:04:45Z</time>
      </trkpt>
      <trkpt lat="44.23342" lon="1.77276">
        <ele>204.6</ele>
        <time>2023-01-26T14:04:46Z</time>
      </trkpt>
      <trkpt lat="44.23343" lon="1.7727">
        <ele>204.6</ele>
        <time>2023-01-26T14:04:47Z</time>
      </trkpt>
      <trkpt lat="44.23344" lon="1.77263">
        <ele>204.7</ele>
        <time>2023-01-26T14:04:48Z</time>
      </trkpt>
      <trkpt lat="44.23344" lon="1.77257">
        <ele>204.8</ele>
        <time>2023-01-26T14:04:49Z</time>
      </trkpt>
      <trkpt lat="44.23345" lon="1.77246">
        <ele>204.9</ele>
        <time>2023-01-26T14:04:51Z</time>
      </trkpt>
      <trkpt lat="44.23346" lon="1.7724">
        <ele>205</ele>
        <time>2023-01-26T14:04:52Z</time>
      </trkpt>
      <trkpt lat="44.23346" lon="1.77232">
        <ele>205.2</ele>
        <time>2023-01-26T14:04:53Z</time>
      </trkpt>
      <trkpt lat="44.23346" lon="1.77223">
        <ele>205.3</ele>
        <time>2023-01-26T14:04:55Z</time>
      </trkpt>
      <trkpt lat="44.23346" lon="1.77216">
        <ele>205.5</ele>
        <time>2023-01-26T14:04:56Z</time>
      </trkpt>
      <trkpt lat="44.23346" lon="1.7721">
        <ele>205.6</ele>
        <time>2023-01-26T14:04:57Z</time>
      </trkpt>
      <trkpt lat="44.23346" lon="1.77203">
        <ele>205.7</ele>
        <time>2023-01-26T14:04:58Z</time>
      </trkpt>
      <trkpt lat="44.23347" lon="1.77198">
        <ele>205.8</ele>
        <time>2023-01-26T14:04:59Z</time>
      </trkpt>
      <trkpt lat="44.23348" lon="1.77193">
        <ele>205.9</ele>
        <time>2023-01-26T14:05:00Z</time>
      </trkpt>
      <trkpt lat="44.23351" lon="1.77182">
        <ele>206.1</ele>
        <time>2023-01-26T14:05:02Z</time>
      </trkpt>
      <trkpt lat="44.23353" lon="1.77176">
        <ele>206.2</ele>
        <time>2023-01-26T14:05:04Z</time>
      </trkpt>
      <trkpt lat="44.23354" lon="1.77169">
        <ele>206.3</ele>
        <time>2023-01-26T14:05:05Z</time>
      </trkpt>
      <trkpt lat="44.23356" lon="1.77164">
        <ele>206.5</ele>
        <time>2023-01-26T14:05:06Z</time>
      </trkpt>
      <trkpt lat="44.23358" lon="1.7716">
        <ele>206.5</ele>
        <time>2023-01-26T14:05:07Z</time>
      </trkpt>
      <trkpt lat="44.23361" lon="1.77153">
        <ele>206.7</ele>
        <time>2023-01-26T14:05:09Z</time>
      </trkpt>
      <trkpt lat="44.23363" lon="1.77147">
        <ele>206.8</ele>
        <time>2023-01-26T14:05:10Z</time>
      </trkpt>
      <trkpt lat="44.23366" lon="1.77139">
        <ele>207.1</ele>
        <time>2023-01-26T14:05:12Z</time>
      </trkpt>
      <trkpt lat="44.2337" lon="1.77132">
        <ele>207.3</ele>
        <time>2023-01-26T14:05:14Z</time>
      </trkpt>
      <trkpt lat="44.23374" lon="1.7713">
        <ele>207.5</ele>
        <time>2023-01-26T14:05:15Z</time>
      </trkpt>
      <trkpt lat="44.23377" lon="1.77128">
        <ele>207.7</ele>
        <time>2023-01-26T14:05:16Z</time>
      </trkpt>
      <trkpt lat="44.2338" lon="1.77126">
        <ele>207.8</ele>
        <time>2023-01-26T14:05:18Z</time>
      </trkpt>
      <trkpt lat="44.23384" lon="1.77125">
        <ele>208</ele>
        <time>2023-01-26T14:05:19Z</time>
      </trkpt>
      <trkpt lat="44.23389" lon="1.77125">
        <ele>208.3</ele>
        <time>2023-01-26T14:05:21Z</time>
      </trkpt>
      <trkpt lat="44.23393" lon="1.77126">
        <ele>208.5</ele>
        <time>2023-01-26T14:05:22Z</time>
      </trkpt>
      <trkpt lat="44.23394" lon="1.77126">
        <ele>208.5</ele>
        <time>2023-01-26T14:05:23Z</time>
      </trkpt>
      <trkpt lat="44.23395" lon="1.77127">
        <ele>208.6</ele>
        <time>2023-01-26T14:05:24Z</time>
      </trkpt>
      <trkpt lat="44.23397" lon="1.77129">
        <ele>208.7</ele>
        <time>2023-01-26T14:05:26Z</time>
      </trkpt>
      <trkpt lat="44.234" lon="1.7713">
        <ele>208.7</ele>
        <time>2023-01-26T14:05:27Z</time>
      </trkpt>
      <trkpt lat="44.23401" lon="1.7713">
        <ele>209.1</ele>
        <time>2023-01-26T14:05:28Z</time>
      </trkpt>
      <trkpt lat="44.23404" lon="1.77126">
        <ele>210.8</ele>
        <time>2023-01-26T14:05:30Z</time>
      </trkpt>
      <trkpt lat="44.23405" lon="1.77121">
        <ele>212</ele>
        <time>2023-01-26T14:05:31Z</time>
      </trkpt>
      <trkpt lat="44.23406" lon="1.77115">
        <ele>213.7</ele>
        <time>2023-01-26T14:05:32Z</time>
      </trkpt>
      <trkpt lat="44.23406" lon="1.77105">
        <ele>218.8</ele>
        <time>2023-01-26T14:05:34Z</time>
      </trkpt>
      <trkpt lat="44.23406" lon="1.77098">
        <ele>218.7</ele>
        <time>2023-01-26T14:05:35Z</time>
      </trkpt>
      <trkpt lat="44.23405" lon="1.77091">
        <ele>218.6</ele>
        <time>2023-01-26T14:05:36Z</time>
      </trkpt>
      <trkpt lat="44.23404" lon="1.77081">
        <ele>218.5</ele>
        <time>2023-01-26T14:05:38Z</time>
      </trkpt>
      <trkpt lat="44.23404" lon="1.77074">
        <ele>218.4</ele>
        <time>2023-01-26T14:05:39Z</time>
      </trkpt>
      <trkpt lat="44.23405" lon="1.77068">
        <ele>218.3</ele>
        <time>2023-01-26T14:05:40Z</time>
      </trkpt>
      <trkpt lat="44.23406" lon="1.77062">
        <ele>218.2</ele>
        <time>2023-01-26T14:05:41Z</time>
      </trkpt>
      <trkpt lat="44.23407" lon="1.77057">
        <ele>218.1</ele>
        <time>2023-01-26T14:05:43Z</time>
      </trkpt>
      <trkpt lat="44.23409" lon="1.77052">
        <ele>218</ele>
        <time>2023-01-26T14:05:44Z</time>
      </trkpt>
      <trkpt lat="44.23413" lon="1.77044">
        <ele>217.8</ele>
        <time>2023-01-26T14:05:46Z</time>
      </trkpt>
      <trkpt lat="44.23416" lon="1.77038">
        <ele>217.7</ele>
        <time>2023-01-26T14:05:47Z</time>
      </trkpt>
      <trkpt lat="44.2342" lon="1.77029">
        <ele>217.5</ele>
        <time>2023-01-26T14:05:48Z</time>
      </trkpt>
      <trkpt lat="44.23422" lon="1.77022">
        <ele>217.4</ele>
        <time>2023-01-26T14:05:50Z</time>
      </trkpt>
      <trkpt lat="44.23424" lon="1.77017">
        <ele>217.3</ele>
        <time>2023-01-26T14:05:51Z</time>
      </trkpt>
      <trkpt lat="44.23429" lon="1.77002">
        <ele>217.1</ele>
        <time>2023-01-26T14:05:53Z</time>
      </trkpt>
      <trkpt lat="44.23433" lon="1.76997">
        <ele>217</ele>
        <time>2023-01-26T14:05:55Z</time>
      </trkpt>
      <trkpt lat="44.23436" lon="1.76991">
        <ele>216.9</ele>
        <time>2023-01-26T14:05:56Z</time>
      </trkpt>
      <trkpt lat="44.23439" lon="1.76981">
        <ele>216.7</ele>
        <time>2023-01-26T14:05:58Z</time>
      </trkpt>
      <trkpt lat="44.23442" lon="1.76976">
        <ele>216.6</ele>
        <time>2023-01-26T14:05:59Z</time>
      </trkpt>
      <trkpt lat="44.23445" lon="1.76971">
        <ele>216.5</ele>
        <time>2023-01-26T14:06:00Z</time>
      </trkpt>
      <trkpt lat="44.23447" lon="1.76965">
        <ele>216.4</ele>
        <time>2023-01-26T14:06:01Z</time>
      </trkpt>
      <trkpt lat="44.23451" lon="1.76956">
        <ele>216.2</ele>
        <time>2023-01-26T14:06:03Z</time>
      </trkpt>
      <trkpt lat="44.23454" lon="1.76951">
        <ele>216.1</ele>
        <time>2023-01-26T14:06:04Z</time>
      </trkpt>
      <trkpt lat="44.23457" lon="1.76944">
        <ele>216</ele>
        <time>2023-01-26T14:06:05Z</time>
      </trkpt>
      <trkpt lat="44.2346" lon="1.76938">
        <ele>215.8</ele>
        <time>2023-01-26T14:06:07Z</time>
      </trkpt>
      <trkpt lat="44.23463" lon="1.76934">
        <ele>215.7</ele>
        <time>2023-01-26T14:06:08Z</time>
      </trkpt>
      <trkpt lat="44.23466" lon="1.76929">
        <ele>215.6</ele>
        <time>2023-01-26T14:06:09Z</time>
      </trkpt>
      <trkpt lat="44.23471" lon="1.76922">
        <ele>215.5</ele>
        <time>2023-01-26T14:06:10Z</time>
      </trkpt>
      <trkpt lat="44.23473" lon="1.76917">
        <ele>215.4</ele>
        <time>2023-01-26T14:06:12Z</time>
      </trkpt>
      <trkpt lat="44.23475" lon="1.76912">
        <ele>215.3</ele>
        <time>2023-01-26T14:06:13Z</time>
      </trkpt>
      <trkpt lat="44.23477" lon="1.76908">
        <ele>215.3</ele>
        <time>2023-01-26T14:06:14Z</time>
      </trkpt>
      <trkpt lat="44.2348" lon="1.76902">
        <ele>215.2</ele>
        <time>2023-01-26T14:06:15Z</time>
      </trkpt>
      <trkpt lat="44.23481" lon="1.76896">
        <ele>215.1</ele>
        <time>2023-01-26T14:06:16Z</time>
      </trkpt>
      <trkpt lat="44.23482" lon="1.7689">
        <ele>214.9</ele>
        <time>2023-01-26T14:06:17Z</time>
      </trkpt>
      <trkpt lat="44.23483" lon="1.76884">
        <ele>214.9</ele>
        <time>2023-01-26T14:06:18Z</time>
      </trkpt>
      <trkpt lat="44.23483" lon="1.76878">
        <ele>214.8</ele>
        <time>2023-01-26T14:06:20Z</time>
      </trkpt>
      <trkpt lat="44.23482" lon="1.76873">
        <ele>214.8</ele>
        <time>2023-01-26T14:06:21Z</time>
      </trkpt>
      <trkpt lat="44.2348" lon="1.7687">
        <ele>214.8</ele>
        <time>2023-01-26T14:06:22Z</time>
      </trkpt>
      <trkpt lat="44.23483" lon="1.76866">
        <ele>215.1</ele>
        <time>2023-01-26T14:07:03Z</time>
      </trkpt>
      <trkpt lat="44.23487" lon="1.76865">
        <ele>215.2</ele>
        <time>2023-01-26T14:07:04Z</time>
      </trkpt>
      <trkpt lat="44.23489" lon="1.76861">
        <ele>215.4</ele>
        <time>2023-01-26T14:07:05Z</time>
      </trkpt>
      <trkpt lat="44.23487" lon="1.76855">
        <ele>215.5</ele>
        <time>2023-01-26T14:07:06Z</time>
      </trkpt>
      <trkpt lat="44.23487" lon="1.76848">
        <ele>215.7</ele>
        <time>2023-01-26T14:07:07Z</time>
      </trkpt>
      <trkpt lat="44.23491" lon="1.76844">
        <ele>215.9</ele>
        <time>2023-01-26T14:07:09Z</time>
      </trkpt>
      <trkpt lat="44.23495" lon="1.76841">
        <ele>216.1</ele>
        <time>2023-01-26T14:07:10Z</time>
      </trkpt>
      <trkpt lat="44.23498" lon="1.76838">
        <ele>216.3</ele>
        <time>2023-01-26T14:07:11Z</time>
      </trkpt>
      <trkpt lat="44.23501" lon="1.76832">
        <ele>216.6</ele>
        <time>2023-01-26T14:07:12Z</time>
      </trkpt>
      <trkpt lat="44.23504" lon="1.76827">
        <ele>216.8</ele>
        <time>2023-01-26T14:07:14Z</time>
      </trkpt>
      <trkpt lat="44.23506" lon="1.76824">
        <ele>217</ele>
        <time>2023-01-26T14:07:15Z</time>
      </trkpt>
      <trkpt lat="44.23508" lon="1.76821">
        <ele>217.2</ele>
        <time>2023-01-26T14:07:16Z</time>
      </trkpt>
      <trkpt lat="44.2351" lon="1.76816">
        <ele>217.5</ele>
        <time>2023-01-26T14:07:17Z</time>
      </trkpt>
      <trkpt lat="44.23514" lon="1.76812">
        <ele>218</ele>
        <time>2023-01-26T14:07:19Z</time>
      </trkpt>
      <trkpt lat="44.23517" lon="1.76807">
        <ele>218.4</ele>
        <time>2023-01-26T14:07:20Z</time>
      </trkpt>
      <trkpt lat="44.23519" lon="1.76805">
        <ele>218.8</ele>
        <time>2023-01-26T14:07:21Z</time>
      </trkpt>
      <trkpt lat="44.23525" lon="1.76799">
        <ele>219.9</ele>
        <time>2023-01-26T14:07:23Z</time>
      </trkpt>
      <trkpt lat="44.23528" lon="1.76796">
        <ele>220.5</ele>
        <time>2023-01-26T14:07:25Z</time>
      </trkpt>
      <trkpt lat="44.23531" lon="1.76794">
        <ele>221.1</ele>
        <time>2023-01-26T14:07:26Z</time>
      </trkpt>
      <trkpt lat="44.23536" lon="1.76791">
        <ele>222.2</ele>
        <time>2023-01-26T14:07:28Z</time>
      </trkpt>
      <trkpt lat="44.23538" lon="1.76789">
        <ele>222.2</ele>
        <time>2023-01-26T14:07:29Z</time>
      </trkpt>
      <trkpt lat="44.23538" lon="1.76789">
        <ele>222.2</ele>
        <time>2023-01-26T14:07:30Z</time>
      </trkpt>
      <trkpt lat="44.23539" lon="1.76788">
        <ele>222.2</ele>
        <time>2023-01-26T14:07:32Z</time>
      </trkpt>
      <trkpt lat="44.23538" lon="1.76788">
        <ele>222.2</ele>
        <time>2023-01-26T14:07:33Z</time>
      </trkpt>
      <trkpt lat="44.23538" lon="1.76788">
        <ele>222.2</ele>
        <time>2023-01-26T14:07:34Z</time>
      </trkpt>
      <trkpt lat="44.23538" lon="1.76788">
        <ele>222.2</ele>
        <time>2023-01-26T14:07:36Z</time>
      </trkpt>
      <trkpt lat="44.23538" lon="1.76788">
        <ele>222.2</ele>
        <time>2023-01-26T14:07:37Z</time>
      </trkpt>
      <trkpt lat="44.23538" lon="1.76788">
        <ele>222.2</ele>
        <time>2023-01-26T14:07:38Z</time>
      </trkpt>
      <trkpt lat="44.23538" lon="1.76788">
        <ele>222.2</ele>
        <time>2023-01-26T14:07:40Z</time>
      </trkpt>
      <trkpt lat="44.23538" lon="1.76787">
        <ele>222.2</ele>
        <time>2023-01-26T14:07:41Z</time>
      </trkpt>
      <trkpt lat="44.23538" lon="1.76787">
        <ele>222.2</ele>
        <time>2023-01-26T14:07:42Z</time>
      </trkpt>
      <trkpt lat="44.2354" lon="1.7679">
        <ele>222.2</ele>
        <time>2023-01-26T14:08:29Z</time>
      </trkpt>
      <trkpt lat="44.23541" lon="1.76792">
        <ele>222.2</ele>
        <time>2023-01-26T14:08:30Z</time>
      </trkpt>
      <trkpt lat="44.23544" lon="1.76794">
        <ele>222.3</ele>
        <time>2023-01-26T14:08:31Z</time>
      </trkpt>
      <trkpt lat="44.23547" lon="1.76796">
        <ele>223</ele>
        <time>2023-01-26T14:08:32Z</time>
      </trkpt>
      <trkpt lat="44.23548" lon="1.76797">
        <ele>223.4</ele>
        <time>2023-01-26T14:08:33Z</time>
      </trkpt>
      <trkpt lat="44.23551" lon="1.76799">
        <ele>224.2</ele>
        <time>2023-01-26T14:08:34Z</time>
      </trkpt>
      <trkpt lat="44.23554" lon="1.768">
        <ele>225.1</ele>
        <time>2023-01-26T14:08:36Z</time>
      </trkpt>
      <trkpt lat="44.23557" lon="1.76801">
        <ele>225.9</ele>
        <time>2023-01-26T14:08:37Z</time>
      </trkpt>
      <trkpt lat="44.23559" lon="1.76804">
        <ele>226.6</ele>
        <time>2023-01-26T14:08:38Z</time>
      </trkpt>
      <trkpt lat="44.23563" lon="1.76808">
        <ele>227.9</ele>
        <time>2023-01-26T14:08:39Z</time>
      </trkpt>
      <trkpt lat="44.23565" lon="1.76811">
        <ele>228.4</ele>
        <time>2023-01-26T14:08:41Z</time>
      </trkpt>
      <trkpt lat="44.23567" lon="1.76815">
        <ele>228.4</ele>
        <time>2023-01-26T14:08:42Z</time>
      </trkpt>
      <trkpt lat="44.23569" lon="1.76817">
        <ele>228.4</ele>
        <time>2023-01-26T14:08:43Z</time>
      </trkpt>
      <trkpt lat="44.23572" lon="1.7682">
        <ele>228.5</ele>
        <time>2023-01-26T14:08:45Z</time>
      </trkpt>
      <trkpt lat="44.23575" lon="1.76823">
        <ele>228.5</ele>
        <time>2023-01-26T14:08:46Z</time>
      </trkpt>
      <trkpt lat="44.23577" lon="1.76826">
        <ele>228.5</ele>
        <time>2023-01-26T14:08:47Z</time>
      </trkpt>
      <trkpt lat="44.23578" lon="1.76827">
        <ele>228.5</ele>
        <time>2023-01-26T14:08:48Z</time>
      </trkpt>
      <trkpt lat="44.23582" lon="1.76831">
        <ele>228.4</ele>
        <time>2023-01-26T14:08:50Z</time>
      </trkpt>
      <trkpt lat="44.23584" lon="1.76833">
        <ele>228.4</ele>
        <time>2023-01-26T14:08:52Z</time>
      </trkpt>
      <trkpt lat="44.23585" lon="1.76835">
        <ele>228.8</ele>
        <time>2023-01-26T14:08:53Z</time>
      </trkpt>
      <trkpt lat="44.23586" lon="1.76835">
        <ele>229.1</ele>
        <time>2023-01-26T14:08:54Z</time>
      </trkpt>
      <trkpt lat="44.23588" lon="1.76837">
        <ele>229.7</ele>
        <time>2023-01-26T14:08:55Z</time>
      </trkpt>
      <trkpt lat="44.23589" lon="1.76838">
        <ele>230</ele>
        <time>2023-01-26T14:08:56Z</time>
      </trkpt>
      <trkpt lat="44.2359" lon="1.76839">
        <ele>230.4</ele>
        <time>2023-01-26T14:08:57Z</time>
      </trkpt>
      <trkpt lat="44.23592" lon="1.76841">
        <ele>230.8</ele>
        <time>2023-01-26T14:08:59Z</time>
      </trkpt>
      <trkpt lat="44.23594" lon="1.76843">
        <ele>231.6</ele>
        <time>2023-01-26T14:09:00Z</time>
      </trkpt>
      <trkpt lat="44.23597" lon="1.76846">
        <ele>232.4</ele>
        <time>2023-01-26T14:09:02Z</time>
      </trkpt>
      <trkpt lat="44.23598" lon="1.76847">
        <ele>232.7</ele>
        <time>2023-01-26T14:09:03Z</time>
      </trkpt>
      <trkpt lat="44.23599" lon="1.76849">
        <ele>233.2</ele>
        <time>2023-01-26T14:09:04Z</time>
      </trkpt>
      <trkpt lat="44.236" lon="1.7685">
        <ele>233.5</ele>
        <time>2023-01-26T14:09:05Z</time>
      </trkpt>
      <trkpt lat="44.23601" lon="1.76854">
        <ele>234.2</ele>
        <time>2023-01-26T14:09:07Z</time>
      </trkpt>
      <trkpt lat="44.23602" lon="1.76856">
        <ele>234.7</ele>
        <time>2023-01-26T14:09:08Z</time>
      </trkpt>
      <trkpt lat="44.23602" lon="1.76858">
        <ele>235.1</ele>
        <time>2023-01-26T14:09:09Z</time>
      </trkpt>
      <trkpt lat="44.23603" lon="1.7686">
        <ele>232.2</ele>
        <time>2023-01-26T14:09:10Z</time>
      </trkpt>
      <trkpt lat="44.23602" lon="1.76861">
        <ele>230.9</ele>
        <time>2023-01-26T14:09:11Z</time>
      </trkpt>
      <trkpt lat="44.23601" lon="1.76866">
        <ele>228.8</ele>
        <time>2023-01-26T14:09:13Z</time>
      </trkpt>
      <trkpt lat="44.23599" lon="1.76869">
        <ele>229.7</ele>
        <time>2023-01-26T14:09:15Z</time>
      </trkpt>
      <trkpt lat="44.23597" lon="1.76871">
        <ele>230.8</ele>
        <time>2023-01-26T14:09:16Z</time>
      </trkpt>
      <trkpt lat="44.23595" lon="1.76872">
        <ele>231.4</ele>
        <time>2023-01-26T14:09:17Z</time>
      </trkpt>
      <trkpt lat="44.23593" lon="1.76875">
        <ele>232.6</ele>
        <time>2023-01-26T14:09:19Z</time>
      </trkpt>
      <trkpt lat="44.23592" lon="1.76876">
        <ele>233</ele>
        <time>2023-01-26T14:09:20Z</time>
      </trkpt>
      <trkpt lat="44.2359" lon="1.76879">
        <ele>233.9</ele>
        <time>2023-01-26T14:09:21Z</time>
      </trkpt>
      <trkpt lat="44.23591" lon="1.76882">
        <ele>235.5</ele>
        <time>2023-01-26T14:09:23Z</time>
      </trkpt>
      <trkpt lat="44.23592" lon="1.76886">
        <ele>235.8</ele>
        <time>2023-01-26T14:09:24Z</time>
      </trkpt>
      <trkpt lat="44.23593" lon="1.76887">
        <ele>235.9</ele>
        <time>2023-01-26T14:09:25Z</time>
      </trkpt>
      <trkpt lat="44.23595" lon="1.7689">
        <ele>236.2</ele>
        <time>2023-01-26T14:09:26Z</time>
      </trkpt>
      <trkpt lat="44.23596" lon="1.76892">
        <ele>236.4</ele>
        <time>2023-01-26T14:09:27Z</time>
      </trkpt>
      <trkpt lat="44.23599" lon="1.76897">
        <ele>236.9</ele>
        <time>2023-01-26T14:09:29Z</time>
      </trkpt>
      <trkpt lat="44.23601" lon="1.769">
        <ele>237.3</ele>
        <time>2023-01-26T14:09:31Z</time>
      </trkpt>
      <trkpt lat="44.23604" lon="1.76904">
        <ele>237.8</ele>
        <time>2023-01-26T14:09:32Z</time>
      </trkpt>
      <trkpt lat="44.23605" lon="1.76905">
        <ele>237.9</ele>
        <time>2023-01-26T14:09:33Z</time>
      </trkpt>
      <trkpt lat="44.23608" lon="1.7691">
        <ele>238.4</ele>
        <time>2023-01-26T14:09:35Z</time>
      </trkpt>
      <trkpt lat="44.23608" lon="1.76913">
        <ele>238.6</ele>
        <time>2023-01-26T14:09:36Z</time>
      </trkpt>
      <trkpt lat="44.23609" lon="1.76915">
        <ele>238.8</ele>
        <time>2023-01-26T14:09:37Z</time>
      </trkpt>
      <trkpt lat="44.2361" lon="1.7692">
        <ele>239.5</ele>
        <time>2023-01-26T14:09:38Z</time>
      </trkpt>
      <trkpt lat="44.23611" lon="1.76923">
        <ele>240.7</ele>
        <time>2023-01-26T14:09:39Z</time>
      </trkpt>
      <trkpt lat="44.23612" lon="1.76924">
        <ele>241.9</ele>
        <time>2023-01-26T14:09:40Z</time>
      </trkpt>
      <trkpt lat="44.23614" lon="1.76925">
        <ele>242.5</ele>
        <time>2023-01-26T14:09:41Z</time>
      </trkpt>
      <trkpt lat="44.23616" lon="1.76926">
        <ele>242.5</ele>
        <time>2023-01-26T14:09:43Z</time>
      </trkpt>
      <trkpt lat="44.23619" lon="1.76927">
        <ele>242.5</ele>
        <time>2023-01-26T14:09:44Z</time>
      </trkpt>
      <trkpt lat="44.23621" lon="1.76928">
        <ele>242.5</ele>
        <time>2023-01-26T14:09:45Z</time>
      </trkpt>
      <trkpt lat="44.23623" lon="1.76931">
        <ele>242.5</ele>
        <time>2023-01-26T14:09:47Z</time>
      </trkpt>
      <trkpt lat="44.23625" lon="1.76935">
        <ele>242.5</ele>
        <time>2023-01-26T14:09:48Z</time>
      </trkpt>
      <trkpt lat="44.23626" lon="1.76936">
        <ele>242.5</ele>
        <time>2023-01-26T14:09:49Z</time>
      </trkpt>
      <trkpt lat="44.23625" lon="1.76941">
        <ele>242.5</ele>
        <time>2023-01-26T14:09:50Z</time>
      </trkpt>
      <trkpt lat="44.23625" lon="1.76944">
        <ele>242.5</ele>
        <time>2023-01-26T14:09:51Z</time>
      </trkpt>
      <trkpt lat="44.23624" lon="1.76948">
        <ele>242</ele>
        <time>2023-01-26T14:09:53Z</time>
      </trkpt>
      <trkpt lat="44.23623" lon="1.76952">
        <ele>241.6</ele>
        <time>2023-01-26T14:09:54Z</time>
      </trkpt>
      <trkpt lat="44.23623" lon="1.76957">
        <ele>241.1</ele>
        <time>2023-01-26T14:09:55Z</time>
      </trkpt>
      <trkpt lat="44.23623" lon="1.7696">
        <ele>240.7</ele>
        <time>2023-01-26T14:09:56Z</time>
      </trkpt>
      <trkpt lat="44.23623" lon="1.76963">
        <ele>240.5</ele>
        <time>2023-01-26T14:09:57Z</time>
      </trkpt>
      <trkpt lat="44.23621" lon="1.76966">
        <ele>240</ele>
        <time>2023-01-26T14:09:59Z</time>
      </trkpt>
      <trkpt lat="44.23618" lon="1.76968">
        <ele>239.5</ele>
        <time>2023-01-26T14:10:00Z</time>
      </trkpt>
      <trkpt lat="44.23614" lon="1.7697">
        <ele>238.9</ele>
        <time>2023-01-26T14:10:01Z</time>
      </trkpt>
      <trkpt lat="44.23609" lon="1.76975">
        <ele>238</ele>
        <time>2023-01-26T14:10:03Z</time>
      </trkpt>
      <trkpt lat="44.23606" lon="1.76978">
        <ele>237.6</ele>
        <time>2023-01-26T14:10:04Z</time>
      </trkpt>
      <trkpt lat="44.23604" lon="1.76984">
        <ele>236.4</ele>
        <time>2023-01-26T14:10:05Z</time>
      </trkpt>
      <trkpt lat="44.23599" lon="1.76989">
        <ele>236.3</ele>
        <time>2023-01-26T14:10:06Z</time>
      </trkpt>
      <trkpt lat="44.23596" lon="1.76992">
        <ele>236.4</ele>
        <time>2023-01-26T14:10:07Z</time>
      </trkpt>
      <trkpt lat="44.23592" lon="1.76995">
        <ele>236.6</ele>
        <time>2023-01-26T14:10:09Z</time>
      </trkpt>
      <trkpt lat="44.23589" lon="1.76996">
        <ele>236.7</ele>
        <time>2023-01-26T14:10:10Z</time>
      </trkpt>
      <trkpt lat="44.23587" lon="1.76997">
        <ele>236.8</ele>
        <time>2023-01-26T14:10:11Z</time>
      </trkpt>
      <trkpt lat="44.23579" lon="1.76999">
        <ele>237.1</ele>
        <time>2023-01-26T14:10:13Z</time>
      </trkpt>
      <trkpt lat="44.23578" lon="1.77">
        <ele>237.4</ele>
        <time>2023-01-26T14:10:15Z</time>
      </trkpt>
      <trkpt lat="44.23577" lon="1.77006">
        <ele>237.8</ele>
        <time>2023-01-26T14:10:16Z</time>
      </trkpt>
      <trkpt lat="44.23576" lon="1.77009">
        <ele>238.1</ele>
        <time>2023-01-26T14:10:17Z</time>
      </trkpt>
      <trkpt lat="44.23573" lon="1.77015">
        <ele>238.6</ele>
        <time>2023-01-26T14:10:19Z</time>
      </trkpt>
      <trkpt lat="44.23572" lon="1.77021">
        <ele>239.1</ele>
        <time>2023-01-26T14:10:20Z</time>
      </trkpt>
      <trkpt lat="44.23569" lon="1.77025">
        <ele>239.6</ele>
        <time>2023-01-26T14:10:22Z</time>
      </trkpt>
      <trkpt lat="44.23567" lon="1.77029">
        <ele>240</ele>
        <time>2023-01-26T14:10:23Z</time>
      </trkpt>
      <trkpt lat="44.23565" lon="1.77033">
        <ele>240.4</ele>
        <time>2023-01-26T14:10:24Z</time>
      </trkpt>
      <trkpt lat="44.23563" lon="1.77039">
        <ele>241</ele>
        <time>2023-01-26T14:10:26Z</time>
      </trkpt>
      <trkpt lat="44.23562" lon="1.77043">
        <ele>241.4</ele>
        <time>2023-01-26T14:10:27Z</time>
      </trkpt>
      <trkpt lat="44.2356" lon="1.77049">
        <ele>242</ele>
        <time>2023-01-26T14:10:28Z</time>
      </trkpt>
      <trkpt lat="44.23558" lon="1.77053">
        <ele>242.5</ele>
        <time>2023-01-26T14:10:30Z</time>
      </trkpt>
      <trkpt lat="44.23557" lon="1.77054">
        <ele>242.7</ele>
        <time>2023-01-26T14:10:31Z</time>
      </trkpt>
      <trkpt lat="44.23556" lon="1.77056">
        <ele>242.7</ele>
        <time>2023-01-26T14:10:32Z</time>
      </trkpt>
      <trkpt lat="44.23555" lon="1.77057">
        <ele>243.5</ele>
        <time>2023-01-26T14:10:34Z</time>
      </trkpt>
      <trkpt lat="44.23554" lon="1.77058">
        <ele>243.5</ele>
        <time>2023-01-26T14:10:35Z</time>
      </trkpt>
      <trkpt lat="44.23553" lon="1.7706">
        <ele>243.6</ele>
        <time>2023-01-26T14:10:37Z</time>
      </trkpt>
      <trkpt lat="44.23553" lon="1.77064">
        <ele>243.8</ele>
        <time>2023-01-26T14:10:38Z</time>
      </trkpt>
      <trkpt lat="44.23553" lon="1.77066">
        <ele>243.8</ele>
        <time>2023-01-26T14:10:39Z</time>
      </trkpt>
      <trkpt lat="44.23552" lon="1.77066">
        <ele>243.8</ele>
        <time>2023-01-26T14:10:41Z</time>
      </trkpt>
      <trkpt lat="44.23552" lon="1.77065">
        <ele>243.9</ele>
        <time>2023-01-26T14:10:42Z</time>
      </trkpt>
      <trkpt lat="44.23551" lon="1.77063">
        <ele>244</ele>
        <time>2023-01-26T14:10:43Z</time>
      </trkpt>
      <trkpt lat="44.23551" lon="1.77061">
        <ele>244</ele>
        <time>2023-01-26T14:10:44Z</time>
      </trkpt>
      <trkpt lat="44.23551" lon="1.7706">
        <ele>244</ele>
        <time>2023-01-26T14:10:45Z</time>
      </trkpt>
      <trkpt lat="44.23551" lon="1.77055">
        <ele>244.2</ele>
        <time>2023-01-26T14:10:46Z</time>
      </trkpt>
      <trkpt lat="44.23551" lon="1.77051">
        <ele>244.3</ele>
        <time>2023-01-26T14:10:48Z</time>
      </trkpt>
      <trkpt lat="44.2355" lon="1.77047">
        <ele>244.4</ele>
        <time>2023-01-26T14:10:49Z</time>
      </trkpt>
      <trkpt lat="44.2355" lon="1.77042">
        <ele>244.5</ele>
        <time>2023-01-26T14:10:51Z</time>
      </trkpt>
      <trkpt lat="44.2355" lon="1.77038">
        <ele>244.6</ele>
        <time>2023-01-26T14:10:52Z</time>
      </trkpt>
      <trkpt lat="44.2355" lon="1.77037">
        <ele>244.6</ele>
        <time>2023-01-26T14:10:53Z</time>
      </trkpt>
      <trkpt lat="44.23552" lon="1.77032">
        <ele>244.7</ele>
        <time>2023-01-26T14:10:55Z</time>
      </trkpt>
      <trkpt lat="44.23551" lon="1.77031">
        <ele>244.7</ele>
        <time>2023-01-26T14:10:56Z</time>
      </trkpt>
      <trkpt lat="44.23552" lon="1.77024">
        <ele>244.8</ele>
        <time>2023-01-26T14:10:58Z</time>
      </trkpt>
      <trkpt lat="44.23552" lon="1.7702">
        <ele>244.9</ele>
        <time>2023-01-26T14:10:59Z</time>
      </trkpt>
      <trkpt lat="44.23553" lon="1.77018">
        <ele>244.9</ele>
        <time>2023-01-26T14:11:00Z</time>
      </trkpt>
      <trkpt lat="44.23553" lon="1.77013">
        <ele>245</ele>
        <time>2023-01-26T14:11:02Z</time>
      </trkpt>
      <trkpt lat="44.2355" lon="1.77009">
        <ele>245</ele>
        <time>2023-01-26T14:11:03Z</time>
      </trkpt>
      <trkpt lat="44.23548" lon="1.77008">
        <ele>245</ele>
        <time>2023-01-26T14:11:04Z</time>
      </trkpt>
      <trkpt lat="44.23545" lon="1.77009">
        <ele>245.1</ele>
        <time>2023-01-26T14:11:10Z</time>
      </trkpt>
      <trkpt lat="44.23546" lon="1.77009">
        <ele>245.2</ele>
        <time>2023-01-26T14:11:12Z</time>
      </trkpt>
      <trkpt lat="44.23547" lon="1.77009">
        <ele>245.2</ele>
        <time>2023-01-26T14:11:13Z</time>
      </trkpt>
      <trkpt lat="44.23547" lon="1.77009">
        <ele>245.2</ele>
        <time>2023-01-26T14:11:15Z</time>
      </trkpt>
      <trkpt lat="44.23547" lon="1.77009">
        <ele>245.2</ele>
        <time>2023-01-26T14:11:16Z</time>
      </trkpt>
      <trkpt lat="44.23548" lon="1.77009">
        <ele>245.2</ele>
        <time>2023-01-26T14:11:17Z</time>
      </trkpt>
      <trkpt lat="44.23548" lon="1.77009">
        <ele>245.2</ele>
        <time>2023-01-26T14:11:18Z</time>
      </trkpt>
      <trkpt lat="44.23548" lon="1.77011">
        <ele>245.2</ele>
        <time>2023-01-26T14:12:29Z</time>
      </trkpt>
      <trkpt lat="44.23547" lon="1.77012">
        <ele>245.2</ele>
        <time>2023-01-26T14:12:30Z</time>
      </trkpt>
      <trkpt lat="44.23547" lon="1.77013">
        <ele>245.2</ele>
        <time>2023-01-26T14:12:31Z</time>
      </trkpt>
      <trkpt lat="44.23549" lon="1.7701">
        <ele>245.2</ele>
        <time>2023-01-26T14:12:32Z</time>
      </trkpt>
      <trkpt lat="44.23549" lon="1.7701">
        <ele>245.2</ele>
        <time>2023-01-26T14:12:33Z</time>
      </trkpt>
      <trkpt lat="44.23547" lon="1.77013">
        <ele>245.2</ele>
        <time>2023-01-26T14:12:34Z</time>
      </trkpt>
      <trkpt lat="44.23542" lon="1.77023">
        <ele>245.1</ele>
        <time>2023-01-26T14:12:36Z</time>
      </trkpt>
      <trkpt lat="44.23542" lon="1.77025">
        <ele>245</ele>
        <time>2023-01-26T14:12:37Z</time>
      </trkpt>
      <trkpt lat="44.23541" lon="1.77027">
        <ele>245</ele>
        <time>2023-01-26T14:12:38Z</time>
      </trkpt>
      <trkpt lat="44.23542" lon="1.77033">
        <ele>244.9</ele>
        <time>2023-01-26T14:12:39Z</time>
      </trkpt>
      <trkpt lat="44.23542" lon="1.77035">
        <ele>244.8</ele>
        <time>2023-01-26T14:12:40Z</time>
      </trkpt>
      <trkpt lat="44.23541" lon="1.77039">
        <ele>244.6</ele>
        <time>2023-01-26T14:12:42Z</time>
      </trkpt>
      <trkpt lat="44.2354" lon="1.77044">
        <ele>244.4</ele>
        <time>2023-01-26T14:12:43Z</time>
      </trkpt>
      <trkpt lat="44.23542" lon="1.77051">
        <ele>244</ele>
        <time>2023-01-26T14:12:45Z</time>
      </trkpt>
      <trkpt lat="44.23546" lon="1.7706">
        <ele>243.3</ele>
        <time>2023-01-26T14:12:46Z</time>
      </trkpt>
      <trkpt lat="44.23547" lon="1.77067">
        <ele>242.8</ele>
        <time>2023-01-26T14:12:48Z</time>
      </trkpt>
      <trkpt lat="44.2355" lon="1.77075">
        <ele>242.7</ele>
        <time>2023-01-26T14:12:49Z</time>
      </trkpt>
      <trkpt lat="44.2355" lon="1.77083">
        <ele>242.8</ele>
        <time>2023-01-26T14:12:50Z</time>
      </trkpt>
      <trkpt lat="44.2355" lon="1.77087">
        <ele>242.8</ele>
        <time>2023-01-26T14:12:51Z</time>
      </trkpt>
      <trkpt lat="44.2355" lon="1.77092">
        <ele>242.8</ele>
        <time>2023-01-26T14:12:53Z</time>
      </trkpt>
      <trkpt lat="44.2355" lon="1.77093">
        <ele>242.8</ele>
        <time>2023-01-26T14:12:54Z</time>
      </trkpt>
      <trkpt lat="44.2355" lon="1.77099">
        <ele>242.8</ele>
        <time>2023-01-26T14:12:55Z</time>
      </trkpt>
      <trkpt lat="44.2355" lon="1.77102">
        <ele>242.8</ele>
        <time>2023-01-26T14:12:56Z</time>
      </trkpt>
      <trkpt lat="44.23549" lon="1.77106">
        <ele>242.8</ele>
        <time>2023-01-26T14:12:58Z</time>
      </trkpt>
      <trkpt lat="44.23548" lon="1.7711">
        <ele>242.8</ele>
        <time>2023-01-26T14:12:59Z</time>
      </trkpt>
      <trkpt lat="44.23548" lon="1.77113">
        <ele>242.8</ele>
        <time>2023-01-26T14:13:00Z</time>
      </trkpt>
      <trkpt lat="44.23548" lon="1.7712">
        <ele>242.8</ele>
        <time>2023-01-26T14:13:02Z</time>
      </trkpt>
      <trkpt lat="44.23544" lon="1.77125">
        <ele>242.9</ele>
        <time>2023-01-26T14:13:23Z</time>
      </trkpt>
      <trkpt lat="44.23548" lon="1.77128">
        <ele>243.2</ele>
        <time>2023-01-26T14:13:47Z</time>
      </trkpt>
      <trkpt lat="44.23549" lon="1.77129">
        <ele>243.2</ele>
        <time>2023-01-26T14:13:48Z</time>
      </trkpt>
      <trkpt lat="44.2355" lon="1.77129">
        <ele>243.2</ele>
        <time>2023-01-26T14:13:50Z</time>
      </trkpt>
      <trkpt lat="44.2355" lon="1.7713">
        <ele>243.2</ele>
        <time>2023-01-26T14:13:51Z</time>
      </trkpt>
      <trkpt lat="44.23551" lon="1.77131">
        <ele>243.1</ele>
        <time>2023-01-26T14:13:52Z</time>
      </trkpt>
      <trkpt lat="44.23551" lon="1.77132">
        <ele>243.1</ele>
        <time>2023-01-26T14:13:54Z</time>
      </trkpt>
      <trkpt lat="44.23552" lon="1.77133">
        <ele>243</ele>
        <time>2023-01-26T14:13:56Z</time>
      </trkpt>
      <trkpt lat="44.23553" lon="1.77134">
        <ele>243</ele>
        <time>2023-01-26T14:13:57Z</time>
      </trkpt>
      <trkpt lat="44.23553" lon="1.77135">
        <ele>242.9</ele>
        <time>2023-01-26T14:13:58Z</time>
      </trkpt>
      <trkpt lat="44.23554" lon="1.77142">
        <ele>242.6</ele>
        <time>2023-01-26T14:14:00Z</time>
      </trkpt>
      <trkpt lat="44.23554" lon="1.77144">
        <ele>242.5</ele>
        <time>2023-01-26T14:14:01Z</time>
      </trkpt>
      <trkpt lat="44.23553" lon="1.77146">
        <ele>242.4</ele>
        <time>2023-01-26T14:14:02Z</time>
      </trkpt>
      <trkpt lat="44.23553" lon="1.77151">
        <ele>242.1</ele>
        <time>2023-01-26T14:14:04Z</time>
      </trkpt>
      <trkpt lat="44.23554" lon="1.77155">
        <ele>241.9</ele>
        <time>2023-01-26T14:14:05Z</time>
      </trkpt>
      <trkpt lat="44.23555" lon="1.77161">
        <ele>241.6</ele>
        <time>2023-01-26T14:14:07Z</time>
      </trkpt>
      <trkpt lat="44.23554" lon="1.77165">
        <ele>241.6</ele>
        <time>2023-01-26T14:14:08Z</time>
      </trkpt>
      <trkpt lat="44.23554" lon="1.77167">
        <ele>241.5</ele>
        <time>2023-01-26T14:14:09Z</time>
      </trkpt>
      <trkpt lat="44.23552" lon="1.77172">
        <ele>241.5</ele>
        <time>2023-01-26T14:14:10Z</time>
      </trkpt>
      <trkpt lat="44.2355" lon="1.77177">
        <ele>240.3</ele>
        <time>2023-01-26T14:14:12Z</time>
      </trkpt>
      <trkpt lat="44.23549" lon="1.77181">
        <ele>239.4</ele>
        <time>2023-01-26T14:14:13Z</time>
      </trkpt>
      <trkpt lat="44.23547" lon="1.77186">
        <ele>238</ele>
        <time>2023-01-26T14:14:14Z</time>
      </trkpt>
      <trkpt lat="44.23547" lon="1.77189">
        <ele>237.2</ele>
        <time>2023-01-26T14:14:15Z</time>
      </trkpt>
      <trkpt lat="44.23549" lon="1.77192">
        <ele>236.2</ele>
        <time>2023-01-26T14:14:17Z</time>
      </trkpt>
      <trkpt lat="44.23554" lon="1.77191">
        <ele>234.5</ele>
        <time>2023-01-26T14:14:19Z</time>
      </trkpt>
      <trkpt lat="44.23555" lon="1.7719">
        <ele>232.8</ele>
        <time>2023-01-26T14:14:20Z</time>
      </trkpt>
      <trkpt lat="44.23557" lon="1.77189">
        <ele>231.1</ele>
        <time>2023-01-26T14:14:21Z</time>
      </trkpt>
      <trkpt lat="44.2356" lon="1.77189">
        <ele>232</ele>
        <time>2023-01-26T14:14:23Z</time>
      </trkpt>
      <trkpt lat="44.23562" lon="1.77191">
        <ele>228.5</ele>
        <time>2023-01-26T14:14:24Z</time>
      </trkpt>
      <trkpt lat="44.23566" lon="1.77195">
        <ele>226.8</ele>
        <time>2023-01-26T14:14:26Z</time>
      </trkpt>
      <trkpt lat="44.23569" lon="1.77199">
        <ele>225.1</ele>
        <time>2023-01-26T14:14:27Z</time>
      </trkpt>
      <trkpt lat="44.23573" lon="1.77202">
        <ele>224.3</ele>
        <time>2023-01-26T14:14:28Z</time>
      </trkpt>
      <trkpt lat="44.23577" lon="1.77204">
        <ele>222.6</ele>
        <time>2023-01-26T14:14:29Z</time>
      </trkpt>
      <trkpt lat="44.23581" lon="1.77203">
        <ele>220.9</ele>
        <time>2023-01-26T14:14:30Z</time>
      </trkpt>
      <trkpt lat="44.2359" lon="1.77198">
        <ele>220.3</ele>
        <time>2023-01-26T14:14:32Z</time>
      </trkpt>
      <trkpt lat="44.23593" lon="1.77194">
        <ele>220.9</ele>
        <time>2023-01-26T14:14:33Z</time>
      </trkpt>
      <trkpt lat="44.23597" lon="1.7719">
        <ele>221.7</ele>
        <time>2023-01-26T14:14:34Z</time>
      </trkpt>
      <trkpt lat="44.23599" lon="1.77186">
        <ele>222.2</ele>
        <time>2023-01-26T14:14:35Z</time>
      </trkpt>
      <trkpt lat="44.236" lon="1.77183">
        <ele>222.6</ele>
        <time>2023-01-26T14:14:36Z</time>
      </trkpt>
      <trkpt lat="44.23603" lon="1.77179">
        <ele>223.2</ele>
        <time>2023-01-26T14:14:38Z</time>
      </trkpt>
      <trkpt lat="44.23604" lon="1.77177">
        <ele>223.4</ele>
        <time>2023-01-26T14:14:40Z</time>
      </trkpt>
      <trkpt lat="44.23601" lon="1.77175">
        <ele>223.8</ele>
        <time>2023-01-26T14:14:41Z</time>
      </trkpt>
      <trkpt lat="44.236" lon="1.77174">
        <ele>224</ele>
        <time>2023-01-26T14:14:43Z</time>
      </trkpt>
      <trkpt lat="44.236" lon="1.77174">
        <ele>224.1</ele>
        <time>2023-01-26T14:14:44Z</time>
      </trkpt>
      <trkpt lat="44.23599" lon="1.77175">
        <ele>224.2</ele>
        <time>2023-01-26T14:14:45Z</time>
      </trkpt>
      <trkpt lat="44.23599" lon="1.77175">
        <ele>224.2</ele>
        <time>2023-01-26T14:14:46Z</time>
      </trkpt>
      <trkpt lat="44.23599" lon="1.77174">
        <ele>224.3</ele>
        <time>2023-01-26T14:14:48Z</time>
      </trkpt>
      <trkpt lat="44.23599" lon="1.77174">
        <ele>224.3</ele>
        <time>2023-01-26T14:14:49Z</time>
      </trkpt>
      <trkpt lat="44.23599" lon="1.77174">
        <ele>224.3</ele>
        <time>2023-01-26T14:14:51Z</time>
      </trkpt>
      <trkpt lat="44.23599" lon="1.77174">
        <ele>224.4</ele>
        <time>2023-01-26T14:14:52Z</time>
      </trkpt>
      <trkpt lat="44.236" lon="1.77174">
        <ele>224.4</ele>
        <time>2023-01-26T14:14:53Z</time>
      </trkpt>
      <trkpt lat="44.236" lon="1.77174">
        <ele>224.5</ele>
        <time>2023-01-26T14:14:55Z</time>
      </trkpt>
      <trkpt lat="44.236" lon="1.77173">
        <ele>224.5</ele>
        <time>2023-01-26T14:14:57Z</time>
      </trkpt>
      <trkpt lat="44.23599" lon="1.77172">
        <ele>224.7</ele>
        <time>2023-01-26T14:15:02Z</time>
      </trkpt>
      <trkpt lat="44.23599" lon="1.77171">
        <ele>224.8</ele>
        <time>2023-01-26T14:15:03Z</time>
      </trkpt>
      <trkpt lat="44.23599" lon="1.7717">
        <ele>224.9</ele>
        <time>2023-01-26T14:15:05Z</time>
      </trkpt>
      <trkpt lat="44.236" lon="1.77168">
        <ele>228.3</ele>
        <time>2023-01-26T14:15:06Z</time>
      </trkpt>
      <trkpt lat="44.23603" lon="1.77166">
        <ele>233.4</ele>
        <time>2023-01-26T14:15:07Z</time>
      </trkpt>
      <trkpt lat="44.23605" lon="1.77165">
        <ele>236.7</ele>
        <time>2023-01-26T14:15:08Z</time>
      </trkpt>
      <trkpt lat="44.23606" lon="1.77164">
        <ele>237.8</ele>
        <time>2023-01-26T14:15:10Z</time>
      </trkpt>
      <trkpt lat="44.23606" lon="1.77164">
        <ele>238.2</ele>
        <time>2023-01-26T14:15:11Z</time>
      </trkpt>
      <trkpt lat="44.23607" lon="1.77164">
        <ele>239.3</ele>
        <time>2023-01-26T14:15:14Z</time>
      </trkpt>
      <trkpt lat="44.23607" lon="1.77168">
        <ele>231.6</ele>
        <time>2023-01-26T14:15:29Z</time>
      </trkpt>
      <trkpt lat="44.23608" lon="1.77172">
        <ele>235.9</ele>
        <time>2023-01-26T14:15:30Z</time>
      </trkpt>
      <trkpt lat="44.23609" lon="1.77176">
        <ele>240.9</ele>
        <time>2023-01-26T14:15:31Z</time>
      </trkpt>
      <trkpt lat="44.2361" lon="1.77181">
        <ele>242.8</ele>
        <time>2023-01-26T14:15:32Z</time>
      </trkpt>
      <trkpt lat="44.2361" lon="1.77182">
        <ele>242.8</ele>
        <time>2023-01-26T14:15:33Z</time>
      </trkpt>
      <trkpt lat="44.23611" lon="1.77184">
        <ele>242.7</ele>
        <time>2023-01-26T14:15:34Z</time>
      </trkpt>
      <trkpt lat="44.23612" lon="1.77186">
        <ele>242.6</ele>
        <time>2023-01-26T14:15:35Z</time>
      </trkpt>
      <trkpt lat="44.23612" lon="1.77188">
        <ele>242.5</ele>
        <time>2023-01-26T14:15:36Z</time>
      </trkpt>
      <trkpt lat="44.23613" lon="1.77192">
        <ele>242.4</ele>
        <time>2023-01-26T14:15:38Z</time>
      </trkpt>
      <trkpt lat="44.23615" lon="1.77196">
        <ele>242.2</ele>
        <time>2023-01-26T14:15:39Z</time>
      </trkpt>
      <trkpt lat="44.23616" lon="1.77197">
        <ele>242.1</ele>
        <time>2023-01-26T14:15:40Z</time>
      </trkpt>
      <trkpt lat="44.23618" lon="1.77201">
        <ele>242</ele>
        <time>2023-01-26T14:15:41Z</time>
      </trkpt>
      <trkpt lat="44.23619" lon="1.77202">
        <ele>242</ele>
        <time>2023-01-26T14:15:42Z</time>
      </trkpt>
      <trkpt lat="44.23619" lon="1.77206">
        <ele>241.8</ele>
        <time>2023-01-26T14:15:43Z</time>
      </trkpt>
      <trkpt lat="44.23619" lon="1.77207">
        <ele>241.7</ele>
        <time>2023-01-26T14:15:44Z</time>
      </trkpt>
      <trkpt lat="44.23619" lon="1.77211">
        <ele>241.6</ele>
        <time>2023-01-26T14:15:45Z</time>
      </trkpt>
      <trkpt lat="44.23619" lon="1.77216">
        <ele>241.5</ele>
        <time>2023-01-26T14:15:47Z</time>
      </trkpt>
      <trkpt lat="44.2362" lon="1.77222">
        <ele>240.4</ele>
        <time>2023-01-26T14:15:48Z</time>
      </trkpt>
      <trkpt lat="44.2362" lon="1.77228">
        <ele>239</ele>
        <time>2023-01-26T14:15:50Z</time>
      </trkpt>
      <trkpt lat="44.23621" lon="1.77237">
        <ele>237.1</ele>
        <time>2023-01-26T14:15:51Z</time>
      </trkpt>
      <trkpt lat="44.23623" lon="1.77249">
        <ele>237</ele>
        <time>2023-01-26T14:15:53Z</time>
      </trkpt>
      <trkpt lat="44.23627" lon="1.77254">
        <ele>235</ele>
        <time>2023-01-26T14:15:55Z</time>
      </trkpt>
      <trkpt lat="44.23631" lon="1.7726">
        <ele>232.8</ele>
        <time>2023-01-26T14:15:57Z</time>
      </trkpt>
      <trkpt lat="44.23634" lon="1.77266">
        <ele>233.8</ele>
        <time>2023-01-26T14:15:58Z</time>
      </trkpt>
      <trkpt lat="44.23636" lon="1.77271">
        <ele>234.5</ele>
        <time>2023-01-26T14:15:59Z</time>
      </trkpt>
      <trkpt lat="44.23639" lon="1.77278">
        <ele>234.7</ele>
        <time>2023-01-26T14:16:00Z</time>
      </trkpt>
      <trkpt lat="44.23641" lon="1.77286">
        <ele>233.9</ele>
        <time>2023-01-26T14:16:02Z</time>
      </trkpt>
      <trkpt lat="44.23644" lon="1.77293">
        <ele>232.3</ele>
        <time>2023-01-26T14:16:04Z</time>
      </trkpt>
      <trkpt lat="44.23647" lon="1.77298">
        <ele>231.2</ele>
        <time>2023-01-26T14:16:05Z</time>
      </trkpt>
      <trkpt lat="44.23649" lon="1.77304">
        <ele>230</ele>
        <time>2023-01-26T14:16:06Z</time>
      </trkpt>
      <trkpt lat="44.2365" lon="1.77309">
        <ele>228.6</ele>
        <time>2023-01-26T14:16:07Z</time>
      </trkpt>
      <trkpt lat="44.23653" lon="1.77317">
        <ele>226.7</ele>
        <time>2023-01-26T14:16:09Z</time>
      </trkpt>
      <trkpt lat="44.23654" lon="1.77321">
        <ele>225.7</ele>
        <time>2023-01-26T14:16:10Z</time>
      </trkpt>
      <trkpt lat="44.23654" lon="1.77322">
        <ele>225.5</ele>
        <time>2023-01-26T14:16:11Z</time>
      </trkpt>
      <trkpt lat="44.23656" lon="1.77326">
        <ele>224.4</ele>
        <time>2023-01-26T14:16:13Z</time>
      </trkpt>
      <trkpt lat="44.23657" lon="1.77326">
        <ele>224.1</ele>
        <time>2023-01-26T14:16:14Z</time>
      </trkpt>
      <trkpt lat="44.2366" lon="1.77329">
        <ele>222.8</ele>
        <time>2023-01-26T14:16:15Z</time>
      </trkpt>
      <trkpt lat="44.23662" lon="1.77329">
        <ele>222.9</ele>
        <time>2023-01-26T14:16:16Z</time>
      </trkpt>
      <trkpt lat="44.23667" lon="1.77328">
        <ele>223.1</ele>
        <time>2023-01-26T14:16:18Z</time>
      </trkpt>
      <trkpt lat="44.2367" lon="1.77327">
        <ele>223.2</ele>
        <time>2023-01-26T14:16:19Z</time>
      </trkpt>
      <trkpt lat="44.23674" lon="1.77326">
        <ele>223.3</ele>
        <time>2023-01-26T14:16:21Z</time>
      </trkpt>
      <trkpt lat="44.23676" lon="1.77324">
        <ele>223.4</ele>
        <time>2023-01-26T14:16:22Z</time>
      </trkpt>
      <trkpt lat="44.23678" lon="1.77325">
        <ele>223.4</ele>
        <time>2023-01-26T14:16:23Z</time>
      </trkpt>
      <trkpt lat="44.2368" lon="1.77326">
        <ele>223.5</ele>
        <time>2023-01-26T14:16:24Z</time>
      </trkpt>
      <trkpt lat="44.23681" lon="1.77328">
        <ele>223.5</ele>
        <time>2023-01-26T14:16:26Z</time>
      </trkpt>
      <trkpt lat="44.23682" lon="1.77329">
        <ele>223.5</ele>
        <time>2023-01-26T14:16:27Z</time>
      </trkpt>
      <trkpt lat="44.23683" lon="1.77329">
        <ele>223.5</ele>
        <time>2023-01-26T14:16:28Z</time>
      </trkpt>
      <trkpt lat="44.23684" lon="1.77329">
        <ele>223.4</ele>
        <time>2023-01-26T14:16:30Z</time>
      </trkpt>
      <trkpt lat="44.23685" lon="1.77329">
        <ele>223.4</ele>
        <time>2023-01-26T14:16:31Z</time>
      </trkpt>
      <trkpt lat="44.23686" lon="1.77329">
        <ele>223.4</ele>
        <time>2023-01-26T14:16:33Z</time>
      </trkpt>
      <trkpt lat="44.23687" lon="1.77329">
        <ele>223.4</ele>
        <time>2023-01-26T14:16:34Z</time>
      </trkpt>
      <trkpt lat="44.23688" lon="1.77329">
        <ele>223.4</ele>
        <time>2023-01-26T14:16:35Z</time>
      </trkpt>
      <trkpt lat="44.23689" lon="1.77329">
        <ele>223.4</ele>
        <time>2023-01-26T14:16:36Z</time>
      </trkpt>
      <trkpt lat="44.2369" lon="1.77329">
        <ele>223.4</ele>
        <time>2023-01-26T14:16:37Z</time>
      </trkpt>
      <trkpt lat="44.23691" lon="1.77329">
        <ele>223.4</ele>
        <time>2023-01-26T14:16:58Z</time>
      </trkpt>
      <trkpt lat="44.23692" lon="1.7733">
        <ele>223.4</ele>
        <time>2023-01-26T14:16:59Z</time>
      </trkpt>
      <trkpt lat="44.23693" lon="1.7733">
        <ele>223.4</ele>
        <time>2023-01-26T14:17:00Z</time>
      </trkpt>
      <trkpt lat="44.23698" lon="1.7733">
        <ele>223.5</ele>
        <time>2023-01-26T14:17:02Z</time>
      </trkpt>
      <trkpt lat="44.23703" lon="1.77331">
        <ele>223.6</ele>
        <time>2023-01-26T14:17:03Z</time>
      </trkpt>
      <trkpt lat="44.23707" lon="1.77331">
        <ele>223.7</ele>
        <time>2023-01-26T14:17:04Z</time>
      </trkpt>
      <trkpt lat="44.23713" lon="1.77332">
        <ele>223.8</ele>
        <time>2023-01-26T14:17:05Z</time>
      </trkpt>
      <trkpt lat="44.23719" lon="1.77333">
        <ele>224</ele>
        <time>2023-01-26T14:17:06Z</time>
      </trkpt>
      <trkpt lat="44.23724" lon="1.77334">
        <ele>224.1</ele>
        <time>2023-01-26T14:17:07Z</time>
      </trkpt>
      <trkpt lat="44.23729" lon="1.77335">
        <ele>224.3</ele>
        <time>2023-01-26T14:17:08Z</time>
      </trkpt>
      <trkpt lat="44.23735" lon="1.77335">
        <ele>224.5</ele>
        <time>2023-01-26T14:17:09Z</time>
      </trkpt>
      <trkpt lat="44.2374" lon="1.77337">
        <ele>224.7</ele>
        <time>2023-01-26T14:17:10Z</time>
      </trkpt>
      <trkpt lat="44.23744" lon="1.7734">
        <ele>224.9</ele>
        <time>2023-01-26T14:17:11Z</time>
      </trkpt>
      <trkpt lat="44.23749" lon="1.77343">
        <ele>225.1</ele>
        <time>2023-01-26T14:17:12Z</time>
      </trkpt>
      <trkpt lat="44.23753" lon="1.77345">
        <ele>225.3</ele>
        <time>2023-01-26T14:17:13Z</time>
      </trkpt>
      <trkpt lat="44.23758" lon="1.77347">
        <ele>225.4</ele>
        <time>2023-01-26T14:17:14Z</time>
      </trkpt>
      <trkpt lat="44.23762" lon="1.77349">
        <ele>225.6</ele>
        <time>2023-01-26T14:17:15Z</time>
      </trkpt>
      <trkpt lat="44.23767" lon="1.7735">
        <ele>225.7</ele>
        <time>2023-01-26T14:17:16Z</time>
      </trkpt>
      <trkpt lat="44.23771" lon="1.77352">
        <ele>225.8</ele>
        <time>2023-01-26T14:17:17Z</time>
      </trkpt>
      <trkpt lat="44.23775" lon="1.77353">
        <ele>225.8</ele>
        <time>2023-01-26T14:17:18Z</time>
      </trkpt>
      <trkpt lat="44.2378" lon="1.77355">
        <ele>225.9</ele>
        <time>2023-01-26T14:17:19Z</time>
      </trkpt>
      <trkpt lat="44.23784" lon="1.77357">
        <ele>226</ele>
        <time>2023-01-26T14:17:20Z</time>
      </trkpt>
      <trkpt lat="44.23789" lon="1.77359">
        <ele>226</ele>
        <time>2023-01-26T14:17:21Z</time>
      </trkpt>
      <trkpt lat="44.23794" lon="1.77361">
        <ele>226.1</ele>
        <time>2023-01-26T14:17:22Z</time>
      </trkpt>
      <trkpt lat="44.23799" lon="1.77363">
        <ele>226.2</ele>
        <time>2023-01-26T14:17:23Z</time>
      </trkpt>
      <trkpt lat="44.23804" lon="1.77366">
        <ele>226.2</ele>
        <time>2023-01-26T14:17:24Z</time>
      </trkpt>
      <trkpt lat="44.23809" lon="1.77368">
        <ele>226.3</ele>
        <time>2023-01-26T14:17:25Z</time>
      </trkpt>
      <trkpt lat="44.23814" lon="1.7737">
        <ele>226.3</ele>
        <time>2023-01-26T14:17:26Z</time>
      </trkpt>
      <trkpt lat="44.23819" lon="1.77372">
        <ele>226.3</ele>
        <time>2023-01-26T14:17:27Z</time>
      </trkpt>
      <trkpt lat="44.23823" lon="1.77374">
        <ele>226.4</ele>
        <time>2023-01-26T14:17:28Z</time>
      </trkpt>
      <trkpt lat="44.23827" lon="1.77376">
        <ele>226.4</ele>
        <time>2023-01-26T14:17:29Z</time>
      </trkpt>
      <trkpt lat="44.23832" lon="1.77377">
        <ele>226.4</ele>
        <time>2023-01-26T14:17:30Z</time>
      </trkpt>
      <trkpt lat="44.23836" lon="1.7738">
        <ele>226.4</ele>
        <time>2023-01-26T14:17:31Z</time>
      </trkpt>
      <trkpt lat="44.23841" lon="1.77382">
        <ele>226.5</ele>
        <time>2023-01-26T14:17:32Z</time>
      </trkpt>
      <trkpt lat="44.23846" lon="1.77384">
        <ele>226.5</ele>
        <time>2023-01-26T14:17:33Z</time>
      </trkpt>
      <trkpt lat="44.23851" lon="1.77385">
        <ele>226.6</ele>
        <time>2023-01-26T14:17:34Z</time>
      </trkpt>
      <trkpt lat="44.23856" lon="1.77387">
        <ele>226.6</ele>
        <time>2023-01-26T14:17:35Z</time>
      </trkpt>
      <trkpt lat="44.23861" lon="1.77388">
        <ele>226.6</ele>
        <time>2023-01-26T14:17:36Z</time>
      </trkpt>
      <trkpt lat="44.23866" lon="1.7739">
        <ele>226.7</ele>
        <time>2023-01-26T14:17:37Z</time>
      </trkpt>
      <trkpt lat="44.23872" lon="1.77391">
        <ele>226.7</ele>
        <time>2023-01-26T14:17:38Z</time>
      </trkpt>
      <trkpt lat="44.23877" lon="1.77393">
        <ele>226.8</ele>
        <time>2023-01-26T14:17:39Z</time>
      </trkpt>
      <trkpt lat="44.23882" lon="1.77395">
        <ele>226.9</ele>
        <time>2023-01-26T14:17:40Z</time>
      </trkpt>
      <trkpt lat="44.23887" lon="1.77396">
        <ele>226.9</ele>
        <time>2023-01-26T14:17:41Z</time>
      </trkpt>
      <trkpt lat="44.23893" lon="1.77398">
        <ele>227</ele>
        <time>2023-01-26T14:17:42Z</time>
      </trkpt>
      <trkpt lat="44.23897" lon="1.77399">
        <ele>227</ele>
        <time>2023-01-26T14:17:43Z</time>
      </trkpt>
      <trkpt lat="44.23902" lon="1.77401">
        <ele>227.1</ele>
        <time>2023-01-26T14:17:44Z</time>
      </trkpt>
      <trkpt lat="44.23907" lon="1.77402">
        <ele>227.2</ele>
        <time>2023-01-26T14:17:45Z</time>
      </trkpt>
      <trkpt lat="44.23912" lon="1.77404">
        <ele>227.2</ele>
        <time>2023-01-26T14:17:46Z</time>
      </trkpt>
      <trkpt lat="44.23917" lon="1.77406">
        <ele>227.3</ele>
        <time>2023-01-26T14:17:47Z</time>
      </trkpt>
      <trkpt lat="44.23923" lon="1.77408">
        <ele>227.4</ele>
        <time>2023-01-26T14:17:48Z</time>
      </trkpt>
      <trkpt lat="44.23928" lon="1.7741">
        <ele>227.4</ele>
        <time>2023-01-26T14:17:49Z</time>
      </trkpt>
      <trkpt lat="44.23933" lon="1.77411">
        <ele>227.5</ele>
        <time>2023-01-26T14:17:50Z</time>
      </trkpt>
      <trkpt lat="44.23939" lon="1.77412">
        <ele>227.7</ele>
        <time>2023-01-26T14:17:51Z</time>
      </trkpt>
      <trkpt lat="44.23944" lon="1.77414">
        <ele>227.8</ele>
        <time>2023-01-26T14:17:52Z</time>
      </trkpt>
      <trkpt lat="44.23949" lon="1.77415">
        <ele>227.9</ele>
        <time>2023-01-26T14:17:53Z</time>
      </trkpt>
      <trkpt lat="44.23953" lon="1.77417">
        <ele>228.1</ele>
        <time>2023-01-26T14:17:54Z</time>
      </trkpt>
      <trkpt lat="44.23958" lon="1.77418">
        <ele>228.2</ele>
        <time>2023-01-26T14:17:55Z</time>
      </trkpt>
      <trkpt lat="44.23963" lon="1.7742">
        <ele>228.4</ele>
        <time>2023-01-26T14:17:56Z</time>
      </trkpt>
      <trkpt lat="44.23968" lon="1.77421">
        <ele>228.5</ele>
        <time>2023-01-26T14:17:57Z</time>
      </trkpt>
      <trkpt lat="44.23973" lon="1.77423">
        <ele>228.7</ele>
        <time>2023-01-26T14:17:58Z</time>
      </trkpt>
      <trkpt lat="44.23978" lon="1.77425">
        <ele>228.7</ele>
        <time>2023-01-26T14:17:59Z</time>
      </trkpt>
      <trkpt lat="44.23982" lon="1.77427">
        <ele>228.8</ele>
        <time>2023-01-26T14:18:00Z</time>
      </trkpt>
      <trkpt lat="44.23987" lon="1.77429">
        <ele>228.9</ele>
        <time>2023-01-26T14:18:01Z</time>
      </trkpt>
      <trkpt lat="44.23992" lon="1.7743">
        <ele>228.9</ele>
        <time>2023-01-26T14:18:02Z</time>
      </trkpt>
      <trkpt lat="44.23997" lon="1.77432">
        <ele>229</ele>
        <time>2023-01-26T14:18:03Z</time>
      </trkpt>
      <trkpt lat="44.24001" lon="1.77433">
        <ele>229.1</ele>
        <time>2023-01-26T14:18:04Z</time>
      </trkpt>
      <trkpt lat="44.24006" lon="1.77435">
        <ele>229.2</ele>
        <time>2023-01-26T14:18:05Z</time>
      </trkpt>
      <trkpt lat="44.24011" lon="1.77437">
        <ele>229.4</ele>
        <time>2023-01-26T14:18:06Z</time>
      </trkpt>
      <trkpt lat="44.24015" lon="1.77438">
        <ele>229.6</ele>
        <time>2023-01-26T14:18:07Z</time>
      </trkpt>
      <trkpt lat="44.2402" lon="1.7744">
        <ele>229.8</ele>
        <time>2023-01-26T14:18:08Z</time>
      </trkpt>
      <trkpt lat="44.24024" lon="1.77441">
        <ele>230</ele>
        <time>2023-01-26T14:18:09Z</time>
      </trkpt>
      <trkpt lat="44.24029" lon="1.77443">
        <ele>230.2</ele>
        <time>2023-01-26T14:18:10Z</time>
      </trkpt>
      <trkpt lat="44.24033" lon="1.77445">
        <ele>230.4</ele>
        <time>2023-01-26T14:18:11Z</time>
      </trkpt>
      <trkpt lat="44.24036" lon="1.77446">
        <ele>230.5</ele>
        <time>2023-01-26T14:18:12Z</time>
      </trkpt>
      <trkpt lat="44.24041" lon="1.77449">
        <ele>230.8</ele>
        <time>2023-01-26T14:18:13Z</time>
      </trkpt>
      <trkpt lat="44.24046" lon="1.7745">
        <ele>231.1</ele>
        <time>2023-01-26T14:18:14Z</time>
      </trkpt>
      <trkpt lat="44.2405" lon="1.7745">
        <ele>231.3</ele>
        <time>2023-01-26T14:18:15Z</time>
      </trkpt>
      <trkpt lat="44.24055" lon="1.77451">
        <ele>231.5</ele>
        <time>2023-01-26T14:18:16Z</time>
      </trkpt>
      <trkpt lat="44.2406" lon="1.77452">
        <ele>231.8</ele>
        <time>2023-01-26T14:18:17Z</time>
      </trkpt>
      <trkpt lat="44.24064" lon="1.77453">
        <ele>232</ele>
        <time>2023-01-26T14:18:18Z</time>
      </trkpt>
      <trkpt lat="44.24069" lon="1.77456">
        <ele>232.2</ele>
        <time>2023-01-26T14:18:19Z</time>
      </trkpt>
      <trkpt lat="44.24072" lon="1.77456">
        <ele>232.4</ele>
        <time>2023-01-26T14:18:20Z</time>
      </trkpt>
      <trkpt lat="44.24079" lon="1.77457">
        <ele>232.8</ele>
        <time>2023-01-26T14:18:22Z</time>
      </trkpt>
      <trkpt lat="44.24086" lon="1.77459">
        <ele>233.3</ele>
        <time>2023-01-26T14:18:23Z</time>
      </trkpt>
      <trkpt lat="44.24089" lon="1.77459">
        <ele>233.5</ele>
        <time>2023-01-26T14:18:24Z</time>
      </trkpt>
      <trkpt lat="44.24096" lon="1.7746">
        <ele>233.8</ele>
        <time>2023-01-26T14:18:25Z</time>
      </trkpt>
      <trkpt lat="44.241" lon="1.77461">
        <ele>234.1</ele>
        <time>2023-01-26T14:18:26Z</time>
      </trkpt>
      <trkpt lat="44.24104" lon="1.77461">
        <ele>234.3</ele>
        <time>2023-01-26T14:18:27Z</time>
      </trkpt>
      <trkpt lat="44.24109" lon="1.7746">
        <ele>234.6</ele>
        <time>2023-01-26T14:18:29Z</time>
      </trkpt>
      <trkpt lat="44.24117" lon="1.77461">
        <ele>235</ele>
        <time>2023-01-26T14:18:30Z</time>
      </trkpt>
      <trkpt lat="44.24122" lon="1.77461">
        <ele>235.2</ele>
        <time>2023-01-26T14:18:32Z</time>
      </trkpt>
      <trkpt lat="44.24126" lon="1.77461">
        <ele>235.5</ele>
        <time>2023-01-26T14:18:33Z</time>
      </trkpt>
      <trkpt lat="44.24131" lon="1.77461">
        <ele>235.7</ele>
        <time>2023-01-26T14:18:34Z</time>
      </trkpt>
      <trkpt lat="44.24134" lon="1.77461">
        <ele>235.9</ele>
        <time>2023-01-26T14:18:35Z</time>
      </trkpt>
      <trkpt lat="44.24139" lon="1.77462">
        <ele>236.1</ele>
        <time>2023-01-26T14:18:37Z</time>
      </trkpt>
      <trkpt lat="44.24143" lon="1.77462">
        <ele>236.3</ele>
        <time>2023-01-26T14:18:38Z</time>
      </trkpt>
      <trkpt lat="44.24146" lon="1.77461">
        <ele>236.5</ele>
        <time>2023-01-26T14:18:39Z</time>
      </trkpt>
      <trkpt lat="44.2415" lon="1.77461">
        <ele>236.7</ele>
        <time>2023-01-26T14:18:40Z</time>
      </trkpt>
      <trkpt lat="44.24155" lon="1.77461">
        <ele>237</ele>
        <time>2023-01-26T14:18:41Z</time>
      </trkpt>
      <trkpt lat="44.24159" lon="1.77461">
        <ele>237.2</ele>
        <time>2023-01-26T14:18:42Z</time>
      </trkpt>
      <trkpt lat="44.24165" lon="1.77461">
        <ele>237.5</ele>
        <time>2023-01-26T14:18:44Z</time>
      </trkpt>
      <trkpt lat="44.24172" lon="1.7746">
        <ele>237.9</ele>
        <time>2023-01-26T14:18:45Z</time>
      </trkpt>
      <trkpt lat="44.24176" lon="1.77459">
        <ele>238.1</ele>
        <time>2023-01-26T14:18:46Z</time>
      </trkpt>
      <trkpt lat="44.24182" lon="1.77456">
        <ele>238.5</ele>
        <time>2023-01-26T14:18:47Z</time>
      </trkpt>
      <trkpt lat="44.24186" lon="1.77455">
        <ele>238.7</ele>
        <time>2023-01-26T14:18:48Z</time>
      </trkpt>
      <trkpt lat="44.24192" lon="1.77452">
        <ele>239</ele>
        <time>2023-01-26T14:18:50Z</time>
      </trkpt>
      <trkpt lat="44.24198" lon="1.7745">
        <ele>239.3</ele>
        <time>2023-01-26T14:18:51Z</time>
      </trkpt>
      <trkpt lat="44.24203" lon="1.77449">
        <ele>239.5</ele>
        <time>2023-01-26T14:18:52Z</time>
      </trkpt>
      <trkpt lat="44.24211" lon="1.77447">
        <ele>239.9</ele>
        <time>2023-01-26T14:18:53Z</time>
      </trkpt>
      <trkpt lat="44.24216" lon="1.77445">
        <ele>240.2</ele>
        <time>2023-01-26T14:18:55Z</time>
      </trkpt>
      <trkpt lat="44.24222" lon="1.77443">
        <ele>240.4</ele>
        <time>2023-01-26T14:18:56Z</time>
      </trkpt>
      <trkpt lat="44.24227" lon="1.77441">
        <ele>240.7</ele>
        <time>2023-01-26T14:18:57Z</time>
      </trkpt>
      <trkpt lat="44.24231" lon="1.7744">
        <ele>240.9</ele>
        <time>2023-01-26T14:18:58Z</time>
      </trkpt>
      <trkpt lat="44.24236" lon="1.77438">
        <ele>241.1</ele>
        <time>2023-01-26T14:19:00Z</time>
      </trkpt>
      <trkpt lat="44.24239" lon="1.77437">
        <ele>241.3</ele>
        <time>2023-01-26T14:19:01Z</time>
      </trkpt>
      <trkpt lat="44.24244" lon="1.77436">
        <ele>241.5</ele>
        <time>2023-01-26T14:19:02Z</time>
      </trkpt>
      <trkpt lat="44.24248" lon="1.77435">
        <ele>241.7</ele>
        <time>2023-01-26T14:19:03Z</time>
      </trkpt>
      <trkpt lat="44.24254" lon="1.77433">
        <ele>242</ele>
        <time>2023-01-26T14:19:04Z</time>
      </trkpt>
      <trkpt lat="44.24259" lon="1.7743">
        <ele>242.3</ele>
        <time>2023-01-26T14:19:06Z</time>
      </trkpt>
      <trkpt lat="44.24262" lon="1.77428">
        <ele>242.4</ele>
        <time>2023-01-26T14:19:07Z</time>
      </trkpt>
      <trkpt lat="44.24265" lon="1.77425">
        <ele>242.6</ele>
        <time>2023-01-26T14:19:08Z</time>
      </trkpt>
      <trkpt lat="44.24268" lon="1.77422">
        <ele>242.7</ele>
        <time>2023-01-26T14:19:09Z</time>
      </trkpt>
      <trkpt lat="44.24273" lon="1.77417">
        <ele>243</ele>
        <time>2023-01-26T14:19:10Z</time>
      </trkpt>
      <trkpt lat="44.24277" lon="1.77413">
        <ele>243.2</ele>
        <time>2023-01-26T14:19:12Z</time>
      </trkpt>
      <trkpt lat="44.2428" lon="1.77408">
        <ele>243.4</ele>
        <time>2023-01-26T14:19:13Z</time>
      </trkpt>
      <trkpt lat="44.24287" lon="1.77401">
        <ele>243.8</ele>
        <time>2023-01-26T14:19:14Z</time>
      </trkpt>
      <trkpt lat="44.24292" lon="1.77397">
        <ele>244.1</ele>
        <time>2023-01-26T14:19:16Z</time>
      </trkpt>
      <trkpt lat="44.24296" lon="1.77393">
        <ele>244.2</ele>
        <time>2023-01-26T14:19:17Z</time>
      </trkpt>
      <trkpt lat="44.243" lon="1.77387">
        <ele>244.5</ele>
        <time>2023-01-26T14:19:18Z</time>
      </trkpt>
      <trkpt lat="44.24304" lon="1.77384">
        <ele>244.6</ele>
        <time>2023-01-26T14:19:20Z</time>
      </trkpt>
      <trkpt lat="44.24308" lon="1.77381">
        <ele>244.7</ele>
        <time>2023-01-26T14:19:21Z</time>
      </trkpt>
      <trkpt lat="44.24313" lon="1.77377">
        <ele>244.9</ele>
        <time>2023-01-26T14:19:22Z</time>
      </trkpt>
      <trkpt lat="44.24318" lon="1.77373">
        <ele>245</ele>
        <time>2023-01-26T14:19:23Z</time>
      </trkpt>
      <trkpt lat="44.24324" lon="1.7737">
        <ele>245.1</ele>
        <time>2023-01-26T14:19:25Z</time>
      </trkpt>
      <trkpt lat="44.24332" lon="1.77366">
        <ele>245.3</ele>
        <time>2023-01-26T14:19:26Z</time>
      </trkpt>
      <trkpt lat="44.24338" lon="1.77364">
        <ele>245.4</ele>
        <time>2023-01-26T14:19:27Z</time>
      </trkpt>
      <trkpt lat="44.24344" lon="1.77361">
        <ele>245.5</ele>
        <time>2023-01-26T14:19:28Z</time>
      </trkpt>
      <trkpt lat="44.24349" lon="1.77359">
        <ele>245.6</ele>
        <time>2023-01-26T14:19:29Z</time>
      </trkpt>
      <trkpt lat="44.24354" lon="1.77357">
        <ele>245.7</ele>
        <time>2023-01-26T14:19:30Z</time>
      </trkpt>
      <trkpt lat="44.24359" lon="1.77355">
        <ele>245.8</ele>
        <time>2023-01-26T14:19:31Z</time>
      </trkpt>
      <trkpt lat="44.24364" lon="1.77354">
        <ele>245.8</ele>
        <time>2023-01-26T14:19:32Z</time>
      </trkpt>
      <trkpt lat="44.2437" lon="1.77351">
        <ele>245.8</ele>
        <time>2023-01-26T14:19:33Z</time>
      </trkpt>
      <trkpt lat="44.24378" lon="1.77346">
        <ele>245.8</ele>
        <time>2023-01-26T14:19:35Z</time>
      </trkpt>
      <trkpt lat="44.24384" lon="1.77343">
        <ele>245.8</ele>
        <time>2023-01-26T14:19:36Z</time>
      </trkpt>
      <trkpt lat="44.24389" lon="1.77339">
        <ele>245.8</ele>
        <time>2023-01-26T14:19:37Z</time>
      </trkpt>
      <trkpt lat="44.24394" lon="1.77335">
        <ele>245.8</ele>
        <time>2023-01-26T14:19:38Z</time>
      </trkpt>
      <trkpt lat="44.24399" lon="1.7733">
        <ele>245.8</ele>
        <time>2023-01-26T14:19:39Z</time>
      </trkpt>
      <trkpt lat="44.24404" lon="1.77325">
        <ele>245.8</ele>
        <time>2023-01-26T14:19:40Z</time>
      </trkpt>
      <trkpt lat="44.24408" lon="1.7732">
        <ele>245.9</ele>
        <time>2023-01-26T14:19:41Z</time>
      </trkpt>
      <trkpt lat="44.24412" lon="1.77314">
        <ele>246</ele>
        <time>2023-01-26T14:19:42Z</time>
      </trkpt>
      <trkpt lat="44.24417" lon="1.77309">
        <ele>246</ele>
        <time>2023-01-26T14:19:43Z</time>
      </trkpt>
      <trkpt lat="44.2442" lon="1.77304">
        <ele>246.1</ele>
        <time>2023-01-26T14:19:44Z</time>
      </trkpt>
      <trkpt lat="44.24424" lon="1.773">
        <ele>246.2</ele>
        <time>2023-01-26T14:19:45Z</time>
      </trkpt>
      <trkpt lat="44.24427" lon="1.77298">
        <ele>246.2</ele>
        <time>2023-01-26T14:19:46Z</time>
      </trkpt>
      <trkpt lat="44.24437" lon="1.77296">
        <ele>246.4</ele>
        <time>2023-01-26T14:19:48Z</time>
      </trkpt>
      <trkpt lat="44.24442" lon="1.77295">
        <ele>246.5</ele>
        <time>2023-01-26T14:19:49Z</time>
      </trkpt>
      <trkpt lat="44.24448" lon="1.77295">
        <ele>246.7</ele>
        <time>2023-01-26T14:19:50Z</time>
      </trkpt>
      <trkpt lat="44.24456" lon="1.77296">
        <ele>246.8</ele>
        <time>2023-01-26T14:19:52Z</time>
      </trkpt>
      <trkpt lat="44.24464" lon="1.77297">
        <ele>247</ele>
        <time>2023-01-26T14:19:53Z</time>
      </trkpt>
      <trkpt lat="44.24469" lon="1.77298">
        <ele>247</ele>
        <time>2023-01-26T14:19:54Z</time>
      </trkpt>
      <trkpt lat="44.24477" lon="1.77298">
        <ele>247.2</ele>
        <time>2023-01-26T14:19:56Z</time>
      </trkpt>
      <trkpt lat="44.24484" lon="1.77299">
        <ele>247.3</ele>
        <time>2023-01-26T14:19:57Z</time>
      </trkpt>
      <trkpt lat="44.2449" lon="1.77301">
        <ele>247.4</ele>
        <time>2023-01-26T14:19:58Z</time>
      </trkpt>
      <trkpt lat="44.24497" lon="1.77302">
        <ele>247.5</ele>
        <time>2023-01-26T14:19:59Z</time>
      </trkpt>
      <trkpt lat="44.24503" lon="1.77302">
        <ele>247.6</ele>
        <time>2023-01-26T14:20:00Z</time>
      </trkpt>
      <trkpt lat="44.24509" lon="1.77302">
        <ele>247.8</ele>
        <time>2023-01-26T14:20:01Z</time>
      </trkpt>
      <trkpt lat="44.24514" lon="1.77301">
        <ele>247.9</ele>
        <time>2023-01-26T14:20:02Z</time>
      </trkpt>
      <trkpt lat="44.2452" lon="1.773">
        <ele>248.1</ele>
        <time>2023-01-26T14:20:03Z</time>
      </trkpt>
      <trkpt lat="44.24526" lon="1.77298">
        <ele>248.3</ele>
        <time>2023-01-26T14:20:04Z</time>
      </trkpt>
      <trkpt lat="44.24532" lon="1.77296">
        <ele>248.4</ele>
        <time>2023-01-26T14:20:05Z</time>
      </trkpt>
      <trkpt lat="44.24537" lon="1.77295">
        <ele>248.6</ele>
        <time>2023-01-26T14:20:06Z</time>
      </trkpt>
      <trkpt lat="44.24543" lon="1.77293">
        <ele>248.7</ele>
        <time>2023-01-26T14:20:07Z</time>
      </trkpt>
      <trkpt lat="44.24548" lon="1.77292">
        <ele>248.8</ele>
        <time>2023-01-26T14:20:08Z</time>
      </trkpt>
      <trkpt lat="44.24553" lon="1.7729">
        <ele>249</ele>
        <time>2023-01-26T14:20:09Z</time>
      </trkpt>
      <trkpt lat="44.24559" lon="1.77289">
        <ele>249.1</ele>
        <time>2023-01-26T14:20:10Z</time>
      </trkpt>
      <trkpt lat="44.24564" lon="1.77287">
        <ele>249.2</ele>
        <time>2023-01-26T14:20:11Z</time>
      </trkpt>
      <trkpt lat="44.24569" lon="1.77285">
        <ele>249.2</ele>
        <time>2023-01-26T14:20:12Z</time>
      </trkpt>
      <trkpt lat="44.24574" lon="1.77284">
        <ele>249.3</ele>
        <time>2023-01-26T14:20:13Z</time>
      </trkpt>
      <trkpt lat="44.2458" lon="1.77282">
        <ele>249.3</ele>
        <time>2023-01-26T14:20:14Z</time>
      </trkpt>
      <trkpt lat="44.24585" lon="1.77281">
        <ele>249.4</ele>
        <time>2023-01-26T14:20:15Z</time>
      </trkpt>
      <trkpt lat="44.24591" lon="1.7728">
        <ele>249.4</ele>
        <time>2023-01-26T14:20:16Z</time>
      </trkpt>
      <trkpt lat="44.24596" lon="1.77279">
        <ele>249.5</ele>
        <time>2023-01-26T14:20:17Z</time>
      </trkpt>
      <trkpt lat="44.24602" lon="1.77277">
        <ele>249.5</ele>
        <time>2023-01-26T14:20:18Z</time>
      </trkpt>
      <trkpt lat="44.24607" lon="1.77275">
        <ele>249.5</ele>
        <time>2023-01-26T14:20:19Z</time>
      </trkpt>
      <trkpt lat="44.24612" lon="1.77273">
        <ele>249.5</ele>
        <time>2023-01-26T14:20:20Z</time>
      </trkpt>
      <trkpt lat="44.24618" lon="1.77271">
        <ele>249.5</ele>
        <time>2023-01-26T14:20:21Z</time>
      </trkpt>
      <trkpt lat="44.24623" lon="1.77269">
        <ele>249.5</ele>
        <time>2023-01-26T14:20:22Z</time>
      </trkpt>
      <trkpt lat="44.24629" lon="1.77268">
        <ele>249.5</ele>
        <time>2023-01-26T14:20:23Z</time>
      </trkpt>
      <trkpt lat="44.24635" lon="1.77266">
        <ele>249.4</ele>
        <time>2023-01-26T14:20:24Z</time>
      </trkpt>
      <trkpt lat="44.24641" lon="1.77265">
        <ele>249.4</ele>
        <time>2023-01-26T14:20:25Z</time>
      </trkpt>
      <trkpt lat="44.24647" lon="1.77263">
        <ele>249.4</ele>
        <time>2023-01-26T14:20:26Z</time>
      </trkpt>
      <trkpt lat="44.24653" lon="1.77262">
        <ele>249.4</ele>
        <time>2023-01-26T14:20:27Z</time>
      </trkpt>
      <trkpt lat="44.24659" lon="1.77261">
        <ele>249.4</ele>
        <time>2023-01-26T14:20:28Z</time>
      </trkpt>
      <trkpt lat="44.24664" lon="1.7726">
        <ele>249.4</ele>
        <time>2023-01-26T14:20:29Z</time>
      </trkpt>
      <trkpt lat="44.2467" lon="1.7726">
        <ele>249.5</ele>
        <time>2023-01-26T14:20:30Z</time>
      </trkpt>
      <trkpt lat="44.24676" lon="1.77261">
        <ele>249.5</ele>
        <time>2023-01-26T14:20:31Z</time>
      </trkpt>
      <trkpt lat="44.24682" lon="1.77262">
        <ele>249.5</ele>
        <time>2023-01-26T14:20:32Z</time>
      </trkpt>
      <trkpt lat="44.24688" lon="1.77263">
        <ele>249.6</ele>
        <time>2023-01-26T14:20:33Z</time>
      </trkpt>
      <trkpt lat="44.24693" lon="1.77265">
        <ele>249.6</ele>
        <time>2023-01-26T14:20:34Z</time>
      </trkpt>
      <trkpt lat="44.247" lon="1.77267">
        <ele>249.6</ele>
        <time>2023-01-26T14:20:35Z</time>
      </trkpt>
      <trkpt lat="44.24706" lon="1.77269">
        <ele>249.6</ele>
        <time>2023-01-26T14:20:36Z</time>
      </trkpt>
      <trkpt lat="44.24712" lon="1.77271">
        <ele>249.6</ele>
        <time>2023-01-26T14:20:37Z</time>
      </trkpt>
      <trkpt lat="44.24718" lon="1.77273">
        <ele>249.6</ele>
        <time>2023-01-26T14:20:38Z</time>
      </trkpt>
      <trkpt lat="44.24724" lon="1.77275">
        <ele>249.6</ele>
        <time>2023-01-26T14:20:39Z</time>
      </trkpt>
      <trkpt lat="44.24729" lon="1.77277">
        <ele>249.6</ele>
        <time>2023-01-26T14:20:40Z</time>
      </trkpt>
      <trkpt lat="44.24734" lon="1.77279">
        <ele>249.6</ele>
        <time>2023-01-26T14:20:41Z</time>
      </trkpt>
      <trkpt lat="44.24739" lon="1.77281">
        <ele>249.6</ele>
        <time>2023-01-26T14:20:42Z</time>
      </trkpt>
      <trkpt lat="44.24745" lon="1.77284">
        <ele>249.6</ele>
        <time>2023-01-26T14:20:43Z</time>
      </trkpt>
      <trkpt lat="44.2475" lon="1.77286">
        <ele>249.7</ele>
        <time>2023-01-26T14:20:44Z</time>
      </trkpt>
      <trkpt lat="44.24756" lon="1.77288">
        <ele>249.7</ele>
        <time>2023-01-26T14:20:45Z</time>
      </trkpt>
      <trkpt lat="44.24761" lon="1.7729">
        <ele>249.7</ele>
        <time>2023-01-26T14:20:46Z</time>
      </trkpt>
      <trkpt lat="44.24767" lon="1.77292">
        <ele>249.7</ele>
        <time>2023-01-26T14:20:47Z</time>
      </trkpt>
      <trkpt lat="44.24772" lon="1.77295">
        <ele>249.7</ele>
        <time>2023-01-26T14:20:48Z</time>
      </trkpt>
      <trkpt lat="44.24777" lon="1.77298">
        <ele>249.7</ele>
        <time>2023-01-26T14:20:49Z</time>
      </trkpt>
      <trkpt lat="44.24782" lon="1.773">
        <ele>249.8</ele>
        <time>2023-01-26T14:20:50Z</time>
      </trkpt>
      <trkpt lat="44.24788" lon="1.77302">
        <ele>249.8</ele>
        <time>2023-01-26T14:20:51Z</time>
      </trkpt>
      <trkpt lat="44.24793" lon="1.77304">
        <ele>249.8</ele>
        <time>2023-01-26T14:20:52Z</time>
      </trkpt>
      <trkpt lat="44.24799" lon="1.77305">
        <ele>249.8</ele>
        <time>2023-01-26T14:20:53Z</time>
      </trkpt>
      <trkpt lat="44.24805" lon="1.77305">
        <ele>249.8</ele>
        <time>2023-01-26T14:20:54Z</time>
      </trkpt>
      <trkpt lat="44.24811" lon="1.77306">
        <ele>249.9</ele>
        <time>2023-01-26T14:20:55Z</time>
      </trkpt>
      <trkpt lat="44.24817" lon="1.77307">
        <ele>249.9</ele>
        <time>2023-01-26T14:20:56Z</time>
      </trkpt>
      <trkpt lat="44.24822" lon="1.77307">
        <ele>249.9</ele>
        <time>2023-01-26T14:20:57Z</time>
      </trkpt>
      <trkpt lat="44.24828" lon="1.77307">
        <ele>249.9</ele>
        <time>2023-01-26T14:20:58Z</time>
      </trkpt>
      <trkpt lat="44.24834" lon="1.77306">
        <ele>249.9</ele>
        <time>2023-01-26T14:20:59Z</time>
      </trkpt>
      <trkpt lat="44.2484" lon="1.77306">
        <ele>249.9</ele>
        <time>2023-01-26T14:21:00Z</time>
      </trkpt>
      <trkpt lat="44.24845" lon="1.77305">
        <ele>249.9</ele>
        <time>2023-01-26T14:21:01Z</time>
      </trkpt>
      <trkpt lat="44.24851" lon="1.77303">
        <ele>249.9</ele>
        <time>2023-01-26T14:21:02Z</time>
      </trkpt>
      <trkpt lat="44.24857" lon="1.77301">
        <ele>249.9</ele>
        <time>2023-01-26T14:21:03Z</time>
      </trkpt>
      <trkpt lat="44.24862" lon="1.77299">
        <ele>249.9</ele>
        <time>2023-01-26T14:21:04Z</time>
      </trkpt>
      <trkpt lat="44.24868" lon="1.77297">
        <ele>249.8</ele>
        <time>2023-01-26T14:21:05Z</time>
      </trkpt>
      <trkpt lat="44.24874" lon="1.77294">
        <ele>249.8</ele>
        <time>2023-01-26T14:21:06Z</time>
      </trkpt>
      <trkpt lat="44.2488" lon="1.7729">
        <ele>249.8</ele>
        <time>2023-01-26T14:21:07Z</time>
      </trkpt>
      <trkpt lat="44.24886" lon="1.77288">
        <ele>249.7</ele>
        <time>2023-01-26T14:21:08Z</time>
      </trkpt>
      <trkpt lat="44.24892" lon="1.77285">
        <ele>249.7</ele>
        <time>2023-01-26T14:21:09Z</time>
      </trkpt>
      <trkpt lat="44.24897" lon="1.77282">
        <ele>249.7</ele>
        <time>2023-01-26T14:21:10Z</time>
      </trkpt>
      <trkpt lat="44.24903" lon="1.7728">
        <ele>249.6</ele>
        <time>2023-01-26T14:21:11Z</time>
      </trkpt>
      <trkpt lat="44.24908" lon="1.77278">
        <ele>249.6</ele>
        <time>2023-01-26T14:21:12Z</time>
      </trkpt>
      <trkpt lat="44.24913" lon="1.77275">
        <ele>249.6</ele>
        <time>2023-01-26T14:21:13Z</time>
      </trkpt>
      <trkpt lat="44.24918" lon="1.77273">
        <ele>249.6</ele>
        <time>2023-01-26T14:21:14Z</time>
      </trkpt>
      <trkpt lat="44.24924" lon="1.7727">
        <ele>249.6</ele>
        <time>2023-01-26T14:21:15Z</time>
      </trkpt>
      <trkpt lat="44.24929" lon="1.77268">
        <ele>249.6</ele>
        <time>2023-01-26T14:21:16Z</time>
      </trkpt>
      <trkpt lat="44.24934" lon="1.77265">
        <ele>249.6</ele>
        <time>2023-01-26T14:21:17Z</time>
      </trkpt>
      <trkpt lat="44.24939" lon="1.77262">
        <ele>249.6</ele>
        <time>2023-01-26T14:21:18Z</time>
      </trkpt>
      <trkpt lat="44.24944" lon="1.7726">
        <ele>249.6</ele>
        <time>2023-01-26T14:21:19Z</time>
      </trkpt>
      <trkpt lat="44.2495" lon="1.77258">
        <ele>249.6</ele>
        <time>2023-01-26T14:21:20Z</time>
      </trkpt>
      <trkpt lat="44.24955" lon="1.77256">
        <ele>249.6</ele>
        <time>2023-01-26T14:21:21Z</time>
      </trkpt>
      <trkpt lat="44.24961" lon="1.77253">
        <ele>249.6</ele>
        <time>2023-01-26T14:21:22Z</time>
      </trkpt>
      <trkpt lat="44.24966" lon="1.7725">
        <ele>249.5</ele>
        <time>2023-01-26T14:21:23Z</time>
      </trkpt>
      <trkpt lat="44.24971" lon="1.77248">
        <ele>249.4</ele>
        <time>2023-01-26T14:21:24Z</time>
      </trkpt>
      <trkpt lat="44.24976" lon="1.77245">
        <ele>249.4</ele>
        <time>2023-01-26T14:21:25Z</time>
      </trkpt>
      <trkpt lat="44.24982" lon="1.77243">
        <ele>249.4</ele>
        <time>2023-01-26T14:21:26Z</time>
      </trkpt>
      <trkpt lat="44.24987" lon="1.77241">
        <ele>249.3</ele>
        <time>2023-01-26T14:21:27Z</time>
      </trkpt>
      <trkpt lat="44.24992" lon="1.77239">
        <ele>249.3</ele>
        <time>2023-01-26T14:21:28Z</time>
      </trkpt>
      <trkpt lat="44.24998" lon="1.77237">
        <ele>249.3</ele>
        <time>2023-01-26T14:21:29Z</time>
      </trkpt>
      <trkpt lat="44.25002" lon="1.77235">
        <ele>249.2</ele>
        <time>2023-01-26T14:21:30Z</time>
      </trkpt>
      <trkpt lat="44.25007" lon="1.77233">
        <ele>249.2</ele>
        <time>2023-01-26T14:21:31Z</time>
      </trkpt>
      <trkpt lat="44.25012" lon="1.7723">
        <ele>249.2</ele>
        <time>2023-01-26T14:21:32Z</time>
      </trkpt>
      <trkpt lat="44.25017" lon="1.77228">
        <ele>249.2</ele>
        <time>2023-01-26T14:21:33Z</time>
      </trkpt>
      <trkpt lat="44.25022" lon="1.77226">
        <ele>249.3</ele>
        <time>2023-01-26T14:21:34Z</time>
      </trkpt>
      <trkpt lat="44.25027" lon="1.77224">
        <ele>249.3</ele>
        <time>2023-01-26T14:21:35Z</time>
      </trkpt>
      <trkpt lat="44.25032" lon="1.77222">
        <ele>249.4</ele>
        <time>2023-01-26T14:21:36Z</time>
      </trkpt>
      <trkpt lat="44.25037" lon="1.7722">
        <ele>249.4</ele>
        <time>2023-01-26T14:21:37Z</time>
      </trkpt>
      <trkpt lat="44.25042" lon="1.77218">
        <ele>249.5</ele>
        <time>2023-01-26T14:21:38Z</time>
      </trkpt>
      <trkpt lat="44.25046" lon="1.77216">
        <ele>249.6</ele>
        <time>2023-01-26T14:21:39Z</time>
      </trkpt>
      <trkpt lat="44.25051" lon="1.77213">
        <ele>249.7</ele>
        <time>2023-01-26T14:21:40Z</time>
      </trkpt>
      <trkpt lat="44.25056" lon="1.77211">
        <ele>249.8</ele>
        <time>2023-01-26T14:21:41Z</time>
      </trkpt>
      <trkpt lat="44.2506" lon="1.77209">
        <ele>249.9</ele>
        <time>2023-01-26T14:21:42Z</time>
      </trkpt>
      <trkpt lat="44.25065" lon="1.77208">
        <ele>250</ele>
        <time>2023-01-26T14:21:43Z</time>
      </trkpt>
      <trkpt lat="44.2507" lon="1.77206">
        <ele>250</ele>
        <time>2023-01-26T14:21:44Z</time>
      </trkpt>
      <trkpt lat="44.25075" lon="1.77205">
        <ele>250.2</ele>
        <time>2023-01-26T14:21:45Z</time>
      </trkpt>
      <trkpt lat="44.25079" lon="1.77203">
        <ele>250.4</ele>
        <time>2023-01-26T14:21:46Z</time>
      </trkpt>
      <trkpt lat="44.25082" lon="1.77203">
        <ele>250.5</ele>
        <time>2023-01-26T14:21:47Z</time>
      </trkpt>
      <trkpt lat="44.25086" lon="1.77201">
        <ele>250.7</ele>
        <time>2023-01-26T14:21:48Z</time>
      </trkpt>
      <trkpt lat="44.2509" lon="1.772">
        <ele>250.8</ele>
        <time>2023-01-26T14:21:49Z</time>
      </trkpt>
      <trkpt lat="44.25093" lon="1.77199">
        <ele>251</ele>
        <time>2023-01-26T14:21:50Z</time>
      </trkpt>
      <trkpt lat="44.25097" lon="1.77196">
        <ele>251.1</ele>
        <time>2023-01-26T14:21:51Z</time>
      </trkpt>
      <trkpt lat="44.25099" lon="1.77196">
        <ele>253.8</ele>
        <time>2023-01-26T14:22:30Z</time>
      </trkpt>
      <trkpt lat="44.25099" lon="1.77197">
        <ele>253.9</ele>
        <time>2023-01-26T14:22:31Z</time>
      </trkpt>
      <trkpt lat="44.25099" lon="1.77198">
        <ele>253.9</ele>
        <time>2023-01-26T14:22:33Z</time>
      </trkpt>
      <trkpt lat="44.251" lon="1.77199">
        <ele>253.9</ele>
        <time>2023-01-26T14:22:34Z</time>
      </trkpt>
      <trkpt lat="44.251" lon="1.77199">
        <ele>253.9</ele>
        <time>2023-01-26T14:22:35Z</time>
      </trkpt>
      <trkpt lat="44.251" lon="1.772">
        <ele>254</ele>
        <time>2023-01-26T14:22:36Z</time>
      </trkpt>
      <trkpt lat="44.25101" lon="1.772">
        <ele>254</ele>
        <time>2023-01-26T14:22:37Z</time>
      </trkpt>
      <trkpt lat="44.25102" lon="1.772">
        <ele>254</ele>
        <time>2023-01-26T14:22:39Z</time>
      </trkpt>
      <trkpt lat="44.25102" lon="1.772">
        <ele>254</ele>
        <time>2023-01-26T14:22:40Z</time>
      </trkpt>
      <trkpt lat="44.25103" lon="1.772">
        <ele>254.1</ele>
        <time>2023-01-26T14:22:41Z</time>
      </trkpt>
      <trkpt lat="44.25104" lon="1.772">
        <ele>254.1</ele>
        <time>2023-01-26T14:22:42Z</time>
      </trkpt>
      <trkpt lat="44.25105" lon="1.77201">
        <ele>254.2</ele>
        <time>2023-01-26T14:22:43Z</time>
      </trkpt>
      <trkpt lat="44.25107" lon="1.77205">
        <ele>254.3</ele>
        <time>2023-01-26T14:22:44Z</time>
      </trkpt>
      <trkpt lat="44.25111" lon="1.77209">
        <ele>254.5</ele>
        <time>2023-01-26T14:22:46Z</time>
      </trkpt>
      <trkpt lat="44.25122" lon="1.77234">
        <ele>255.4</ele>
        <time>2023-01-26T14:22:53Z</time>
      </trkpt>
      <trkpt lat="44.25123" lon="1.77241">
        <ele>255.6</ele>
        <time>2023-01-26T14:22:54Z</time>
      </trkpt>
      <trkpt lat="44.25124" lon="1.77249">
        <ele>255.7</ele>
        <time>2023-01-26T14:22:55Z</time>
      </trkpt>
      <trkpt lat="44.25125" lon="1.7726">
        <ele>256</ele>
        <time>2023-01-26T14:22:56Z</time>
      </trkpt>
      <trkpt lat="44.25126" lon="1.77268">
        <ele>256.1</ele>
        <time>2023-01-26T14:22:58Z</time>
      </trkpt>
      <trkpt lat="44.25127" lon="1.77275">
        <ele>256.2</ele>
        <time>2023-01-26T14:22:59Z</time>
      </trkpt>
      <trkpt lat="44.25129" lon="1.77284">
        <ele>256.4</ele>
        <time>2023-01-26T14:23:00Z</time>
      </trkpt>
      <trkpt lat="44.25129" lon="1.77293">
        <ele>256.4</ele>
        <time>2023-01-26T14:23:01Z</time>
      </trkpt>
      <trkpt lat="44.25128" lon="1.77301">
        <ele>256.5</ele>
        <time>2023-01-26T14:23:02Z</time>
      </trkpt>
      <trkpt lat="44.25123" lon="1.77317">
        <ele>256.7</ele>
        <time>2023-01-26T14:23:04Z</time>
      </trkpt>
      <trkpt lat="44.25121" lon="1.77327">
        <ele>254.6</ele>
        <time>2023-01-26T14:23:05Z</time>
      </trkpt>
      <trkpt lat="44.25119" lon="1.77336">
        <ele>252.1</ele>
        <time>2023-01-26T14:23:06Z</time>
      </trkpt>
      <trkpt lat="44.25117" lon="1.77345">
        <ele>249.7</ele>
        <time>2023-01-26T14:23:07Z</time>
      </trkpt>
      <trkpt lat="44.25115" lon="1.77352">
        <ele>247.5</ele>
        <time>2023-01-26T14:23:08Z</time>
      </trkpt>
      <trkpt lat="44.25115" lon="1.7736">
        <ele>245.6</ele>
        <time>2023-01-26T14:23:09Z</time>
      </trkpt>
      <trkpt lat="44.25114" lon="1.77367">
        <ele>245.5</ele>
        <time>2023-01-26T14:23:10Z</time>
      </trkpt>
      <trkpt lat="44.25114" lon="1.77374">
        <ele>245.3</ele>
        <time>2023-01-26T14:23:11Z</time>
      </trkpt>
      <trkpt lat="44.25114" lon="1.77382">
        <ele>245.1</ele>
        <time>2023-01-26T14:23:12Z</time>
      </trkpt>
      <trkpt lat="44.25114" lon="1.77389">
        <ele>245</ele>
        <time>2023-01-26T14:23:13Z</time>
      </trkpt>
      <trkpt lat="44.25114" lon="1.77396">
        <ele>244.9</ele>
        <time>2023-01-26T14:23:14Z</time>
      </trkpt>
      <trkpt lat="44.25113" lon="1.77403">
        <ele>244.8</ele>
        <time>2023-01-26T14:23:15Z</time>
      </trkpt>
      <trkpt lat="44.25113" lon="1.7741">
        <ele>244.8</ele>
        <time>2023-01-26T14:23:16Z</time>
      </trkpt>
      <trkpt lat="44.25112" lon="1.77417">
        <ele>244.7</ele>
        <time>2023-01-26T14:23:17Z</time>
      </trkpt>
      <trkpt lat="44.25112" lon="1.77424">
        <ele>244.7</ele>
        <time>2023-01-26T14:23:18Z</time>
      </trkpt>
      <trkpt lat="44.25111" lon="1.77431">
        <ele>244.6</ele>
        <time>2023-01-26T14:23:19Z</time>
      </trkpt>
      <trkpt lat="44.25111" lon="1.77438">
        <ele>244.6</ele>
        <time>2023-01-26T14:23:20Z</time>
      </trkpt>
      <trkpt lat="44.25109" lon="1.77445">
        <ele>244.6</ele>
        <time>2023-01-26T14:23:21Z</time>
      </trkpt>
      <trkpt lat="44.25109" lon="1.77451">
        <ele>244.6</ele>
        <time>2023-01-26T14:23:22Z</time>
      </trkpt>
      <trkpt lat="44.25108" lon="1.77455">
        <ele>244.5</ele>
        <time>2023-01-26T14:23:23Z</time>
      </trkpt>
      <trkpt lat="44.25107" lon="1.77463">
        <ele>244.5</ele>
        <time>2023-01-26T14:23:24Z</time>
      </trkpt>
      <trkpt lat="44.25106" lon="1.7747">
        <ele>244.5</ele>
        <time>2023-01-26T14:23:25Z</time>
      </trkpt>
      <trkpt lat="44.25106" lon="1.77477">
        <ele>244.4</ele>
        <time>2023-01-26T14:23:26Z</time>
      </trkpt>
      <trkpt lat="44.25105" lon="1.77483">
        <ele>244.4</ele>
        <time>2023-01-26T14:23:27Z</time>
      </trkpt>
      <trkpt lat="44.25106" lon="1.77507">
        <ele>244.2</ele>
        <time>2023-01-26T14:23:32Z</time>
      </trkpt>
      <trkpt lat="44.25107" lon="1.77509">
        <ele>244.2</ele>
        <time>2023-01-26T14:23:33Z</time>
      </trkpt>
      <trkpt lat="44.25102" lon="1.77513">
        <ele>243.7</ele>
        <time>2023-01-26T14:23:51Z</time>
      </trkpt>
      <trkpt lat="44.25098" lon="1.77513">
        <ele>243.7</ele>
        <time>2023-01-26T14:23:52Z</time>
      </trkpt>
      <trkpt lat="44.25094" lon="1.77513">
        <ele>243.6</ele>
        <time>2023-01-26T14:23:53Z</time>
      </trkpt>
      <trkpt lat="44.25091" lon="1.77513">
        <ele>243.5</ele>
        <time>2023-01-26T14:23:54Z</time>
      </trkpt>
      <trkpt lat="44.25084" lon="1.77515">
        <ele>243.4</ele>
        <time>2023-01-26T14:23:55Z</time>
      </trkpt>
      <trkpt lat="44.2508" lon="1.77516">
        <ele>243.3</ele>
        <time>2023-01-26T14:23:56Z</time>
      </trkpt>
      <trkpt lat="44.25075" lon="1.77517">
        <ele>243.3</ele>
        <time>2023-01-26T14:23:58Z</time>
      </trkpt>
      <trkpt lat="44.25071" lon="1.77517">
        <ele>243.2</ele>
        <time>2023-01-26T14:23:59Z</time>
      </trkpt>
      <trkpt lat="44.25066" lon="1.77518">
        <ele>243.2</ele>
        <time>2023-01-26T14:24:00Z</time>
      </trkpt>
      <trkpt lat="44.25061" lon="1.77519">
        <ele>243.1</ele>
        <time>2023-01-26T14:24:01Z</time>
      </trkpt>
      <trkpt lat="44.25054" lon="1.7752">
        <ele>243</ele>
        <time>2023-01-26T14:24:03Z</time>
      </trkpt>
      <trkpt lat="44.25051" lon="1.7752">
        <ele>243.1</ele>
        <time>2023-01-26T14:24:04Z</time>
      </trkpt>
      <trkpt lat="44.25035" lon="1.7752">
        <ele>243.1</ele>
        <time>2023-01-26T14:24:20Z</time>
      </trkpt>
      <trkpt lat="44.25033" lon="1.7752">
        <ele>243.1</ele>
        <time>2023-01-26T14:24:21Z</time>
      </trkpt>
      <trkpt lat="44.2503" lon="1.77519">
        <ele>243.1</ele>
        <time>2023-01-26T14:24:22Z</time>
      </trkpt>
      <trkpt lat="44.25027" lon="1.77519">
        <ele>243.2</ele>
        <time>2023-01-26T14:24:23Z</time>
      </trkpt>
      <trkpt lat="44.25023" lon="1.77519">
        <ele>243.2</ele>
        <time>2023-01-26T14:24:25Z</time>
      </trkpt>
      <trkpt lat="44.2502" lon="1.7752">
        <ele>243.2</ele>
        <time>2023-01-26T14:24:26Z</time>
      </trkpt>
      <trkpt lat="44.25019" lon="1.77521">
        <ele>243.2</ele>
        <time>2023-01-26T14:24:27Z</time>
      </trkpt>
      <trkpt lat="44.25018" lon="1.77524">
        <ele>243.1</ele>
        <time>2023-01-26T14:24:28Z</time>
      </trkpt>
      <trkpt lat="44.25023" lon="1.7752">
        <ele>243.2</ele>
        <time>2023-01-26T14:37:45Z</time>
      </trkpt>
      <trkpt lat="44.25028" lon="1.77521">
        <ele>243.2</ele>
        <time>2023-01-26T14:37:47Z</time>
      </trkpt>
      <trkpt lat="44.25034" lon="1.77522">
        <ele>243.1</ele>
        <time>2023-01-26T14:37:49Z</time>
      </trkpt>
      <trkpt lat="44.25037" lon="1.77522">
        <ele>243.1</ele>
        <time>2023-01-26T14:37:50Z</time>
      </trkpt>
      <trkpt lat="44.25054" lon="1.77519">
        <ele>243</ele>
        <time>2023-01-26T14:39:14Z</time>
      </trkpt>
      <trkpt lat="44.25057" lon="1.77519">
        <ele>243.1</ele>
        <time>2023-01-26T14:39:15Z</time>
      </trkpt>
      <trkpt lat="44.25062" lon="1.77519">
        <ele>243.1</ele>
        <time>2023-01-26T14:39:17Z</time>
      </trkpt>
      <trkpt lat="44.25064" lon="1.77519">
        <ele>243.1</ele>
        <time>2023-01-26T14:39:18Z</time>
      </trkpt>
      <trkpt lat="44.25064" lon="1.77519">
        <ele>243.1</ele>
        <time>2023-01-26T14:39:20Z</time>
      </trkpt>
      <trkpt lat="44.25063" lon="1.77519">
        <ele>243.1</ele>
        <time>2023-01-26T14:39:21Z</time>
      </trkpt>
      <trkpt lat="44.25063" lon="1.77519">
        <ele>243.1</ele>
        <time>2023-01-26T14:39:22Z</time>
      </trkpt>
      <trkpt lat="44.25063" lon="1.77519">
        <ele>243.1</ele>
        <time>2023-01-26T14:39:23Z</time>
      </trkpt>
      <trkpt lat="44.25063" lon="1.7752">
        <ele>243.1</ele>
        <time>2023-01-26T14:39:24Z</time>
      </trkpt>
      <trkpt lat="44.25063" lon="1.77519">
        <ele>243.1</ele>
        <time>2023-01-26T14:39:25Z</time>
      </trkpt>
      <trkpt lat="44.25064" lon="1.7752">
        <ele>243.1</ele>
        <time>2023-01-26T14:39:26Z</time>
      </trkpt>
      <trkpt lat="44.25066" lon="1.7752">
        <ele>243.2</ele>
        <time>2023-01-26T14:39:28Z</time>
      </trkpt>
      <trkpt lat="44.25069" lon="1.77519">
        <ele>243.2</ele>
        <time>2023-01-26T14:39:30Z</time>
      </trkpt>
      <trkpt lat="44.25072" lon="1.77519">
        <ele>243.2</ele>
        <time>2023-01-26T14:39:31Z</time>
      </trkpt>
      <trkpt lat="44.25075" lon="1.77518">
        <ele>243.3</ele>
        <time>2023-01-26T14:39:32Z</time>
      </trkpt>
      <trkpt lat="44.25078" lon="1.77517">
        <ele>243.3</ele>
        <time>2023-01-26T14:39:33Z</time>
      </trkpt>
      <trkpt lat="44.25083" lon="1.77516">
        <ele>243.4</ele>
        <time>2023-01-26T14:39:35Z</time>
      </trkpt>
      <trkpt lat="44.25089" lon="1.77515">
        <ele>243.5</ele>
        <time>2023-01-26T14:39:37Z</time>
      </trkpt>
      <trkpt lat="44.25093" lon="1.77514">
        <ele>243.6</ele>
        <time>2023-01-26T14:39:38Z</time>
      </trkpt>
      <trkpt lat="44.25097" lon="1.77514">
        <ele>243.6</ele>
        <time>2023-01-26T14:39:40Z</time>
      </trkpt>
      <trkpt lat="44.251" lon="1.77512">
        <ele>243.7</ele>
        <time>2023-01-26T14:39:41Z</time>
      </trkpt>
      <trkpt lat="44.25101" lon="1.77511">
        <ele>243.7</ele>
        <time>2023-01-26T14:39:42Z</time>
      </trkpt>
      <trkpt lat="44.25102" lon="1.7751">
        <ele>243.7</ele>
        <time>2023-01-26T14:39:43Z</time>
      </trkpt>
      <trkpt lat="44.25108" lon="1.77508">
        <ele>243.7</ele>
        <time>2023-01-26T14:40:27Z</time>
      </trkpt>
      <trkpt lat="44.25128" lon="1.77512">
        <ele>243.7</ele>
        <time>2023-01-26T14:40:35Z</time>
      </trkpt>
      <trkpt lat="44.25132" lon="1.77512">
        <ele>243.7</ele>
        <time>2023-01-26T14:40:36Z</time>
      </trkpt>
      <trkpt lat="44.25136" lon="1.77512">
        <ele>243.7</ele>
        <time>2023-01-26T14:40:37Z</time>
      </trkpt>
      <trkpt lat="44.2514" lon="1.77513">
        <ele>243.7</ele>
        <time>2023-01-26T14:40:38Z</time>
      </trkpt>
      <trkpt lat="44.25145" lon="1.77516">
        <ele>243.7</ele>
        <time>2023-01-26T14:40:40Z</time>
      </trkpt>
      <trkpt lat="44.25148" lon="1.77518">
        <ele>243.7</ele>
        <time>2023-01-26T14:40:41Z</time>
      </trkpt>
      <trkpt lat="44.25153" lon="1.77522">
        <ele>243.7</ele>
        <time>2023-01-26T14:40:42Z</time>
      </trkpt>
      <trkpt lat="44.25157" lon="1.77525">
        <ele>243.7</ele>
        <time>2023-01-26T14:40:43Z</time>
      </trkpt>
      <trkpt lat="44.25162" lon="1.77528">
        <ele>243.7</ele>
        <time>2023-01-26T14:40:44Z</time>
      </trkpt>
      <trkpt lat="44.25166" lon="1.77531">
        <ele>243.7</ele>
        <time>2023-01-26T14:40:46Z</time>
      </trkpt>
      <trkpt lat="44.2517" lon="1.77533">
        <ele>243.8</ele>
        <time>2023-01-26T14:40:47Z</time>
      </trkpt>
      <trkpt lat="44.25173" lon="1.77535">
        <ele>243.8</ele>
        <time>2023-01-26T14:40:48Z</time>
      </trkpt>
      <trkpt lat="44.25177" lon="1.77537">
        <ele>243.8</ele>
        <time>2023-01-26T14:40:49Z</time>
      </trkpt>
      <trkpt lat="44.2518" lon="1.77539">
        <ele>243.9</ele>
        <time>2023-01-26T14:40:50Z</time>
      </trkpt>
      <trkpt lat="44.25185" lon="1.7754">
        <ele>244</ele>
        <time>2023-01-26T14:40:51Z</time>
      </trkpt>
      <trkpt lat="44.2519" lon="1.7754">
        <ele>244.1</ele>
        <time>2023-01-26T14:40:52Z</time>
      </trkpt>
      <trkpt lat="44.25195" lon="1.77539">
        <ele>244.2</ele>
        <time>2023-01-26T14:40:53Z</time>
      </trkpt>
      <trkpt lat="44.25198" lon="1.77538">
        <ele>244.3</ele>
        <time>2023-01-26T14:40:54Z</time>
      </trkpt>
      <trkpt lat="44.25202" lon="1.77538">
        <ele>244.5</ele>
        <time>2023-01-26T14:40:55Z</time>
      </trkpt>
      <trkpt lat="44.25206" lon="1.77537">
        <ele>244.6</ele>
        <time>2023-01-26T14:40:57Z</time>
      </trkpt>
      <trkpt lat="44.25211" lon="1.77535">
        <ele>244.9</ele>
        <time>2023-01-26T14:40:58Z</time>
      </trkpt>
      <trkpt lat="44.25215" lon="1.77533">
        <ele>245.1</ele>
        <time>2023-01-26T14:41:00Z</time>
      </trkpt>
      <trkpt lat="44.25218" lon="1.77531">
        <ele>245.3</ele>
        <time>2023-01-26T14:41:01Z</time>
      </trkpt>
      <trkpt lat="44.25222" lon="1.7753">
        <ele>245.5</ele>
        <time>2023-01-26T14:41:02Z</time>
      </trkpt>
      <trkpt lat="44.25224" lon="1.77528">
        <ele>245.7</ele>
        <time>2023-01-26T14:41:03Z</time>
      </trkpt>
      <trkpt lat="44.25229" lon="1.77525">
        <ele>246.1</ele>
        <time>2023-01-26T14:41:05Z</time>
      </trkpt>
      <trkpt lat="44.25232" lon="1.77523">
        <ele>246.3</ele>
        <time>2023-01-26T14:41:06Z</time>
      </trkpt>
      <trkpt lat="44.25237" lon="1.77521">
        <ele>246.8</ele>
        <time>2023-01-26T14:41:07Z</time>
      </trkpt>
      <trkpt lat="44.2524" lon="1.77519">
        <ele>247.2</ele>
        <time>2023-01-26T14:41:09Z</time>
      </trkpt>
      <trkpt lat="44.25245" lon="1.77517">
        <ele>247.7</ele>
        <time>2023-01-26T14:41:10Z</time>
      </trkpt>
      <trkpt lat="44.2525" lon="1.77514">
        <ele>248.1</ele>
        <time>2023-01-26T14:41:12Z</time>
      </trkpt>
      <trkpt lat="44.25251" lon="1.77513">
        <ele>248.3</ele>
        <time>2023-01-26T14:41:13Z</time>
      </trkpt>
      <trkpt lat="44.25253" lon="1.77512">
        <ele>248.5</ele>
        <time>2023-01-26T14:41:14Z</time>
      </trkpt>
      <trkpt lat="44.25256" lon="1.77509">
        <ele>248.9</ele>
        <time>2023-01-26T14:41:16Z</time>
      </trkpt>
      <trkpt lat="44.25259" lon="1.77508">
        <ele>249.3</ele>
        <time>2023-01-26T14:41:17Z</time>
      </trkpt>
      <trkpt lat="44.2526" lon="1.77508">
        <ele>249.4</ele>
        <time>2023-01-26T14:41:18Z</time>
      </trkpt>
      <trkpt lat="44.25263" lon="1.77507">
        <ele>249.7</ele>
        <time>2023-01-26T14:41:19Z</time>
      </trkpt>
      <trkpt lat="44.25265" lon="1.77507">
        <ele>249.8</ele>
        <time>2023-01-26T14:41:20Z</time>
      </trkpt>
      <trkpt lat="44.25267" lon="1.77506">
        <ele>250.1</ele>
        <time>2023-01-26T14:41:21Z</time>
      </trkpt>
      <trkpt lat="44.25269" lon="1.77506">
        <ele>250.3</ele>
        <time>2023-01-26T14:41:23Z</time>
      </trkpt>
      <trkpt lat="44.25271" lon="1.77506">
        <ele>250.6</ele>
        <time>2023-01-26T14:41:24Z</time>
      </trkpt>
      <trkpt lat="44.25275" lon="1.77507">
        <ele>251</ele>
        <time>2023-01-26T14:41:26Z</time>
      </trkpt>
      <trkpt lat="44.25279" lon="1.77508">
        <ele>251.5</ele>
        <time>2023-01-26T14:41:27Z</time>
      </trkpt>
      <trkpt lat="44.25281" lon="1.77509">
        <ele>251.7</ele>
        <time>2023-01-26T14:41:28Z</time>
      </trkpt>
      <trkpt lat="44.25284" lon="1.77511">
        <ele>252.1</ele>
        <time>2023-01-26T14:41:30Z</time>
      </trkpt>
      <trkpt lat="44.25287" lon="1.77513">
        <ele>252.4</ele>
        <time>2023-01-26T14:41:31Z</time>
      </trkpt>
      <trkpt lat="44.25291" lon="1.77515">
        <ele>252.9</ele>
        <time>2023-01-26T14:41:32Z</time>
      </trkpt>
      <trkpt lat="44.25294" lon="1.77516">
        <ele>253.3</ele>
        <time>2023-01-26T14:41:34Z</time>
      </trkpt>
      <trkpt lat="44.25298" lon="1.77518">
        <ele>253.7</ele>
        <time>2023-01-26T14:41:36Z</time>
      </trkpt>
      <trkpt lat="44.253" lon="1.77519">
        <ele>254</ele>
        <time>2023-01-26T14:41:37Z</time>
      </trkpt>
      <trkpt lat="44.25304" lon="1.77521">
        <ele>254.5</ele>
        <time>2023-01-26T14:41:38Z</time>
      </trkpt>
      <trkpt lat="44.25306" lon="1.77523">
        <ele>254.8</ele>
        <time>2023-01-26T14:41:39Z</time>
      </trkpt>
      <trkpt lat="44.25309" lon="1.77524">
        <ele>255.1</ele>
        <time>2023-01-26T14:41:41Z</time>
      </trkpt>
      <trkpt lat="44.25312" lon="1.77526">
        <ele>255.4</ele>
        <time>2023-01-26T14:41:42Z</time>
      </trkpt>
      <trkpt lat="44.25314" lon="1.77528">
        <ele>255.7</ele>
        <time>2023-01-26T14:41:43Z</time>
      </trkpt>
      <trkpt lat="44.25319" lon="1.7753">
        <ele>256.2</ele>
        <time>2023-01-26T14:41:45Z</time>
      </trkpt>
      <trkpt lat="44.25323" lon="1.77531">
        <ele>256.8</ele>
        <time>2023-01-26T14:41:46Z</time>
      </trkpt>
      <trkpt lat="44.25326" lon="1.77533">
        <ele>257.2</ele>
        <time>2023-01-26T14:41:48Z</time>
      </trkpt>
      <trkpt lat="44.25331" lon="1.77534">
        <ele>257.7</ele>
        <time>2023-01-26T14:41:49Z</time>
      </trkpt>
      <trkpt lat="44.25334" lon="1.77534">
        <ele>258.2</ele>
        <time>2023-01-26T14:41:51Z</time>
      </trkpt>
      <trkpt lat="44.25336" lon="1.77534">
        <ele>258.3</ele>
        <time>2023-01-26T14:41:52Z</time>
      </trkpt>
      <trkpt lat="44.25339" lon="1.77534">
        <ele>258.8</ele>
        <time>2023-01-26T14:41:54Z</time>
      </trkpt>
      <trkpt lat="44.25342" lon="1.77536">
        <ele>259.2</ele>
        <time>2023-01-26T14:41:55Z</time>
      </trkpt>
      <trkpt lat="44.25343" lon="1.77537">
        <ele>259.3</ele>
        <time>2023-01-26T14:41:56Z</time>
      </trkpt>
      <trkpt lat="44.25346" lon="1.77522">
        <ele>261.1</ele>
        <time>2023-01-26T14:42:14Z</time>
      </trkpt>
      <trkpt lat="44.25346" lon="1.77515">
        <ele>261.3</ele>
        <time>2023-01-26T14:42:15Z</time>
      </trkpt>
      <trkpt lat="44.25346" lon="1.77512">
        <ele>261.4</ele>
        <time>2023-01-26T14:42:16Z</time>
      </trkpt>
      <trkpt lat="44.25346" lon="1.77508">
        <ele>261.6</ele>
        <time>2023-01-26T14:42:18Z</time>
      </trkpt>
      <trkpt lat="44.25345" lon="1.77503">
        <ele>261.8</ele>
        <time>2023-01-26T14:42:19Z</time>
      </trkpt>
      <trkpt lat="44.25343" lon="1.77499">
        <ele>262</ele>
        <time>2023-01-26T14:42:20Z</time>
      </trkpt>
      <trkpt lat="44.25342" lon="1.77495">
        <ele>262.2</ele>
        <time>2023-01-26T14:42:21Z</time>
      </trkpt>
      <trkpt lat="44.25341" lon="1.77491">
        <ele>262.5</ele>
        <time>2023-01-26T14:42:23Z</time>
      </trkpt>
      <trkpt lat="44.2534" lon="1.77487">
        <ele>262.7</ele>
        <time>2023-01-26T14:42:24Z</time>
      </trkpt>
      <trkpt lat="44.25339" lon="1.77483">
        <ele>262.9</ele>
        <time>2023-01-26T14:42:25Z</time>
      </trkpt>
      <trkpt lat="44.25337" lon="1.77479">
        <ele>263.2</ele>
        <time>2023-01-26T14:42:26Z</time>
      </trkpt>
      <trkpt lat="44.25337" lon="1.77477">
        <ele>263.3</ele>
        <time>2023-01-26T14:42:27Z</time>
      </trkpt>
      <trkpt lat="44.25336" lon="1.77473">
        <ele>263.6</ele>
        <time>2023-01-26T14:42:28Z</time>
      </trkpt>
      <trkpt lat="44.25335" lon="1.77468">
        <ele>263.8</ele>
        <time>2023-01-26T14:42:29Z</time>
      </trkpt>
      <trkpt lat="44.25335" lon="1.77462">
        <ele>264.2</ele>
        <time>2023-01-26T14:42:31Z</time>
      </trkpt>
      <trkpt lat="44.25335" lon="1.77458">
        <ele>264.3</ele>
        <time>2023-01-26T14:42:32Z</time>
      </trkpt>
      <trkpt lat="44.25335" lon="1.77451">
        <ele>264.6</ele>
        <time>2023-01-26T14:42:33Z</time>
      </trkpt>
      <trkpt lat="44.25335" lon="1.77446">
        <ele>264.8</ele>
        <time>2023-01-26T14:42:35Z</time>
      </trkpt>
      <trkpt lat="44.25336" lon="1.77441">
        <ele>265</ele>
        <time>2023-01-26T14:42:36Z</time>
      </trkpt>
      <trkpt lat="44.25336" lon="1.77437">
        <ele>265.1</ele>
        <time>2023-01-26T14:42:37Z</time>
      </trkpt>
      <trkpt lat="44.25337" lon="1.77432">
        <ele>265.3</ele>
        <time>2023-01-26T14:42:38Z</time>
      </trkpt>
      <trkpt lat="44.25338" lon="1.77426">
        <ele>265.4</ele>
        <time>2023-01-26T14:42:39Z</time>
      </trkpt>
      <trkpt lat="44.25339" lon="1.77422">
        <ele>265.5</ele>
        <time>2023-01-26T14:42:41Z</time>
      </trkpt>
      <trkpt lat="44.2534" lon="1.77418">
        <ele>265.6</ele>
        <time>2023-01-26T14:42:42Z</time>
      </trkpt>
      <trkpt lat="44.25342" lon="1.77413">
        <ele>265.7</ele>
        <time>2023-01-26T14:42:43Z</time>
      </trkpt>
      <trkpt lat="44.25343" lon="1.77408">
        <ele>265.8</ele>
        <time>2023-01-26T14:42:44Z</time>
      </trkpt>
      <trkpt lat="44.25344" lon="1.77402">
        <ele>265.9</ele>
        <time>2023-01-26T14:42:45Z</time>
      </trkpt>
      <trkpt lat="44.25346" lon="1.77393">
        <ele>266.1</ele>
        <time>2023-01-26T14:42:47Z</time>
      </trkpt>
      <trkpt lat="44.25348" lon="1.77389">
        <ele>266.2</ele>
        <time>2023-01-26T14:42:48Z</time>
      </trkpt>
      <trkpt lat="44.2535" lon="1.77384">
        <ele>266.3</ele>
        <time>2023-01-26T14:42:49Z</time>
      </trkpt>
      <trkpt lat="44.2535" lon="1.77383">
        <ele>266.3</ele>
        <time>2023-01-26T14:42:50Z</time>
      </trkpt>
      <trkpt lat="44.25349" lon="1.7738">
        <ele>266.4</ele>
        <time>2023-01-26T14:42:52Z</time>
      </trkpt>
      <trkpt lat="44.25349" lon="1.77379">
        <ele>266.4</ele>
        <time>2023-01-26T14:42:53Z</time>
      </trkpt>
      <trkpt lat="44.25349" lon="1.77378">
        <ele>266.4</ele>
        <time>2023-01-26T14:42:55Z</time>
      </trkpt>
      <trkpt lat="44.25349" lon="1.77377">
        <ele>266.5</ele>
        <time>2023-01-26T14:42:56Z</time>
      </trkpt>
      <trkpt lat="44.25348" lon="1.77377">
        <ele>266.5</ele>
        <time>2023-01-26T14:42:58Z</time>
      </trkpt>
      <trkpt lat="44.25348" lon="1.77376">
        <ele>266.5</ele>
        <time>2023-01-26T14:42:59Z</time>
      </trkpt>
      <trkpt lat="44.25348" lon="1.77375">
        <ele>266.5</ele>
        <time>2023-01-26T14:43:01Z</time>
      </trkpt>
      <trkpt lat="44.25348" lon="1.77374">
        <ele>266.5</ele>
        <time>2023-01-26T14:43:02Z</time>
      </trkpt>
      <trkpt lat="44.25348" lon="1.77373">
        <ele>266.5</ele>
        <time>2023-01-26T14:43:56Z</time>
      </trkpt>
      <trkpt lat="44.25347" lon="1.77372">
        <ele>266.6</ele>
        <time>2023-01-26T14:43:57Z</time>
      </trkpt>
      <trkpt lat="44.25347" lon="1.77371">
        <ele>266.6</ele>
        <time>2023-01-26T14:43:58Z</time>
      </trkpt>
      <trkpt lat="44.25347" lon="1.77367">
        <ele>266.6</ele>
        <time>2023-01-26T14:43:59Z</time>
      </trkpt>
      <trkpt lat="44.25345" lon="1.77363">
        <ele>266.7</ele>
        <time>2023-01-26T14:44:00Z</time>
      </trkpt>
      <trkpt lat="44.2534" lon="1.77359">
        <ele>266.8</ele>
        <time>2023-01-26T14:44:02Z</time>
      </trkpt>
      <trkpt lat="44.25337" lon="1.77357">
        <ele>266.7</ele>
        <time>2023-01-26T14:44:03Z</time>
      </trkpt>
      <trkpt lat="44.25332" lon="1.77353">
        <ele>266.7</ele>
        <time>2023-01-26T14:44:05Z</time>
      </trkpt>
      <trkpt lat="44.25329" lon="1.77351">
        <ele>266.7</ele>
        <time>2023-01-26T14:44:06Z</time>
      </trkpt>
      <trkpt lat="44.25323" lon="1.77345">
        <ele>266.6</ele>
        <time>2023-01-26T14:44:08Z</time>
      </trkpt>
      <trkpt lat="44.25321" lon="1.77341">
        <ele>266.6</ele>
        <time>2023-01-26T14:44:09Z</time>
      </trkpt>
      <trkpt lat="44.25317" lon="1.77332">
        <ele>266.5</ele>
        <time>2023-01-26T14:44:10Z</time>
      </trkpt>
      <trkpt lat="44.25316" lon="1.77326">
        <ele>266.5</ele>
        <time>2023-01-26T14:44:11Z</time>
      </trkpt>
      <trkpt lat="44.25313" lon="1.7732">
        <ele>267.1</ele>
        <time>2023-01-26T14:44:13Z</time>
      </trkpt>
      <trkpt lat="44.2531" lon="1.77315">
        <ele>267.3</ele>
        <time>2023-01-26T14:44:14Z</time>
      </trkpt>
      <trkpt lat="44.25307" lon="1.7731">
        <ele>267.6</ele>
        <time>2023-01-26T14:44:15Z</time>
      </trkpt>
      <trkpt lat="44.25303" lon="1.77305">
        <ele>267.8</ele>
        <time>2023-01-26T14:44:16Z</time>
      </trkpt>
      <trkpt lat="44.253" lon="1.77301">
        <ele>267.9</ele>
        <time>2023-01-26T14:44:17Z</time>
      </trkpt>
      <trkpt lat="44.25297" lon="1.77296">
        <ele>268.2</ele>
        <time>2023-01-26T14:44:19Z</time>
      </trkpt>
      <trkpt lat="44.25293" lon="1.77291">
        <ele>268.4</ele>
        <time>2023-01-26T14:44:20Z</time>
      </trkpt>
      <trkpt lat="44.2529" lon="1.77286">
        <ele>268.6</ele>
        <time>2023-01-26T14:44:21Z</time>
      </trkpt>
      <trkpt lat="44.25285" lon="1.77279">
        <ele>268.9</ele>
        <time>2023-01-26T14:44:22Z</time>
      </trkpt>
      <trkpt lat="44.25282" lon="1.77274">
        <ele>269.2</ele>
        <time>2023-01-26T14:44:24Z</time>
      </trkpt>
      <trkpt lat="44.25278" lon="1.77269">
        <ele>269.5</ele>
        <time>2023-01-26T14:44:25Z</time>
      </trkpt>
      <trkpt lat="44.25275" lon="1.77264">
        <ele>269.8</ele>
        <time>2023-01-26T14:44:26Z</time>
      </trkpt>
      <trkpt lat="44.25272" lon="1.7726">
        <ele>270</ele>
        <time>2023-01-26T14:44:28Z</time>
      </trkpt>
      <trkpt lat="44.25266" lon="1.77253">
        <ele>270.6</ele>
        <time>2023-01-26T14:44:29Z</time>
      </trkpt>
      <trkpt lat="44.25262" lon="1.77246">
        <ele>271.1</ele>
        <time>2023-01-26T14:44:30Z</time>
      </trkpt>
      <trkpt lat="44.25259" lon="1.77241">
        <ele>271.4</ele>
        <time>2023-01-26T14:44:32Z</time>
      </trkpt>
      <trkpt lat="44.25255" lon="1.77236">
        <ele>271.9</ele>
        <time>2023-01-26T14:44:33Z</time>
      </trkpt>
      <trkpt lat="44.25252" lon="1.77232">
        <ele>272.2</ele>
        <time>2023-01-26T14:44:34Z</time>
      </trkpt>
      <trkpt lat="44.25249" lon="1.77228">
        <ele>272.5</ele>
        <time>2023-01-26T14:44:35Z</time>
      </trkpt>
      <trkpt lat="44.25245" lon="1.77223">
        <ele>272.9</ele>
        <time>2023-01-26T14:44:37Z</time>
      </trkpt>
      <trkpt lat="44.25242" lon="1.77219">
        <ele>273.2</ele>
        <time>2023-01-26T14:44:38Z</time>
      </trkpt>
      <trkpt lat="44.2524" lon="1.77215">
        <ele>273.6</ele>
        <time>2023-01-26T14:44:39Z</time>
      </trkpt>
      <trkpt lat="44.25235" lon="1.77206">
        <ele>274.2</ele>
        <time>2023-01-26T14:44:41Z</time>
      </trkpt>
      <trkpt lat="44.25232" lon="1.77202">
        <ele>274.5</ele>
        <time>2023-01-26T14:44:42Z</time>
      </trkpt>
      <trkpt lat="44.25227" lon="1.77196">
        <ele>275</ele>
        <time>2023-01-26T14:44:43Z</time>
      </trkpt>
      <trkpt lat="44.25224" lon="1.77191">
        <ele>275.4</ele>
        <time>2023-01-26T14:44:45Z</time>
      </trkpt>
      <trkpt lat="44.2522" lon="1.77186">
        <ele>275.8</ele>
        <time>2023-01-26T14:44:46Z</time>
      </trkpt>
      <trkpt lat="44.25217" lon="1.77183">
        <ele>276.1</ele>
        <time>2023-01-26T14:44:47Z</time>
      </trkpt>
      <trkpt lat="44.25211" lon="1.77177">
        <ele>276.6</ele>
        <time>2023-01-26T14:44:49Z</time>
      </trkpt>
      <trkpt lat="44.25209" lon="1.77174">
        <ele>276.9</ele>
        <time>2023-01-26T14:44:50Z</time>
      </trkpt>
      <trkpt lat="44.25204" lon="1.77168">
        <ele>277.4</ele>
        <time>2023-01-26T14:44:51Z</time>
      </trkpt>
      <trkpt lat="44.25201" lon="1.77162">
        <ele>277.8</ele>
        <time>2023-01-26T14:44:53Z</time>
      </trkpt>
      <trkpt lat="44.25199" lon="1.77157">
        <ele>278.1</ele>
        <time>2023-01-26T14:44:54Z</time>
      </trkpt>
      <trkpt lat="44.25196" lon="1.77153">
        <ele>278.3</ele>
        <time>2023-01-26T14:44:55Z</time>
      </trkpt>
      <trkpt lat="44.25194" lon="1.77149">
        <ele>278.6</ele>
        <time>2023-01-26T14:44:56Z</time>
      </trkpt>
      <trkpt lat="44.25191" lon="1.77142">
        <ele>278.9</ele>
        <time>2023-01-26T14:44:58Z</time>
      </trkpt>
      <trkpt lat="44.25187" lon="1.77133">
        <ele>279.4</ele>
        <time>2023-01-26T14:44:59Z</time>
      </trkpt>
      <trkpt lat="44.25184" lon="1.77127">
        <ele>279.6</ele>
        <time>2023-01-26T14:45:01Z</time>
      </trkpt>
      <trkpt lat="44.2518" lon="1.77117">
        <ele>280</ele>
        <time>2023-01-26T14:45:02Z</time>
      </trkpt>
      <trkpt lat="44.25177" lon="1.77109">
        <ele>280.2</ele>
        <time>2023-01-26T14:45:04Z</time>
      </trkpt>
      <trkpt lat="44.25176" lon="1.77102">
        <ele>280.4</ele>
        <time>2023-01-26T14:45:05Z</time>
      </trkpt>
      <trkpt lat="44.25175" lon="1.77095">
        <ele>280.7</ele>
        <time>2023-01-26T14:45:06Z</time>
      </trkpt>
      <trkpt lat="44.25173" lon="1.77086">
        <ele>281</ele>
        <time>2023-01-26T14:45:08Z</time>
      </trkpt>
      <trkpt lat="44.25173" lon="1.77081">
        <ele>281.1</ele>
        <time>2023-01-26T14:45:09Z</time>
      </trkpt>
      <trkpt lat="44.25172" lon="1.77076">
        <ele>281.3</ele>
        <time>2023-01-26T14:45:10Z</time>
      </trkpt>
      <trkpt lat="44.2517" lon="1.77067">
        <ele>281.5</ele>
        <time>2023-01-26T14:45:12Z</time>
      </trkpt>
      <trkpt lat="44.2517" lon="1.77062">
        <ele>281.7</ele>
        <time>2023-01-26T14:45:13Z</time>
      </trkpt>
      <trkpt lat="44.25169" lon="1.77055">
        <ele>281.9</ele>
        <time>2023-01-26T14:45:14Z</time>
      </trkpt>
      <trkpt lat="44.25169" lon="1.77049">
        <ele>282.2</ele>
        <time>2023-01-26T14:45:15Z</time>
      </trkpt>
      <trkpt lat="44.2517" lon="1.77043">
        <ele>282.3</ele>
        <time>2023-01-26T14:45:16Z</time>
      </trkpt>
      <trkpt lat="44.2517" lon="1.77036">
        <ele>282.6</ele>
        <time>2023-01-26T14:45:18Z</time>
      </trkpt>
      <trkpt lat="44.25169" lon="1.77031">
        <ele>282.8</ele>
        <time>2023-01-26T14:45:19Z</time>
      </trkpt>
      <trkpt lat="44.25169" lon="1.77026">
        <ele>283</ele>
        <time>2023-01-26T14:45:20Z</time>
      </trkpt>
      <trkpt lat="44.2517" lon="1.77021">
        <ele>283.2</ele>
        <time>2023-01-26T14:45:21Z</time>
      </trkpt>
      <trkpt lat="44.2517" lon="1.77014">
        <ele>283.5</ele>
        <time>2023-01-26T14:45:22Z</time>
      </trkpt>
      <trkpt lat="44.2517" lon="1.77009">
        <ele>283.7</ele>
        <time>2023-01-26T14:45:23Z</time>
      </trkpt>
      <trkpt lat="44.25169" lon="1.77003">
        <ele>284</ele>
        <time>2023-01-26T14:45:25Z</time>
      </trkpt>
      <trkpt lat="44.25169" lon="1.76997">
        <ele>284.2</ele>
        <time>2023-01-26T14:45:26Z</time>
      </trkpt>
      <trkpt lat="44.25169" lon="1.76992">
        <ele>284.4</ele>
        <time>2023-01-26T14:45:27Z</time>
      </trkpt>
      <trkpt lat="44.25169" lon="1.76987">
        <ele>284.7</ele>
        <time>2023-01-26T14:45:28Z</time>
      </trkpt>
      <trkpt lat="44.25169" lon="1.76979">
        <ele>285.1</ele>
        <time>2023-01-26T14:45:30Z</time>
      </trkpt>
      <trkpt lat="44.25169" lon="1.76974">
        <ele>285.3</ele>
        <time>2023-01-26T14:45:31Z</time>
      </trkpt>
      <trkpt lat="44.25167" lon="1.76966">
        <ele>285.7</ele>
        <time>2023-01-26T14:45:32Z</time>
      </trkpt>
      <trkpt lat="44.25166" lon="1.7696">
        <ele>286</ele>
        <time>2023-01-26T14:45:34Z</time>
      </trkpt>
      <trkpt lat="44.25165" lon="1.76954">
        <ele>286.3</ele>
        <time>2023-01-26T14:45:35Z</time>
      </trkpt>
      <trkpt lat="44.25164" lon="1.76949">
        <ele>286.6</ele>
        <time>2023-01-26T14:45:36Z</time>
      </trkpt>
      <trkpt lat="44.25163" lon="1.76944">
        <ele>286.9</ele>
        <time>2023-01-26T14:45:37Z</time>
      </trkpt>
      <trkpt lat="44.25162" lon="1.76935">
        <ele>287.3</ele>
        <time>2023-01-26T14:45:39Z</time>
      </trkpt>
      <trkpt lat="44.25161" lon="1.76929">
        <ele>287.6</ele>
        <time>2023-01-26T14:45:40Z</time>
      </trkpt>
      <trkpt lat="44.2516" lon="1.76923">
        <ele>288</ele>
        <time>2023-01-26T14:45:41Z</time>
      </trkpt>
      <trkpt lat="44.2516" lon="1.76918">
        <ele>288.2</ele>
        <time>2023-01-26T14:45:42Z</time>
      </trkpt>
      <trkpt lat="44.2516" lon="1.76912">
        <ele>288.5</ele>
        <time>2023-01-26T14:45:44Z</time>
      </trkpt>
      <trkpt lat="44.25159" lon="1.76907">
        <ele>288.8</ele>
        <time>2023-01-26T14:45:45Z</time>
      </trkpt>
      <trkpt lat="44.25159" lon="1.76902">
        <ele>289.1</ele>
        <time>2023-01-26T14:45:46Z</time>
      </trkpt>
      <trkpt lat="44.25159" lon="1.76893">
        <ele>289.6</ele>
        <time>2023-01-26T14:45:48Z</time>
      </trkpt>
      <trkpt lat="44.25159" lon="1.76887">
        <ele>289.8</ele>
        <time>2023-01-26T14:45:49Z</time>
      </trkpt>
      <trkpt lat="44.25159" lon="1.76882">
        <ele>290.1</ele>
        <time>2023-01-26T14:45:50Z</time>
      </trkpt>
      <trkpt lat="44.25158" lon="1.76873">
        <ele>290.6</ele>
        <time>2023-01-26T14:45:51Z</time>
      </trkpt>
      <trkpt lat="44.25158" lon="1.76867">
        <ele>290.9</ele>
        <time>2023-01-26T14:45:53Z</time>
      </trkpt>
      <trkpt lat="44.25158" lon="1.76861">
        <ele>291.2</ele>
        <time>2023-01-26T14:45:54Z</time>
      </trkpt>
      <trkpt lat="44.25158" lon="1.76852">
        <ele>291.7</ele>
        <time>2023-01-26T14:45:55Z</time>
      </trkpt>
      <trkpt lat="44.25158" lon="1.76846">
        <ele>292.1</ele>
        <time>2023-01-26T14:45:56Z</time>
      </trkpt>
      <trkpt lat="44.25158" lon="1.76839">
        <ele>292.5</ele>
        <time>2023-01-26T14:45:58Z</time>
      </trkpt>
      <trkpt lat="44.25157" lon="1.76833">
        <ele>292.8</ele>
        <time>2023-01-26T14:45:59Z</time>
      </trkpt>
      <trkpt lat="44.25157" lon="1.76827">
        <ele>293.1</ele>
        <time>2023-01-26T14:46:00Z</time>
      </trkpt>
      <trkpt lat="44.25157" lon="1.76821">
        <ele>293.4</ele>
        <time>2023-01-26T14:46:01Z</time>
      </trkpt>
      <trkpt lat="44.25156" lon="1.76811">
        <ele>293.9</ele>
        <time>2023-01-26T14:46:03Z</time>
      </trkpt>
      <trkpt lat="44.25155" lon="1.76807">
        <ele>294.2</ele>
        <time>2023-01-26T14:46:04Z</time>
      </trkpt>
      <trkpt lat="44.25154" lon="1.76798">
        <ele>294.7</ele>
        <time>2023-01-26T14:46:05Z</time>
      </trkpt>
      <trkpt lat="44.25152" lon="1.7679">
        <ele>295</ele>
        <time>2023-01-26T14:46:07Z</time>
      </trkpt>
      <trkpt lat="44.25152" lon="1.76783">
        <ele>295.4</ele>
        <time>2023-01-26T14:46:08Z</time>
      </trkpt>
      <trkpt lat="44.25151" lon="1.76777">
        <ele>295.7</ele>
        <time>2023-01-26T14:46:09Z</time>
      </trkpt>
      <trkpt lat="44.2515" lon="1.76767">
        <ele>296.2</ele>
        <time>2023-01-26T14:46:11Z</time>
      </trkpt>
      <trkpt lat="44.2515" lon="1.76761">
        <ele>296.5</ele>
        <time>2023-01-26T14:46:12Z</time>
      </trkpt>
      <trkpt lat="44.2515" lon="1.76751">
        <ele>297</ele>
        <time>2023-01-26T14:46:14Z</time>
      </trkpt>
      <trkpt lat="44.2515" lon="1.76745">
        <ele>297.3</ele>
        <time>2023-01-26T14:46:15Z</time>
      </trkpt>
      <trkpt lat="44.2515" lon="1.76739">
        <ele>297.6</ele>
        <time>2023-01-26T14:46:16Z</time>
      </trkpt>
      <trkpt lat="44.2515" lon="1.76735">
        <ele>297.9</ele>
        <time>2023-01-26T14:46:17Z</time>
      </trkpt>
      <trkpt lat="44.25151" lon="1.7673">
        <ele>298.1</ele>
        <time>2023-01-26T14:46:18Z</time>
      </trkpt>
      <trkpt lat="44.25151" lon="1.76724">
        <ele>298.5</ele>
        <time>2023-01-26T14:46:19Z</time>
      </trkpt>
      <trkpt lat="44.25151" lon="1.76718">
        <ele>298.8</ele>
        <time>2023-01-26T14:46:20Z</time>
      </trkpt>
      <trkpt lat="44.25152" lon="1.76713">
        <ele>299</ele>
        <time>2023-01-26T14:46:22Z</time>
      </trkpt>
      <trkpt lat="44.25153" lon="1.76703">
        <ele>299.6</ele>
        <time>2023-01-26T14:46:24Z</time>
      </trkpt>
      <trkpt lat="44.25154" lon="1.76698">
        <ele>299.9</ele>
        <time>2023-01-26T14:46:25Z</time>
      </trkpt>
      <trkpt lat="44.25156" lon="1.7669">
        <ele>300.3</ele>
        <time>2023-01-26T14:46:27Z</time>
      </trkpt>
      <trkpt lat="44.25157" lon="1.76685">
        <ele>300.6</ele>
        <time>2023-01-26T14:46:28Z</time>
      </trkpt>
      <trkpt lat="44.25159" lon="1.76681">
        <ele>300.9</ele>
        <time>2023-01-26T14:46:29Z</time>
      </trkpt>
      <trkpt lat="44.25161" lon="1.76677">
        <ele>301.1</ele>
        <time>2023-01-26T14:46:30Z</time>
      </trkpt>
      <trkpt lat="44.25164" lon="1.76672">
        <ele>301.5</ele>
        <time>2023-01-26T14:46:32Z</time>
      </trkpt>
      <trkpt lat="44.25166" lon="1.76669">
        <ele>301.7</ele>
        <time>2023-01-26T14:46:33Z</time>
      </trkpt>
      <trkpt lat="44.25168" lon="1.76665">
        <ele>302</ele>
        <time>2023-01-26T14:46:34Z</time>
      </trkpt>
      <trkpt lat="44.25172" lon="1.76659">
        <ele>302.4</ele>
        <time>2023-01-26T14:46:35Z</time>
      </trkpt>
      <trkpt lat="44.25175" lon="1.76655">
        <ele>302.8</ele>
        <time>2023-01-26T14:46:36Z</time>
      </trkpt>
      <trkpt lat="44.25178" lon="1.7665">
        <ele>303.1</ele>
        <time>2023-01-26T14:46:37Z</time>
      </trkpt>
      <trkpt lat="44.25181" lon="1.76646">
        <ele>303.5</ele>
        <time>2023-01-26T14:46:39Z</time>
      </trkpt>
      <trkpt lat="44.25185" lon="1.76642">
        <ele>303.8</ele>
        <time>2023-01-26T14:46:40Z</time>
      </trkpt>
      <trkpt lat="44.25189" lon="1.76636">
        <ele>304.3</ele>
        <time>2023-01-26T14:46:41Z</time>
      </trkpt>
      <trkpt lat="44.25192" lon="1.76632">
        <ele>304.7</ele>
        <time>2023-01-26T14:46:42Z</time>
      </trkpt>
      <trkpt lat="44.25196" lon="1.76623">
        <ele>305.1</ele>
        <time>2023-01-26T14:46:44Z</time>
      </trkpt>
      <trkpt lat="44.25197" lon="1.76618">
        <ele>305.4</ele>
        <time>2023-01-26T14:46:45Z</time>
      </trkpt>
      <trkpt lat="44.252" lon="1.76609">
        <ele>305.9</ele>
        <time>2023-01-26T14:46:47Z</time>
      </trkpt>
      <trkpt lat="44.25202" lon="1.76603">
        <ele>306.2</ele>
        <time>2023-01-26T14:46:48Z</time>
      </trkpt>
      <trkpt lat="44.25204" lon="1.76597">
        <ele>306.6</ele>
        <time>2023-01-26T14:46:49Z</time>
      </trkpt>
      <trkpt lat="44.25207" lon="1.7659">
        <ele>307</ele>
        <time>2023-01-26T14:46:50Z</time>
      </trkpt>
      <trkpt lat="44.2521" lon="1.76584">
        <ele>307.3</ele>
        <time>2023-01-26T14:46:52Z</time>
      </trkpt>
      <trkpt lat="44.25213" lon="1.76579">
        <ele>307.6</ele>
        <time>2023-01-26T14:46:53Z</time>
      </trkpt>
      <trkpt lat="44.25217" lon="1.76574">
        <ele>308</ele>
        <time>2023-01-26T14:46:54Z</time>
      </trkpt>
      <trkpt lat="44.2522" lon="1.7657">
        <ele>308.3</ele>
        <time>2023-01-26T14:46:55Z</time>
      </trkpt>
      <trkpt lat="44.25227" lon="1.76566">
        <ele>308.7</ele>
        <time>2023-01-26T14:46:57Z</time>
      </trkpt>
      <trkpt lat="44.25233" lon="1.76562">
        <ele>309.2</ele>
        <time>2023-01-26T14:46:58Z</time>
      </trkpt>
      <trkpt lat="44.25237" lon="1.76561">
        <ele>309.5</ele>
        <time>2023-01-26T14:47:00Z</time>
      </trkpt>
      <trkpt lat="44.25242" lon="1.7656">
        <ele>309.8</ele>
        <time>2023-01-26T14:47:01Z</time>
      </trkpt>
      <trkpt lat="44.25247" lon="1.76559">
        <ele>310.1</ele>
        <time>2023-01-26T14:47:02Z</time>
      </trkpt>
      <trkpt lat="44.25251" lon="1.7656">
        <ele>310.3</ele>
        <time>2023-01-26T14:47:03Z</time>
      </trkpt>
      <trkpt lat="44.25259" lon="1.7656">
        <ele>310.6</ele>
        <time>2023-01-26T14:47:05Z</time>
      </trkpt>
      <trkpt lat="44.2527" lon="1.76561">
        <ele>310.9</ele>
        <time>2023-01-26T14:47:07Z</time>
      </trkpt>
      <trkpt lat="44.25274" lon="1.76561">
        <ele>311</ele>
        <time>2023-01-26T14:47:09Z</time>
      </trkpt>
      <trkpt lat="44.25279" lon="1.76562">
        <ele>311.2</ele>
        <time>2023-01-26T14:47:10Z</time>
      </trkpt>
      <trkpt lat="44.25279" lon="1.76559">
        <ele>311.2</ele>
        <time>2023-01-26T14:47:45Z</time>
      </trkpt>
      <trkpt lat="44.25276" lon="1.76557">
        <ele>311.1</ele>
        <time>2023-01-26T14:47:46Z</time>
      </trkpt>
      <trkpt lat="44.25275" lon="1.76553">
        <ele>310.6</ele>
        <time>2023-01-26T14:47:47Z</time>
      </trkpt>
      <trkpt lat="44.25274" lon="1.76552">
        <ele>310.6</ele>
        <time>2023-01-26T14:47:48Z</time>
      </trkpt>
      <trkpt lat="44.25274" lon="1.76547">
        <ele>310.4</ele>
        <time>2023-01-26T14:47:49Z</time>
      </trkpt>
      <trkpt lat="44.25274" lon="1.76541">
        <ele>310.2</ele>
        <time>2023-01-26T14:47:50Z</time>
      </trkpt>
      <trkpt lat="44.25277" lon="1.76535">
        <ele>309.8</ele>
        <time>2023-01-26T14:47:52Z</time>
      </trkpt>
      <trkpt lat="44.25277" lon="1.76531">
        <ele>309.6</ele>
        <time>2023-01-26T14:47:53Z</time>
      </trkpt>
      <trkpt lat="44.25278" lon="1.76526">
        <ele>309.3</ele>
        <time>2023-01-26T14:47:54Z</time>
      </trkpt>
      <trkpt lat="44.25278" lon="1.76519">
        <ele>308.9</ele>
        <time>2023-01-26T14:47:56Z</time>
      </trkpt>
      <trkpt lat="44.25279" lon="1.76514">
        <ele>308.6</ele>
        <time>2023-01-26T14:47:57Z</time>
      </trkpt>
      <trkpt lat="44.2528" lon="1.76504">
        <ele>308</ele>
        <time>2023-01-26T14:47:59Z</time>
      </trkpt>
      <trkpt lat="44.25281" lon="1.76496">
        <ele>307.7</ele>
        <time>2023-01-26T14:48:00Z</time>
      </trkpt>
      <trkpt lat="44.2528" lon="1.76485">
        <ele>307.3</ele>
        <time>2023-01-26T14:48:01Z</time>
      </trkpt>
      <trkpt lat="44.25279" lon="1.76476">
        <ele>307.1</ele>
        <time>2023-01-26T14:48:02Z</time>
      </trkpt>
      <trkpt lat="44.25277" lon="1.76468">
        <ele>307</ele>
        <time>2023-01-26T14:48:03Z</time>
      </trkpt>
      <trkpt lat="44.25274" lon="1.7646">
        <ele>307</ele>
        <time>2023-01-26T14:48:04Z</time>
      </trkpt>
      <trkpt lat="44.2527" lon="1.76453">
        <ele>307.1</ele>
        <time>2023-01-26T14:48:05Z</time>
      </trkpt>
      <trkpt lat="44.25266" lon="1.76446">
        <ele>307.3</ele>
        <time>2023-01-26T14:48:06Z</time>
      </trkpt>
      <trkpt lat="44.25262" lon="1.76441">
        <ele>307.4</ele>
        <time>2023-01-26T14:48:07Z</time>
      </trkpt>
      <trkpt lat="44.25259" lon="1.76436">
        <ele>307.7</ele>
        <time>2023-01-26T14:48:08Z</time>
      </trkpt>
      <trkpt lat="44.25255" lon="1.76431">
        <ele>307.9</ele>
        <time>2023-01-26T14:48:09Z</time>
      </trkpt>
      <trkpt lat="44.25252" lon="1.76426">
        <ele>308.2</ele>
        <time>2023-01-26T14:48:10Z</time>
      </trkpt>
      <trkpt lat="44.25249" lon="1.7642">
        <ele>308.6</ele>
        <time>2023-01-26T14:48:11Z</time>
      </trkpt>
      <trkpt lat="44.25245" lon="1.76415">
        <ele>308.9</ele>
        <time>2023-01-26T14:48:12Z</time>
      </trkpt>
      <trkpt lat="44.25243" lon="1.7641">
        <ele>309.2</ele>
        <time>2023-01-26T14:48:13Z</time>
      </trkpt>
      <trkpt lat="44.2524" lon="1.76405">
        <ele>309.5</ele>
        <time>2023-01-26T14:48:14Z</time>
      </trkpt>
      <trkpt lat="44.25238" lon="1.76399">
        <ele>309.7</ele>
        <time>2023-01-26T14:48:15Z</time>
      </trkpt>
      <trkpt lat="44.25237" lon="1.76395">
        <ele>310</ele>
        <time>2023-01-26T14:48:16Z</time>
      </trkpt>
      <trkpt lat="44.25236" lon="1.7639">
        <ele>310.1</ele>
        <time>2023-01-26T14:48:17Z</time>
      </trkpt>
      <trkpt lat="44.25234" lon="1.76385">
        <ele>310.3</ele>
        <time>2023-01-26T14:48:18Z</time>
      </trkpt>
      <trkpt lat="44.25233" lon="1.7638">
        <ele>310.5</ele>
        <time>2023-01-26T14:48:19Z</time>
      </trkpt>
      <trkpt lat="44.25232" lon="1.76375">
        <ele>310.6</ele>
        <time>2023-01-26T14:48:20Z</time>
      </trkpt>
      <trkpt lat="44.2523" lon="1.76371">
        <ele>310.8</ele>
        <time>2023-01-26T14:48:21Z</time>
      </trkpt>
      <trkpt lat="44.25227" lon="1.76363">
        <ele>310.9</ele>
        <time>2023-01-26T14:48:22Z</time>
      </trkpt>
      <trkpt lat="44.25226" lon="1.7636">
        <ele>310.9</ele>
        <time>2023-01-26T14:48:23Z</time>
      </trkpt>
      <trkpt lat="44.25225" lon="1.76359">
        <ele>310.9</ele>
        <time>2023-01-26T14:48:24Z</time>
      </trkpt>
      <trkpt lat="44.25223" lon="1.76354">
        <ele>310.9</ele>
        <time>2023-01-26T14:48:25Z</time>
      </trkpt>
      <trkpt lat="44.25221" lon="1.76346">
        <ele>310.9</ele>
        <time>2023-01-26T14:48:26Z</time>
      </trkpt>
      <trkpt lat="44.2522" lon="1.76337">
        <ele>310.8</ele>
        <time>2023-01-26T14:48:28Z</time>
      </trkpt>
      <trkpt lat="44.25219" lon="1.7633">
        <ele>310.7</ele>
        <time>2023-01-26T14:48:30Z</time>
      </trkpt>
      <trkpt lat="44.25218" lon="1.76324">
        <ele>310.7</ele>
        <time>2023-01-26T14:48:31Z</time>
      </trkpt>
      <trkpt lat="44.25217" lon="1.76317">
        <ele>310.5</ele>
        <time>2023-01-26T14:48:32Z</time>
      </trkpt>
      <trkpt lat="44.25215" lon="1.76309">
        <ele>310.4</ele>
        <time>2023-01-26T14:48:33Z</time>
      </trkpt>
      <trkpt lat="44.25214" lon="1.76302">
        <ele>310.3</ele>
        <time>2023-01-26T14:48:34Z</time>
      </trkpt>
      <trkpt lat="44.25211" lon="1.76294">
        <ele>310.1</ele>
        <time>2023-01-26T14:48:35Z</time>
      </trkpt>
      <trkpt lat="44.25208" lon="1.76287">
        <ele>309.9</ele>
        <time>2023-01-26T14:48:36Z</time>
      </trkpt>
      <trkpt lat="44.25206" lon="1.76279">
        <ele>309.8</ele>
        <time>2023-01-26T14:48:37Z</time>
      </trkpt>
      <trkpt lat="44.25205" lon="1.76271">
        <ele>309.6</ele>
        <time>2023-01-26T14:48:38Z</time>
      </trkpt>
      <trkpt lat="44.25203" lon="1.76263">
        <ele>309.5</ele>
        <time>2023-01-26T14:48:39Z</time>
      </trkpt>
      <trkpt lat="44.25201" lon="1.76255">
        <ele>309.4</ele>
        <time>2023-01-26T14:48:40Z</time>
      </trkpt>
      <trkpt lat="44.252" lon="1.76247">
        <ele>309.3</ele>
        <time>2023-01-26T14:48:41Z</time>
      </trkpt>
      <trkpt lat="44.252" lon="1.76238">
        <ele>309.2</ele>
        <time>2023-01-26T14:48:42Z</time>
      </trkpt>
      <trkpt lat="44.252" lon="1.7623">
        <ele>309.2</ele>
        <time>2023-01-26T14:48:43Z</time>
      </trkpt>
      <trkpt lat="44.25199" lon="1.76221">
        <ele>309.2</ele>
        <time>2023-01-26T14:48:44Z</time>
      </trkpt>
      <trkpt lat="44.25197" lon="1.76213">
        <ele>309.3</ele>
        <time>2023-01-26T14:48:45Z</time>
      </trkpt>
      <trkpt lat="44.25195" lon="1.76205">
        <ele>309.3</ele>
        <time>2023-01-26T14:48:46Z</time>
      </trkpt>
      <trkpt lat="44.25192" lon="1.76197">
        <ele>309.4</ele>
        <time>2023-01-26T14:48:47Z</time>
      </trkpt>
      <trkpt lat="44.2519" lon="1.76189">
        <ele>309.5</ele>
        <time>2023-01-26T14:48:48Z</time>
      </trkpt>
      <trkpt lat="44.25188" lon="1.76181">
        <ele>309.6</ele>
        <time>2023-01-26T14:48:49Z</time>
      </trkpt>
      <trkpt lat="44.25186" lon="1.76174">
        <ele>309.8</ele>
        <time>2023-01-26T14:48:50Z</time>
      </trkpt>
      <trkpt lat="44.25184" lon="1.76167">
        <ele>310</ele>
        <time>2023-01-26T14:48:51Z</time>
      </trkpt>
      <trkpt lat="44.25182" lon="1.76159">
        <ele>310.2</ele>
        <time>2023-01-26T14:48:52Z</time>
      </trkpt>
      <trkpt lat="44.2518" lon="1.76151">
        <ele>310.4</ele>
        <time>2023-01-26T14:48:53Z</time>
      </trkpt>
      <trkpt lat="44.25178" lon="1.76144">
        <ele>310.5</ele>
        <time>2023-01-26T14:48:54Z</time>
      </trkpt>
      <trkpt lat="44.25177" lon="1.76137">
        <ele>310.7</ele>
        <time>2023-01-26T14:48:55Z</time>
      </trkpt>
      <trkpt lat="44.25175" lon="1.7613">
        <ele>310.9</ele>
        <time>2023-01-26T14:48:56Z</time>
      </trkpt>
      <trkpt lat="44.25174" lon="1.76123">
        <ele>311.1</ele>
        <time>2023-01-26T14:48:57Z</time>
      </trkpt>
      <trkpt lat="44.25173" lon="1.76117">
        <ele>311.3</ele>
        <time>2023-01-26T14:48:58Z</time>
      </trkpt>
      <trkpt lat="44.25172" lon="1.7611">
        <ele>311.5</ele>
        <time>2023-01-26T14:48:59Z</time>
      </trkpt>
      <trkpt lat="44.25173" lon="1.76104">
        <ele>311.7</ele>
        <time>2023-01-26T14:49:00Z</time>
      </trkpt>
      <trkpt lat="44.25175" lon="1.761">
        <ele>311.9</ele>
        <time>2023-01-26T14:49:01Z</time>
      </trkpt>
      <trkpt lat="44.25176" lon="1.76096">
        <ele>311.9</ele>
        <time>2023-01-26T14:49:02Z</time>
      </trkpt>
      <trkpt lat="44.25178" lon="1.76092">
        <ele>311.8</ele>
        <time>2023-01-26T14:49:03Z</time>
      </trkpt>
      <trkpt lat="44.25178" lon="1.76091">
        <ele>311.8</ele>
        <time>2023-01-26T14:49:04Z</time>
      </trkpt>
      <trkpt lat="44.25182" lon="1.7609">
        <ele>311.7</ele>
        <time>2023-01-26T14:49:05Z</time>
      </trkpt>
      <trkpt lat="44.25188" lon="1.7609">
        <ele>311.6</ele>
        <time>2023-01-26T14:49:06Z</time>
      </trkpt>
      <trkpt lat="44.25194" lon="1.76093">
        <ele>311.6</ele>
        <time>2023-01-26T14:49:07Z</time>
      </trkpt>
      <trkpt lat="44.25198" lon="1.76096">
        <ele>311.6</ele>
        <time>2023-01-26T14:49:08Z</time>
      </trkpt>
      <trkpt lat="44.25208" lon="1.761">
        <ele>311.6</ele>
        <time>2023-01-26T14:49:10Z</time>
      </trkpt>
      <trkpt lat="44.25215" lon="1.76103">
        <ele>311.8</ele>
        <time>2023-01-26T14:49:11Z</time>
      </trkpt>
      <trkpt lat="44.25223" lon="1.76107">
        <ele>312</ele>
        <time>2023-01-26T14:49:12Z</time>
      </trkpt>
      <trkpt lat="44.25228" lon="1.76109">
        <ele>312.1</ele>
        <time>2023-01-26T14:49:13Z</time>
      </trkpt>
      <trkpt lat="44.25232" lon="1.76112">
        <ele>312.3</ele>
        <time>2023-01-26T14:49:14Z</time>
      </trkpt>
      <trkpt lat="44.25241" lon="1.76115">
        <ele>312.6</ele>
        <time>2023-01-26T14:49:16Z</time>
      </trkpt>
      <trkpt lat="44.2525" lon="1.76118">
        <ele>313</ele>
        <time>2023-01-26T14:49:17Z</time>
      </trkpt>
      <trkpt lat="44.25256" lon="1.7612">
        <ele>313.3</ele>
        <time>2023-01-26T14:49:19Z</time>
      </trkpt>
      <trkpt lat="44.25261" lon="1.76122">
        <ele>313.5</ele>
        <time>2023-01-26T14:49:20Z</time>
      </trkpt>
      <trkpt lat="44.25267" lon="1.76123">
        <ele>313.8</ele>
        <time>2023-01-26T14:49:21Z</time>
      </trkpt>
      <trkpt lat="44.25272" lon="1.76124">
        <ele>314</ele>
        <time>2023-01-26T14:49:22Z</time>
      </trkpt>
      <trkpt lat="44.2528" lon="1.76126">
        <ele>314.2</ele>
        <time>2023-01-26T14:49:24Z</time>
      </trkpt>
      <trkpt lat="44.25284" lon="1.76127">
        <ele>314.4</ele>
        <time>2023-01-26T14:49:25Z</time>
      </trkpt>
      <trkpt lat="44.25292" lon="1.76129">
        <ele>314.7</ele>
        <time>2023-01-26T14:49:26Z</time>
      </trkpt>
      <trkpt lat="44.25297" lon="1.76131">
        <ele>314.8</ele>
        <time>2023-01-26T14:49:28Z</time>
      </trkpt>
      <trkpt lat="44.25302" lon="1.76134">
        <ele>315</ele>
        <time>2023-01-26T14:49:29Z</time>
      </trkpt>
      <trkpt lat="44.25308" lon="1.76136">
        <ele>315.2</ele>
        <time>2023-01-26T14:49:30Z</time>
      </trkpt>
      <trkpt lat="44.25312" lon="1.76138">
        <ele>315.3</ele>
        <time>2023-01-26T14:49:31Z</time>
      </trkpt>
      <trkpt lat="44.25319" lon="1.76142">
        <ele>315.5</ele>
        <time>2023-01-26T14:49:33Z</time>
      </trkpt>
      <trkpt lat="44.25324" lon="1.76143">
        <ele>315.5</ele>
        <time>2023-01-26T14:49:34Z</time>
      </trkpt>
      <trkpt lat="44.25329" lon="1.76145">
        <ele>315.6</ele>
        <time>2023-01-26T14:49:35Z</time>
      </trkpt>
      <trkpt lat="44.25334" lon="1.76147">
        <ele>315.6</ele>
        <time>2023-01-26T14:49:36Z</time>
      </trkpt>
      <trkpt lat="44.2534" lon="1.7615">
        <ele>315.6</ele>
        <time>2023-01-26T14:49:38Z</time>
      </trkpt>
      <trkpt lat="44.25344" lon="1.76151">
        <ele>315.5</ele>
        <time>2023-01-26T14:49:39Z</time>
      </trkpt>
      <trkpt lat="44.25349" lon="1.76152">
        <ele>315.4</ele>
        <time>2023-01-26T14:49:40Z</time>
      </trkpt>
      <trkpt lat="44.25354" lon="1.76154">
        <ele>315.2</ele>
        <time>2023-01-26T14:49:41Z</time>
      </trkpt>
      <trkpt lat="44.2536" lon="1.76155">
        <ele>315.1</ele>
        <time>2023-01-26T14:49:42Z</time>
      </trkpt>
      <trkpt lat="44.25366" lon="1.76157">
        <ele>314.9</ele>
        <time>2023-01-26T14:49:44Z</time>
      </trkpt>
      <trkpt lat="44.25371" lon="1.76158">
        <ele>314.8</ele>
        <time>2023-01-26T14:49:45Z</time>
      </trkpt>
      <trkpt lat="44.25376" lon="1.76159">
        <ele>314.7</ele>
        <time>2023-01-26T14:49:46Z</time>
      </trkpt>
      <trkpt lat="44.25382" lon="1.76159">
        <ele>314.6</ele>
        <time>2023-01-26T14:49:47Z</time>
      </trkpt>
      <trkpt lat="44.25386" lon="1.76161">
        <ele>314.5</ele>
        <time>2023-01-26T14:49:48Z</time>
      </trkpt>
      <trkpt lat="44.25393" lon="1.76162">
        <ele>314.3</ele>
        <time>2023-01-26T14:49:49Z</time>
      </trkpt>
      <trkpt lat="44.25398" lon="1.76164">
        <ele>314.2</ele>
        <time>2023-01-26T14:49:50Z</time>
      </trkpt>
      <trkpt lat="44.25404" lon="1.76165">
        <ele>314.1</ele>
        <time>2023-01-26T14:49:51Z</time>
      </trkpt>
      <trkpt lat="44.25411" lon="1.76167">
        <ele>313.9</ele>
        <time>2023-01-26T14:49:53Z</time>
      </trkpt>
      <trkpt lat="44.25417" lon="1.76168">
        <ele>313.8</ele>
        <time>2023-01-26T14:49:54Z</time>
      </trkpt>
      <trkpt lat="44.25422" lon="1.7617">
        <ele>313.7</ele>
        <time>2023-01-26T14:49:55Z</time>
      </trkpt>
      <trkpt lat="44.25427" lon="1.76171">
        <ele>313.7</ele>
        <time>2023-01-26T14:49:56Z</time>
      </trkpt>
      <trkpt lat="44.25433" lon="1.76173">
        <ele>313.6</ele>
        <time>2023-01-26T14:49:57Z</time>
      </trkpt>
      <trkpt lat="44.25438" lon="1.76174">
        <ele>313.6</ele>
        <time>2023-01-26T14:49:58Z</time>
      </trkpt>
      <trkpt lat="44.25443" lon="1.76175">
        <ele>313.5</ele>
        <time>2023-01-26T14:49:59Z</time>
      </trkpt>
      <trkpt lat="44.25449" lon="1.76176">
        <ele>313.5</ele>
        <time>2023-01-26T14:50:00Z</time>
      </trkpt>
      <trkpt lat="44.25454" lon="1.76178">
        <ele>313.5</ele>
        <time>2023-01-26T14:50:01Z</time>
      </trkpt>
      <trkpt lat="44.2546" lon="1.76179">
        <ele>313.5</ele>
        <time>2023-01-26T14:50:02Z</time>
      </trkpt>
      <trkpt lat="44.25465" lon="1.76181">
        <ele>313.5</ele>
        <time>2023-01-26T14:50:03Z</time>
      </trkpt>
      <trkpt lat="44.2547" lon="1.76183">
        <ele>313.5</ele>
        <time>2023-01-26T14:50:04Z</time>
      </trkpt>
      <trkpt lat="44.25475" lon="1.76184">
        <ele>313.6</ele>
        <time>2023-01-26T14:50:05Z</time>
      </trkpt>
      <trkpt lat="44.2548" lon="1.76186">
        <ele>313.6</ele>
        <time>2023-01-26T14:50:06Z</time>
      </trkpt>
      <trkpt lat="44.25485" lon="1.76188">
        <ele>313.7</ele>
        <time>2023-01-26T14:50:07Z</time>
      </trkpt>
      <trkpt lat="44.25489" lon="1.76189">
        <ele>313.8</ele>
        <time>2023-01-26T14:50:08Z</time>
      </trkpt>
      <trkpt lat="44.25495" lon="1.7619">
        <ele>314</ele>
        <time>2023-01-26T14:50:09Z</time>
      </trkpt>
      <trkpt lat="44.25499" lon="1.76191">
        <ele>314.1</ele>
        <time>2023-01-26T14:50:10Z</time>
      </trkpt>
      <trkpt lat="44.25503" lon="1.76192">
        <ele>314.2</ele>
        <time>2023-01-26T14:50:11Z</time>
      </trkpt>
      <trkpt lat="44.25506" lon="1.76193">
        <ele>314.3</ele>
        <time>2023-01-26T14:50:12Z</time>
      </trkpt>
      <trkpt lat="44.2551" lon="1.76194">
        <ele>314.4</ele>
        <time>2023-01-26T14:50:13Z</time>
      </trkpt>
      <trkpt lat="44.25514" lon="1.76195">
        <ele>314.6</ele>
        <time>2023-01-26T14:50:14Z</time>
      </trkpt>
      <trkpt lat="44.25518" lon="1.76196">
        <ele>314.8</ele>
        <time>2023-01-26T14:50:15Z</time>
      </trkpt>
      <trkpt lat="44.25522" lon="1.76197">
        <ele>315</ele>
        <time>2023-01-26T14:50:16Z</time>
      </trkpt>
      <trkpt lat="44.25525" lon="1.76198">
        <ele>315.2</ele>
        <time>2023-01-26T14:50:17Z</time>
      </trkpt>
      <trkpt lat="44.25529" lon="1.76197">
        <ele>315.4</ele>
        <time>2023-01-26T14:50:18Z</time>
      </trkpt>
      <trkpt lat="44.25535" lon="1.76198">
        <ele>315.8</ele>
        <time>2023-01-26T14:50:20Z</time>
      </trkpt>
      <trkpt lat="44.2554" lon="1.76198">
        <ele>316.1</ele>
        <time>2023-01-26T14:50:22Z</time>
      </trkpt>
      <trkpt lat="44.25542" lon="1.76198">
        <ele>316.2</ele>
        <time>2023-01-26T14:50:23Z</time>
      </trkpt>
      <trkpt lat="44.25546" lon="1.76196">
        <ele>316.5</ele>
        <time>2023-01-26T14:50:25Z</time>
      </trkpt>
      <trkpt lat="44.25549" lon="1.76194">
        <ele>316.5</ele>
        <time>2023-01-26T14:50:26Z</time>
      </trkpt>
      <trkpt lat="44.2555" lon="1.76193">
        <ele>316.4</ele>
        <time>2023-01-26T14:50:27Z</time>
      </trkpt>
      <trkpt lat="44.25552" lon="1.7619">
        <ele>316.3</ele>
        <time>2023-01-26T14:50:28Z</time>
      </trkpt>
      <trkpt lat="44.25555" lon="1.76187">
        <ele>316.2</ele>
        <time>2023-01-26T14:50:29Z</time>
      </trkpt>
      <trkpt lat="44.25559" lon="1.76183">
        <ele>316</ele>
        <time>2023-01-26T14:50:30Z</time>
      </trkpt>
      <trkpt lat="44.25563" lon="1.76178">
        <ele>315.8</ele>
        <time>2023-01-26T14:50:31Z</time>
      </trkpt>
      <trkpt lat="44.25566" lon="1.76173">
        <ele>315.6</ele>
        <time>2023-01-26T14:50:32Z</time>
      </trkpt>
      <trkpt lat="44.25569" lon="1.76167">
        <ele>315.4</ele>
        <time>2023-01-26T14:50:34Z</time>
      </trkpt>
      <trkpt lat="44.25572" lon="1.7616">
        <ele>315.3</ele>
        <time>2023-01-26T14:50:35Z</time>
      </trkpt>
      <trkpt lat="44.25574" lon="1.76154">
        <ele>315.1</ele>
        <time>2023-01-26T14:50:36Z</time>
      </trkpt>
      <trkpt lat="44.25577" lon="1.76147">
        <ele>314.9</ele>
        <time>2023-01-26T14:50:37Z</time>
      </trkpt>
      <trkpt lat="44.2558" lon="1.76142">
        <ele>314.8</ele>
        <time>2023-01-26T14:50:38Z</time>
      </trkpt>
      <trkpt lat="44.25584" lon="1.76134">
        <ele>314.7</ele>
        <time>2023-01-26T14:50:39Z</time>
      </trkpt>
      <trkpt lat="44.25587" lon="1.76129">
        <ele>314.6</ele>
        <time>2023-01-26T14:50:40Z</time>
      </trkpt>
      <trkpt lat="44.25589" lon="1.76123">
        <ele>314.6</ele>
        <time>2023-01-26T14:50:41Z</time>
      </trkpt>
      <trkpt lat="44.25591" lon="1.76117">
        <ele>314.5</ele>
        <time>2023-01-26T14:50:42Z</time>
      </trkpt>
      <trkpt lat="44.25594" lon="1.76112">
        <ele>314.5</ele>
        <time>2023-01-26T14:50:43Z</time>
      </trkpt>
      <trkpt lat="44.25597" lon="1.76106">
        <ele>314.5</ele>
        <time>2023-01-26T14:50:44Z</time>
      </trkpt>
      <trkpt lat="44.25599" lon="1.76101">
        <ele>314.5</ele>
        <time>2023-01-26T14:50:45Z</time>
      </trkpt>
      <trkpt lat="44.25601" lon="1.76096">
        <ele>314.5</ele>
        <time>2023-01-26T14:50:46Z</time>
      </trkpt>
      <trkpt lat="44.25606" lon="1.76088">
        <ele>314.6</ele>
        <time>2023-01-26T14:50:48Z</time>
      </trkpt>
      <trkpt lat="44.25608" lon="1.76082">
        <ele>314.6</ele>
        <time>2023-01-26T14:50:49Z</time>
      </trkpt>
      <trkpt lat="44.25612" lon="1.76075">
        <ele>314.7</ele>
        <time>2023-01-26T14:50:51Z</time>
      </trkpt>
      <trkpt lat="44.25612" lon="1.76071">
        <ele>314.7</ele>
        <time>2023-01-26T14:50:52Z</time>
      </trkpt>
      <trkpt lat="44.25613" lon="1.76067">
        <ele>314.7</ele>
        <time>2023-01-26T14:50:53Z</time>
      </trkpt>
      <trkpt lat="44.25614" lon="1.76062">
        <ele>314.9</ele>
        <time>2023-01-26T14:50:54Z</time>
      </trkpt>
      <trkpt lat="44.25614" lon="1.76061">
        <ele>314.9</ele>
        <time>2023-01-26T14:50:55Z</time>
      </trkpt>
      <trkpt lat="44.25614" lon="1.76056">
        <ele>315.1</ele>
        <time>2023-01-26T14:50:56Z</time>
      </trkpt>
      <trkpt lat="44.25614" lon="1.76054">
        <ele>315.2</ele>
        <time>2023-01-26T14:50:57Z</time>
      </trkpt>
      <trkpt lat="44.25613" lon="1.76049">
        <ele>315.4</ele>
        <time>2023-01-26T14:50:58Z</time>
      </trkpt>
      <trkpt lat="44.25612" lon="1.76045">
        <ele>315.6</ele>
        <time>2023-01-26T14:50:59Z</time>
      </trkpt>
      <trkpt lat="44.25611" lon="1.76038">
        <ele>315.8</ele>
        <time>2023-01-26T14:51:00Z</time>
      </trkpt>
      <trkpt lat="44.2561" lon="1.76031">
        <ele>316.1</ele>
        <time>2023-01-26T14:51:02Z</time>
      </trkpt>
      <trkpt lat="44.25609" lon="1.76026">
        <ele>316.3</ele>
        <time>2023-01-26T14:51:03Z</time>
      </trkpt>
      <trkpt lat="44.25609" lon="1.7602">
        <ele>316.5</ele>
        <time>2023-01-26T14:51:04Z</time>
      </trkpt>
      <trkpt lat="44.25608" lon="1.76013">
        <ele>316.8</ele>
        <time>2023-01-26T14:51:05Z</time>
      </trkpt>
      <trkpt lat="44.25608" lon="1.76007">
        <ele>317</ele>
        <time>2023-01-26T14:51:06Z</time>
      </trkpt>
      <trkpt lat="44.25605" lon="1.75992">
        <ele>317.6</ele>
        <time>2023-01-26T14:51:08Z</time>
      </trkpt>
      <trkpt lat="44.25605" lon="1.75985">
        <ele>317.8</ele>
        <time>2023-01-26T14:51:10Z</time>
      </trkpt>
      <trkpt lat="44.25604" lon="1.75979">
        <ele>318.1</ele>
        <time>2023-01-26T14:51:11Z</time>
      </trkpt>
      <trkpt lat="44.25602" lon="1.75967">
        <ele>318.5</ele>
        <time>2023-01-26T14:51:12Z</time>
      </trkpt>
      <trkpt lat="44.25602" lon="1.75958">
        <ele>318.9</ele>
        <time>2023-01-26T14:51:14Z</time>
      </trkpt>
      <trkpt lat="44.25602" lon="1.75951">
        <ele>319.2</ele>
        <time>2023-01-26T14:51:15Z</time>
      </trkpt>
      <trkpt lat="44.25601" lon="1.75941">
        <ele>319.5</ele>
        <time>2023-01-26T14:51:16Z</time>
      </trkpt>
      <trkpt lat="44.25601" lon="1.75935">
        <ele>319.7</ele>
        <time>2023-01-26T14:51:17Z</time>
      </trkpt>
      <trkpt lat="44.256" lon="1.75929">
        <ele>320</ele>
        <time>2023-01-26T14:51:18Z</time>
      </trkpt>
      <trkpt lat="44.256" lon="1.75921">
        <ele>320.3</ele>
        <time>2023-01-26T14:51:19Z</time>
      </trkpt>
      <trkpt lat="44.256" lon="1.75915">
        <ele>320.5</ele>
        <time>2023-01-26T14:51:21Z</time>
      </trkpt>
      <trkpt lat="44.25599" lon="1.75907">
        <ele>320.8</ele>
        <time>2023-01-26T14:51:22Z</time>
      </trkpt>
      <trkpt lat="44.25598" lon="1.759">
        <ele>321.1</ele>
        <time>2023-01-26T14:51:23Z</time>
      </trkpt>
      <trkpt lat="44.25596" lon="1.7589">
        <ele>321.5</ele>
        <time>2023-01-26T14:51:24Z</time>
      </trkpt>
      <trkpt lat="44.25595" lon="1.75883">
        <ele>321.7</ele>
        <time>2023-01-26T14:51:26Z</time>
      </trkpt>
      <trkpt lat="44.25594" lon="1.75876">
        <ele>322</ele>
        <time>2023-01-26T14:51:27Z</time>
      </trkpt>
      <trkpt lat="44.25593" lon="1.75865">
        <ele>322.4</ele>
        <time>2023-01-26T14:51:29Z</time>
      </trkpt>
      <trkpt lat="44.25592" lon="1.75859">
        <ele>322.7</ele>
        <time>2023-01-26T14:51:30Z</time>
      </trkpt>
      <trkpt lat="44.2559" lon="1.75851">
        <ele>323</ele>
        <time>2023-01-26T14:51:31Z</time>
      </trkpt>
      <trkpt lat="44.2559" lon="1.75845">
        <ele>323.2</ele>
        <time>2023-01-26T14:51:32Z</time>
      </trkpt>
      <trkpt lat="44.2559" lon="1.75836">
        <ele>323.5</ele>
        <time>2023-01-26T14:51:34Z</time>
      </trkpt>
      <trkpt lat="44.25591" lon="1.75832">
        <ele>323.9</ele>
        <time>2023-01-26T14:51:35Z</time>
      </trkpt>
      <trkpt lat="44.25592" lon="1.75827">
        <ele>323.9</ele>
        <time>2023-01-26T14:51:36Z</time>
      </trkpt>
      <trkpt lat="44.25592" lon="1.75826">
        <ele>323.9</ele>
        <time>2023-01-26T14:51:37Z</time>
      </trkpt>
      <trkpt lat="44.25593" lon="1.75822">
        <ele>323.9</ele>
        <time>2023-01-26T14:51:38Z</time>
      </trkpt>
      <trkpt lat="44.25596" lon="1.75816">
        <ele>324</ele>
        <time>2023-01-26T14:51:40Z</time>
      </trkpt>
      <trkpt lat="44.25599" lon="1.7581">
        <ele>324.1</ele>
        <time>2023-01-26T14:51:41Z</time>
      </trkpt>
      <trkpt lat="44.25601" lon="1.75805">
        <ele>324.1</ele>
        <time>2023-01-26T14:51:42Z</time>
      </trkpt>
      <trkpt lat="44.25603" lon="1.75799">
        <ele>324.1</ele>
        <time>2023-01-26T14:51:43Z</time>
      </trkpt>
      <trkpt lat="44.25605" lon="1.75789">
        <ele>324.2</ele>
        <time>2023-01-26T14:51:44Z</time>
      </trkpt>
      <trkpt lat="44.25607" lon="1.75782">
        <ele>324.3</ele>
        <time>2023-01-26T14:51:46Z</time>
      </trkpt>
      <trkpt lat="44.25609" lon="1.75777">
        <ele>324.3</ele>
        <time>2023-01-26T14:51:47Z</time>
      </trkpt>
      <trkpt lat="44.2561" lon="1.75771">
        <ele>324.4</ele>
        <time>2023-01-26T14:51:48Z</time>
      </trkpt>
      <trkpt lat="44.25612" lon="1.75765">
        <ele>324.4</ele>
        <time>2023-01-26T14:51:49Z</time>
      </trkpt>
      <trkpt lat="44.25614" lon="1.75758">
        <ele>324.5</ele>
        <time>2023-01-26T14:51:50Z</time>
      </trkpt>
      <trkpt lat="44.25617" lon="1.75747">
        <ele>324.6</ele>
        <time>2023-01-26T14:51:52Z</time>
      </trkpt>
      <trkpt lat="44.25619" lon="1.75742">
        <ele>324.6</ele>
        <time>2023-01-26T14:51:53Z</time>
      </trkpt>
      <trkpt lat="44.25621" lon="1.75735">
        <ele>324.7</ele>
        <time>2023-01-26T14:51:54Z</time>
      </trkpt>
      <trkpt lat="44.25622" lon="1.75731">
        <ele>324.7</ele>
        <time>2023-01-26T14:51:55Z</time>
      </trkpt>
      <trkpt lat="44.2562" lon="1.75719">
        <ele>324.8</ele>
        <time>2023-01-26T14:51:57Z</time>
      </trkpt>
      <trkpt lat="44.25618" lon="1.75713">
        <ele>324.9</ele>
        <time>2023-01-26T14:51:58Z</time>
      </trkpt>
      <trkpt lat="44.25616" lon="1.75708">
        <ele>325</ele>
        <time>2023-01-26T14:51:59Z</time>
      </trkpt>
      <trkpt lat="44.25614" lon="1.75704">
        <ele>325.1</ele>
        <time>2023-01-26T14:52:00Z</time>
      </trkpt>
      <trkpt lat="44.25609" lon="1.75697">
        <ele>325.3</ele>
        <time>2023-01-26T14:52:02Z</time>
      </trkpt>
      <trkpt lat="44.25605" lon="1.75691">
        <ele>325.5</ele>
        <time>2023-01-26T14:52:04Z</time>
      </trkpt>
      <trkpt lat="44.25602" lon="1.75688">
        <ele>325.6</ele>
        <time>2023-01-26T14:52:05Z</time>
      </trkpt>
      <trkpt lat="44.25598" lon="1.75682">
        <ele>325.8</ele>
        <time>2023-01-26T14:52:06Z</time>
      </trkpt>
      <trkpt lat="44.25595" lon="1.75679">
        <ele>325.9</ele>
        <time>2023-01-26T14:52:07Z</time>
      </trkpt>
      <trkpt lat="44.25593" lon="1.75676">
        <ele>326</ele>
        <time>2023-01-26T14:52:08Z</time>
      </trkpt>
      <trkpt lat="44.2559" lon="1.75671">
        <ele>326.1</ele>
        <time>2023-01-26T14:52:10Z</time>
      </trkpt>
      <trkpt lat="44.25589" lon="1.7567">
        <ele>326.1</ele>
        <time>2023-01-26T14:52:11Z</time>
      </trkpt>
      <trkpt lat="44.25585" lon="1.75665">
        <ele>326.3</ele>
        <time>2023-01-26T14:52:13Z</time>
      </trkpt>
      <trkpt lat="44.25584" lon="1.75661">
        <ele>326.4</ele>
        <time>2023-01-26T14:52:14Z</time>
      </trkpt>
      <trkpt lat="44.25581" lon="1.75656">
        <ele>326.5</ele>
        <time>2023-01-26T14:52:16Z</time>
      </trkpt>
      <trkpt lat="44.25581" lon="1.75651">
        <ele>326.6</ele>
        <time>2023-01-26T14:52:17Z</time>
      </trkpt>
      <trkpt lat="44.25582" lon="1.75646">
        <ele>326.7</ele>
        <time>2023-01-26T14:52:18Z</time>
      </trkpt>
      <trkpt lat="44.25583" lon="1.75642">
        <ele>326.8</ele>
        <time>2023-01-26T14:52:19Z</time>
      </trkpt>
      <trkpt lat="44.25584" lon="1.75637">
        <ele>326.9</ele>
        <time>2023-01-26T14:52:20Z</time>
      </trkpt>
      <trkpt lat="44.25585" lon="1.75626">
        <ele>327.1</ele>
        <time>2023-01-26T14:52:22Z</time>
      </trkpt>
      <trkpt lat="44.25585" lon="1.7562">
        <ele>327.3</ele>
        <time>2023-01-26T14:52:23Z</time>
      </trkpt>
      <trkpt lat="44.25584" lon="1.75615">
        <ele>327.4</ele>
        <time>2023-01-26T14:52:24Z</time>
      </trkpt>
      <trkpt lat="44.25582" lon="1.75607">
        <ele>327.5</ele>
        <time>2023-01-26T14:52:25Z</time>
      </trkpt>
      <trkpt lat="44.25579" lon="1.75602">
        <ele>327.7</ele>
        <time>2023-01-26T14:52:26Z</time>
      </trkpt>
      <trkpt lat="44.25578" lon="1.75597">
        <ele>327.8</ele>
        <time>2023-01-26T14:52:28Z</time>
      </trkpt>
      <trkpt lat="44.25575" lon="1.75593">
        <ele>327.9</ele>
        <time>2023-01-26T14:52:29Z</time>
      </trkpt>
      <trkpt lat="44.25572" lon="1.75589">
        <ele>328</ele>
        <time>2023-01-26T14:52:30Z</time>
      </trkpt>
      <trkpt lat="44.25568" lon="1.75585">
        <ele>328.1</ele>
        <time>2023-01-26T14:52:31Z</time>
      </trkpt>
      <trkpt lat="44.25562" lon="1.75581">
        <ele>328</ele>
        <time>2023-01-26T14:52:33Z</time>
      </trkpt>
      <trkpt lat="44.25557" lon="1.75578">
        <ele>328</ele>
        <time>2023-01-26T14:52:34Z</time>
      </trkpt>
      <trkpt lat="44.25553" lon="1.75575">
        <ele>327.9</ele>
        <time>2023-01-26T14:52:35Z</time>
      </trkpt>
      <trkpt lat="44.25548" lon="1.75573">
        <ele>327.9</ele>
        <time>2023-01-26T14:52:36Z</time>
      </trkpt>
      <trkpt lat="44.25545" lon="1.75573">
        <ele>327.8</ele>
        <time>2023-01-26T14:52:37Z</time>
      </trkpt>
      <trkpt lat="44.25541" lon="1.7557">
        <ele>327.8</ele>
        <time>2023-01-26T14:52:38Z</time>
      </trkpt>
      <trkpt lat="44.25537" lon="1.75569">
        <ele>327.8</ele>
        <time>2023-01-26T14:52:39Z</time>
      </trkpt>
      <trkpt lat="44.25532" lon="1.75568">
        <ele>327.7</ele>
        <time>2023-01-26T14:52:41Z</time>
      </trkpt>
      <trkpt lat="44.25529" lon="1.75567">
        <ele>327.7</ele>
        <time>2023-01-26T14:52:42Z</time>
      </trkpt>
      <trkpt lat="44.25526" lon="1.75565">
        <ele>327.6</ele>
        <time>2023-01-26T14:52:44Z</time>
      </trkpt>
      <trkpt lat="44.25526" lon="1.75564">
        <ele>327.6</ele>
        <time>2023-01-26T14:52:45Z</time>
      </trkpt>
      <trkpt lat="44.25527" lon="1.75564">
        <ele>327.6</ele>
        <time>2023-01-26T14:52:47Z</time>
      </trkpt>
      <trkpt lat="44.25527" lon="1.75564">
        <ele>327.6</ele>
        <time>2023-01-26T14:52:48Z</time>
      </trkpt>
      <trkpt lat="44.25528" lon="1.75564">
        <ele>327.6</ele>
        <time>2023-01-26T14:52:49Z</time>
      </trkpt>
      <trkpt lat="44.25528" lon="1.75564">
        <ele>327.6</ele>
        <time>2023-01-26T14:52:50Z</time>
      </trkpt>
      <trkpt lat="44.25529" lon="1.75563">
        <ele>327.6</ele>
        <time>2023-01-26T14:52:51Z</time>
      </trkpt>
      <trkpt lat="44.2553" lon="1.75563">
        <ele>327.6</ele>
        <time>2023-01-26T14:52:53Z</time>
      </trkpt>
      <trkpt lat="44.2553" lon="1.75563">
        <ele>327.6</ele>
        <time>2023-01-26T14:52:54Z</time>
      </trkpt>
      <trkpt lat="44.25531" lon="1.75563">
        <ele>327.6</ele>
        <time>2023-01-26T14:52:56Z</time>
      </trkpt>
      <trkpt lat="44.25531" lon="1.75563">
        <ele>327.6</ele>
        <time>2023-01-26T14:52:57Z</time>
      </trkpt>
      <trkpt lat="44.25532" lon="1.75563">
        <ele>327.6</ele>
        <time>2023-01-26T14:53:31Z</time>
      </trkpt>
      <trkpt lat="44.25533" lon="1.75563">
        <ele>327.5</ele>
        <time>2023-01-26T14:53:32Z</time>
      </trkpt>
      <trkpt lat="44.25533" lon="1.75562">
        <ele>327.5</ele>
        <time>2023-01-26T14:53:33Z</time>
      </trkpt>
      <trkpt lat="44.25535" lon="1.75565">
        <ele>327.5</ele>
        <time>2023-01-26T14:53:34Z</time>
      </trkpt>
      <trkpt lat="44.25539" lon="1.75569">
        <ele>327.5</ele>
        <time>2023-01-26T14:53:35Z</time>
      </trkpt>
      <trkpt lat="44.25543" lon="1.75571">
        <ele>327.4</ele>
        <time>2023-01-26T14:53:37Z</time>
      </trkpt>
      <trkpt lat="44.25547" lon="1.7557">
        <ele>327.4</ele>
        <time>2023-01-26T14:53:38Z</time>
      </trkpt>
      <trkpt lat="44.25551" lon="1.75567">
        <ele>327.3</ele>
        <time>2023-01-26T14:53:39Z</time>
      </trkpt>
      <trkpt lat="44.25556" lon="1.75562">
        <ele>327.3</ele>
        <time>2023-01-26T14:53:40Z</time>
      </trkpt>
      <trkpt lat="44.25561" lon="1.75559">
        <ele>327.2</ele>
        <time>2023-01-26T14:53:41Z</time>
      </trkpt>
      <trkpt lat="44.25566" lon="1.75557">
        <ele>327.1</ele>
        <time>2023-01-26T14:53:42Z</time>
      </trkpt>
      <trkpt lat="44.2557" lon="1.75555">
        <ele>327.1</ele>
        <time>2023-01-26T14:53:43Z</time>
      </trkpt>
      <trkpt lat="44.25575" lon="1.75555">
        <ele>327</ele>
        <time>2023-01-26T14:53:44Z</time>
      </trkpt>
      <trkpt lat="44.2558" lon="1.75554">
        <ele>327</ele>
        <time>2023-01-26T14:53:45Z</time>
      </trkpt>
      <trkpt lat="44.25584" lon="1.75551">
        <ele>326.9</ele>
        <time>2023-01-26T14:53:46Z</time>
      </trkpt>
      <trkpt lat="44.25587" lon="1.75548">
        <ele>326.9</ele>
        <time>2023-01-26T14:53:48Z</time>
      </trkpt>
      <trkpt lat="44.2559" lon="1.75545">
        <ele>326.9</ele>
        <time>2023-01-26T14:53:49Z</time>
      </trkpt>
      <trkpt lat="44.25595" lon="1.75539">
        <ele>326.8</ele>
        <time>2023-01-26T14:53:51Z</time>
      </trkpt>
      <trkpt lat="44.25598" lon="1.75536">
        <ele>326.7</ele>
        <time>2023-01-26T14:53:52Z</time>
      </trkpt>
      <trkpt lat="44.256" lon="1.75532">
        <ele>326.7</ele>
        <time>2023-01-26T14:53:53Z</time>
      </trkpt>
      <trkpt lat="44.25603" lon="1.75528">
        <ele>326.7</ele>
        <time>2023-01-26T14:53:54Z</time>
      </trkpt>
      <trkpt lat="44.25605" lon="1.75526">
        <ele>326.6</ele>
        <time>2023-01-26T14:53:55Z</time>
      </trkpt>
      <trkpt lat="44.25608" lon="1.75524">
        <ele>326.6</ele>
        <time>2023-01-26T14:53:57Z</time>
      </trkpt>
      <trkpt lat="44.25609" lon="1.75524">
        <ele>326.6</ele>
        <time>2023-01-26T14:53:58Z</time>
      </trkpt>
      <trkpt lat="44.25609" lon="1.75523">
        <ele>326.6</ele>
        <time>2023-01-26T14:53:59Z</time>
      </trkpt>
      <trkpt lat="44.25609" lon="1.75523">
        <ele>326.6</ele>
        <time>2023-01-26T14:54:00Z</time>
      </trkpt>
      <trkpt lat="44.2561" lon="1.75523">
        <ele>326.6</ele>
        <time>2023-01-26T14:54:01Z</time>
      </trkpt>
      <trkpt lat="44.2561" lon="1.75522">
        <ele>326.6</ele>
        <time>2023-01-26T14:54:03Z</time>
      </trkpt>
      <trkpt lat="44.25611" lon="1.75522">
        <ele>326.6</ele>
        <time>2023-01-26T14:54:04Z</time>
      </trkpt>
      <trkpt lat="44.25611" lon="1.75521">
        <ele>326.6</ele>
        <time>2023-01-26T14:54:05Z</time>
      </trkpt>
      <trkpt lat="44.25612" lon="1.75521">
        <ele>326.6</ele>
        <time>2023-01-26T14:54:07Z</time>
      </trkpt>
      <trkpt lat="44.25612" lon="1.75521">
        <ele>326.6</ele>
        <time>2023-01-26T14:54:08Z</time>
      </trkpt>
      <trkpt lat="44.25612" lon="1.7552">
        <ele>326.5</ele>
        <time>2023-01-26T14:54:09Z</time>
      </trkpt>
      <trkpt lat="44.25613" lon="1.7552">
        <ele>326.5</ele>
        <time>2023-01-26T14:54:10Z</time>
      </trkpt>
      <trkpt lat="44.25613" lon="1.7552">
        <ele>326.5</ele>
        <time>2023-01-26T14:54:12Z</time>
      </trkpt>
      <trkpt lat="44.25614" lon="1.75519">
        <ele>326.5</ele>
        <time>2023-01-26T14:54:13Z</time>
      </trkpt>
      <trkpt lat="44.25614" lon="1.75519">
        <ele>326.5</ele>
        <time>2023-01-26T14:54:14Z</time>
      </trkpt>
      <trkpt lat="44.25615" lon="1.75518">
        <ele>326.5</ele>
        <time>2023-01-26T14:54:15Z</time>
      </trkpt>
      <trkpt lat="44.25618" lon="1.75514">
        <ele>326.5</ele>
        <time>2023-01-26T14:54:16Z</time>
      </trkpt>
      <trkpt lat="44.25621" lon="1.7551">
        <ele>326.4</ele>
        <time>2023-01-26T14:54:17Z</time>
      </trkpt>
      <trkpt lat="44.25623" lon="1.75506">
        <ele>326.4</ele>
        <time>2023-01-26T14:54:18Z</time>
      </trkpt>
      <trkpt lat="44.25627" lon="1.75501">
        <ele>326.3</ele>
        <time>2023-01-26T14:54:20Z</time>
      </trkpt>
      <trkpt lat="44.25639" lon="1.75491">
        <ele>326.2</ele>
        <time>2023-01-26T14:54:22Z</time>
      </trkpt>
      <trkpt lat="44.25644" lon="1.75486">
        <ele>326.1</ele>
        <time>2023-01-26T14:54:24Z</time>
      </trkpt>
      <trkpt lat="44.25649" lon="1.75482">
        <ele>326</ele>
        <time>2023-01-26T14:54:25Z</time>
      </trkpt>
      <trkpt lat="44.25655" lon="1.75476">
        <ele>326</ele>
        <time>2023-01-26T14:54:26Z</time>
      </trkpt>
      <trkpt lat="44.25659" lon="1.75471">
        <ele>325.9</ele>
        <time>2023-01-26T14:54:27Z</time>
      </trkpt>
      <trkpt lat="44.25663" lon="1.75467">
        <ele>325.9</ele>
        <time>2023-01-26T14:54:28Z</time>
      </trkpt>
      <trkpt lat="44.25669" lon="1.75461">
        <ele>325.8</ele>
        <time>2023-01-26T14:54:30Z</time>
      </trkpt>
      <trkpt lat="44.25673" lon="1.75457">
        <ele>325.7</ele>
        <time>2023-01-26T14:54:31Z</time>
      </trkpt>
      <trkpt lat="44.25677" lon="1.75453">
        <ele>325.7</ele>
        <time>2023-01-26T14:54:32Z</time>
      </trkpt>
      <trkpt lat="44.25682" lon="1.75451">
        <ele>325.6</ele>
        <time>2023-01-26T14:54:33Z</time>
      </trkpt>
      <trkpt lat="44.25688" lon="1.75447">
        <ele>325.5</ele>
        <time>2023-01-26T14:54:35Z</time>
      </trkpt>
      <trkpt lat="44.25692" lon="1.75444">
        <ele>325.5</ele>
        <time>2023-01-26T14:54:36Z</time>
      </trkpt>
      <trkpt lat="44.25696" lon="1.75441">
        <ele>325.4</ele>
        <time>2023-01-26T14:54:37Z</time>
      </trkpt>
      <trkpt lat="44.25702" lon="1.75439">
        <ele>325.4</ele>
        <time>2023-01-26T14:54:38Z</time>
      </trkpt>
      <trkpt lat="44.25707" lon="1.75438">
        <ele>325.3</ele>
        <time>2023-01-26T14:54:39Z</time>
      </trkpt>
      <trkpt lat="44.25715" lon="1.75437">
        <ele>325.2</ele>
        <time>2023-01-26T14:54:41Z</time>
      </trkpt>
      <trkpt lat="44.25721" lon="1.75437">
        <ele>325.2</ele>
        <time>2023-01-26T14:54:42Z</time>
      </trkpt>
      <trkpt lat="44.25727" lon="1.75435">
        <ele>325.1</ele>
        <time>2023-01-26T14:54:43Z</time>
      </trkpt>
      <trkpt lat="44.25734" lon="1.75433">
        <ele>325</ele>
        <time>2023-01-26T14:54:44Z</time>
      </trkpt>
      <trkpt lat="44.2574" lon="1.7543">
        <ele>325</ele>
        <time>2023-01-26T14:54:45Z</time>
      </trkpt>
      <trkpt lat="44.25746" lon="1.75427">
        <ele>324.9</ele>
        <time>2023-01-26T14:54:46Z</time>
      </trkpt>
      <trkpt lat="44.25752" lon="1.75424">
        <ele>324.8</ele>
        <time>2023-01-26T14:54:47Z</time>
      </trkpt>
      <trkpt lat="44.25757" lon="1.75421">
        <ele>324.8</ele>
        <time>2023-01-26T14:54:48Z</time>
      </trkpt>
      <trkpt lat="44.25763" lon="1.75418">
        <ele>324.7</ele>
        <time>2023-01-26T14:54:49Z</time>
      </trkpt>
      <trkpt lat="44.25769" lon="1.75415">
        <ele>324.6</ele>
        <time>2023-01-26T14:54:50Z</time>
      </trkpt>
      <trkpt lat="44.25774" lon="1.75412">
        <ele>324.6</ele>
        <time>2023-01-26T14:54:51Z</time>
      </trkpt>
      <trkpt lat="44.2578" lon="1.75409">
        <ele>324.5</ele>
        <time>2023-01-26T14:54:52Z</time>
      </trkpt>
      <trkpt lat="44.25786" lon="1.75405">
        <ele>324.4</ele>
        <time>2023-01-26T14:54:53Z</time>
      </trkpt>
      <trkpt lat="44.25791" lon="1.75401">
        <ele>324.4</ele>
        <time>2023-01-26T14:54:54Z</time>
      </trkpt>
      <trkpt lat="44.25797" lon="1.75398">
        <ele>324.3</ele>
        <time>2023-01-26T14:54:55Z</time>
      </trkpt>
      <trkpt lat="44.25803" lon="1.75395">
        <ele>324.2</ele>
        <time>2023-01-26T14:54:56Z</time>
      </trkpt>
      <trkpt lat="44.25809" lon="1.75391">
        <ele>324.2</ele>
        <time>2023-01-26T14:54:57Z</time>
      </trkpt>
      <trkpt lat="44.25814" lon="1.75388">
        <ele>324.1</ele>
        <time>2023-01-26T14:54:58Z</time>
      </trkpt>
      <trkpt lat="44.25819" lon="1.75385">
        <ele>324</ele>
        <time>2023-01-26T14:54:59Z</time>
      </trkpt>
      <trkpt lat="44.25825" lon="1.75382">
        <ele>324</ele>
        <time>2023-01-26T14:55:00Z</time>
      </trkpt>
      <trkpt lat="44.2583" lon="1.75379">
        <ele>323.9</ele>
        <time>2023-01-26T14:55:01Z</time>
      </trkpt>
      <trkpt lat="44.25835" lon="1.75376">
        <ele>323.9</ele>
        <time>2023-01-26T14:55:02Z</time>
      </trkpt>
      <trkpt lat="44.2584" lon="1.75372">
        <ele>323.8</ele>
        <time>2023-01-26T14:55:03Z</time>
      </trkpt>
      <trkpt lat="44.25844" lon="1.75369">
        <ele>323.7</ele>
        <time>2023-01-26T14:55:04Z</time>
      </trkpt>
      <trkpt lat="44.25849" lon="1.75365">
        <ele>323.7</ele>
        <time>2023-01-26T14:55:05Z</time>
      </trkpt>
      <trkpt lat="44.25853" lon="1.75362">
        <ele>323.6</ele>
        <time>2023-01-26T14:55:06Z</time>
      </trkpt>
      <trkpt lat="44.25858" lon="1.75358">
        <ele>323.6</ele>
        <time>2023-01-26T14:55:07Z</time>
      </trkpt>
      <trkpt lat="44.25862" lon="1.75354">
        <ele>323.5</ele>
        <time>2023-01-26T14:55:08Z</time>
      </trkpt>
      <trkpt lat="44.25866" lon="1.75351">
        <ele>323.5</ele>
        <time>2023-01-26T14:55:09Z</time>
      </trkpt>
      <trkpt lat="44.2587" lon="1.75348">
        <ele>323.4</ele>
        <time>2023-01-26T14:55:10Z</time>
      </trkpt>
      <trkpt lat="44.25874" lon="1.75345">
        <ele>323.4</ele>
        <time>2023-01-26T14:55:11Z</time>
      </trkpt>
      <trkpt lat="44.25878" lon="1.75342">
        <ele>323.3</ele>
        <time>2023-01-26T14:55:12Z</time>
      </trkpt>
      <trkpt lat="44.25881" lon="1.7534">
        <ele>323.3</ele>
        <time>2023-01-26T14:55:13Z</time>
      </trkpt>
      <trkpt lat="44.25883" lon="1.75339">
        <ele>323.3</ele>
        <time>2023-01-26T14:55:14Z</time>
      </trkpt>
      <trkpt lat="44.25887" lon="1.75336">
        <ele>323.2</ele>
        <time>2023-01-26T14:55:15Z</time>
      </trkpt>
      <trkpt lat="44.25888" lon="1.75335">
        <ele>323.2</ele>
        <time>2023-01-26T14:55:16Z</time>
      </trkpt>
      <trkpt lat="44.25891" lon="1.75333">
        <ele>323.1</ele>
        <time>2023-01-26T14:55:17Z</time>
      </trkpt>
      <trkpt lat="44.25893" lon="1.75331">
        <ele>323.1</ele>
        <time>2023-01-26T14:55:18Z</time>
      </trkpt>
      <trkpt lat="44.25896" lon="1.75327">
        <ele>323.1</ele>
        <time>2023-01-26T14:55:20Z</time>
      </trkpt>
      <trkpt lat="44.25898" lon="1.75325">
        <ele>323.2</ele>
        <time>2023-01-26T14:55:21Z</time>
      </trkpt>
      <trkpt lat="44.25899" lon="1.75324">
        <ele>323.2</ele>
        <time>2023-01-26T14:55:22Z</time>
      </trkpt>
      <trkpt lat="44.25901" lon="1.75323">
        <ele>323.2</ele>
        <time>2023-01-26T14:55:24Z</time>
      </trkpt>
      <trkpt lat="44.25903" lon="1.75324">
        <ele>323.2</ele>
        <time>2023-01-26T14:55:26Z</time>
      </trkpt>
      <trkpt lat="44.25904" lon="1.75324">
        <ele>323.2</ele>
        <time>2023-01-26T14:55:27Z</time>
      </trkpt>
      <trkpt lat="44.25905" lon="1.75323">
        <ele>323.2</ele>
        <time>2023-01-26T14:55:28Z</time>
      </trkpt>
      <trkpt lat="44.25906" lon="1.75323">
        <ele>323.2</ele>
        <time>2023-01-26T14:55:30Z</time>
      </trkpt>
      <trkpt lat="44.25907" lon="1.75323">
        <ele>323.3</ele>
        <time>2023-01-26T14:55:31Z</time>
      </trkpt>
      <trkpt lat="44.25908" lon="1.75323">
        <ele>323.3</ele>
        <time>2023-01-26T14:55:32Z</time>
      </trkpt>
      <trkpt lat="44.25909" lon="1.75323">
        <ele>323.3</ele>
        <time>2023-01-26T14:55:34Z</time>
      </trkpt>
      <trkpt lat="44.2591" lon="1.75323">
        <ele>323.6</ele>
        <time>2023-01-26T14:55:56Z</time>
      </trkpt>
      <trkpt lat="44.25911" lon="1.75323">
        <ele>323.6</ele>
        <time>2023-01-26T14:55:57Z</time>
      </trkpt>
      <trkpt lat="44.25912" lon="1.75323">
        <ele>323.6</ele>
        <time>2023-01-26T14:55:58Z</time>
      </trkpt>
      <trkpt lat="44.25915" lon="1.75322">
        <ele>323.6</ele>
        <time>2023-01-26T14:56:00Z</time>
      </trkpt>
      <trkpt lat="44.25918" lon="1.75321">
        <ele>323.6</ele>
        <time>2023-01-26T14:56:01Z</time>
      </trkpt>
      <trkpt lat="44.25918" lon="1.75321">
        <ele>323.6</ele>
        <time>2023-01-26T14:56:02Z</time>
      </trkpt>
      <trkpt lat="44.25918" lon="1.75321">
        <ele>323.6</ele>
        <time>2023-01-26T14:56:03Z</time>
      </trkpt>
      <trkpt lat="44.25918" lon="1.75321">
        <ele>323.6</ele>
        <time>2023-01-26T14:56:04Z</time>
      </trkpt>
      <trkpt lat="44.25918" lon="1.75321">
        <ele>323.7</ele>
        <time>2023-01-26T14:56:06Z</time>
      </trkpt>
      <trkpt lat="44.25919" lon="1.75321">
        <ele>323.7</ele>
        <time>2023-01-26T14:56:07Z</time>
      </trkpt>
      <trkpt lat="44.25919" lon="1.75321">
        <ele>323.7</ele>
        <time>2023-01-26T14:56:08Z</time>
      </trkpt>
      <trkpt lat="44.2592" lon="1.75321">
        <ele>323.7</ele>
        <time>2023-01-26T14:56:09Z</time>
      </trkpt>
      <trkpt lat="44.2592" lon="1.75321">
        <ele>323.7</ele>
        <time>2023-01-26T14:56:11Z</time>
      </trkpt>
      <trkpt lat="44.25921" lon="1.75321">
        <ele>323.7</ele>
        <time>2023-01-26T14:56:13Z</time>
      </trkpt>
      <trkpt lat="44.25922" lon="1.75321">
        <ele>324.2</ele>
        <time>2023-01-26T14:56:14Z</time>
      </trkpt>
      <trkpt lat="44.25923" lon="1.7532">
        <ele>324.2</ele>
        <time>2023-01-26T14:56:15Z</time>
      </trkpt>
      <trkpt lat="44.25925" lon="1.7532">
        <ele>324.3</ele>
        <time>2023-01-26T14:56:16Z</time>
      </trkpt>
      <trkpt lat="44.25926" lon="1.75321">
        <ele>324.3</ele>
        <time>2023-01-26T14:56:17Z</time>
      </trkpt>
      <trkpt lat="44.25928" lon="1.7532">
        <ele>324.3</ele>
        <time>2023-01-26T14:56:18Z</time>
      </trkpt>
      <trkpt lat="44.25931" lon="1.75318">
        <ele>324.1</ele>
        <time>2023-01-26T14:56:19Z</time>
      </trkpt>
      <trkpt lat="44.25932" lon="1.75317">
        <ele>324.1</ele>
        <time>2023-01-26T14:56:20Z</time>
      </trkpt>
      <trkpt lat="44.25934" lon="1.75317">
        <ele>324.1</ele>
        <time>2023-01-26T14:56:22Z</time>
      </trkpt>
      <trkpt lat="44.25934" lon="1.75317">
        <ele>324.7</ele>
        <time>2023-01-26T14:56:23Z</time>
      </trkpt>
      <trkpt lat="44.25936" lon="1.75316">
        <ele>324.7</ele>
        <time>2023-01-26T14:56:24Z</time>
      </trkpt>
      <trkpt lat="44.25937" lon="1.75316">
        <ele>324.7</ele>
        <time>2023-01-26T14:56:25Z</time>
      </trkpt>
      <trkpt lat="44.25937" lon="1.75315">
        <ele>324.7</ele>
        <time>2023-01-26T14:56:27Z</time>
      </trkpt>
      <trkpt lat="44.25938" lon="1.75315">
        <ele>324.7</ele>
        <time>2023-01-26T14:56:28Z</time>
      </trkpt>
      <trkpt lat="44.25939" lon="1.75315">
        <ele>324.8</ele>
        <time>2023-01-26T14:56:29Z</time>
      </trkpt>
      <trkpt lat="44.2594" lon="1.75316">
        <ele>324.8</ele>
        <time>2023-01-26T14:56:31Z</time>
      </trkpt>
      <trkpt lat="44.2594" lon="1.75316">
        <ele>324.8</ele>
        <time>2023-01-26T14:56:32Z</time>
      </trkpt>
      <trkpt lat="44.25941" lon="1.75316">
        <ele>324.8</ele>
        <time>2023-01-26T14:56:33Z</time>
      </trkpt>
      <trkpt lat="44.25942" lon="1.75316">
        <ele>324.8</ele>
        <time>2023-01-26T14:56:35Z</time>
      </trkpt>
      <trkpt lat="44.25942" lon="1.75317">
        <ele>324.8</ele>
        <time>2023-01-26T14:56:36Z</time>
      </trkpt>
      <trkpt lat="44.25943" lon="1.75317">
        <ele>324.8</ele>
        <time>2023-01-26T14:56:37Z</time>
      </trkpt>
      <trkpt lat="44.25943" lon="1.75317">
        <ele>324.8</ele>
        <time>2023-01-26T14:56:38Z</time>
      </trkpt>
      <trkpt lat="44.25944" lon="1.75318">
        <ele>324.9</ele>
        <time>2023-01-26T14:56:39Z</time>
      </trkpt>
      <trkpt lat="44.25944" lon="1.75318">
        <ele>325.1</ele>
        <time>2023-01-26T14:56:40Z</time>
      </trkpt>
      <trkpt lat="44.25945" lon="1.75318">
        <ele>325.1</ele>
        <time>2023-01-26T14:56:41Z</time>
      </trkpt>
      <trkpt lat="44.25945" lon="1.75318">
        <ele>325.1</ele>
        <time>2023-01-26T14:56:43Z</time>
      </trkpt>
      <trkpt lat="44.25945" lon="1.75318">
        <ele>325.1</ele>
        <time>2023-01-26T14:56:44Z</time>
      </trkpt>
      <trkpt lat="44.25946" lon="1.75318">
        <ele>324.9</ele>
        <time>2023-01-26T14:56:45Z</time>
      </trkpt>
      <trkpt lat="44.25947" lon="1.75317">
        <ele>325.5</ele>
        <time>2023-01-26T14:56:47Z</time>
      </trkpt>
      <trkpt lat="44.25947" lon="1.75318">
        <ele>325.5</ele>
        <time>2023-01-26T14:56:48Z</time>
      </trkpt>
      <trkpt lat="44.25947" lon="1.75318">
        <ele>325.7</ele>
        <time>2023-01-26T14:56:49Z</time>
      </trkpt>
      <trkpt lat="44.25948" lon="1.75318">
        <ele>325.8</ele>
        <time>2023-01-26T14:56:50Z</time>
      </trkpt>
      <trkpt lat="44.25949" lon="1.75318">
        <ele>325.8</ele>
        <time>2023-01-26T14:56:51Z</time>
      </trkpt>
      <trkpt lat="44.25951" lon="1.75318">
        <ele>325.8</ele>
        <time>2023-01-26T14:56:53Z</time>
      </trkpt>
      <trkpt lat="44.25952" lon="1.75318">
        <ele>325.8</ele>
        <time>2023-01-26T14:56:54Z</time>
      </trkpt>
      <trkpt lat="44.25954" lon="1.75318">
        <ele>325.8</ele>
        <time>2023-01-26T14:56:56Z</time>
      </trkpt>
      <trkpt lat="44.25955" lon="1.75318">
        <ele>325.8</ele>
        <time>2023-01-26T14:56:57Z</time>
      </trkpt>
      <trkpt lat="44.25956" lon="1.75318">
        <ele>325.8</ele>
        <time>2023-01-26T14:56:58Z</time>
      </trkpt>
      <trkpt lat="44.25958" lon="1.75318">
        <ele>325.9</ele>
        <time>2023-01-26T14:57:00Z</time>
      </trkpt>
      <trkpt lat="44.25961" lon="1.75319">
        <ele>326.4</ele>
        <time>2023-01-26T14:57:01Z</time>
      </trkpt>
      <trkpt lat="44.25962" lon="1.75318">
        <ele>326.4</ele>
        <time>2023-01-26T14:57:02Z</time>
      </trkpt>
      <trkpt lat="44.25964" lon="1.75318">
        <ele>326.1</ele>
        <time>2023-01-26T14:57:04Z</time>
      </trkpt>
      <trkpt lat="44.25965" lon="1.75318">
        <ele>326.1</ele>
        <time>2023-01-26T14:57:05Z</time>
      </trkpt>
      <trkpt lat="44.25967" lon="1.75316">
        <ele>326.2</ele>
        <time>2023-01-26T14:57:06Z</time>
      </trkpt>
      <trkpt lat="44.25968" lon="1.75316">
        <ele>326.2</ele>
        <time>2023-01-26T14:57:07Z</time>
      </trkpt>
      <trkpt lat="44.25968" lon="1.75316">
        <ele>326.2</ele>
        <time>2023-01-26T14:57:08Z</time>
      </trkpt>
      <trkpt lat="44.25971" lon="1.75316">
        <ele>326.7</ele>
        <time>2023-01-26T14:57:10Z</time>
      </trkpt>
      <trkpt lat="44.25973" lon="1.75315">
        <ele>326.7</ele>
        <time>2023-01-26T14:57:11Z</time>
      </trkpt>
      <trkpt lat="44.25976" lon="1.75315">
        <ele>326.7</ele>
        <time>2023-01-26T14:57:13Z</time>
      </trkpt>
      <trkpt lat="44.25977" lon="1.75315">
        <ele>326.7</ele>
        <time>2023-01-26T14:57:14Z</time>
      </trkpt>
      <trkpt lat="44.25979" lon="1.75314">
        <ele>326.7</ele>
        <time>2023-01-26T14:57:15Z</time>
      </trkpt>
      <trkpt lat="44.2598" lon="1.75314">
        <ele>326.7</ele>
        <time>2023-01-26T14:57:16Z</time>
      </trkpt>
      <trkpt lat="44.25981" lon="1.75314">
        <ele>326.8</ele>
        <time>2023-01-26T14:57:18Z</time>
      </trkpt>
      <trkpt lat="44.25983" lon="1.75313">
        <ele>326.8</ele>
        <time>2023-01-26T14:57:19Z</time>
      </trkpt>
      <trkpt lat="44.25985" lon="1.75312">
        <ele>327</ele>
        <time>2023-01-26T14:57:20Z</time>
      </trkpt>
      <trkpt lat="44.25986" lon="1.75311">
        <ele>327.1</ele>
        <time>2023-01-26T14:57:21Z</time>
      </trkpt>
      <trkpt lat="44.25988" lon="1.75311">
        <ele>327.1</ele>
        <time>2023-01-26T14:57:22Z</time>
      </trkpt>
      <trkpt lat="44.2599" lon="1.75311">
        <ele>327.1</ele>
        <time>2023-01-26T14:57:23Z</time>
      </trkpt>
      <trkpt lat="44.25991" lon="1.75311">
        <ele>327.1</ele>
        <time>2023-01-26T14:57:24Z</time>
      </trkpt>
      <trkpt lat="44.25993" lon="1.75312">
        <ele>327.1</ele>
        <time>2023-01-26T14:57:25Z</time>
      </trkpt>
      <trkpt lat="44.25994" lon="1.75312">
        <ele>327.1</ele>
        <time>2023-01-26T14:57:26Z</time>
      </trkpt>
      <trkpt lat="44.25996" lon="1.75312">
        <ele>327.4</ele>
        <time>2023-01-26T14:57:27Z</time>
      </trkpt>
      <trkpt lat="44.25997" lon="1.7531">
        <ele>327.4</ele>
        <time>2023-01-26T14:57:29Z</time>
      </trkpt>
      <trkpt lat="44.25998" lon="1.7531">
        <ele>327.5</ele>
        <time>2023-01-26T14:57:31Z</time>
      </trkpt>
      <trkpt lat="44.25998" lon="1.7531">
        <ele>327.5</ele>
        <time>2023-01-26T14:57:33Z</time>
      </trkpt>
      <trkpt lat="44.25998" lon="1.7531">
        <ele>327.5</ele>
        <time>2023-01-26T14:57:34Z</time>
      </trkpt>
      <trkpt lat="44.25998" lon="1.7531">
        <ele>327.5</ele>
        <time>2023-01-26T14:57:35Z</time>
      </trkpt>
      <trkpt lat="44.25998" lon="1.75309">
        <ele>327.5</ele>
        <time>2023-01-26T14:57:37Z</time>
      </trkpt>
      <trkpt lat="44.25998" lon="1.7531">
        <ele>327.5</ele>
        <time>2023-01-26T14:57:38Z</time>
      </trkpt>
      <trkpt lat="44.25999" lon="1.7531">
        <ele>327.5</ele>
        <time>2023-01-26T14:57:39Z</time>
      </trkpt>
      <trkpt lat="44.25999" lon="1.7531">
        <ele>327.6</ele>
        <time>2023-01-26T14:57:40Z</time>
      </trkpt>
      <trkpt lat="44.26" lon="1.7531">
        <ele>327.6</ele>
        <time>2023-01-26T14:57:42Z</time>
      </trkpt>
      <trkpt lat="44.26" lon="1.7531">
        <ele>327.6</ele>
        <time>2023-01-26T14:57:43Z</time>
      </trkpt>
      <trkpt lat="44.26" lon="1.7531">
        <ele>327.6</ele>
        <time>2023-01-26T14:57:44Z</time>
      </trkpt>
      <trkpt lat="44.26" lon="1.7531">
        <ele>327.6</ele>
        <time>2023-01-26T14:57:45Z</time>
      </trkpt>
      <trkpt lat="44.26" lon="1.75309">
        <ele>327.6</ele>
        <time>2023-01-26T14:57:47Z</time>
      </trkpt>
      <trkpt lat="44.26001" lon="1.75309">
        <ele>327.6</ele>
        <time>2023-01-26T14:57:49Z</time>
      </trkpt>
      <trkpt lat="44.26001" lon="1.75309">
        <ele>327.6</ele>
        <time>2023-01-26T14:57:50Z</time>
      </trkpt>
      <trkpt lat="44.26002" lon="1.75309">
        <ele>327.7</ele>
        <time>2023-01-26T14:57:51Z</time>
      </trkpt>
      <trkpt lat="44.26002" lon="1.7531">
        <ele>327.7</ele>
        <time>2023-01-26T14:57:52Z</time>
      </trkpt>
      <trkpt lat="44.26014" lon="1.75312">
        <ele>328.1</ele>
        <time>2023-01-26T14:58:41Z</time>
      </trkpt>
      <trkpt lat="44.26016" lon="1.75312">
        <ele>328.2</ele>
        <time>2023-01-26T14:58:43Z</time>
      </trkpt>
      <trkpt lat="44.26017" lon="1.75311">
        <ele>328.3</ele>
        <time>2023-01-26T14:58:44Z</time>
      </trkpt>
      <trkpt lat="44.26017" lon="1.7531">
        <ele>328.3</ele>
        <time>2023-01-26T14:58:45Z</time>
      </trkpt>
      <trkpt lat="44.26018" lon="1.75309">
        <ele>328.4</ele>
        <time>2023-01-26T14:58:46Z</time>
      </trkpt>
      <trkpt lat="44.26018" lon="1.75308">
        <ele>328.4</ele>
        <time>2023-01-26T14:58:48Z</time>
      </trkpt>
      <trkpt lat="44.26018" lon="1.75308">
        <ele>328.4</ele>
        <time>2023-01-26T14:58:49Z</time>
      </trkpt>
      <trkpt lat="44.26019" lon="1.75308">
        <ele>328.4</ele>
        <time>2023-01-26T14:58:51Z</time>
      </trkpt>
      <trkpt lat="44.26019" lon="1.75308">
        <ele>328.5</ele>
        <time>2023-01-26T14:58:52Z</time>
      </trkpt>
      <trkpt lat="44.2602" lon="1.75308">
        <ele>328.5</ele>
        <time>2023-01-26T14:58:53Z</time>
      </trkpt>
      <trkpt lat="44.2602" lon="1.75308">
        <ele>328.5</ele>
        <time>2023-01-26T14:58:55Z</time>
      </trkpt>
      <trkpt lat="44.26021" lon="1.75308">
        <ele>328.6</ele>
        <time>2023-01-26T14:58:56Z</time>
      </trkpt>
      <trkpt lat="44.26022" lon="1.75308">
        <ele>328.6</ele>
        <time>2023-01-26T14:58:58Z</time>
      </trkpt>
      <trkpt lat="44.26022" lon="1.75308">
        <ele>328.6</ele>
        <time>2023-01-26T14:58:59Z</time>
      </trkpt>
      <trkpt lat="44.26023" lon="1.75308">
        <ele>328.7</ele>
        <time>2023-01-26T14:59:00Z</time>
      </trkpt>
      <trkpt lat="44.26023" lon="1.75308">
        <ele>328.7</ele>
        <time>2023-01-26T14:59:01Z</time>
      </trkpt>
      <trkpt lat="44.26024" lon="1.75308">
        <ele>328.7</ele>
        <time>2023-01-26T14:59:03Z</time>
      </trkpt>
      <trkpt lat="44.26024" lon="1.75308">
        <ele>328.8</ele>
        <time>2023-01-26T14:59:04Z</time>
      </trkpt>
      <trkpt lat="44.26025" lon="1.75309">
        <ele>328.8</ele>
        <time>2023-01-26T14:59:05Z</time>
      </trkpt>
      <trkpt lat="44.26025" lon="1.75309">
        <ele>328.8</ele>
        <time>2023-01-26T14:59:06Z</time>
      </trkpt>
      <trkpt lat="44.26028" lon="1.75307">
        <ele>329</ele>
        <time>2023-01-26T14:59:08Z</time>
      </trkpt>
      <trkpt lat="44.26029" lon="1.75306">
        <ele>329</ele>
        <time>2023-01-26T14:59:09Z</time>
      </trkpt>
      <trkpt lat="44.2603" lon="1.75305">
        <ele>329.1</ele>
        <time>2023-01-26T14:59:10Z</time>
      </trkpt>
      <trkpt lat="44.26031" lon="1.75305">
        <ele>329.2</ele>
        <time>2023-01-26T14:59:11Z</time>
      </trkpt>
      <trkpt lat="44.26034" lon="1.75305">
        <ele>329.3</ele>
        <time>2023-01-26T14:59:12Z</time>
      </trkpt>
      <trkpt lat="44.26035" lon="1.75305">
        <ele>329.4</ele>
        <time>2023-01-26T14:59:14Z</time>
      </trkpt>
      <trkpt lat="44.26038" lon="1.75302">
        <ele>329.6</ele>
        <time>2023-01-26T14:59:15Z</time>
      </trkpt>
      <trkpt lat="44.26041" lon="1.753">
        <ele>329.8</ele>
        <time>2023-01-26T14:59:16Z</time>
      </trkpt>
      <trkpt lat="44.26043" lon="1.753">
        <ele>329.9</ele>
        <time>2023-01-26T14:59:18Z</time>
      </trkpt>
      <trkpt lat="44.26044" lon="1.753">
        <ele>330</ele>
        <time>2023-01-26T14:59:20Z</time>
      </trkpt>
      <trkpt lat="44.26046" lon="1.753">
        <ele>330.1</ele>
        <time>2023-01-26T14:59:21Z</time>
      </trkpt>
      <trkpt lat="44.26047" lon="1.75299">
        <ele>330.2</ele>
        <time>2023-01-26T14:59:22Z</time>
      </trkpt>
      <trkpt lat="44.26051" lon="1.75299">
        <ele>330.4</ele>
        <time>2023-01-26T14:59:23Z</time>
      </trkpt>
      <trkpt lat="44.26052" lon="1.75299">
        <ele>330.4</ele>
        <time>2023-01-26T14:59:24Z</time>
      </trkpt>
      <trkpt lat="44.26053" lon="1.75298">
        <ele>330.5</ele>
        <time>2023-01-26T14:59:25Z</time>
      </trkpt>
      <trkpt lat="44.26055" lon="1.75298">
        <ele>330.6</ele>
        <time>2023-01-26T14:59:26Z</time>
      </trkpt>
      <trkpt lat="44.26056" lon="1.75298">
        <ele>330.7</ele>
        <time>2023-01-26T14:59:28Z</time>
      </trkpt>
      <trkpt lat="44.26057" lon="1.75297">
        <ele>330.7</ele>
        <time>2023-01-26T14:59:29Z</time>
      </trkpt>
      <trkpt lat="44.26056" lon="1.75297">
        <ele>330.8</ele>
        <time>2023-01-26T14:59:30Z</time>
      </trkpt>
      <trkpt lat="44.26056" lon="1.75297">
        <ele>330.8</ele>
        <time>2023-01-26T14:59:32Z</time>
      </trkpt>
      <trkpt lat="44.26056" lon="1.75297">
        <ele>330.8</ele>
        <time>2023-01-26T14:59:33Z</time>
      </trkpt>
      <trkpt lat="44.26056" lon="1.75297">
        <ele>330.8</ele>
        <time>2023-01-26T14:59:35Z</time>
      </trkpt>
      <trkpt lat="44.26057" lon="1.75297">
        <ele>330.8</ele>
        <time>2023-01-26T14:59:36Z</time>
      </trkpt>
      <trkpt lat="44.26057" lon="1.75297">
        <ele>330.8</ele>
        <time>2023-01-26T14:59:38Z</time>
      </trkpt>
      <trkpt lat="44.26057" lon="1.75297">
        <ele>330.8</ele>
        <time>2023-01-26T14:59:39Z</time>
      </trkpt>
      <trkpt lat="44.26063" lon="1.75304">
        <ele>331.3</ele>
        <time>2023-01-26T15:01:43Z</time>
      </trkpt>
      <trkpt lat="44.26063" lon="1.75305">
        <ele>331.3</ele>
        <time>2023-01-26T15:01:44Z</time>
      </trkpt>
      <trkpt lat="44.26063" lon="1.75305">
        <ele>331.4</ele>
        <time>2023-01-26T15:01:46Z</time>
      </trkpt>
      <trkpt lat="44.26064" lon="1.75306">
        <ele>331.4</ele>
        <time>2023-01-26T15:01:47Z</time>
      </trkpt>
      <trkpt lat="44.26064" lon="1.75306">
        <ele>331.4</ele>
        <time>2023-01-26T15:01:48Z</time>
      </trkpt>
      <trkpt lat="44.26064" lon="1.75306">
        <ele>331.4</ele>
        <time>2023-01-26T15:01:49Z</time>
      </trkpt>
      <trkpt lat="44.26064" lon="1.75307">
        <ele>331.5</ele>
        <time>2023-01-26T15:01:50Z</time>
      </trkpt>
      <trkpt lat="44.26066" lon="1.75308">
        <ele>331.6</ele>
        <time>2023-01-26T15:01:51Z</time>
      </trkpt>
      <trkpt lat="44.26067" lon="1.75309">
        <ele>331.6</ele>
        <time>2023-01-26T15:01:53Z</time>
      </trkpt>
      <trkpt lat="44.26068" lon="1.7531">
        <ele>331.7</ele>
        <time>2023-01-26T15:01:54Z</time>
      </trkpt>
      <trkpt lat="44.26071" lon="1.75313">
        <ele>331.9</ele>
        <time>2023-01-26T15:01:55Z</time>
      </trkpt>
      <trkpt lat="44.26075" lon="1.75313">
        <ele>332.2</ele>
        <time>2023-01-26T15:01:57Z</time>
      </trkpt>
      <trkpt lat="44.26077" lon="1.75313">
        <ele>332.3</ele>
        <time>2023-01-26T15:01:58Z</time>
      </trkpt>
      <trkpt lat="44.26079" lon="1.75313">
        <ele>332.4</ele>
        <time>2023-01-26T15:01:59Z</time>
      </trkpt>
      <trkpt lat="44.26083" lon="1.75314">
        <ele>332.6</ele>
        <time>2023-01-26T15:02:00Z</time>
      </trkpt>
      <trkpt lat="44.26084" lon="1.75314">
        <ele>332.7</ele>
        <time>2023-01-26T15:02:01Z</time>
      </trkpt>
      <trkpt lat="44.26087" lon="1.75314">
        <ele>332.8</ele>
        <time>2023-01-26T15:02:03Z</time>
      </trkpt>
      <trkpt lat="44.2609" lon="1.75315">
        <ele>333</ele>
        <time>2023-01-26T15:02:04Z</time>
      </trkpt>
      <trkpt lat="44.26093" lon="1.75316">
        <ele>333.2</ele>
        <time>2023-01-26T15:02:05Z</time>
      </trkpt>
      <trkpt lat="44.26098" lon="1.75317">
        <ele>333.5</ele>
        <time>2023-01-26T15:02:06Z</time>
      </trkpt>
      <trkpt lat="44.26101" lon="1.75318">
        <ele>333.6</ele>
        <time>2023-01-26T15:02:07Z</time>
      </trkpt>
      <trkpt lat="44.26104" lon="1.75319">
        <ele>333.8</ele>
        <time>2023-01-26T15:02:09Z</time>
      </trkpt>
      <trkpt lat="44.26107" lon="1.75321">
        <ele>334</ele>
        <time>2023-01-26T15:02:10Z</time>
      </trkpt>
      <trkpt lat="44.26109" lon="1.75322">
        <ele>334.1</ele>
        <time>2023-01-26T15:02:11Z</time>
      </trkpt>
      <trkpt lat="44.26114" lon="1.75324">
        <ele>334.3</ele>
        <time>2023-01-26T15:02:12Z</time>
      </trkpt>
      <trkpt lat="44.26118" lon="1.75325">
        <ele>334.5</ele>
        <time>2023-01-26T15:02:14Z</time>
      </trkpt>
      <trkpt lat="44.26122" lon="1.75326">
        <ele>334.7</ele>
        <time>2023-01-26T15:02:15Z</time>
      </trkpt>
      <trkpt lat="44.26128" lon="1.75327">
        <ele>335</ele>
        <time>2023-01-26T15:02:17Z</time>
      </trkpt>
      <trkpt lat="44.26131" lon="1.75327">
        <ele>335.1</ele>
        <time>2023-01-26T15:02:18Z</time>
      </trkpt>
      <trkpt lat="44.26134" lon="1.75325">
        <ele>335.3</ele>
        <time>2023-01-26T15:02:19Z</time>
      </trkpt>
      <trkpt lat="44.26138" lon="1.75322">
        <ele>335.5</ele>
        <time>2023-01-26T15:02:20Z</time>
      </trkpt>
      <trkpt lat="44.2614" lon="1.75319">
        <ele>335.9</ele>
        <time>2023-01-26T15:02:21Z</time>
      </trkpt>
      <trkpt lat="44.26144" lon="1.75313">
        <ele>336.2</ele>
        <time>2023-01-26T15:02:23Z</time>
      </trkpt>
      <trkpt lat="44.26145" lon="1.7531">
        <ele>336.3</ele>
        <time>2023-01-26T15:02:24Z</time>
      </trkpt>
      <trkpt lat="44.26147" lon="1.75303">
        <ele>336.6</ele>
        <time>2023-01-26T15:02:25Z</time>
      </trkpt>
      <trkpt lat="44.2615" lon="1.75297">
        <ele>336.9</ele>
        <time>2023-01-26T15:02:27Z</time>
      </trkpt>
      <trkpt lat="44.26152" lon="1.75293">
        <ele>337.1</ele>
        <time>2023-01-26T15:02:28Z</time>
      </trkpt>
      <trkpt lat="44.26155" lon="1.75285">
        <ele>337.5</ele>
        <time>2023-01-26T15:02:29Z</time>
      </trkpt>
      <trkpt lat="44.26158" lon="1.75281">
        <ele>337.7</ele>
        <time>2023-01-26T15:02:31Z</time>
      </trkpt>
      <trkpt lat="44.2616" lon="1.75275">
        <ele>337.9</ele>
        <time>2023-01-26T15:02:32Z</time>
      </trkpt>
      <trkpt lat="44.26163" lon="1.75268">
        <ele>338.2</ele>
        <time>2023-01-26T15:02:34Z</time>
      </trkpt>
      <trkpt lat="44.26166" lon="1.7526">
        <ele>338.6</ele>
        <time>2023-01-26T15:02:35Z</time>
      </trkpt>
      <trkpt lat="44.26169" lon="1.75255">
        <ele>338.8</ele>
        <time>2023-01-26T15:02:37Z</time>
      </trkpt>
      <trkpt lat="44.2617" lon="1.7525">
        <ele>339</ele>
        <time>2023-01-26T15:02:38Z</time>
      </trkpt>
      <trkpt lat="44.26172" lon="1.75245">
        <ele>339.1</ele>
        <time>2023-01-26T15:02:39Z</time>
      </trkpt>
      <trkpt lat="44.26176" lon="1.75238">
        <ele>339.4</ele>
        <time>2023-01-26T15:02:40Z</time>
      </trkpt>
      <trkpt lat="44.26178" lon="1.75233">
        <ele>339.6</ele>
        <time>2023-01-26T15:02:42Z</time>
      </trkpt>
      <trkpt lat="44.26181" lon="1.75229">
        <ele>339.8</ele>
        <time>2023-01-26T15:02:43Z</time>
      </trkpt>
      <trkpt lat="44.26185" lon="1.75221">
        <ele>340.1</ele>
        <time>2023-01-26T15:02:44Z</time>
      </trkpt>
      <trkpt lat="44.26189" lon="1.75215">
        <ele>340.3</ele>
        <time>2023-01-26T15:02:46Z</time>
      </trkpt>
      <trkpt lat="44.26193" lon="1.75211">
        <ele>340.5</ele>
        <time>2023-01-26T15:02:47Z</time>
      </trkpt>
      <trkpt lat="44.26196" lon="1.75207">
        <ele>340.6</ele>
        <time>2023-01-26T15:02:48Z</time>
      </trkpt>
      <trkpt lat="44.26201" lon="1.75199">
        <ele>340.9</ele>
        <time>2023-01-26T15:02:49Z</time>
      </trkpt>
      <trkpt lat="44.26204" lon="1.75195">
        <ele>341</ele>
        <time>2023-01-26T15:02:51Z</time>
      </trkpt>
      <trkpt lat="44.26207" lon="1.75189">
        <ele>341.2</ele>
        <time>2023-01-26T15:02:52Z</time>
      </trkpt>
      <trkpt lat="44.26209" lon="1.75184">
        <ele>341.4</ele>
        <time>2023-01-26T15:02:53Z</time>
      </trkpt>
      <trkpt lat="44.26214" lon="1.75175">
        <ele>341.6</ele>
        <time>2023-01-26T15:02:55Z</time>
      </trkpt>
      <trkpt lat="44.26217" lon="1.7517">
        <ele>341.7</ele>
        <time>2023-01-26T15:02:56Z</time>
      </trkpt>
      <trkpt lat="44.2622" lon="1.75165">
        <ele>341.8</ele>
        <time>2023-01-26T15:02:57Z</time>
      </trkpt>
      <trkpt lat="44.26223" lon="1.75161">
        <ele>342</ele>
        <time>2023-01-26T15:02:58Z</time>
      </trkpt>
      <trkpt lat="44.26227" lon="1.75155">
        <ele>342.1</ele>
        <time>2023-01-26T15:02:59Z</time>
      </trkpt>
      <trkpt lat="44.26232" lon="1.75147">
        <ele>342.3</ele>
        <time>2023-01-26T15:03:01Z</time>
      </trkpt>
      <trkpt lat="44.26237" lon="1.75139">
        <ele>342.4</ele>
        <time>2023-01-26T15:03:02Z</time>
      </trkpt>
      <trkpt lat="44.2624" lon="1.75134">
        <ele>342.5</ele>
        <time>2023-01-26T15:03:04Z</time>
      </trkpt>
      <trkpt lat="44.26243" lon="1.75128">
        <ele>342.6</ele>
        <time>2023-01-26T15:03:05Z</time>
      </trkpt>
      <trkpt lat="44.26247" lon="1.75124">
        <ele>342.7</ele>
        <time>2023-01-26T15:03:06Z</time>
      </trkpt>
      <trkpt lat="44.26252" lon="1.75116">
        <ele>342.9</ele>
        <time>2023-01-26T15:03:07Z</time>
      </trkpt>
      <trkpt lat="44.26255" lon="1.75111">
        <ele>342.9</ele>
        <time>2023-01-26T15:03:09Z</time>
      </trkpt>
      <trkpt lat="44.26258" lon="1.75106">
        <ele>343</ele>
        <time>2023-01-26T15:03:10Z</time>
      </trkpt>
      <trkpt lat="44.26262" lon="1.75096">
        <ele>343.2</ele>
        <time>2023-01-26T15:03:12Z</time>
      </trkpt>
      <trkpt lat="44.26265" lon="1.75091">
        <ele>343.2</ele>
        <time>2023-01-26T15:03:13Z</time>
      </trkpt>
      <trkpt lat="44.26265" lon="1.75086">
        <ele>343.3</ele>
        <time>2023-01-26T15:03:14Z</time>
      </trkpt>
      <trkpt lat="44.2627" lon="1.75076">
        <ele>343.4</ele>
        <time>2023-01-26T15:03:16Z</time>
      </trkpt>
      <trkpt lat="44.26274" lon="1.75066">
        <ele>343.5</ele>
        <time>2023-01-26T15:03:17Z</time>
      </trkpt>
      <trkpt lat="44.26277" lon="1.75059">
        <ele>343.6</ele>
        <time>2023-01-26T15:03:19Z</time>
      </trkpt>
      <trkpt lat="44.26279" lon="1.75052">
        <ele>343.7</ele>
        <time>2023-01-26T15:03:20Z</time>
      </trkpt>
      <trkpt lat="44.2628" lon="1.75046">
        <ele>343.8</ele>
        <time>2023-01-26T15:03:21Z</time>
      </trkpt>
      <trkpt lat="44.26283" lon="1.75036">
        <ele>343.9</ele>
        <time>2023-01-26T15:03:22Z</time>
      </trkpt>
      <trkpt lat="44.26284" lon="1.75029">
        <ele>344</ele>
        <time>2023-01-26T15:03:24Z</time>
      </trkpt>
      <trkpt lat="44.26286" lon="1.75023">
        <ele>344</ele>
        <time>2023-01-26T15:03:25Z</time>
      </trkpt>
      <trkpt lat="44.26287" lon="1.75017">
        <ele>344.1</ele>
        <time>2023-01-26T15:03:26Z</time>
      </trkpt>
      <trkpt lat="44.26289" lon="1.75008">
        <ele>344.2</ele>
        <time>2023-01-26T15:03:27Z</time>
      </trkpt>
      <trkpt lat="44.26291" lon="1.75003">
        <ele>344.3</ele>
        <time>2023-01-26T15:03:28Z</time>
      </trkpt>
      <trkpt lat="44.26293" lon="1.74995">
        <ele>344.4</ele>
        <time>2023-01-26T15:03:30Z</time>
      </trkpt>
      <trkpt lat="44.26295" lon="1.74988">
        <ele>344.4</ele>
        <time>2023-01-26T15:03:31Z</time>
      </trkpt>
      <trkpt lat="44.26297" lon="1.74982">
        <ele>344.5</ele>
        <time>2023-01-26T15:03:32Z</time>
      </trkpt>
      <trkpt lat="44.26298" lon="1.74975">
        <ele>344.6</ele>
        <time>2023-01-26T15:03:33Z</time>
      </trkpt>
      <trkpt lat="44.263" lon="1.74969">
        <ele>344.7</ele>
        <time>2023-01-26T15:03:34Z</time>
      </trkpt>
      <trkpt lat="44.26302" lon="1.74964">
        <ele>344.8</ele>
        <time>2023-01-26T15:03:35Z</time>
      </trkpt>
      <trkpt lat="44.26304" lon="1.74957">
        <ele>344.9</ele>
        <time>2023-01-26T15:03:36Z</time>
      </trkpt>
      <trkpt lat="44.26306" lon="1.74951">
        <ele>345.1</ele>
        <time>2023-01-26T15:03:37Z</time>
      </trkpt>
      <trkpt lat="44.26308" lon="1.74944">
        <ele>345.2</ele>
        <time>2023-01-26T15:03:38Z</time>
      </trkpt>
      <trkpt lat="44.2631" lon="1.74938">
        <ele>345.3</ele>
        <time>2023-01-26T15:03:39Z</time>
      </trkpt>
      <trkpt lat="44.26311" lon="1.74932">
        <ele>345.5</ele>
        <time>2023-01-26T15:03:40Z</time>
      </trkpt>
      <trkpt lat="44.26313" lon="1.74926">
        <ele>345.6</ele>
        <time>2023-01-26T15:03:41Z</time>
      </trkpt>
      <trkpt lat="44.26315" lon="1.7492">
        <ele>345.7</ele>
        <time>2023-01-26T15:03:42Z</time>
      </trkpt>
      <trkpt lat="44.26317" lon="1.74914">
        <ele>345.9</ele>
        <time>2023-01-26T15:03:43Z</time>
      </trkpt>
      <trkpt lat="44.26318" lon="1.74908">
        <ele>346</ele>
        <time>2023-01-26T15:03:44Z</time>
      </trkpt>
      <trkpt lat="44.26319" lon="1.74901">
        <ele>346.2</ele>
        <time>2023-01-26T15:03:45Z</time>
      </trkpt>
      <trkpt lat="44.26321" lon="1.74893">
        <ele>346.4</ele>
        <time>2023-01-26T15:03:46Z</time>
      </trkpt>
      <trkpt lat="44.26321" lon="1.74886">
        <ele>346.5</ele>
        <time>2023-01-26T15:03:47Z</time>
      </trkpt>
      <trkpt lat="44.26322" lon="1.7488">
        <ele>346.7</ele>
        <time>2023-01-26T15:03:48Z</time>
      </trkpt>
      <trkpt lat="44.26324" lon="1.74873">
        <ele>346.9</ele>
        <time>2023-01-26T15:03:49Z</time>
      </trkpt>
      <trkpt lat="44.26325" lon="1.74866">
        <ele>347</ele>
        <time>2023-01-26T15:03:50Z</time>
      </trkpt>
      <trkpt lat="44.26326" lon="1.74859">
        <ele>347.2</ele>
        <time>2023-01-26T15:03:51Z</time>
      </trkpt>
      <trkpt lat="44.26326" lon="1.74852">
        <ele>347.3</ele>
        <time>2023-01-26T15:03:52Z</time>
      </trkpt>
      <trkpt lat="44.26327" lon="1.74846">
        <ele>347.5</ele>
        <time>2023-01-26T15:03:53Z</time>
      </trkpt>
      <trkpt lat="44.26326" lon="1.74839">
        <ele>347.7</ele>
        <time>2023-01-26T15:03:54Z</time>
      </trkpt>
      <trkpt lat="44.26326" lon="1.74833">
        <ele>347.8</ele>
        <time>2023-01-26T15:03:55Z</time>
      </trkpt>
      <trkpt lat="44.26326" lon="1.74829">
        <ele>347.9</ele>
        <time>2023-01-26T15:03:56Z</time>
      </trkpt>
      <trkpt lat="44.26326" lon="1.74821">
        <ele>348.1</ele>
        <time>2023-01-26T15:03:57Z</time>
      </trkpt>
      <trkpt lat="44.26326" lon="1.74814">
        <ele>348.3</ele>
        <time>2023-01-26T15:03:58Z</time>
      </trkpt>
      <trkpt lat="44.26326" lon="1.74806">
        <ele>348.5</ele>
        <time>2023-01-26T15:03:59Z</time>
      </trkpt>
      <trkpt lat="44.26326" lon="1.748">
        <ele>348.6</ele>
        <time>2023-01-26T15:04:00Z</time>
      </trkpt>
      <trkpt lat="44.26327" lon="1.74791">
        <ele>348.8</ele>
        <time>2023-01-26T15:04:01Z</time>
      </trkpt>
      <trkpt lat="44.26327" lon="1.74786">
        <ele>348.9</ele>
        <time>2023-01-26T15:04:02Z</time>
      </trkpt>
      <trkpt lat="44.26327" lon="1.74779">
        <ele>349</ele>
        <time>2023-01-26T15:04:03Z</time>
      </trkpt>
      <trkpt lat="44.26328" lon="1.74772">
        <ele>349.1</ele>
        <time>2023-01-26T15:04:04Z</time>
      </trkpt>
      <trkpt lat="44.26328" lon="1.74766">
        <ele>349.3</ele>
        <time>2023-01-26T15:04:05Z</time>
      </trkpt>
      <trkpt lat="44.26328" lon="1.74759">
        <ele>349.4</ele>
        <time>2023-01-26T15:04:06Z</time>
      </trkpt>
      <trkpt lat="44.26329" lon="1.74752">
        <ele>349.5</ele>
        <time>2023-01-26T15:04:07Z</time>
      </trkpt>
      <trkpt lat="44.26329" lon="1.74745">
        <ele>349.7</ele>
        <time>2023-01-26T15:04:08Z</time>
      </trkpt>
      <trkpt lat="44.26329" lon="1.74738">
        <ele>349.8</ele>
        <time>2023-01-26T15:04:09Z</time>
      </trkpt>
      <trkpt lat="44.26329" lon="1.74731">
        <ele>349.9</ele>
        <time>2023-01-26T15:04:10Z</time>
      </trkpt>
      <trkpt lat="44.2633" lon="1.74725">
        <ele>350</ele>
        <time>2023-01-26T15:04:11Z</time>
      </trkpt>
      <trkpt lat="44.2633" lon="1.74718">
        <ele>350.1</ele>
        <time>2023-01-26T15:04:12Z</time>
      </trkpt>
      <trkpt lat="44.26331" lon="1.74712">
        <ele>350.2</ele>
        <time>2023-01-26T15:04:13Z</time>
      </trkpt>
      <trkpt lat="44.26332" lon="1.74705">
        <ele>350.3</ele>
        <time>2023-01-26T15:04:14Z</time>
      </trkpt>
      <trkpt lat="44.26333" lon="1.74698">
        <ele>350.3</ele>
        <time>2023-01-26T15:04:15Z</time>
      </trkpt>
      <trkpt lat="44.26334" lon="1.74691">
        <ele>350.5</ele>
        <time>2023-01-26T15:04:16Z</time>
      </trkpt>
      <trkpt lat="44.26336" lon="1.74685">
        <ele>350.6</ele>
        <time>2023-01-26T15:04:17Z</time>
      </trkpt>
      <trkpt lat="44.26337" lon="1.74679">
        <ele>350.7</ele>
        <time>2023-01-26T15:04:18Z</time>
      </trkpt>
      <trkpt lat="44.26339" lon="1.74672">
        <ele>350.9</ele>
        <time>2023-01-26T15:04:19Z</time>
      </trkpt>
      <trkpt lat="44.26341" lon="1.74665">
        <ele>351.1</ele>
        <time>2023-01-26T15:04:20Z</time>
      </trkpt>
      <trkpt lat="44.26343" lon="1.74659">
        <ele>351.3</ele>
        <time>2023-01-26T15:04:21Z</time>
      </trkpt>
      <trkpt lat="44.26345" lon="1.74653">
        <ele>351.6</ele>
        <time>2023-01-26T15:04:22Z</time>
      </trkpt>
      <trkpt lat="44.26347" lon="1.74647">
        <ele>351.8</ele>
        <time>2023-01-26T15:04:23Z</time>
      </trkpt>
      <trkpt lat="44.26349" lon="1.74641">
        <ele>352.1</ele>
        <time>2023-01-26T15:04:24Z</time>
      </trkpt>
      <trkpt lat="44.26351" lon="1.74635">
        <ele>352.3</ele>
        <time>2023-01-26T15:04:25Z</time>
      </trkpt>
      <trkpt lat="44.26354" lon="1.74629">
        <ele>352.6</ele>
        <time>2023-01-26T15:04:26Z</time>
      </trkpt>
      <trkpt lat="44.26356" lon="1.74624">
        <ele>352.9</ele>
        <time>2023-01-26T15:04:27Z</time>
      </trkpt>
      <trkpt lat="44.26358" lon="1.74618">
        <ele>353.1</ele>
        <time>2023-01-26T15:04:28Z</time>
      </trkpt>
      <trkpt lat="44.26359" lon="1.74614">
        <ele>353.3</ele>
        <time>2023-01-26T15:04:29Z</time>
      </trkpt>
      <trkpt lat="44.26361" lon="1.74608">
        <ele>353.5</ele>
        <time>2023-01-26T15:04:30Z</time>
      </trkpt>
      <trkpt lat="44.26362" lon="1.74602">
        <ele>353.7</ele>
        <time>2023-01-26T15:04:31Z</time>
      </trkpt>
      <trkpt lat="44.26363" lon="1.74597">
        <ele>353.8</ele>
        <time>2023-01-26T15:04:32Z</time>
      </trkpt>
      <trkpt lat="44.26364" lon="1.74589">
        <ele>354</ele>
        <time>2023-01-26T15:04:33Z</time>
      </trkpt>
      <trkpt lat="44.26365" lon="1.74582">
        <ele>354.1</ele>
        <time>2023-01-26T15:04:34Z</time>
      </trkpt>
      <trkpt lat="44.26366" lon="1.74578">
        <ele>354.2</ele>
        <time>2023-01-26T15:04:35Z</time>
      </trkpt>
      <trkpt lat="44.26366" lon="1.7457">
        <ele>354.3</ele>
        <time>2023-01-26T15:04:36Z</time>
      </trkpt>
      <trkpt lat="44.26367" lon="1.74563">
        <ele>354.4</ele>
        <time>2023-01-26T15:04:37Z</time>
      </trkpt>
      <trkpt lat="44.26368" lon="1.74556">
        <ele>354.5</ele>
        <time>2023-01-26T15:04:38Z</time>
      </trkpt>
      <trkpt lat="44.26369" lon="1.74552">
        <ele>354.5</ele>
        <time>2023-01-26T15:04:39Z</time>
      </trkpt>
      <trkpt lat="44.2637" lon="1.74542">
        <ele>354.5</ele>
        <time>2023-01-26T15:04:41Z</time>
      </trkpt>
      <trkpt lat="44.26371" lon="1.74536">
        <ele>354.6</ele>
        <time>2023-01-26T15:04:42Z</time>
      </trkpt>
      <trkpt lat="44.26372" lon="1.7453">
        <ele>354.6</ele>
        <time>2023-01-26T15:04:43Z</time>
      </trkpt>
      <trkpt lat="44.26373" lon="1.74524">
        <ele>354.7</ele>
        <time>2023-01-26T15:04:44Z</time>
      </trkpt>
      <trkpt lat="44.26375" lon="1.74517">
        <ele>354.8</ele>
        <time>2023-01-26T15:04:45Z</time>
      </trkpt>
      <trkpt lat="44.26376" lon="1.74507">
        <ele>354.9</ele>
        <time>2023-01-26T15:04:47Z</time>
      </trkpt>
      <trkpt lat="44.26377" lon="1.74501">
        <ele>354.9</ele>
        <time>2023-01-26T15:04:48Z</time>
      </trkpt>
      <trkpt lat="44.26378" lon="1.74491">
        <ele>355</ele>
        <time>2023-01-26T15:04:49Z</time>
      </trkpt>
      <trkpt lat="44.26379" lon="1.74485">
        <ele>355.1</ele>
        <time>2023-01-26T15:04:50Z</time>
      </trkpt>
      <trkpt lat="44.2638" lon="1.74479">
        <ele>355.2</ele>
        <time>2023-01-26T15:04:51Z</time>
      </trkpt>
      <trkpt lat="44.26381" lon="1.74473">
        <ele>355.2</ele>
        <time>2023-01-26T15:04:53Z</time>
      </trkpt>
      <trkpt lat="44.26384" lon="1.74467">
        <ele>355.3</ele>
        <time>2023-01-26T15:04:54Z</time>
      </trkpt>
      <trkpt lat="44.26385" lon="1.74461">
        <ele>355.3</ele>
        <time>2023-01-26T15:04:55Z</time>
      </trkpt>
      <trkpt lat="44.26386" lon="1.74453">
        <ele>355.4</ele>
        <time>2023-01-26T15:04:56Z</time>
      </trkpt>
      <trkpt lat="44.26387" lon="1.74447">
        <ele>355.4</ele>
        <time>2023-01-26T15:04:58Z</time>
      </trkpt>
      <trkpt lat="44.26387" lon="1.74442">
        <ele>355.4</ele>
        <time>2023-01-26T15:04:59Z</time>
      </trkpt>
      <trkpt lat="44.26387" lon="1.74436">
        <ele>355.5</ele>
        <time>2023-01-26T15:05:00Z</time>
      </trkpt>
      <trkpt lat="44.26387" lon="1.74429">
        <ele>355.5</ele>
        <time>2023-01-26T15:05:01Z</time>
      </trkpt>
      <trkpt lat="44.26386" lon="1.7442">
        <ele>355.4</ele>
        <time>2023-01-26T15:05:02Z</time>
      </trkpt>
      <trkpt lat="44.26385" lon="1.74413">
        <ele>355.4</ele>
        <time>2023-01-26T15:05:04Z</time>
      </trkpt>
      <trkpt lat="44.26385" lon="1.74403">
        <ele>355.4</ele>
        <time>2023-01-26T15:05:06Z</time>
      </trkpt>
      <trkpt lat="44.26384" lon="1.74396">
        <ele>355.3</ele>
        <time>2023-01-26T15:05:07Z</time>
      </trkpt>
      <trkpt lat="44.26383" lon="1.74386">
        <ele>355.3</ele>
        <time>2023-01-26T15:05:08Z</time>
      </trkpt>
      <trkpt lat="44.26383" lon="1.74378">
        <ele>355.2</ele>
        <time>2023-01-26T15:05:10Z</time>
      </trkpt>
      <trkpt lat="44.26383" lon="1.74366">
        <ele>355.1</ele>
        <time>2023-01-26T15:05:11Z</time>
      </trkpt>
      <trkpt lat="44.26383" lon="1.74359">
        <ele>355.1</ele>
        <time>2023-01-26T15:05:12Z</time>
      </trkpt>
      <trkpt lat="44.26383" lon="1.74352">
        <ele>355</ele>
        <time>2023-01-26T15:05:14Z</time>
      </trkpt>
      <trkpt lat="44.26383" lon="1.74345">
        <ele>355</ele>
        <time>2023-01-26T15:05:15Z</time>
      </trkpt>
      <trkpt lat="44.26383" lon="1.74337">
        <ele>354.9</ele>
        <time>2023-01-26T15:05:16Z</time>
      </trkpt>
      <trkpt lat="44.26384" lon="1.7433">
        <ele>354.9</ele>
        <time>2023-01-26T15:05:17Z</time>
      </trkpt>
      <trkpt lat="44.26386" lon="1.74322">
        <ele>354.8</ele>
        <time>2023-01-26T15:05:18Z</time>
      </trkpt>
      <trkpt lat="44.26387" lon="1.74315">
        <ele>354.8</ele>
        <time>2023-01-26T15:05:19Z</time>
      </trkpt>
      <trkpt lat="44.26389" lon="1.74307">
        <ele>354.8</ele>
        <time>2023-01-26T15:05:20Z</time>
      </trkpt>
      <trkpt lat="44.26391" lon="1.743">
        <ele>354.8</ele>
        <time>2023-01-26T15:05:21Z</time>
      </trkpt>
      <trkpt lat="44.26393" lon="1.74292">
        <ele>354.8</ele>
        <time>2023-01-26T15:05:22Z</time>
      </trkpt>
      <trkpt lat="44.26396" lon="1.74285">
        <ele>354.8</ele>
        <time>2023-01-26T15:05:23Z</time>
      </trkpt>
      <trkpt lat="44.26398" lon="1.74279">
        <ele>354.9</ele>
        <time>2023-01-26T15:05:24Z</time>
      </trkpt>
      <trkpt lat="44.26399" lon="1.74272">
        <ele>354.9</ele>
        <time>2023-01-26T15:05:25Z</time>
      </trkpt>
      <trkpt lat="44.264" lon="1.74266">
        <ele>355</ele>
        <time>2023-01-26T15:05:26Z</time>
      </trkpt>
      <trkpt lat="44.26401" lon="1.74261">
        <ele>355</ele>
        <time>2023-01-26T15:05:27Z</time>
      </trkpt>
      <trkpt lat="44.26402" lon="1.74256">
        <ele>355</ele>
        <time>2023-01-26T15:05:28Z</time>
      </trkpt>
      <trkpt lat="44.26403" lon="1.74252">
        <ele>355</ele>
        <time>2023-01-26T15:05:29Z</time>
      </trkpt>
      <trkpt lat="44.26403" lon="1.74248">
        <ele>355.1</ele>
        <time>2023-01-26T15:05:30Z</time>
      </trkpt>
      <trkpt lat="44.26405" lon="1.74241">
        <ele>355.1</ele>
        <time>2023-01-26T15:05:31Z</time>
      </trkpt>
      <trkpt lat="44.26406" lon="1.74235">
        <ele>355</ele>
        <time>2023-01-26T15:05:32Z</time>
      </trkpt>
      <trkpt lat="44.26407" lon="1.74223">
        <ele>355</ele>
        <time>2023-01-26T15:05:34Z</time>
      </trkpt>
      <trkpt lat="44.26409" lon="1.74215">
        <ele>355</ele>
        <time>2023-01-26T15:05:35Z</time>
      </trkpt>
      <trkpt lat="44.26409" lon="1.74209">
        <ele>355</ele>
        <time>2023-01-26T15:05:36Z</time>
      </trkpt>
      <trkpt lat="44.2641" lon="1.74202">
        <ele>355</ele>
        <time>2023-01-26T15:05:37Z</time>
      </trkpt>
      <trkpt lat="44.2641" lon="1.74194">
        <ele>355</ele>
        <time>2023-01-26T15:05:38Z</time>
      </trkpt>
      <trkpt lat="44.2641" lon="1.74188">
        <ele>355</ele>
        <time>2023-01-26T15:05:39Z</time>
      </trkpt>
      <trkpt lat="44.26411" lon="1.74182">
        <ele>355</ele>
        <time>2023-01-26T15:05:40Z</time>
      </trkpt>
      <trkpt lat="44.26412" lon="1.74175">
        <ele>355</ele>
        <time>2023-01-26T15:05:41Z</time>
      </trkpt>
      <trkpt lat="44.26412" lon="1.74168">
        <ele>355</ele>
        <time>2023-01-26T15:05:42Z</time>
      </trkpt>
      <trkpt lat="44.26413" lon="1.74161">
        <ele>355</ele>
        <time>2023-01-26T15:05:43Z</time>
      </trkpt>
      <trkpt lat="44.26413" lon="1.74154">
        <ele>355</ele>
        <time>2023-01-26T15:05:44Z</time>
      </trkpt>
      <trkpt lat="44.26414" lon="1.74147">
        <ele>355</ele>
        <time>2023-01-26T15:05:45Z</time>
      </trkpt>
      <trkpt lat="44.26415" lon="1.74139">
        <ele>355</ele>
        <time>2023-01-26T15:05:46Z</time>
      </trkpt>
      <trkpt lat="44.26415" lon="1.74131">
        <ele>355</ele>
        <time>2023-01-26T15:05:47Z</time>
      </trkpt>
      <trkpt lat="44.26416" lon="1.74124">
        <ele>355.1</ele>
        <time>2023-01-26T15:05:48Z</time>
      </trkpt>
      <trkpt lat="44.26416" lon="1.74116">
        <ele>355.1</ele>
        <time>2023-01-26T15:05:49Z</time>
      </trkpt>
      <trkpt lat="44.26417" lon="1.74108">
        <ele>355.1</ele>
        <time>2023-01-26T15:05:50Z</time>
      </trkpt>
      <trkpt lat="44.26417" lon="1.741">
        <ele>355.1</ele>
        <time>2023-01-26T15:05:51Z</time>
      </trkpt>
      <trkpt lat="44.26417" lon="1.74093">
        <ele>355.2</ele>
        <time>2023-01-26T15:05:52Z</time>
      </trkpt>
      <trkpt lat="44.26417" lon="1.74085">
        <ele>355.2</ele>
        <time>2023-01-26T15:05:53Z</time>
      </trkpt>
      <trkpt lat="44.26417" lon="1.74077">
        <ele>355.3</ele>
        <time>2023-01-26T15:05:54Z</time>
      </trkpt>
      <trkpt lat="44.26417" lon="1.7407">
        <ele>355.4</ele>
        <time>2023-01-26T15:05:55Z</time>
      </trkpt>
      <trkpt lat="44.26416" lon="1.74063">
        <ele>355.4</ele>
        <time>2023-01-26T15:05:56Z</time>
      </trkpt>
      <trkpt lat="44.26416" lon="1.74056">
        <ele>355.5</ele>
        <time>2023-01-26T15:05:57Z</time>
      </trkpt>
      <trkpt lat="44.26415" lon="1.7405">
        <ele>355.6</ele>
        <time>2023-01-26T15:05:58Z</time>
      </trkpt>
      <trkpt lat="44.26414" lon="1.74044">
        <ele>355.7</ele>
        <time>2023-01-26T15:05:59Z</time>
      </trkpt>
      <trkpt lat="44.26414" lon="1.74037">
        <ele>355.7</ele>
        <time>2023-01-26T15:06:00Z</time>
      </trkpt>
      <trkpt lat="44.26413" lon="1.74031">
        <ele>355.8</ele>
        <time>2023-01-26T15:06:01Z</time>
      </trkpt>
      <trkpt lat="44.26412" lon="1.74025">
        <ele>355.9</ele>
        <time>2023-01-26T15:06:02Z</time>
      </trkpt>
      <trkpt lat="44.26411" lon="1.74021">
        <ele>356</ele>
        <time>2023-01-26T15:06:03Z</time>
      </trkpt>
      <trkpt lat="44.2641" lon="1.74016">
        <ele>356.1</ele>
        <time>2023-01-26T15:06:04Z</time>
      </trkpt>
      <trkpt lat="44.26409" lon="1.74012">
        <ele>356.2</ele>
        <time>2023-01-26T15:06:05Z</time>
      </trkpt>
      <trkpt lat="44.26409" lon="1.74008">
        <ele>356.2</ele>
        <time>2023-01-26T15:06:06Z</time>
      </trkpt>
      <trkpt lat="44.26409" lon="1.74003">
        <ele>356.2</ele>
        <time>2023-01-26T15:06:07Z</time>
      </trkpt>
      <trkpt lat="44.26409" lon="1.74001">
        <ele>356.2</ele>
        <time>2023-01-26T15:06:08Z</time>
      </trkpt>
      <trkpt lat="44.26409" lon="1.73997">
        <ele>356.3</ele>
        <time>2023-01-26T15:06:09Z</time>
      </trkpt>
      <trkpt lat="44.26409" lon="1.73992">
        <ele>356.3</ele>
        <time>2023-01-26T15:06:10Z</time>
      </trkpt>
      <trkpt lat="44.26408" lon="1.73987">
        <ele>356.4</ele>
        <time>2023-01-26T15:06:11Z</time>
      </trkpt>
      <trkpt lat="44.26408" lon="1.73982">
        <ele>356.4</ele>
        <time>2023-01-26T15:06:12Z</time>
      </trkpt>
      <trkpt lat="44.26407" lon="1.73978">
        <ele>356.5</ele>
        <time>2023-01-26T15:06:13Z</time>
      </trkpt>
      <trkpt lat="44.26407" lon="1.73973">
        <ele>356.5</ele>
        <time>2023-01-26T15:06:14Z</time>
      </trkpt>
      <trkpt lat="44.26407" lon="1.73971">
        <ele>356.5</ele>
        <time>2023-01-26T15:06:15Z</time>
      </trkpt>
      <trkpt lat="44.26407" lon="1.73966">
        <ele>356.6</ele>
        <time>2023-01-26T15:06:16Z</time>
      </trkpt>
      <trkpt lat="44.26406" lon="1.73964">
        <ele>356.6</ele>
        <time>2023-01-26T15:06:17Z</time>
      </trkpt>
      <trkpt lat="44.26406" lon="1.7396">
        <ele>356.7</ele>
        <time>2023-01-26T15:06:18Z</time>
      </trkpt>
      <trkpt lat="44.26406" lon="1.73956">
        <ele>356.7</ele>
        <time>2023-01-26T15:06:19Z</time>
      </trkpt>
      <trkpt lat="44.26405" lon="1.73951">
        <ele>356.7</ele>
        <time>2023-01-26T15:06:20Z</time>
      </trkpt>
      <trkpt lat="44.26404" lon="1.73946">
        <ele>356.8</ele>
        <time>2023-01-26T15:06:21Z</time>
      </trkpt>
      <trkpt lat="44.26403" lon="1.7394">
        <ele>356.9</ele>
        <time>2023-01-26T15:06:22Z</time>
      </trkpt>
      <trkpt lat="44.26403" lon="1.73934">
        <ele>357</ele>
        <time>2023-01-26T15:06:23Z</time>
      </trkpt>
      <trkpt lat="44.26402" lon="1.73928">
        <ele>357</ele>
        <time>2023-01-26T15:06:24Z</time>
      </trkpt>
      <trkpt lat="44.26401" lon="1.73922">
        <ele>357.1</ele>
        <time>2023-01-26T15:06:25Z</time>
      </trkpt>
      <trkpt lat="44.26401" lon="1.73917">
        <ele>357.2</ele>
        <time>2023-01-26T15:06:26Z</time>
      </trkpt>
      <trkpt lat="44.264" lon="1.7391">
        <ele>357.3</ele>
        <time>2023-01-26T15:06:27Z</time>
      </trkpt>
      <trkpt lat="44.26399" lon="1.73903">
        <ele>357.4</ele>
        <time>2023-01-26T15:06:28Z</time>
      </trkpt>
      <trkpt lat="44.26399" lon="1.73896">
        <ele>357.5</ele>
        <time>2023-01-26T15:06:29Z</time>
      </trkpt>
      <trkpt lat="44.26398" lon="1.73889">
        <ele>357.6</ele>
        <time>2023-01-26T15:06:30Z</time>
      </trkpt>
      <trkpt lat="44.26396" lon="1.73877">
        <ele>357.8</ele>
        <time>2023-01-26T15:06:31Z</time>
      </trkpt>
      <trkpt lat="44.26395" lon="1.73871">
        <ele>357.9</ele>
        <time>2023-01-26T15:06:32Z</time>
      </trkpt>
      <trkpt lat="44.26394" lon="1.73865">
        <ele>358.1</ele>
        <time>2023-01-26T15:06:33Z</time>
      </trkpt>
      <trkpt lat="44.26393" lon="1.73858">
        <ele>358.2</ele>
        <time>2023-01-26T15:06:34Z</time>
      </trkpt>
      <trkpt lat="44.26392" lon="1.73851">
        <ele>358.4</ele>
        <time>2023-01-26T15:06:35Z</time>
      </trkpt>
      <trkpt lat="44.26392" lon="1.73844">
        <ele>358.5</ele>
        <time>2023-01-26T15:06:36Z</time>
      </trkpt>
      <trkpt lat="44.26391" lon="1.73836">
        <ele>358.7</ele>
        <time>2023-01-26T15:06:37Z</time>
      </trkpt>
      <trkpt lat="44.2639" lon="1.73829">
        <ele>358.9</ele>
        <time>2023-01-26T15:06:38Z</time>
      </trkpt>
      <trkpt lat="44.26389" lon="1.73822">
        <ele>359.2</ele>
        <time>2023-01-26T15:06:39Z</time>
      </trkpt>
      <trkpt lat="44.26388" lon="1.73815">
        <ele>359.4</ele>
        <time>2023-01-26T15:06:40Z</time>
      </trkpt>
      <trkpt lat="44.26388" lon="1.73808">
        <ele>359.6</ele>
        <time>2023-01-26T15:06:41Z</time>
      </trkpt>
      <trkpt lat="44.26388" lon="1.73802">
        <ele>359.9</ele>
        <time>2023-01-26T15:06:42Z</time>
      </trkpt>
      <trkpt lat="44.26387" lon="1.73795">
        <ele>360.1</ele>
        <time>2023-01-26T15:06:43Z</time>
      </trkpt>
      <trkpt lat="44.26387" lon="1.73788">
        <ele>360.4</ele>
        <time>2023-01-26T15:06:44Z</time>
      </trkpt>
      <trkpt lat="44.26386" lon="1.73781">
        <ele>360.6</ele>
        <time>2023-01-26T15:06:45Z</time>
      </trkpt>
      <trkpt lat="44.26385" lon="1.73774">
        <ele>360.9</ele>
        <time>2023-01-26T15:06:46Z</time>
      </trkpt>
      <trkpt lat="44.26383" lon="1.73767">
        <ele>361.2</ele>
        <time>2023-01-26T15:06:47Z</time>
      </trkpt>
      <trkpt lat="44.26382" lon="1.73761">
        <ele>361.6</ele>
        <time>2023-01-26T15:06:48Z</time>
      </trkpt>
      <trkpt lat="44.26381" lon="1.73754">
        <ele>361.9</ele>
        <time>2023-01-26T15:06:49Z</time>
      </trkpt>
      <trkpt lat="44.26381" lon="1.73749">
        <ele>362.2</ele>
        <time>2023-01-26T15:06:50Z</time>
      </trkpt>
      <trkpt lat="44.2638" lon="1.73744">
        <ele>362.5</ele>
        <time>2023-01-26T15:06:51Z</time>
      </trkpt>
      <trkpt lat="44.26379" lon="1.73739">
        <ele>362.8</ele>
        <time>2023-01-26T15:06:52Z</time>
      </trkpt>
      <trkpt lat="44.26378" lon="1.73734">
        <ele>363.1</ele>
        <time>2023-01-26T15:06:53Z</time>
      </trkpt>
      <trkpt lat="44.26377" lon="1.73727">
        <ele>363.6</ele>
        <time>2023-01-26T15:06:54Z</time>
      </trkpt>
      <trkpt lat="44.26376" lon="1.7372">
        <ele>364</ele>
        <time>2023-01-26T15:06:55Z</time>
      </trkpt>
      <trkpt lat="44.26375" lon="1.73714">
        <ele>364.4</ele>
        <time>2023-01-26T15:06:56Z</time>
      </trkpt>
      <trkpt lat="44.26374" lon="1.73706">
        <ele>364.9</ele>
        <time>2023-01-26T15:06:57Z</time>
      </trkpt>
      <trkpt lat="44.26373" lon="1.73701">
        <ele>365.2</ele>
        <time>2023-01-26T15:06:58Z</time>
      </trkpt>
      <trkpt lat="44.26371" lon="1.73693">
        <ele>365.8</ele>
        <time>2023-01-26T15:07:00Z</time>
      </trkpt>
      <trkpt lat="44.2637" lon="1.73688">
        <ele>366.2</ele>
        <time>2023-01-26T15:07:01Z</time>
      </trkpt>
      <trkpt lat="44.26368" lon="1.73679">
        <ele>366.7</ele>
        <time>2023-01-26T15:07:02Z</time>
      </trkpt>
      <trkpt lat="44.26367" lon="1.73669">
        <ele>367.3</ele>
        <time>2023-01-26T15:07:04Z</time>
      </trkpt>
      <trkpt lat="44.26366" lon="1.73662">
        <ele>367.8</ele>
        <time>2023-01-26T15:07:05Z</time>
      </trkpt>
      <trkpt lat="44.26365" lon="1.73656">
        <ele>368.1</ele>
        <time>2023-01-26T15:07:06Z</time>
      </trkpt>
      <trkpt lat="44.26364" lon="1.73649">
        <ele>368.5</ele>
        <time>2023-01-26T15:07:07Z</time>
      </trkpt>
      <trkpt lat="44.26362" lon="1.73643">
        <ele>368.8</ele>
        <time>2023-01-26T15:07:08Z</time>
      </trkpt>
      <trkpt lat="44.26361" lon="1.73636">
        <ele>369.2</ele>
        <time>2023-01-26T15:07:09Z</time>
      </trkpt>
      <trkpt lat="44.2636" lon="1.73631">
        <ele>369.4</ele>
        <time>2023-01-26T15:07:10Z</time>
      </trkpt>
      <trkpt lat="44.26359" lon="1.73626">
        <ele>369.7</ele>
        <time>2023-01-26T15:07:11Z</time>
      </trkpt>
      <trkpt lat="44.26357" lon="1.73614">
        <ele>370.2</ele>
        <time>2023-01-26T15:07:13Z</time>
      </trkpt>
      <trkpt lat="44.26355" lon="1.73602">
        <ele>370.6</ele>
        <time>2023-01-26T15:07:14Z</time>
      </trkpt>
      <trkpt lat="44.26355" lon="1.73593">
        <ele>370.9</ele>
        <time>2023-01-26T15:07:16Z</time>
      </trkpt>
      <trkpt lat="44.26355" lon="1.73585">
        <ele>371.1</ele>
        <time>2023-01-26T15:07:17Z</time>
      </trkpt>
      <trkpt lat="44.26355" lon="1.73574">
        <ele>371.3</ele>
        <time>2023-01-26T15:07:18Z</time>
      </trkpt>
      <trkpt lat="44.26355" lon="1.73566">
        <ele>371.5</ele>
        <time>2023-01-26T15:07:19Z</time>
      </trkpt>
      <trkpt lat="44.26354" lon="1.73558">
        <ele>371.6</ele>
        <time>2023-01-26T15:07:21Z</time>
      </trkpt>
      <trkpt lat="44.26355" lon="1.73552">
        <ele>371.7</ele>
        <time>2023-01-26T15:07:22Z</time>
      </trkpt>
      <trkpt lat="44.26354" lon="1.73545">
        <ele>371.9</ele>
        <time>2023-01-26T15:07:23Z</time>
      </trkpt>
      <trkpt lat="44.26353" lon="1.73539">
        <ele>372</ele>
        <time>2023-01-26T15:07:24Z</time>
      </trkpt>
      <trkpt lat="44.26352" lon="1.73532">
        <ele>372.1</ele>
        <time>2023-01-26T15:07:25Z</time>
      </trkpt>
      <trkpt lat="44.26351" lon="1.73522">
        <ele>372.3</ele>
        <time>2023-01-26T15:07:27Z</time>
      </trkpt>
      <trkpt lat="44.26351" lon="1.73516">
        <ele>372.4</ele>
        <time>2023-01-26T15:07:28Z</time>
      </trkpt>
      <trkpt lat="44.2635" lon="1.73505">
        <ele>372.6</ele>
        <time>2023-01-26T15:07:30Z</time>
      </trkpt>
      <trkpt lat="44.26348" lon="1.735">
        <ele>372.7</ele>
        <time>2023-01-26T15:07:31Z</time>
      </trkpt>
      <trkpt lat="44.26347" lon="1.73495">
        <ele>372.8</ele>
        <time>2023-01-26T15:07:32Z</time>
      </trkpt>
      <trkpt lat="44.26345" lon="1.73491">
        <ele>372.8</ele>
        <time>2023-01-26T15:07:33Z</time>
      </trkpt>
      <trkpt lat="44.26343" lon="1.73487">
        <ele>372.9</ele>
        <time>2023-01-26T15:07:34Z</time>
      </trkpt>
      <trkpt lat="44.2634" lon="1.73482">
        <ele>373</ele>
        <time>2023-01-26T15:07:35Z</time>
      </trkpt>
      <trkpt lat="44.26338" lon="1.73477">
        <ele>373</ele>
        <time>2023-01-26T15:07:36Z</time>
      </trkpt>
      <trkpt lat="44.26335" lon="1.73471">
        <ele>373.1</ele>
        <time>2023-01-26T15:07:37Z</time>
      </trkpt>
      <trkpt lat="44.2633" lon="1.73465">
        <ele>373.1</ele>
        <time>2023-01-26T15:07:39Z</time>
      </trkpt>
      <trkpt lat="44.26326" lon="1.73461">
        <ele>373.1</ele>
        <time>2023-01-26T15:07:40Z</time>
      </trkpt>
      <trkpt lat="44.26322" lon="1.73455">
        <ele>373.2</ele>
        <time>2023-01-26T15:07:41Z</time>
      </trkpt>
      <trkpt lat="44.26317" lon="1.73451">
        <ele>373.2</ele>
        <time>2023-01-26T15:07:42Z</time>
      </trkpt>
      <trkpt lat="44.26313" lon="1.73447">
        <ele>373.3</ele>
        <time>2023-01-26T15:07:43Z</time>
      </trkpt>
      <trkpt lat="44.26309" lon="1.73444">
        <ele>373.3</ele>
        <time>2023-01-26T15:07:44Z</time>
      </trkpt>
      <trkpt lat="44.26304" lon="1.73441">
        <ele>373.3</ele>
        <time>2023-01-26T15:07:45Z</time>
      </trkpt>
      <trkpt lat="44.263" lon="1.73438">
        <ele>373.4</ele>
        <time>2023-01-26T15:07:46Z</time>
      </trkpt>
      <trkpt lat="44.26296" lon="1.73435">
        <ele>373.4</ele>
        <time>2023-01-26T15:07:47Z</time>
      </trkpt>
      <trkpt lat="44.26291" lon="1.73432">
        <ele>373.5</ele>
        <time>2023-01-26T15:07:48Z</time>
      </trkpt>
      <trkpt lat="44.26286" lon="1.73429">
        <ele>373.5</ele>
        <time>2023-01-26T15:07:49Z</time>
      </trkpt>
      <trkpt lat="44.26281" lon="1.73427">
        <ele>373.5</ele>
        <time>2023-01-26T15:07:50Z</time>
      </trkpt>
      <trkpt lat="44.26276" lon="1.73424">
        <ele>373.5</ele>
        <time>2023-01-26T15:07:51Z</time>
      </trkpt>
      <trkpt lat="44.26271" lon="1.7342">
        <ele>373.4</ele>
        <time>2023-01-26T15:07:52Z</time>
      </trkpt>
      <trkpt lat="44.26264" lon="1.73417">
        <ele>373.3</ele>
        <time>2023-01-26T15:07:54Z</time>
      </trkpt>
      <trkpt lat="44.2626" lon="1.73413">
        <ele>373.1</ele>
        <time>2023-01-26T15:07:55Z</time>
      </trkpt>
      <trkpt lat="44.26255" lon="1.73411">
        <ele>372.9</ele>
        <time>2023-01-26T15:07:56Z</time>
      </trkpt>
      <trkpt lat="44.26251" lon="1.73407">
        <ele>372.6</ele>
        <time>2023-01-26T15:07:57Z</time>
      </trkpt>
      <trkpt lat="44.26246" lon="1.73405">
        <ele>372.2</ele>
        <time>2023-01-26T15:07:58Z</time>
      </trkpt>
      <trkpt lat="44.2624" lon="1.73401">
        <ele>371.8</ele>
        <time>2023-01-26T15:07:59Z</time>
      </trkpt>
      <trkpt lat="44.26234" lon="1.73398">
        <ele>371.3</ele>
        <time>2023-01-26T15:08:00Z</time>
      </trkpt>
      <trkpt lat="44.26228" lon="1.73394">
        <ele>370.7</ele>
        <time>2023-01-26T15:08:01Z</time>
      </trkpt>
      <trkpt lat="44.26221" lon="1.7339">
        <ele>370.1</ele>
        <time>2023-01-26T15:08:02Z</time>
      </trkpt>
      <trkpt lat="44.26213" lon="1.73385">
        <ele>369.4</ele>
        <time>2023-01-26T15:08:03Z</time>
      </trkpt>
      <trkpt lat="44.26205" lon="1.73381">
        <ele>368.7</ele>
        <time>2023-01-26T15:08:04Z</time>
      </trkpt>
      <trkpt lat="44.26198" lon="1.73376">
        <ele>368</ele>
        <time>2023-01-26T15:08:05Z</time>
      </trkpt>
      <trkpt lat="44.26191" lon="1.7337">
        <ele>367.3</ele>
        <time>2023-01-26T15:08:06Z</time>
      </trkpt>
      <trkpt lat="44.26186" lon="1.73364">
        <ele>366.6</ele>
        <time>2023-01-26T15:08:07Z</time>
      </trkpt>
      <trkpt lat="44.26181" lon="1.73358">
        <ele>365.9</ele>
        <time>2023-01-26T15:08:08Z</time>
      </trkpt>
      <trkpt lat="44.26177" lon="1.73351">
        <ele>365.4</ele>
        <time>2023-01-26T15:08:09Z</time>
      </trkpt>
      <trkpt lat="44.26174" lon="1.73345">
        <ele>364.9</ele>
        <time>2023-01-26T15:08:10Z</time>
      </trkpt>
      <trkpt lat="44.26171" lon="1.73339">
        <ele>364.4</ele>
        <time>2023-01-26T15:08:11Z</time>
      </trkpt>
      <trkpt lat="44.26168" lon="1.73332">
        <ele>363.9</ele>
        <time>2023-01-26T15:08:12Z</time>
      </trkpt>
      <trkpt lat="44.26164" lon="1.73326">
        <ele>363.4</ele>
        <time>2023-01-26T15:08:13Z</time>
      </trkpt>
      <trkpt lat="44.26161" lon="1.73319">
        <ele>362.9</ele>
        <time>2023-01-26T15:08:14Z</time>
      </trkpt>
      <trkpt lat="44.26158" lon="1.73314">
        <ele>362.4</ele>
        <time>2023-01-26T15:08:15Z</time>
      </trkpt>
      <trkpt lat="44.26155" lon="1.73308">
        <ele>362</ele>
        <time>2023-01-26T15:08:16Z</time>
      </trkpt>
      <trkpt lat="44.26153" lon="1.73302">
        <ele>361.6</ele>
        <time>2023-01-26T15:08:17Z</time>
      </trkpt>
      <trkpt lat="44.26151" lon="1.73297">
        <ele>361.2</ele>
        <time>2023-01-26T15:08:18Z</time>
      </trkpt>
      <trkpt lat="44.26149" lon="1.73294">
        <ele>361</ele>
        <time>2023-01-26T15:08:19Z</time>
      </trkpt>
      <trkpt lat="44.26147" lon="1.73289">
        <ele>360.7</ele>
        <time>2023-01-26T15:08:20Z</time>
      </trkpt>
      <trkpt lat="44.26146" lon="1.73288">
        <ele>360.6</ele>
        <time>2023-01-26T15:08:21Z</time>
      </trkpt>
      <trkpt lat="44.26144" lon="1.73284">
        <ele>360.3</ele>
        <time>2023-01-26T15:08:22Z</time>
      </trkpt>
      <trkpt lat="44.26142" lon="1.73279">
        <ele>360</ele>
        <time>2023-01-26T15:08:23Z</time>
      </trkpt>
      <trkpt lat="44.26138" lon="1.73273">
        <ele>359.6</ele>
        <time>2023-01-26T15:08:24Z</time>
      </trkpt>
      <trkpt lat="44.26136" lon="1.73267">
        <ele>359.3</ele>
        <time>2023-01-26T15:08:25Z</time>
      </trkpt>
      <trkpt lat="44.26132" lon="1.73258">
        <ele>358.7</ele>
        <time>2023-01-26T15:08:26Z</time>
      </trkpt>
      <trkpt lat="44.2613" lon="1.73252">
        <ele>358.4</ele>
        <time>2023-01-26T15:08:27Z</time>
      </trkpt>
      <trkpt lat="44.26127" lon="1.73245">
        <ele>358</ele>
        <time>2023-01-26T15:08:28Z</time>
      </trkpt>
      <trkpt lat="44.26124" lon="1.73237">
        <ele>357.5</ele>
        <time>2023-01-26T15:08:29Z</time>
      </trkpt>
      <trkpt lat="44.26121" lon="1.73227">
        <ele>356.9</ele>
        <time>2023-01-26T15:08:30Z</time>
      </trkpt>
      <trkpt lat="44.26118" lon="1.7322">
        <ele>356.5</ele>
        <time>2023-01-26T15:08:31Z</time>
      </trkpt>
      <trkpt lat="44.26114" lon="1.73211">
        <ele>356.1</ele>
        <time>2023-01-26T15:08:32Z</time>
      </trkpt>
      <trkpt lat="44.26111" lon="1.73203">
        <ele>355.7</ele>
        <time>2023-01-26T15:08:33Z</time>
      </trkpt>
      <trkpt lat="44.26107" lon="1.73194">
        <ele>355.4</ele>
        <time>2023-01-26T15:08:34Z</time>
      </trkpt>
      <trkpt lat="44.26103" lon="1.73185">
        <ele>355.1</ele>
        <time>2023-01-26T15:08:35Z</time>
      </trkpt>
      <trkpt lat="44.261" lon="1.73176">
        <ele>354.7</ele>
        <time>2023-01-26T15:08:36Z</time>
      </trkpt>
      <trkpt lat="44.26096" lon="1.73166">
        <ele>354.5</ele>
        <time>2023-01-26T15:08:37Z</time>
      </trkpt>
      <trkpt lat="44.26093" lon="1.73157">
        <ele>354.2</ele>
        <time>2023-01-26T15:08:38Z</time>
      </trkpt>
      <trkpt lat="44.26089" lon="1.73148">
        <ele>354</ele>
        <time>2023-01-26T15:08:39Z</time>
      </trkpt>
      <trkpt lat="44.26085" lon="1.73139">
        <ele>353.8</ele>
        <time>2023-01-26T15:08:40Z</time>
      </trkpt>
      <trkpt lat="44.26081" lon="1.7313">
        <ele>353.7</ele>
        <time>2023-01-26T15:08:41Z</time>
      </trkpt>
      <trkpt lat="44.26078" lon="1.73121">
        <ele>353.7</ele>
        <time>2023-01-26T15:08:42Z</time>
      </trkpt>
      <trkpt lat="44.26074" lon="1.73112">
        <ele>353.7</ele>
        <time>2023-01-26T15:08:43Z</time>
      </trkpt>
      <trkpt lat="44.26071" lon="1.73104">
        <ele>353.8</ele>
        <time>2023-01-26T15:08:44Z</time>
      </trkpt>
      <trkpt lat="44.26068" lon="1.73096">
        <ele>353.9</ele>
        <time>2023-01-26T15:08:45Z</time>
      </trkpt>
      <trkpt lat="44.26065" lon="1.73088">
        <ele>354</ele>
        <time>2023-01-26T15:08:46Z</time>
      </trkpt>
      <trkpt lat="44.26062" lon="1.7308">
        <ele>354.1</ele>
        <time>2023-01-26T15:08:47Z</time>
      </trkpt>
      <trkpt lat="44.2606" lon="1.73074">
        <ele>354.2</ele>
        <time>2023-01-26T15:08:48Z</time>
      </trkpt>
      <trkpt lat="44.26058" lon="1.73068">
        <ele>354.3</ele>
        <time>2023-01-26T15:08:49Z</time>
      </trkpt>
      <trkpt lat="44.26055" lon="1.73061">
        <ele>354.3</ele>
        <time>2023-01-26T15:08:50Z</time>
      </trkpt>
      <trkpt lat="44.26053" lon="1.73055">
        <ele>354.4</ele>
        <time>2023-01-26T15:08:51Z</time>
      </trkpt>
      <trkpt lat="44.26052" lon="1.7305">
        <ele>354.4</ele>
        <time>2023-01-26T15:08:52Z</time>
      </trkpt>
      <trkpt lat="44.2605" lon="1.73044">
        <ele>354.4</ele>
        <time>2023-01-26T15:08:53Z</time>
      </trkpt>
      <trkpt lat="44.26049" lon="1.73038">
        <ele>354.4</ele>
        <time>2023-01-26T15:08:54Z</time>
      </trkpt>
      <trkpt lat="44.26048" lon="1.73032">
        <ele>354.4</ele>
        <time>2023-01-26T15:08:55Z</time>
      </trkpt>
      <trkpt lat="44.26047" lon="1.73026">
        <ele>354.3</ele>
        <time>2023-01-26T15:08:56Z</time>
      </trkpt>
      <trkpt lat="44.26049" lon="1.7302">
        <ele>354.2</ele>
        <time>2023-01-26T15:08:57Z</time>
      </trkpt>
      <trkpt lat="44.2605" lon="1.73017">
        <ele>354.1</ele>
        <time>2023-01-26T15:08:58Z</time>
      </trkpt>
      <trkpt lat="44.26053" lon="1.73014">
        <ele>354.1</ele>
        <time>2023-01-26T15:08:59Z</time>
      </trkpt>
      <trkpt lat="44.26056" lon="1.73009">
        <ele>354</ele>
        <time>2023-01-26T15:09:00Z</time>
      </trkpt>
      <trkpt lat="44.2606" lon="1.73004">
        <ele>354</ele>
        <time>2023-01-26T15:09:01Z</time>
      </trkpt>
      <trkpt lat="44.26066" lon="1.72997">
        <ele>354.1</ele>
        <time>2023-01-26T15:09:03Z</time>
      </trkpt>
      <trkpt lat="44.26071" lon="1.72989">
        <ele>354.1</ele>
        <time>2023-01-26T15:09:04Z</time>
      </trkpt>
      <trkpt lat="44.26075" lon="1.72984">
        <ele>354.1</ele>
        <time>2023-01-26T15:09:05Z</time>
      </trkpt>
      <trkpt lat="44.26079" lon="1.72979">
        <ele>354</ele>
        <time>2023-01-26T15:09:06Z</time>
      </trkpt>
      <trkpt lat="44.26083" lon="1.72974">
        <ele>353.9</ele>
        <time>2023-01-26T15:09:07Z</time>
      </trkpt>
      <trkpt lat="44.26086" lon="1.72969">
        <ele>353.9</ele>
        <time>2023-01-26T15:09:08Z</time>
      </trkpt>
      <trkpt lat="44.26089" lon="1.72965">
        <ele>353.9</ele>
        <time>2023-01-26T15:09:09Z</time>
      </trkpt>
      <trkpt lat="44.26091" lon="1.72961">
        <ele>353.9</ele>
        <time>2023-01-26T15:09:10Z</time>
      </trkpt>
      <trkpt lat="44.26095" lon="1.72956">
        <ele>353.9</ele>
        <time>2023-01-26T15:09:11Z</time>
      </trkpt>
      <trkpt lat="44.26098" lon="1.7295">
        <ele>353.9</ele>
        <time>2023-01-26T15:09:12Z</time>
      </trkpt>
      <trkpt lat="44.26101" lon="1.72945">
        <ele>353.9</ele>
        <time>2023-01-26T15:09:13Z</time>
      </trkpt>
      <trkpt lat="44.26103" lon="1.72943">
        <ele>353.7</ele>
      </trkpt>
      <trkpt lat="44.26105" lon="1.72939">
        <ele>353.9</ele>
        <time>2023-01-26T15:09:14Z</time>
      </trkpt>
      <trkpt lat="44.26108" lon="1.72933">
        <ele>353.9</ele>
        <time>2023-01-26T15:09:15Z</time>
      </trkpt>
      <trkpt lat="44.2611" lon="1.72927">
        <ele>353.9</ele>
        <time>2023-01-26T15:09:16Z</time>
      </trkpt>
      <trkpt lat="44.26113" lon="1.72921">
        <ele>354</ele>
        <time>2023-01-26T15:09:17Z</time>
      </trkpt>
      <trkpt lat="44.26115" lon="1.72915">
        <ele>354</ele>
        <time>2023-01-26T15:09:18Z</time>
      </trkpt>
      <trkpt lat="44.26118" lon="1.72908">
        <ele>354.1</ele>
        <time>2023-01-26T15:09:19Z</time>
      </trkpt>
      <trkpt lat="44.26121" lon="1.72902">
        <ele>354.2</ele>
        <time>2023-01-26T15:09:20Z</time>
      </trkpt>
      <trkpt lat="44.26123" lon="1.72896">
        <ele>354.2</ele>
        <time>2023-01-26T15:09:21Z</time>
      </trkpt>
      <trkpt lat="44.26126" lon="1.7289">
        <ele>354.2</ele>
        <time>2023-01-26T15:09:22Z</time>
      </trkpt>
      <trkpt lat="44.26129" lon="1.72884">
        <ele>354.2</ele>
        <time>2023-01-26T15:09:23Z</time>
      </trkpt>
      <trkpt lat="44.26131" lon="1.72877">
        <ele>354.3</ele>
        <time>2023-01-26T15:09:24Z</time>
      </trkpt>
      <trkpt lat="44.26133" lon="1.7287">
        <ele>354.4</ele>
        <time>2023-01-26T15:09:25Z</time>
      </trkpt>
      <trkpt lat="44.26136" lon="1.72864">
        <ele>354.5</ele>
        <time>2023-01-26T15:09:26Z</time>
      </trkpt>
      <trkpt lat="44.26138" lon="1.72858">
        <ele>354.6</ele>
        <time>2023-01-26T15:09:27Z</time>
      </trkpt>
      <trkpt lat="44.26141" lon="1.72851">
        <ele>354.7</ele>
        <time>2023-01-26T15:09:28Z</time>
      </trkpt>
      <trkpt lat="44.26144" lon="1.72845">
        <ele>354.8</ele>
        <time>2023-01-26T15:09:29Z</time>
      </trkpt>
      <trkpt lat="44.26148" lon="1.72838">
        <ele>354.9</ele>
        <time>2023-01-26T15:09:30Z</time>
      </trkpt>
      <trkpt lat="44.26151" lon="1.72833">
        <ele>355</ele>
        <time>2023-01-26T15:09:31Z</time>
      </trkpt>
      <trkpt lat="44.26154" lon="1.72827">
        <ele>355</ele>
        <time>2023-01-26T15:09:32Z</time>
      </trkpt>
      <trkpt lat="44.26157" lon="1.72822">
        <ele>355.1</ele>
        <time>2023-01-26T15:09:33Z</time>
      </trkpt>
      <trkpt lat="44.2616" lon="1.72817">
        <ele>355.1</ele>
        <time>2023-01-26T15:09:34Z</time>
      </trkpt>
      <trkpt lat="44.26164" lon="1.72812">
        <ele>355.1</ele>
        <time>2023-01-26T15:09:35Z</time>
      </trkpt>
      <trkpt lat="44.26167" lon="1.72807">
        <ele>355.1</ele>
        <time>2023-01-26T15:09:36Z</time>
      </trkpt>
      <trkpt lat="44.26171" lon="1.72804">
        <ele>355.2</ele>
        <time>2023-01-26T15:09:37Z</time>
      </trkpt>
      <trkpt lat="44.26176" lon="1.728">
        <ele>355.2</ele>
        <time>2023-01-26T15:09:38Z</time>
      </trkpt>
      <trkpt lat="44.2618" lon="1.72796">
        <ele>355.3</ele>
        <time>2023-01-26T15:09:39Z</time>
      </trkpt>
      <trkpt lat="44.26184" lon="1.72791">
        <ele>355.4</ele>
        <time>2023-01-26T15:09:40Z</time>
      </trkpt>
      <trkpt lat="44.26189" lon="1.72787">
        <ele>355.5</ele>
        <time>2023-01-26T15:09:41Z</time>
      </trkpt>
      <trkpt lat="44.26193" lon="1.72784">
        <ele>355.7</ele>
        <time>2023-01-26T15:09:42Z</time>
      </trkpt>
      <trkpt lat="44.26197" lon="1.7278">
        <ele>355.8</ele>
        <time>2023-01-26T15:09:43Z</time>
      </trkpt>
      <trkpt lat="44.26202" lon="1.72777">
        <ele>355.9</ele>
        <time>2023-01-26T15:09:44Z</time>
      </trkpt>
      <trkpt lat="44.26206" lon="1.72773">
        <ele>356</ele>
        <time>2023-01-26T15:09:45Z</time>
      </trkpt>
      <trkpt lat="44.2621" lon="1.7277">
        <ele>356.1</ele>
        <time>2023-01-26T15:09:46Z</time>
      </trkpt>
      <trkpt lat="44.26214" lon="1.72768">
        <ele>356.2</ele>
        <time>2023-01-26T15:09:47Z</time>
      </trkpt>
      <trkpt lat="44.26218" lon="1.72764">
        <ele>356.2</ele>
        <time>2023-01-26T15:09:48Z</time>
      </trkpt>
      <trkpt lat="44.26222" lon="1.72762">
        <ele>356.3</ele>
        <time>2023-01-26T15:09:49Z</time>
      </trkpt>
      <trkpt lat="44.26225" lon="1.7276">
        <ele>356.3</ele>
        <time>2023-01-26T15:09:50Z</time>
      </trkpt>
      <trkpt lat="44.26229" lon="1.72757">
        <ele>356.4</ele>
        <time>2023-01-26T15:09:51Z</time>
      </trkpt>
      <trkpt lat="44.26233" lon="1.72755">
        <ele>356.6</ele>
        <time>2023-01-26T15:09:52Z</time>
      </trkpt>
      <trkpt lat="44.26237" lon="1.72752">
        <ele>356.8</ele>
        <time>2023-01-26T15:09:53Z</time>
      </trkpt>
      <trkpt lat="44.26241" lon="1.7275">
        <ele>357.1</ele>
        <time>2023-01-26T15:09:54Z</time>
      </trkpt>
      <trkpt lat="44.26246" lon="1.72746">
        <ele>357.4</ele>
        <time>2023-01-26T15:09:55Z</time>
      </trkpt>
      <trkpt lat="44.26255" lon="1.72738">
        <ele>357.9</ele>
        <time>2023-01-26T15:09:57Z</time>
      </trkpt>
      <trkpt lat="44.26259" lon="1.72736">
        <ele>358</ele>
        <time>2023-01-26T15:09:59Z</time>
      </trkpt>
      <trkpt lat="44.26261" lon="1.72737">
        <ele>358</ele>
        <time>2023-01-26T15:10:01Z</time>
      </trkpt>
      <trkpt lat="44.26262" lon="1.72737">
        <ele>358</ele>
        <time>2023-01-26T15:10:02Z</time>
      </trkpt>
      <trkpt lat="44.26261" lon="1.72736">
        <ele>358.1</ele>
        <time>2023-01-26T15:10:03Z</time>
      </trkpt>
      <trkpt lat="44.26261" lon="1.72736">
        <ele>358.1</ele>
        <time>2023-01-26T15:10:04Z</time>
      </trkpt>
      <trkpt lat="44.26262" lon="1.72736">
        <ele>358.1</ele>
        <time>2023-01-26T15:10:06Z</time>
      </trkpt>
      <trkpt lat="44.26262" lon="1.72736">
        <ele>358.1</ele>
        <time>2023-01-26T15:10:08Z</time>
      </trkpt>
      <trkpt lat="44.26262" lon="1.72736">
        <ele>358.1</ele>
        <time>2023-01-26T15:10:09Z</time>
      </trkpt>
      <trkpt lat="44.26262" lon="1.72736">
        <ele>358.1</ele>
        <time>2023-01-26T15:10:10Z</time>
      </trkpt>
      <trkpt lat="44.26262" lon="1.72736">
        <ele>358.1</ele>
        <time>2023-01-26T15:10:12Z</time>
      </trkpt>
      <trkpt lat="44.26267" lon="1.72736">
        <ele>358.2</ele>
        <time>2023-01-26T15:10:42Z</time>
      </trkpt>
      <trkpt lat="44.26271" lon="1.72732">
        <ele>358.4</ele>
        <time>2023-01-26T15:10:44Z</time>
      </trkpt>
      <trkpt lat="44.26275" lon="1.72727">
        <ele>358.5</ele>
        <time>2023-01-26T15:10:45Z</time>
      </trkpt>
      <trkpt lat="44.26279" lon="1.72724">
        <ele>358.6</ele>
        <time>2023-01-26T15:10:46Z</time>
      </trkpt>
      <trkpt lat="44.26283" lon="1.72721">
        <ele>358.7</ele>
        <time>2023-01-26T15:10:47Z</time>
      </trkpt>
      <trkpt lat="44.26289" lon="1.72716">
        <ele>358.9</ele>
        <time>2023-01-26T15:10:48Z</time>
      </trkpt>
      <trkpt lat="44.26293" lon="1.72713">
        <ele>359</ele>
        <time>2023-01-26T15:10:49Z</time>
      </trkpt>
      <trkpt lat="44.263" lon="1.72709">
        <ele>359</ele>
        <time>2023-01-26T15:10:50Z</time>
      </trkpt>
      <trkpt lat="44.26304" lon="1.72707">
        <ele>359</ele>
        <time>2023-01-26T15:10:51Z</time>
      </trkpt>
      <trkpt lat="44.2631" lon="1.72704">
        <ele>359</ele>
        <time>2023-01-26T15:10:53Z</time>
      </trkpt>
      <trkpt lat="44.26315" lon="1.72702">
        <ele>359</ele>
        <time>2023-01-26T15:10:54Z</time>
      </trkpt>
      <trkpt lat="44.2632" lon="1.72699">
        <ele>359</ele>
        <time>2023-01-26T15:10:55Z</time>
      </trkpt>
      <trkpt lat="44.26329" lon="1.72696">
        <ele>359.1</ele>
        <time>2023-01-26T15:10:57Z</time>
      </trkpt>
      <trkpt lat="44.26334" lon="1.72694">
        <ele>359.4</ele>
        <time>2023-01-26T15:10:58Z</time>
      </trkpt>
      <trkpt lat="44.26339" lon="1.72692">
        <ele>359.6</ele>
        <time>2023-01-26T15:10:59Z</time>
      </trkpt>
      <trkpt lat="44.26344" lon="1.7269">
        <ele>359.9</ele>
        <time>2023-01-26T15:11:00Z</time>
      </trkpt>
      <trkpt lat="44.26349" lon="1.72688">
        <ele>360.1</ele>
        <time>2023-01-26T15:11:01Z</time>
      </trkpt>
      <trkpt lat="44.26354" lon="1.72688">
        <ele>360.4</ele>
        <time>2023-01-26T15:11:02Z</time>
      </trkpt>
      <trkpt lat="44.26363" lon="1.72685">
        <ele>360.8</ele>
        <time>2023-01-26T15:11:04Z</time>
      </trkpt>
      <trkpt lat="44.26368" lon="1.72684">
        <ele>361</ele>
        <time>2023-01-26T15:11:05Z</time>
      </trkpt>
      <trkpt lat="44.26373" lon="1.72683">
        <ele>361.3</ele>
        <time>2023-01-26T15:11:06Z</time>
      </trkpt>
      <trkpt lat="44.26377" lon="1.72681">
        <ele>361.6</ele>
        <time>2023-01-26T15:11:07Z</time>
      </trkpt>
      <trkpt lat="44.26384" lon="1.72682">
        <ele>362.1</ele>
        <time>2023-01-26T15:11:08Z</time>
      </trkpt>
      <trkpt lat="44.2639" lon="1.7268">
        <ele>362.6</ele>
        <time>2023-01-26T15:11:10Z</time>
      </trkpt>
      <trkpt lat="44.26396" lon="1.72676">
        <ele>363.1</ele>
        <time>2023-01-26T15:11:11Z</time>
      </trkpt>
      <trkpt lat="44.26401" lon="1.72675">
        <ele>363.5</ele>
        <time>2023-01-26T15:11:12Z</time>
      </trkpt>
      <trkpt lat="44.26405" lon="1.72675">
        <ele>363.9</ele>
        <time>2023-01-26T15:11:14Z</time>
      </trkpt>
      <trkpt lat="44.26412" lon="1.72673">
        <ele>364.4</ele>
        <time>2023-01-26T15:11:15Z</time>
      </trkpt>
      <trkpt lat="44.26416" lon="1.72672">
        <ele>364.7</ele>
        <time>2023-01-26T15:11:17Z</time>
      </trkpt>
      <trkpt lat="44.2642" lon="1.7267">
        <ele>364.9</ele>
        <time>2023-01-26T15:11:18Z</time>
      </trkpt>
      <trkpt lat="44.26426" lon="1.72668">
        <ele>365.2</ele>
        <time>2023-01-26T15:11:19Z</time>
      </trkpt>
      <trkpt lat="44.26431" lon="1.72666">
        <ele>365.3</ele>
        <time>2023-01-26T15:11:21Z</time>
      </trkpt>
      <trkpt lat="44.26434" lon="1.72665">
        <ele>365.4</ele>
        <time>2023-01-26T15:11:22Z</time>
      </trkpt>
      <trkpt lat="44.26438" lon="1.72665">
        <ele>365.6</ele>
        <time>2023-01-26T15:11:23Z</time>
      </trkpt>
      <trkpt lat="44.26444" lon="1.72664">
        <ele>365.8</ele>
        <time>2023-01-26T15:11:24Z</time>
      </trkpt>
      <trkpt lat="44.26447" lon="1.72664">
        <ele>366</ele>
        <time>2023-01-26T15:11:25Z</time>
      </trkpt>
      <trkpt lat="44.26451" lon="1.72661">
        <ele>366</ele>
        <time>2023-01-26T15:11:27Z</time>
      </trkpt>
      <trkpt lat="44.26452" lon="1.72659">
        <ele>365.9</ele>
        <time>2023-01-26T15:11:28Z</time>
      </trkpt>
      <trkpt lat="44.26453" lon="1.72658">
        <ele>365.8</ele>
        <time>2023-01-26T15:11:29Z</time>
      </trkpt>
      <trkpt lat="44.2645" lon="1.72653">
        <ele>365.7</ele>
        <time>2023-01-26T15:11:30Z</time>
      </trkpt>
      <trkpt lat="44.26447" lon="1.72649">
        <ele>365.5</ele>
        <time>2023-01-26T15:11:31Z</time>
      </trkpt>
      <trkpt lat="44.26446" lon="1.72645">
        <ele>365.3</ele>
        <time>2023-01-26T15:11:33Z</time>
      </trkpt>
      <trkpt lat="44.26444" lon="1.7264">
        <ele>365.1</ele>
        <time>2023-01-26T15:11:34Z</time>
      </trkpt>
      <trkpt lat="44.26441" lon="1.72635">
        <ele>364.7</ele>
        <time>2023-01-26T15:11:35Z</time>
      </trkpt>
      <trkpt lat="44.26438" lon="1.72629">
        <ele>364.1</ele>
        <time>2023-01-26T15:11:36Z</time>
      </trkpt>
      <trkpt lat="44.26436" lon="1.72623">
        <ele>363.5</ele>
        <time>2023-01-26T15:11:38Z</time>
      </trkpt>
      <trkpt lat="44.26434" lon="1.72619">
        <ele>363</ele>
        <time>2023-01-26T15:11:39Z</time>
      </trkpt>
      <trkpt lat="44.26434" lon="1.72612">
        <ele>362.1</ele>
        <time>2023-01-26T15:11:40Z</time>
      </trkpt>
      <trkpt lat="44.26434" lon="1.72607">
        <ele>361.5</ele>
        <time>2023-01-26T15:11:41Z</time>
      </trkpt>
      <trkpt lat="44.26433" lon="1.726">
        <ele>360.8</ele>
        <time>2023-01-26T15:11:42Z</time>
      </trkpt>
      <trkpt lat="44.26434" lon="1.72594">
        <ele>360.4</ele>
        <time>2023-01-26T15:11:43Z</time>
      </trkpt>
      <trkpt lat="44.26434" lon="1.72589">
        <ele>360.2</ele>
        <time>2023-01-26T15:11:44Z</time>
      </trkpt>
      <trkpt lat="44.26435" lon="1.72583">
        <ele>360</ele>
        <time>2023-01-26T15:11:46Z</time>
      </trkpt>
      <trkpt lat="44.26435" lon="1.72577">
        <ele>359.9</ele>
        <time>2023-01-26T15:11:47Z</time>
      </trkpt>
      <trkpt lat="44.26436" lon="1.72572">
        <ele>359.7</ele>
        <time>2023-01-26T15:11:48Z</time>
      </trkpt>
      <trkpt lat="44.26435" lon="1.72566">
        <ele>359.5</ele>
        <time>2023-01-26T15:11:49Z</time>
      </trkpt>
      <trkpt lat="44.26434" lon="1.72561">
        <ele>359.2</ele>
        <time>2023-01-26T15:11:50Z</time>
      </trkpt>
      <trkpt lat="44.26432" lon="1.72557">
        <ele>358.8</ele>
        <time>2023-01-26T15:11:52Z</time>
      </trkpt>
      <trkpt lat="44.26431" lon="1.72553">
        <ele>358.5</ele>
        <time>2023-01-26T15:11:53Z</time>
      </trkpt>
      <trkpt lat="44.2643" lon="1.72548">
        <ele>358.2</ele>
        <time>2023-01-26T15:11:54Z</time>
      </trkpt>
      <trkpt lat="44.2643" lon="1.72542">
        <ele>357.9</ele>
        <time>2023-01-26T15:11:55Z</time>
      </trkpt>
      <trkpt lat="44.2643" lon="1.72535">
        <ele>357.5</ele>
        <time>2023-01-26T15:11:56Z</time>
      </trkpt>
      <trkpt lat="44.2643" lon="1.72528">
        <ele>357.2</ele>
        <time>2023-01-26T15:11:57Z</time>
      </trkpt>
      <trkpt lat="44.26429" lon="1.72521">
        <ele>356.9</ele>
        <time>2023-01-26T15:11:58Z</time>
      </trkpt>
      <trkpt lat="44.26429" lon="1.72514">
        <ele>356.6</ele>
        <time>2023-01-26T15:12:00Z</time>
      </trkpt>
      <trkpt lat="44.26428" lon="1.72507">
        <ele>356.3</ele>
        <time>2023-01-26T15:12:01Z</time>
      </trkpt>
      <trkpt lat="44.26427" lon="1.725">
        <ele>356.1</ele>
        <time>2023-01-26T15:12:02Z</time>
      </trkpt>
      <trkpt lat="44.26426" lon="1.72493">
        <ele>356</ele>
        <time>2023-01-26T15:12:03Z</time>
      </trkpt>
      <trkpt lat="44.26426" lon="1.72486">
        <ele>356</ele>
        <time>2023-01-26T15:12:04Z</time>
      </trkpt>
      <trkpt lat="44.26425" lon="1.72478">
        <ele>356.1</ele>
        <time>2023-01-26T15:12:05Z</time>
      </trkpt>
      <trkpt lat="44.26424" lon="1.72471">
        <ele>356.2</ele>
        <time>2023-01-26T15:12:06Z</time>
      </trkpt>
      <trkpt lat="44.26424" lon="1.72465">
        <ele>356.2</ele>
        <time>2023-01-26T15:12:07Z</time>
      </trkpt>
      <trkpt lat="44.26423" lon="1.72458">
        <ele>356.1</ele>
        <time>2023-01-26T15:12:08Z</time>
      </trkpt>
      <trkpt lat="44.26423" lon="1.72452">
        <ele>355.9</ele>
        <time>2023-01-26T15:12:09Z</time>
      </trkpt>
      <trkpt lat="44.26423" lon="1.72446">
        <ele>355.6</ele>
        <time>2023-01-26T15:12:10Z</time>
      </trkpt>
      <trkpt lat="44.26422" lon="1.72439">
        <ele>355.4</ele>
        <time>2023-01-26T15:12:11Z</time>
      </trkpt>
      <trkpt lat="44.26421" lon="1.72432">
        <ele>355.3</ele>
        <time>2023-01-26T15:12:12Z</time>
      </trkpt>
      <trkpt lat="44.2642" lon="1.72425">
        <ele>355.2</ele>
        <time>2023-01-26T15:12:13Z</time>
      </trkpt>
      <trkpt lat="44.2642" lon="1.72417">
        <ele>355.1</ele>
        <time>2023-01-26T15:12:14Z</time>
      </trkpt>
      <trkpt lat="44.2642" lon="1.72409">
        <ele>355</ele>
        <time>2023-01-26T15:12:15Z</time>
      </trkpt>
      <trkpt lat="44.26421" lon="1.72402">
        <ele>355</ele>
        <time>2023-01-26T15:12:16Z</time>
      </trkpt>
      <trkpt lat="44.2642" lon="1.72394">
        <ele>354.9</ele>
        <time>2023-01-26T15:12:17Z</time>
      </trkpt>
      <trkpt lat="44.2642" lon="1.72387">
        <ele>354.8</ele>
        <time>2023-01-26T15:12:18Z</time>
      </trkpt>
      <trkpt lat="44.2642" lon="1.72379">
        <ele>354.6</ele>
        <time>2023-01-26T15:12:19Z</time>
      </trkpt>
      <trkpt lat="44.2642" lon="1.72371">
        <ele>354.3</ele>
        <time>2023-01-26T15:12:20Z</time>
      </trkpt>
      <trkpt lat="44.26419" lon="1.72364">
        <ele>354</ele>
        <time>2023-01-26T15:12:21Z</time>
      </trkpt>
      <trkpt lat="44.26419" lon="1.72356">
        <ele>353.7</ele>
        <time>2023-01-26T15:12:22Z</time>
      </trkpt>
      <trkpt lat="44.26417" lon="1.72349">
        <ele>353.5</ele>
        <time>2023-01-26T15:12:23Z</time>
      </trkpt>
      <trkpt lat="44.26414" lon="1.72343">
        <ele>353.3</ele>
        <time>2023-01-26T15:12:24Z</time>
      </trkpt>
      <trkpt lat="44.26411" lon="1.72336">
        <ele>353.2</ele>
        <time>2023-01-26T15:12:25Z</time>
      </trkpt>
      <trkpt lat="44.26408" lon="1.7233">
        <ele>353.1</ele>
        <time>2023-01-26T15:12:26Z</time>
      </trkpt>
      <trkpt lat="44.26405" lon="1.72324">
        <ele>353</ele>
        <time>2023-01-26T15:12:27Z</time>
      </trkpt>
      <trkpt lat="44.26402" lon="1.72318">
        <ele>352.9</ele>
        <time>2023-01-26T15:12:28Z</time>
      </trkpt>
      <trkpt lat="44.26398" lon="1.72312">
        <ele>352.8</ele>
        <time>2023-01-26T15:12:29Z</time>
      </trkpt>
      <trkpt lat="44.26395" lon="1.72307">
        <ele>352.6</ele>
        <time>2023-01-26T15:12:30Z</time>
      </trkpt>
      <trkpt lat="44.26392" lon="1.72303">
        <ele>352.6</ele>
        <time>2023-01-26T15:12:31Z</time>
      </trkpt>
      <trkpt lat="44.2639" lon="1.723">
        <ele>352.5</ele>
        <time>2023-01-26T15:12:32Z</time>
      </trkpt>
      <trkpt lat="44.26388" lon="1.72295">
        <ele>352.4</ele>
        <time>2023-01-26T15:12:33Z</time>
      </trkpt>
      <trkpt lat="44.26386" lon="1.7229">
        <ele>352.3</ele>
        <time>2023-01-26T15:12:34Z</time>
      </trkpt>
      <trkpt lat="44.26384" lon="1.72282">
        <ele>352.2</ele>
        <time>2023-01-26T15:12:35Z</time>
      </trkpt>
      <trkpt lat="44.26382" lon="1.72274">
        <ele>352.2</ele>
        <time>2023-01-26T15:12:36Z</time>
      </trkpt>
      <trkpt lat="44.2638" lon="1.72268">
        <ele>352.1</ele>
        <time>2023-01-26T15:12:37Z</time>
      </trkpt>
      <trkpt lat="44.26378" lon="1.72261">
        <ele>352.1</ele>
        <time>2023-01-26T15:12:38Z</time>
      </trkpt>
      <trkpt lat="44.26376" lon="1.72255">
        <ele>352</ele>
        <time>2023-01-26T15:12:39Z</time>
      </trkpt>
      <trkpt lat="44.26374" lon="1.72249">
        <ele>352</ele>
        <time>2023-01-26T15:12:40Z</time>
      </trkpt>
      <trkpt lat="44.26371" lon="1.72243">
        <ele>351.9</ele>
        <time>2023-01-26T15:12:41Z</time>
      </trkpt>
      <trkpt lat="44.26368" lon="1.72236">
        <ele>351.8</ele>
        <time>2023-01-26T15:12:42Z</time>
      </trkpt>
      <trkpt lat="44.26366" lon="1.7223">
        <ele>351.7</ele>
        <time>2023-01-26T15:12:43Z</time>
      </trkpt>
      <trkpt lat="44.26363" lon="1.72225">
        <ele>351.6</ele>
        <time>2023-01-26T15:12:44Z</time>
      </trkpt>
      <trkpt lat="44.26361" lon="1.72219">
        <ele>351.5</ele>
        <time>2023-01-26T15:12:45Z</time>
      </trkpt>
      <trkpt lat="44.26359" lon="1.72212">
        <ele>351.3</ele>
        <time>2023-01-26T15:12:46Z</time>
      </trkpt>
      <trkpt lat="44.26357" lon="1.72206">
        <ele>351.2</ele>
        <time>2023-01-26T15:12:47Z</time>
      </trkpt>
      <trkpt lat="44.26355" lon="1.72199">
        <ele>351.1</ele>
        <time>2023-01-26T15:12:48Z</time>
      </trkpt>
      <trkpt lat="44.26352" lon="1.72193">
        <ele>351</ele>
        <time>2023-01-26T15:12:49Z</time>
      </trkpt>
      <trkpt lat="44.2635" lon="1.72187">
        <ele>350.9</ele>
        <time>2023-01-26T15:12:50Z</time>
      </trkpt>
      <trkpt lat="44.26348" lon="1.72181">
        <ele>350.8</ele>
        <time>2023-01-26T15:12:51Z</time>
      </trkpt>
      <trkpt lat="44.26346" lon="1.72175">
        <ele>350.7</ele>
        <time>2023-01-26T15:12:52Z</time>
      </trkpt>
      <trkpt lat="44.26344" lon="1.72169">
        <ele>350.8</ele>
        <time>2023-01-26T15:12:53Z</time>
      </trkpt>
      <trkpt lat="44.26342" lon="1.72163">
        <ele>350.9</ele>
        <time>2023-01-26T15:12:54Z</time>
      </trkpt>
      <trkpt lat="44.2634" lon="1.72157">
        <ele>350.9</ele>
        <time>2023-01-26T15:12:55Z</time>
      </trkpt>
      <trkpt lat="44.26337" lon="1.72151">
        <ele>350.9</ele>
        <time>2023-01-26T15:12:56Z</time>
      </trkpt>
      <trkpt lat="44.26334" lon="1.72146">
        <ele>350.9</ele>
        <time>2023-01-26T15:12:57Z</time>
      </trkpt>
      <trkpt lat="44.26332" lon="1.72141">
        <ele>350.8</ele>
        <time>2023-01-26T15:12:58Z</time>
      </trkpt>
      <trkpt lat="44.26329" lon="1.72135">
        <ele>350.7</ele>
        <time>2023-01-26T15:12:59Z</time>
      </trkpt>
      <trkpt lat="44.26328" lon="1.72132">
        <ele>350.7</ele>
        <time>2023-01-26T15:13:00Z</time>
      </trkpt>
      <trkpt lat="44.26326" lon="1.72128">
        <ele>350.8</ele>
        <time>2023-01-26T15:13:01Z</time>
      </trkpt>
      <trkpt lat="44.26324" lon="1.72124">
        <ele>350.8</ele>
        <time>2023-01-26T15:13:02Z</time>
      </trkpt>
      <trkpt lat="44.26322" lon="1.7212">
        <ele>350.9</ele>
        <time>2023-01-26T15:13:03Z</time>
      </trkpt>
      <trkpt lat="44.2632" lon="1.72116">
        <ele>351</ele>
        <time>2023-01-26T15:13:04Z</time>
      </trkpt>
      <trkpt lat="44.26318" lon="1.72111">
        <ele>351.2</ele>
        <time>2023-01-26T15:13:05Z</time>
      </trkpt>
      <trkpt lat="44.26316" lon="1.72105">
        <ele>351.4</ele>
        <time>2023-01-26T15:13:07Z</time>
      </trkpt>
      <trkpt lat="44.26315" lon="1.721">
        <ele>351.6</ele>
        <time>2023-01-26T15:13:08Z</time>
      </trkpt>
      <trkpt lat="44.2631" lon="1.72089">
        <ele>352.2</ele>
        <time>2023-01-26T15:13:10Z</time>
      </trkpt>
      <trkpt lat="44.26308" lon="1.72083">
        <ele>352.4</ele>
        <time>2023-01-26T15:13:12Z</time>
      </trkpt>
      <trkpt lat="44.26307" lon="1.72078">
        <ele>352.7</ele>
        <time>2023-01-26T15:13:13Z</time>
      </trkpt>
      <trkpt lat="44.26308" lon="1.72072">
        <ele>353</ele>
        <time>2023-01-26T15:13:14Z</time>
      </trkpt>
      <trkpt lat="44.26309" lon="1.72066">
        <ele>353.4</ele>
        <time>2023-01-26T15:13:16Z</time>
      </trkpt>
      <trkpt lat="44.26309" lon="1.72057">
        <ele>353.9</ele>
        <time>2023-01-26T15:13:17Z</time>
      </trkpt>
      <trkpt lat="44.26307" lon="1.72053">
        <ele>354.2</ele>
        <time>2023-01-26T15:13:19Z</time>
      </trkpt>
      <trkpt lat="44.26303" lon="1.7205">
        <ele>354.5</ele>
        <time>2023-01-26T15:13:20Z</time>
      </trkpt>
      <trkpt lat="44.263" lon="1.72048">
        <ele>354.7</ele>
        <time>2023-01-26T15:13:21Z</time>
      </trkpt>
      <trkpt lat="44.26298" lon="1.72047">
        <ele>354.9</ele>
        <time>2023-01-26T15:13:22Z</time>
      </trkpt>
      <trkpt lat="44.26294" lon="1.72045">
        <ele>355</ele>
        <time>2023-01-26T15:13:24Z</time>
      </trkpt>
      <trkpt lat="44.26291" lon="1.72042">
        <ele>355.1</ele>
        <time>2023-01-26T15:13:25Z</time>
      </trkpt>
      <trkpt lat="44.26287" lon="1.7204">
        <ele>355.2</ele>
        <time>2023-01-26T15:13:26Z</time>
      </trkpt>
      <trkpt lat="44.26284" lon="1.72038">
        <ele>355.3</ele>
        <time>2023-01-26T15:13:27Z</time>
      </trkpt>
      <trkpt lat="44.26278" lon="1.72033">
        <ele>355.4</ele>
        <time>2023-01-26T15:13:28Z</time>
      </trkpt>
      <trkpt lat="44.26274" lon="1.72031">
        <ele>355.5</ele>
        <time>2023-01-26T15:13:29Z</time>
      </trkpt>
      <trkpt lat="44.2627" lon="1.72028">
        <ele>355.5</ele>
        <time>2023-01-26T15:13:30Z</time>
      </trkpt>
      <trkpt lat="44.26264" lon="1.72026">
        <ele>355.6</ele>
        <time>2023-01-26T15:13:32Z</time>
      </trkpt>
      <trkpt lat="44.26259" lon="1.72024">
        <ele>355.7</ele>
        <time>2023-01-26T15:13:33Z</time>
      </trkpt>
      <trkpt lat="44.26254" lon="1.72023">
        <ele>355.7</ele>
        <time>2023-01-26T15:13:34Z</time>
      </trkpt>
      <trkpt lat="44.26249" lon="1.72021">
        <ele>355.8</ele>
        <time>2023-01-26T15:13:35Z</time>
      </trkpt>
      <trkpt lat="44.26242" lon="1.72018">
        <ele>355.9</ele>
        <time>2023-01-26T15:13:37Z</time>
      </trkpt>
      <trkpt lat="44.26238" lon="1.72016">
        <ele>356</ele>
        <time>2023-01-26T15:13:38Z</time>
      </trkpt>
      <trkpt lat="44.26234" lon="1.72015">
        <ele>356.1</ele>
        <time>2023-01-26T15:13:39Z</time>
      </trkpt>
      <trkpt lat="44.26229" lon="1.72012">
        <ele>356.3</ele>
        <time>2023-01-26T15:13:40Z</time>
      </trkpt>
      <trkpt lat="44.26225" lon="1.7201">
        <ele>356.5</ele>
        <time>2023-01-26T15:13:41Z</time>
      </trkpt>
      <trkpt lat="44.26221" lon="1.72006">
        <ele>356.7</ele>
        <time>2023-01-26T15:13:43Z</time>
      </trkpt>
      <trkpt lat="44.26217" lon="1.72003">
        <ele>356.9</ele>
        <time>2023-01-26T15:13:44Z</time>
      </trkpt>
      <trkpt lat="44.26214" lon="1.71999">
        <ele>357</ele>
        <time>2023-01-26T15:13:45Z</time>
      </trkpt>
      <trkpt lat="44.2621" lon="1.71994">
        <ele>357.1</ele>
        <time>2023-01-26T15:13:46Z</time>
      </trkpt>
      <trkpt lat="44.26206" lon="1.71988">
        <ele>357.3</ele>
        <time>2023-01-26T15:13:47Z</time>
      </trkpt>
      <trkpt lat="44.26202" lon="1.71984">
        <ele>357.5</ele>
        <time>2023-01-26T15:13:48Z</time>
      </trkpt>
      <trkpt lat="44.26197" lon="1.71976">
        <ele>357.7</ele>
        <time>2023-01-26T15:13:50Z</time>
      </trkpt>
      <trkpt lat="44.26191" lon="1.71969">
        <ele>357.9</ele>
        <time>2023-01-26T15:13:51Z</time>
      </trkpt>
      <trkpt lat="44.26187" lon="1.71964">
        <ele>358.1</ele>
        <time>2023-01-26T15:13:53Z</time>
      </trkpt>
      <trkpt lat="44.26183" lon="1.71959">
        <ele>358.2</ele>
        <time>2023-01-26T15:13:54Z</time>
      </trkpt>
      <trkpt lat="44.2618" lon="1.71954">
        <ele>358.4</ele>
        <time>2023-01-26T15:13:55Z</time>
      </trkpt>
      <trkpt lat="44.26173" lon="1.71945">
        <ele>358.7</ele>
        <time>2023-01-26T15:13:57Z</time>
      </trkpt>
      <trkpt lat="44.2617" lon="1.71941">
        <ele>358.9</ele>
        <time>2023-01-26T15:13:58Z</time>
      </trkpt>
      <trkpt lat="44.26166" lon="1.71938">
        <ele>359.1</ele>
        <time>2023-01-26T15:13:59Z</time>
      </trkpt>
      <trkpt lat="44.26161" lon="1.71931">
        <ele>359.3</ele>
        <time>2023-01-26T15:14:01Z</time>
      </trkpt>
      <trkpt lat="44.26155" lon="1.71925">
        <ele>359.4</ele>
        <time>2023-01-26T15:14:03Z</time>
      </trkpt>
      <trkpt lat="44.26151" lon="1.71922">
        <ele>359.4</ele>
        <time>2023-01-26T15:14:04Z</time>
      </trkpt>
      <trkpt lat="44.26148" lon="1.71919">
        <ele>359.4</ele>
        <time>2023-01-26T15:14:05Z</time>
      </trkpt>
      <trkpt lat="44.26142" lon="1.71914">
        <ele>359.6</ele>
        <time>2023-01-26T15:14:07Z</time>
      </trkpt>
      <trkpt lat="44.26138" lon="1.71911">
        <ele>359.7</ele>
        <time>2023-01-26T15:14:08Z</time>
      </trkpt>
      <trkpt lat="44.26134" lon="1.71908">
        <ele>359.7</ele>
        <time>2023-01-26T15:14:09Z</time>
      </trkpt>
      <trkpt lat="44.26131" lon="1.719">
        <ele>359.8</ele>
        <time>2023-01-26T15:14:10Z</time>
      </trkpt>
      <trkpt lat="44.26131" lon="1.71891">
        <ele>359.8</ele>
        <time>2023-01-26T15:14:12Z</time>
      </trkpt>
      <trkpt lat="44.26131" lon="1.71885">
        <ele>359.9</ele>
        <time>2023-01-26T15:14:13Z</time>
      </trkpt>
      <trkpt lat="44.2613" lon="1.71873">
        <ele>360.1</ele>
        <time>2023-01-26T15:14:15Z</time>
      </trkpt>
      <trkpt lat="44.2613" lon="1.71868">
        <ele>360.1</ele>
        <time>2023-01-26T15:14:16Z</time>
      </trkpt>
      <trkpt lat="44.26129" lon="1.71856">
        <ele>360.3</ele>
        <time>2023-01-26T15:14:18Z</time>
      </trkpt>
      <trkpt lat="44.26129" lon="1.71847">
        <ele>360.4</ele>
        <time>2023-01-26T15:14:19Z</time>
      </trkpt>
      <trkpt lat="44.26129" lon="1.71837">
        <ele>360.5</ele>
        <time>2023-01-26T15:14:21Z</time>
      </trkpt>
      <trkpt lat="44.26129" lon="1.7183">
        <ele>360.6</ele>
        <time>2023-01-26T15:14:22Z</time>
      </trkpt>
      <trkpt lat="44.26129" lon="1.71825">
        <ele>360.7</ele>
        <time>2023-01-26T15:14:23Z</time>
      </trkpt>
      <trkpt lat="44.26129" lon="1.71813">
        <ele>360.8</ele>
        <time>2023-01-26T15:14:25Z</time>
      </trkpt>
      <trkpt lat="44.26129" lon="1.71807">
        <ele>360.8</ele>
        <time>2023-01-26T15:14:27Z</time>
      </trkpt>
      <trkpt lat="44.2613" lon="1.718">
        <ele>360.8</ele>
        <time>2023-01-26T15:14:28Z</time>
      </trkpt>
      <trkpt lat="44.26131" lon="1.71792">
        <ele>360.9</ele>
        <time>2023-01-26T15:14:29Z</time>
      </trkpt>
      <trkpt lat="44.26131" lon="1.71785">
        <ele>360.9</ele>
        <time>2023-01-26T15:14:30Z</time>
      </trkpt>
      <trkpt lat="44.26131" lon="1.71776">
        <ele>361</ele>
        <time>2023-01-26T15:14:31Z</time>
      </trkpt>
      <trkpt lat="44.2613" lon="1.71769">
        <ele>361</ele>
        <time>2023-01-26T15:14:32Z</time>
      </trkpt>
      <trkpt lat="44.2613" lon="1.71762">
        <ele>361</ele>
        <time>2023-01-26T15:14:34Z</time>
      </trkpt>
      <trkpt lat="44.26129" lon="1.71755">
        <ele>361</ele>
        <time>2023-01-26T15:14:35Z</time>
      </trkpt>
      <trkpt lat="44.26129" lon="1.71749">
        <ele>361</ele>
        <time>2023-01-26T15:14:36Z</time>
      </trkpt>
      <trkpt lat="44.2613" lon="1.71741">
        <ele>361</ele>
        <time>2023-01-26T15:14:37Z</time>
      </trkpt>
      <trkpt lat="44.26129" lon="1.71733">
        <ele>361</ele>
        <time>2023-01-26T15:14:38Z</time>
      </trkpt>
      <trkpt lat="44.26131" lon="1.71719">
        <ele>361.1</ele>
        <time>2023-01-26T15:14:40Z</time>
      </trkpt>
      <trkpt lat="44.26131" lon="1.71711">
        <ele>361.1</ele>
        <time>2023-01-26T15:14:41Z</time>
      </trkpt>
      <trkpt lat="44.26131" lon="1.71706">
        <ele>361.1</ele>
        <time>2023-01-26T15:14:42Z</time>
      </trkpt>
      <trkpt lat="44.26132" lon="1.71695">
        <ele>361.1</ele>
        <time>2023-01-26T15:14:43Z</time>
      </trkpt>
      <trkpt lat="44.26132" lon="1.71687">
        <ele>361</ele>
        <time>2023-01-26T15:14:44Z</time>
      </trkpt>
      <trkpt lat="44.26133" lon="1.71679">
        <ele>361</ele>
        <time>2023-01-26T15:14:46Z</time>
      </trkpt>
      <trkpt lat="44.26133" lon="1.71671">
        <ele>361</ele>
        <time>2023-01-26T15:14:47Z</time>
      </trkpt>
      <trkpt lat="44.26134" lon="1.71664">
        <ele>361</ele>
        <time>2023-01-26T15:14:48Z</time>
      </trkpt>
      <trkpt lat="44.26133" lon="1.71657">
        <ele>361</ele>
        <time>2023-01-26T15:14:49Z</time>
      </trkpt>
      <trkpt lat="44.26134" lon="1.7165">
        <ele>361</ele>
        <time>2023-01-26T15:14:50Z</time>
      </trkpt>
      <trkpt lat="44.26134" lon="1.71643">
        <ele>361.1</ele>
        <time>2023-01-26T15:14:51Z</time>
      </trkpt>
      <trkpt lat="44.26135" lon="1.71635">
        <ele>361.1</ele>
        <time>2023-01-26T15:14:52Z</time>
      </trkpt>
      <trkpt lat="44.26135" lon="1.71628">
        <ele>361.2</ele>
        <time>2023-01-26T15:14:53Z</time>
      </trkpt>
      <trkpt lat="44.26136" lon="1.71621">
        <ele>361.3</ele>
        <time>2023-01-26T15:14:54Z</time>
      </trkpt>
      <trkpt lat="44.26137" lon="1.71614">
        <ele>361.4</ele>
        <time>2023-01-26T15:14:55Z</time>
      </trkpt>
      <trkpt lat="44.26137" lon="1.71607">
        <ele>361.5</ele>
        <time>2023-01-26T15:14:56Z</time>
      </trkpt>
      <trkpt lat="44.26137" lon="1.716">
        <ele>361.7</ele>
        <time>2023-01-26T15:14:57Z</time>
      </trkpt>
      <trkpt lat="44.26138" lon="1.71593">
        <ele>361.9</ele>
        <time>2023-01-26T15:14:58Z</time>
      </trkpt>
      <trkpt lat="44.26138" lon="1.71587">
        <ele>362</ele>
        <time>2023-01-26T15:14:59Z</time>
      </trkpt>
      <trkpt lat="44.26138" lon="1.7158">
        <ele>362.1</ele>
        <time>2023-01-26T15:15:00Z</time>
      </trkpt>
      <trkpt lat="44.26139" lon="1.71573">
        <ele>362.2</ele>
        <time>2023-01-26T15:15:01Z</time>
      </trkpt>
      <trkpt lat="44.2614" lon="1.71569">
        <ele>362.1</ele>
        <time>2023-01-26T15:15:02Z</time>
      </trkpt>
      <trkpt lat="44.26141" lon="1.71563">
        <ele>362.1</ele>
        <time>2023-01-26T15:15:03Z</time>
      </trkpt>
      <trkpt lat="44.26141" lon="1.71557">
        <ele>362</ele>
        <time>2023-01-26T15:15:04Z</time>
      </trkpt>
      <trkpt lat="44.26141" lon="1.71551">
        <ele>361.9</ele>
        <time>2023-01-26T15:15:05Z</time>
      </trkpt>
      <trkpt lat="44.2614" lon="1.71546">
        <ele>361.8</ele>
        <time>2023-01-26T15:15:06Z</time>
      </trkpt>
      <trkpt lat="44.2614" lon="1.71538">
        <ele>361.7</ele>
        <time>2023-01-26T15:15:07Z</time>
      </trkpt>
      <trkpt lat="44.26139" lon="1.71531">
        <ele>361.7</ele>
        <time>2023-01-26T15:15:08Z</time>
      </trkpt>
      <trkpt lat="44.26137" lon="1.71523">
        <ele>361.6</ele>
        <time>2023-01-26T15:15:09Z</time>
      </trkpt>
      <trkpt lat="44.26136" lon="1.71517">
        <ele>361.6</ele>
        <time>2023-01-26T15:15:10Z</time>
      </trkpt>
      <trkpt lat="44.26137" lon="1.71506">
        <ele>361.6</ele>
        <time>2023-01-26T15:15:12Z</time>
      </trkpt>
      <trkpt lat="44.26136" lon="1.71493">
        <ele>361.6</ele>
        <time>2023-01-26T15:15:14Z</time>
      </trkpt>
      <trkpt lat="44.26136" lon="1.71487">
        <ele>361.6</ele>
        <time>2023-01-26T15:15:15Z</time>
      </trkpt>
      <trkpt lat="44.26135" lon="1.71481">
        <ele>361.5</ele>
        <time>2023-01-26T15:15:16Z</time>
      </trkpt>
      <trkpt lat="44.26134" lon="1.71471">
        <ele>361.4</ele>
        <time>2023-01-26T15:15:18Z</time>
      </trkpt>
      <trkpt lat="44.26133" lon="1.71462">
        <ele>361.2</ele>
        <time>2023-01-26T15:15:19Z</time>
      </trkpt>
      <trkpt lat="44.26132" lon="1.71454">
        <ele>361</ele>
        <time>2023-01-26T15:15:20Z</time>
      </trkpt>
      <trkpt lat="44.26129" lon="1.71437">
        <ele>360.3</ele>
        <time>2023-01-26T15:15:22Z</time>
      </trkpt>
      <trkpt lat="44.26128" lon="1.7143">
        <ele>359.9</ele>
        <time>2023-01-26T15:15:23Z</time>
      </trkpt>
      <trkpt lat="44.26126" lon="1.71423">
        <ele>359.5</ele>
        <time>2023-01-26T15:15:24Z</time>
      </trkpt>
      <trkpt lat="44.26123" lon="1.71415">
        <ele>359.1</ele>
        <time>2023-01-26T15:15:25Z</time>
      </trkpt>
      <trkpt lat="44.26121" lon="1.71407">
        <ele>358.6</ele>
        <time>2023-01-26T15:15:26Z</time>
      </trkpt>
      <trkpt lat="44.26119" lon="1.71398">
        <ele>358</ele>
        <time>2023-01-26T15:15:27Z</time>
      </trkpt>
      <trkpt lat="44.26116" lon="1.71389">
        <ele>357.3</ele>
        <time>2023-01-26T15:15:28Z</time>
      </trkpt>
      <trkpt lat="44.26114" lon="1.71379">
        <ele>356.7</ele>
        <time>2023-01-26T15:15:29Z</time>
      </trkpt>
      <trkpt lat="44.26112" lon="1.7137">
        <ele>356.1</ele>
        <time>2023-01-26T15:15:30Z</time>
      </trkpt>
      <trkpt lat="44.2611" lon="1.7136">
        <ele>355.6</ele>
        <time>2023-01-26T15:15:31Z</time>
      </trkpt>
      <trkpt lat="44.26107" lon="1.7135">
        <ele>355.2</ele>
        <time>2023-01-26T15:15:32Z</time>
      </trkpt>
      <trkpt lat="44.26105" lon="1.71341">
        <ele>354.9</ele>
        <time>2023-01-26T15:15:33Z</time>
      </trkpt>
      <trkpt lat="44.26102" lon="1.71332">
        <ele>354.6</ele>
        <time>2023-01-26T15:15:34Z</time>
      </trkpt>
      <trkpt lat="44.26099" lon="1.71324">
        <ele>354.4</ele>
        <time>2023-01-26T15:15:35Z</time>
      </trkpt>
      <trkpt lat="44.26096" lon="1.71316">
        <ele>354.3</ele>
        <time>2023-01-26T15:15:36Z</time>
      </trkpt>
      <trkpt lat="44.26094" lon="1.71308">
        <ele>354.1</ele>
        <time>2023-01-26T15:15:37Z</time>
      </trkpt>
      <trkpt lat="44.26091" lon="1.713">
        <ele>354</ele>
        <time>2023-01-26T15:15:38Z</time>
      </trkpt>
      <trkpt lat="44.2609" lon="1.71293">
        <ele>353.9</ele>
        <time>2023-01-26T15:15:39Z</time>
      </trkpt>
      <trkpt lat="44.26088" lon="1.71285">
        <ele>353.9</ele>
        <time>2023-01-26T15:15:40Z</time>
      </trkpt>
      <trkpt lat="44.26086" lon="1.71278">
        <ele>353.9</ele>
        <time>2023-01-26T15:15:41Z</time>
      </trkpt>
      <trkpt lat="44.26084" lon="1.71271">
        <ele>353.9</ele>
        <time>2023-01-26T15:15:42Z</time>
      </trkpt>
      <trkpt lat="44.26081" lon="1.71263">
        <ele>353.9</ele>
        <time>2023-01-26T15:15:43Z</time>
      </trkpt>
      <trkpt lat="44.2608" lon="1.71256">
        <ele>353.9</ele>
        <time>2023-01-26T15:15:44Z</time>
      </trkpt>
      <trkpt lat="44.26078" lon="1.7125">
        <ele>354</ele>
        <time>2023-01-26T15:15:45Z</time>
      </trkpt>
      <trkpt lat="44.26077" lon="1.71246">
        <ele>354.1</ele>
        <time>2023-01-26T15:15:46Z</time>
      </trkpt>
      <trkpt lat="44.26076" lon="1.7124">
        <ele>354.1</ele>
        <time>2023-01-26T15:15:47Z</time>
      </trkpt>
      <trkpt lat="44.26075" lon="1.71234">
        <ele>354.2</ele>
        <time>2023-01-26T15:15:48Z</time>
      </trkpt>
      <trkpt lat="44.26074" lon="1.71229">
        <ele>354.3</ele>
        <time>2023-01-26T15:15:49Z</time>
      </trkpt>
      <trkpt lat="44.26073" lon="1.71222">
        <ele>354.3</ele>
        <time>2023-01-26T15:15:50Z</time>
      </trkpt>
      <trkpt lat="44.2607" lon="1.71214">
        <ele>354.3</ele>
        <time>2023-01-26T15:15:51Z</time>
      </trkpt>
      <trkpt lat="44.26069" lon="1.7121">
        <ele>354.3</ele>
        <time>2023-01-26T15:15:52Z</time>
      </trkpt>
      <trkpt lat="44.26068" lon="1.71205">
        <ele>354.3</ele>
        <time>2023-01-26T15:15:53Z</time>
      </trkpt>
      <trkpt lat="44.26066" lon="1.71197">
        <ele>354.3</ele>
        <time>2023-01-26T15:15:54Z</time>
      </trkpt>
      <trkpt lat="44.26065" lon="1.71189">
        <ele>354.4</ele>
        <time>2023-01-26T15:15:55Z</time>
      </trkpt>
      <trkpt lat="44.26063" lon="1.7118">
        <ele>354.5</ele>
        <time>2023-01-26T15:15:57Z</time>
      </trkpt>
      <trkpt lat="44.26062" lon="1.71174">
        <ele>354.6</ele>
        <time>2023-01-26T15:15:58Z</time>
      </trkpt>
      <trkpt lat="44.26061" lon="1.71169">
        <ele>354.7</ele>
        <time>2023-01-26T15:15:59Z</time>
      </trkpt>
      <trkpt lat="44.26059" lon="1.71163">
        <ele>354.9</ele>
        <time>2023-01-26T15:16:00Z</time>
      </trkpt>
      <trkpt lat="44.26056" lon="1.71153">
        <ele>355.1</ele>
        <time>2023-01-26T15:16:01Z</time>
      </trkpt>
      <trkpt lat="44.26055" lon="1.71147">
        <ele>355.2</ele>
        <time>2023-01-26T15:16:03Z</time>
      </trkpt>
      <trkpt lat="44.26055" lon="1.71141">
        <ele>355.3</ele>
        <time>2023-01-26T15:16:05Z</time>
      </trkpt>
      <trkpt lat="44.26053" lon="1.71137">
        <ele>355.4</ele>
        <time>2023-01-26T15:16:06Z</time>
      </trkpt>
      <trkpt lat="44.2605" lon="1.71133">
        <ele>355.2</ele>
        <time>2023-01-26T15:16:07Z</time>
      </trkpt>
      <trkpt lat="44.26047" lon="1.7113">
        <ele>354.7</ele>
        <time>2023-01-26T15:16:09Z</time>
      </trkpt>
      <trkpt lat="44.26044" lon="1.71129">
        <ele>354.3</ele>
        <time>2023-01-26T15:16:10Z</time>
      </trkpt>
      <trkpt lat="44.2604" lon="1.71128">
        <ele>353.7</ele>
        <time>2023-01-26T15:16:11Z</time>
      </trkpt>
      <trkpt lat="44.26035" lon="1.71127">
        <ele>353</ele>
        <time>2023-01-26T15:16:12Z</time>
      </trkpt>
      <trkpt lat="44.26031" lon="1.71126">
        <ele>352.4</ele>
        <time>2023-01-26T15:16:13Z</time>
      </trkpt>
      <trkpt lat="44.26028" lon="1.71125">
        <ele>351.9</ele>
        <time>2023-01-26T15:16:14Z</time>
      </trkpt>
      <trkpt lat="44.26025" lon="1.71124">
        <ele>351.4</ele>
        <time>2023-01-26T15:16:16Z</time>
      </trkpt>
      <trkpt lat="44.26022" lon="1.71125">
        <ele>350.9</ele>
        <time>2023-01-26T15:16:17Z</time>
      </trkpt>
      <trkpt lat="44.26017" lon="1.7113">
        <ele>350.1</ele>
        <time>2023-01-26T15:16:19Z</time>
      </trkpt>
      <trkpt lat="44.26015" lon="1.71134">
        <ele>349.6</ele>
        <time>2023-01-26T15:16:20Z</time>
      </trkpt>
      <trkpt lat="44.2601" lon="1.71136">
        <ele>349.1</ele>
        <time>2023-01-26T15:16:22Z</time>
      </trkpt>
      <trkpt lat="44.26007" lon="1.71133">
        <ele>348.6</ele>
        <time>2023-01-26T15:16:23Z</time>
      </trkpt>
      <trkpt lat="44.26004" lon="1.71129">
        <ele>348.4</ele>
        <time>2023-01-26T15:16:24Z</time>
      </trkpt>
      <trkpt lat="44.26" lon="1.71123">
        <ele>348</ele>
        <time>2023-01-26T15:16:26Z</time>
      </trkpt>
      <trkpt lat="44.25997" lon="1.7112">
        <ele>347.8</ele>
        <time>2023-01-26T15:16:27Z</time>
      </trkpt>
      <trkpt lat="44.25993" lon="1.71117">
        <ele>347.5</ele>
        <time>2023-01-26T15:16:28Z</time>
      </trkpt>
      <trkpt lat="44.25989" lon="1.71114">
        <ele>347.3</ele>
        <time>2023-01-26T15:16:29Z</time>
      </trkpt>
      <trkpt lat="44.25985" lon="1.71111">
        <ele>347</ele>
        <time>2023-01-26T15:16:30Z</time>
      </trkpt>
      <trkpt lat="44.25981" lon="1.71108">
        <ele>346.6</ele>
        <time>2023-01-26T15:16:32Z</time>
      </trkpt>
      <trkpt lat="44.25977" lon="1.71105">
        <ele>346.3</ele>
        <time>2023-01-26T15:16:33Z</time>
      </trkpt>
      <trkpt lat="44.25972" lon="1.711">
        <ele>345.8</ele>
        <time>2023-01-26T15:16:34Z</time>
      </trkpt>
      <trkpt lat="44.25967" lon="1.71095">
        <ele>345.3</ele>
        <time>2023-01-26T15:16:35Z</time>
      </trkpt>
      <trkpt lat="44.25963" lon="1.71091">
        <ele>344.9</ele>
        <time>2023-01-26T15:16:36Z</time>
      </trkpt>
      <trkpt lat="44.25959" lon="1.71085">
        <ele>344.6</ele>
        <time>2023-01-26T15:16:37Z</time>
      </trkpt>
      <trkpt lat="44.25956" lon="1.71079">
        <ele>344.4</ele>
        <time>2023-01-26T15:16:38Z</time>
      </trkpt>
      <trkpt lat="44.25953" lon="1.71072">
        <ele>344.1</ele>
        <time>2023-01-26T15:16:39Z</time>
      </trkpt>
      <trkpt lat="44.25952" lon="1.71065">
        <ele>343.9</ele>
        <time>2023-01-26T15:16:40Z</time>
      </trkpt>
      <trkpt lat="44.25951" lon="1.71058">
        <ele>343.7</ele>
        <time>2023-01-26T15:16:41Z</time>
      </trkpt>
      <trkpt lat="44.25951" lon="1.71052">
        <ele>343.5</ele>
        <time>2023-01-26T15:16:42Z</time>
      </trkpt>
      <trkpt lat="44.25951" lon="1.71045">
        <ele>343.1</ele>
        <time>2023-01-26T15:16:44Z</time>
      </trkpt>
      <trkpt lat="44.2595" lon="1.71038">
        <ele>342.6</ele>
        <time>2023-01-26T15:16:45Z</time>
      </trkpt>
      <trkpt lat="44.25949" lon="1.71032">
        <ele>342.2</ele>
        <time>2023-01-26T15:16:47Z</time>
      </trkpt>
      <trkpt lat="44.25948" lon="1.71029">
        <ele>341.9</ele>
        <time>2023-01-26T15:16:48Z</time>
      </trkpt>
      <trkpt lat="44.25945" lon="1.71024">
        <ele>341.4</ele>
        <time>2023-01-26T15:16:50Z</time>
      </trkpt>
      <trkpt lat="44.25941" lon="1.71022">
        <ele>341.2</ele>
        <time>2023-01-26T15:16:51Z</time>
      </trkpt>
      <trkpt lat="44.25936" lon="1.71021">
        <ele>341</ele>
        <time>2023-01-26T15:16:52Z</time>
      </trkpt>
      <trkpt lat="44.25931" lon="1.71019">
        <ele>340.7</ele>
        <time>2023-01-26T15:16:53Z</time>
      </trkpt>
      <trkpt lat="44.25927" lon="1.71018">
        <ele>340.4</ele>
        <time>2023-01-26T15:16:54Z</time>
      </trkpt>
      <trkpt lat="44.25925" lon="1.71016">
        <ele>340.3</ele>
        <time>2023-01-26T15:16:55Z</time>
      </trkpt>
      <trkpt lat="44.25923" lon="1.71007">
        <ele>339.2</ele>
        <time>2023-01-26T15:16:57Z</time>
      </trkpt>
      <trkpt lat="44.25925" lon="1.71001">
        <ele>339</ele>
        <time>2023-01-26T15:16:58Z</time>
      </trkpt>
      <trkpt lat="44.25927" lon="1.70993">
        <ele>338.6</ele>
        <time>2023-01-26T15:17:00Z</time>
      </trkpt>
      <trkpt lat="44.25929" lon="1.70987">
        <ele>338.4</ele>
        <time>2023-01-26T15:17:01Z</time>
      </trkpt>
      <trkpt lat="44.25931" lon="1.70982">
        <ele>338.3</ele>
        <time>2023-01-26T15:17:02Z</time>
      </trkpt>
      <trkpt lat="44.25933" lon="1.70976">
        <ele>338.1</ele>
        <time>2023-01-26T15:17:03Z</time>
      </trkpt>
      <trkpt lat="44.25936" lon="1.70966">
        <ele>337.9</ele>
        <time>2023-01-26T15:17:05Z</time>
      </trkpt>
      <trkpt lat="44.25937" lon="1.70959">
        <ele>337.7</ele>
        <time>2023-01-26T15:17:06Z</time>
      </trkpt>
      <trkpt lat="44.25937" lon="1.70951">
        <ele>337.6</ele>
        <time>2023-01-26T15:17:07Z</time>
      </trkpt>
      <trkpt lat="44.25938" lon="1.70943">
        <ele>337.4</ele>
        <time>2023-01-26T15:17:08Z</time>
      </trkpt>
      <trkpt lat="44.25938" lon="1.70934">
        <ele>337.4</ele>
        <time>2023-01-26T15:17:09Z</time>
      </trkpt>
      <trkpt lat="44.25938" lon="1.70926">
        <ele>337.4</ele>
        <time>2023-01-26T15:17:10Z</time>
      </trkpt>
      <trkpt lat="44.25939" lon="1.70918">
        <ele>337.4</ele>
        <time>2023-01-26T15:17:11Z</time>
      </trkpt>
      <trkpt lat="44.2594" lon="1.70911">
        <ele>337.4</ele>
        <time>2023-01-26T15:17:12Z</time>
      </trkpt>
      <trkpt lat="44.25941" lon="1.70903">
        <ele>337.5</ele>
        <time>2023-01-26T15:17:13Z</time>
      </trkpt>
      <trkpt lat="44.25942" lon="1.70895">
        <ele>337.6</ele>
        <time>2023-01-26T15:17:14Z</time>
      </trkpt>
      <trkpt lat="44.25943" lon="1.70888">
        <ele>337.7</ele>
        <time>2023-01-26T15:17:15Z</time>
      </trkpt>
      <trkpt lat="44.25943" lon="1.7088">
        <ele>337.8</ele>
        <time>2023-01-26T15:17:16Z</time>
      </trkpt>
      <trkpt lat="44.25943" lon="1.70873">
        <ele>337.9</ele>
        <time>2023-01-26T15:17:17Z</time>
      </trkpt>
      <trkpt lat="44.25943" lon="1.70865">
        <ele>337.9</ele>
        <time>2023-01-26T15:17:18Z</time>
      </trkpt>
      <trkpt lat="44.25944" lon="1.70858">
        <ele>338</ele>
        <time>2023-01-26T15:17:19Z</time>
      </trkpt>
      <trkpt lat="44.25945" lon="1.70851">
        <ele>338.1</ele>
        <time>2023-01-26T15:17:20Z</time>
      </trkpt>
      <trkpt lat="44.25947" lon="1.70845">
        <ele>338.2</ele>
        <time>2023-01-26T15:17:21Z</time>
      </trkpt>
      <trkpt lat="44.25948" lon="1.70838">
        <ele>338.3</ele>
        <time>2023-01-26T15:17:22Z</time>
      </trkpt>
      <trkpt lat="44.2595" lon="1.70832">
        <ele>338.3</ele>
        <time>2023-01-26T15:17:23Z</time>
      </trkpt>
      <trkpt lat="44.25952" lon="1.70825">
        <ele>338.3</ele>
        <time>2023-01-26T15:17:24Z</time>
      </trkpt>
      <trkpt lat="44.25954" lon="1.70818">
        <ele>338.3</ele>
        <time>2023-01-26T15:17:25Z</time>
      </trkpt>
      <trkpt lat="44.25955" lon="1.70812">
        <ele>338.3</ele>
        <time>2023-01-26T15:17:26Z</time>
      </trkpt>
      <trkpt lat="44.25956" lon="1.70806">
        <ele>338.3</ele>
        <time>2023-01-26T15:17:27Z</time>
      </trkpt>
      <trkpt lat="44.25957" lon="1.70799">
        <ele>338.4</ele>
        <time>2023-01-26T15:17:28Z</time>
      </trkpt>
      <trkpt lat="44.25956" lon="1.70793">
        <ele>338.5</ele>
        <time>2023-01-26T15:17:29Z</time>
      </trkpt>
      <trkpt lat="44.25955" lon="1.70786">
        <ele>338.6</ele>
        <time>2023-01-26T15:17:30Z</time>
      </trkpt>
      <trkpt lat="44.25955" lon="1.70779">
        <ele>338.7</ele>
        <time>2023-01-26T15:17:31Z</time>
      </trkpt>
      <trkpt lat="44.25954" lon="1.70772">
        <ele>338.8</ele>
        <time>2023-01-26T15:17:32Z</time>
      </trkpt>
      <trkpt lat="44.25954" lon="1.70765">
        <ele>338.8</ele>
        <time>2023-01-26T15:17:33Z</time>
      </trkpt>
      <trkpt lat="44.25954" lon="1.70757">
        <ele>338.9</ele>
        <time>2023-01-26T15:17:34Z</time>
      </trkpt>
      <trkpt lat="44.25954" lon="1.70748">
        <ele>339</ele>
        <time>2023-01-26T15:17:35Z</time>
      </trkpt>
      <trkpt lat="44.25954" lon="1.70739">
        <ele>339.2</ele>
        <time>2023-01-26T15:17:36Z</time>
      </trkpt>
      <trkpt lat="44.25954" lon="1.70731">
        <ele>339.3</ele>
        <time>2023-01-26T15:17:37Z</time>
      </trkpt>
      <trkpt lat="44.25954" lon="1.70723">
        <ele>339.4</ele>
        <time>2023-01-26T15:17:38Z</time>
      </trkpt>
      <trkpt lat="44.25955" lon="1.70714">
        <ele>339.4</ele>
        <time>2023-01-26T15:17:39Z</time>
      </trkpt>
      <trkpt lat="44.25955" lon="1.70706">
        <ele>339.5</ele>
        <time>2023-01-26T15:17:40Z</time>
      </trkpt>
      <trkpt lat="44.25956" lon="1.70697">
        <ele>339.6</ele>
        <time>2023-01-26T15:17:41Z</time>
      </trkpt>
      <trkpt lat="44.25956" lon="1.70687">
        <ele>339.5</ele>
        <time>2023-01-26T15:17:42Z</time>
      </trkpt>
      <trkpt lat="44.25956" lon="1.70678">
        <ele>339.1</ele>
        <time>2023-01-26T15:17:43Z</time>
      </trkpt>
      <trkpt lat="44.25956" lon="1.70669">
        <ele>338.9</ele>
        <time>2023-01-26T15:17:44Z</time>
      </trkpt>
      <trkpt lat="44.25957" lon="1.70661">
        <ele>338.6</ele>
        <time>2023-01-26T15:17:45Z</time>
      </trkpt>
      <trkpt lat="44.25957" lon="1.70652">
        <ele>338.4</ele>
        <time>2023-01-26T15:17:46Z</time>
      </trkpt>
      <trkpt lat="44.25957" lon="1.70644">
        <ele>338.2</ele>
        <time>2023-01-26T15:17:47Z</time>
      </trkpt>
      <trkpt lat="44.25959" lon="1.70637">
        <ele>338.1</ele>
        <time>2023-01-26T15:17:48Z</time>
      </trkpt>
      <trkpt lat="44.25961" lon="1.70629">
        <ele>337.9</ele>
        <time>2023-01-26T15:17:49Z</time>
      </trkpt>
      <trkpt lat="44.25962" lon="1.70621">
        <ele>337.7</ele>
        <time>2023-01-26T15:17:50Z</time>
      </trkpt>
      <trkpt lat="44.25964" lon="1.70613">
        <ele>337.6</ele>
        <time>2023-01-26T15:17:51Z</time>
      </trkpt>
      <trkpt lat="44.25967" lon="1.70606">
        <ele>337.4</ele>
        <time>2023-01-26T15:17:52Z</time>
      </trkpt>
      <trkpt lat="44.2597" lon="1.706">
        <ele>337.2</ele>
        <time>2023-01-26T15:17:53Z</time>
      </trkpt>
      <trkpt lat="44.25974" lon="1.70593">
        <ele>337</ele>
        <time>2023-01-26T15:17:54Z</time>
      </trkpt>
      <trkpt lat="44.25977" lon="1.70585">
        <ele>336.7</ele>
        <time>2023-01-26T15:17:55Z</time>
      </trkpt>
      <trkpt lat="44.25981" lon="1.70578">
        <ele>336.4</ele>
        <time>2023-01-26T15:17:56Z</time>
      </trkpt>
      <trkpt lat="44.25985" lon="1.7057">
        <ele>336.1</ele>
        <time>2023-01-26T15:17:57Z</time>
      </trkpt>
      <trkpt lat="44.25989" lon="1.70563">
        <ele>335.8</ele>
        <time>2023-01-26T15:17:58Z</time>
      </trkpt>
      <trkpt lat="44.25993" lon="1.70556">
        <ele>335.5</ele>
        <time>2023-01-26T15:17:59Z</time>
      </trkpt>
      <trkpt lat="44.25997" lon="1.70549">
        <ele>335.2</ele>
        <time>2023-01-26T15:18:00Z</time>
      </trkpt>
      <trkpt lat="44.26001" lon="1.70541">
        <ele>334.8</ele>
        <time>2023-01-26T15:18:01Z</time>
      </trkpt>
      <trkpt lat="44.26004" lon="1.70533">
        <ele>334.5</ele>
        <time>2023-01-26T15:18:02Z</time>
      </trkpt>
      <trkpt lat="44.26008" lon="1.70525">
        <ele>334.2</ele>
        <time>2023-01-26T15:18:03Z</time>
      </trkpt>
      <trkpt lat="44.26011" lon="1.70518">
        <ele>333.9</ele>
        <time>2023-01-26T15:18:04Z</time>
      </trkpt>
      <trkpt lat="44.26014" lon="1.7051">
        <ele>333.6</ele>
        <time>2023-01-26T15:18:05Z</time>
      </trkpt>
      <trkpt lat="44.26017" lon="1.70503">
        <ele>333.4</ele>
        <time>2023-01-26T15:18:06Z</time>
      </trkpt>
      <trkpt lat="44.2602" lon="1.70494">
        <ele>333.2</ele>
        <time>2023-01-26T15:18:07Z</time>
      </trkpt>
      <trkpt lat="44.26023" lon="1.70486">
        <ele>333</ele>
        <time>2023-01-26T15:18:08Z</time>
      </trkpt>
      <trkpt lat="44.26025" lon="1.70478">
        <ele>332.7</ele>
        <time>2023-01-26T15:18:09Z</time>
      </trkpt>
      <trkpt lat="44.26026" lon="1.70469">
        <ele>332.4</ele>
        <time>2023-01-26T15:18:10Z</time>
      </trkpt>
      <trkpt lat="44.26026" lon="1.7046">
        <ele>332</ele>
        <time>2023-01-26T15:18:11Z</time>
      </trkpt>
      <trkpt lat="44.26026" lon="1.70451">
        <ele>331.7</ele>
        <time>2023-01-26T15:18:12Z</time>
      </trkpt>
      <trkpt lat="44.26027" lon="1.70443">
        <ele>331.4</ele>
        <time>2023-01-26T15:18:13Z</time>
      </trkpt>
      <trkpt lat="44.26027" lon="1.70435">
        <ele>331</ele>
        <time>2023-01-26T15:18:14Z</time>
      </trkpt>
      <trkpt lat="44.26028" lon="1.70426">
        <ele>330.6</ele>
        <time>2023-01-26T15:18:15Z</time>
      </trkpt>
      <trkpt lat="44.26028" lon="1.70417">
        <ele>330.1</ele>
        <time>2023-01-26T15:18:16Z</time>
      </trkpt>
      <trkpt lat="44.26029" lon="1.70408">
        <ele>329.6</ele>
        <time>2023-01-26T15:18:17Z</time>
      </trkpt>
      <trkpt lat="44.26029" lon="1.70399">
        <ele>329.1</ele>
        <time>2023-01-26T15:18:18Z</time>
      </trkpt>
      <trkpt lat="44.26029" lon="1.7039">
        <ele>328.6</ele>
        <time>2023-01-26T15:18:19Z</time>
      </trkpt>
      <trkpt lat="44.2603" lon="1.70381">
        <ele>328.2</ele>
        <time>2023-01-26T15:18:20Z</time>
      </trkpt>
      <trkpt lat="44.26031" lon="1.70373">
        <ele>327.8</ele>
        <time>2023-01-26T15:18:21Z</time>
      </trkpt>
      <trkpt lat="44.26032" lon="1.70364">
        <ele>327.3</ele>
        <time>2023-01-26T15:18:22Z</time>
      </trkpt>
      <trkpt lat="44.26035" lon="1.70355">
        <ele>326.8</ele>
        <time>2023-01-26T15:18:23Z</time>
      </trkpt>
      <trkpt lat="44.26037" lon="1.70347">
        <ele>326.2</ele>
        <time>2023-01-26T15:18:24Z</time>
      </trkpt>
      <trkpt lat="44.26038" lon="1.70338">
        <ele>325.7</ele>
        <time>2023-01-26T15:18:25Z</time>
      </trkpt>
      <trkpt lat="44.26038" lon="1.70329">
        <ele>325.2</ele>
        <time>2023-01-26T15:18:26Z</time>
      </trkpt>
      <trkpt lat="44.26038" lon="1.7032">
        <ele>324.8</ele>
        <time>2023-01-26T15:18:27Z</time>
      </trkpt>
      <trkpt lat="44.26038" lon="1.7031">
        <ele>324.3</ele>
        <time>2023-01-26T15:18:28Z</time>
      </trkpt>
      <trkpt lat="44.26038" lon="1.70301">
        <ele>323.6</ele>
        <time>2023-01-26T15:18:29Z</time>
      </trkpt>
      <trkpt lat="44.26038" lon="1.70292">
        <ele>322.8</ele>
        <time>2023-01-26T15:18:30Z</time>
      </trkpt>
      <trkpt lat="44.26038" lon="1.70283">
        <ele>322</ele>
        <time>2023-01-26T15:18:31Z</time>
      </trkpt>
      <trkpt lat="44.26038" lon="1.70273">
        <ele>321.2</ele>
        <time>2023-01-26T15:18:32Z</time>
      </trkpt>
      <trkpt lat="44.26038" lon="1.70264">
        <ele>320.5</ele>
        <time>2023-01-26T15:18:33Z</time>
      </trkpt>
      <trkpt lat="44.26038" lon="1.70255">
        <ele>319.7</ele>
        <time>2023-01-26T15:18:34Z</time>
      </trkpt>
      <trkpt lat="44.26039" lon="1.70245">
        <ele>318.9</ele>
        <time>2023-01-26T15:18:35Z</time>
      </trkpt>
      <trkpt lat="44.26039" lon="1.70235">
        <ele>318.2</ele>
        <time>2023-01-26T15:18:36Z</time>
      </trkpt>
      <trkpt lat="44.2604" lon="1.70226">
        <ele>317.4</ele>
        <time>2023-01-26T15:18:37Z</time>
      </trkpt>
      <trkpt lat="44.26041" lon="1.70216">
        <ele>316.7</ele>
        <time>2023-01-26T15:18:38Z</time>
      </trkpt>
      <trkpt lat="44.26043" lon="1.70206">
        <ele>316.1</ele>
        <time>2023-01-26T15:18:39Z</time>
      </trkpt>
      <trkpt lat="44.26045" lon="1.70196">
        <ele>315.4</ele>
        <time>2023-01-26T15:18:40Z</time>
      </trkpt>
      <trkpt lat="44.26047" lon="1.70186">
        <ele>314.8</ele>
        <time>2023-01-26T15:18:41Z</time>
      </trkpt>
      <trkpt lat="44.26049" lon="1.70177">
        <ele>314.2</ele>
        <time>2023-01-26T15:18:42Z</time>
      </trkpt>
      <trkpt lat="44.2605" lon="1.70167">
        <ele>313.6</ele>
        <time>2023-01-26T15:18:43Z</time>
      </trkpt>
      <trkpt lat="44.26052" lon="1.70157">
        <ele>313.2</ele>
        <time>2023-01-26T15:18:44Z</time>
      </trkpt>
      <trkpt lat="44.26054" lon="1.70148">
        <ele>312.9</ele>
        <time>2023-01-26T15:18:45Z</time>
      </trkpt>
      <trkpt lat="44.26056" lon="1.7014">
        <ele>312.7</ele>
        <time>2023-01-26T15:18:46Z</time>
      </trkpt>
      <trkpt lat="44.2606" lon="1.70135">
        <ele>312.5</ele>
        <time>2023-01-26T15:18:47Z</time>
      </trkpt>
      <trkpt lat="44.26066" lon="1.70131">
        <ele>312.3</ele>
        <time>2023-01-26T15:18:48Z</time>
      </trkpt>
      <trkpt lat="44.26072" lon="1.70128">
        <ele>312.1</ele>
        <time>2023-01-26T15:18:49Z</time>
      </trkpt>
      <trkpt lat="44.26078" lon="1.70125">
        <ele>311.8</ele>
        <time>2023-01-26T15:18:50Z</time>
      </trkpt>
      <trkpt lat="44.26084" lon="1.70122">
        <ele>311.4</ele>
        <time>2023-01-26T15:18:51Z</time>
      </trkpt>
      <trkpt lat="44.2609" lon="1.7012">
        <ele>311.2</ele>
        <time>2023-01-26T15:18:52Z</time>
      </trkpt>
      <trkpt lat="44.26096" lon="1.70118">
        <ele>310.9</ele>
        <time>2023-01-26T15:18:53Z</time>
      </trkpt>
      <trkpt lat="44.26103" lon="1.70115">
        <ele>310.7</ele>
        <time>2023-01-26T15:18:54Z</time>
      </trkpt>
      <trkpt lat="44.26109" lon="1.70113">
        <ele>310.5</ele>
        <time>2023-01-26T15:18:55Z</time>
      </trkpt>
      <trkpt lat="44.26115" lon="1.70111">
        <ele>310.2</ele>
        <time>2023-01-26T15:18:56Z</time>
      </trkpt>
      <trkpt lat="44.26122" lon="1.7011">
        <ele>309.9</ele>
        <time>2023-01-26T15:18:57Z</time>
      </trkpt>
      <trkpt lat="44.26128" lon="1.70107">
        <ele>309.5</ele>
        <time>2023-01-26T15:18:58Z</time>
      </trkpt>
      <trkpt lat="44.26135" lon="1.70105">
        <ele>309.1</ele>
        <time>2023-01-26T15:18:59Z</time>
      </trkpt>
      <trkpt lat="44.26141" lon="1.70103">
        <ele>308.8</ele>
        <time>2023-01-26T15:19:00Z</time>
      </trkpt>
      <trkpt lat="44.26147" lon="1.70101">
        <ele>308.7</ele>
        <time>2023-01-26T15:19:01Z</time>
      </trkpt>
      <trkpt lat="44.26152" lon="1.70099">
        <ele>308.5</ele>
        <time>2023-01-26T15:19:02Z</time>
      </trkpt>
      <trkpt lat="44.26158" lon="1.70097">
        <ele>308.2</ele>
        <time>2023-01-26T15:19:03Z</time>
      </trkpt>
      <trkpt lat="44.26164" lon="1.70095">
        <ele>308</ele>
        <time>2023-01-26T15:19:04Z</time>
      </trkpt>
      <trkpt lat="44.2617" lon="1.70093">
        <ele>307.7</ele>
        <time>2023-01-26T15:19:05Z</time>
      </trkpt>
      <trkpt lat="44.26175" lon="1.70091">
        <ele>307.6</ele>
        <time>2023-01-26T15:19:06Z</time>
      </trkpt>
      <trkpt lat="44.26181" lon="1.70089">
        <ele>307.3</ele>
        <time>2023-01-26T15:19:07Z</time>
      </trkpt>
      <trkpt lat="44.26188" lon="1.70087">
        <ele>307.1</ele>
        <time>2023-01-26T15:19:08Z</time>
      </trkpt>
      <trkpt lat="44.26194" lon="1.70084">
        <ele>306.9</ele>
        <time>2023-01-26T15:19:09Z</time>
      </trkpt>
      <trkpt lat="44.262" lon="1.70081">
        <ele>306.7</ele>
        <time>2023-01-26T15:19:10Z</time>
      </trkpt>
      <trkpt lat="44.26206" lon="1.70079">
        <ele>306.5</ele>
        <time>2023-01-26T15:19:11Z</time>
      </trkpt>
      <trkpt lat="44.26213" lon="1.70076">
        <ele>306.3</ele>
        <time>2023-01-26T15:19:12Z</time>
      </trkpt>
      <trkpt lat="44.26219" lon="1.70073">
        <ele>306</ele>
        <time>2023-01-26T15:19:13Z</time>
      </trkpt>
      <trkpt lat="44.26224" lon="1.7007">
        <ele>305.8</ele>
        <time>2023-01-26T15:19:14Z</time>
      </trkpt>
      <trkpt lat="44.2623" lon="1.70068">
        <ele>305.5</ele>
        <time>2023-01-26T15:19:15Z</time>
      </trkpt>
      <trkpt lat="44.26236" lon="1.70065">
        <ele>305.3</ele>
        <time>2023-01-26T15:19:16Z</time>
      </trkpt>
      <trkpt lat="44.26242" lon="1.70063">
        <ele>305.1</ele>
        <time>2023-01-26T15:19:17Z</time>
      </trkpt>
      <trkpt lat="44.26248" lon="1.70061">
        <ele>304.9</ele>
        <time>2023-01-26T15:19:18Z</time>
      </trkpt>
      <trkpt lat="44.26255" lon="1.70059">
        <ele>304.6</ele>
        <time>2023-01-26T15:19:19Z</time>
      </trkpt>
      <trkpt lat="44.26261" lon="1.70057">
        <ele>304.3</ele>
        <time>2023-01-26T15:19:20Z</time>
      </trkpt>
      <trkpt lat="44.26267" lon="1.70055">
        <ele>303.9</ele>
        <time>2023-01-26T15:19:21Z</time>
      </trkpt>
      <trkpt lat="44.26273" lon="1.70053">
        <ele>303.3</ele>
        <time>2023-01-26T15:19:22Z</time>
      </trkpt>
      <trkpt lat="44.26279" lon="1.70051">
        <ele>302.5</ele>
        <time>2023-01-26T15:19:23Z</time>
      </trkpt>
      <trkpt lat="44.26282" lon="1.70046">
        <ele>301.8</ele>
        <time>2023-01-26T15:19:24Z</time>
      </trkpt>
      <trkpt lat="44.26283" lon="1.70038">
        <ele>301</ele>
        <time>2023-01-26T15:19:25Z</time>
      </trkpt>
      <trkpt lat="44.2628" lon="1.7003">
        <ele>300.1</ele>
        <time>2023-01-26T15:19:26Z</time>
      </trkpt>
      <trkpt lat="44.26276" lon="1.70022">
        <ele>299.4</ele>
        <time>2023-01-26T15:19:27Z</time>
      </trkpt>
      <trkpt lat="44.26274" lon="1.70013">
        <ele>298.8</ele>
        <time>2023-01-26T15:19:28Z</time>
      </trkpt>
      <trkpt lat="44.26271" lon="1.70003">
        <ele>298.1</ele>
        <time>2023-01-26T15:19:29Z</time>
      </trkpt>
      <trkpt lat="44.26268" lon="1.69992">
        <ele>297.6</ele>
        <time>2023-01-26T15:19:30Z</time>
      </trkpt>
      <trkpt lat="44.26265" lon="1.69982">
        <ele>297.3</ele>
        <time>2023-01-26T15:19:31Z</time>
      </trkpt>
      <trkpt lat="44.26263" lon="1.69971">
        <ele>297.1</ele>
        <time>2023-01-26T15:19:32Z</time>
      </trkpt>
      <trkpt lat="44.2626" lon="1.6996">
        <ele>297.1</ele>
        <time>2023-01-26T15:19:33Z</time>
      </trkpt>
      <trkpt lat="44.26258" lon="1.69951">
        <ele>297</ele>
        <time>2023-01-26T15:19:34Z</time>
      </trkpt>
      <trkpt lat="44.26256" lon="1.69942">
        <ele>296.9</ele>
        <time>2023-01-26T15:19:35Z</time>
      </trkpt>
      <trkpt lat="44.26255" lon="1.69935">
        <ele>296.9</ele>
        <time>2023-01-26T15:19:36Z</time>
      </trkpt>
      <trkpt lat="44.26256" lon="1.6993">
        <ele>296.8</ele>
        <time>2023-01-26T15:19:37Z</time>
      </trkpt>
      <trkpt lat="44.26259" lon="1.69927">
        <ele>296.8</ele>
        <time>2023-01-26T15:19:38Z</time>
      </trkpt>
      <trkpt lat="44.26262" lon="1.69924">
        <ele>296.7</ele>
        <time>2023-01-26T15:19:39Z</time>
      </trkpt>
      <trkpt lat="44.26265" lon="1.69919">
        <ele>296.6</ele>
        <time>2023-01-26T15:19:40Z</time>
      </trkpt>
      <trkpt lat="44.26268" lon="1.69913">
        <ele>296.4</ele>
        <time>2023-01-26T15:19:41Z</time>
      </trkpt>
      <trkpt lat="44.26272" lon="1.69908">
        <ele>296.1</ele>
        <time>2023-01-26T15:19:42Z</time>
      </trkpt>
      <trkpt lat="44.26275" lon="1.69901">
        <ele>295.8</ele>
        <time>2023-01-26T15:19:43Z</time>
      </trkpt>
      <trkpt lat="44.26277" lon="1.69898">
        <ele>295.6</ele>
        <time>2023-01-26T15:19:44Z</time>
      </trkpt>
      <trkpt lat="44.26281" lon="1.69891">
        <ele>295.2</ele>
        <time>2023-01-26T15:19:45Z</time>
      </trkpt>
      <trkpt lat="44.26285" lon="1.69881">
        <ele>294.7</ele>
        <time>2023-01-26T15:19:47Z</time>
      </trkpt>
      <trkpt lat="44.26287" lon="1.69871">
        <ele>294.1</ele>
        <time>2023-01-26T15:19:48Z</time>
      </trkpt>
      <trkpt lat="44.26288" lon="1.6986">
        <ele>293.6</ele>
        <time>2023-01-26T15:19:49Z</time>
      </trkpt>
      <trkpt lat="44.26289" lon="1.69853">
        <ele>293.2</ele>
        <time>2023-01-26T15:19:50Z</time>
      </trkpt>
      <trkpt lat="44.26289" lon="1.69846">
        <ele>292.8</ele>
        <time>2023-01-26T15:19:51Z</time>
      </trkpt>
      <trkpt lat="44.26289" lon="1.69839">
        <ele>292.4</ele>
        <time>2023-01-26T15:19:52Z</time>
      </trkpt>
      <trkpt lat="44.26289" lon="1.69831">
        <ele>291.8</ele>
        <time>2023-01-26T15:19:53Z</time>
      </trkpt>
      <trkpt lat="44.2629" lon="1.69822">
        <ele>291.2</ele>
        <time>2023-01-26T15:19:54Z</time>
      </trkpt>
      <trkpt lat="44.26291" lon="1.69812">
        <ele>290.6</ele>
        <time>2023-01-26T15:19:55Z</time>
      </trkpt>
      <trkpt lat="44.26291" lon="1.69803">
        <ele>290.1</ele>
        <time>2023-01-26T15:19:56Z</time>
      </trkpt>
      <trkpt lat="44.26292" lon="1.69793">
        <ele>289.5</ele>
        <time>2023-01-26T15:19:57Z</time>
      </trkpt>
      <trkpt lat="44.26293" lon="1.69783">
        <ele>288.9</ele>
        <time>2023-01-26T15:19:58Z</time>
      </trkpt>
      <trkpt lat="44.26297" lon="1.69775">
        <ele>288.4</ele>
        <time>2023-01-26T15:19:59Z</time>
      </trkpt>
      <trkpt lat="44.26301" lon="1.69765">
        <ele>287.7</ele>
        <time>2023-01-26T15:20:00Z</time>
      </trkpt>
      <trkpt lat="44.26305" lon="1.69756">
        <ele>287.1</ele>
        <time>2023-01-26T15:20:01Z</time>
      </trkpt>
      <trkpt lat="44.26308" lon="1.69746">
        <ele>286.5</ele>
        <time>2023-01-26T15:20:02Z</time>
      </trkpt>
      <trkpt lat="44.2631" lon="1.69736">
        <ele>285.8</ele>
        <time>2023-01-26T15:20:03Z</time>
      </trkpt>
      <trkpt lat="44.26311" lon="1.69726">
        <ele>285.3</ele>
        <time>2023-01-26T15:20:04Z</time>
      </trkpt>
      <trkpt lat="44.26312" lon="1.69718">
        <ele>284.9</ele>
        <time>2023-01-26T15:20:05Z</time>
      </trkpt>
      <trkpt lat="44.26314" lon="1.69711">
        <ele>284.6</ele>
        <time>2023-01-26T15:20:06Z</time>
      </trkpt>
      <trkpt lat="44.26317" lon="1.69704">
        <ele>284.3</ele>
        <time>2023-01-26T15:20:07Z</time>
      </trkpt>
      <trkpt lat="44.26322" lon="1.69698">
        <ele>283.9</ele>
        <time>2023-01-26T15:20:08Z</time>
      </trkpt>
      <trkpt lat="44.26328" lon="1.69693">
        <ele>283.4</ele>
        <time>2023-01-26T15:20:09Z</time>
      </trkpt>
      <trkpt lat="44.26335" lon="1.69688">
        <ele>282.9</ele>
        <time>2023-01-26T15:20:10Z</time>
      </trkpt>
      <trkpt lat="44.26341" lon="1.69683">
        <ele>282.3</ele>
        <time>2023-01-26T15:20:11Z</time>
      </trkpt>
      <trkpt lat="44.26347" lon="1.69677">
        <ele>281.7</ele>
        <time>2023-01-26T15:20:12Z</time>
      </trkpt>
      <trkpt lat="44.26352" lon="1.6967">
        <ele>281.1</ele>
        <time>2023-01-26T15:20:13Z</time>
      </trkpt>
      <trkpt lat="44.26357" lon="1.69664">
        <ele>280.4</ele>
        <time>2023-01-26T15:20:14Z</time>
      </trkpt>
      <trkpt lat="44.26362" lon="1.69659">
        <ele>279.6</ele>
        <time>2023-01-26T15:20:15Z</time>
      </trkpt>
      <trkpt lat="44.26369" lon="1.69654">
        <ele>278.7</ele>
        <time>2023-01-26T15:20:16Z</time>
      </trkpt>
      <trkpt lat="44.26375" lon="1.6965">
        <ele>277.6</ele>
        <time>2023-01-26T15:20:17Z</time>
      </trkpt>
      <trkpt lat="44.26381" lon="1.69647">
        <ele>276.7</ele>
        <time>2023-01-26T15:20:18Z</time>
      </trkpt>
      <trkpt lat="44.26385" lon="1.69645">
        <ele>275.9</ele>
        <time>2023-01-26T15:20:19Z</time>
      </trkpt>
      <trkpt lat="44.26391" lon="1.69641">
        <ele>275</ele>
        <time>2023-01-26T15:20:20Z</time>
      </trkpt>
      <trkpt lat="44.26396" lon="1.69635">
        <ele>274</ele>
        <time>2023-01-26T15:20:21Z</time>
      </trkpt>
      <trkpt lat="44.26401" lon="1.69627">
        <ele>272.9</ele>
        <time>2023-01-26T15:20:22Z</time>
      </trkpt>
      <trkpt lat="44.26406" lon="1.69618">
        <ele>272.1</ele>
        <time>2023-01-26T15:20:23Z</time>
      </trkpt>
      <trkpt lat="44.2641" lon="1.69608">
        <ele>271.5</ele>
        <time>2023-01-26T15:20:24Z</time>
      </trkpt>
      <trkpt lat="44.26413" lon="1.69597">
        <ele>270.9</ele>
        <time>2023-01-26T15:20:25Z</time>
      </trkpt>
      <trkpt lat="44.26414" lon="1.69585">
        <ele>270.4</ele>
        <time>2023-01-26T15:20:26Z</time>
      </trkpt>
      <trkpt lat="44.26415" lon="1.69574">
        <ele>270</ele>
        <time>2023-01-26T15:20:27Z</time>
      </trkpt>
      <trkpt lat="44.26416" lon="1.69563">
        <ele>269.7</ele>
        <time>2023-01-26T15:20:28Z</time>
      </trkpt>
      <trkpt lat="44.26418" lon="1.69553">
        <ele>269.4</ele>
        <time>2023-01-26T15:20:29Z</time>
      </trkpt>
      <trkpt lat="44.26419" lon="1.69542">
        <ele>269</ele>
        <time>2023-01-26T15:20:30Z</time>
      </trkpt>
      <trkpt lat="44.26422" lon="1.69531">
        <ele>268.6</ele>
        <time>2023-01-26T15:20:31Z</time>
      </trkpt>
      <trkpt lat="44.26424" lon="1.69521">
        <ele>268.2</ele>
        <time>2023-01-26T15:20:32Z</time>
      </trkpt>
      <trkpt lat="44.26427" lon="1.69511">
        <ele>267.7</ele>
        <time>2023-01-26T15:20:33Z</time>
      </trkpt>
      <trkpt lat="44.26429" lon="1.695">
        <ele>267.2</ele>
        <time>2023-01-26T15:20:34Z</time>
      </trkpt>
      <trkpt lat="44.2643" lon="1.6949">
        <ele>266.8</ele>
        <time>2023-01-26T15:20:35Z</time>
      </trkpt>
      <trkpt lat="44.26431" lon="1.69479">
        <ele>266.4</ele>
        <time>2023-01-26T15:20:36Z</time>
      </trkpt>
      <trkpt lat="44.26432" lon="1.69469">
        <ele>265.9</ele>
        <time>2023-01-26T15:20:37Z</time>
      </trkpt>
      <trkpt lat="44.26433" lon="1.69458">
        <ele>265.6</ele>
        <time>2023-01-26T15:20:38Z</time>
      </trkpt>
      <trkpt lat="44.26433" lon="1.69448">
        <ele>265.2</ele>
        <time>2023-01-26T15:20:39Z</time>
      </trkpt>
      <trkpt lat="44.26433" lon="1.69438">
        <ele>264.9</ele>
        <time>2023-01-26T15:20:40Z</time>
      </trkpt>
      <trkpt lat="44.26432" lon="1.69428">
        <ele>264.6</ele>
        <time>2023-01-26T15:20:41Z</time>
      </trkpt>
      <trkpt lat="44.26432" lon="1.69418">
        <ele>264.2</ele>
        <time>2023-01-26T15:20:42Z</time>
      </trkpt>
      <trkpt lat="44.26431" lon="1.69409">
        <ele>263.8</ele>
        <time>2023-01-26T15:20:43Z</time>
      </trkpt>
      <trkpt lat="44.2643" lon="1.69399">
        <ele>263.6</ele>
        <time>2023-01-26T15:20:44Z</time>
      </trkpt>
      <trkpt lat="44.26429" lon="1.6939">
        <ele>263.4</ele>
        <time>2023-01-26T15:20:45Z</time>
      </trkpt>
      <trkpt lat="44.26429" lon="1.69381">
        <ele>263.2</ele>
        <time>2023-01-26T15:20:46Z</time>
      </trkpt>
      <trkpt lat="44.26429" lon="1.69372">
        <ele>262.9</ele>
        <time>2023-01-26T15:20:47Z</time>
      </trkpt>
      <trkpt lat="44.26429" lon="1.69363">
        <ele>262.5</ele>
        <time>2023-01-26T15:20:48Z</time>
      </trkpt>
      <trkpt lat="44.2643" lon="1.69354">
        <ele>262.1</ele>
        <time>2023-01-26T15:20:49Z</time>
      </trkpt>
      <trkpt lat="44.26431" lon="1.69346">
        <ele>261.7</ele>
        <time>2023-01-26T15:20:50Z</time>
      </trkpt>
      <trkpt lat="44.26432" lon="1.69337">
        <ele>261.1</ele>
        <time>2023-01-26T15:20:51Z</time>
      </trkpt>
      <trkpt lat="44.26434" lon="1.69327">
        <ele>260.5</ele>
        <time>2023-01-26T15:20:52Z</time>
      </trkpt>
      <trkpt lat="44.26435" lon="1.69318">
        <ele>259.9</ele>
        <time>2023-01-26T15:20:53Z</time>
      </trkpt>
      <trkpt lat="44.26435" lon="1.69309">
        <ele>259.2</ele>
        <time>2023-01-26T15:20:54Z</time>
      </trkpt>
      <trkpt lat="44.26436" lon="1.69299">
        <ele>258.7</ele>
        <time>2023-01-26T15:20:55Z</time>
      </trkpt>
      <trkpt lat="44.26437" lon="1.6929">
        <ele>258.2</ele>
        <time>2023-01-26T15:20:56Z</time>
      </trkpt>
      <trkpt lat="44.26438" lon="1.6928">
        <ele>257.6</ele>
        <time>2023-01-26T15:20:57Z</time>
      </trkpt>
      <trkpt lat="44.26439" lon="1.6927">
        <ele>256.9</ele>
        <time>2023-01-26T15:20:58Z</time>
      </trkpt>
      <trkpt lat="44.26441" lon="1.6926">
        <ele>256.2</ele>
        <time>2023-01-26T15:20:59Z</time>
      </trkpt>
      <trkpt lat="44.26442" lon="1.6925">
        <ele>255.4</ele>
        <time>2023-01-26T15:21:00Z</time>
      </trkpt>
      <trkpt lat="44.26444" lon="1.69238">
        <ele>254.7</ele>
        <time>2023-01-26T15:21:01Z</time>
      </trkpt>
      <trkpt lat="44.26445" lon="1.69227">
        <ele>253.9</ele>
        <time>2023-01-26T15:21:02Z</time>
      </trkpt>
      <trkpt lat="44.26447" lon="1.69215">
        <ele>253.1</ele>
        <time>2023-01-26T15:21:03Z</time>
      </trkpt>
      <trkpt lat="44.26449" lon="1.69204">
        <ele>252.4</ele>
        <time>2023-01-26T15:21:04Z</time>
      </trkpt>
      <trkpt lat="44.26451" lon="1.69191">
        <ele>251.7</ele>
        <time>2023-01-26T15:21:05Z</time>
      </trkpt>
      <trkpt lat="44.26453" lon="1.6918">
        <ele>251.1</ele>
        <time>2023-01-26T15:21:06Z</time>
      </trkpt>
      <trkpt lat="44.26454" lon="1.69168">
        <ele>250.4</ele>
        <time>2023-01-26T15:21:07Z</time>
      </trkpt>
      <trkpt lat="44.26455" lon="1.69155">
        <ele>249.5</ele>
        <time>2023-01-26T15:21:08Z</time>
      </trkpt>
      <trkpt lat="44.26456" lon="1.69144">
        <ele>248.9</ele>
        <time>2023-01-26T15:21:09Z</time>
      </trkpt>
      <trkpt lat="44.26455" lon="1.69133">
        <ele>248.4</ele>
        <time>2023-01-26T15:21:10Z</time>
      </trkpt>
      <trkpt lat="44.26454" lon="1.69123">
        <ele>248</ele>
        <time>2023-01-26T15:21:11Z</time>
      </trkpt>
      <trkpt lat="44.26453" lon="1.69113">
        <ele>247.7</ele>
        <time>2023-01-26T15:21:12Z</time>
      </trkpt>
      <trkpt lat="44.26452" lon="1.69104">
        <ele>247.4</ele>
        <time>2023-01-26T15:21:13Z</time>
      </trkpt>
      <trkpt lat="44.26451" lon="1.69096">
        <ele>247.2</ele>
        <time>2023-01-26T15:21:14Z</time>
      </trkpt>
      <trkpt lat="44.2645" lon="1.6909">
        <ele>247</ele>
        <time>2023-01-26T15:21:15Z</time>
      </trkpt>
      <trkpt lat="44.2645" lon="1.69086">
        <ele>246.9</ele>
        <time>2023-01-26T15:21:16Z</time>
      </trkpt>
      <trkpt lat="44.26451" lon="1.69084">
        <ele>246.9</ele>
        <time>2023-01-26T15:21:17Z</time>
      </trkpt>
      <trkpt lat="44.26452" lon="1.69083">
        <ele>245.3</ele>
        <time>2023-01-26T15:21:18Z</time>
      </trkpt>
      <trkpt lat="44.26453" lon="1.69082">
        <ele>245.3</ele>
        <time>2023-01-26T15:21:19Z</time>
      </trkpt>
      <trkpt lat="44.26455" lon="1.69082">
        <ele>245.1</ele>
        <time>2023-01-26T15:21:20Z</time>
      </trkpt>
      <trkpt lat="44.26456" lon="1.69082">
        <ele>245.1</ele>
        <time>2023-01-26T15:21:21Z</time>
      </trkpt>
      <trkpt lat="44.26456" lon="1.69082">
        <ele>245.1</ele>
        <time>2023-01-26T15:21:22Z</time>
      </trkpt>
      <trkpt lat="44.26457" lon="1.69081">
        <ele>245</ele>
        <time>2023-01-26T15:21:23Z</time>
      </trkpt>
      <trkpt lat="44.26459" lon="1.6908">
        <ele>244.9</ele>
        <time>2023-01-26T15:21:24Z</time>
      </trkpt>
      <trkpt lat="44.26463" lon="1.69077">
        <ele>244.7</ele>
        <time>2023-01-26T15:21:25Z</time>
      </trkpt>
      <trkpt lat="44.26465" lon="1.69076">
        <ele>244.6</ele>
        <time>2023-01-26T15:21:26Z</time>
      </trkpt>
      <trkpt lat="44.26468" lon="1.69075">
        <ele>244.5</ele>
        <time>2023-01-26T15:21:27Z</time>
      </trkpt>
      <trkpt lat="44.26472" lon="1.69073">
        <ele>244.2</ele>
        <time>2023-01-26T15:21:28Z</time>
      </trkpt>
      <trkpt lat="44.26479" lon="1.69068">
        <ele>243.9</ele>
        <time>2023-01-26T15:21:30Z</time>
      </trkpt>
      <trkpt lat="44.26483" lon="1.69064">
        <ele>243.7</ele>
        <time>2023-01-26T15:21:31Z</time>
      </trkpt>
      <trkpt lat="44.26488" lon="1.6906">
        <ele>243.5</ele>
        <time>2023-01-26T15:21:32Z</time>
      </trkpt>
      <trkpt lat="44.26492" lon="1.69056">
        <ele>243.3</ele>
        <time>2023-01-26T15:21:33Z</time>
      </trkpt>
      <trkpt lat="44.26496" lon="1.69052">
        <ele>243.2</ele>
        <time>2023-01-26T15:21:34Z</time>
      </trkpt>
      <trkpt lat="44.265" lon="1.69048">
        <ele>243.1</ele>
        <time>2023-01-26T15:21:35Z</time>
      </trkpt>
      <trkpt lat="44.26504" lon="1.69043">
        <ele>242.9</ele>
        <time>2023-01-26T15:21:36Z</time>
      </trkpt>
      <trkpt lat="44.26508" lon="1.69037">
        <ele>242.8</ele>
        <time>2023-01-26T15:21:37Z</time>
      </trkpt>
      <trkpt lat="44.26512" lon="1.69032">
        <ele>242.6</ele>
        <time>2023-01-26T15:21:38Z</time>
      </trkpt>
      <trkpt lat="44.26516" lon="1.69027">
        <ele>242.5</ele>
        <time>2023-01-26T15:21:39Z</time>
      </trkpt>
      <trkpt lat="44.2652" lon="1.69022">
        <ele>242.4</ele>
        <time>2023-01-26T15:21:40Z</time>
      </trkpt>
      <trkpt lat="44.26523" lon="1.69017">
        <ele>242.3</ele>
        <time>2023-01-26T15:21:41Z</time>
      </trkpt>
      <trkpt lat="44.26526" lon="1.69011">
        <ele>242.2</ele>
        <time>2023-01-26T15:21:42Z</time>
      </trkpt>
      <trkpt lat="44.26529" lon="1.69005">
        <ele>242</ele>
        <time>2023-01-26T15:21:43Z</time>
      </trkpt>
      <trkpt lat="44.26532" lon="1.68999">
        <ele>241.9</ele>
        <time>2023-01-26T15:21:44Z</time>
      </trkpt>
      <trkpt lat="44.26535" lon="1.68993">
        <ele>241.7</ele>
        <time>2023-01-26T15:21:45Z</time>
      </trkpt>
      <trkpt lat="44.26538" lon="1.68987">
        <ele>241.5</ele>
        <time>2023-01-26T15:21:46Z</time>
      </trkpt>
      <trkpt lat="44.2654" lon="1.6898">
        <ele>241.3</ele>
        <time>2023-01-26T15:21:47Z</time>
      </trkpt>
      <trkpt lat="44.26542" lon="1.68974">
        <ele>241.2</ele>
        <time>2023-01-26T15:21:48Z</time>
      </trkpt>
      <trkpt lat="44.26543" lon="1.68967">
        <ele>241</ele>
        <time>2023-01-26T15:21:49Z</time>
      </trkpt>
      <trkpt lat="44.26546" lon="1.68961">
        <ele>240.8</ele>
        <time>2023-01-26T15:21:50Z</time>
      </trkpt>
      <trkpt lat="44.26549" lon="1.68955">
        <ele>240.6</ele>
        <time>2023-01-26T15:21:51Z</time>
      </trkpt>
      <trkpt lat="44.26553" lon="1.6895">
        <ele>240.4</ele>
        <time>2023-01-26T15:21:52Z</time>
      </trkpt>
      <trkpt lat="44.26557" lon="1.68944">
        <ele>240.2</ele>
        <time>2023-01-26T15:21:53Z</time>
      </trkpt>
      <trkpt lat="44.26561" lon="1.68938">
        <ele>240</ele>
        <time>2023-01-26T15:21:54Z</time>
      </trkpt>
      <trkpt lat="44.26565" lon="1.68932">
        <ele>239.7</ele>
        <time>2023-01-26T15:21:55Z</time>
      </trkpt>
      <trkpt lat="44.26568" lon="1.68926">
        <ele>239.5</ele>
        <time>2023-01-26T15:21:56Z</time>
      </trkpt>
      <trkpt lat="44.26572" lon="1.6892">
        <ele>239.3</ele>
        <time>2023-01-26T15:21:57Z</time>
      </trkpt>
      <trkpt lat="44.26576" lon="1.68916">
        <ele>239.1</ele>
        <time>2023-01-26T15:21:58Z</time>
      </trkpt>
      <trkpt lat="44.26579" lon="1.68911">
        <ele>238.9</ele>
        <time>2023-01-26T15:21:59Z</time>
      </trkpt>
      <trkpt lat="44.26583" lon="1.68906">
        <ele>238.7</ele>
        <time>2023-01-26T15:22:00Z</time>
      </trkpt>
      <trkpt lat="44.26586" lon="1.68901">
        <ele>238.5</ele>
        <time>2023-01-26T15:22:01Z</time>
      </trkpt>
      <trkpt lat="44.2659" lon="1.68896">
        <ele>238.3</ele>
        <time>2023-01-26T15:22:02Z</time>
      </trkpt>
      <trkpt lat="44.26594" lon="1.6889">
        <ele>238.1</ele>
        <time>2023-01-26T15:22:03Z</time>
      </trkpt>
      <trkpt lat="44.26598" lon="1.68885">
        <ele>237.9</ele>
        <time>2023-01-26T15:22:04Z</time>
      </trkpt>
      <trkpt lat="44.26602" lon="1.68879">
        <ele>237.7</ele>
        <time>2023-01-26T15:22:05Z</time>
      </trkpt>
      <trkpt lat="44.26606" lon="1.68874">
        <ele>237.4</ele>
        <time>2023-01-26T15:22:06Z</time>
      </trkpt>
      <trkpt lat="44.2661" lon="1.68869">
        <ele>237.2</ele>
        <time>2023-01-26T15:22:07Z</time>
      </trkpt>
      <trkpt lat="44.26614" lon="1.68864">
        <ele>236.9</ele>
        <time>2023-01-26T15:22:08Z</time>
      </trkpt>
      <trkpt lat="44.26618" lon="1.68858">
        <ele>236.7</ele>
        <time>2023-01-26T15:22:09Z</time>
      </trkpt>
      <trkpt lat="44.26622" lon="1.68853">
        <ele>236.5</ele>
        <time>2023-01-26T15:22:10Z</time>
      </trkpt>
      <trkpt lat="44.26626" lon="1.68849">
        <ele>236.3</ele>
        <time>2023-01-26T15:22:11Z</time>
      </trkpt>
      <trkpt lat="44.2663" lon="1.68844">
        <ele>236.1</ele>
        <time>2023-01-26T15:22:12Z</time>
      </trkpt>
      <trkpt lat="44.26635" lon="1.6884">
        <ele>235.9</ele>
        <time>2023-01-26T15:22:13Z</time>
      </trkpt>
      <trkpt lat="44.26639" lon="1.68836">
        <ele>235.7</ele>
        <time>2023-01-26T15:22:14Z</time>
      </trkpt>
      <trkpt lat="44.26644" lon="1.68831">
        <ele>235.5</ele>
        <time>2023-01-26T15:22:15Z</time>
      </trkpt>
      <trkpt lat="44.26648" lon="1.68827">
        <ele>235.4</ele>
        <time>2023-01-26T15:22:16Z</time>
      </trkpt>
      <trkpt lat="44.26652" lon="1.68822">
        <ele>235.2</ele>
        <time>2023-01-26T15:22:17Z</time>
      </trkpt>
      <trkpt lat="44.26656" lon="1.68818">
        <ele>235.1</ele>
        <time>2023-01-26T15:22:18Z</time>
      </trkpt>
      <trkpt lat="44.26659" lon="1.68813">
        <ele>235</ele>
        <time>2023-01-26T15:22:19Z</time>
      </trkpt>
      <trkpt lat="44.26662" lon="1.68807">
        <ele>234.8</ele>
        <time>2023-01-26T15:22:20Z</time>
      </trkpt>
      <trkpt lat="44.26662" lon="1.68801">
        <ele>234.5</ele>
        <time>2023-01-26T15:22:21Z</time>
      </trkpt>
      <trkpt lat="44.26662" lon="1.68792">
        <ele>234.1</ele>
        <time>2023-01-26T15:22:22Z</time>
      </trkpt>
      <trkpt lat="44.26662" lon="1.68784">
        <ele>233.9</ele>
        <time>2023-01-26T15:22:23Z</time>
      </trkpt>
      <trkpt lat="44.26662" lon="1.68776">
        <ele>233.8</ele>
        <time>2023-01-26T15:22:24Z</time>
      </trkpt>
      <trkpt lat="44.26662" lon="1.68767">
        <ele>233.8</ele>
        <time>2023-01-26T15:22:25Z</time>
      </trkpt>
      <trkpt lat="44.26663" lon="1.68759">
        <ele>233.8</ele>
        <time>2023-01-26T15:22:26Z</time>
      </trkpt>
      <trkpt lat="44.26664" lon="1.6875">
        <ele>233.7</ele>
        <time>2023-01-26T15:22:27Z</time>
      </trkpt>
      <trkpt lat="44.26665" lon="1.68741">
        <ele>233.7</ele>
        <time>2023-01-26T15:22:28Z</time>
      </trkpt>
      <trkpt lat="44.26666" lon="1.68732">
        <ele>233.8</ele>
        <time>2023-01-26T15:22:29Z</time>
      </trkpt>
      <trkpt lat="44.26666" lon="1.68723">
        <ele>233.9</ele>
        <time>2023-01-26T15:22:30Z</time>
      </trkpt>
      <trkpt lat="44.26667" lon="1.68715">
        <ele>234.1</ele>
        <time>2023-01-26T15:22:31Z</time>
      </trkpt>
      <trkpt lat="44.26668" lon="1.68706">
        <ele>234.3</ele>
        <time>2023-01-26T15:22:32Z</time>
      </trkpt>
      <trkpt lat="44.2667" lon="1.68698">
        <ele>234.5</ele>
        <time>2023-01-26T15:22:33Z</time>
      </trkpt>
      <trkpt lat="44.26671" lon="1.6869">
        <ele>234.7</ele>
        <time>2023-01-26T15:22:34Z</time>
      </trkpt>
      <trkpt lat="44.26672" lon="1.68682">
        <ele>235</ele>
        <time>2023-01-26T15:22:35Z</time>
      </trkpt>
      <trkpt lat="44.26672" lon="1.68673">
        <ele>235.3</ele>
        <time>2023-01-26T15:22:36Z</time>
      </trkpt>
      <trkpt lat="44.26673" lon="1.68664">
        <ele>235.6</ele>
        <time>2023-01-26T15:22:37Z</time>
      </trkpt>
      <trkpt lat="44.26673" lon="1.68655">
        <ele>235.9</ele>
        <time>2023-01-26T15:22:38Z</time>
      </trkpt>
      <trkpt lat="44.26673" lon="1.68646">
        <ele>236.2</ele>
        <time>2023-01-26T15:22:39Z</time>
      </trkpt>
      <trkpt lat="44.26673" lon="1.68637">
        <ele>236.4</ele>
        <time>2023-01-26T15:22:40Z</time>
      </trkpt>
      <trkpt lat="44.26672" lon="1.68629">
        <ele>236.6</ele>
        <time>2023-01-26T15:22:41Z</time>
      </trkpt>
      <trkpt lat="44.26672" lon="1.68621">
        <ele>236.8</ele>
        <time>2023-01-26T15:22:42Z</time>
      </trkpt>
      <trkpt lat="44.26671" lon="1.68613">
        <ele>237</ele>
        <time>2023-01-26T15:22:43Z</time>
      </trkpt>
      <trkpt lat="44.26671" lon="1.68605">
        <ele>237.1</ele>
        <time>2023-01-26T15:22:44Z</time>
      </trkpt>
      <trkpt lat="44.2667" lon="1.68596">
        <ele>237</ele>
        <time>2023-01-26T15:22:45Z</time>
      </trkpt>
      <trkpt lat="44.26669" lon="1.68587">
        <ele>236.9</ele>
        <time>2023-01-26T15:22:46Z</time>
      </trkpt>
      <trkpt lat="44.26669" lon="1.68579">
        <ele>236.6</ele>
        <time>2023-01-26T15:22:47Z</time>
      </trkpt>
      <trkpt lat="44.26667" lon="1.68571">
        <ele>236.4</ele>
        <time>2023-01-26T15:22:48Z</time>
      </trkpt>
      <trkpt lat="44.26665" lon="1.68563">
        <ele>236</ele>
        <time>2023-01-26T15:22:49Z</time>
      </trkpt>
      <trkpt lat="44.26664" lon="1.68556">
        <ele>235.5</ele>
        <time>2023-01-26T15:22:50Z</time>
      </trkpt>
      <trkpt lat="44.26662" lon="1.68548">
        <ele>235</ele>
        <time>2023-01-26T15:22:51Z</time>
      </trkpt>
      <trkpt lat="44.26661" lon="1.68541">
        <ele>234.4</ele>
        <time>2023-01-26T15:22:52Z</time>
      </trkpt>
      <trkpt lat="44.2666" lon="1.68535">
        <ele>233.8</ele>
        <time>2023-01-26T15:22:53Z</time>
      </trkpt>
      <trkpt lat="44.26658" lon="1.68528">
        <ele>233.3</ele>
        <time>2023-01-26T15:22:54Z</time>
      </trkpt>
      <trkpt lat="44.26657" lon="1.68522">
        <ele>232.8</ele>
        <time>2023-01-26T15:22:55Z</time>
      </trkpt>
      <trkpt lat="44.26656" lon="1.68516">
        <ele>232.4</ele>
        <time>2023-01-26T15:22:56Z</time>
      </trkpt>
      <trkpt lat="44.26654" lon="1.68511">
        <ele>232</ele>
        <time>2023-01-26T15:22:57Z</time>
      </trkpt>
      <trkpt lat="44.26651" lon="1.68506">
        <ele>231.8</ele>
        <time>2023-01-26T15:22:58Z</time>
      </trkpt>
      <trkpt lat="44.26648" lon="1.68501">
        <ele>231.6</ele>
        <time>2023-01-26T15:22:59Z</time>
      </trkpt>
      <trkpt lat="44.26644" lon="1.68495">
        <ele>231.6</ele>
        <time>2023-01-26T15:23:00Z</time>
      </trkpt>
      <trkpt lat="44.26639" lon="1.6849">
        <ele>231.6</ele>
        <time>2023-01-26T15:23:01Z</time>
      </trkpt>
      <trkpt lat="44.26634" lon="1.68486">
        <ele>231.7</ele>
        <time>2023-01-26T15:23:02Z</time>
      </trkpt>
      <trkpt lat="44.26629" lon="1.68482">
        <ele>231.8</ele>
        <time>2023-01-26T15:23:03Z</time>
      </trkpt>
      <trkpt lat="44.26624" lon="1.68478">
        <ele>231.9</ele>
        <time>2023-01-26T15:23:04Z</time>
      </trkpt>
      <trkpt lat="44.2662" lon="1.68475">
        <ele>231.9</ele>
        <time>2023-01-26T15:23:05Z</time>
      </trkpt>
      <trkpt lat="44.26616" lon="1.68472">
        <ele>232</ele>
        <time>2023-01-26T15:23:06Z</time>
      </trkpt>
      <trkpt lat="44.26611" lon="1.68468">
        <ele>232.1</ele>
        <time>2023-01-26T15:23:07Z</time>
      </trkpt>
      <trkpt lat="44.26608" lon="1.68465">
        <ele>232.2</ele>
        <time>2023-01-26T15:23:08Z</time>
      </trkpt>
      <trkpt lat="44.26604" lon="1.68459">
        <ele>232.3</ele>
        <time>2023-01-26T15:23:09Z</time>
      </trkpt>
      <trkpt lat="44.266" lon="1.68453">
        <ele>232.4</ele>
        <time>2023-01-26T15:23:10Z</time>
      </trkpt>
      <trkpt lat="44.26597" lon="1.68446">
        <ele>232.4</ele>
        <time>2023-01-26T15:23:11Z</time>
      </trkpt>
      <trkpt lat="44.26594" lon="1.68442">
        <ele>232.5</ele>
        <time>2023-01-26T15:23:12Z</time>
      </trkpt>
      <trkpt lat="44.26589" lon="1.68436">
        <ele>232.5</ele>
        <time>2023-01-26T15:23:13Z</time>
      </trkpt>
      <trkpt lat="44.26586" lon="1.68432">
        <ele>232.6</ele>
        <time>2023-01-26T15:23:14Z</time>
      </trkpt>
      <trkpt lat="44.26585" lon="1.68429">
        <ele>232.6</ele>
        <time>2023-01-26T15:23:15Z</time>
      </trkpt>
      <trkpt lat="44.26582" lon="1.68423">
        <ele>232.7</ele>
        <time>2023-01-26T15:23:16Z</time>
      </trkpt>
      <trkpt lat="44.26581" lon="1.68419">
        <ele>232.7</ele>
        <time>2023-01-26T15:23:17Z</time>
      </trkpt>
      <trkpt lat="44.2658" lon="1.68412">
        <ele>232.8</ele>
        <time>2023-01-26T15:23:19Z</time>
      </trkpt>
      <trkpt lat="44.2658" lon="1.68403">
        <ele>232.9</ele>
        <time>2023-01-26T15:23:20Z</time>
      </trkpt>
      <trkpt lat="44.26578" lon="1.68395">
        <ele>233.1</ele>
        <time>2023-01-26T15:23:21Z</time>
      </trkpt>
      <trkpt lat="44.26576" lon="1.68387">
        <ele>233.3</ele>
        <time>2023-01-26T15:23:22Z</time>
      </trkpt>
      <trkpt lat="44.26575" lon="1.68374">
        <ele>233.5</ele>
        <time>2023-01-26T15:23:24Z</time>
      </trkpt>
      <trkpt lat="44.26575" lon="1.68363">
        <ele>233.5</ele>
        <time>2023-01-26T15:23:25Z</time>
      </trkpt>
      <trkpt lat="44.26573" lon="1.68356">
        <ele>233.5</ele>
        <time>2023-01-26T15:23:26Z</time>
      </trkpt>
      <trkpt lat="44.26572" lon="1.68347">
        <ele>233.6</ele>
        <time>2023-01-26T15:23:27Z</time>
      </trkpt>
      <trkpt lat="44.26571" lon="1.68338">
        <ele>233.5</ele>
        <time>2023-01-26T15:23:28Z</time>
      </trkpt>
      <trkpt lat="44.2657" lon="1.6833">
        <ele>233.4</ele>
        <time>2023-01-26T15:23:29Z</time>
      </trkpt>
      <trkpt lat="44.2657" lon="1.68322">
        <ele>233.4</ele>
        <time>2023-01-26T15:23:30Z</time>
      </trkpt>
      <trkpt lat="44.2657" lon="1.68313">
        <ele>233.4</ele>
        <time>2023-01-26T15:23:31Z</time>
      </trkpt>
      <trkpt lat="44.2657" lon="1.68304">
        <ele>233.6</ele>
        <time>2023-01-26T15:23:32Z</time>
      </trkpt>
      <trkpt lat="44.2657" lon="1.68297">
        <ele>234</ele>
        <time>2023-01-26T15:23:33Z</time>
      </trkpt>
      <trkpt lat="44.2657" lon="1.68291">
        <ele>234.3</ele>
        <time>2023-01-26T15:23:34Z</time>
      </trkpt>
      <trkpt lat="44.26571" lon="1.68285">
        <ele>234.7</ele>
        <time>2023-01-26T15:23:35Z</time>
      </trkpt>
      <trkpt lat="44.26572" lon="1.68278">
        <ele>235.2</ele>
        <time>2023-01-26T15:23:36Z</time>
      </trkpt>
      <trkpt lat="44.26572" lon="1.68272">
        <ele>235.6</ele>
        <time>2023-01-26T15:23:37Z</time>
      </trkpt>
      <trkpt lat="44.26574" lon="1.68268">
        <ele>235.8</ele>
        <time>2023-01-26T15:23:39Z</time>
      </trkpt>
      <trkpt lat="44.26575" lon="1.68263">
        <ele>236.1</ele>
        <time>2023-01-26T15:23:40Z</time>
      </trkpt>
      <trkpt lat="44.26575" lon="1.68259">
        <ele>236.4</ele>
        <time>2023-01-26T15:23:41Z</time>
      </trkpt>
      <trkpt lat="44.26577" lon="1.68252">
        <ele>236.8</ele>
        <time>2023-01-26T15:23:42Z</time>
      </trkpt>
      <trkpt lat="44.26578" lon="1.68246">
        <ele>237.3</ele>
        <time>2023-01-26T15:23:43Z</time>
      </trkpt>
      <trkpt lat="44.26581" lon="1.68239">
        <ele>237.8</ele>
        <time>2023-01-26T15:23:45Z</time>
      </trkpt>
      <trkpt lat="44.26582" lon="1.68234">
        <ele>238.3</ele>
        <time>2023-01-26T15:23:46Z</time>
      </trkpt>
      <trkpt lat="44.26582" lon="1.68228">
        <ele>238.7</ele>
        <time>2023-01-26T15:23:47Z</time>
      </trkpt>
      <trkpt lat="44.26583" lon="1.68221">
        <ele>239.2</ele>
        <time>2023-01-26T15:23:48Z</time>
      </trkpt>
      <trkpt lat="44.26584" lon="1.68214">
        <ele>239.8</ele>
        <time>2023-01-26T15:23:50Z</time>
      </trkpt>
      <trkpt lat="44.26585" lon="1.68209">
        <ele>240.2</ele>
        <time>2023-01-26T15:23:51Z</time>
      </trkpt>
      <trkpt lat="44.26586" lon="1.68202">
        <ele>240.8</ele>
        <time>2023-01-26T15:23:53Z</time>
      </trkpt>
      <trkpt lat="44.26587" lon="1.68199">
        <ele>241.1</ele>
        <time>2023-01-26T15:23:54Z</time>
      </trkpt>
      <trkpt lat="44.26588" lon="1.68195">
        <ele>241.4</ele>
        <time>2023-01-26T15:23:56Z</time>
      </trkpt>
      <trkpt lat="44.26588" lon="1.6819">
        <ele>241.7</ele>
        <time>2023-01-26T15:23:57Z</time>
      </trkpt>
      <trkpt lat="44.26588" lon="1.68188">
        <ele>241.8</ele>
        <time>2023-01-26T15:23:58Z</time>
      </trkpt>
      <trkpt lat="44.26588" lon="1.68187">
        <ele>241.9</ele>
        <time>2023-01-26T15:24:00Z</time>
      </trkpt>
      <trkpt lat="44.26587" lon="1.68187">
        <ele>241.9</ele>
        <time>2023-01-26T15:24:02Z</time>
      </trkpt>
      <trkpt lat="44.26587" lon="1.68187">
        <ele>242</ele>
        <time>2023-01-26T15:24:03Z</time>
      </trkpt>
      <trkpt lat="44.26587" lon="1.68186">
        <ele>242</ele>
        <time>2023-01-26T15:24:05Z</time>
      </trkpt>
      <trkpt lat="44.26587" lon="1.68186">
        <ele>242</ele>
        <time>2023-01-26T15:24:06Z</time>
      </trkpt>
      <trkpt lat="44.26588" lon="1.68185">
        <ele>242.1</ele>
        <time>2023-01-26T15:24:08Z</time>
      </trkpt>
      <trkpt lat="44.26584" lon="1.68176">
        <ele>242.5</ele>
        <time>2023-01-26T15:24:53Z</time>
      </trkpt>
      <trkpt lat="44.26585" lon="1.68176">
        <ele>242.6</ele>
        <time>2023-01-26T15:24:54Z</time>
      </trkpt>
      <trkpt lat="44.26586" lon="1.68177">
        <ele>242.6</ele>
        <time>2023-01-26T15:24:56Z</time>
      </trkpt>
      <trkpt lat="44.26586" lon="1.68177">
        <ele>242.6</ele>
        <time>2023-01-26T15:24:57Z</time>
      </trkpt>
      <trkpt lat="44.26586" lon="1.68178">
        <ele>242.6</ele>
        <time>2023-01-26T15:24:58Z</time>
      </trkpt>
      <trkpt lat="44.26586" lon="1.68178">
        <ele>242.6</ele>
        <time>2023-01-26T15:25:00Z</time>
      </trkpt>
      <trkpt lat="44.26586" lon="1.68178">
        <ele>242.6</ele>
        <time>2023-01-26T15:25:01Z</time>
      </trkpt>
      <trkpt lat="44.26586" lon="1.68178">
        <ele>242.6</ele>
        <time>2023-01-26T15:25:03Z</time>
      </trkpt>
      <trkpt lat="44.26586" lon="1.68178">
        <ele>242.6</ele>
        <time>2023-01-26T15:25:04Z</time>
      </trkpt>
      <trkpt lat="44.26587" lon="1.68178">
        <ele>242.6</ele>
        <time>2023-01-26T15:25:06Z</time>
      </trkpt>
      <trkpt lat="44.26583" lon="1.68177">
        <ele>242.7</ele>
        <time>2023-01-26T15:25:27Z</time>
      </trkpt>
      <trkpt lat="44.26582" lon="1.68177">
        <ele>242.8</ele>
        <time>2023-01-26T15:25:28Z</time>
      </trkpt>
      <trkpt lat="44.26581" lon="1.68176">
        <ele>242.8</ele>
        <time>2023-01-26T15:25:30Z</time>
      </trkpt>
      <trkpt lat="44.26581" lon="1.68176">
        <ele>242.8</ele>
        <time>2023-01-26T15:25:31Z</time>
      </trkpt>
      <trkpt lat="44.2658" lon="1.68176">
        <ele>242.8</ele>
        <time>2023-01-26T15:25:33Z</time>
      </trkpt>
      <trkpt lat="44.2658" lon="1.68175">
        <ele>242.8</ele>
        <time>2023-01-26T15:25:34Z</time>
      </trkpt>
      <trkpt lat="44.26579" lon="1.68175">
        <ele>242.8</ele>
        <time>2023-01-26T15:25:36Z</time>
      </trkpt>
      <trkpt lat="44.26579" lon="1.68175">
        <ele>242.8</ele>
        <time>2023-01-26T15:25:37Z</time>
      </trkpt>
      <trkpt lat="44.26579" lon="1.68174">
        <ele>242.8</ele>
        <time>2023-01-26T15:25:39Z</time>
      </trkpt>
      <trkpt lat="44.26579" lon="1.68174">
        <ele>242.8</ele>
        <time>2023-01-26T15:25:40Z</time>
      </trkpt>
      <trkpt lat="44.26579" lon="1.68174">
        <ele>242.8</ele>
        <time>2023-01-26T15:25:42Z</time>
      </trkpt>
      <trkpt lat="44.26578" lon="1.68174">
        <ele>242.8</ele>
        <time>2023-01-26T15:25:43Z</time>
      </trkpt>
      <trkpt lat="44.26578" lon="1.68174">
        <ele>242.8</ele>
        <time>2023-01-26T15:25:45Z</time>
      </trkpt>
      <trkpt lat="44.26578" lon="1.68174">
        <ele>242.8</ele>
        <time>2023-01-26T15:25:46Z</time>
      </trkpt>
      <trkpt lat="44.26578" lon="1.68175">
        <ele>242.8</ele>
        <time>2023-01-26T15:25:47Z</time>
      </trkpt>
      <trkpt lat="44.26578" lon="1.68176">
        <ele>242.8</ele>
        <time>2023-01-26T15:25:48Z</time>
      </trkpt>
      <trkpt lat="44.26578" lon="1.68176">
        <ele>242.8</ele>
        <time>2023-01-26T15:25:49Z</time>
      </trkpt>
      <trkpt lat="44.26578" lon="1.68176">
        <ele>242.8</ele>
        <time>2023-01-26T15:25:50Z</time>
      </trkpt>
      <trkpt lat="44.26579" lon="1.68176">
        <ele>242.8</ele>
        <time>2023-01-26T15:25:51Z</time>
      </trkpt>
      <trkpt lat="44.26578" lon="1.68176">
        <ele>242.8</ele>
        <time>2023-01-26T15:25:52Z</time>
      </trkpt>
      <trkpt lat="44.26578" lon="1.68177">
        <ele>242.8</ele>
        <time>2023-01-26T15:25:53Z</time>
      </trkpt>
      <trkpt lat="44.26578" lon="1.68176">
        <ele>242.8</ele>
        <time>2023-01-26T15:25:54Z</time>
      </trkpt>
      <trkpt lat="44.26578" lon="1.68176">
        <ele>242.8</ele>
        <time>2023-01-26T15:25:55Z</time>
      </trkpt>
      <trkpt lat="44.26578" lon="1.68176">
        <ele>242.8</ele>
        <time>2023-01-26T15:25:56Z</time>
      </trkpt>
      <trkpt lat="44.26578" lon="1.68176">
        <ele>242.8</ele>
        <time>2023-01-26T15:25:57Z</time>
      </trkpt>
      <trkpt lat="44.26578" lon="1.68176">
        <ele>242.8</ele>
        <time>2023-01-26T15:25:58Z</time>
      </trkpt>
      <trkpt lat="44.26578" lon="1.68176">
        <ele>242.8</ele>
        <time>2023-01-26T15:25:59Z</time>
      </trkpt>
      <trkpt lat="44.26578" lon="1.68176">
        <ele>242.8</ele>
        <time>2023-01-26T15:26:00Z</time>
      </trkpt>
      <trkpt lat="44.26578" lon="1.68176">
        <ele>242.8</ele>
        <time>2023-01-26T15:26:01Z</time>
      </trkpt>
      <trkpt lat="44.26578" lon="1.68176">
        <ele>242.8</ele>
        <time>2023-01-26T15:26:02Z</time>
      </trkpt>
      <trkpt lat="44.26577" lon="1.68176">
        <ele>242.9</ele>
        <time>2023-01-26T15:26:03Z</time>
      </trkpt>
      <trkpt lat="44.26577" lon="1.68176">
        <ele>242.9</ele>
        <time>2023-01-26T15:26:04Z</time>
      </trkpt>
      <trkpt lat="44.26577" lon="1.68176">
        <ele>242.9</ele>
        <time>2023-01-26T15:26:05Z</time>
      </trkpt>
      <trkpt lat="44.26577" lon="1.68176">
        <ele>242.9</ele>
        <time>2023-01-26T15:26:06Z</time>
      </trkpt>
      <trkpt lat="44.2658" lon="1.68172">
        <ele>242.9</ele>
        <time>2023-01-26T15:26:29Z</time>
      </trkpt>
      <trkpt lat="44.2658" lon="1.68172">
        <ele>242.9</ele>
        <time>2023-01-26T15:26:30Z</time>
      </trkpt>
      <trkpt lat="44.2658" lon="1.68171">
        <ele>242.9</ele>
        <time>2023-01-26T15:26:32Z</time>
      </trkpt>
      <trkpt lat="44.26579" lon="1.6817">
        <ele>242.9</ele>
        <time>2023-01-26T15:26:33Z</time>
      </trkpt>
      <trkpt lat="44.26579" lon="1.6817">
        <ele>242.9</ele>
        <time>2023-01-26T15:26:35Z</time>
      </trkpt>
      <trkpt lat="44.26579" lon="1.68169">
        <ele>242.9</ele>
        <time>2023-01-26T15:26:36Z</time>
      </trkpt>
      <trkpt lat="44.26579" lon="1.68169">
        <ele>242.9</ele>
        <time>2023-01-26T15:26:37Z</time>
      </trkpt>
      <trkpt lat="44.26579" lon="1.68168">
        <ele>242.9</ele>
        <time>2023-01-26T15:26:39Z</time>
      </trkpt>
      <trkpt lat="44.2658" lon="1.68168">
        <ele>242.9</ele>
        <time>2023-01-26T15:26:41Z</time>
      </trkpt>
      <trkpt lat="44.26581" lon="1.68169">
        <ele>242.8</ele>
        <time>2023-01-26T15:26:42Z</time>
      </trkpt>
      <trkpt lat="44.26581" lon="1.68169">
        <ele>242.8</ele>
        <time>2023-01-26T15:26:43Z</time>
      </trkpt>
      <trkpt lat="44.26582" lon="1.68169">
        <ele>242.8</ele>
        <time>2023-01-26T15:26:45Z</time>
      </trkpt>
      <trkpt lat="44.26582" lon="1.68169">
        <ele>242.8</ele>
        <time>2023-01-26T15:26:46Z</time>
      </trkpt>
      <trkpt lat="44.26582" lon="1.68171">
        <ele>242.8</ele>
        <time>2023-01-26T15:26:47Z</time>
      </trkpt>
      <trkpt lat="44.26582" lon="1.68172">
        <ele>242.8</ele>
        <time>2023-01-26T15:26:48Z</time>
      </trkpt>
      <trkpt lat="44.26582" lon="1.68172">
        <ele>242.8</ele>
        <time>2023-01-26T15:26:49Z</time>
      </trkpt>
      <trkpt lat="44.26582" lon="1.68173">
        <ele>242.8</ele>
        <time>2023-01-26T15:26:51Z</time>
      </trkpt>
      <trkpt lat="44.26581" lon="1.68173">
        <ele>242.8</ele>
        <time>2023-01-26T15:26:52Z</time>
      </trkpt>
      <trkpt lat="44.26581" lon="1.68174">
        <ele>242.8</ele>
        <time>2023-01-26T15:26:53Z</time>
      </trkpt>
      <trkpt lat="44.26581" lon="1.68174">
        <ele>242.8</ele>
        <time>2023-01-26T15:26:54Z</time>
      </trkpt>
      <trkpt lat="44.26581" lon="1.68174">
        <ele>242.8</ele>
        <time>2023-01-26T15:26:55Z</time>
      </trkpt>
      <trkpt lat="44.2658" lon="1.68175">
        <ele>242.8</ele>
        <time>2023-01-26T15:26:56Z</time>
      </trkpt>
      <trkpt lat="44.2658" lon="1.68176">
        <ele>242.8</ele>
        <time>2023-01-26T15:26:57Z</time>
      </trkpt>
      <trkpt lat="44.2658" lon="1.68176">
        <ele>242.8</ele>
        <time>2023-01-26T15:26:58Z</time>
      </trkpt>
      <trkpt lat="44.2658" lon="1.68177">
        <ele>242.8</ele>
        <time>2023-01-26T15:26:59Z</time>
      </trkpt>
      <trkpt lat="44.2658" lon="1.68177">
        <ele>242.8</ele>
        <time>2023-01-26T15:27:00Z</time>
      </trkpt>
      <trkpt lat="44.2658" lon="1.68177">
        <ele>242.8</ele>
        <time>2023-01-26T15:27:01Z</time>
      </trkpt>
      <trkpt lat="44.26579" lon="1.68177">
        <ele>242.8</ele>
        <time>2023-01-26T15:27:02Z</time>
      </trkpt>
      <trkpt lat="44.26579" lon="1.68177">
        <ele>242.8</ele>
        <time>2023-01-26T15:27:03Z</time>
      </trkpt>
      <trkpt lat="44.26579" lon="1.68177">
        <ele>242.8</ele>
        <time>2023-01-26T15:27:04Z</time>
      </trkpt>
      <trkpt lat="44.26579" lon="1.68177">
        <ele>242.8</ele>
        <time>2023-01-26T15:27:05Z</time>
      </trkpt>
      <trkpt lat="44.2658" lon="1.68177">
        <ele>242.8</ele>
        <time>2023-01-26T15:27:06Z</time>
      </trkpt>
      <trkpt lat="44.2658" lon="1.68177">
        <ele>242.8</ele>
        <time>2023-01-26T15:27:07Z</time>
      </trkpt>
      <trkpt lat="44.26579" lon="1.68177">
        <ele>242.8</ele>
        <time>2023-01-26T15:27:08Z</time>
      </trkpt>
      <trkpt lat="44.2658" lon="1.68178">
        <ele>242.8</ele>
        <time>2023-01-26T15:27:09Z</time>
      </trkpt>
      <trkpt lat="44.2658" lon="1.68178">
        <ele>242.8</ele>
        <time>2023-01-26T15:27:10Z</time>
      </trkpt>
      <trkpt lat="44.26579" lon="1.68179">
        <ele>242.8</ele>
        <time>2023-01-26T15:27:11Z</time>
      </trkpt>
      <trkpt lat="44.26579" lon="1.68179">
        <ele>242.8</ele>
        <time>2023-01-26T15:27:12Z</time>
      </trkpt>
      <trkpt lat="44.26579" lon="1.68179">
        <ele>242.8</ele>
        <time>2023-01-26T15:27:13Z</time>
      </trkpt>
      <trkpt lat="44.26578" lon="1.6818">
        <ele>242.8</ele>
        <time>2023-01-26T15:27:14Z</time>
      </trkpt>
      <trkpt lat="44.26578" lon="1.68179">
        <ele>242.8</ele>
        <time>2023-01-26T15:27:15Z</time>
      </trkpt>
      <trkpt lat="44.26578" lon="1.68178">
        <ele>242.7</ele>
        <time>2023-01-26T15:27:16Z</time>
      </trkpt>
      <trkpt lat="44.26578" lon="1.68178">
        <ele>242.7</ele>
        <time>2023-01-26T15:27:17Z</time>
      </trkpt>
      <trkpt lat="44.26579" lon="1.68177">
        <ele>242.7</ele>
        <time>2023-01-26T15:27:18Z</time>
      </trkpt>
      <trkpt lat="44.26579" lon="1.68176">
        <ele>242.7</ele>
        <time>2023-01-26T15:27:19Z</time>
      </trkpt>
      <trkpt lat="44.26579" lon="1.68176">
        <ele>242.7</ele>
        <time>2023-01-26T15:27:20Z</time>
      </trkpt>
      <trkpt lat="44.26579" lon="1.68175">
        <ele>242.7</ele>
        <time>2023-01-26T15:27:21Z</time>
      </trkpt>
      <trkpt lat="44.26579" lon="1.68175">
        <ele>242.7</ele>
        <time>2023-01-26T15:27:22Z</time>
      </trkpt>
      <trkpt lat="44.26579" lon="1.68174">
        <ele>242.7</ele>
        <time>2023-01-26T15:27:23Z</time>
      </trkpt>
      <trkpt lat="44.26579" lon="1.68173">
        <ele>242.7</ele>
        <time>2023-01-26T15:27:24Z</time>
      </trkpt>
      <trkpt lat="44.26579" lon="1.68173">
        <ele>242.7</ele>
        <time>2023-01-26T15:28:13Z</time>
      </trkpt>
      <trkpt lat="44.26579" lon="1.68172">
        <ele>242.7</ele>
        <time>2023-01-26T15:28:14Z</time>
      </trkpt>
      <trkpt lat="44.26579" lon="1.68171">
        <ele>242.7</ele>
        <time>2023-01-26T15:28:15Z</time>
      </trkpt>
      <trkpt lat="44.26579" lon="1.68171">
        <ele>242.7</ele>
        <time>2023-01-26T15:28:16Z</time>
      </trkpt>
      <trkpt lat="44.26579" lon="1.6817">
        <ele>242.7</ele>
        <time>2023-01-26T15:28:17Z</time>
      </trkpt>
      <trkpt lat="44.2658" lon="1.68169">
        <ele>242.7</ele>
        <time>2023-01-26T15:28:18Z</time>
      </trkpt>
      <trkpt lat="44.2658" lon="1.68169">
        <ele>242.7</ele>
        <time>2023-01-26T15:28:19Z</time>
      </trkpt>
      <trkpt lat="44.2658" lon="1.68168">
        <ele>242.7</ele>
        <time>2023-01-26T15:28:20Z</time>
      </trkpt>
      <trkpt lat="44.2658" lon="1.68166">
        <ele>242.7</ele>
        <time>2023-01-26T15:28:21Z</time>
      </trkpt>
      <trkpt lat="44.2658" lon="1.68166">
        <ele>242.7</ele>
        <time>2023-01-26T15:28:22Z</time>
      </trkpt>
      <trkpt lat="44.26579" lon="1.68167">
        <ele>242.7</ele>
        <time>2023-01-26T15:28:23Z</time>
      </trkpt>
      <trkpt lat="44.26578" lon="1.6817">
        <ele>242.7</ele>
        <time>2023-01-26T15:28:24Z</time>
      </trkpt>
      <trkpt lat="44.26577" lon="1.68171">
        <ele>242.7</ele>
        <time>2023-01-26T15:28:25Z</time>
      </trkpt>
      <trkpt lat="44.26576" lon="1.68173">
        <ele>242.7</ele>
        <time>2023-01-26T15:28:26Z</time>
      </trkpt>
      <trkpt lat="44.26576" lon="1.68173">
        <ele>242.7</ele>
        <time>2023-01-26T15:28:27Z</time>
      </trkpt>
      <trkpt lat="44.26575" lon="1.68173">
        <ele>242.7</ele>
        <time>2023-01-26T15:28:28Z</time>
      </trkpt>
      <trkpt lat="44.26575" lon="1.68174">
        <ele>242.7</ele>
        <time>2023-01-26T15:28:29Z</time>
      </trkpt>
      <trkpt lat="44.26575" lon="1.68174">
        <ele>242.7</ele>
        <time>2023-01-26T15:28:30Z</time>
      </trkpt>
      <trkpt lat="44.26574" lon="1.68175">
        <ele>242.7</ele>
        <time>2023-01-26T15:28:31Z</time>
      </trkpt>
      <trkpt lat="44.26574" lon="1.68176">
        <ele>242.7</ele>
        <time>2023-01-26T15:28:32Z</time>
      </trkpt>
      <trkpt lat="44.26573" lon="1.68176">
        <ele>242.7</ele>
        <time>2023-01-26T15:28:33Z</time>
      </trkpt>
      <trkpt lat="44.26573" lon="1.68177">
        <ele>242.7</ele>
        <time>2023-01-26T15:28:35Z</time>
      </trkpt>
      <trkpt lat="44.26573" lon="1.68176">
        <ele>242.7</ele>
        <time>2023-01-26T15:28:36Z</time>
      </trkpt>
      <trkpt lat="44.26573" lon="1.68176">
        <ele>242.7</ele>
        <time>2023-01-26T15:28:37Z</time>
      </trkpt>
      <trkpt lat="44.26573" lon="1.68176">
        <ele>242.7</ele>
        <time>2023-01-26T15:28:38Z</time>
      </trkpt>
      <trkpt lat="44.26572" lon="1.68176">
        <ele>242.7</ele>
        <time>2023-01-26T15:28:39Z</time>
      </trkpt>
      <trkpt lat="44.26571" lon="1.68175">
        <ele>242.7</ele>
        <time>2023-01-26T15:28:40Z</time>
      </trkpt>
      <trkpt lat="44.2657" lon="1.68175">
        <ele>242.7</ele>
        <time>2023-01-26T15:28:41Z</time>
      </trkpt>
      <trkpt lat="44.2657" lon="1.68174">
        <ele>242.7</ele>
        <time>2023-01-26T15:28:42Z</time>
      </trkpt>
      <trkpt lat="44.26571" lon="1.68175">
        <ele>242.7</ele>
        <time>2023-01-26T15:28:43Z</time>
      </trkpt>
      <trkpt lat="44.26572" lon="1.68175">
        <ele>242.7</ele>
        <time>2023-01-26T15:28:44Z</time>
      </trkpt>
      <trkpt lat="44.26573" lon="1.68174">
        <ele>242.7</ele>
        <time>2023-01-26T15:28:45Z</time>
      </trkpt>
      <trkpt lat="44.26574" lon="1.68174">
        <ele>242.7</ele>
        <time>2023-01-26T15:28:46Z</time>
      </trkpt>
      <trkpt lat="44.26575" lon="1.68173">
        <ele>242.7</ele>
        <time>2023-01-26T15:28:47Z</time>
      </trkpt>
      <trkpt lat="44.26576" lon="1.68172">
        <ele>242.7</ele>
        <time>2023-01-26T15:28:48Z</time>
      </trkpt>
      <trkpt lat="44.26577" lon="1.68171">
        <ele>242.7</ele>
        <time>2023-01-26T15:28:49Z</time>
      </trkpt>
      <trkpt lat="44.26577" lon="1.68171">
        <ele>242.7</ele>
        <time>2023-01-26T15:28:50Z</time>
      </trkpt>
      <trkpt lat="44.26578" lon="1.6817">
        <ele>242.7</ele>
        <time>2023-01-26T15:28:51Z</time>
      </trkpt>
      <trkpt lat="44.26578" lon="1.6817">
        <ele>242.7</ele>
        <time>2023-01-26T15:28:52Z</time>
      </trkpt>
      <trkpt lat="44.26578" lon="1.6817">
        <ele>242.7</ele>
        <time>2023-01-26T15:28:53Z</time>
      </trkpt>
      <trkpt lat="44.26579" lon="1.6817">
        <ele>242.7</ele>
        <time>2023-01-26T15:28:54Z</time>
      </trkpt>
      <trkpt lat="44.2658" lon="1.6817">
        <ele>242.7</ele>
        <time>2023-01-26T15:28:55Z</time>
      </trkpt>
      <trkpt lat="44.2658" lon="1.68169">
        <ele>242.7</ele>
        <time>2023-01-26T15:28:56Z</time>
      </trkpt>
      <trkpt lat="44.26579" lon="1.68169">
        <ele>242.7</ele>
        <time>2023-01-26T15:28:57Z</time>
      </trkpt>
      <trkpt lat="44.26579" lon="1.6817">
        <ele>242.7</ele>
        <time>2023-01-26T15:28:58Z</time>
      </trkpt>
      <trkpt lat="44.26578" lon="1.68171">
        <ele>242.7</ele>
        <time>2023-01-26T15:28:59Z</time>
      </trkpt>
      <trkpt lat="44.26579" lon="1.68171">
        <ele>242.7</ele>
        <time>2023-01-26T15:29:00Z</time>
      </trkpt>
      <trkpt lat="44.26579" lon="1.68171">
        <ele>242.7</ele>
        <time>2023-01-26T15:29:01Z</time>
      </trkpt>
      <trkpt lat="44.2658" lon="1.68171">
        <ele>242.7</ele>
        <time>2023-01-26T15:29:02Z</time>
      </trkpt>
      <trkpt lat="44.26581" lon="1.6817">
        <ele>242.6</ele>
        <time>2023-01-26T15:29:03Z</time>
      </trkpt>
      <trkpt lat="44.26581" lon="1.6817">
        <ele>242.6</ele>
        <time>2023-01-26T15:29:04Z</time>
      </trkpt>
      <trkpt lat="44.26581" lon="1.68168">
        <ele>242.6</ele>
        <time>2023-01-26T15:29:05Z</time>
      </trkpt>
      <trkpt lat="44.26581" lon="1.68168">
        <ele>242.6</ele>
        <time>2023-01-26T15:29:06Z</time>
      </trkpt>
      <trkpt lat="44.26581" lon="1.68168">
        <ele>242.6</ele>
        <time>2023-01-26T15:29:07Z</time>
      </trkpt>
      <trkpt lat="44.26581" lon="1.68168">
        <ele>242.6</ele>
        <time>2023-01-26T15:29:08Z</time>
      </trkpt>
      <trkpt lat="44.26581" lon="1.68168">
        <ele>242.6</ele>
        <time>2023-01-26T15:29:09Z</time>
      </trkpt>
      <trkpt lat="44.2658" lon="1.68167">
        <ele>242.6</ele>
        <time>2023-01-26T15:29:10Z</time>
      </trkpt>
      <trkpt lat="44.2658" lon="1.68167">
        <ele>242.6</ele>
        <time>2023-01-26T15:29:11Z</time>
      </trkpt>
      <trkpt lat="44.26579" lon="1.68167">
        <ele>242.6</ele>
        <time>2023-01-26T15:29:12Z</time>
      </trkpt>
      <trkpt lat="44.2658" lon="1.68167">
        <ele>242.6</ele>
        <time>2023-01-26T15:29:13Z</time>
      </trkpt>
      <trkpt lat="44.2658" lon="1.68167">
        <ele>242.6</ele>
        <time>2023-01-26T15:29:14Z</time>
      </trkpt>
      <trkpt lat="44.2658" lon="1.68167">
        <ele>242.6</ele>
        <time>2023-01-26T15:29:15Z</time>
      </trkpt>
      <trkpt lat="44.2658" lon="1.68168">
        <ele>242.6</ele>
        <time>2023-01-26T15:29:16Z</time>
      </trkpt>
      <trkpt lat="44.2658" lon="1.68168">
        <ele>242.6</ele>
        <time>2023-01-26T15:29:17Z</time>
      </trkpt>
      <trkpt lat="44.2658" lon="1.68168">
        <ele>242.6</ele>
        <time>2023-01-26T15:29:18Z</time>
      </trkpt>
      <trkpt lat="44.2658" lon="1.68168">
        <ele>242.6</ele>
        <time>2023-01-26T15:29:19Z</time>
      </trkpt>
      <trkpt lat="44.2658" lon="1.68168">
        <ele>242.6</ele>
        <time>2023-01-26T15:29:20Z</time>
      </trkpt>
      <trkpt lat="44.2658" lon="1.68168">
        <ele>242.6</ele>
        <time>2023-01-26T15:29:21Z</time>
      </trkpt>
      <trkpt lat="44.2658" lon="1.68169">
        <ele>242.6</ele>
        <time>2023-01-26T15:29:22Z</time>
      </trkpt>
      <trkpt lat="44.26579" lon="1.68169">
        <ele>242.6</ele>
        <time>2023-01-26T15:29:23Z</time>
      </trkpt>
      <trkpt lat="44.26579" lon="1.68169">
        <ele>242.6</ele>
        <time>2023-01-26T15:29:24Z</time>
      </trkpt>
      <trkpt lat="44.26579" lon="1.6817">
        <ele>242.6</ele>
        <time>2023-01-26T15:29:25Z</time>
      </trkpt>
      <trkpt lat="44.26579" lon="1.68169">
        <ele>242.6</ele>
        <time>2023-01-26T15:29:26Z</time>
      </trkpt>
      <trkpt lat="44.26579" lon="1.68169">
        <ele>242.6</ele>
        <time>2023-01-26T15:29:27Z</time>
      </trkpt>
      <trkpt lat="44.2658" lon="1.68169">
        <ele>242.6</ele>
        <time>2023-01-26T15:29:28Z</time>
      </trkpt>
      <trkpt lat="44.2658" lon="1.68169">
        <ele>242.6</ele>
        <time>2023-01-26T15:29:29Z</time>
      </trkpt>
      <trkpt lat="44.2658" lon="1.68169">
        <ele>242.6</ele>
        <time>2023-01-26T15:29:30Z</time>
      </trkpt>
      <trkpt lat="44.2658" lon="1.68169">
        <ele>242.6</ele>
        <time>2023-01-26T15:29:31Z</time>
      </trkpt>
      <trkpt lat="44.2658" lon="1.68169">
        <ele>242.6</ele>
        <time>2023-01-26T15:29:32Z</time>
      </trkpt>
      <trkpt lat="44.2658" lon="1.68169">
        <ele>242.6</ele>
        <time>2023-01-26T15:29:33Z</time>
      </trkpt>
      <trkpt lat="44.2658" lon="1.68169">
        <ele>242.6</ele>
        <time>2023-01-26T15:29:34Z</time>
      </trkpt>
      <trkpt lat="44.2658" lon="1.68168">
        <ele>242.6</ele>
        <time>2023-01-26T15:29:35Z</time>
      </trkpt>
      <trkpt lat="44.2658" lon="1.68167">
        <ele>242.6</ele>
        <time>2023-01-26T15:29:36Z</time>
      </trkpt>
      <trkpt lat="44.2658" lon="1.68167">
        <ele>242.6</ele>
        <time>2023-01-26T15:29:37Z</time>
      </trkpt>
      <trkpt lat="44.2658" lon="1.68166">
        <ele>242.6</ele>
        <time>2023-01-26T15:29:38Z</time>
      </trkpt>
      <trkpt lat="44.26579" lon="1.68166">
        <ele>242.6</ele>
        <time>2023-01-26T15:29:39Z</time>
      </trkpt>
      <trkpt lat="44.2658" lon="1.68165">
        <ele>242.6</ele>
        <time>2023-01-26T15:29:40Z</time>
      </trkpt>
      <trkpt lat="44.2658" lon="1.68165">
        <ele>242.6</ele>
        <time>2023-01-26T15:29:41Z</time>
      </trkpt>
      <trkpt lat="44.26581" lon="1.68165">
        <ele>242.6</ele>
        <time>2023-01-26T15:29:42Z</time>
      </trkpt>
      <trkpt lat="44.26581" lon="1.68165">
        <ele>242.6</ele>
        <time>2023-01-26T15:29:43Z</time>
      </trkpt>
      <trkpt lat="44.26581" lon="1.68166">
        <ele>242.6</ele>
        <time>2023-01-26T15:29:44Z</time>
      </trkpt>
      <trkpt lat="44.26581" lon="1.68166">
        <ele>242.6</ele>
        <time>2023-01-26T15:29:45Z</time>
      </trkpt>
      <trkpt lat="44.26581" lon="1.68166">
        <ele>242.6</ele>
        <time>2023-01-26T15:29:46Z</time>
      </trkpt>
      <trkpt lat="44.26581" lon="1.68166">
        <ele>242.6</ele>
        <time>2023-01-26T15:29:47Z</time>
      </trkpt>
      <trkpt lat="44.26581" lon="1.68166">
        <ele>242.6</ele>
        <time>2023-01-26T15:29:48Z</time>
      </trkpt>
      <trkpt lat="44.26582" lon="1.68165">
        <ele>242.6</ele>
        <time>2023-01-26T15:29:55Z</time>
      </trkpt>
      <trkpt lat="44.26582" lon="1.68165">
        <ele>242.6</ele>
        <time>2023-01-26T15:29:56Z</time>
      </trkpt>
      <trkpt lat="44.26583" lon="1.68165">
        <ele>242.6</ele>
        <time>2023-01-26T15:29:57Z</time>
      </trkpt>
      <trkpt lat="44.26583" lon="1.68165">
        <ele>242.6</ele>
        <time>2023-01-26T15:29:58Z</time>
      </trkpt>
      <trkpt lat="44.26583" lon="1.68165">
        <ele>242.6</ele>
        <time>2023-01-26T15:29:59Z</time>
      </trkpt>
      <trkpt lat="44.26583" lon="1.68165">
        <ele>242.6</ele>
        <time>2023-01-26T15:30:00Z</time>
      </trkpt>
      <trkpt lat="44.26583" lon="1.68166">
        <ele>242.6</ele>
        <time>2023-01-26T15:30:01Z</time>
      </trkpt>
      <trkpt lat="44.26583" lon="1.68166">
        <ele>242.6</ele>
        <time>2023-01-26T15:30:02Z</time>
      </trkpt>
      <trkpt lat="44.26583" lon="1.68167">
        <ele>242.6</ele>
        <time>2023-01-26T15:30:03Z</time>
      </trkpt>
      <trkpt lat="44.26583" lon="1.68167">
        <ele>242.6</ele>
        <time>2023-01-26T15:30:04Z</time>
      </trkpt>
      <trkpt lat="44.26583" lon="1.68168">
        <ele>242.6</ele>
        <time>2023-01-26T15:30:05Z</time>
      </trkpt>
      <trkpt lat="44.26583" lon="1.68169">
        <ele>242.7</ele>
        <time>2023-01-26T15:30:06Z</time>
      </trkpt>
      <trkpt lat="44.26583" lon="1.6817">
        <ele>242.7</ele>
        <time>2023-01-26T15:30:07Z</time>
      </trkpt>
      <trkpt lat="44.26583" lon="1.68171">
        <ele>242.7</ele>
        <time>2023-01-26T15:30:08Z</time>
      </trkpt>
      <trkpt lat="44.26583" lon="1.68171">
        <ele>242.7</ele>
        <time>2023-01-26T15:30:09Z</time>
      </trkpt>
      <trkpt lat="44.26583" lon="1.68172">
        <ele>242.7</ele>
        <time>2023-01-26T15:30:10Z</time>
      </trkpt>
      <trkpt lat="44.26582" lon="1.68173">
        <ele>242.7</ele>
        <time>2023-01-26T15:30:11Z</time>
      </trkpt>
      <trkpt lat="44.26582" lon="1.68173">
        <ele>242.7</ele>
        <time>2023-01-26T15:30:12Z</time>
      </trkpt>
      <trkpt lat="44.26582" lon="1.68174">
        <ele>242.7</ele>
        <time>2023-01-26T15:30:13Z</time>
      </trkpt>
      <trkpt lat="44.26581" lon="1.68174">
        <ele>242.7</ele>
        <time>2023-01-26T15:30:14Z</time>
      </trkpt>
      <trkpt lat="44.26581" lon="1.68175">
        <ele>242.7</ele>
        <time>2023-01-26T15:30:15Z</time>
      </trkpt>
      <trkpt lat="44.26581" lon="1.68176">
        <ele>242.7</ele>
        <time>2023-01-26T15:30:16Z</time>
      </trkpt>
      <trkpt lat="44.2658" lon="1.68176">
        <ele>242.7</ele>
        <time>2023-01-26T15:30:17Z</time>
      </trkpt>
      <trkpt lat="44.2658" lon="1.68177">
        <ele>242.7</ele>
        <time>2023-01-26T15:30:18Z</time>
      </trkpt>
      <trkpt lat="44.2658" lon="1.68178">
        <ele>242.7</ele>
        <time>2023-01-26T15:30:19Z</time>
      </trkpt>
      <trkpt lat="44.2658" lon="1.68178">
        <ele>242.7</ele>
        <time>2023-01-26T15:30:20Z</time>
      </trkpt>
      <trkpt lat="44.2658" lon="1.68179">
        <ele>242.7</ele>
        <time>2023-01-26T15:30:21Z</time>
      </trkpt>
      <trkpt lat="44.26581" lon="1.68181">
        <ele>242.7</ele>
        <time>2023-01-26T15:30:22Z</time>
      </trkpt>
      <trkpt lat="44.26581" lon="1.68181">
        <ele>242.7</ele>
        <time>2023-01-26T15:30:23Z</time>
      </trkpt>
      <trkpt lat="44.26582" lon="1.68181">
        <ele>242.7</ele>
        <time>2023-01-26T15:30:24Z</time>
      </trkpt>
      <trkpt lat="44.26582" lon="1.68181">
        <ele>242.7</ele>
        <time>2023-01-26T15:30:25Z</time>
      </trkpt>
      <trkpt lat="44.26582" lon="1.68181">
        <ele>242.7</ele>
        <time>2023-01-26T15:30:26Z</time>
      </trkpt>
      <trkpt lat="44.26581" lon="1.68182">
        <ele>242.7</ele>
        <time>2023-01-26T15:30:27Z</time>
      </trkpt>
      <trkpt lat="44.26581" lon="1.68182">
        <ele>242.7</ele>
        <time>2023-01-26T15:30:28Z</time>
      </trkpt>
      <trkpt lat="44.26582" lon="1.68183">
        <ele>242.7</ele>
        <time>2023-01-26T15:30:29Z</time>
      </trkpt>
      <trkpt lat="44.26581" lon="1.68182">
        <ele>242.7</ele>
        <time>2023-01-26T15:30:30Z</time>
      </trkpt>
      <trkpt lat="44.26581" lon="1.68182">
        <ele>242.7</ele>
        <time>2023-01-26T15:30:31Z</time>
      </trkpt>
      <trkpt lat="44.26581" lon="1.68181">
        <ele>242.7</ele>
        <time>2023-01-26T15:30:32Z</time>
      </trkpt>
      <trkpt lat="44.26581" lon="1.68181">
        <ele>242.7</ele>
        <time>2023-01-26T15:30:33Z</time>
      </trkpt>
      <trkpt lat="44.26581" lon="1.6818">
        <ele>242.7</ele>
        <time>2023-01-26T15:30:34Z</time>
      </trkpt>
      <trkpt lat="44.26581" lon="1.6818">
        <ele>242.7</ele>
        <time>2023-01-26T15:30:35Z</time>
      </trkpt>
      <trkpt lat="44.26581" lon="1.68179">
        <ele>242.7</ele>
        <time>2023-01-26T15:30:36Z</time>
      </trkpt>
      <trkpt lat="44.26581" lon="1.68179">
        <ele>242.7</ele>
        <time>2023-01-26T15:30:37Z</time>
      </trkpt>
      <trkpt lat="44.26581" lon="1.68178">
        <ele>242.6</ele>
        <time>2023-01-26T15:30:38Z</time>
      </trkpt>
      <trkpt lat="44.26581" lon="1.68178">
        <ele>242.6</ele>
        <time>2023-01-26T15:30:39Z</time>
      </trkpt>
      <trkpt lat="44.2658" lon="1.68178">
        <ele>242.6</ele>
        <time>2023-01-26T15:30:40Z</time>
      </trkpt>
      <trkpt lat="44.2658" lon="1.68177">
        <ele>242.6</ele>
        <time>2023-01-26T15:30:41Z</time>
      </trkpt>
      <trkpt lat="44.2658" lon="1.68177">
        <ele>242.6</ele>
        <time>2023-01-26T15:30:42Z</time>
      </trkpt>
      <trkpt lat="44.2658" lon="1.68177">
        <ele>242.6</ele>
        <time>2023-01-26T15:30:43Z</time>
      </trkpt>
      <trkpt lat="44.2658" lon="1.68177">
        <ele>242.6</ele>
        <time>2023-01-26T15:30:44Z</time>
      </trkpt>
      <trkpt lat="44.2658" lon="1.68177">
        <ele>242.6</ele>
        <time>2023-01-26T15:30:45Z</time>
      </trkpt>
      <trkpt lat="44.26581" lon="1.68177">
        <ele>242.6</ele>
        <time>2023-01-26T15:30:46Z</time>
      </trkpt>
      <trkpt lat="44.26581" lon="1.68177">
        <ele>242.6</ele>
        <time>2023-01-26T15:30:47Z</time>
      </trkpt>
      <trkpt lat="44.26581" lon="1.68177">
        <ele>242.6</ele>
        <time>2023-01-26T15:30:48Z</time>
      </trkpt>
      <trkpt lat="44.26581" lon="1.68177">
        <ele>242.6</ele>
        <time>2023-01-26T15:30:49Z</time>
      </trkpt>
      <trkpt lat="44.26581" lon="1.68177">
        <ele>242.6</ele>
        <time>2023-01-26T15:30:50Z</time>
      </trkpt>
      <trkpt lat="44.26585" lon="1.68175">
        <ele>242.6</ele>
        <time>2023-01-26T15:33:02Z</time>
      </trkpt>
      <trkpt lat="44.26585" lon="1.68173">
        <ele>242.6</ele>
        <time>2023-01-26T15:33:03Z</time>
      </trkpt>
      <trkpt lat="44.26585" lon="1.68171">
        <ele>242.6</ele>
        <time>2023-01-26T15:33:04Z</time>
      </trkpt>
      <trkpt lat="44.26586" lon="1.68167">
        <ele>242.5</ele>
        <time>2023-01-26T15:33:06Z</time>
      </trkpt>
      <trkpt lat="44.26587" lon="1.68162">
        <ele>242.5</ele>
        <time>2023-01-26T15:33:07Z</time>
      </trkpt>
      <trkpt lat="44.26588" lon="1.68158">
        <ele>242.4</ele>
        <time>2023-01-26T15:33:08Z</time>
      </trkpt>
      <trkpt lat="44.26589" lon="1.68155">
        <ele>242.4</ele>
        <time>2023-01-26T15:33:09Z</time>
      </trkpt>
      <trkpt lat="44.26589" lon="1.68154">
        <ele>242.4</ele>
        <time>2023-01-26T15:33:11Z</time>
      </trkpt>
      <trkpt lat="44.2659" lon="1.68151">
        <ele>242.3</ele>
        <time>2023-01-26T15:33:12Z</time>
      </trkpt>
      <trkpt lat="44.26588" lon="1.68145">
        <ele>242.3</ele>
        <time>2023-01-26T15:33:14Z</time>
      </trkpt>
      <trkpt lat="44.26587" lon="1.68141">
        <ele>242.2</ele>
        <time>2023-01-26T15:33:15Z</time>
      </trkpt>
      <trkpt lat="44.26587" lon="1.68136">
        <ele>242</ele>
        <time>2023-01-26T15:33:16Z</time>
      </trkpt>
      <trkpt lat="44.26586" lon="1.68136">
        <ele>242</ele>
        <time>2023-01-26T15:33:17Z</time>
      </trkpt>
      <trkpt lat="44.26585" lon="1.68131">
        <ele>241.8</ele>
        <time>2023-01-26T15:33:19Z</time>
      </trkpt>
      <trkpt lat="44.26585" lon="1.6813">
        <ele>241.8</ele>
        <time>2023-01-26T15:33:20Z</time>
      </trkpt>
      <trkpt lat="44.26584" lon="1.68124">
        <ele>241.5</ele>
        <time>2023-01-26T15:33:22Z</time>
      </trkpt>
      <trkpt lat="44.26584" lon="1.68117">
        <ele>241.2</ele>
        <time>2023-01-26T15:33:23Z</time>
      </trkpt>
      <trkpt lat="44.26584" lon="1.68113">
        <ele>240.9</ele>
        <time>2023-01-26T15:33:24Z</time>
      </trkpt>
      <trkpt lat="44.26583" lon="1.68107">
        <ele>240.7</ele>
        <time>2023-01-26T15:33:25Z</time>
      </trkpt>
      <trkpt lat="44.26582" lon="1.68102">
        <ele>240.4</ele>
        <time>2023-01-26T15:33:27Z</time>
      </trkpt>
      <trkpt lat="44.26581" lon="1.68097">
        <ele>240.2</ele>
        <time>2023-01-26T15:33:28Z</time>
      </trkpt>
      <trkpt lat="44.2658" lon="1.68092">
        <ele>239.9</ele>
        <time>2023-01-26T15:33:29Z</time>
      </trkpt>
      <trkpt lat="44.26578" lon="1.68084">
        <ele>239.5</ele>
        <time>2023-01-26T15:33:31Z</time>
      </trkpt>
      <trkpt lat="44.26576" lon="1.68077">
        <ele>239.2</ele>
        <time>2023-01-26T15:33:32Z</time>
      </trkpt>
      <trkpt lat="44.26574" lon="1.68071">
        <ele>238.9</ele>
        <time>2023-01-26T15:33:33Z</time>
      </trkpt>
      <trkpt lat="44.26574" lon="1.68066">
        <ele>238.8</ele>
        <time>2023-01-26T15:33:34Z</time>
      </trkpt>
      <trkpt lat="44.26572" lon="1.68062">
        <ele>238.7</ele>
        <time>2023-01-26T15:33:35Z</time>
      </trkpt>
      <trkpt lat="44.26571" lon="1.68054">
        <ele>238.6</ele>
        <time>2023-01-26T15:33:37Z</time>
      </trkpt>
      <trkpt lat="44.2657" lon="1.6805">
        <ele>238.4</ele>
        <time>2023-01-26T15:33:39Z</time>
      </trkpt>
      <trkpt lat="44.26569" lon="1.68046">
        <ele>238.3</ele>
        <time>2023-01-26T15:33:40Z</time>
      </trkpt>
      <trkpt lat="44.26569" lon="1.68045">
        <ele>238.2</ele>
        <time>2023-01-26T15:33:41Z</time>
      </trkpt>
      <trkpt lat="44.26569" lon="1.68042">
        <ele>238.1</ele>
        <time>2023-01-26T15:33:43Z</time>
      </trkpt>
      <trkpt lat="44.26569" lon="1.6804">
        <ele>238.1</ele>
        <time>2023-01-26T15:33:44Z</time>
      </trkpt>
      <trkpt lat="44.26569" lon="1.68036">
        <ele>238</ele>
        <time>2023-01-26T15:33:45Z</time>
      </trkpt>
      <trkpt lat="44.26569" lon="1.68035">
        <ele>237.9</ele>
        <time>2023-01-26T15:33:46Z</time>
      </trkpt>
      <trkpt lat="44.26568" lon="1.6803">
        <ele>237.8</ele>
        <time>2023-01-26T15:33:48Z</time>
      </trkpt>
      <trkpt lat="44.26567" lon="1.68026">
        <ele>237.7</ele>
        <time>2023-01-26T15:33:49Z</time>
      </trkpt>
      <trkpt lat="44.26566" lon="1.68022">
        <ele>237.6</ele>
        <time>2023-01-26T15:33:50Z</time>
      </trkpt>
      <trkpt lat="44.26565" lon="1.68016">
        <ele>237.4</ele>
        <time>2023-01-26T15:33:51Z</time>
      </trkpt>
      <trkpt lat="44.26565" lon="1.68014">
        <ele>237.3</ele>
        <time>2023-01-26T15:33:52Z</time>
      </trkpt>
      <trkpt lat="44.26563" lon="1.68007">
        <ele>237.1</ele>
        <time>2023-01-26T15:33:54Z</time>
      </trkpt>
      <trkpt lat="44.26562" lon="1.68003">
        <ele>237</ele>
        <time>2023-01-26T15:33:55Z</time>
      </trkpt>
      <trkpt lat="44.26562" lon="1.67999">
        <ele>236.8</ele>
        <time>2023-01-26T15:33:56Z</time>
      </trkpt>
      <trkpt lat="44.26561" lon="1.67993">
        <ele>236.6</ele>
        <time>2023-01-26T15:33:57Z</time>
      </trkpt>
      <trkpt lat="44.26561" lon="1.67987">
        <ele>236.5</ele>
        <time>2023-01-26T15:33:58Z</time>
      </trkpt>
      <trkpt lat="44.2656" lon="1.67981">
        <ele>236.4</ele>
        <time>2023-01-26T15:34:00Z</time>
      </trkpt>
      <trkpt lat="44.2656" lon="1.67971">
        <ele>236.3</ele>
        <time>2023-01-26T15:34:01Z</time>
      </trkpt>
      <trkpt lat="44.26559" lon="1.67968">
        <ele>236.3</ele>
        <time>2023-01-26T15:34:02Z</time>
      </trkpt>
      <trkpt lat="44.26558" lon="1.67962">
        <ele>236.3</ele>
        <time>2023-01-26T15:34:04Z</time>
      </trkpt>
      <trkpt lat="44.26558" lon="1.67953">
        <ele>236.1</ele>
        <time>2023-01-26T15:34:06Z</time>
      </trkpt>
      <trkpt lat="44.26558" lon="1.67948">
        <ele>236</ele>
        <time>2023-01-26T15:34:07Z</time>
      </trkpt>
      <trkpt lat="44.26558" lon="1.67942">
        <ele>235.9</ele>
        <time>2023-01-26T15:34:08Z</time>
      </trkpt>
      <trkpt lat="44.26558" lon="1.67936">
        <ele>235.7</ele>
        <time>2023-01-26T15:34:09Z</time>
      </trkpt>
      <trkpt lat="44.26557" lon="1.67931">
        <ele>235.6</ele>
        <time>2023-01-26T15:34:10Z</time>
      </trkpt>
      <trkpt lat="44.26557" lon="1.67923">
        <ele>235.3</ele>
        <time>2023-01-26T15:34:12Z</time>
      </trkpt>
      <trkpt lat="44.26556" lon="1.67915">
        <ele>235.1</ele>
        <time>2023-01-26T15:34:13Z</time>
      </trkpt>
      <trkpt lat="44.26556" lon="1.67909">
        <ele>235</ele>
        <time>2023-01-26T15:34:14Z</time>
      </trkpt>
      <trkpt lat="44.26555" lon="1.67895">
        <ele>234.5</ele>
        <time>2023-01-26T15:34:16Z</time>
      </trkpt>
      <trkpt lat="44.26555" lon="1.67888">
        <ele>234.3</ele>
        <time>2023-01-26T15:34:17Z</time>
      </trkpt>
      <trkpt lat="44.26555" lon="1.6788">
        <ele>233.9</ele>
        <time>2023-01-26T15:34:19Z</time>
      </trkpt>
      <trkpt lat="44.26556" lon="1.67871">
        <ele>233.5</ele>
        <time>2023-01-26T15:34:20Z</time>
      </trkpt>
      <trkpt lat="44.26556" lon="1.67864">
        <ele>233.2</ele>
        <time>2023-01-26T15:34:21Z</time>
      </trkpt>
      <trkpt lat="44.26555" lon="1.67855">
        <ele>232.9</ele>
        <time>2023-01-26T15:34:22Z</time>
      </trkpt>
      <trkpt lat="44.26556" lon="1.67849">
        <ele>232.6</ele>
        <time>2023-01-26T15:34:23Z</time>
      </trkpt>
      <trkpt lat="44.26555" lon="1.67842">
        <ele>232.3</ele>
        <time>2023-01-26T15:34:25Z</time>
      </trkpt>
      <trkpt lat="44.26555" lon="1.67832">
        <ele>231.8</ele>
        <time>2023-01-26T15:34:26Z</time>
      </trkpt>
      <trkpt lat="44.26555" lon="1.67826">
        <ele>231.4</ele>
        <time>2023-01-26T15:34:27Z</time>
      </trkpt>
      <trkpt lat="44.26554" lon="1.67817">
        <ele>230.7</ele>
        <time>2023-01-26T15:34:28Z</time>
      </trkpt>
      <trkpt lat="44.26553" lon="1.67804">
        <ele>229.8</ele>
        <time>2023-01-26T15:34:30Z</time>
      </trkpt>
      <trkpt lat="44.26552" lon="1.67794">
        <ele>229.2</ele>
        <time>2023-01-26T15:34:31Z</time>
      </trkpt>
      <trkpt lat="44.26552" lon="1.67786">
        <ele>228.7</ele>
        <time>2023-01-26T15:34:32Z</time>
      </trkpt>
      <trkpt lat="44.2655" lon="1.67775">
        <ele>228.1</ele>
        <time>2023-01-26T15:34:33Z</time>
      </trkpt>
      <trkpt lat="44.26548" lon="1.67768">
        <ele>227.7</ele>
        <time>2023-01-26T15:34:34Z</time>
      </trkpt>
      <trkpt lat="44.26543" lon="1.67751">
        <ele>226.7</ele>
        <time>2023-01-26T15:34:36Z</time>
      </trkpt>
      <trkpt lat="44.26542" lon="1.67742">
        <ele>226.4</ele>
        <time>2023-01-26T15:34:38Z</time>
      </trkpt>
      <trkpt lat="44.26542" lon="1.67734">
        <ele>226.3</ele>
        <time>2023-01-26T15:34:39Z</time>
      </trkpt>
      <trkpt lat="44.26541" lon="1.67723">
        <ele>226.4</ele>
        <time>2023-01-26T15:34:40Z</time>
      </trkpt>
      <trkpt lat="44.2654" lon="1.67714">
        <ele>226.5</ele>
        <time>2023-01-26T15:34:41Z</time>
      </trkpt>
      <trkpt lat="44.2654" lon="1.67706">
        <ele>226.6</ele>
        <time>2023-01-26T15:34:43Z</time>
      </trkpt>
      <trkpt lat="44.26539" lon="1.67699">
        <ele>226.7</ele>
        <time>2023-01-26T15:34:44Z</time>
      </trkpt>
      <trkpt lat="44.26539" lon="1.67689">
        <ele>226.7</ele>
        <time>2023-01-26T15:34:45Z</time>
      </trkpt>
      <trkpt lat="44.26539" lon="1.67681">
        <ele>226.7</ele>
        <time>2023-01-26T15:34:46Z</time>
      </trkpt>
      <trkpt lat="44.26539" lon="1.67671">
        <ele>226.7</ele>
        <time>2023-01-26T15:34:48Z</time>
      </trkpt>
      <trkpt lat="44.2654" lon="1.67658">
        <ele>226.6</ele>
        <time>2023-01-26T15:34:49Z</time>
      </trkpt>
      <trkpt lat="44.2654" lon="1.6765">
        <ele>226.5</ele>
        <time>2023-01-26T15:34:51Z</time>
      </trkpt>
      <trkpt lat="44.2654" lon="1.67642">
        <ele>226.5</ele>
        <time>2023-01-26T15:34:52Z</time>
      </trkpt>
      <trkpt lat="44.26541" lon="1.67631">
        <ele>226.6</ele>
        <time>2023-01-26T15:34:53Z</time>
      </trkpt>
      <trkpt lat="44.26542" lon="1.67623">
        <ele>226.8</ele>
        <time>2023-01-26T15:34:54Z</time>
      </trkpt>
      <trkpt lat="44.26544" lon="1.67602">
        <ele>227.4</ele>
        <time>2023-01-26T15:34:56Z</time>
      </trkpt>
      <trkpt lat="44.26545" lon="1.67592">
        <ele>227.8</ele>
        <time>2023-01-26T15:34:58Z</time>
      </trkpt>
      <trkpt lat="44.26547" lon="1.67584">
        <ele>228</ele>
        <time>2023-01-26T15:34:59Z</time>
      </trkpt>
      <trkpt lat="44.26548" lon="1.67576">
        <ele>228.2</ele>
        <time>2023-01-26T15:35:00Z</time>
      </trkpt>
      <trkpt lat="44.26549" lon="1.67565">
        <ele>228.4</ele>
        <time>2023-01-26T15:35:01Z</time>
      </trkpt>
      <trkpt lat="44.26549" lon="1.67556">
        <ele>228.5</ele>
        <time>2023-01-26T15:35:03Z</time>
      </trkpt>
      <trkpt lat="44.2655" lon="1.67548">
        <ele>228.6</ele>
        <time>2023-01-26T15:35:04Z</time>
      </trkpt>
      <trkpt lat="44.26552" lon="1.67537">
        <ele>229.1</ele>
        <time>2023-01-26T15:35:06Z</time>
      </trkpt>
      <trkpt lat="44.26554" lon="1.67531">
        <ele>229.4</ele>
        <time>2023-01-26T15:35:07Z</time>
      </trkpt>
      <trkpt lat="44.26555" lon="1.67525">
        <ele>229.8</ele>
        <time>2023-01-26T15:35:08Z</time>
      </trkpt>
      <trkpt lat="44.26556" lon="1.67519">
        <ele>230</ele>
        <time>2023-01-26T15:35:10Z</time>
      </trkpt>
      <trkpt lat="44.26557" lon="1.67515">
        <ele>230</ele>
        <time>2023-01-26T15:35:12Z</time>
      </trkpt>
      <trkpt lat="44.26557" lon="1.67512">
        <ele>230.1</ele>
        <time>2023-01-26T15:35:13Z</time>
      </trkpt>
      <trkpt lat="44.26557" lon="1.67512">
        <ele>230.1</ele>
        <time>2023-01-26T15:35:15Z</time>
      </trkpt>
      <trkpt lat="44.26557" lon="1.67511">
        <ele>230.1</ele>
        <time>2023-01-26T15:35:16Z</time>
      </trkpt>
      <trkpt lat="44.26557" lon="1.67512">
        <ele>230.1</ele>
        <time>2023-01-26T15:35:17Z</time>
      </trkpt>
      <trkpt lat="44.26557" lon="1.67513">
        <ele>230.1</ele>
        <time>2023-01-26T15:35:18Z</time>
      </trkpt>
      <trkpt lat="44.26557" lon="1.67513">
        <ele>230.1</ele>
        <time>2023-01-26T15:35:19Z</time>
      </trkpt>
      <trkpt lat="44.26557" lon="1.67513">
        <ele>230.1</ele>
        <time>2023-01-26T15:35:21Z</time>
      </trkpt>
      <trkpt lat="44.26558" lon="1.67513">
        <ele>230.1</ele>
        <time>2023-01-26T15:35:23Z</time>
      </trkpt>
      <trkpt lat="44.26558" lon="1.67513">
        <ele>230.1</ele>
        <time>2023-01-26T15:35:24Z</time>
      </trkpt>
      <trkpt lat="44.26558" lon="1.67513">
        <ele>230.1</ele>
        <time>2023-01-26T15:35:25Z</time>
      </trkpt>
      <trkpt lat="44.26558" lon="1.67513">
        <ele>230.1</ele>
        <time>2023-01-26T15:35:27Z</time>
      </trkpt>
      <trkpt lat="44.26558" lon="1.67513">
        <ele>230.1</ele>
        <time>2023-01-26T15:35:29Z</time>
      </trkpt>
      <trkpt lat="44.26558" lon="1.67513">
        <ele>230.1</ele>
        <time>2023-01-26T15:35:30Z</time>
      </trkpt>
      <trkpt lat="44.26558" lon="1.67513">
        <ele>230.1</ele>
        <time>2023-01-26T15:35:31Z</time>
      </trkpt>
      <trkpt lat="44.26559" lon="1.67511">
        <ele>230.1</ele>
        <time>2023-01-26T15:35:34Z</time>
      </trkpt>
      <trkpt lat="44.26559" lon="1.67512">
        <ele>230.1</ele>
        <time>2023-01-26T15:35:35Z</time>
      </trkpt>
      <trkpt lat="44.26559" lon="1.67512">
        <ele>230.1</ele>
        <time>2023-01-26T15:35:36Z</time>
      </trkpt>
      <trkpt lat="44.26558" lon="1.67512">
        <ele>230.1</ele>
        <time>2023-01-26T15:35:37Z</time>
      </trkpt>
      <trkpt lat="44.26558" lon="1.67511">
        <ele>230.1</ele>
        <time>2023-01-26T15:35:39Z</time>
      </trkpt>
      <trkpt lat="44.26558" lon="1.67511">
        <ele>230.1</ele>
        <time>2023-01-26T15:35:40Z</time>
      </trkpt>
      <trkpt lat="44.26559" lon="1.67512">
        <ele>230.1</ele>
        <time>2023-01-26T15:35:42Z</time>
      </trkpt>
      <trkpt lat="44.26559" lon="1.67513">
        <ele>230.1</ele>
        <time>2023-01-26T15:35:43Z</time>
      </trkpt>
      <trkpt lat="44.26559" lon="1.67513">
        <ele>230.1</ele>
        <time>2023-01-26T15:35:44Z</time>
      </trkpt>
      <trkpt lat="44.26559" lon="1.67512">
        <ele>230.1</ele>
        <time>2023-01-26T15:35:45Z</time>
      </trkpt>
      <trkpt lat="44.2656" lon="1.67511">
        <ele>230.2</ele>
        <time>2023-01-26T15:35:46Z</time>
      </trkpt>
      <trkpt lat="44.26561" lon="1.67511">
        <ele>230.2</ele>
        <time>2023-01-26T15:35:48Z</time>
      </trkpt>
      <trkpt lat="44.26562" lon="1.67511">
        <ele>230.2</ele>
        <time>2023-01-26T15:35:49Z</time>
      </trkpt>
      <trkpt lat="44.26565" lon="1.67507">
        <ele>230.2</ele>
        <time>2023-01-26T15:35:50Z</time>
      </trkpt>
      <trkpt lat="44.26567" lon="1.67504">
        <ele>230.2</ele>
        <time>2023-01-26T15:35:51Z</time>
      </trkpt>
      <trkpt lat="44.26569" lon="1.67499">
        <ele>232.7</ele>
        <time>2023-01-26T15:35:53Z</time>
      </trkpt>
      <trkpt lat="44.2657" lon="1.67496">
        <ele>232.9</ele>
        <time>2023-01-26T15:35:54Z</time>
      </trkpt>
      <trkpt lat="44.26571" lon="1.67494">
        <ele>233.2</ele>
        <time>2023-01-26T15:35:55Z</time>
      </trkpt>
      <trkpt lat="44.26575" lon="1.67488">
        <ele>233.8</ele>
        <time>2023-01-26T15:35:56Z</time>
      </trkpt>
      <trkpt lat="44.26578" lon="1.67484">
        <ele>234.3</ele>
        <time>2023-01-26T15:35:58Z</time>
      </trkpt>
      <trkpt lat="44.2658" lon="1.67481">
        <ele>234.8</ele>
        <time>2023-01-26T15:35:59Z</time>
      </trkpt>
      <trkpt lat="44.26584" lon="1.67476">
        <ele>235.3</ele>
        <time>2023-01-26T15:36:00Z</time>
      </trkpt>
      <trkpt lat="44.26587" lon="1.67474">
        <ele>235.7</ele>
        <time>2023-01-26T15:36:01Z</time>
      </trkpt>
      <trkpt lat="44.26592" lon="1.67468">
        <ele>236.3</ele>
        <time>2023-01-26T15:36:03Z</time>
      </trkpt>
      <trkpt lat="44.26595" lon="1.67465">
        <ele>236.6</ele>
        <time>2023-01-26T15:36:05Z</time>
      </trkpt>
      <trkpt lat="44.26598" lon="1.67462">
        <ele>236.7</ele>
        <time>2023-01-26T15:36:06Z</time>
      </trkpt>
      <trkpt lat="44.26602" lon="1.67458">
        <ele>236.9</ele>
        <time>2023-01-26T15:36:07Z</time>
      </trkpt>
      <trkpt lat="44.26605" lon="1.67456">
        <ele>237</ele>
        <time>2023-01-26T15:36:08Z</time>
      </trkpt>
      <trkpt lat="44.26609" lon="1.67453">
        <ele>237.2</ele>
        <time>2023-01-26T15:36:10Z</time>
      </trkpt>
      <trkpt lat="44.26612" lon="1.6745">
        <ele>237.3</ele>
        <time>2023-01-26T15:36:11Z</time>
      </trkpt>
      <trkpt lat="44.26615" lon="1.67447">
        <ele>237.4</ele>
        <time>2023-01-26T15:36:12Z</time>
      </trkpt>
      <trkpt lat="44.26618" lon="1.67443">
        <ele>237.5</ele>
        <time>2023-01-26T15:36:13Z</time>
      </trkpt>
      <trkpt lat="44.26624" lon="1.67438">
        <ele>237.7</ele>
        <time>2023-01-26T15:36:15Z</time>
      </trkpt>
      <trkpt lat="44.26627" lon="1.67435">
        <ele>237.9</ele>
        <time>2023-01-26T15:36:16Z</time>
      </trkpt>
      <trkpt lat="44.26631" lon="1.67431">
        <ele>238.1</ele>
        <time>2023-01-26T15:36:17Z</time>
      </trkpt>
      <trkpt lat="44.26636" lon="1.67426">
        <ele>238.5</ele>
        <time>2023-01-26T15:36:18Z</time>
      </trkpt>
      <trkpt lat="44.26641" lon="1.6742">
        <ele>238.9</ele>
        <time>2023-01-26T15:36:20Z</time>
      </trkpt>
      <trkpt lat="44.26646" lon="1.67414">
        <ele>239.6</ele>
        <time>2023-01-26T15:36:21Z</time>
      </trkpt>
      <trkpt lat="44.2665" lon="1.67408">
        <ele>240.1</ele>
        <time>2023-01-26T15:36:23Z</time>
      </trkpt>
      <trkpt lat="44.26652" lon="1.67404">
        <ele>240.4</ele>
        <time>2023-01-26T15:36:24Z</time>
      </trkpt>
      <trkpt lat="44.26654" lon="1.67399">
        <ele>240.8</ele>
        <time>2023-01-26T15:36:25Z</time>
      </trkpt>
      <trkpt lat="44.26655" lon="1.67394">
        <ele>241.1</ele>
        <time>2023-01-26T15:36:26Z</time>
      </trkpt>
      <trkpt lat="44.26657" lon="1.67389">
        <ele>241.3</ele>
        <time>2023-01-26T15:36:27Z</time>
      </trkpt>
      <trkpt lat="44.26658" lon="1.67381">
        <ele>241.7</ele>
        <time>2023-01-26T15:36:29Z</time>
      </trkpt>
      <trkpt lat="44.26659" lon="1.67377">
        <ele>242</ele>
        <time>2023-01-26T15:36:30Z</time>
      </trkpt>
      <trkpt lat="44.2666" lon="1.67373">
        <ele>242.2</ele>
        <time>2023-01-26T15:36:31Z</time>
      </trkpt>
      <trkpt lat="44.2666" lon="1.67369">
        <ele>242.4</ele>
        <time>2023-01-26T15:36:32Z</time>
      </trkpt>
      <trkpt lat="44.26662" lon="1.67363">
        <ele>242.6</ele>
        <time>2023-01-26T15:36:34Z</time>
      </trkpt>
      <trkpt lat="44.26664" lon="1.67357">
        <ele>242.9</ele>
        <time>2023-01-26T15:36:35Z</time>
      </trkpt>
      <trkpt lat="44.26666" lon="1.67354">
        <ele>243</ele>
        <time>2023-01-26T15:36:36Z</time>
      </trkpt>
      <trkpt lat="44.26667" lon="1.67349">
        <ele>243.2</ele>
        <time>2023-01-26T15:36:37Z</time>
      </trkpt>
      <trkpt lat="44.26669" lon="1.67345">
        <ele>243.3</ele>
        <time>2023-01-26T15:36:38Z</time>
      </trkpt>
      <trkpt lat="44.2667" lon="1.67341">
        <ele>243.5</ele>
        <time>2023-01-26T15:36:40Z</time>
      </trkpt>
      <trkpt lat="44.26672" lon="1.67336">
        <ele>243.6</ele>
        <time>2023-01-26T15:36:41Z</time>
      </trkpt>
      <trkpt lat="44.26674" lon="1.67332">
        <ele>243.7</ele>
        <time>2023-01-26T15:36:42Z</time>
      </trkpt>
      <trkpt lat="44.26676" lon="1.67326">
        <ele>243.9</ele>
        <time>2023-01-26T15:36:43Z</time>
      </trkpt>
      <trkpt lat="44.26679" lon="1.67319">
        <ele>244.2</ele>
        <time>2023-01-26T15:36:45Z</time>
      </trkpt>
      <trkpt lat="44.26682" lon="1.67312">
        <ele>244.4</ele>
        <time>2023-01-26T15:36:46Z</time>
      </trkpt>
      <trkpt lat="44.26683" lon="1.67307">
        <ele>244.5</ele>
        <time>2023-01-26T15:36:48Z</time>
      </trkpt>
      <trkpt lat="44.26685" lon="1.67302">
        <ele>244.6</ele>
        <time>2023-01-26T15:36:49Z</time>
      </trkpt>
      <trkpt lat="44.26687" lon="1.67297">
        <ele>244.8</ele>
        <time>2023-01-26T15:36:50Z</time>
      </trkpt>
      <trkpt lat="44.26689" lon="1.67294">
        <ele>244.9</ele>
        <time>2023-01-26T15:36:51Z</time>
      </trkpt>
      <trkpt lat="44.26691" lon="1.67289">
        <ele>245</ele>
        <time>2023-01-26T15:36:53Z</time>
      </trkpt>
      <trkpt lat="44.26692" lon="1.67285">
        <ele>245.1</ele>
        <time>2023-01-26T15:36:54Z</time>
      </trkpt>
      <trkpt lat="44.26694" lon="1.67281">
        <ele>245.2</ele>
        <time>2023-01-26T15:36:55Z</time>
      </trkpt>
      <trkpt lat="44.26695" lon="1.67277">
        <ele>245.3</ele>
        <time>2023-01-26T15:36:56Z</time>
      </trkpt>
      <trkpt lat="44.26697" lon="1.67272">
        <ele>245.4</ele>
        <time>2023-01-26T15:36:58Z</time>
      </trkpt>
      <trkpt lat="44.26699" lon="1.67267">
        <ele>245.5</ele>
        <time>2023-01-26T15:36:59Z</time>
      </trkpt>
      <trkpt lat="44.267" lon="1.67263">
        <ele>245.6</ele>
        <time>2023-01-26T15:37:00Z</time>
      </trkpt>
      <trkpt lat="44.26703" lon="1.67258">
        <ele>245.7</ele>
        <time>2023-01-26T15:37:01Z</time>
      </trkpt>
      <trkpt lat="44.26704" lon="1.67254">
        <ele>245.8</ele>
        <time>2023-01-26T15:37:02Z</time>
      </trkpt>
      <trkpt lat="44.26706" lon="1.6725">
        <ele>245.8</ele>
        <time>2023-01-26T15:37:03Z</time>
      </trkpt>
      <trkpt lat="44.26709" lon="1.6724">
        <ele>246</ele>
        <time>2023-01-26T15:37:05Z</time>
      </trkpt>
      <trkpt lat="44.26711" lon="1.67235">
        <ele>246.2</ele>
        <time>2023-01-26T15:37:07Z</time>
      </trkpt>
      <trkpt lat="44.26713" lon="1.67231">
        <ele>246.3</ele>
        <time>2023-01-26T15:37:08Z</time>
      </trkpt>
      <trkpt lat="44.26715" lon="1.67226">
        <ele>246.4</ele>
        <time>2023-01-26T15:37:09Z</time>
      </trkpt>
      <trkpt lat="44.26718" lon="1.67222">
        <ele>246.5</ele>
        <time>2023-01-26T15:37:10Z</time>
      </trkpt>
      <trkpt lat="44.26719" lon="1.67219">
        <ele>246.6</ele>
        <time>2023-01-26T15:37:11Z</time>
      </trkpt>
      <trkpt lat="44.26721" lon="1.67216">
        <ele>246.8</ele>
        <time>2023-01-26T15:37:12Z</time>
      </trkpt>
      <trkpt lat="44.26723" lon="1.67213">
        <ele>247</ele>
        <time>2023-01-26T15:37:13Z</time>
      </trkpt>
      <trkpt lat="44.26726" lon="1.67208">
        <ele>247.2</ele>
        <time>2023-01-26T15:37:15Z</time>
      </trkpt>
      <trkpt lat="44.2673" lon="1.67203">
        <ele>247.4</ele>
        <time>2023-01-26T15:37:16Z</time>
      </trkpt>
      <trkpt lat="44.26732" lon="1.67199">
        <ele>247.5</ele>
        <time>2023-01-26T15:37:17Z</time>
      </trkpt>
      <trkpt lat="44.26734" lon="1.67195">
        <ele>247.5</ele>
        <time>2023-01-26T15:37:18Z</time>
      </trkpt>
      <trkpt lat="44.26736" lon="1.6719">
        <ele>247.6</ele>
        <time>2023-01-26T15:37:19Z</time>
      </trkpt>
      <trkpt lat="44.26738" lon="1.67185">
        <ele>247.6</ele>
        <time>2023-01-26T15:37:21Z</time>
      </trkpt>
      <trkpt lat="44.2674" lon="1.67181">
        <ele>247.6</ele>
        <time>2023-01-26T15:37:22Z</time>
      </trkpt>
      <trkpt lat="44.26742" lon="1.67175">
        <ele>247.6</ele>
        <time>2023-01-26T15:37:23Z</time>
      </trkpt>
      <trkpt lat="44.26743" lon="1.67171">
        <ele>247.7</ele>
        <time>2023-01-26T15:37:24Z</time>
      </trkpt>
      <trkpt lat="44.26745" lon="1.67167">
        <ele>247.7</ele>
        <time>2023-01-26T15:37:25Z</time>
      </trkpt>
      <trkpt lat="44.26746" lon="1.67162">
        <ele>247.8</ele>
        <time>2023-01-26T15:37:27Z</time>
      </trkpt>
      <trkpt lat="44.26748" lon="1.67158">
        <ele>247.9</ele>
        <time>2023-01-26T15:37:28Z</time>
      </trkpt>
      <trkpt lat="44.26749" lon="1.67154">
        <ele>248</ele>
        <time>2023-01-26T15:37:29Z</time>
      </trkpt>
      <trkpt lat="44.26752" lon="1.67147">
        <ele>248.3</ele>
        <time>2023-01-26T15:37:31Z</time>
      </trkpt>
      <trkpt lat="44.26753" lon="1.67142">
        <ele>248.5</ele>
        <time>2023-01-26T15:37:32Z</time>
      </trkpt>
      <trkpt lat="44.26755" lon="1.67135">
        <ele>248.7</ele>
        <time>2023-01-26T15:37:33Z</time>
      </trkpt>
      <trkpt lat="44.26757" lon="1.67132">
        <ele>248.8</ele>
        <time>2023-01-26T15:37:34Z</time>
      </trkpt>
      <trkpt lat="44.26758" lon="1.67126">
        <ele>249</ele>
        <time>2023-01-26T15:37:36Z</time>
      </trkpt>
      <trkpt lat="44.2676" lon="1.67121">
        <ele>249.1</ele>
        <time>2023-01-26T15:37:37Z</time>
      </trkpt>
      <trkpt lat="44.2676" lon="1.67117">
        <ele>249.2</ele>
        <time>2023-01-26T15:37:38Z</time>
      </trkpt>
      <trkpt lat="44.26762" lon="1.6711">
        <ele>249.3</ele>
        <time>2023-01-26T15:37:39Z</time>
      </trkpt>
      <trkpt lat="44.26764" lon="1.67104">
        <ele>249.4</ele>
        <time>2023-01-26T15:37:41Z</time>
      </trkpt>
      <trkpt lat="44.26766" lon="1.67097">
        <ele>249.5</ele>
        <time>2023-01-26T15:37:42Z</time>
      </trkpt>
      <trkpt lat="44.26767" lon="1.67092">
        <ele>249.5</ele>
        <time>2023-01-26T15:37:43Z</time>
      </trkpt>
      <trkpt lat="44.26769" lon="1.67085">
        <ele>249.6</ele>
        <time>2023-01-26T15:37:45Z</time>
      </trkpt>
      <trkpt lat="44.26772" lon="1.67075">
        <ele>249.7</ele>
        <time>2023-01-26T15:37:46Z</time>
      </trkpt>
      <trkpt lat="44.26773" lon="1.67069">
        <ele>249.9</ele>
        <time>2023-01-26T15:37:48Z</time>
      </trkpt>
      <trkpt lat="44.26775" lon="1.67063">
        <ele>250</ele>
        <time>2023-01-26T15:37:49Z</time>
      </trkpt>
      <trkpt lat="44.26777" lon="1.67057">
        <ele>250.2</ele>
        <time>2023-01-26T15:37:50Z</time>
      </trkpt>
      <trkpt lat="44.26779" lon="1.67049">
        <ele>250.3</ele>
        <time>2023-01-26T15:37:51Z</time>
      </trkpt>
      <trkpt lat="44.26781" lon="1.67043">
        <ele>250.3</ele>
        <time>2023-01-26T15:37:53Z</time>
      </trkpt>
      <trkpt lat="44.26782" lon="1.67037">
        <ele>250.4</ele>
        <time>2023-01-26T15:37:54Z</time>
      </trkpt>
      <trkpt lat="44.26783" lon="1.67032">
        <ele>250.5</ele>
        <time>2023-01-26T15:37:55Z</time>
      </trkpt>
      <trkpt lat="44.26785" lon="1.67027">
        <ele>250.7</ele>
        <time>2023-01-26T15:37:56Z</time>
      </trkpt>
      <trkpt lat="44.26787" lon="1.67022">
        <ele>250.8</ele>
        <time>2023-01-26T15:37:57Z</time>
      </trkpt>
      <trkpt lat="44.26788" lon="1.67018">
        <ele>251</ele>
        <time>2023-01-26T15:37:59Z</time>
      </trkpt>
      <trkpt lat="44.26789" lon="1.67014">
        <ele>251.1</ele>
        <time>2023-01-26T15:38:00Z</time>
      </trkpt>
      <trkpt lat="44.26791" lon="1.67012">
        <ele>251.1</ele>
        <time>2023-01-26T15:38:01Z</time>
      </trkpt>
      <trkpt lat="44.26793" lon="1.67007">
        <ele>251.2</ele>
        <time>2023-01-26T15:38:03Z</time>
      </trkpt>
      <trkpt lat="44.26794" lon="1.67004">
        <ele>251.2</ele>
        <time>2023-01-26T15:38:04Z</time>
      </trkpt>
      <trkpt lat="44.26794" lon="1.67002">
        <ele>251.2</ele>
        <time>2023-01-26T15:38:05Z</time>
      </trkpt>
      <trkpt lat="44.26795" lon="1.67">
        <ele>251.2</ele>
        <time>2023-01-26T15:38:06Z</time>
      </trkpt>
      <trkpt lat="44.26797" lon="1.66996">
        <ele>250.8</ele>
        <time>2023-01-26T15:38:08Z</time>
      </trkpt>
      <trkpt lat="44.26801" lon="1.66997">
        <ele>250.4</ele>
        <time>2023-01-26T15:38:10Z</time>
      </trkpt>
      <trkpt lat="44.26806" lon="1.66998">
        <ele>250</ele>
        <time>2023-01-26T15:38:11Z</time>
      </trkpt>
      <trkpt lat="44.26808" lon="1.66998">
        <ele>249.8</ele>
        <time>2023-01-26T15:38:12Z</time>
      </trkpt>
      <trkpt lat="44.26812" lon="1.67">
        <ele>249.5</ele>
        <time>2023-01-26T15:38:14Z</time>
      </trkpt>
      <trkpt lat="44.26816" lon="1.67">
        <ele>249.4</ele>
        <time>2023-01-26T15:38:15Z</time>
      </trkpt>
      <trkpt lat="44.2682" lon="1.67">
        <ele>249.3</ele>
        <time>2023-01-26T15:38:16Z</time>
      </trkpt>
      <trkpt lat="44.26824" lon="1.67">
        <ele>249.2</ele>
        <time>2023-01-26T15:38:17Z</time>
      </trkpt>
      <trkpt lat="44.26829" lon="1.67">
        <ele>249.2</ele>
        <time>2023-01-26T15:38:19Z</time>
      </trkpt>
      <trkpt lat="44.26833" lon="1.67">
        <ele>249.3</ele>
        <time>2023-01-26T15:38:20Z</time>
      </trkpt>
      <trkpt lat="44.26837" lon="1.67">
        <ele>249.4</ele>
        <time>2023-01-26T15:38:21Z</time>
      </trkpt>
      <trkpt lat="44.26841" lon="1.67001">
        <ele>249.5</ele>
        <time>2023-01-26T15:38:22Z</time>
      </trkpt>
      <trkpt lat="44.26845" lon="1.67001">
        <ele>249.7</ele>
        <time>2023-01-26T15:38:24Z</time>
      </trkpt>
      <trkpt lat="44.26849" lon="1.67002">
        <ele>249.8</ele>
        <time>2023-01-26T15:38:25Z</time>
      </trkpt>
      <trkpt lat="44.26853" lon="1.67002">
        <ele>250</ele>
        <time>2023-01-26T15:38:26Z</time>
      </trkpt>
      <trkpt lat="44.2686" lon="1.67004">
        <ele>250.6</ele>
        <time>2023-01-26T15:38:28Z</time>
      </trkpt>
      <trkpt lat="44.26865" lon="1.67006">
        <ele>251</ele>
        <time>2023-01-26T15:38:29Z</time>
      </trkpt>
      <trkpt lat="44.26871" lon="1.67008">
        <ele>251.4</ele>
        <time>2023-01-26T15:38:30Z</time>
      </trkpt>
      <trkpt lat="44.26875" lon="1.6701">
        <ele>251.7</ele>
        <time>2023-01-26T15:38:31Z</time>
      </trkpt>
      <trkpt lat="44.2688" lon="1.67012">
        <ele>251.9</ele>
        <time>2023-01-26T15:38:32Z</time>
      </trkpt>
      <trkpt lat="44.26884" lon="1.67015">
        <ele>252.2</ele>
        <time>2023-01-26T15:38:34Z</time>
      </trkpt>
      <trkpt lat="44.26888" lon="1.67018">
        <ele>252.4</ele>
        <time>2023-01-26T15:38:35Z</time>
      </trkpt>
      <trkpt lat="44.26892" lon="1.67021">
        <ele>252.6</ele>
        <time>2023-01-26T15:38:36Z</time>
      </trkpt>
      <trkpt lat="44.26899" lon="1.67024">
        <ele>253.1</ele>
        <time>2023-01-26T15:38:38Z</time>
      </trkpt>
      <trkpt lat="44.26903" lon="1.67025">
        <ele>253.3</ele>
        <time>2023-01-26T15:38:39Z</time>
      </trkpt>
      <trkpt lat="44.26906" lon="1.67025">
        <ele>253.5</ele>
        <time>2023-01-26T15:38:40Z</time>
      </trkpt>
      <trkpt lat="44.2691" lon="1.67027">
        <ele>253.8</ele>
        <time>2023-01-26T15:38:41Z</time>
      </trkpt>
      <trkpt lat="44.26912" lon="1.67028">
        <ele>253.9</ele>
        <time>2023-01-26T15:38:42Z</time>
      </trkpt>
      <trkpt lat="44.26916" lon="1.67029">
        <ele>254.1</ele>
        <time>2023-01-26T15:38:44Z</time>
      </trkpt>
      <trkpt lat="44.26921" lon="1.67029">
        <ele>254.3</ele>
        <time>2023-01-26T15:38:45Z</time>
      </trkpt>
      <trkpt lat="44.26925" lon="1.67029">
        <ele>254.5</ele>
        <time>2023-01-26T15:38:47Z</time>
      </trkpt>
      <trkpt lat="44.26928" lon="1.67029">
        <ele>254.6</ele>
        <time>2023-01-26T15:38:48Z</time>
      </trkpt>
      <trkpt lat="44.26933" lon="1.67029">
        <ele>254.8</ele>
        <time>2023-01-26T15:38:49Z</time>
      </trkpt>
      <trkpt lat="44.2694" lon="1.67031">
        <ele>255.1</ele>
        <time>2023-01-26T15:38:51Z</time>
      </trkpt>
      <trkpt lat="44.26944" lon="1.6703">
        <ele>255.2</ele>
        <time>2023-01-26T15:38:52Z</time>
      </trkpt>
      <trkpt lat="44.2695" lon="1.67028">
        <ele>255.3</ele>
        <time>2023-01-26T15:38:54Z</time>
      </trkpt>
      <trkpt lat="44.26954" lon="1.67028">
        <ele>255.4</ele>
        <time>2023-01-26T15:38:55Z</time>
      </trkpt>
      <trkpt lat="44.26958" lon="1.67027">
        <ele>255.5</ele>
        <time>2023-01-26T15:38:56Z</time>
      </trkpt>
      <trkpt lat="44.26964" lon="1.67026">
        <ele>255.7</ele>
        <time>2023-01-26T15:38:58Z</time>
      </trkpt>
      <trkpt lat="44.26969" lon="1.67025">
        <ele>255.8</ele>
        <time>2023-01-26T15:38:59Z</time>
      </trkpt>
      <trkpt lat="44.26973" lon="1.67024">
        <ele>256</ele>
        <time>2023-01-26T15:39:00Z</time>
      </trkpt>
      <trkpt lat="44.26979" lon="1.67022">
        <ele>256.3</ele>
        <time>2023-01-26T15:39:02Z</time>
      </trkpt>
      <trkpt lat="44.26982" lon="1.67021">
        <ele>256.4</ele>
        <time>2023-01-26T15:39:03Z</time>
      </trkpt>
      <trkpt lat="44.26984" lon="1.6702">
        <ele>256.5</ele>
        <time>2023-01-26T15:39:04Z</time>
      </trkpt>
      <trkpt lat="44.26986" lon="1.67021">
        <ele>256.6</ele>
        <time>2023-01-26T15:39:05Z</time>
      </trkpt>
      <trkpt lat="44.2699" lon="1.67021">
        <ele>256.7</ele>
        <time>2023-01-26T15:39:07Z</time>
      </trkpt>
      <trkpt lat="44.26993" lon="1.6702">
        <ele>256.7</ele>
        <time>2023-01-26T15:39:08Z</time>
      </trkpt>
      <trkpt lat="44.26998" lon="1.67018">
        <ele>256.7</ele>
        <time>2023-01-26T15:39:09Z</time>
      </trkpt>
      <trkpt lat="44.27002" lon="1.67016">
        <ele>256.7</ele>
        <time>2023-01-26T15:39:10Z</time>
      </trkpt>
      <trkpt lat="44.27007" lon="1.67015">
        <ele>256.8</ele>
        <time>2023-01-26T15:39:11Z</time>
      </trkpt>
      <trkpt lat="44.27012" lon="1.67014">
        <ele>256.9</ele>
        <time>2023-01-26T15:39:12Z</time>
      </trkpt>
      <trkpt lat="44.27017" lon="1.67014">
        <ele>257.1</ele>
        <time>2023-01-26T15:39:13Z</time>
      </trkpt>
      <trkpt lat="44.27021" lon="1.67013">
        <ele>257.3</ele>
        <time>2023-01-26T15:39:14Z</time>
      </trkpt>
      <trkpt lat="44.27026" lon="1.67013">
        <ele>257.5</ele>
        <time>2023-01-26T15:39:15Z</time>
      </trkpt>
      <trkpt lat="44.2703" lon="1.67013">
        <ele>257.6</ele>
        <time>2023-01-26T15:39:16Z</time>
      </trkpt>
      <trkpt lat="44.27035" lon="1.67013">
        <ele>257.6</ele>
        <time>2023-01-26T15:39:17Z</time>
      </trkpt>
      <trkpt lat="44.27043" lon="1.67012">
        <ele>257.6</ele>
        <time>2023-01-26T15:39:19Z</time>
      </trkpt>
      <trkpt lat="44.27052" lon="1.67011">
        <ele>257.7</ele>
        <time>2023-01-26T15:39:20Z</time>
      </trkpt>
      <trkpt lat="44.27057" lon="1.67012">
        <ele>258</ele>
        <time>2023-01-26T15:39:22Z</time>
      </trkpt>
      <trkpt lat="44.27062" lon="1.67011">
        <ele>258.2</ele>
        <time>2023-01-26T15:39:23Z</time>
      </trkpt>
      <trkpt lat="44.2707" lon="1.67012">
        <ele>258.6</ele>
        <time>2023-01-26T15:39:25Z</time>
      </trkpt>
      <trkpt lat="44.27074" lon="1.67012">
        <ele>258.9</ele>
        <time>2023-01-26T15:39:26Z</time>
      </trkpt>
      <trkpt lat="44.27079" lon="1.67012">
        <ele>259.1</ele>
        <time>2023-01-26T15:39:27Z</time>
      </trkpt>
      <trkpt lat="44.27084" lon="1.67012">
        <ele>259.3</ele>
        <time>2023-01-26T15:39:28Z</time>
      </trkpt>
      <trkpt lat="44.27088" lon="1.67012">
        <ele>259.6</ele>
        <time>2023-01-26T15:39:29Z</time>
      </trkpt>
      <trkpt lat="44.27093" lon="1.67011">
        <ele>259.8</ele>
        <time>2023-01-26T15:39:30Z</time>
      </trkpt>
      <trkpt lat="44.27097" lon="1.6701">
        <ele>260</ele>
        <time>2023-01-26T15:39:31Z</time>
      </trkpt>
      <trkpt lat="44.27101" lon="1.6701">
        <ele>260.2</ele>
        <time>2023-01-26T15:39:32Z</time>
      </trkpt>
      <trkpt lat="44.27105" lon="1.6701">
        <ele>260.4</ele>
        <time>2023-01-26T15:39:33Z</time>
      </trkpt>
      <trkpt lat="44.27109" lon="1.6701">
        <ele>260.4</ele>
        <time>2023-01-26T15:39:34Z</time>
      </trkpt>
      <trkpt lat="44.27114" lon="1.67011">
        <ele>260.4</ele>
        <time>2023-01-26T15:39:35Z</time>
      </trkpt>
      <trkpt lat="44.27118" lon="1.67013">
        <ele>260.4</ele>
        <time>2023-01-26T15:39:36Z</time>
      </trkpt>
      <trkpt lat="44.27122" lon="1.67015">
        <ele>260.3</ele>
        <time>2023-01-26T15:39:37Z</time>
      </trkpt>
      <trkpt lat="44.27125" lon="1.67012">
        <ele>260.3</ele>
        <time>2023-01-26T15:39:38Z</time>
      </trkpt>
      <trkpt lat="44.27126" lon="1.67009">
        <ele>260.3</ele>
        <time>2023-01-26T15:39:40Z</time>
      </trkpt>
      <trkpt lat="44.27123" lon="1.67008">
        <ele>260.3</ele>
        <time>2023-01-26T15:39:41Z</time>
      </trkpt>
      <trkpt lat="44.27118" lon="1.6701">
        <ele>260.3</ele>
        <time>2023-01-26T15:39:43Z</time>
      </trkpt>
      <trkpt lat="44.27115" lon="1.67006">
        <ele>260.2</ele>
        <time>2023-01-26T15:39:44Z</time>
      </trkpt>
      <trkpt lat="44.27114" lon="1.67003">
        <ele>260.2</ele>
        <time>2023-01-26T15:39:45Z</time>
      </trkpt>
      <trkpt lat="44.27114" lon="1.67001">
        <ele>260.2</ele>
        <time>2023-01-26T15:39:46Z</time>
      </trkpt>
      <trkpt lat="44.27115" lon="1.67">
        <ele>260.2</ele>
        <time>2023-01-26T15:39:47Z</time>
      </trkpt>
      <trkpt lat="44.27117" lon="1.67">
        <ele>260.2</ele>
        <time>2023-01-26T15:39:48Z</time>
      </trkpt>
      <trkpt lat="44.27117" lon="1.66999">
        <ele>260.2</ele>
        <time>2023-01-26T15:39:50Z</time>
      </trkpt>
      <trkpt lat="44.27117" lon="1.66998">
        <ele>260.2</ele>
        <time>2023-01-26T15:39:51Z</time>
      </trkpt>
      <trkpt lat="44.27117" lon="1.66997">
        <ele>260.2</ele>
        <time>2023-01-26T15:39:52Z</time>
      </trkpt>
      <trkpt lat="44.27118" lon="1.66997">
        <ele>260.2</ele>
        <time>2023-01-26T15:39:53Z</time>
      </trkpt>
      <trkpt lat="44.27118" lon="1.66997">
        <ele>260.2</ele>
        <time>2023-01-26T15:39:54Z</time>
      </trkpt>
      <trkpt lat="44.27118" lon="1.66997">
        <ele>260.2</ele>
        <time>2023-01-26T15:39:55Z</time>
      </trkpt>
      <trkpt lat="44.27117" lon="1.66998">
        <ele>260.2</ele>
        <time>2023-01-26T15:39:57Z</time>
      </trkpt>
      <trkpt lat="44.27117" lon="1.66998">
        <ele>260.2</ele>
        <time>2023-01-26T15:39:59Z</time>
      </trkpt>
      <trkpt lat="44.27117" lon="1.66999">
        <ele>260.2</ele>
        <time>2023-01-26T15:40:01Z</time>
      </trkpt>
      <trkpt lat="44.27117" lon="1.67001">
        <ele>260.2</ele>
        <time>2023-01-26T15:40:02Z</time>
      </trkpt>
      <trkpt lat="44.27117" lon="1.67002">
        <ele>260.2</ele>
        <time>2023-01-26T15:40:04Z</time>
      </trkpt>
      <trkpt lat="44.27118" lon="1.67002">
        <ele>260.2</ele>
        <time>2023-01-26T15:40:05Z</time>
      </trkpt>
      <trkpt lat="44.27118" lon="1.67003">
        <ele>260.1</ele>
        <time>2023-01-26T15:40:06Z</time>
      </trkpt>
      <trkpt lat="44.27118" lon="1.67003">
        <ele>260.1</ele>
        <time>2023-01-26T15:40:07Z</time>
      </trkpt>
      <trkpt lat="44.27118" lon="1.67003">
        <ele>260.1</ele>
        <time>2023-01-26T15:40:08Z</time>
      </trkpt>
      <trkpt lat="44.27118" lon="1.67003">
        <ele>260.1</ele>
        <time>2023-01-26T15:40:09Z</time>
      </trkpt>
      <trkpt lat="44.27118" lon="1.67004">
        <ele>260.1</ele>
        <time>2023-01-26T15:40:10Z</time>
      </trkpt>
      <trkpt lat="44.27118" lon="1.67004">
        <ele>260.1</ele>
        <time>2023-01-26T15:40:12Z</time>
      </trkpt>
      <trkpt lat="44.27123" lon="1.67012">
        <ele>260.1</ele>
        <time>2023-01-26T15:40:41Z</time>
      </trkpt>
      <trkpt lat="44.27126" lon="1.67015">
        <ele>260.1</ele>
        <time>2023-01-26T15:40:43Z</time>
      </trkpt>
      <trkpt lat="44.27131" lon="1.67018">
        <ele>260</ele>
        <time>2023-01-26T15:40:45Z</time>
      </trkpt>
      <trkpt lat="44.27136" lon="1.67021">
        <ele>260</ele>
        <time>2023-01-26T15:40:46Z</time>
      </trkpt>
      <trkpt lat="44.27141" lon="1.67024">
        <ele>260</ele>
        <time>2023-01-26T15:40:48Z</time>
      </trkpt>
      <trkpt lat="44.27144" lon="1.67027">
        <ele>260</ele>
        <time>2023-01-26T15:40:49Z</time>
      </trkpt>
      <trkpt lat="44.27148" lon="1.67033">
        <ele>259.9</ele>
        <time>2023-01-26T15:40:51Z</time>
      </trkpt>
      <trkpt lat="44.27151" lon="1.67038">
        <ele>259.9</ele>
        <time>2023-01-26T15:40:52Z</time>
      </trkpt>
      <trkpt lat="44.27153" lon="1.67046">
        <ele>259.9</ele>
        <time>2023-01-26T15:40:54Z</time>
      </trkpt>
      <trkpt lat="44.27155" lon="1.67053">
        <ele>259.8</ele>
        <time>2023-01-26T15:40:55Z</time>
      </trkpt>
      <trkpt lat="44.27157" lon="1.67059">
        <ele>259.8</ele>
        <time>2023-01-26T15:40:57Z</time>
      </trkpt>
      <trkpt lat="44.27158" lon="1.67065">
        <ele>259.8</ele>
        <time>2023-01-26T15:40:58Z</time>
      </trkpt>
      <trkpt lat="44.2716" lon="1.67071">
        <ele>259.8</ele>
        <time>2023-01-26T15:40:59Z</time>
      </trkpt>
      <trkpt lat="44.27163" lon="1.67078">
        <ele>259.7</ele>
        <time>2023-01-26T15:41:00Z</time>
      </trkpt>
      <trkpt lat="44.27166" lon="1.67087">
        <ele>259.7</ele>
        <time>2023-01-26T15:41:02Z</time>
      </trkpt>
      <trkpt lat="44.27169" lon="1.67093">
        <ele>259.7</ele>
        <time>2023-01-26T15:41:03Z</time>
      </trkpt>
      <trkpt lat="44.27171" lon="1.671">
        <ele>259.6</ele>
        <time>2023-01-26T15:41:04Z</time>
      </trkpt>
      <trkpt lat="44.27173" lon="1.67106">
        <ele>259.6</ele>
        <time>2023-01-26T15:41:05Z</time>
      </trkpt>
      <trkpt lat="44.27176" lon="1.67113">
        <ele>259.6</ele>
        <time>2023-01-26T15:41:06Z</time>
      </trkpt>
      <trkpt lat="44.27179" lon="1.6712">
        <ele>259.5</ele>
        <time>2023-01-26T15:41:07Z</time>
      </trkpt>
      <trkpt lat="44.27181" lon="1.67127">
        <ele>259.5</ele>
        <time>2023-01-26T15:41:08Z</time>
      </trkpt>
      <trkpt lat="44.27184" lon="1.67134">
        <ele>259.6</ele>
        <time>2023-01-26T15:41:09Z</time>
      </trkpt>
      <trkpt lat="44.27188" lon="1.67139">
        <ele>259.8</ele>
        <time>2023-01-26T15:41:10Z</time>
      </trkpt>
      <trkpt lat="44.27193" lon="1.67143">
        <ele>260.1</ele>
        <time>2023-01-26T15:41:11Z</time>
      </trkpt>
      <trkpt lat="44.27197" lon="1.67148">
        <ele>260.3</ele>
        <time>2023-01-26T15:41:12Z</time>
      </trkpt>
      <trkpt lat="44.27201" lon="1.67153">
        <ele>260.6</ele>
        <time>2023-01-26T15:41:13Z</time>
      </trkpt>
      <trkpt lat="44.27205" lon="1.67158">
        <ele>260.9</ele>
        <time>2023-01-26T15:41:14Z</time>
      </trkpt>
      <trkpt lat="44.27209" lon="1.67163">
        <ele>261.1</ele>
        <time>2023-01-26T15:41:15Z</time>
      </trkpt>
      <trkpt lat="44.27214" lon="1.67167">
        <ele>261.4</ele>
        <time>2023-01-26T15:41:16Z</time>
      </trkpt>
      <trkpt lat="44.27218" lon="1.67172">
        <ele>261.6</ele>
        <time>2023-01-26T15:41:17Z</time>
      </trkpt>
      <trkpt lat="44.27222" lon="1.67176">
        <ele>261.9</ele>
        <time>2023-01-26T15:41:18Z</time>
      </trkpt>
      <trkpt lat="44.27226" lon="1.6718">
        <ele>262.1</ele>
        <time>2023-01-26T15:41:19Z</time>
      </trkpt>
      <trkpt lat="44.2723" lon="1.67184">
        <ele>262.3</ele>
        <time>2023-01-26T15:41:20Z</time>
      </trkpt>
      <trkpt lat="44.27234" lon="1.67188">
        <ele>262.6</ele>
        <time>2023-01-26T15:41:21Z</time>
      </trkpt>
      <trkpt lat="44.27238" lon="1.67191">
        <ele>262.8</ele>
        <time>2023-01-26T15:41:22Z</time>
      </trkpt>
      <trkpt lat="44.27243" lon="1.67194">
        <ele>263</ele>
        <time>2023-01-26T15:41:23Z</time>
      </trkpt>
      <trkpt lat="44.27247" lon="1.67197">
        <ele>263.3</ele>
        <time>2023-01-26T15:41:24Z</time>
      </trkpt>
      <trkpt lat="44.27252" lon="1.672">
        <ele>263.5</ele>
        <time>2023-01-26T15:41:25Z</time>
      </trkpt>
      <trkpt lat="44.27256" lon="1.67202">
        <ele>263.7</ele>
        <time>2023-01-26T15:41:26Z</time>
      </trkpt>
      <trkpt lat="44.27261" lon="1.67204">
        <ele>263.9</ele>
        <time>2023-01-26T15:41:27Z</time>
      </trkpt>
      <trkpt lat="44.27265" lon="1.67206">
        <ele>264.1</ele>
        <time>2023-01-26T15:41:28Z</time>
      </trkpt>
      <trkpt lat="44.27269" lon="1.67208">
        <ele>264.3</ele>
        <time>2023-01-26T15:41:29Z</time>
      </trkpt>
      <trkpt lat="44.27273" lon="1.6721">
        <ele>264.5</ele>
        <time>2023-01-26T15:41:30Z</time>
      </trkpt>
      <trkpt lat="44.27276" lon="1.67212">
        <ele>264.7</ele>
        <time>2023-01-26T15:41:31Z</time>
      </trkpt>
      <trkpt lat="44.27278" lon="1.67214">
        <ele>264.8</ele>
        <time>2023-01-26T15:41:32Z</time>
      </trkpt>
      <trkpt lat="44.27283" lon="1.67216">
        <ele>265.1</ele>
        <time>2023-01-26T15:41:33Z</time>
      </trkpt>
      <trkpt lat="44.27288" lon="1.67218">
        <ele>265.3</ele>
        <time>2023-01-26T15:41:34Z</time>
      </trkpt>
      <trkpt lat="44.27289" lon="1.67218">
        <ele>265.4</ele>
        <time>2023-01-26T15:41:35Z</time>
      </trkpt>
      <trkpt lat="44.27292" lon="1.6722">
        <ele>265.5</ele>
        <time>2023-01-26T15:41:36Z</time>
      </trkpt>
      <trkpt lat="44.27298" lon="1.67223">
        <ele>265.8</ele>
        <time>2023-01-26T15:41:37Z</time>
      </trkpt>
      <trkpt lat="44.27302" lon="1.67225">
        <ele>266</ele>
        <time>2023-01-26T15:41:38Z</time>
      </trkpt>
      <trkpt lat="44.27307" lon="1.67227">
        <ele>266.2</ele>
        <time>2023-01-26T15:41:40Z</time>
      </trkpt>
      <trkpt lat="44.27312" lon="1.67229">
        <ele>266.5</ele>
        <time>2023-01-26T15:41:41Z</time>
      </trkpt>
      <trkpt lat="44.27319" lon="1.67233">
        <ele>266.8</ele>
        <time>2023-01-26T15:41:42Z</time>
      </trkpt>
      <trkpt lat="44.27323" lon="1.67236">
        <ele>267.1</ele>
        <time>2023-01-26T15:41:44Z</time>
      </trkpt>
      <trkpt lat="44.27327" lon="1.67239">
        <ele>267.3</ele>
        <time>2023-01-26T15:41:45Z</time>
      </trkpt>
      <trkpt lat="44.27332" lon="1.67243">
        <ele>267.6</ele>
        <time>2023-01-26T15:41:46Z</time>
      </trkpt>
      <trkpt lat="44.27335" lon="1.67246">
        <ele>267.7</ele>
        <time>2023-01-26T15:41:47Z</time>
      </trkpt>
      <trkpt lat="44.2734" lon="1.67249">
        <ele>268</ele>
        <time>2023-01-26T15:41:49Z</time>
      </trkpt>
      <trkpt lat="44.27343" lon="1.67252">
        <ele>268.2</ele>
        <time>2023-01-26T15:41:50Z</time>
      </trkpt>
      <trkpt lat="44.27349" lon="1.67256">
        <ele>268.5</ele>
        <time>2023-01-26T15:41:51Z</time>
      </trkpt>
      <trkpt lat="44.27354" lon="1.67258">
        <ele>268.7</ele>
        <time>2023-01-26T15:41:53Z</time>
      </trkpt>
      <trkpt lat="44.27358" lon="1.6726">
        <ele>268.9</ele>
        <time>2023-01-26T15:41:54Z</time>
      </trkpt>
      <trkpt lat="44.27362" lon="1.67261">
        <ele>269.1</ele>
        <time>2023-01-26T15:41:55Z</time>
      </trkpt>
      <trkpt lat="44.27368" lon="1.67259">
        <ele>269.4</ele>
        <time>2023-01-26T15:41:56Z</time>
      </trkpt>
      <trkpt lat="44.27372" lon="1.67258">
        <ele>269.6</ele>
        <time>2023-01-26T15:41:57Z</time>
      </trkpt>
      <trkpt lat="44.27376" lon="1.67256">
        <ele>269.8</ele>
        <time>2023-01-26T15:41:58Z</time>
      </trkpt>
      <trkpt lat="44.27379" lon="1.67256">
        <ele>270</ele>
        <time>2023-01-26T15:41:59Z</time>
      </trkpt>
      <trkpt lat="44.27383" lon="1.67257">
        <ele>270.2</ele>
        <time>2023-01-26T15:42:01Z</time>
      </trkpt>
      <trkpt lat="44.27387" lon="1.67257">
        <ele>270.4</ele>
        <time>2023-01-26T15:42:02Z</time>
      </trkpt>
      <trkpt lat="44.27389" lon="1.6726">
        <ele>270.6</ele>
        <time>2023-01-26T15:42:04Z</time>
      </trkpt>
      <trkpt lat="44.2739" lon="1.67262">
        <ele>270.6</ele>
        <time>2023-01-26T15:42:05Z</time>
      </trkpt>
      <trkpt lat="44.2739" lon="1.67263">
        <ele>270.7</ele>
        <time>2023-01-26T15:42:06Z</time>
      </trkpt>
      <trkpt lat="44.27391" lon="1.67265">
        <ele>270.7</ele>
        <time>2023-01-26T15:42:07Z</time>
      </trkpt>
      <trkpt lat="44.27392" lon="1.6727">
        <ele>270.9</ele>
        <time>2023-01-26T15:42:11Z</time>
      </trkpt>
      <trkpt lat="44.27393" lon="1.67269">
        <ele>271</ele>
        <time>2023-01-26T15:42:14Z</time>
      </trkpt>
      <trkpt lat="44.27393" lon="1.67268">
        <ele>271</ele>
        <time>2023-01-26T15:42:17Z</time>
      </trkpt>
      <trkpt lat="44.27393" lon="1.67268">
        <ele>271</ele>
        <time>2023-01-26T15:42:19Z</time>
      </trkpt>
      <trkpt lat="44.27393" lon="1.67268">
        <ele>271</ele>
        <time>2023-01-26T15:42:22Z</time>
      </trkpt>
      <trkpt lat="44.27398" lon="1.67262">
        <ele>271.4</ele>
        <time>2023-01-26T15:42:39Z</time>
      </trkpt>
      <trkpt lat="44.27404" lon="1.67256">
        <ele>271.8</ele>
        <time>2023-01-26T15:42:41Z</time>
      </trkpt>
      <trkpt lat="44.2741" lon="1.67257">
        <ele>272.1</ele>
        <time>2023-01-26T15:42:45Z</time>
      </trkpt>
      <trkpt lat="44.27416" lon="1.67258">
        <ele>272.2</ele>
        <time>2023-01-26T15:46:09Z</time>
      </trkpt>
      <trkpt lat="44.27406" lon="1.67254">
        <ele>271.6</ele>
        <time>2023-01-26T15:46:12Z</time>
      </trkpt>
      <trkpt lat="44.274" lon="1.67252">
        <ele>271.3</ele>
        <time>2023-01-26T15:46:14Z</time>
      </trkpt>
      <trkpt lat="44.27395" lon="1.67251">
        <ele>271.1</ele>
        <time>2023-01-26T15:46:16Z</time>
      </trkpt>
      <trkpt lat="44.27392" lon="1.67247">
        <ele>270.9</ele>
        <time>2023-01-26T15:46:17Z</time>
      </trkpt>
      <trkpt lat="44.27392" lon="1.67243">
        <ele>270.7</ele>
        <time>2023-01-26T15:46:18Z</time>
      </trkpt>
      <trkpt lat="44.27391" lon="1.67235">
        <ele>270.6</ele>
        <time>2023-01-26T15:46:19Z</time>
      </trkpt>
      <trkpt lat="44.27391" lon="1.67226">
        <ele>269.8</ele>
        <time>2023-01-26T15:46:20Z</time>
      </trkpt>
      <trkpt lat="44.2739" lon="1.6722">
        <ele>269.7</ele>
        <time>2023-01-26T15:46:21Z</time>
      </trkpt>
      <trkpt lat="44.27389" lon="1.67215">
        <ele>269</ele>
        <time>2023-01-26T15:46:22Z</time>
      </trkpt>
      <trkpt lat="44.27387" lon="1.6721">
        <ele>268.9</ele>
        <time>2023-01-26T15:46:24Z</time>
      </trkpt>
      <trkpt lat="44.27387" lon="1.6721">
        <ele>268.9</ele>
        <time>2023-01-26T15:46:25Z</time>
      </trkpt>
      <trkpt lat="44.27386" lon="1.6721">
        <ele>268.8</ele>
        <time>2023-01-26T15:46:26Z</time>
      </trkpt>
      <trkpt lat="44.27386" lon="1.6721">
        <ele>268.7</ele>
        <time>2023-01-26T15:46:27Z</time>
      </trkpt>
      <trkpt lat="44.27385" lon="1.67209">
        <ele>268.7</ele>
        <time>2023-01-26T15:46:28Z</time>
      </trkpt>
      <trkpt lat="44.27385" lon="1.67209">
        <ele>268.6</ele>
        <time>2023-01-26T15:46:30Z</time>
      </trkpt>
      <trkpt lat="44.27384" lon="1.67209">
        <ele>268.2</ele>
        <time>2023-01-26T15:46:31Z</time>
      </trkpt>
      <trkpt lat="44.27384" lon="1.67209">
        <ele>268.1</ele>
        <time>2023-01-26T15:46:32Z</time>
      </trkpt>
      <trkpt lat="44.27381" lon="1.67206">
        <ele>268.1</ele>
        <time>2023-01-26T15:46:33Z</time>
      </trkpt>
      <trkpt lat="44.27379" lon="1.67197">
        <ele>267.1</ele>
        <time>2023-01-26T15:46:35Z</time>
      </trkpt>
      <trkpt lat="44.27376" lon="1.67187">
        <ele>267</ele>
        <time>2023-01-26T15:46:36Z</time>
      </trkpt>
      <trkpt lat="44.27373" lon="1.67178">
        <ele>265.9</ele>
        <time>2023-01-26T15:46:37Z</time>
      </trkpt>
      <trkpt lat="44.27371" lon="1.6717">
        <ele>265.4</ele>
        <time>2023-01-26T15:46:38Z</time>
      </trkpt>
      <trkpt lat="44.27369" lon="1.67162">
        <ele>264.2</ele>
        <time>2023-01-26T15:46:39Z</time>
      </trkpt>
      <trkpt lat="44.27367" lon="1.67154">
        <ele>264.1</ele>
        <time>2023-01-26T15:46:40Z</time>
      </trkpt>
      <trkpt lat="44.27366" lon="1.67145">
        <ele>262.8</ele>
        <time>2023-01-26T15:46:41Z</time>
      </trkpt>
      <trkpt lat="44.27362" lon="1.67139">
        <ele>262.8</ele>
        <time>2023-01-26T15:46:42Z</time>
      </trkpt>
      <trkpt lat="44.27356" lon="1.6713">
        <ele>262.4</ele>
        <time>2023-01-26T15:46:44Z</time>
      </trkpt>
      <trkpt lat="44.27352" lon="1.67125">
        <ele>261</ele>
        <time>2023-01-26T15:46:45Z</time>
      </trkpt>
      <trkpt lat="44.27347" lon="1.6712">
        <ele>260.7</ele>
        <time>2023-01-26T15:46:46Z</time>
      </trkpt>
      <trkpt lat="44.27343" lon="1.67117">
        <ele>260.7</ele>
        <time>2023-01-26T15:46:47Z</time>
      </trkpt>
      <trkpt lat="44.27339" lon="1.67116">
        <ele>260.6</ele>
        <time>2023-01-26T15:46:48Z</time>
      </trkpt>
      <trkpt lat="44.27335" lon="1.6711">
        <ele>259.1</ele>
        <time>2023-01-26T15:46:49Z</time>
      </trkpt>
      <trkpt lat="44.27331" lon="1.67102">
        <ele>258.7</ele>
        <time>2023-01-26T15:46:51Z</time>
      </trkpt>
      <trkpt lat="44.27329" lon="1.67092">
        <ele>258.2</ele>
        <time>2023-01-26T15:46:52Z</time>
      </trkpt>
      <trkpt lat="44.27327" lon="1.67082">
        <ele>257.7</ele>
        <time>2023-01-26T15:46:53Z</time>
      </trkpt>
      <trkpt lat="44.27325" lon="1.67072">
        <ele>257.1</ele>
        <time>2023-01-26T15:46:54Z</time>
      </trkpt>
      <trkpt lat="44.27321" lon="1.67064">
        <ele>256.7</ele>
        <time>2023-01-26T15:46:55Z</time>
      </trkpt>
      <trkpt lat="44.27318" lon="1.67057">
        <ele>256.2</ele>
        <time>2023-01-26T15:46:56Z</time>
      </trkpt>
      <trkpt lat="44.27316" lon="1.67051">
        <ele>255.9</ele>
        <time>2023-01-26T15:46:57Z</time>
      </trkpt>
      <trkpt lat="44.27314" lon="1.67045">
        <ele>255.6</ele>
        <time>2023-01-26T15:46:58Z</time>
      </trkpt>
      <trkpt lat="44.27312" lon="1.67034">
        <ele>255</ele>
        <time>2023-01-26T15:47:00Z</time>
      </trkpt>
      <trkpt lat="44.27313" lon="1.6703">
        <ele>254.8</ele>
        <time>2023-01-26T15:47:01Z</time>
      </trkpt>
      <trkpt lat="44.27316" lon="1.67026">
        <ele>254</ele>
        <time>2023-01-26T15:47:02Z</time>
      </trkpt>
      <trkpt lat="44.2732" lon="1.67022">
        <ele>253.8</ele>
        <time>2023-01-26T15:47:03Z</time>
      </trkpt>
      <trkpt lat="44.2733" lon="1.67014">
        <ele>253.2</ele>
        <time>2023-01-26T15:47:05Z</time>
      </trkpt>
      <trkpt lat="44.27335" lon="1.67009">
        <ele>252.9</ele>
        <time>2023-01-26T15:47:06Z</time>
      </trkpt>
      <trkpt lat="44.27341" lon="1.67005">
        <ele>252.6</ele>
        <time>2023-01-26T15:47:07Z</time>
      </trkpt>
      <trkpt lat="44.27348" lon="1.67">
        <ele>252.3</ele>
        <time>2023-01-26T15:47:08Z</time>
      </trkpt>
      <trkpt lat="44.27355" lon="1.66995">
        <ele>251.9</ele>
        <time>2023-01-26T15:47:09Z</time>
      </trkpt>
      <trkpt lat="44.27362" lon="1.6699">
        <ele>251.6</ele>
        <time>2023-01-26T15:47:10Z</time>
      </trkpt>
      <trkpt lat="44.27369" lon="1.66987">
        <ele>251.2</ele>
        <time>2023-01-26T15:47:11Z</time>
      </trkpt>
      <trkpt lat="44.27375" lon="1.66984">
        <ele>250.9</ele>
        <time>2023-01-26T15:47:12Z</time>
      </trkpt>
      <trkpt lat="44.27382" lon="1.66979">
        <ele>250.6</ele>
        <time>2023-01-26T15:47:13Z</time>
      </trkpt>
      <trkpt lat="44.27389" lon="1.66975">
        <ele>250.2</ele>
        <time>2023-01-26T15:47:14Z</time>
      </trkpt>
      <trkpt lat="44.27395" lon="1.6697">
        <ele>249.9</ele>
        <time>2023-01-26T15:47:15Z</time>
      </trkpt>
      <trkpt lat="44.27402" lon="1.66967">
        <ele>249.6</ele>
        <time>2023-01-26T15:47:16Z</time>
      </trkpt>
      <trkpt lat="44.27409" lon="1.66964">
        <ele>249.2</ele>
        <time>2023-01-26T15:47:17Z</time>
      </trkpt>
      <trkpt lat="44.27415" lon="1.66961">
        <ele>248.9</ele>
        <time>2023-01-26T15:47:18Z</time>
      </trkpt>
      <trkpt lat="44.27422" lon="1.66958">
        <ele>248.6</ele>
        <time>2023-01-26T15:47:19Z</time>
      </trkpt>
      <trkpt lat="44.27428" lon="1.66954">
        <ele>248.3</ele>
        <time>2023-01-26T15:47:20Z</time>
      </trkpt>
      <trkpt lat="44.27434" lon="1.66949">
        <ele>248</ele>
        <time>2023-01-26T15:47:21Z</time>
      </trkpt>
      <trkpt lat="44.2744" lon="1.66946">
        <ele>247.7</ele>
        <time>2023-01-26T15:47:22Z</time>
      </trkpt>
      <trkpt lat="44.27446" lon="1.66944">
        <ele>247.6</ele>
        <time>2023-01-26T15:47:23Z</time>
      </trkpt>
      <trkpt lat="44.27452" lon="1.66942">
        <ele>247.4</ele>
        <time>2023-01-26T15:47:24Z</time>
      </trkpt>
      <trkpt lat="44.27458" lon="1.6694">
        <ele>247.3</ele>
        <time>2023-01-26T15:47:25Z</time>
      </trkpt>
      <trkpt lat="44.27465" lon="1.66938">
        <ele>247.1</ele>
        <time>2023-01-26T15:47:26Z</time>
      </trkpt>
      <trkpt lat="44.27472" lon="1.66937">
        <ele>247</ele>
        <time>2023-01-26T15:47:27Z</time>
      </trkpt>
      <trkpt lat="44.27478" lon="1.66938">
        <ele>246.8</ele>
        <time>2023-01-26T15:47:28Z</time>
      </trkpt>
      <trkpt lat="44.27485" lon="1.66938">
        <ele>246.7</ele>
        <time>2023-01-26T15:47:29Z</time>
      </trkpt>
      <trkpt lat="44.27491" lon="1.66938">
        <ele>246.6</ele>
        <time>2023-01-26T15:47:30Z</time>
      </trkpt>
      <trkpt lat="44.27498" lon="1.66937">
        <ele>246.4</ele>
        <time>2023-01-26T15:47:31Z</time>
      </trkpt>
      <trkpt lat="44.27504" lon="1.66936">
        <ele>246.3</ele>
        <time>2023-01-26T15:47:32Z</time>
      </trkpt>
      <trkpt lat="44.2751" lon="1.66934">
        <ele>246.1</ele>
        <time>2023-01-26T15:47:33Z</time>
      </trkpt>
      <trkpt lat="44.27515" lon="1.66932">
        <ele>246</ele>
        <time>2023-01-26T15:47:34Z</time>
      </trkpt>
      <trkpt lat="44.27521" lon="1.66929">
        <ele>245.9</ele>
        <time>2023-01-26T15:47:35Z</time>
      </trkpt>
      <trkpt lat="44.27526" lon="1.66926">
        <ele>245.8</ele>
        <time>2023-01-26T15:47:36Z</time>
      </trkpt>
      <trkpt lat="44.27532" lon="1.66922">
        <ele>245.6</ele>
        <time>2023-01-26T15:47:37Z</time>
      </trkpt>
      <trkpt lat="44.27538" lon="1.66918">
        <ele>245.5</ele>
        <time>2023-01-26T15:47:38Z</time>
      </trkpt>
      <trkpt lat="44.27544" lon="1.66915">
        <ele>245.3</ele>
        <time>2023-01-26T15:47:39Z</time>
      </trkpt>
      <trkpt lat="44.27549" lon="1.66911">
        <ele>245.2</ele>
        <time>2023-01-26T15:47:40Z</time>
      </trkpt>
      <trkpt lat="44.27554" lon="1.66907">
        <ele>245.1</ele>
        <time>2023-01-26T15:47:41Z</time>
      </trkpt>
      <trkpt lat="44.2756" lon="1.66903">
        <ele>244.9</ele>
        <time>2023-01-26T15:47:42Z</time>
      </trkpt>
      <trkpt lat="44.27565" lon="1.66899">
        <ele>244.8</ele>
        <time>2023-01-26T15:47:43Z</time>
      </trkpt>
      <trkpt lat="44.27569" lon="1.66896">
        <ele>244.7</ele>
        <time>2023-01-26T15:47:44Z</time>
      </trkpt>
      <trkpt lat="44.27574" lon="1.66893">
        <ele>244.6</ele>
        <time>2023-01-26T15:47:45Z</time>
      </trkpt>
      <trkpt lat="44.27579" lon="1.6689">
        <ele>244.5</ele>
        <time>2023-01-26T15:47:46Z</time>
      </trkpt>
      <trkpt lat="44.27584" lon="1.66887">
        <ele>244.3</ele>
        <time>2023-01-26T15:47:47Z</time>
      </trkpt>
      <trkpt lat="44.27589" lon="1.66883">
        <ele>244.2</ele>
        <time>2023-01-26T15:47:48Z</time>
      </trkpt>
      <trkpt lat="44.27594" lon="1.66878">
        <ele>244.1</ele>
        <time>2023-01-26T15:47:49Z</time>
      </trkpt>
      <trkpt lat="44.27597" lon="1.66873">
        <ele>244</ele>
        <time>2023-01-26T15:47:50Z</time>
      </trkpt>
      <trkpt lat="44.27602" lon="1.66868">
        <ele>243.8</ele>
        <time>2023-01-26T15:47:51Z</time>
      </trkpt>
      <trkpt lat="44.27607" lon="1.66862">
        <ele>243.7</ele>
        <time>2023-01-26T15:47:52Z</time>
      </trkpt>
      <trkpt lat="44.27612" lon="1.66857">
        <ele>243.6</ele>
        <time>2023-01-26T15:47:53Z</time>
      </trkpt>
      <trkpt lat="44.27617" lon="1.66852">
        <ele>243.4</ele>
        <time>2023-01-26T15:47:54Z</time>
      </trkpt>
      <trkpt lat="44.27622" lon="1.66848">
        <ele>243.3</ele>
        <time>2023-01-26T15:47:55Z</time>
      </trkpt>
      <trkpt lat="44.27627" lon="1.66843">
        <ele>243.2</ele>
        <time>2023-01-26T15:47:56Z</time>
      </trkpt>
      <trkpt lat="44.27632" lon="1.66839">
        <ele>243</ele>
        <time>2023-01-26T15:47:57Z</time>
      </trkpt>
      <trkpt lat="44.27637" lon="1.66834">
        <ele>242.9</ele>
        <time>2023-01-26T15:47:58Z</time>
      </trkpt>
      <trkpt lat="44.27641" lon="1.66829">
        <ele>242.8</ele>
        <time>2023-01-26T15:47:59Z</time>
      </trkpt>
      <trkpt lat="44.27645" lon="1.66823">
        <ele>242.7</ele>
        <time>2023-01-26T15:48:00Z</time>
      </trkpt>
      <trkpt lat="44.27648" lon="1.66817">
        <ele>242.5</ele>
        <time>2023-01-26T15:48:01Z</time>
      </trkpt>
      <trkpt lat="44.27652" lon="1.66811">
        <ele>242.4</ele>
        <time>2023-01-26T15:48:02Z</time>
      </trkpt>
      <trkpt lat="44.27655" lon="1.66806">
        <ele>242.3</ele>
        <time>2023-01-26T15:48:03Z</time>
      </trkpt>
      <trkpt lat="44.27659" lon="1.668">
        <ele>242.2</ele>
        <time>2023-01-26T15:48:04Z</time>
      </trkpt>
      <trkpt lat="44.27662" lon="1.66794">
        <ele>242.1</ele>
        <time>2023-01-26T15:48:05Z</time>
      </trkpt>
      <trkpt lat="44.27666" lon="1.66787">
        <ele>241.9</ele>
        <time>2023-01-26T15:48:06Z</time>
      </trkpt>
      <trkpt lat="44.2767" lon="1.6678">
        <ele>241.8</ele>
        <time>2023-01-26T15:48:07Z</time>
      </trkpt>
      <trkpt lat="44.27674" lon="1.66774">
        <ele>241.6</ele>
        <time>2023-01-26T15:48:08Z</time>
      </trkpt>
      <trkpt lat="44.27679" lon="1.66767">
        <ele>241.5</ele>
        <time>2023-01-26T15:48:09Z</time>
      </trkpt>
      <trkpt lat="44.27683" lon="1.66761">
        <ele>241.4</ele>
        <time>2023-01-26T15:48:10Z</time>
      </trkpt>
      <trkpt lat="44.27687" lon="1.66754">
        <ele>241.2</ele>
        <time>2023-01-26T15:48:11Z</time>
      </trkpt>
      <trkpt lat="44.27691" lon="1.66748">
        <ele>241.1</ele>
        <time>2023-01-26T15:48:12Z</time>
      </trkpt>
      <trkpt lat="44.27695" lon="1.66741">
        <ele>240.9</ele>
        <time>2023-01-26T15:48:13Z</time>
      </trkpt>
      <trkpt lat="44.27699" lon="1.66735">
        <ele>240.8</ele>
        <time>2023-01-26T15:48:14Z</time>
      </trkpt>
      <trkpt lat="44.27703" lon="1.66728">
        <ele>240.7</ele>
        <time>2023-01-26T15:48:15Z</time>
      </trkpt>
      <trkpt lat="44.27706" lon="1.66722">
        <ele>240.6</ele>
        <time>2023-01-26T15:48:16Z</time>
      </trkpt>
      <trkpt lat="44.2771" lon="1.66715">
        <ele>240.4</ele>
        <time>2023-01-26T15:48:17Z</time>
      </trkpt>
      <trkpt lat="44.27713" lon="1.66709">
        <ele>240.3</ele>
        <time>2023-01-26T15:48:18Z</time>
      </trkpt>
      <trkpt lat="44.27716" lon="1.66702">
        <ele>240.2</ele>
        <time>2023-01-26T15:48:19Z</time>
      </trkpt>
      <trkpt lat="44.27719" lon="1.66695">
        <ele>240</ele>
        <time>2023-01-26T15:48:20Z</time>
      </trkpt>
      <trkpt lat="44.27722" lon="1.66687">
        <ele>239.9</ele>
        <time>2023-01-26T15:48:21Z</time>
      </trkpt>
      <trkpt lat="44.27724" lon="1.6668">
        <ele>239.8</ele>
        <time>2023-01-26T15:48:22Z</time>
      </trkpt>
      <trkpt lat="44.27726" lon="1.66672">
        <ele>239.6</ele>
        <time>2023-01-26T15:48:23Z</time>
      </trkpt>
      <trkpt lat="44.27729" lon="1.66665">
        <ele>239.5</ele>
        <time>2023-01-26T15:48:24Z</time>
      </trkpt>
      <trkpt lat="44.27731" lon="1.66656">
        <ele>239.4</ele>
        <time>2023-01-26T15:48:25Z</time>
      </trkpt>
      <trkpt lat="44.27734" lon="1.66648">
        <ele>239.2</ele>
        <time>2023-01-26T15:48:26Z</time>
      </trkpt>
      <trkpt lat="44.27736" lon="1.66639">
        <ele>239.1</ele>
        <time>2023-01-26T15:48:27Z</time>
      </trkpt>
      <trkpt lat="44.27738" lon="1.6663">
        <ele>238.9</ele>
        <time>2023-01-26T15:48:28Z</time>
      </trkpt>
      <trkpt lat="44.2774" lon="1.66621">
        <ele>238.8</ele>
        <time>2023-01-26T15:48:29Z</time>
      </trkpt>
      <trkpt lat="44.27742" lon="1.66613">
        <ele>238.7</ele>
        <time>2023-01-26T15:48:30Z</time>
      </trkpt>
      <trkpt lat="44.27744" lon="1.66605">
        <ele>238.5</ele>
        <time>2023-01-26T15:48:31Z</time>
      </trkpt>
      <trkpt lat="44.27747" lon="1.66597">
        <ele>238.4</ele>
        <time>2023-01-26T15:48:32Z</time>
      </trkpt>
      <trkpt lat="44.27749" lon="1.6659">
        <ele>238.3</ele>
        <time>2023-01-26T15:48:33Z</time>
      </trkpt>
      <trkpt lat="44.27751" lon="1.66583">
        <ele>238.1</ele>
        <time>2023-01-26T15:48:34Z</time>
      </trkpt>
      <trkpt lat="44.27754" lon="1.66576">
        <ele>238</ele>
        <time>2023-01-26T15:48:35Z</time>
      </trkpt>
      <trkpt lat="44.27756" lon="1.66569">
        <ele>237.8</ele>
        <time>2023-01-26T15:48:36Z</time>
      </trkpt>
      <trkpt lat="44.27759" lon="1.66563">
        <ele>237.6</ele>
        <time>2023-01-26T15:48:37Z</time>
      </trkpt>
      <trkpt lat="44.27763" lon="1.66557">
        <ele>237.4</ele>
        <time>2023-01-26T15:48:38Z</time>
      </trkpt>
      <trkpt lat="44.27767" lon="1.66552">
        <ele>237.2</ele>
        <time>2023-01-26T15:48:39Z</time>
      </trkpt>
      <trkpt lat="44.27772" lon="1.66546">
        <ele>237</ele>
        <time>2023-01-26T15:48:40Z</time>
      </trkpt>
      <trkpt lat="44.27776" lon="1.66541">
        <ele>236.8</ele>
        <time>2023-01-26T15:48:41Z</time>
      </trkpt>
      <trkpt lat="44.27779" lon="1.66535">
        <ele>236.7</ele>
        <time>2023-01-26T15:48:42Z</time>
      </trkpt>
      <trkpt lat="44.27784" lon="1.66529">
        <ele>236.5</ele>
        <time>2023-01-26T15:48:43Z</time>
      </trkpt>
      <trkpt lat="44.27789" lon="1.66524">
        <ele>236.2</ele>
        <time>2023-01-26T15:48:44Z</time>
      </trkpt>
      <trkpt lat="44.27794" lon="1.66519">
        <ele>236</ele>
        <time>2023-01-26T15:48:45Z</time>
      </trkpt>
      <trkpt lat="44.27799" lon="1.66514">
        <ele>235.9</ele>
        <time>2023-01-26T15:48:46Z</time>
      </trkpt>
      <trkpt lat="44.27802" lon="1.66509">
        <ele>235.7</ele>
        <time>2023-01-26T15:48:47Z</time>
      </trkpt>
      <trkpt lat="44.27807" lon="1.66505">
        <ele>235.5</ele>
        <time>2023-01-26T15:48:48Z</time>
      </trkpt>
      <trkpt lat="44.2781" lon="1.665">
        <ele>235.4</ele>
        <time>2023-01-26T15:48:49Z</time>
      </trkpt>
      <trkpt lat="44.27813" lon="1.66495">
        <ele>235.2</ele>
        <time>2023-01-26T15:48:50Z</time>
      </trkpt>
      <trkpt lat="44.27815" lon="1.66491">
        <ele>235.1</ele>
        <time>2023-01-26T15:48:51Z</time>
      </trkpt>
      <trkpt lat="44.27817" lon="1.66487">
        <ele>235</ele>
        <time>2023-01-26T15:48:52Z</time>
      </trkpt>
      <trkpt lat="44.27818" lon="1.66484">
        <ele>234.9</ele>
        <time>2023-01-26T15:48:53Z</time>
      </trkpt>
      <trkpt lat="44.27817" lon="1.66479">
        <ele>234.8</ele>
        <time>2023-01-26T15:48:54Z</time>
      </trkpt>
      <trkpt lat="44.27816" lon="1.66477">
        <ele>234.8</ele>
        <time>2023-01-26T15:48:55Z</time>
      </trkpt>
      <trkpt lat="44.27812" lon="1.66474">
        <ele>234.6</ele>
        <time>2023-01-26T15:48:56Z</time>
      </trkpt>
      <trkpt lat="44.27808" lon="1.66474">
        <ele>234.6</ele>
        <time>2023-01-26T15:48:57Z</time>
      </trkpt>
      <trkpt lat="44.278" lon="1.66473">
        <ele>234.3</ele>
        <time>2023-01-26T15:48:58Z</time>
      </trkpt>
      <trkpt lat="44.27792" lon="1.66473">
        <ele>234.2</ele>
        <time>2023-01-26T15:48:59Z</time>
      </trkpt>
      <trkpt lat="44.27786" lon="1.66471">
        <ele>234</ele>
        <time>2023-01-26T15:49:00Z</time>
      </trkpt>
      <trkpt lat="44.2778" lon="1.66469">
        <ele>233.8</ele>
        <time>2023-01-26T15:49:01Z</time>
      </trkpt>
      <trkpt lat="44.27776" lon="1.66468">
        <ele>233.7</ele>
        <time>2023-01-26T15:49:02Z</time>
      </trkpt>
      <trkpt lat="44.2777" lon="1.66464">
        <ele>233.6</ele>
        <time>2023-01-26T15:49:03Z</time>
      </trkpt>
      <trkpt lat="44.27765" lon="1.6646">
        <ele>233.4</ele>
        <time>2023-01-26T15:49:04Z</time>
      </trkpt>
      <trkpt lat="44.2776" lon="1.66454">
        <ele>233.3</ele>
        <time>2023-01-26T15:49:05Z</time>
      </trkpt>
      <trkpt lat="44.27756" lon="1.66448">
        <ele>233.1</ele>
        <time>2023-01-26T15:49:06Z</time>
      </trkpt>
      <trkpt lat="44.27752" lon="1.6644">
        <ele>232.9</ele>
        <time>2023-01-26T15:49:07Z</time>
      </trkpt>
      <trkpt lat="44.27749" lon="1.66432">
        <ele>232.8</ele>
        <time>2023-01-26T15:49:08Z</time>
      </trkpt>
      <trkpt lat="44.27747" lon="1.66423">
        <ele>232.6</ele>
        <time>2023-01-26T15:49:09Z</time>
      </trkpt>
      <trkpt lat="44.27745" lon="1.66415">
        <ele>232.5</ele>
        <time>2023-01-26T15:49:10Z</time>
      </trkpt>
      <trkpt lat="44.27743" lon="1.66406">
        <ele>232.3</ele>
        <time>2023-01-26T15:49:11Z</time>
      </trkpt>
      <trkpt lat="44.2774" lon="1.66398">
        <ele>232.1</ele>
        <time>2023-01-26T15:49:12Z</time>
      </trkpt>
      <trkpt lat="44.27738" lon="1.66389">
        <ele>232</ele>
        <time>2023-01-26T15:49:13Z</time>
      </trkpt>
      <trkpt lat="44.27736" lon="1.66381">
        <ele>231.8</ele>
        <time>2023-01-26T15:49:14Z</time>
      </trkpt>
      <trkpt lat="44.27733" lon="1.66374">
        <ele>231.7</ele>
        <time>2023-01-26T15:49:15Z</time>
      </trkpt>
      <trkpt lat="44.27731" lon="1.66366">
        <ele>231.5</ele>
        <time>2023-01-26T15:49:16Z</time>
      </trkpt>
      <trkpt lat="44.27727" lon="1.6636">
        <ele>231.4</ele>
        <time>2023-01-26T15:49:17Z</time>
      </trkpt>
      <trkpt lat="44.27723" lon="1.66353">
        <ele>231.2</ele>
        <time>2023-01-26T15:49:18Z</time>
      </trkpt>
      <trkpt lat="44.27718" lon="1.66347">
        <ele>231.1</ele>
        <time>2023-01-26T15:49:19Z</time>
      </trkpt>
      <trkpt lat="44.27713" lon="1.66341">
        <ele>230.9</ele>
        <time>2023-01-26T15:49:20Z</time>
      </trkpt>
      <trkpt lat="44.27708" lon="1.66336">
        <ele>230.8</ele>
        <time>2023-01-26T15:49:21Z</time>
      </trkpt>
      <trkpt lat="44.27704" lon="1.66332">
        <ele>230.6</ele>
        <time>2023-01-26T15:49:22Z</time>
      </trkpt>
      <trkpt lat="44.27699" lon="1.66328">
        <ele>230.5</ele>
        <time>2023-01-26T15:49:23Z</time>
      </trkpt>
      <trkpt lat="44.27695" lon="1.66325">
        <ele>230.4</ele>
        <time>2023-01-26T15:49:24Z</time>
      </trkpt>
      <trkpt lat="44.2769" lon="1.66322">
        <ele>230.2</ele>
        <time>2023-01-26T15:49:25Z</time>
      </trkpt>
      <trkpt lat="44.27685" lon="1.66319">
        <ele>230.1</ele>
        <time>2023-01-26T15:49:26Z</time>
      </trkpt>
      <trkpt lat="44.2768" lon="1.66317">
        <ele>230</ele>
        <time>2023-01-26T15:49:27Z</time>
      </trkpt>
      <trkpt lat="44.27675" lon="1.66315">
        <ele>229.8</ele>
        <time>2023-01-26T15:49:28Z</time>
      </trkpt>
      <trkpt lat="44.2767" lon="1.66313">
        <ele>229.7</ele>
        <time>2023-01-26T15:49:29Z</time>
      </trkpt>
      <trkpt lat="44.27665" lon="1.66311">
        <ele>229.6</ele>
        <time>2023-01-26T15:49:30Z</time>
      </trkpt>
      <trkpt lat="44.2766" lon="1.6631">
        <ele>229.5</ele>
        <time>2023-01-26T15:49:31Z</time>
      </trkpt>
      <trkpt lat="44.27654" lon="1.66308">
        <ele>229.3</ele>
        <time>2023-01-26T15:49:32Z</time>
      </trkpt>
      <trkpt lat="44.27649" lon="1.66306">
        <ele>229.2</ele>
        <time>2023-01-26T15:49:33Z</time>
      </trkpt>
      <trkpt lat="44.27644" lon="1.66304">
        <ele>229.1</ele>
        <time>2023-01-26T15:49:34Z</time>
      </trkpt>
      <trkpt lat="44.27639" lon="1.66302">
        <ele>228.9</ele>
        <time>2023-01-26T15:49:35Z</time>
      </trkpt>
      <trkpt lat="44.27635" lon="1.663">
        <ele>228.8</ele>
        <time>2023-01-26T15:49:36Z</time>
      </trkpt>
      <trkpt lat="44.27629" lon="1.66299">
        <ele>228.7</ele>
        <time>2023-01-26T15:49:37Z</time>
      </trkpt>
      <trkpt lat="44.27624" lon="1.66298">
        <ele>228.6</ele>
        <time>2023-01-26T15:49:38Z</time>
      </trkpt>
      <trkpt lat="44.27618" lon="1.66298">
        <ele>228.4</ele>
        <time>2023-01-26T15:49:39Z</time>
      </trkpt>
      <trkpt lat="44.27612" lon="1.66298">
        <ele>228.3</ele>
        <time>2023-01-26T15:49:40Z</time>
      </trkpt>
      <trkpt lat="44.27606" lon="1.66299">
        <ele>228.1</ele>
        <time>2023-01-26T15:49:41Z</time>
      </trkpt>
      <trkpt lat="44.276" lon="1.663">
        <ele>228</ele>
        <time>2023-01-26T15:49:42Z</time>
      </trkpt>
      <trkpt lat="44.27595" lon="1.66301">
        <ele>227.8</ele>
        <time>2023-01-26T15:49:43Z</time>
      </trkpt>
      <trkpt lat="44.27589" lon="1.663">
        <ele>227.7</ele>
        <time>2023-01-26T15:49:44Z</time>
      </trkpt>
      <trkpt lat="44.27583" lon="1.663">
        <ele>227.5</ele>
        <time>2023-01-26T15:49:45Z</time>
      </trkpt>
      <trkpt lat="44.27578" lon="1.66298">
        <ele>227.4</ele>
        <time>2023-01-26T15:49:46Z</time>
      </trkpt>
      <trkpt lat="44.27574" lon="1.66296">
        <ele>227.3</ele>
        <time>2023-01-26T15:49:47Z</time>
      </trkpt>
      <trkpt lat="44.2757" lon="1.66293">
        <ele>227.2</ele>
        <time>2023-01-26T15:49:48Z</time>
      </trkpt>
      <trkpt lat="44.27567" lon="1.66289">
        <ele>227.1</ele>
        <time>2023-01-26T15:49:49Z</time>
      </trkpt>
      <trkpt lat="44.27563" lon="1.66285">
        <ele>227</ele>
        <time>2023-01-26T15:49:50Z</time>
      </trkpt>
      <trkpt lat="44.27559" lon="1.6628">
        <ele>226.8</ele>
        <time>2023-01-26T15:49:51Z</time>
      </trkpt>
      <trkpt lat="44.27554" lon="1.66276">
        <ele>226.7</ele>
        <time>2023-01-26T15:49:52Z</time>
      </trkpt>
      <trkpt lat="44.2755" lon="1.66273">
        <ele>226.6</ele>
        <time>2023-01-26T15:49:53Z</time>
      </trkpt>
      <trkpt lat="44.27547" lon="1.6627">
        <ele>226.5</ele>
        <time>2023-01-26T15:49:54Z</time>
      </trkpt>
      <trkpt lat="44.27542" lon="1.66267">
        <ele>226.4</ele>
        <time>2023-01-26T15:49:55Z</time>
      </trkpt>
      <trkpt lat="44.27538" lon="1.66265">
        <ele>226.2</ele>
        <time>2023-01-26T15:49:56Z</time>
      </trkpt>
      <trkpt lat="44.27535" lon="1.66264">
        <ele>226.2</ele>
        <time>2023-01-26T15:49:57Z</time>
      </trkpt>
      <trkpt lat="44.27531" lon="1.66262">
        <ele>226.1</ele>
        <time>2023-01-26T15:49:58Z</time>
      </trkpt>
      <trkpt lat="44.2753" lon="1.6626">
        <ele>226</ele>
        <time>2023-01-26T15:49:59Z</time>
      </trkpt>
      <trkpt lat="44.27529" lon="1.66257">
        <ele>225.9</ele>
        <time>2023-01-26T15:50:01Z</time>
      </trkpt>
      <trkpt lat="44.27537" lon="1.66252">
        <ele>225.7</ele>
        <time>2023-01-26T15:50:03Z</time>
      </trkpt>
      <trkpt lat="44.27543" lon="1.66255">
        <ele>225.4</ele>
        <time>2023-01-26T15:50:04Z</time>
      </trkpt>
      <trkpt lat="44.27547" lon="1.66257">
        <ele>225.3</ele>
        <time>2023-01-26T15:50:05Z</time>
      </trkpt>
      <trkpt lat="44.27553" lon="1.66258">
        <ele>225.1</ele>
        <time>2023-01-26T15:50:06Z</time>
      </trkpt>
      <trkpt lat="44.27566" lon="1.66265">
        <ele>224.9</ele>
        <time>2023-01-26T15:50:08Z</time>
      </trkpt>
      <trkpt lat="44.27573" lon="1.66269">
        <ele>224.9</ele>
        <time>2023-01-26T15:50:09Z</time>
      </trkpt>
      <trkpt lat="44.27578" lon="1.66273">
        <ele>224.9</ele>
        <time>2023-01-26T15:50:10Z</time>
      </trkpt>
      <trkpt lat="44.27583" lon="1.66276">
        <ele>224.7</ele>
        <time>2023-01-26T15:50:11Z</time>
      </trkpt>
      <trkpt lat="44.27588" lon="1.66274">
        <ele>224.5</ele>
        <time>2023-01-26T15:50:12Z</time>
      </trkpt>
      <trkpt lat="44.2759" lon="1.66272">
        <ele>224.3</ele>
        <time>2023-01-26T15:50:13Z</time>
      </trkpt>
      <trkpt lat="44.2759" lon="1.66264">
        <ele>223.8</ele>
        <time>2023-01-26T15:50:14Z</time>
      </trkpt>
      <trkpt lat="44.27588" lon="1.6626">
        <ele>223.5</ele>
        <time>2023-01-26T15:50:16Z</time>
      </trkpt>
      <trkpt lat="44.27586" lon="1.66257">
        <ele>223.1</ele>
        <time>2023-01-26T15:50:17Z</time>
      </trkpt>
      <trkpt lat="44.27582" lon="1.66252">
        <ele>222.6</ele>
        <time>2023-01-26T15:50:18Z</time>
      </trkpt>
      <trkpt lat="44.27579" lon="1.66245">
        <ele>221.9</ele>
        <time>2023-01-26T15:50:19Z</time>
      </trkpt>
      <trkpt lat="44.27578" lon="1.66239">
        <ele>221.4</ele>
        <time>2023-01-26T15:50:21Z</time>
      </trkpt>
      <trkpt lat="44.27579" lon="1.66235">
        <ele>220.8</ele>
        <time>2023-01-26T15:50:22Z</time>
      </trkpt>
      <trkpt lat="44.27581" lon="1.66233">
        <ele>220.5</ele>
        <time>2023-01-26T15:50:23Z</time>
      </trkpt>
      <trkpt lat="44.27584" lon="1.66234">
        <ele>219.8</ele>
        <time>2023-01-26T15:50:25Z</time>
      </trkpt>
      <trkpt lat="44.27588" lon="1.66236">
        <ele>219.1</ele>
        <time>2023-01-26T15:50:26Z</time>
      </trkpt>
      <trkpt lat="44.27593" lon="1.66237">
        <ele>218.4</ele>
        <time>2023-01-26T15:50:27Z</time>
      </trkpt>
      <trkpt lat="44.27597" lon="1.66235">
        <ele>217.8</ele>
        <time>2023-01-26T15:50:28Z</time>
      </trkpt>
      <trkpt lat="44.27602" lon="1.66232">
        <ele>217.3</ele>
        <time>2023-01-26T15:50:30Z</time>
      </trkpt>
      <trkpt lat="44.27603" lon="1.66232">
        <ele>217.2</ele>
        <time>2023-01-26T15:50:32Z</time>
      </trkpt>
      <trkpt lat="44.27603" lon="1.66232">
        <ele>217.2</ele>
        <time>2023-01-26T15:50:33Z</time>
      </trkpt>
      <trkpt lat="44.27603" lon="1.66232">
        <ele>217.2</ele>
        <time>2023-01-26T15:50:35Z</time>
      </trkpt>
      <trkpt lat="44.27603" lon="1.66231">
        <ele>217.1</ele>
        <time>2023-01-26T15:50:37Z</time>
      </trkpt>
      <trkpt lat="44.27603" lon="1.66232">
        <ele>217.1</ele>
        <time>2023-01-26T15:50:39Z</time>
      </trkpt>
      <trkpt lat="44.27603" lon="1.66232">
        <ele>217.1</ele>
        <time>2023-01-26T15:50:40Z</time>
      </trkpt>
      <trkpt lat="44.27603" lon="1.66232">
        <ele>217.1</ele>
        <time>2023-01-26T15:50:41Z</time>
      </trkpt>
      <trkpt lat="44.27604" lon="1.66233">
        <ele>217</ele>
        <time>2023-01-26T15:50:43Z</time>
      </trkpt>
      <trkpt lat="44.27604" lon="1.66233">
        <ele>217</ele>
        <time>2023-01-26T15:50:45Z</time>
      </trkpt>
      <trkpt lat="44.27605" lon="1.66233">
        <ele>216.9</ele>
        <time>2023-01-26T15:50:46Z</time>
      </trkpt>
      <trkpt lat="44.27605" lon="1.66233">
        <ele>216.9</ele>
        <time>2023-01-26T15:50:47Z</time>
      </trkpt>
      <trkpt lat="44.27606" lon="1.66233">
        <ele>216.8</ele>
        <time>2023-01-26T15:50:48Z</time>
      </trkpt>
      <trkpt lat="44.27606" lon="1.66233">
        <ele>216.8</ele>
        <time>2023-01-26T15:50:49Z</time>
      </trkpt>
      <trkpt lat="44.27607" lon="1.66232">
        <ele>216.8</ele>
        <time>2023-01-26T15:50:50Z</time>
      </trkpt>
      <trkpt lat="44.27607" lon="1.66232">
        <ele>216.7</ele>
        <time>2023-01-26T15:50:52Z</time>
      </trkpt>
      <trkpt lat="44.27607" lon="1.66232">
        <ele>216.7</ele>
        <time>2023-01-26T15:50:53Z</time>
      </trkpt>
      <trkpt lat="44.27607" lon="1.66232">
        <ele>216.7</ele>
        <time>2023-01-26T15:50:54Z</time>
      </trkpt>
      <trkpt lat="44.27608" lon="1.66232">
        <ele>216.7</ele>
        <time>2023-01-26T15:50:55Z</time>
      </trkpt>
      <trkpt lat="44.27609" lon="1.66233">
        <ele>216.6</ele>
        <time>2023-01-26T15:50:56Z</time>
      </trkpt>
      <trkpt lat="44.27609" lon="1.66233">
        <ele>216.6</ele>
        <time>2023-01-26T15:50:57Z</time>
      </trkpt>
      <trkpt lat="44.2761" lon="1.66233">
        <ele>216.5</ele>
        <time>2023-01-26T15:50:58Z</time>
      </trkpt>
      <trkpt lat="44.2761" lon="1.66233">
        <ele>216.5</ele>
        <time>2023-01-26T15:50:59Z</time>
      </trkpt>
      <trkpt lat="44.27611" lon="1.66233">
        <ele>216.4</ele>
        <time>2023-01-26T15:51:01Z</time>
      </trkpt>
      <trkpt lat="44.27612" lon="1.66232">
        <ele>216.3</ele>
        <time>2023-01-26T15:51:03Z</time>
      </trkpt>
      <trkpt lat="44.27613" lon="1.66232">
        <ele>216.3</ele>
        <time>2023-01-26T15:51:04Z</time>
      </trkpt>
      <trkpt lat="44.27614" lon="1.66232">
        <ele>216.2</ele>
        <time>2023-01-26T15:51:05Z</time>
      </trkpt>
      <trkpt lat="44.27615" lon="1.66232">
        <ele>216.1</ele>
        <time>2023-01-26T15:51:07Z</time>
      </trkpt>
      <trkpt lat="44.27616" lon="1.66231">
        <ele>216</ele>
        <time>2023-01-26T15:51:08Z</time>
      </trkpt>
      <trkpt lat="44.27617" lon="1.66231">
        <ele>215.9</ele>
        <time>2023-01-26T15:51:09Z</time>
      </trkpt>
      <trkpt lat="44.27619" lon="1.6623">
        <ele>215.8</ele>
        <time>2023-01-26T15:51:10Z</time>
      </trkpt>
      <trkpt lat="44.27621" lon="1.66229">
        <ele>215.8</ele>
        <time>2023-01-26T15:51:11Z</time>
      </trkpt>
      <trkpt lat="44.27624" lon="1.66225">
        <ele>215.8</ele>
        <time>2023-01-26T15:51:12Z</time>
      </trkpt>
      <trkpt lat="44.27626" lon="1.66222">
        <ele>215.8</ele>
        <time>2023-01-26T15:51:13Z</time>
      </trkpt>
      <trkpt lat="44.27626" lon="1.66221">
        <ele>215.8</ele>
        <time>2023-01-26T15:51:14Z</time>
      </trkpt>
      <trkpt lat="44.27626" lon="1.66218">
        <ele>215.4</ele>
        <time>2023-01-26T15:51:15Z</time>
      </trkpt>
      <trkpt lat="44.27626" lon="1.66213">
        <ele>214.8</ele>
        <time>2023-01-26T15:51:16Z</time>
      </trkpt>
      <trkpt lat="44.27626" lon="1.66211">
        <ele>214.5</ele>
        <time>2023-01-26T15:51:17Z</time>
      </trkpt>
      <trkpt lat="44.27626" lon="1.66209">
        <ele>214.3</ele>
        <time>2023-01-26T15:51:18Z</time>
      </trkpt>
      <trkpt lat="44.27626" lon="1.66208">
        <ele>214.1</ele>
        <time>2023-01-26T15:51:19Z</time>
      </trkpt>
      <trkpt lat="44.27626" lon="1.66204">
        <ele>213.7</ele>
        <time>2023-01-26T15:51:20Z</time>
      </trkpt>
      <trkpt lat="44.27627" lon="1.66202">
        <ele>213.5</ele>
        <time>2023-01-26T15:51:21Z</time>
      </trkpt>
      <trkpt lat="44.2763" lon="1.66198">
        <ele>213</ele>
        <time>2023-01-26T15:51:23Z</time>
      </trkpt>
      <trkpt lat="44.27633" lon="1.66195">
        <ele>212.7</ele>
        <time>2023-01-26T15:51:24Z</time>
      </trkpt>
      <trkpt lat="44.27634" lon="1.66193">
        <ele>212.6</ele>
        <time>2023-01-26T15:51:26Z</time>
      </trkpt>
      <trkpt lat="44.27634" lon="1.66192">
        <ele>212.5</ele>
        <time>2023-01-26T15:51:27Z</time>
      </trkpt>
      <trkpt lat="44.27633" lon="1.66191">
        <ele>212.5</ele>
        <time>2023-01-26T15:51:28Z</time>
      </trkpt>
      <trkpt lat="44.27633" lon="1.66189">
        <ele>212.4</ele>
        <time>2023-01-26T15:51:30Z</time>
      </trkpt>
      <trkpt lat="44.27633" lon="1.66189">
        <ele>212.4</ele>
        <time>2023-01-26T15:51:31Z</time>
      </trkpt>
      <trkpt lat="44.27633" lon="1.66188">
        <ele>212.3</ele>
        <time>2023-01-26T15:51:33Z</time>
      </trkpt>
      <trkpt lat="44.27633" lon="1.66187">
        <ele>212.3</ele>
        <time>2023-01-26T15:51:34Z</time>
      </trkpt>
      <trkpt lat="44.27633" lon="1.66186">
        <ele>212.3</ele>
        <time>2023-01-26T15:51:35Z</time>
      </trkpt>
      <trkpt lat="44.27633" lon="1.66185">
        <ele>212.2</ele>
        <time>2023-01-26T15:51:36Z</time>
      </trkpt>
      <trkpt lat="44.27633" lon="1.66184">
        <ele>212.2</ele>
        <time>2023-01-26T15:51:37Z</time>
      </trkpt>
      <trkpt lat="44.27633" lon="1.66183">
        <ele>212.2</ele>
        <time>2023-01-26T15:51:38Z</time>
      </trkpt>
      <trkpt lat="44.27633" lon="1.66183">
        <ele>212.2</ele>
        <time>2023-01-26T15:51:39Z</time>
      </trkpt>
      <trkpt lat="44.27633" lon="1.66182">
        <ele>212.2</ele>
        <time>2023-01-26T15:51:40Z</time>
      </trkpt>
      <trkpt lat="44.27633" lon="1.66182">
        <ele>212.2</ele>
        <time>2023-01-26T15:51:41Z</time>
      </trkpt>
      <trkpt lat="44.27633" lon="1.66181">
        <ele>212.1</ele>
        <time>2023-01-26T15:51:42Z</time>
      </trkpt>
      <trkpt lat="44.27633" lon="1.6618">
        <ele>212.1</ele>
        <time>2023-01-26T15:51:43Z</time>
      </trkpt>
      <trkpt lat="44.27634" lon="1.66177">
        <ele>212.1</ele>
        <time>2023-01-26T15:51:44Z</time>
      </trkpt>
      <trkpt lat="44.27634" lon="1.66175">
        <ele>212.1</ele>
        <time>2023-01-26T15:51:45Z</time>
      </trkpt>
      <trkpt lat="44.27634" lon="1.66174">
        <ele>212.1</ele>
        <time>2023-01-26T15:51:46Z</time>
      </trkpt>
      <trkpt lat="44.27635" lon="1.66167">
        <ele>212.2</ele>
        <time>2023-01-26T15:51:47Z</time>
      </trkpt>
      <trkpt lat="44.27634" lon="1.66163">
        <ele>212.2</ele>
        <time>2023-01-26T15:51:48Z</time>
      </trkpt>
      <trkpt lat="44.27634" lon="1.66158">
        <ele>212.4</ele>
        <time>2023-01-26T15:51:50Z</time>
      </trkpt>
      <trkpt lat="44.27636" lon="1.6615">
        <ele>212.7</ele>
        <time>2023-01-26T15:51:51Z</time>
      </trkpt>
      <trkpt lat="44.27637" lon="1.66145">
        <ele>213</ele>
        <time>2023-01-26T15:51:52Z</time>
      </trkpt>
      <trkpt lat="44.27638" lon="1.66143">
        <ele>213.1</ele>
        <time>2023-01-26T15:51:53Z</time>
      </trkpt>
      <trkpt lat="44.27639" lon="1.66138">
        <ele>213.4</ele>
        <time>2023-01-26T15:51:55Z</time>
      </trkpt>
      <trkpt lat="44.2764" lon="1.6613">
        <ele>213.8</ele>
        <time>2023-01-26T15:51:56Z</time>
      </trkpt>
      <trkpt lat="44.2764" lon="1.66127">
        <ele>214</ele>
        <time>2023-01-26T15:51:57Z</time>
      </trkpt>
      <trkpt lat="44.27641" lon="1.66123">
        <ele>214.2</ele>
        <time>2023-01-26T15:51:59Z</time>
      </trkpt>
      <trkpt lat="44.27642" lon="1.66117">
        <ele>214.5</ele>
        <time>2023-01-26T15:52:00Z</time>
      </trkpt>
      <trkpt lat="44.27642" lon="1.66115">
        <ele>214.6</ele>
        <time>2023-01-26T15:52:01Z</time>
      </trkpt>
      <trkpt lat="44.27643" lon="1.6611">
        <ele>214.9</ele>
        <time>2023-01-26T15:52:03Z</time>
      </trkpt>
      <trkpt lat="44.27644" lon="1.66103">
        <ele>215.2</ele>
        <time>2023-01-26T15:52:04Z</time>
      </trkpt>
      <trkpt lat="44.27645" lon="1.66099">
        <ele>215.4</ele>
        <time>2023-01-26T15:52:06Z</time>
      </trkpt>
      <trkpt lat="44.27646" lon="1.66095">
        <ele>215.7</ele>
        <time>2023-01-26T15:52:07Z</time>
      </trkpt>
      <trkpt lat="44.27647" lon="1.66088">
        <ele>216.1</ele>
        <time>2023-01-26T15:52:08Z</time>
      </trkpt>
      <trkpt lat="44.27648" lon="1.6608">
        <ele>216.7</ele>
        <time>2023-01-26T15:52:10Z</time>
      </trkpt>
      <trkpt lat="44.27648" lon="1.66076">
        <ele>217</ele>
        <time>2023-01-26T15:52:12Z</time>
      </trkpt>
      <trkpt lat="44.27648" lon="1.66071">
        <ele>217.4</ele>
        <time>2023-01-26T15:52:13Z</time>
      </trkpt>
      <trkpt lat="44.27648" lon="1.66069">
        <ele>217.5</ele>
        <time>2023-01-26T15:52:14Z</time>
      </trkpt>
      <trkpt lat="44.27648" lon="1.66064">
        <ele>217.8</ele>
        <time>2023-01-26T15:52:15Z</time>
      </trkpt>
      <trkpt lat="44.27649" lon="1.66061">
        <ele>218.1</ele>
        <time>2023-01-26T15:52:17Z</time>
      </trkpt>
      <trkpt lat="44.27651" lon="1.66057">
        <ele>218.3</ele>
        <time>2023-01-26T15:52:18Z</time>
      </trkpt>
      <trkpt lat="44.27652" lon="1.66052">
        <ele>218.6</ele>
        <time>2023-01-26T15:52:19Z</time>
      </trkpt>
      <trkpt lat="44.27652" lon="1.6605">
        <ele>218.7</ele>
        <time>2023-01-26T15:52:20Z</time>
      </trkpt>
      <trkpt lat="44.27653" lon="1.66045">
        <ele>218.8</ele>
        <time>2023-01-26T15:52:21Z</time>
      </trkpt>
      <trkpt lat="44.27654" lon="1.66042">
        <ele>218.9</ele>
        <time>2023-01-26T15:52:22Z</time>
      </trkpt>
      <trkpt lat="44.27654" lon="1.66039">
        <ele>219</ele>
        <time>2023-01-26T15:52:24Z</time>
      </trkpt>
      <trkpt lat="44.27655" lon="1.66033">
        <ele>219.1</ele>
        <time>2023-01-26T15:52:25Z</time>
      </trkpt>
      <trkpt lat="44.27656" lon="1.66026">
        <ele>219.1</ele>
        <time>2023-01-26T15:52:27Z</time>
      </trkpt>
      <trkpt lat="44.27656" lon="1.6602">
        <ele>219.1</ele>
        <time>2023-01-26T15:52:28Z</time>
      </trkpt>
      <trkpt lat="44.27656" lon="1.66016">
        <ele>219</ele>
        <time>2023-01-26T15:52:30Z</time>
      </trkpt>
      <trkpt lat="44.27657" lon="1.66012">
        <ele>219</ele>
        <time>2023-01-26T15:52:31Z</time>
      </trkpt>
      <trkpt lat="44.27658" lon="1.66007">
        <ele>219.4</ele>
        <time>2023-01-26T15:52:32Z</time>
      </trkpt>
      <trkpt lat="44.27658" lon="1.66005">
        <ele>219.5</ele>
        <time>2023-01-26T15:52:33Z</time>
      </trkpt>
      <trkpt lat="44.2766" lon="1.66">
        <ele>219.8</ele>
        <time>2023-01-26T15:52:34Z</time>
      </trkpt>
      <trkpt lat="44.27661" lon="1.65998">
        <ele>220</ele>
        <time>2023-01-26T15:52:35Z</time>
      </trkpt>
      <trkpt lat="44.27662" lon="1.65995">
        <ele>220.2</ele>
        <time>2023-01-26T15:52:36Z</time>
      </trkpt>
      <trkpt lat="44.27664" lon="1.6599">
        <ele>220.5</ele>
        <time>2023-01-26T15:52:37Z</time>
      </trkpt>
      <trkpt lat="44.27665" lon="1.65989">
        <ele>220.6</ele>
        <time>2023-01-26T15:52:38Z</time>
      </trkpt>
      <trkpt lat="44.27666" lon="1.65985">
        <ele>220.8</ele>
        <time>2023-01-26T15:52:39Z</time>
      </trkpt>
      <trkpt lat="44.27666" lon="1.65983">
        <ele>220.9</ele>
        <time>2023-01-26T15:52:40Z</time>
      </trkpt>
      <trkpt lat="44.27667" lon="1.6598">
        <ele>221.1</ele>
        <time>2023-01-26T15:52:41Z</time>
      </trkpt>
      <trkpt lat="44.27668" lon="1.65978">
        <ele>221.1</ele>
        <time>2023-01-26T15:52:42Z</time>
      </trkpt>
      <trkpt lat="44.2767" lon="1.65976">
        <ele>221.3</ele>
        <time>2023-01-26T15:52:43Z</time>
      </trkpt>
      <trkpt lat="44.27671" lon="1.65975">
        <ele>221.4</ele>
        <time>2023-01-26T15:52:44Z</time>
      </trkpt>
      <trkpt lat="44.27672" lon="1.65973">
        <ele>221.6</ele>
        <time>2023-01-26T15:52:46Z</time>
      </trkpt>
      <trkpt lat="44.27672" lon="1.65972">
        <ele>221.6</ele>
        <time>2023-01-26T15:52:47Z</time>
      </trkpt>
      <trkpt lat="44.27672" lon="1.65972">
        <ele>221.6</ele>
        <time>2023-01-26T15:52:49Z</time>
      </trkpt>
      <trkpt lat="44.27673" lon="1.65972">
        <ele>221.7</ele>
        <time>2023-01-26T15:52:50Z</time>
      </trkpt>
      <trkpt lat="44.27673" lon="1.65971">
        <ele>221.7</ele>
        <time>2023-01-26T15:52:51Z</time>
      </trkpt>
      <trkpt lat="44.27674" lon="1.6597">
        <ele>221.8</ele>
        <time>2023-01-26T15:52:53Z</time>
      </trkpt>
      <trkpt lat="44.27674" lon="1.65969">
        <ele>221.8</ele>
        <time>2023-01-26T15:52:55Z</time>
      </trkpt>
      <trkpt lat="44.27674" lon="1.65969">
        <ele>221.9</ele>
        <time>2023-01-26T15:52:56Z</time>
      </trkpt>
      <trkpt lat="44.27679" lon="1.65964">
        <ele>222.3</ele>
        <time>2023-01-26T15:53:23Z</time>
      </trkpt>
      <trkpt lat="44.27679" lon="1.65963">
        <ele>222.4</ele>
        <time>2023-01-26T15:53:24Z</time>
      </trkpt>
      <trkpt lat="44.2768" lon="1.65961">
        <ele>222.5</ele>
        <time>2023-01-26T15:53:25Z</time>
      </trkpt>
      <trkpt lat="44.2768" lon="1.65959">
        <ele>222.6</ele>
        <time>2023-01-26T15:53:26Z</time>
      </trkpt>
      <trkpt lat="44.2768" lon="1.65956">
        <ele>222.8</ele>
        <time>2023-01-26T15:53:28Z</time>
      </trkpt>
      <trkpt lat="44.27681" lon="1.65954">
        <ele>222.9</ele>
        <time>2023-01-26T15:53:29Z</time>
      </trkpt>
      <trkpt lat="44.27681" lon="1.65951">
        <ele>223.1</ele>
        <time>2023-01-26T15:53:30Z</time>
      </trkpt>
      <trkpt lat="44.27681" lon="1.6595">
        <ele>223.2</ele>
        <time>2023-01-26T15:53:31Z</time>
      </trkpt>
      <trkpt lat="44.27681" lon="1.65947">
        <ele>223.3</ele>
        <time>2023-01-26T15:53:32Z</time>
      </trkpt>
      <trkpt lat="44.27681" lon="1.65945">
        <ele>223.5</ele>
        <time>2023-01-26T15:53:33Z</time>
      </trkpt>
      <trkpt lat="44.27681" lon="1.65943">
        <ele>223.5</ele>
        <time>2023-01-26T15:53:35Z</time>
      </trkpt>
      <trkpt lat="44.27681" lon="1.65942">
        <ele>223.6</ele>
        <time>2023-01-26T15:53:36Z</time>
      </trkpt>
      <trkpt lat="44.2768" lon="1.65941">
        <ele>223.7</ele>
        <time>2023-01-26T15:53:37Z</time>
      </trkpt>
      <trkpt lat="44.27678" lon="1.65939">
        <ele>224</ele>
        <time>2023-01-26T15:53:38Z</time>
      </trkpt>
      <trkpt lat="44.27676" lon="1.65938">
        <ele>224.1</ele>
        <time>2023-01-26T15:53:39Z</time>
      </trkpt>
      <trkpt lat="44.27674" lon="1.65934">
        <ele>224.4</ele>
        <time>2023-01-26T15:53:40Z</time>
      </trkpt>
      <trkpt lat="44.27671" lon="1.65929">
        <ele>224.8</ele>
        <time>2023-01-26T15:53:41Z</time>
      </trkpt>
      <trkpt lat="44.27668" lon="1.6592">
        <ele>225.4</ele>
        <time>2023-01-26T15:53:42Z</time>
      </trkpt>
      <trkpt lat="44.27667" lon="1.6591">
        <ele>226</ele>
        <time>2023-01-26T15:53:43Z</time>
      </trkpt>
      <trkpt lat="44.27666" lon="1.65905">
        <ele>226.2</ele>
        <time>2023-01-26T15:53:44Z</time>
      </trkpt>
      <trkpt lat="44.27666" lon="1.659">
        <ele>226.4</ele>
        <time>2023-01-26T15:53:45Z</time>
      </trkpt>
      <trkpt lat="44.27666" lon="1.65894">
        <ele>226.6</ele>
        <time>2023-01-26T15:53:46Z</time>
      </trkpt>
      <trkpt lat="44.27665" lon="1.65889">
        <ele>226.8</ele>
        <time>2023-01-26T15:53:47Z</time>
      </trkpt>
      <trkpt lat="44.27665" lon="1.65882">
        <ele>227</ele>
        <time>2023-01-26T15:53:48Z</time>
      </trkpt>
      <trkpt lat="44.27666" lon="1.65878">
        <ele>227.2</ele>
        <time>2023-01-26T15:53:49Z</time>
      </trkpt>
      <trkpt lat="44.27669" lon="1.65873">
        <ele>227.4</ele>
        <time>2023-01-26T15:53:50Z</time>
      </trkpt>
      <trkpt lat="44.2767" lon="1.65869">
        <ele>227.5</ele>
        <time>2023-01-26T15:53:51Z</time>
      </trkpt>
      <trkpt lat="44.27672" lon="1.65864">
        <ele>227.7</ele>
        <time>2023-01-26T15:53:52Z</time>
      </trkpt>
      <trkpt lat="44.27674" lon="1.6586">
        <ele>227.8</ele>
        <time>2023-01-26T15:53:53Z</time>
      </trkpt>
      <trkpt lat="44.27676" lon="1.65856">
        <ele>227.9</ele>
        <time>2023-01-26T15:53:54Z</time>
      </trkpt>
      <trkpt lat="44.27678" lon="1.65851">
        <ele>228.1</ele>
        <time>2023-01-26T15:53:55Z</time>
      </trkpt>
      <trkpt lat="44.2768" lon="1.65846">
        <ele>228.2</ele>
        <time>2023-01-26T15:53:56Z</time>
      </trkpt>
      <trkpt lat="44.27682" lon="1.65842">
        <ele>228.4</ele>
        <time>2023-01-26T15:53:57Z</time>
      </trkpt>
      <trkpt lat="44.27685" lon="1.65837">
        <ele>228.5</ele>
        <time>2023-01-26T15:53:58Z</time>
      </trkpt>
      <trkpt lat="44.27688" lon="1.65832">
        <ele>228.7</ele>
        <time>2023-01-26T15:53:59Z</time>
      </trkpt>
      <trkpt lat="44.27691" lon="1.65828">
        <ele>228.9</ele>
        <time>2023-01-26T15:54:00Z</time>
      </trkpt>
      <trkpt lat="44.27694" lon="1.65825">
        <ele>229</ele>
        <time>2023-01-26T15:54:01Z</time>
      </trkpt>
      <trkpt lat="44.27697" lon="1.65821">
        <ele>229.2</ele>
        <time>2023-01-26T15:54:02Z</time>
      </trkpt>
      <trkpt lat="44.27702" lon="1.65816">
        <ele>229.4</ele>
        <time>2023-01-26T15:54:03Z</time>
      </trkpt>
      <trkpt lat="44.27704" lon="1.65813">
        <ele>229.5</ele>
        <time>2023-01-26T15:54:04Z</time>
      </trkpt>
      <trkpt lat="44.27707" lon="1.6581">
        <ele>229.7</ele>
        <time>2023-01-26T15:54:05Z</time>
      </trkpt>
      <trkpt lat="44.27711" lon="1.65807">
        <ele>229.8</ele>
        <time>2023-01-26T15:54:06Z</time>
      </trkpt>
      <trkpt lat="44.27714" lon="1.65804">
        <ele>229.9</ele>
        <time>2023-01-26T15:54:07Z</time>
      </trkpt>
      <trkpt lat="44.27718" lon="1.65801">
        <ele>230.1</ele>
        <time>2023-01-26T15:54:08Z</time>
      </trkpt>
      <trkpt lat="44.27722" lon="1.65798">
        <ele>230.3</ele>
        <time>2023-01-26T15:54:09Z</time>
      </trkpt>
      <trkpt lat="44.27725" lon="1.65794">
        <ele>230.4</ele>
        <time>2023-01-26T15:54:10Z</time>
      </trkpt>
      <trkpt lat="44.27728" lon="1.6579">
        <ele>230.6</ele>
        <time>2023-01-26T15:54:11Z</time>
      </trkpt>
      <trkpt lat="44.27731" lon="1.65786">
        <ele>230.7</ele>
        <time>2023-01-26T15:54:12Z</time>
      </trkpt>
      <trkpt lat="44.27734" lon="1.65783">
        <ele>230.9</ele>
        <time>2023-01-26T15:54:13Z</time>
      </trkpt>
      <trkpt lat="44.27736" lon="1.6578">
        <ele>231</ele>
        <time>2023-01-26T15:54:14Z</time>
      </trkpt>
      <trkpt lat="44.27739" lon="1.65776">
        <ele>231.1</ele>
        <time>2023-01-26T15:54:15Z</time>
      </trkpt>
      <trkpt lat="44.27743" lon="1.65773">
        <ele>231.3</ele>
        <time>2023-01-26T15:54:16Z</time>
      </trkpt>
      <trkpt lat="44.27747" lon="1.65769">
        <ele>231.5</ele>
        <time>2023-01-26T15:54:17Z</time>
      </trkpt>
      <trkpt lat="44.27752" lon="1.65763">
        <ele>231.7</ele>
        <time>2023-01-26T15:54:18Z</time>
      </trkpt>
      <trkpt lat="44.27757" lon="1.65757">
        <ele>231.9</ele>
        <time>2023-01-26T15:54:19Z</time>
      </trkpt>
      <trkpt lat="44.27759" lon="1.65754">
        <ele>232.1</ele>
        <time>2023-01-26T15:54:20Z</time>
      </trkpt>
      <trkpt lat="44.27761" lon="1.65751">
        <ele>232.2</ele>
        <time>2023-01-26T15:54:21Z</time>
      </trkpt>
      <trkpt lat="44.27763" lon="1.65747">
        <ele>232.4</ele>
        <time>2023-01-26T15:54:22Z</time>
      </trkpt>
      <trkpt lat="44.27766" lon="1.65744">
        <ele>232.6</ele>
        <time>2023-01-26T15:54:23Z</time>
      </trkpt>
      <trkpt lat="44.27769" lon="1.6574">
        <ele>232.8</ele>
        <time>2023-01-26T15:54:24Z</time>
      </trkpt>
      <trkpt lat="44.27771" lon="1.65736">
        <ele>232.9</ele>
        <time>2023-01-26T15:54:25Z</time>
      </trkpt>
      <trkpt lat="44.27775" lon="1.65731">
        <ele>233.2</ele>
        <time>2023-01-26T15:54:27Z</time>
      </trkpt>
      <trkpt lat="44.27779" lon="1.65727">
        <ele>233.5</ele>
        <time>2023-01-26T15:54:28Z</time>
      </trkpt>
      <trkpt lat="44.27781" lon="1.65724">
        <ele>233.7</ele>
        <time>2023-01-26T15:54:29Z</time>
      </trkpt>
      <trkpt lat="44.27783" lon="1.65722">
        <ele>233.9</ele>
        <time>2023-01-26T15:54:30Z</time>
      </trkpt>
      <trkpt lat="44.27784" lon="1.65721">
        <ele>233.9</ele>
        <time>2023-01-26T15:54:31Z</time>
      </trkpt>
      <trkpt lat="44.27785" lon="1.65721">
        <ele>234</ele>
        <time>2023-01-26T15:54:32Z</time>
      </trkpt>
      <trkpt lat="44.27786" lon="1.65721">
        <ele>234.1</ele>
        <time>2023-01-26T15:54:33Z</time>
      </trkpt>
      <trkpt lat="44.27787" lon="1.6572">
        <ele>234.1</ele>
        <time>2023-01-26T15:54:34Z</time>
      </trkpt>
      <trkpt lat="44.27788" lon="1.65719">
        <ele>234.2</ele>
        <time>2023-01-26T15:54:35Z</time>
      </trkpt>
      <trkpt lat="44.27788" lon="1.65717">
        <ele>234.3</ele>
        <time>2023-01-26T15:54:36Z</time>
      </trkpt>
      <trkpt lat="44.27788" lon="1.65715">
        <ele>234.4</ele>
        <time>2023-01-26T15:54:37Z</time>
      </trkpt>
      <trkpt lat="44.27789" lon="1.65712">
        <ele>234.8</ele>
        <time>2023-01-26T15:54:38Z</time>
      </trkpt>
      <trkpt lat="44.27789" lon="1.65708">
        <ele>234.7</ele>
        <time>2023-01-26T15:54:39Z</time>
      </trkpt>
      <trkpt lat="44.27788" lon="1.65707">
        <ele>234.7</ele>
        <time>2023-01-26T15:54:40Z</time>
      </trkpt>
      <trkpt lat="44.27786" lon="1.65702">
        <ele>234.6</ele>
        <time>2023-01-26T15:54:41Z</time>
      </trkpt>
      <trkpt lat="44.27786" lon="1.65698">
        <ele>234.6</ele>
        <time>2023-01-26T15:54:42Z</time>
      </trkpt>
      <trkpt lat="44.27786" lon="1.65696">
        <ele>234.5</ele>
        <time>2023-01-26T15:54:43Z</time>
      </trkpt>
      <trkpt lat="44.27786" lon="1.65691">
        <ele>234.5</ele>
        <time>2023-01-26T15:54:44Z</time>
      </trkpt>
      <trkpt lat="44.27787" lon="1.65689">
        <ele>234.5</ele>
        <time>2023-01-26T15:54:45Z</time>
      </trkpt>
      <trkpt lat="44.27786" lon="1.65685">
        <ele>234.4</ele>
        <time>2023-01-26T15:54:46Z</time>
      </trkpt>
      <trkpt lat="44.27785" lon="1.65681">
        <ele>234.4</ele>
        <time>2023-01-26T15:54:47Z</time>
      </trkpt>
      <trkpt lat="44.27783" lon="1.65672">
        <ele>234.3</ele>
        <time>2023-01-26T15:54:48Z</time>
      </trkpt>
      <trkpt lat="44.27781" lon="1.65665">
        <ele>234.2</ele>
        <time>2023-01-26T15:54:49Z</time>
      </trkpt>
      <trkpt lat="44.27779" lon="1.6566">
        <ele>234.2</ele>
        <time>2023-01-26T15:54:50Z</time>
      </trkpt>
      <trkpt lat="44.27779" lon="1.65658">
        <ele>234.1</ele>
        <time>2023-01-26T15:54:51Z</time>
      </trkpt>
      <trkpt lat="44.27777" lon="1.65651">
        <ele>234.1</ele>
        <time>2023-01-26T15:54:53Z</time>
      </trkpt>
      <trkpt lat="44.27776" lon="1.65645">
        <ele>234</ele>
        <time>2023-01-26T15:54:54Z</time>
      </trkpt>
      <trkpt lat="44.27774" lon="1.6564">
        <ele>233.9</ele>
        <time>2023-01-26T15:54:55Z</time>
      </trkpt>
      <trkpt lat="44.27772" lon="1.65635">
        <ele>233.9</ele>
        <time>2023-01-26T15:54:56Z</time>
      </trkpt>
      <trkpt lat="44.27771" lon="1.6563">
        <ele>233.8</ele>
        <time>2023-01-26T15:54:57Z</time>
      </trkpt>
      <trkpt lat="44.27769" lon="1.65626">
        <ele>233.8</ele>
        <time>2023-01-26T15:54:58Z</time>
      </trkpt>
      <trkpt lat="44.27768" lon="1.65622">
        <ele>233.8</ele>
        <time>2023-01-26T15:54:59Z</time>
      </trkpt>
      <trkpt lat="44.27766" lon="1.65617">
        <ele>233.7</ele>
        <time>2023-01-26T15:55:00Z</time>
      </trkpt>
      <trkpt lat="44.27762" lon="1.65608">
        <ele>233.7</ele>
        <time>2023-01-26T15:55:01Z</time>
      </trkpt>
      <trkpt lat="44.27759" lon="1.65603">
        <ele>233.7</ele>
        <time>2023-01-26T15:55:02Z</time>
      </trkpt>
      <trkpt lat="44.27757" lon="1.65598">
        <ele>233.8</ele>
        <time>2023-01-26T15:55:03Z</time>
      </trkpt>
      <trkpt lat="44.27755" lon="1.65594">
        <ele>233.8</ele>
        <time>2023-01-26T15:55:04Z</time>
      </trkpt>
      <trkpt lat="44.27753" lon="1.6559">
        <ele>233.8</ele>
        <time>2023-01-26T15:55:05Z</time>
      </trkpt>
      <trkpt lat="44.27749" lon="1.65585">
        <ele>233.9</ele>
        <time>2023-01-26T15:55:06Z</time>
      </trkpt>
      <trkpt lat="44.27747" lon="1.65582">
        <ele>233.9</ele>
        <time>2023-01-26T15:55:07Z</time>
      </trkpt>
      <trkpt lat="44.27746" lon="1.6558">
        <ele>233.9</ele>
        <time>2023-01-26T15:55:08Z</time>
      </trkpt>
      <trkpt lat="44.27744" lon="1.65578">
        <ele>233.9</ele>
        <time>2023-01-26T15:55:09Z</time>
      </trkpt>
      <trkpt lat="44.27742" lon="1.65575">
        <ele>234</ele>
        <time>2023-01-26T15:55:10Z</time>
      </trkpt>
      <trkpt lat="44.27738" lon="1.65568">
        <ele>234.1</ele>
        <time>2023-01-26T15:55:11Z</time>
      </trkpt>
      <trkpt lat="44.27736" lon="1.65563">
        <ele>234.2</ele>
        <time>2023-01-26T15:55:12Z</time>
      </trkpt>
      <trkpt lat="44.27734" lon="1.65557">
        <ele>234.3</ele>
        <time>2023-01-26T15:55:13Z</time>
      </trkpt>
      <trkpt lat="44.27732" lon="1.6555">
        <ele>234.4</ele>
        <time>2023-01-26T15:55:15Z</time>
      </trkpt>
      <trkpt lat="44.2773" lon="1.6554">
        <ele>234.6</ele>
        <time>2023-01-26T15:55:16Z</time>
      </trkpt>
      <trkpt lat="44.27728" lon="1.65536">
        <ele>234.7</ele>
        <time>2023-01-26T15:55:17Z</time>
      </trkpt>
      <trkpt lat="44.27725" lon="1.65531">
        <ele>234.8</ele>
        <time>2023-01-26T15:55:19Z</time>
      </trkpt>
      <trkpt lat="44.27723" lon="1.65527">
        <ele>234.9</ele>
        <time>2023-01-26T15:55:20Z</time>
      </trkpt>
      <trkpt lat="44.27722" lon="1.65522">
        <ele>235</ele>
        <time>2023-01-26T15:55:21Z</time>
      </trkpt>
      <trkpt lat="44.2772" lon="1.65516">
        <ele>235.1</ele>
        <time>2023-01-26T15:55:22Z</time>
      </trkpt>
      <trkpt lat="44.27721" lon="1.65509">
        <ele>235.3</ele>
        <time>2023-01-26T15:55:24Z</time>
      </trkpt>
      <trkpt lat="44.27721" lon="1.65505">
        <ele>235.4</ele>
        <time>2023-01-26T15:55:26Z</time>
      </trkpt>
      <trkpt lat="44.2772" lon="1.65499">
        <ele>235.5</ele>
        <time>2023-01-26T15:55:27Z</time>
      </trkpt>
      <trkpt lat="44.27718" lon="1.65487">
        <ele>235.8</ele>
        <time>2023-01-26T15:55:28Z</time>
      </trkpt>
      <trkpt lat="44.27718" lon="1.65482">
        <ele>236</ele>
        <time>2023-01-26T15:55:29Z</time>
      </trkpt>
      <trkpt lat="44.27717" lon="1.65475">
        <ele>236.1</ele>
        <time>2023-01-26T15:55:31Z</time>
      </trkpt>
      <trkpt lat="44.27718" lon="1.65464">
        <ele>236.3</ele>
        <time>2023-01-26T15:55:32Z</time>
      </trkpt>
      <trkpt lat="44.27718" lon="1.65455">
        <ele>236.4</ele>
        <time>2023-01-26T15:55:33Z</time>
      </trkpt>
      <trkpt lat="44.27717" lon="1.65449">
        <ele>236.5</ele>
        <time>2023-01-26T15:55:34Z</time>
      </trkpt>
      <trkpt lat="44.27716" lon="1.65442">
        <ele>236.5</ele>
        <time>2023-01-26T15:55:35Z</time>
      </trkpt>
      <trkpt lat="44.27715" lon="1.65437">
        <ele>236.6</ele>
        <time>2023-01-26T15:55:37Z</time>
      </trkpt>
      <trkpt lat="44.27714" lon="1.65427">
        <ele>236.6</ele>
        <time>2023-01-26T15:55:38Z</time>
      </trkpt>
      <trkpt lat="44.27713" lon="1.6542">
        <ele>236.6</ele>
        <time>2023-01-26T15:55:39Z</time>
      </trkpt>
      <trkpt lat="44.27713" lon="1.65416">
        <ele>236.6</ele>
        <time>2023-01-26T15:55:40Z</time>
      </trkpt>
      <trkpt lat="44.27711" lon="1.65405">
        <ele>236.5</ele>
        <time>2023-01-26T15:55:42Z</time>
      </trkpt>
      <trkpt lat="44.27711" lon="1.65397">
        <ele>236.5</ele>
        <time>2023-01-26T15:55:43Z</time>
      </trkpt>
      <trkpt lat="44.27712" lon="1.65392">
        <ele>236.4</ele>
        <time>2023-01-26T15:55:44Z</time>
      </trkpt>
      <trkpt lat="44.27711" lon="1.65386">
        <ele>236.4</ele>
        <time>2023-01-26T15:55:45Z</time>
      </trkpt>
      <trkpt lat="44.27711" lon="1.6538">
        <ele>236.4</ele>
        <time>2023-01-26T15:55:46Z</time>
      </trkpt>
      <trkpt lat="44.27711" lon="1.65372">
        <ele>236.3</ele>
        <time>2023-01-26T15:55:48Z</time>
      </trkpt>
      <trkpt lat="44.2771" lon="1.65366">
        <ele>236.2</ele>
        <time>2023-01-26T15:55:49Z</time>
      </trkpt>
      <trkpt lat="44.2771" lon="1.65361">
        <ele>236.1</ele>
        <time>2023-01-26T15:55:50Z</time>
      </trkpt>
      <trkpt lat="44.27709" lon="1.65348">
        <ele>236.1</ele>
        <time>2023-01-26T15:55:51Z</time>
      </trkpt>
      <trkpt lat="44.27707" lon="1.6534">
        <ele>235.9</ele>
        <time>2023-01-26T15:55:53Z</time>
      </trkpt>
      <trkpt lat="44.27707" lon="1.65333">
        <ele>235.9</ele>
        <time>2023-01-26T15:55:54Z</time>
      </trkpt>
      <trkpt lat="44.27706" lon="1.65324">
        <ele>235.6</ele>
        <time>2023-01-26T15:55:55Z</time>
      </trkpt>
      <trkpt lat="44.27706" lon="1.65316">
        <ele>235.6</ele>
        <time>2023-01-26T15:55:56Z</time>
      </trkpt>
      <trkpt lat="44.27707" lon="1.65301">
        <ele>235.3</ele>
        <time>2023-01-26T15:55:57Z</time>
      </trkpt>
      <trkpt lat="44.27707" lon="1.65294">
        <ele>235.3</ele>
        <time>2023-01-26T15:55:59Z</time>
      </trkpt>
      <trkpt lat="44.27707" lon="1.65286">
        <ele>234.9</ele>
        <time>2023-01-26T15:56:00Z</time>
      </trkpt>
      <trkpt lat="44.27708" lon="1.65273">
        <ele>234.5</ele>
        <time>2023-01-26T15:56:01Z</time>
      </trkpt>
      <trkpt lat="44.27709" lon="1.65262">
        <ele>234.5</ele>
        <time>2023-01-26T15:56:03Z</time>
      </trkpt>
      <trkpt lat="44.2771" lon="1.65253">
        <ele>234.1</ele>
        <time>2023-01-26T15:56:04Z</time>
      </trkpt>
      <trkpt lat="44.27711" lon="1.65246">
        <ele>234.1</ele>
        <time>2023-01-26T15:56:05Z</time>
      </trkpt>
      <trkpt lat="44.27713" lon="1.65239">
        <ele>234</ele>
        <time>2023-01-26T15:56:06Z</time>
      </trkpt>
      <trkpt lat="44.27713" lon="1.65232">
        <ele>234</ele>
        <time>2023-01-26T15:56:07Z</time>
      </trkpt>
      <trkpt lat="44.27713" lon="1.65222">
        <ele>234.1</ele>
        <time>2023-01-26T15:56:09Z</time>
      </trkpt>
      <trkpt lat="44.27713" lon="1.65215">
        <ele>234.1</ele>
        <time>2023-01-26T15:56:10Z</time>
      </trkpt>
      <trkpt lat="44.27714" lon="1.65207">
        <ele>234.1</ele>
        <time>2023-01-26T15:56:11Z</time>
      </trkpt>
      <trkpt lat="44.27716" lon="1.65197">
        <ele>234.2</ele>
        <time>2023-01-26T15:56:12Z</time>
      </trkpt>
      <trkpt lat="44.27717" lon="1.65193">
        <ele>234.7</ele>
        <time>2023-01-26T15:56:13Z</time>
      </trkpt>
      <trkpt lat="44.27718" lon="1.65188">
        <ele>234.6</ele>
        <time>2023-01-26T15:56:15Z</time>
      </trkpt>
      <trkpt lat="44.27722" lon="1.65179">
        <ele>234.6</ele>
        <time>2023-01-26T15:56:16Z</time>
      </trkpt>
      <trkpt lat="44.27723" lon="1.65175">
        <ele>234.6</ele>
        <time>2023-01-26T15:56:17Z</time>
      </trkpt>
      <trkpt lat="44.27724" lon="1.6517">
        <ele>234.4</ele>
        <time>2023-01-26T15:56:19Z</time>
      </trkpt>
      <trkpt lat="44.27728" lon="1.65163">
        <ele>234.4</ele>
        <time>2023-01-26T15:56:20Z</time>
      </trkpt>
      <trkpt lat="44.2773" lon="1.65157">
        <ele>234.9</ele>
        <time>2023-01-26T15:56:21Z</time>
      </trkpt>
      <trkpt lat="44.27736" lon="1.65148">
        <ele>234.8</ele>
        <time>2023-01-26T15:56:23Z</time>
      </trkpt>
      <trkpt lat="44.27742" lon="1.65138">
        <ele>235.1</ele>
        <time>2023-01-26T15:56:25Z</time>
      </trkpt>
      <trkpt lat="44.27746" lon="1.65132">
        <ele>235.1</ele>
        <time>2023-01-26T15:56:27Z</time>
      </trkpt>
      <trkpt lat="44.27749" lon="1.65128">
        <ele>235.1</ele>
        <time>2023-01-26T15:56:28Z</time>
      </trkpt>
      <trkpt lat="44.27751" lon="1.6512">
        <ele>234.8</ele>
        <time>2023-01-26T15:56:29Z</time>
      </trkpt>
      <trkpt lat="44.27753" lon="1.65114">
        <ele>234.8</ele>
        <time>2023-01-26T15:56:31Z</time>
      </trkpt>
      <trkpt lat="44.27755" lon="1.65108">
        <ele>235.3</ele>
        <time>2023-01-26T15:56:32Z</time>
      </trkpt>
      <trkpt lat="44.27759" lon="1.65098">
        <ele>235.1</ele>
        <time>2023-01-26T15:56:33Z</time>
      </trkpt>
      <trkpt lat="44.27762" lon="1.65093">
        <ele>235.1</ele>
        <time>2023-01-26T15:56:34Z</time>
      </trkpt>
      <trkpt lat="44.27766" lon="1.65086">
        <ele>235.4</ele>
        <time>2023-01-26T15:56:36Z</time>
      </trkpt>
      <trkpt lat="44.27769" lon="1.6508">
        <ele>235.4</ele>
        <time>2023-01-26T15:56:37Z</time>
      </trkpt>
      <trkpt lat="44.2778" lon="1.65064">
        <ele>235.9</ele>
        <time>2023-01-26T15:56:38Z</time>
      </trkpt>
      <trkpt lat="44.27781" lon="1.6506">
        <ele>235.9</ele>
        <time>2023-01-26T15:56:40Z</time>
      </trkpt>
      <trkpt lat="44.27784" lon="1.65056">
        <ele>235.9</ele>
        <time>2023-01-26T15:56:41Z</time>
      </trkpt>
      <trkpt lat="44.27793" lon="1.6504">
        <ele>236.5</ele>
        <time>2023-01-26T15:56:42Z</time>
      </trkpt>
      <trkpt lat="44.27796" lon="1.65035">
        <ele>236.4</ele>
        <time>2023-01-26T15:56:44Z</time>
      </trkpt>
      <trkpt lat="44.27801" lon="1.65028">
        <ele>236.3</ele>
        <time>2023-01-26T15:56:45Z</time>
      </trkpt>
      <trkpt lat="44.27805" lon="1.65021">
        <ele>237.1</ele>
        <time>2023-01-26T15:56:46Z</time>
      </trkpt>
      <trkpt lat="44.27809" lon="1.65015">
        <ele>237</ele>
        <time>2023-01-26T15:56:47Z</time>
      </trkpt>
      <trkpt lat="44.27812" lon="1.65007">
        <ele>237</ele>
        <time>2023-01-26T15:56:48Z</time>
      </trkpt>
      <trkpt lat="44.27816" lon="1.65001">
        <ele>237.2</ele>
        <time>2023-01-26T15:56:49Z</time>
      </trkpt>
      <trkpt lat="44.27819" lon="1.64995">
        <ele>237.2</ele>
        <time>2023-01-26T15:56:50Z</time>
      </trkpt>
      <trkpt lat="44.27822" lon="1.64989">
        <ele>237.2</ele>
        <time>2023-01-26T15:56:51Z</time>
      </trkpt>
      <trkpt lat="44.27826" lon="1.64982">
        <ele>236.8</ele>
        <time>2023-01-26T15:56:52Z</time>
      </trkpt>
      <trkpt lat="44.27828" lon="1.64977">
        <ele>237.3</ele>
        <time>2023-01-26T15:56:53Z</time>
      </trkpt>
      <trkpt lat="44.27831" lon="1.64967">
        <ele>237.3</ele>
        <time>2023-01-26T15:56:54Z</time>
      </trkpt>
      <trkpt lat="44.27834" lon="1.6496">
        <ele>236.9</ele>
        <time>2023-01-26T15:56:56Z</time>
      </trkpt>
      <trkpt lat="44.27836" lon="1.64956">
        <ele>236.9</ele>
        <time>2023-01-26T15:56:57Z</time>
      </trkpt>
      <trkpt lat="44.27837" lon="1.64954">
        <ele>236.8</ele>
        <time>2023-01-26T15:56:58Z</time>
      </trkpt>
      <trkpt lat="44.27838" lon="1.64949">
        <ele>236.4</ele>
        <time>2023-01-26T15:56:59Z</time>
      </trkpt>
      <trkpt lat="44.27839" lon="1.64944">
        <ele>236.4</ele>
        <time>2023-01-26T15:57:00Z</time>
      </trkpt>
      <trkpt lat="44.27841" lon="1.64939">
        <ele>236.8</ele>
        <time>2023-01-26T15:57:01Z</time>
      </trkpt>
      <trkpt lat="44.27843" lon="1.64934">
        <ele>236.8</ele>
        <time>2023-01-26T15:57:02Z</time>
      </trkpt>
      <trkpt lat="44.27845" lon="1.64929">
        <ele>236.4</ele>
        <time>2023-01-26T15:57:03Z</time>
      </trkpt>
      <trkpt lat="44.27845" lon="1.64925">
        <ele>236.3</ele>
        <time>2023-01-26T15:57:04Z</time>
      </trkpt>
      <trkpt lat="44.27846" lon="1.64921">
        <ele>236.3</ele>
        <time>2023-01-26T15:57:05Z</time>
      </trkpt>
      <trkpt lat="44.27847" lon="1.64917">
        <ele>236.3</ele>
        <time>2023-01-26T15:57:06Z</time>
      </trkpt>
      <trkpt lat="44.27847" lon="1.64913">
        <ele>235.8</ele>
        <time>2023-01-26T15:57:07Z</time>
      </trkpt>
      <trkpt lat="44.2785" lon="1.64909">
        <ele>235.8</ele>
        <time>2023-01-26T15:57:09Z</time>
      </trkpt>
      <trkpt lat="44.27851" lon="1.64907">
        <ele>235.8</ele>
        <time>2023-01-26T15:57:10Z</time>
      </trkpt>
      <trkpt lat="44.27857" lon="1.64907">
        <ele>236.1</ele>
        <time>2023-01-26T15:57:12Z</time>
      </trkpt>
      <trkpt lat="44.27865" lon="1.64906">
        <ele>236.3</ele>
        <time>2023-01-26T15:57:13Z</time>
      </trkpt>
      <trkpt lat="44.27869" lon="1.64906">
        <ele>236.5</ele>
        <time>2023-01-26T15:57:14Z</time>
      </trkpt>
      <trkpt lat="44.27874" lon="1.64905">
        <ele>236.7</ele>
        <time>2023-01-26T15:57:15Z</time>
      </trkpt>
      <trkpt lat="44.27879" lon="1.64904">
        <ele>237</ele>
        <time>2023-01-26T15:57:16Z</time>
      </trkpt>
      <trkpt lat="44.27884" lon="1.64903">
        <ele>237.4</ele>
        <time>2023-01-26T15:57:17Z</time>
      </trkpt>
      <trkpt lat="44.2789" lon="1.64903">
        <ele>237.8</ele>
        <time>2023-01-26T15:57:18Z</time>
      </trkpt>
      <trkpt lat="44.27893" lon="1.64903">
        <ele>238</ele>
        <time>2023-01-26T15:57:19Z</time>
      </trkpt>
      <trkpt lat="44.27897" lon="1.64904">
        <ele>238.3</ele>
        <time>2023-01-26T15:57:20Z</time>
      </trkpt>
      <trkpt lat="44.27902" lon="1.64905">
        <ele>238.8</ele>
        <time>2023-01-26T15:57:21Z</time>
      </trkpt>
      <trkpt lat="44.27906" lon="1.64905">
        <ele>239.2</ele>
        <time>2023-01-26T15:57:22Z</time>
      </trkpt>
      <trkpt lat="44.2791" lon="1.64906">
        <ele>239.7</ele>
        <time>2023-01-26T15:57:23Z</time>
      </trkpt>
      <trkpt lat="44.27914" lon="1.64908">
        <ele>240.1</ele>
        <time>2023-01-26T15:57:24Z</time>
      </trkpt>
      <trkpt lat="44.27924" lon="1.64912">
        <ele>241.3</ele>
        <time>2023-01-26T15:57:25Z</time>
      </trkpt>
      <trkpt lat="44.27928" lon="1.64912">
        <ele>241.6</ele>
        <time>2023-01-26T15:57:27Z</time>
      </trkpt>
      <trkpt lat="44.27932" lon="1.64913">
        <ele>242.1</ele>
        <time>2023-01-26T15:57:28Z</time>
      </trkpt>
      <trkpt lat="44.27937" lon="1.64914">
        <ele>242.5</ele>
        <time>2023-01-26T15:57:29Z</time>
      </trkpt>
      <trkpt lat="44.27941" lon="1.64914">
        <ele>243</ele>
        <time>2023-01-26T15:57:30Z</time>
      </trkpt>
      <trkpt lat="44.27946" lon="1.64915">
        <ele>243.4</ele>
        <time>2023-01-26T15:57:31Z</time>
      </trkpt>
      <trkpt lat="44.27949" lon="1.64917">
        <ele>243.9</ele>
        <time>2023-01-26T15:57:32Z</time>
      </trkpt>
      <trkpt lat="44.27953" lon="1.64918">
        <ele>244.2</ele>
        <time>2023-01-26T15:57:33Z</time>
      </trkpt>
      <trkpt lat="44.27957" lon="1.6492">
        <ele>244.6</ele>
        <time>2023-01-26T15:57:34Z</time>
      </trkpt>
      <trkpt lat="44.2796" lon="1.64921">
        <ele>245</ele>
        <time>2023-01-26T15:57:35Z</time>
      </trkpt>
      <trkpt lat="44.27968" lon="1.64924">
        <ele>245.7</ele>
        <time>2023-01-26T15:57:36Z</time>
      </trkpt>
      <trkpt lat="44.27972" lon="1.64926">
        <ele>246.1</ele>
        <time>2023-01-26T15:57:38Z</time>
      </trkpt>
      <trkpt lat="44.27976" lon="1.64927">
        <ele>246.5</ele>
        <time>2023-01-26T15:57:39Z</time>
      </trkpt>
      <trkpt lat="44.2798" lon="1.64928">
        <ele>246.9</ele>
        <time>2023-01-26T15:57:40Z</time>
      </trkpt>
      <trkpt lat="44.27984" lon="1.64929">
        <ele>247.3</ele>
        <time>2023-01-26T15:57:41Z</time>
      </trkpt>
      <trkpt lat="44.27988" lon="1.64929">
        <ele>247.7</ele>
        <time>2023-01-26T15:57:42Z</time>
      </trkpt>
      <trkpt lat="44.27994" lon="1.6493">
        <ele>248.3</ele>
        <time>2023-01-26T15:57:43Z</time>
      </trkpt>
      <trkpt lat="44.27997" lon="1.6493">
        <ele>248.7</ele>
        <time>2023-01-26T15:57:44Z</time>
      </trkpt>
      <trkpt lat="44.28002" lon="1.64929">
        <ele>249.1</ele>
        <time>2023-01-26T15:57:46Z</time>
      </trkpt>
      <trkpt lat="44.28006" lon="1.64929">
        <ele>249.5</ele>
        <time>2023-01-26T15:57:47Z</time>
      </trkpt>
      <trkpt lat="44.28013" lon="1.64928">
        <ele>250.2</ele>
        <time>2023-01-26T15:57:48Z</time>
      </trkpt>
      <trkpt lat="44.28016" lon="1.64928">
        <ele>250.5</ele>
        <time>2023-01-26T15:57:49Z</time>
      </trkpt>
      <trkpt lat="44.2802" lon="1.64928">
        <ele>250.9</ele>
        <time>2023-01-26T15:57:51Z</time>
      </trkpt>
      <trkpt lat="44.28024" lon="1.64929">
        <ele>251.3</ele>
        <time>2023-01-26T15:57:52Z</time>
      </trkpt>
      <trkpt lat="44.28029" lon="1.64929">
        <ele>251.7</ele>
        <time>2023-01-26T15:57:53Z</time>
      </trkpt>
      <trkpt lat="44.28033" lon="1.64928">
        <ele>252.1</ele>
        <time>2023-01-26T15:57:54Z</time>
      </trkpt>
      <trkpt lat="44.28041" lon="1.64928">
        <ele>252.7</ele>
        <time>2023-01-26T15:57:55Z</time>
      </trkpt>
      <trkpt lat="44.28044" lon="1.64929">
        <ele>253</ele>
        <time>2023-01-26T15:57:56Z</time>
      </trkpt>
      <trkpt lat="44.28049" lon="1.64929">
        <ele>253.4</ele>
        <time>2023-01-26T15:57:58Z</time>
      </trkpt>
      <trkpt lat="44.28055" lon="1.6493">
        <ele>253.7</ele>
        <time>2023-01-26T15:57:59Z</time>
      </trkpt>
      <trkpt lat="44.28059" lon="1.6493">
        <ele>254</ele>
        <time>2023-01-26T15:58:00Z</time>
      </trkpt>
      <trkpt lat="44.28063" lon="1.6493">
        <ele>254.3</ele>
        <time>2023-01-26T15:58:01Z</time>
      </trkpt>
      <trkpt lat="44.28068" lon="1.64929">
        <ele>254.5</ele>
        <time>2023-01-26T15:58:02Z</time>
      </trkpt>
      <trkpt lat="44.28073" lon="1.64929">
        <ele>254.7</ele>
        <time>2023-01-26T15:58:03Z</time>
      </trkpt>
      <trkpt lat="44.28076" lon="1.64929">
        <ele>254.8</ele>
        <time>2023-01-26T15:58:04Z</time>
      </trkpt>
      <trkpt lat="44.28079" lon="1.6493">
        <ele>254.9</ele>
        <time>2023-01-26T15:58:05Z</time>
      </trkpt>
      <trkpt lat="44.28083" lon="1.64932">
        <ele>255</ele>
        <time>2023-01-26T15:58:06Z</time>
      </trkpt>
      <trkpt lat="44.28087" lon="1.64932">
        <ele>255</ele>
        <time>2023-01-26T15:58:07Z</time>
      </trkpt>
      <trkpt lat="44.2809" lon="1.64932">
        <ele>254.9</ele>
        <time>2023-01-26T15:58:08Z</time>
      </trkpt>
      <trkpt lat="44.28094" lon="1.64932">
        <ele>254.9</ele>
        <time>2023-01-26T15:58:09Z</time>
      </trkpt>
      <trkpt lat="44.28098" lon="1.64933">
        <ele>254.8</ele>
        <time>2023-01-26T15:58:10Z</time>
      </trkpt>
      <trkpt lat="44.28103" lon="1.64933">
        <ele>254.7</ele>
        <time>2023-01-26T15:58:11Z</time>
      </trkpt>
      <trkpt lat="44.28108" lon="1.64934">
        <ele>254.7</ele>
        <time>2023-01-26T15:58:12Z</time>
      </trkpt>
      <trkpt lat="44.28113" lon="1.64934">
        <ele>254.6</ele>
        <time>2023-01-26T15:58:13Z</time>
      </trkpt>
      <trkpt lat="44.28119" lon="1.64935">
        <ele>254.5</ele>
        <time>2023-01-26T15:58:14Z</time>
      </trkpt>
      <trkpt lat="44.28124" lon="1.64937">
        <ele>254.4</ele>
        <time>2023-01-26T15:58:15Z</time>
      </trkpt>
      <trkpt lat="44.28131" lon="1.64938">
        <ele>254.1</ele>
        <time>2023-01-26T15:58:16Z</time>
      </trkpt>
      <trkpt lat="44.28136" lon="1.64938">
        <ele>253.9</ele>
        <time>2023-01-26T15:58:17Z</time>
      </trkpt>
      <trkpt lat="44.2814" lon="1.64938">
        <ele>253.8</ele>
        <time>2023-01-26T15:58:18Z</time>
      </trkpt>
      <trkpt lat="44.28144" lon="1.64937">
        <ele>253.7</ele>
        <time>2023-01-26T15:58:19Z</time>
      </trkpt>
      <trkpt lat="44.28151" lon="1.64935">
        <ele>253.6</ele>
        <time>2023-01-26T15:58:20Z</time>
      </trkpt>
      <trkpt lat="44.28156" lon="1.64934">
        <ele>253.5</ele>
        <time>2023-01-26T15:58:22Z</time>
      </trkpt>
      <trkpt lat="44.28166" lon="1.64934">
        <ele>253.4</ele>
        <time>2023-01-26T15:58:23Z</time>
      </trkpt>
      <trkpt lat="44.28175" lon="1.64933">
        <ele>253.2</ele>
        <time>2023-01-26T15:58:25Z</time>
      </trkpt>
      <trkpt lat="44.2818" lon="1.64933">
        <ele>253.1</ele>
        <time>2023-01-26T15:58:26Z</time>
      </trkpt>
      <trkpt lat="44.28185" lon="1.64932">
        <ele>253</ele>
        <time>2023-01-26T15:58:27Z</time>
      </trkpt>
      <trkpt lat="44.28191" lon="1.64932">
        <ele>252.8</ele>
        <time>2023-01-26T15:58:28Z</time>
      </trkpt>
      <trkpt lat="44.28196" lon="1.64934">
        <ele>252.7</ele>
        <time>2023-01-26T15:58:30Z</time>
      </trkpt>
      <trkpt lat="44.28204" lon="1.64939">
        <ele>252.4</ele>
        <time>2023-01-26T15:58:31Z</time>
      </trkpt>
      <trkpt lat="44.28208" lon="1.64942">
        <ele>252.2</ele>
        <time>2023-01-26T15:58:33Z</time>
      </trkpt>
      <trkpt lat="44.28215" lon="1.64949">
        <ele>252.1</ele>
        <time>2023-01-26T15:58:34Z</time>
      </trkpt>
      <trkpt lat="44.28218" lon="1.64952">
        <ele>252.1</ele>
        <time>2023-01-26T15:58:35Z</time>
      </trkpt>
      <trkpt lat="44.28223" lon="1.64957">
        <ele>252.1</ele>
        <time>2023-01-26T15:58:37Z</time>
      </trkpt>
      <trkpt lat="44.28227" lon="1.64961">
        <ele>252.2</ele>
        <time>2023-01-26T15:58:38Z</time>
      </trkpt>
      <trkpt lat="44.28235" lon="1.64968">
        <ele>252.3</ele>
        <time>2023-01-26T15:58:39Z</time>
      </trkpt>
      <trkpt lat="44.28239" lon="1.64971">
        <ele>252.3</ele>
        <time>2023-01-26T15:58:40Z</time>
      </trkpt>
      <trkpt lat="44.28248" lon="1.64977">
        <ele>252.4</ele>
        <time>2023-01-26T15:58:42Z</time>
      </trkpt>
      <trkpt lat="44.28252" lon="1.6498">
        <ele>252.4</ele>
        <time>2023-01-26T15:58:43Z</time>
      </trkpt>
      <trkpt lat="44.28259" lon="1.64985">
        <ele>252.5</ele>
        <time>2023-01-26T15:58:45Z</time>
      </trkpt>
      <trkpt lat="44.28265" lon="1.64988">
        <ele>252.5</ele>
        <time>2023-01-26T15:58:46Z</time>
      </trkpt>
      <trkpt lat="44.28269" lon="1.64991">
        <ele>252.6</ele>
        <time>2023-01-26T15:58:47Z</time>
      </trkpt>
      <trkpt lat="44.28274" lon="1.64995">
        <ele>252.6</ele>
        <time>2023-01-26T15:58:48Z</time>
      </trkpt>
      <trkpt lat="44.28278" lon="1.64998">
        <ele>252.7</ele>
        <time>2023-01-26T15:58:49Z</time>
      </trkpt>
      <trkpt lat="44.28283" lon="1.65002">
        <ele>252.7</ele>
        <time>2023-01-26T15:58:50Z</time>
      </trkpt>
      <trkpt lat="44.28288" lon="1.65005">
        <ele>252.9</ele>
        <time>2023-01-26T15:58:51Z</time>
      </trkpt>
      <trkpt lat="44.28293" lon="1.65008">
        <ele>252.9</ele>
        <time>2023-01-26T15:58:52Z</time>
      </trkpt>
      <trkpt lat="44.28298" lon="1.65012">
        <ele>252.8</ele>
        <time>2023-01-26T15:58:53Z</time>
      </trkpt>
      <trkpt lat="44.28302" lon="1.65015">
        <ele>252.7</ele>
        <time>2023-01-26T15:58:54Z</time>
      </trkpt>
      <trkpt lat="44.28307" lon="1.6502">
        <ele>252.6</ele>
        <time>2023-01-26T15:58:55Z</time>
      </trkpt>
      <trkpt lat="44.28311" lon="1.65024">
        <ele>252.6</ele>
        <time>2023-01-26T15:58:56Z</time>
      </trkpt>
      <trkpt lat="44.28315" lon="1.6503">
        <ele>252.6</ele>
        <time>2023-01-26T15:58:57Z</time>
      </trkpt>
      <trkpt lat="44.28319" lon="1.65035">
        <ele>252.7</ele>
        <time>2023-01-26T15:58:58Z</time>
      </trkpt>
      <trkpt lat="44.28321" lon="1.65039">
        <ele>252.7</ele>
        <time>2023-01-26T15:58:59Z</time>
      </trkpt>
      <trkpt lat="44.28327" lon="1.65045">
        <ele>252.8</ele>
        <time>2023-01-26T15:59:00Z</time>
      </trkpt>
      <trkpt lat="44.28331" lon="1.6505">
        <ele>252.8</ele>
        <time>2023-01-26T15:59:02Z</time>
      </trkpt>
      <trkpt lat="44.28338" lon="1.65059">
        <ele>252.8</ele>
        <time>2023-01-26T15:59:03Z</time>
      </trkpt>
      <trkpt lat="44.28342" lon="1.65064">
        <ele>252.7</ele>
        <time>2023-01-26T15:59:05Z</time>
      </trkpt>
      <trkpt lat="44.28351" lon="1.65071">
        <ele>252.8</ele>
        <time>2023-01-26T15:59:06Z</time>
      </trkpt>
      <trkpt lat="44.28355" lon="1.65073">
        <ele>252.8</ele>
        <time>2023-01-26T15:59:07Z</time>
      </trkpt>
      <trkpt lat="44.28366" lon="1.6508">
        <ele>253</ele>
        <time>2023-01-26T15:59:09Z</time>
      </trkpt>
      <trkpt lat="44.28369" lon="1.65083">
        <ele>253.1</ele>
        <time>2023-01-26T15:59:11Z</time>
      </trkpt>
      <trkpt lat="44.28372" lon="1.65086">
        <ele>253.2</ele>
        <time>2023-01-26T15:59:12Z</time>
      </trkpt>
      <trkpt lat="44.28379" lon="1.65093">
        <ele>253.4</ele>
        <time>2023-01-26T15:59:13Z</time>
      </trkpt>
      <trkpt lat="44.28383" lon="1.65097">
        <ele>253.5</ele>
        <time>2023-01-26T15:59:15Z</time>
      </trkpt>
      <trkpt lat="44.28389" lon="1.651">
        <ele>253.6</ele>
        <time>2023-01-26T15:59:16Z</time>
      </trkpt>
      <trkpt lat="44.28393" lon="1.65103">
        <ele>253.8</ele>
        <time>2023-01-26T15:59:17Z</time>
      </trkpt>
      <trkpt lat="44.28399" lon="1.65107">
        <ele>254</ele>
        <time>2023-01-26T15:59:18Z</time>
      </trkpt>
      <trkpt lat="44.28404" lon="1.65111">
        <ele>254.3</ele>
        <time>2023-01-26T15:59:19Z</time>
      </trkpt>
      <trkpt lat="44.28412" lon="1.65117">
        <ele>254.7</ele>
        <time>2023-01-26T15:59:20Z</time>
      </trkpt>
      <trkpt lat="44.28418" lon="1.6512">
        <ele>255.1</ele>
        <time>2023-01-26T15:59:21Z</time>
      </trkpt>
      <trkpt lat="44.28423" lon="1.65123">
        <ele>255.4</ele>
        <time>2023-01-26T15:59:22Z</time>
      </trkpt>
      <trkpt lat="44.28428" lon="1.65127">
        <ele>255.6</ele>
        <time>2023-01-26T15:59:23Z</time>
      </trkpt>
      <trkpt lat="44.28432" lon="1.65128">
        <ele>255.8</ele>
        <time>2023-01-26T15:59:24Z</time>
      </trkpt>
      <trkpt lat="44.28438" lon="1.65131">
        <ele>256.1</ele>
        <time>2023-01-26T15:59:25Z</time>
      </trkpt>
      <trkpt lat="44.28446" lon="1.65136">
        <ele>256.5</ele>
        <time>2023-01-26T15:59:26Z</time>
      </trkpt>
      <trkpt lat="44.2845" lon="1.65139">
        <ele>256.7</ele>
        <time>2023-01-26T15:59:27Z</time>
      </trkpt>
      <trkpt lat="44.28455" lon="1.65144">
        <ele>256.9</ele>
        <time>2023-01-26T15:59:28Z</time>
      </trkpt>
      <trkpt lat="44.28459" lon="1.65147">
        <ele>257</ele>
        <time>2023-01-26T15:59:29Z</time>
      </trkpt>
      <trkpt lat="44.28464" lon="1.65154">
        <ele>257</ele>
        <time>2023-01-26T15:59:31Z</time>
      </trkpt>
      <trkpt lat="44.2847" lon="1.65163">
        <ele>257</ele>
        <time>2023-01-26T15:59:32Z</time>
      </trkpt>
      <trkpt lat="44.28475" lon="1.65169">
        <ele>257.1</ele>
        <time>2023-01-26T15:59:34Z</time>
      </trkpt>
      <trkpt lat="44.28484" lon="1.65176">
        <ele>257.6</ele>
        <time>2023-01-26T15:59:35Z</time>
      </trkpt>
      <trkpt lat="44.28488" lon="1.65177">
        <ele>257.9</ele>
        <time>2023-01-26T15:59:36Z</time>
      </trkpt>
      <trkpt lat="44.28494" lon="1.65179">
        <ele>258.3</ele>
        <time>2023-01-26T15:59:38Z</time>
      </trkpt>
      <trkpt lat="44.28504" lon="1.65187">
        <ele>258.9</ele>
        <time>2023-01-26T15:59:39Z</time>
      </trkpt>
      <trkpt lat="44.2851" lon="1.65192">
        <ele>259.2</ele>
        <time>2023-01-26T15:59:41Z</time>
      </trkpt>
      <trkpt lat="44.28517" lon="1.65195">
        <ele>259.4</ele>
        <time>2023-01-26T15:59:42Z</time>
      </trkpt>
      <trkpt lat="44.28522" lon="1.65198">
        <ele>259.5</ele>
        <time>2023-01-26T15:59:43Z</time>
      </trkpt>
      <trkpt lat="44.28527" lon="1.65201">
        <ele>259.6</ele>
        <time>2023-01-26T15:59:44Z</time>
      </trkpt>
      <trkpt lat="44.28531" lon="1.65204">
        <ele>259.8</ele>
        <time>2023-01-26T15:59:45Z</time>
      </trkpt>
      <trkpt lat="44.28534" lon="1.65207">
        <ele>260</ele>
        <time>2023-01-26T15:59:46Z</time>
      </trkpt>
      <trkpt lat="44.28538" lon="1.65211">
        <ele>260.2</ele>
        <time>2023-01-26T15:59:47Z</time>
      </trkpt>
      <trkpt lat="44.28542" lon="1.65214">
        <ele>260.5</ele>
        <time>2023-01-26T15:59:48Z</time>
      </trkpt>
      <trkpt lat="44.28549" lon="1.65216">
        <ele>260.8</ele>
        <time>2023-01-26T15:59:49Z</time>
      </trkpt>
      <trkpt lat="44.28553" lon="1.65216">
        <ele>261</ele>
        <time>2023-01-26T15:59:50Z</time>
      </trkpt>
      <trkpt lat="44.28556" lon="1.65216">
        <ele>261.1</ele>
        <time>2023-01-26T15:59:51Z</time>
      </trkpt>
      <trkpt lat="44.2856" lon="1.65216">
        <ele>261.2</ele>
        <time>2023-01-26T15:59:53Z</time>
      </trkpt>
      <trkpt lat="44.28564" lon="1.65216">
        <ele>261.4</ele>
        <time>2023-01-26T15:59:54Z</time>
      </trkpt>
      <trkpt lat="44.28572" lon="1.65217">
        <ele>261.7</ele>
        <time>2023-01-26T15:59:55Z</time>
      </trkpt>
      <trkpt lat="44.28577" lon="1.65217">
        <ele>261.8</ele>
        <time>2023-01-26T15:59:57Z</time>
      </trkpt>
      <trkpt lat="44.28585" lon="1.65216">
        <ele>262.1</ele>
        <time>2023-01-26T15:59:58Z</time>
      </trkpt>
      <trkpt lat="44.28589" lon="1.65215">
        <ele>262.2</ele>
        <time>2023-01-26T16:00:00Z</time>
      </trkpt>
      <trkpt lat="44.28636" lon="1.65208">
        <ele>255.5</ele>
      </trkpt>
      <trkpt lat="44.28692" lon="1.65195">
        <ele>256</ele>
      </trkpt>
      <trkpt lat="44.28688" lon="1.65185">
        <ele>256.6</ele>
      </trkpt>
      <trkpt lat="44.28722" lon="1.65184">
        <ele>255.8</ele>
      </trkpt>
      <trkpt lat="44.28775" lon="1.65178">
        <ele>255.2</ele>
      </trkpt>
      <trkpt lat="44.28819" lon="1.65169">
        <ele>254.9</ele>
      </trkpt>
      <trkpt lat="44.28873" lon="1.65141">
        <ele>254.6</ele>
      </trkpt>
      <trkpt lat="44.28902" lon="1.65118">
        <ele>252.5</ele>
      </trkpt>
      <trkpt lat="44.28919" lon="1.65092">
        <ele>251.4</ele>
      </trkpt>
      <trkpt lat="44.28936" lon="1.65087">
        <ele>249.9</ele>
      </trkpt>
      <trkpt lat="44.28952" lon="1.65083">
        <ele>250.3</ele>
      </trkpt>
      <trkpt lat="44.28981" lon="1.65124">
        <ele>256.3</ele>
      </trkpt>
      <trkpt lat="44.29009" lon="1.65133">
        <ele>260.4</ele>
      </trkpt>
      <trkpt lat="44.29036" lon="1.65152">
        <ele>262.9</ele>
      </trkpt>
      <trkpt lat="44.29063" lon="1.65146">
        <ele>264.2</ele>
      </trkpt>
      <trkpt lat="44.29085" lon="1.65079">
        <ele>265</ele>
      </trkpt>
      <trkpt lat="44.29325" lon="1.64477">
        <ele>281.9</ele>
      </trkpt>
      <trkpt lat="44.29429" lon="1.64227">
        <ele>284</ele>
      </trkpt>
      <trkpt lat="44.2941" lon="1.63982">
        <ele>293.5</ele>
      </trkpt>
      <trkpt lat="44.29397" lon="1.63853">
        <ele>294.7</ele>
        <extensions>
          <visugpx:TrkExtension xmlns:visugpx="https://www.visugpx.com/editgpx/">
            <visugpx:node>1</visugpx:node>
            </visugpx:TrkExtension>
        </extensions>
      </trkpt>
      <trkpt lat="44.29386" lon="1.63745">
        <ele>297.1</ele>
      </trkpt>
      <trkpt lat="44.29502" lon="1.63776">
        <ele>289</ele>
      </trkpt>
      <trkpt lat="44.29638" lon="1.63778">
        <ele>282.2</ele>
      </trkpt>
      <trkpt lat="44.29659" lon="1.63772">
        <ele>279.9</ele>
      </trkpt>
      <trkpt lat="44.29688" lon="1.63761">
        <ele>278.7</ele>
      </trkpt>
      <trkpt lat="44.29704" lon="1.63765">
        <ele>278.8</ele>
      </trkpt>
      <trkpt lat="44.29799" lon="1.6386">
        <ele>283.8</ele>
      </trkpt>
      <trkpt lat="44.29886" lon="1.63894">
        <ele>284.6</ele>
      </trkpt>
      <trkpt lat="44.2997" lon="1.63945">
        <ele>279</ele>
        <extensions>
          <visugpx:TrkExtension xmlns:visugpx="https://www.visugpx.com/editgpx/">
            <visugpx:node>2</visugpx:node>
            </visugpx:TrkExtension>
        </extensions>
      </trkpt>
      <trkpt lat="44.30086" lon="1.63391">
        <ele>295.9</ele>
        <extensions>
          <visugpx:TrkExtension xmlns:visugpx="https://www.visugpx.com/editgpx/">
            <visugpx:node>3</visugpx:node>
            </visugpx:TrkExtension>
        </extensions>
      </trkpt>
      <trkpt lat="44.30165" lon="1.6339">
        <ele>296</ele>
        <extensions>
          <visugpx:TrkExtension xmlns:visugpx="https://www.visugpx.com/editgpx/">
            <visugpx:node>4</visugpx:node>
            </visugpx:TrkExtension>
        </extensions>
      </trkpt>
      <trkpt lat="44.302" lon="1.63393">
        <ele>295.9</ele>
      </trkpt>
      <trkpt lat="44.30219" lon="1.63401">
        <ele>295.6</ele>
      </trkpt>
      <trkpt lat="44.30236" lon="1.63402">
        <ele>295.8</ele>
      </trkpt>
      <trkpt lat="44.30264" lon="1.63402">
        <ele>295.5</ele>
      </trkpt>
      <trkpt lat="44.30285" lon="1.63403">
        <ele>294.7</ele>
      </trkpt>
      <trkpt lat="44.30314" lon="1.63408">
        <ele>293.6</ele>
      </trkpt>
      <trkpt lat="44.3035" lon="1.63414">
        <ele>291.8</ele>
      </trkpt>
      <trkpt lat="44.30372" lon="1.63416">
        <ele>290.2</ele>
      </trkpt>
      <trkpt lat="44.30392" lon="1.63415">
        <ele>288.8</ele>
      </trkpt>
      <trkpt lat="44.30403" lon="1.63413">
        <ele>288</ele>
      </trkpt>
      <trkpt lat="44.30414" lon="1.6341">
        <ele>287.2</ele>
      </trkpt>
      <trkpt lat="44.30421" lon="1.63411">
        <ele>286.4</ele>
      </trkpt>
      <trkpt lat="44.30457" lon="1.63412">
        <ele>280.8</ele>
      </trkpt>
      <trkpt lat="44.30463" lon="1.63418">
        <ele>279.7</ele>
      </trkpt>
      <trkpt lat="44.30466" lon="1.63436">
        <ele>279.1</ele>
      </trkpt>
      <trkpt lat="44.30472" lon="1.63454">
        <ele>277.7</ele>
      </trkpt>
      <trkpt lat="44.30486" lon="1.63459">
        <ele>273.5</ele>
      </trkpt>
      <trkpt lat="44.30498" lon="1.63462">
        <ele>269.9</ele>
      </trkpt>
      <trkpt lat="44.30517" lon="1.63456">
        <ele>267.1</ele>
      </trkpt>
      <trkpt lat="44.30536" lon="1.63459">
        <ele>266.5</ele>
      </trkpt>
      <trkpt lat="44.30544" lon="1.63466">
        <ele>267.8</ele>
      </trkpt>
      <trkpt lat="44.30542" lon="1.63472">
        <ele>267.6</ele>
      </trkpt>
      <trkpt lat="44.30535" lon="1.63494">
        <ele>266.5</ele>
      </trkpt>
      <trkpt lat="44.30526" lon="1.63518">
        <ele>265.6</ele>
      </trkpt>
      <trkpt lat="44.30524" lon="1.63522">
        <ele>265.7</ele>
        <extensions>
          <visugpx:TrkExtension xmlns:visugpx="https://www.visugpx.com/editgpx/">
            <visugpx:node>5</visugpx:node>
            </visugpx:TrkExtension>
        </extensions>
      </trkpt>
      <trkpt lat="44.30571" lon="1.63527">
        <ele>275.7</ele>
        <extensions>
          <visugpx:TrkExtension xmlns:visugpx="https://www.visugpx.com/editgpx/">
            <visugpx:node>6</visugpx:node>
            </visugpx:TrkExtension>
        </extensions>
      </trkpt>
      <trkpt lat="44.30616" lon="1.63538">
        <ele>285.1</ele>
        <extensions>
          <visugpx:TrkExtension xmlns:visugpx="https://www.visugpx.com/editgpx/">
            <visugpx:node>7</visugpx:node>
            </visugpx:TrkExtension>
        </extensions>
      </trkpt>
      <trkpt lat="44.30676" lon="1.63542">
        <ele>291.6</ele>
        <extensions>
          <visugpx:TrkExtension xmlns:visugpx="https://www.visugpx.com/editgpx/">
            <visugpx:node>8</visugpx:node>
            </visugpx:TrkExtension>
        </extensions>
      </trkpt>
      <trkpt lat="44.30719" lon="1.63622">
        <ele>295.9</ele>
        <extensions>
          <visugpx:TrkExtension xmlns:visugpx="https://www.visugpx.com/editgpx/">
            <visugpx:node>9</visugpx:node>
            </visugpx:TrkExtension>
        </extensions>
      </trkpt>
      <trkpt lat="44.30777" lon="1.63606">
        <ele>296.8</ele>
        <extensions>
          <visugpx:TrkExtension xmlns:visugpx="https://www.visugpx.com/editgpx/">
            <visugpx:node>10</visugpx:node>
            </visugpx:TrkExtension>
        </extensions>
      </trkpt>
      <trkpt lat="44.3083" lon="1.63591">
        <ele>296.9</ele>
        <extensions>
          <visugpx:TrkExtension xmlns:visugpx="https://www.visugpx.com/editgpx/">
            <visugpx:node>11</visugpx:node>
            </visugpx:TrkExtension>
        </extensions>
      </trkpt>
      <trkpt lat="44.30834" lon="1.63568">
        <ele>297</ele>
        <extensions>
          <visugpx:TrkExtension xmlns:visugpx="https://www.visugpx.com/editgpx/">
            <visugpx:node>12</visugpx:node>
            </visugpx:TrkExtension>
        </extensions>
      </trkpt>
      <trkpt lat="44.30837" lon="1.63553">
        <ele>297</ele>
        <extensions>
          <visugpx:TrkExtension xmlns:visugpx="https://www.visugpx.com/editgpx/">
            <visugpx:node>13</visugpx:node>
            </visugpx:TrkExtension>
        </extensions>
      </trkpt>
      <trkpt lat="44.30837" lon="1.63536">
        <ele>297</ele>
      </trkpt>
      <trkpt lat="44.30864" lon="1.63444">
        <ele>297.1</ele>
      </trkpt>
      <trkpt lat="44.30876" lon="1.63388">
        <ele>296.5</ele>
      </trkpt>
      <trkpt lat="44.30887" lon="1.63288">
        <ele>294.3</ele>
      </trkpt>
      <trkpt lat="44.30897" lon="1.63238">
        <ele>293.7</ele>
      </trkpt>
      <trkpt lat="44.30992" lon="1.63013">
        <ele>292.7</ele>
      </trkpt>
      <trkpt lat="44.31031" lon="1.62902">
        <ele>296.1</ele>
      </trkpt>
      <trkpt lat="44.31036" lon="1.62886">
        <ele>296.4</ele>
      </trkpt>
      <trkpt lat="44.3104" lon="1.6287">
        <ele>297.1</ele>
      </trkpt>
      <trkpt lat="44.31041" lon="1.62859">
        <ele>297.4</ele>
      </trkpt>
      <trkpt lat="44.31046" lon="1.62762">
        <ele>299.3</ele>
      </trkpt>
      <trkpt lat="44.3105" lon="1.62712">
        <ele>300.7</ele>
      </trkpt>
      <trkpt lat="44.31056" lon="1.62677">
        <ele>301</ele>
      </trkpt>
      <trkpt lat="44.31069" lon="1.62615">
        <ele>304.8</ele>
      </trkpt>
      <trkpt lat="44.31083" lon="1.62566">
        <ele>307.9</ele>
      </trkpt>
      <trkpt lat="44.31099" lon="1.62509">
        <ele>309.8</ele>
      </trkpt>
      <trkpt lat="44.31111" lon="1.62475">
        <ele>309.2</ele>
      </trkpt>
      <trkpt lat="44.3113" lon="1.6243">
        <ele>309.2</ele>
      </trkpt>
      <trkpt lat="44.31142" lon="1.62395">
        <ele>309.2</ele>
      </trkpt>
      <trkpt lat="44.31145" lon="1.62381">
        <ele>308.8</ele>
      </trkpt>
      <trkpt lat="44.31146" lon="1.62378">
        <ele>308.7</ele>
      </trkpt>
      <trkpt lat="44.31149" lon="1.62357">
        <ele>308.4</ele>
      </trkpt>
      <trkpt lat="44.31151" lon="1.62346">
        <ele>308.4</ele>
      </trkpt>
      <trkpt lat="44.31154" lon="1.62287">
        <ele>309</ele>
      </trkpt>
      <trkpt lat="44.31155" lon="1.62194">
        <ele>309.5</ele>
      </trkpt>
      <trkpt lat="44.31164" lon="1.62134">
        <ele>308.8</ele>
      </trkpt>
      <trkpt lat="44.31171" lon="1.62063">
        <ele>308.8</ele>
      </trkpt>
      <trkpt lat="44.31175" lon="1.61982">
        <ele>309</ele>
      </trkpt>
      <trkpt lat="44.31173" lon="1.61932">
        <ele>309</ele>
      </trkpt>
      <trkpt lat="44.31168" lon="1.61903">
        <ele>309</ele>
      </trkpt>
      <trkpt lat="44.31161" lon="1.61862">
        <ele>309</ele>
      </trkpt>
      <trkpt lat="44.31156" lon="1.61833">
        <ele>309</ele>
      </trkpt>
      <trkpt lat="44.31151" lon="1.61805">
        <ele>308.5</ele>
      </trkpt>
      <trkpt lat="44.31143" lon="1.61769">
        <ele>307.8</ele>
      </trkpt>
      <trkpt lat="44.3114" lon="1.61751">
        <ele>307.9</ele>
      </trkpt>
      <trkpt lat="44.31138" lon="1.61731">
        <ele>307.3</ele>
      </trkpt>
      <trkpt lat="44.31138" lon="1.61699">
        <ele>307</ele>
      </trkpt>
      <trkpt lat="44.31139" lon="1.61678">
        <ele>307.6</ele>
      </trkpt>
      <trkpt lat="44.31142" lon="1.61624">
        <ele>307.9</ele>
      </trkpt>
      <trkpt lat="44.31143" lon="1.61524">
        <ele>307.9</ele>
      </trkpt>
      <trkpt lat="44.31145" lon="1.61495">
        <ele>307.9</ele>
      </trkpt>
      <trkpt lat="44.31147" lon="1.61477">
        <ele>308.3</ele>
      </trkpt>
      <trkpt lat="44.31163" lon="1.61427">
        <ele>308.1</ele>
      </trkpt>
      <trkpt lat="44.3117" lon="1.61412">
        <ele>308</ele>
      </trkpt>
      <trkpt lat="44.31172" lon="1.61405">
        <ele>307.9</ele>
      </trkpt>
      <trkpt lat="44.31174" lon="1.61395">
        <ele>307.8</ele>
      </trkpt>
      <trkpt lat="44.31183" lon="1.61391">
        <ele>307.5</ele>
      </trkpt>
      <trkpt lat="44.3121" lon="1.61382">
        <ele>306.4</ele>
      </trkpt>
      <trkpt lat="44.31227" lon="1.61375">
        <ele>306</ele>
      </trkpt>
      <trkpt lat="44.31259" lon="1.61354">
        <ele>305.3</ele>
      </trkpt>
      <trkpt lat="44.31285" lon="1.61332">
        <ele>304.7</ele>
      </trkpt>
      <trkpt lat="44.31338" lon="1.61277">
        <ele>304.8</ele>
      </trkpt>
      <trkpt lat="44.31361" lon="1.61255">
        <ele>304.8</ele>
      </trkpt>
      <trkpt lat="44.31422" lon="1.61184">
        <ele>305.2</ele>
      </trkpt>
      <trkpt lat="44.31454" lon="1.61153">
        <ele>304.8</ele>
      </trkpt>
      <trkpt lat="44.31544" lon="1.61083">
        <ele>305.6</ele>
      </trkpt>
      <trkpt lat="44.31573" lon="1.61062">
        <ele>306.5</ele>
      </trkpt>
      <trkpt lat="44.31593" lon="1.61041">
        <ele>306.8</ele>
      </trkpt>
      <trkpt lat="44.31615" lon="1.61016">
        <ele>307.3</ele>
      </trkpt>
      <trkpt lat="44.31626" lon="1.60999">
        <ele>307</ele>
      </trkpt>
      <trkpt lat="44.31686" lon="1.60898">
        <ele>306.3</ele>
      </trkpt>
      <trkpt lat="44.31716" lon="1.60854">
        <ele>305.7</ele>
      </trkpt>
      <trkpt lat="44.31758" lon="1.60803">
        <ele>304.2</ele>
        <extensions>
          <visugpx:TrkExtension xmlns:visugpx="https://www.visugpx.com/editgpx/">
            <visugpx:node>14</visugpx:node>
            </visugpx:TrkExtension>
        </extensions>
      </trkpt>
      <trkpt lat="44.31943" lon="1.60609">
        <ele>300.1</ele>
        <extensions>
          <visugpx:TrkExtension xmlns:visugpx="https://www.visugpx.com/editgpx/">
            <visugpx:node>15</visugpx:node>
            </visugpx:TrkExtension>
        </extensions>
      </trkpt>
      <trkpt lat="44.31944" lon="1.60587">
        <ele>300.9</ele>
      </trkpt>
      <trkpt lat="44.31941" lon="1.60559">
        <ele>301.2</ele>
      </trkpt>
      <trkpt lat="44.31938" lon="1.60543">
        <ele>301.7</ele>
      </trkpt>
      <trkpt lat="44.31937" lon="1.60533">
        <ele>301.9</ele>
      </trkpt>
      <trkpt lat="44.31939" lon="1.60522">
        <ele>301.5</ele>
      </trkpt>
      <trkpt lat="44.31947" lon="1.60505">
        <ele>300.3</ele>
      </trkpt>
      <trkpt lat="44.31959" lon="1.60478">
        <ele>299.2</ele>
      </trkpt>
      <trkpt lat="44.31963" lon="1.60462">
        <ele>299.2</ele>
      </trkpt>
      <trkpt lat="44.31983" lon="1.60401">
        <ele>299.2</ele>
      </trkpt>
      <trkpt lat="44.32003" lon="1.60357">
        <ele>299.7</ele>
      </trkpt>
      <trkpt lat="44.32042" lon="1.6031">
        <ele>299.5</ele>
      </trkpt>
      <trkpt lat="44.3209" lon="1.6023">
        <ele>299.2</ele>
      </trkpt>
      <trkpt lat="44.32114" lon="1.60197">
        <ele>298.9</ele>
      </trkpt>
      <trkpt lat="44.32184" lon="1.60097">
        <ele>299.5</ele>
      </trkpt>
      <trkpt lat="44.32213" lon="1.6007">
        <ele>299.2</ele>
      </trkpt>
      <trkpt lat="44.32274" lon="1.60002">
        <ele>299.7</ele>
      </trkpt>
      <trkpt lat="44.32288" lon="1.59984">
        <ele>300</ele>
      </trkpt>
      <trkpt lat="44.3231" lon="1.59954">
        <ele>300.6</ele>
        <time>2021-12-15T09:53:17Z</time>
      </trkpt>
      <trkpt lat="44.32318" lon="1.59944">
        <ele>300.9</ele>
        <time>2021-12-15T09:53:19Z</time>
      </trkpt>
      <trkpt lat="44.32326" lon="1.59933">
        <ele>301</ele>
        <time>2021-12-15T09:53:21Z</time>
      </trkpt>
      <trkpt lat="44.32333" lon="1.59922">
        <ele>301.2</ele>
        <time>2021-12-15T09:53:23Z</time>
      </trkpt>
      <trkpt lat="44.3234" lon="1.59912">
        <ele>301.2</ele>
        <time>2021-12-15T09:53:25Z</time>
      </trkpt>
      <trkpt lat="44.32345" lon="1.59904">
        <ele>301.4</ele>
        <time>2021-12-15T09:53:27Z</time>
      </trkpt>
      <trkpt lat="44.32349" lon="1.59896">
        <ele>301.6</ele>
        <time>2021-12-15T09:53:29Z</time>
      </trkpt>
      <trkpt lat="44.32353" lon="1.59889">
        <ele>301.7</ele>
        <time>2021-12-15T09:53:31Z</time>
      </trkpt>
      <trkpt lat="44.32356" lon="1.59884">
        <ele>301.8</ele>
        <time>2021-12-15T09:53:33Z</time>
      </trkpt>
      <trkpt lat="44.32354" lon="1.59871">
        <ele>301.7</ele>
        <time>2021-12-15T10:00:14Z</time>
      </trkpt>
      <trkpt lat="44.32352" lon="1.59869">
        <ele>301.7</ele>
        <time>2021-12-15T10:00:15Z</time>
      </trkpt>
      <trkpt lat="44.32347" lon="1.59866">
        <ele>301.5</ele>
        <time>2021-12-15T10:00:17Z</time>
      </trkpt>
      <trkpt lat="44.32343" lon="1.59864">
        <ele>301.3</ele>
        <time>2021-12-15T10:00:18Z</time>
      </trkpt>
      <trkpt lat="44.3234" lon="1.59861">
        <ele>301.2</ele>
        <time>2021-12-15T10:00:19Z</time>
      </trkpt>
      <trkpt lat="44.32332" lon="1.59856">
        <ele>301</ele>
        <time>2021-12-15T10:00:21Z</time>
      </trkpt>
      <trkpt lat="44.32323" lon="1.59849">
        <ele>300.5</ele>
        <time>2021-12-15T10:00:23Z</time>
      </trkpt>
      <trkpt lat="44.32318" lon="1.59846">
        <ele>300.2</ele>
        <time>2021-12-15T10:00:24Z</time>
      </trkpt>
      <trkpt lat="44.32313" lon="1.59842">
        <ele>300</ele>
        <time>2021-12-15T10:00:25Z</time>
      </trkpt>
      <trkpt lat="44.32301" lon="1.59837">
        <ele>299.2</ele>
        <time>2021-12-15T10:00:27Z</time>
      </trkpt>
      <trkpt lat="44.32294" lon="1.59835">
        <ele>298.6</ele>
        <time>2021-12-15T10:00:28Z</time>
      </trkpt>
      <trkpt lat="44.32287" lon="1.59834">
        <ele>297.9</ele>
        <time>2021-12-15T10:00:29Z</time>
      </trkpt>
      <trkpt lat="44.32271" lon="1.59832">
        <ele>296.3</ele>
        <time>2021-12-15T10:00:31Z</time>
      </trkpt>
      <trkpt lat="44.32263" lon="1.59832">
        <ele>295.5</ele>
        <time>2021-12-15T10:00:32Z</time>
      </trkpt>
      <trkpt lat="44.32255" lon="1.59831">
        <ele>294.8</ele>
        <time>2021-12-15T10:00:33Z</time>
      </trkpt>
      <trkpt lat="44.32237" lon="1.59831">
        <ele>293.3</ele>
        <time>2021-12-15T10:00:35Z</time>
      </trkpt>
      <trkpt lat="44.32228" lon="1.59829">
        <ele>292.8</ele>
        <time>2021-12-15T10:00:36Z</time>
      </trkpt>
      <trkpt lat="44.32219" lon="1.59825">
        <ele>292.2</ele>
        <time>2021-12-15T10:00:37Z</time>
      </trkpt>
      <trkpt lat="44.3221" lon="1.5982">
        <ele>291.4</ele>
        <time>2021-12-15T10:00:38Z</time>
      </trkpt>
      <trkpt lat="44.32202" lon="1.59812">
        <ele>290.8</ele>
        <time>2021-12-15T10:00:39Z</time>
      </trkpt>
      <trkpt lat="44.32196" lon="1.59801">
        <ele>290.4</ele>
        <time>2021-12-15T10:00:40Z</time>
      </trkpt>
      <trkpt lat="44.3219" lon="1.59789">
        <ele>289.9</ele>
        <time>2021-12-15T10:00:41Z</time>
      </trkpt>
      <trkpt lat="44.32185" lon="1.59777">
        <ele>289.3</ele>
        <time>2021-12-15T10:00:42Z</time>
      </trkpt>
      <trkpt lat="44.32179" lon="1.59765">
        <ele>288</ele>
        <time>2021-12-15T10:00:43Z</time>
      </trkpt>
      <trkpt lat="44.32165" lon="1.59744">
        <ele>285.6</ele>
        <time>2021-12-15T10:00:45Z</time>
      </trkpt>
      <trkpt lat="44.32146" lon="1.59729">
        <ele>283.6</ele>
        <time>2021-12-15T10:00:47Z</time>
      </trkpt>
      <trkpt lat="44.32137" lon="1.59723">
        <ele>282.9</ele>
        <time>2021-12-15T10:00:48Z</time>
      </trkpt>
      <trkpt lat="44.32127" lon="1.59718">
        <ele>282.4</ele>
        <time>2021-12-15T10:00:49Z</time>
      </trkpt>
      <trkpt lat="44.32108" lon="1.59708">
        <ele>281.4</ele>
        <time>2021-12-15T10:00:51Z</time>
      </trkpt>
      <trkpt lat="44.32098" lon="1.59703">
        <ele>281.2</ele>
        <time>2021-12-15T10:00:52Z</time>
      </trkpt>
      <trkpt lat="44.32089" lon="1.59699">
        <ele>281</ele>
        <time>2021-12-15T10:00:53Z</time>
      </trkpt>
      <trkpt lat="44.3208" lon="1.59695">
        <ele>280.9</ele>
        <time>2021-12-15T10:00:54Z</time>
      </trkpt>
      <trkpt lat="44.32072" lon="1.59691">
        <ele>280.5</ele>
        <time>2021-12-15T10:00:55Z</time>
      </trkpt>
      <trkpt lat="44.32058" lon="1.59684">
        <ele>279.7</ele>
        <time>2021-12-15T10:00:57Z</time>
      </trkpt>
      <trkpt lat="44.32053" lon="1.59682">
        <ele>279.5</ele>
        <time>2021-12-15T10:00:58Z</time>
      </trkpt>
      <trkpt lat="44.3205" lon="1.5968">
        <ele>279.3</ele>
        <time>2021-12-15T10:00:59Z</time>
      </trkpt>
      <trkpt lat="44.32047" lon="1.59679">
        <ele>279.1</ele>
        <time>2021-12-15T10:01:00Z</time>
      </trkpt>
      <trkpt lat="44.32046" lon="1.59678">
        <ele>279.1</ele>
        <time>2021-12-15T10:01:08Z</time>
      </trkpt>
      <trkpt lat="44.32045" lon="1.59678">
        <ele>279</ele>
        <time>2021-12-15T10:01:09Z</time>
      </trkpt>
      <trkpt lat="44.32043" lon="1.59677">
        <ele>278.9</ele>
        <time>2021-12-15T10:01:10Z</time>
      </trkpt>
      <trkpt lat="44.32041" lon="1.59676">
        <ele>278.8</ele>
        <time>2021-12-15T10:01:11Z</time>
      </trkpt>
      <trkpt lat="44.32039" lon="1.59674">
        <ele>278.7</ele>
        <time>2021-12-15T10:01:12Z</time>
      </trkpt>
      <trkpt lat="44.32036" lon="1.59672">
        <ele>278.5</ele>
        <time>2021-12-15T10:01:13Z</time>
      </trkpt>
      <trkpt lat="44.32033" lon="1.5967">
        <ele>278.3</ele>
        <time>2021-12-15T10:01:14Z</time>
      </trkpt>
      <trkpt lat="44.3203" lon="1.59668">
        <ele>278.1</ele>
        <time>2021-12-15T10:01:15Z</time>
      </trkpt>
      <trkpt lat="44.32025" lon="1.59664">
        <ele>277.9</ele>
        <time>2021-12-15T10:01:17Z</time>
      </trkpt>
      <trkpt lat="44.32023" lon="1.59663">
        <ele>277.8</ele>
        <time>2021-12-15T10:01:18Z</time>
      </trkpt>
      <trkpt lat="44.3202" lon="1.59662">
        <ele>277.7</ele>
        <time>2021-12-15T10:01:25Z</time>
      </trkpt>
      <trkpt lat="44.32016" lon="1.5966">
        <ele>277.5</ele>
        <time>2021-12-15T10:01:27Z</time>
      </trkpt>
      <trkpt lat="44.32014" lon="1.59659">
        <ele>277.4</ele>
        <time>2021-12-15T10:01:28Z</time>
      </trkpt>
      <trkpt lat="44.32013" lon="1.59666">
        <ele>277.5</ele>
        <time>2021-12-15T10:01:42Z</time>
      </trkpt>
      <trkpt lat="44.32014" lon="1.59667">
        <ele>277.5</ele>
        <time>2021-12-15T10:01:43Z</time>
      </trkpt>
      <trkpt lat="44.32017" lon="1.59666">
        <ele>277.6</ele>
        <time>2021-12-15T10:01:45Z</time>
      </trkpt>
      <trkpt lat="44.32018" lon="1.59664">
        <ele>277.6</ele>
        <time>2021-12-15T10:01:46Z</time>
      </trkpt>
      <trkpt lat="44.32019" lon="1.59661">
        <ele>277.6</ele>
        <time>2021-12-15T10:01:47Z</time>
      </trkpt>
      <trkpt lat="44.32019" lon="1.59658">
        <ele>277.6</ele>
        <time>2021-12-15T10:01:48Z</time>
      </trkpt>
      <trkpt lat="44.32019" lon="1.59655">
        <ele>277.6</ele>
        <time>2021-12-15T10:01:49Z</time>
      </trkpt>
      <trkpt lat="44.3202" lon="1.59652">
        <ele>277.6</ele>
        <time>2021-12-15T10:01:50Z</time>
      </trkpt>
      <trkpt lat="44.3202" lon="1.5965">
        <ele>277.6</ele>
        <time>2021-12-15T10:01:54Z</time>
      </trkpt>
      <trkpt lat="44.3202" lon="1.59648">
        <ele>277.5</ele>
        <time>2021-12-15T10:01:55Z</time>
      </trkpt>
      <trkpt lat="44.3202" lon="1.59646">
        <ele>277.5</ele>
        <time>2021-12-15T10:01:56Z</time>
      </trkpt>
      <trkpt lat="44.3202" lon="1.59643">
        <ele>277.5</ele>
        <time>2021-12-15T10:01:57Z</time>
      </trkpt>
      <trkpt lat="44.32022" lon="1.59637">
        <ele>277.6</ele>
        <time>2021-12-15T10:01:59Z</time>
      </trkpt>
      <trkpt lat="44.32025" lon="1.59629">
        <ele>277.8</ele>
        <time>2021-12-15T10:02:01Z</time>
      </trkpt>
      <trkpt lat="44.32027" lon="1.59619">
        <ele>277.9</ele>
        <time>2021-12-15T10:02:03Z</time>
      </trkpt>
      <trkpt lat="44.32029" lon="1.59607">
        <ele>278</ele>
        <time>2021-12-15T10:02:05Z</time>
      </trkpt>
      <trkpt lat="44.3203" lon="1.596">
        <ele>278.1</ele>
        <time>2021-12-15T10:02:06Z</time>
      </trkpt>
      <trkpt lat="44.32031" lon="1.59593">
        <ele>278.1</ele>
        <time>2021-12-15T10:02:07Z</time>
      </trkpt>
      <trkpt lat="44.32033" lon="1.59578">
        <ele>278.2</ele>
        <time>2021-12-15T10:02:09Z</time>
      </trkpt>
      <trkpt lat="44.32034" lon="1.59562">
        <ele>278.2</ele>
        <time>2021-12-15T10:02:11Z</time>
      </trkpt>
      <trkpt lat="44.32035" lon="1.59546">
        <ele>278.3</ele>
        <time>2021-12-15T10:02:13Z</time>
      </trkpt>
      <trkpt lat="44.32035" lon="1.59529">
        <ele>278.3</ele>
        <time>2021-12-15T10:02:15Z</time>
      </trkpt>
      <trkpt lat="44.32035" lon="1.59521">
        <ele>278.3</ele>
        <time>2021-12-15T10:02:16Z</time>
      </trkpt>
      <trkpt lat="44.32035" lon="1.59513">
        <ele>278.3</ele>
        <time>2021-12-15T10:02:17Z</time>
      </trkpt>
      <trkpt lat="44.32034" lon="1.59498">
        <ele>278.2</ele>
        <time>2021-12-15T10:02:19Z</time>
      </trkpt>
      <trkpt lat="44.32034" lon="1.59491">
        <ele>278.2</ele>
        <time>2021-12-15T10:02:20Z</time>
      </trkpt>
      <trkpt lat="44.32033" lon="1.59484">
        <ele>278.2</ele>
        <time>2021-12-15T10:02:21Z</time>
      </trkpt>
      <trkpt lat="44.32033" lon="1.5947">
        <ele>278.2</ele>
        <time>2021-12-15T10:02:23Z</time>
      </trkpt>
      <trkpt lat="44.32032" lon="1.59457">
        <ele>278.2</ele>
        <time>2021-12-15T10:02:25Z</time>
      </trkpt>
      <trkpt lat="44.32031" lon="1.59444">
        <ele>278.2</ele>
        <time>2021-12-15T10:02:27Z</time>
      </trkpt>
      <trkpt lat="44.32029" lon="1.59432">
        <ele>278.1</ele>
        <time>2021-12-15T10:02:29Z</time>
      </trkpt>
      <trkpt lat="44.32029" lon="1.59425">
        <ele>278.1</ele>
        <time>2021-12-15T10:02:30Z</time>
      </trkpt>
      <trkpt lat="44.32029" lon="1.59419">
        <ele>278</ele>
        <time>2021-12-15T10:02:31Z</time>
      </trkpt>
      <trkpt lat="44.3203" lon="1.59413">
        <ele>277.9</ele>
        <time>2021-12-15T10:02:32Z</time>
      </trkpt>
      <trkpt lat="44.32031" lon="1.59409">
        <ele>277.8</ele>
        <time>2021-12-15T10:02:33Z</time>
      </trkpt>
      <trkpt lat="44.32032" lon="1.59407">
        <ele>277.8</ele>
        <time>2021-12-15T10:02:34Z</time>
      </trkpt>
      <trkpt lat="44.32033" lon="1.59404">
        <ele>277.7</ele>
        <time>2021-12-15T10:02:42Z</time>
      </trkpt>
      <trkpt lat="44.32034" lon="1.59403">
        <ele>277.7</ele>
        <time>2021-12-15T10:02:43Z</time>
      </trkpt>
      <trkpt lat="44.32035" lon="1.59401">
        <ele>277.7</ele>
        <time>2021-12-15T10:02:44Z</time>
      </trkpt>
      <trkpt lat="44.32036" lon="1.59399">
        <ele>277.7</ele>
        <time>2021-12-15T10:02:45Z</time>
      </trkpt>
      <trkpt lat="44.32037" lon="1.59396">
        <ele>277.6</ele>
        <time>2021-12-15T10:02:47Z</time>
      </trkpt>
      <trkpt lat="44.32037" lon="1.59395">
        <ele>277.6</ele>
        <time>2021-12-15T10:02:48Z</time>
      </trkpt>
      <trkpt lat="44.32033" lon="1.59389">
        <ele>277.2</ele>
        <time>2021-12-15T10:03:11Z</time>
      </trkpt>
      <trkpt lat="44.32033" lon="1.59387">
        <ele>277.1</ele>
        <time>2021-12-15T10:03:12Z</time>
      </trkpt>
      <trkpt lat="44.32033" lon="1.59385">
        <ele>277.1</ele>
        <time>2021-12-15T10:03:18Z</time>
      </trkpt>
      <trkpt lat="44.32032" lon="1.59384">
        <ele>277</ele>
        <time>2021-12-15T10:03:19Z</time>
      </trkpt>
      <trkpt lat="44.32032" lon="1.59383">
        <ele>277</ele>
        <time>2021-12-15T10:03:20Z</time>
      </trkpt>
      <trkpt lat="44.32031" lon="1.59382">
        <ele>276.9</ele>
        <time>2021-12-15T10:03:23Z</time>
      </trkpt>
      <trkpt lat="44.3203" lon="1.59381">
        <ele>276.8</ele>
        <time>2021-12-15T10:03:24Z</time>
      </trkpt>
      <trkpt lat="44.32028" lon="1.5938">
        <ele>276.7</ele>
        <time>2021-12-15T10:03:25Z</time>
      </trkpt>
      <trkpt lat="44.32026" lon="1.5938">
        <ele>276.5</ele>
        <time>2021-12-15T10:03:26Z</time>
      </trkpt>
      <trkpt lat="44.32025" lon="1.59381">
        <ele>276.5</ele>
        <time>2021-12-15T10:03:36Z</time>
      </trkpt>
      <trkpt lat="44.32024" lon="1.59381">
        <ele>276.4</ele>
        <time>2021-12-15T10:03:37Z</time>
      </trkpt>
      <trkpt lat="44.32022" lon="1.59381">
        <ele>276.2</ele>
        <time>2021-12-15T10:03:38Z</time>
      </trkpt>
      <trkpt lat="44.32019" lon="1.59381">
        <ele>276</ele>
        <time>2021-12-15T10:03:39Z</time>
      </trkpt>
      <trkpt lat="44.32013" lon="1.59381">
        <ele>275.5</ele>
        <time>2021-12-15T10:03:41Z</time>
      </trkpt>
      <trkpt lat="44.32009" lon="1.59382">
        <ele>275.2</ele>
        <time>2021-12-15T10:03:42Z</time>
      </trkpt>
      <trkpt lat="44.32005" lon="1.59383">
        <ele>275</ele>
        <time>2021-12-15T10:03:43Z</time>
      </trkpt>
      <trkpt lat="44.31995" lon="1.59384">
        <ele>274.1</ele>
        <time>2021-12-15T10:03:45Z</time>
      </trkpt>
      <trkpt lat="44.31984" lon="1.59382">
        <ele>272.9</ele>
        <time>2021-12-15T10:03:47Z</time>
      </trkpt>
      <trkpt lat="44.31973" lon="1.59378">
        <ele>271.7</ele>
        <time>2021-12-15T10:03:49Z</time>
      </trkpt>
      <trkpt lat="44.31961" lon="1.59375">
        <ele>270.9</ele>
        <time>2021-12-15T10:03:51Z</time>
      </trkpt>
      <trkpt lat="44.31955" lon="1.59373">
        <ele>270.5</ele>
        <time>2021-12-15T10:03:52Z</time>
      </trkpt>
      <trkpt lat="44.31949" lon="1.59371">
        <ele>270.2</ele>
        <time>2021-12-15T10:03:53Z</time>
      </trkpt>
      <trkpt lat="44.31936" lon="1.59369">
        <ele>269.7</ele>
        <time>2021-12-15T10:03:55Z</time>
      </trkpt>
      <trkpt lat="44.3193" lon="1.59368">
        <ele>269.5</ele>
        <time>2021-12-15T10:03:56Z</time>
      </trkpt>
      <trkpt lat="44.31923" lon="1.59368">
        <ele>269.2</ele>
        <time>2021-12-15T10:03:57Z</time>
      </trkpt>
      <trkpt lat="44.31917" lon="1.59367">
        <ele>269</ele>
        <time>2021-12-15T10:03:58Z</time>
      </trkpt>
      <trkpt lat="44.31911" lon="1.59366">
        <ele>269.2</ele>
        <time>2021-12-15T10:03:59Z</time>
      </trkpt>
      <trkpt lat="44.31906" lon="1.59365">
        <ele>269.4</ele>
        <time>2021-12-15T10:04:00Z</time>
      </trkpt>
      <trkpt lat="44.31901" lon="1.59362">
        <ele>269.6</ele>
        <time>2021-12-15T10:04:01Z</time>
      </trkpt>
      <trkpt lat="44.31894" lon="1.59357">
        <ele>269.8</ele>
        <time>2021-12-15T10:04:03Z</time>
      </trkpt>
      <trkpt lat="44.31888" lon="1.5935">
        <ele>270.1</ele>
        <time>2021-12-15T10:04:05Z</time>
      </trkpt>
      <trkpt lat="44.31884" lon="1.59344">
        <ele>270.5</ele>
        <time>2021-12-15T10:04:07Z</time>
      </trkpt>
      <trkpt lat="44.31882" lon="1.5934">
        <ele>270.7</ele>
        <time>2021-12-15T10:04:08Z</time>
      </trkpt>
      <trkpt lat="44.31881" lon="1.59335">
        <ele>270.9</ele>
        <time>2021-12-15T10:04:09Z</time>
      </trkpt>
      <trkpt lat="44.3188" lon="1.59324">
        <ele>271</ele>
        <time>2021-12-15T10:04:11Z</time>
      </trkpt>
      <trkpt lat="44.31879" lon="1.59312">
        <ele>271.1</ele>
        <time>2021-12-15T10:04:13Z</time>
      </trkpt>
      <trkpt lat="44.31878" lon="1.59301">
        <ele>271.2</ele>
        <time>2021-12-15T10:04:15Z</time>
      </trkpt>
      <trkpt lat="44.31878" lon="1.59295">
        <ele>271.2</ele>
        <time>2021-12-15T10:04:16Z</time>
      </trkpt>
      <trkpt lat="44.31877" lon="1.59289">
        <ele>271.3</ele>
        <time>2021-12-15T10:04:17Z</time>
      </trkpt>
      <trkpt lat="44.31876" lon="1.59283">
        <ele>271.4</ele>
        <time>2021-12-15T10:04:18Z</time>
      </trkpt>
      <trkpt lat="44.31876" lon="1.59277">
        <ele>271.4</ele>
        <time>2021-12-15T10:04:19Z</time>
      </trkpt>
      <trkpt lat="44.31875" lon="1.59266">
        <ele>271.5</ele>
        <time>2021-12-15T10:04:21Z</time>
      </trkpt>
      <trkpt lat="44.31875" lon="1.59261">
        <ele>271.5</ele>
        <time>2021-12-15T10:04:22Z</time>
      </trkpt>
      <trkpt lat="44.31875" lon="1.59256">
        <ele>271.5</ele>
        <time>2021-12-15T10:04:23Z</time>
      </trkpt>
      <trkpt lat="44.31875" lon="1.59252">
        <ele>271.5</ele>
        <time>2021-12-15T10:04:24Z</time>
      </trkpt>
      <trkpt lat="44.31875" lon="1.59247">
        <ele>271.5</ele>
        <time>2021-12-15T10:04:25Z</time>
      </trkpt>
      <trkpt lat="44.31875" lon="1.59241">
        <ele>271.5</ele>
        <time>2021-12-15T10:04:26Z</time>
      </trkpt>
      <trkpt lat="44.31875" lon="1.59236">
        <ele>271.5</ele>
        <time>2021-12-15T10:04:27Z</time>
      </trkpt>
      <trkpt lat="44.31876" lon="1.59224">
        <ele>271.4</ele>
        <time>2021-12-15T10:04:29Z</time>
      </trkpt>
      <trkpt lat="44.31875" lon="1.59213">
        <ele>271.5</ele>
        <time>2021-12-15T10:04:31Z</time>
      </trkpt>
      <trkpt lat="44.31875" lon="1.59206">
        <ele>271.5</ele>
        <time>2021-12-15T10:04:32Z</time>
      </trkpt>
      <trkpt lat="44.31875" lon="1.592">
        <ele>271.5</ele>
        <time>2021-12-15T10:04:33Z</time>
      </trkpt>
      <trkpt lat="44.31875" lon="1.59193">
        <ele>271.5</ele>
        <time>2021-12-15T10:04:34Z</time>
      </trkpt>
      <trkpt lat="44.31876" lon="1.59186">
        <ele>271.3</ele>
        <time>2021-12-15T10:04:35Z</time>
      </trkpt>
      <trkpt lat="44.31878" lon="1.59174">
        <ele>270.9</ele>
        <time>2021-12-15T10:04:37Z</time>
      </trkpt>
      <trkpt lat="44.31881" lon="1.59161">
        <ele>270.5</ele>
        <time>2021-12-15T10:04:39Z</time>
      </trkpt>
      <trkpt lat="44.31882" lon="1.59155">
        <ele>270.4</ele>
        <time>2021-12-15T10:04:40Z</time>
      </trkpt>
      <trkpt lat="44.31883" lon="1.59148">
        <ele>270.3</ele>
        <time>2021-12-15T10:04:41Z</time>
      </trkpt>
      <trkpt lat="44.31882" lon="1.59137">
        <ele>270.2</ele>
        <time>2021-12-15T10:04:43Z</time>
      </trkpt>
      <trkpt lat="44.31879" lon="1.59134">
        <ele>270.2</ele>
        <time>2021-12-15T10:04:44Z</time>
      </trkpt>
      <trkpt lat="44.31876" lon="1.59131">
        <ele>270.2</ele>
        <time>2021-12-15T10:04:45Z</time>
      </trkpt>
      <trkpt lat="44.31868" lon="1.59125">
        <ele>270.3</ele>
        <time>2021-12-15T10:04:47Z</time>
      </trkpt>
      <trkpt lat="44.31859" lon="1.59118">
        <ele>270.3</ele>
        <time>2021-12-15T10:04:49Z</time>
      </trkpt>
      <trkpt lat="44.3185" lon="1.59111">
        <ele>270.4</ele>
        <time>2021-12-15T10:04:51Z</time>
      </trkpt>
      <trkpt lat="44.31841" lon="1.59105">
        <ele>270.3</ele>
        <time>2021-12-15T10:04:53Z</time>
      </trkpt>
      <trkpt lat="44.31837" lon="1.59101">
        <ele>270.2</ele>
        <time>2021-12-15T10:04:54Z</time>
      </trkpt>
      <trkpt lat="44.31832" lon="1.59098">
        <ele>270.1</ele>
        <time>2021-12-15T10:04:55Z</time>
      </trkpt>
      <trkpt lat="44.31823" lon="1.59091">
        <ele>269.9</ele>
        <time>2021-12-15T10:04:57Z</time>
      </trkpt>
      <trkpt lat="44.31818" lon="1.59087">
        <ele>269.8</ele>
        <time>2021-12-15T10:04:58Z</time>
      </trkpt>
      <trkpt lat="44.31812" lon="1.59084">
        <ele>269.8</ele>
        <time>2021-12-15T10:04:59Z</time>
      </trkpt>
      <trkpt lat="44.31808" lon="1.5908">
        <ele>269.7</ele>
        <time>2021-12-15T10:05:00Z</time>
      </trkpt>
      <trkpt lat="44.31803" lon="1.59076">
        <ele>269.5</ele>
        <time>2021-12-15T10:05:01Z</time>
      </trkpt>
      <trkpt lat="44.31792" lon="1.59068">
        <ele>268.9</ele>
        <time>2021-12-15T10:05:03Z</time>
      </trkpt>
      <trkpt lat="44.31787" lon="1.59064">
        <ele>268.6</ele>
        <time>2021-12-15T10:05:04Z</time>
      </trkpt>
      <trkpt lat="44.31782" lon="1.5906">
        <ele>268.3</ele>
        <time>2021-12-15T10:05:05Z</time>
      </trkpt>
      <trkpt lat="44.31771" lon="1.5905">
        <ele>267.4</ele>
        <time>2021-12-15T10:05:07Z</time>
      </trkpt>
      <trkpt lat="44.31766" lon="1.59046">
        <ele>266.9</ele>
        <time>2021-12-15T10:05:08Z</time>
      </trkpt>
      <trkpt lat="44.3176" lon="1.59041">
        <ele>266.3</ele>
        <time>2021-12-15T10:05:09Z</time>
      </trkpt>
      <trkpt lat="44.31749" lon="1.59031">
        <ele>265.2</ele>
        <time>2021-12-15T10:05:11Z</time>
      </trkpt>
      <trkpt lat="44.3174" lon="1.59018">
        <ele>263.7</ele>
        <time>2021-12-15T10:05:13Z</time>
      </trkpt>
      <trkpt lat="44.31734" lon="1.59013">
        <ele>263.1</ele>
        <time>2021-12-15T10:05:14Z</time>
      </trkpt>
      <trkpt lat="44.31728" lon="1.59009">
        <ele>262.6</ele>
        <time>2021-12-15T10:05:15Z</time>
      </trkpt>
      <trkpt lat="44.31722" lon="1.59004">
        <ele>262.1</ele>
        <time>2021-12-15T10:05:16Z</time>
      </trkpt>
      <trkpt lat="44.31716" lon="1.59">
        <ele>261.8</ele>
        <time>2021-12-15T10:05:17Z</time>
      </trkpt>
      <trkpt lat="44.31711" lon="1.58996">
        <ele>261.5</ele>
        <time>2021-12-15T10:05:18Z</time>
      </trkpt>
      <trkpt lat="44.31705" lon="1.58992">
        <ele>261.1</ele>
        <time>2021-12-15T10:05:19Z</time>
      </trkpt>
      <trkpt lat="44.31695" lon="1.58985">
        <ele>260.5</ele>
        <time>2021-12-15T10:05:21Z</time>
      </trkpt>
      <trkpt lat="44.31687" lon="1.58979">
        <ele>260</ele>
        <time>2021-12-15T10:05:23Z</time>
      </trkpt>
      <trkpt lat="44.31684" lon="1.58985">
        <ele>260.1</ele>
        <time>2021-11-17T15:19:43Z</time>
      </trkpt>
      <trkpt lat="44.31681" lon="1.58983">
        <ele>259.9</ele>
        <time>2021-11-17T15:19:44Z</time>
      </trkpt>
      <trkpt lat="44.31679" lon="1.58981">
        <ele>259.8</ele>
        <time>2021-11-17T15:19:45Z</time>
      </trkpt>
      <trkpt lat="44.31677" lon="1.5898">
        <ele>259.7</ele>
        <time>2021-11-17T15:19:47Z</time>
      </trkpt>
      <trkpt lat="44.31676" lon="1.58979">
        <ele>259.6</ele>
        <time>2021-11-17T15:19:54Z</time>
      </trkpt>
      <trkpt lat="44.31674" lon="1.58979">
        <ele>259.5</ele>
        <time>2021-11-17T15:19:56Z</time>
      </trkpt>
      <trkpt lat="44.31672" lon="1.58978">
        <ele>259.4</ele>
        <time>2021-11-17T15:19:57Z</time>
      </trkpt>
      <trkpt lat="44.3167" lon="1.58977">
        <ele>259.3</ele>
        <time>2021-11-17T15:19:58Z</time>
      </trkpt>
      <trkpt lat="44.31665" lon="1.58973">
        <ele>259</ele>
        <time>2021-11-17T15:20:00Z</time>
      </trkpt>
      <trkpt lat="44.31659" lon="1.58968">
        <ele>259</ele>
        <time>2021-11-17T15:20:02Z</time>
      </trkpt>
      <trkpt lat="44.31656" lon="1.58965">
        <ele>258.9</ele>
        <time>2021-11-17T15:20:03Z</time>
      </trkpt>
      <trkpt lat="44.31649" lon="1.58956">
        <ele>258.6</ele>
        <time>2021-11-17T15:20:06Z</time>
      </trkpt>
      <trkpt lat="44.31647" lon="1.58954">
        <ele>258.5</ele>
        <time>2021-11-17T15:20:07Z</time>
      </trkpt>
      <trkpt lat="44.31645" lon="1.58952">
        <ele>258.4</ele>
        <time>2021-11-17T15:20:08Z</time>
      </trkpt>
      <trkpt lat="44.31642" lon="1.58948">
        <ele>258.2</ele>
        <time>2021-11-17T15:20:10Z</time>
      </trkpt>
      <trkpt lat="44.31642" lon="1.58947">
        <ele>258.2</ele>
        <time>2021-11-17T15:20:11Z</time>
      </trkpt>
      <trkpt lat="44.31634" lon="1.58941">
        <ele>257.8</ele>
        <time>2021-11-17T15:20:36Z</time>
      </trkpt>
      <trkpt lat="44.3163" lon="1.58937">
        <ele>257.7</ele>
        <time>2021-11-17T15:20:38Z</time>
      </trkpt>
      <trkpt lat="44.31624" lon="1.58932">
        <ele>257.5</ele>
        <time>2021-11-17T15:20:40Z</time>
      </trkpt>
      <trkpt lat="44.31621" lon="1.58929">
        <ele>257.4</ele>
        <time>2021-11-17T15:20:41Z</time>
      </trkpt>
      <trkpt lat="44.31614" lon="1.58923">
        <ele>257.1</ele>
        <time>2021-11-17T15:20:43Z</time>
      </trkpt>
      <trkpt lat="44.31611" lon="1.58919">
        <ele>257</ele>
        <time>2021-11-17T15:20:44Z</time>
      </trkpt>
      <trkpt lat="44.31606" lon="1.58911">
        <ele>256.8</ele>
        <time>2021-11-17T15:20:46Z</time>
      </trkpt>
      <trkpt lat="44.31603" lon="1.58906">
        <ele>256.6</ele>
        <time>2021-11-17T15:20:47Z</time>
      </trkpt>
      <trkpt lat="44.316" lon="1.58902">
        <ele>256.4</ele>
        <time>2021-11-17T15:20:48Z</time>
      </trkpt>
      <trkpt lat="44.31597" lon="1.58898">
        <ele>256.2</ele>
        <time>2021-11-17T15:20:49Z</time>
      </trkpt>
      <trkpt lat="44.31594" lon="1.58894">
        <ele>255.9</ele>
        <time>2021-11-17T15:20:50Z</time>
      </trkpt>
      <trkpt lat="44.3159" lon="1.5889">
        <ele>255.5</ele>
        <time>2021-11-17T15:20:51Z</time>
      </trkpt>
      <trkpt lat="44.31587" lon="1.58887">
        <ele>255.3</ele>
        <time>2021-11-17T15:20:52Z</time>
      </trkpt>
      <trkpt lat="44.31585" lon="1.58883">
        <ele>255.1</ele>
        <time>2021-11-17T15:20:53Z</time>
      </trkpt>
      <trkpt lat="44.31583" lon="1.5888">
        <ele>255</ele>
        <time>2021-11-17T15:20:54Z</time>
      </trkpt>
      <trkpt lat="44.31583" lon="1.58872">
        <ele>255</ele>
        <time>2021-11-17T15:20:56Z</time>
      </trkpt>
      <trkpt lat="44.31583" lon="1.58867">
        <ele>255</ele>
        <time>2021-11-17T15:20:57Z</time>
      </trkpt>
      <trkpt lat="44.31583" lon="1.58863">
        <ele>255</ele>
        <time>2021-11-17T15:20:58Z</time>
      </trkpt>
      <trkpt lat="44.31583" lon="1.58853">
        <ele>255</ele>
        <time>2021-11-17T15:21:00Z</time>
      </trkpt>
      <trkpt lat="44.31582" lon="1.58843">
        <ele>255</ele>
        <time>2021-11-17T15:21:02Z</time>
      </trkpt>
      <trkpt lat="44.3158" lon="1.58838">
        <ele>255</ele>
        <time>2021-11-17T15:21:03Z</time>
      </trkpt>
      <trkpt lat="44.3158" lon="1.58834">
        <ele>255</ele>
        <time>2021-11-17T15:21:04Z</time>
      </trkpt>
      <trkpt lat="44.31579" lon="1.58825">
        <ele>255</ele>
        <time>2021-11-17T15:21:06Z</time>
      </trkpt>
      <trkpt lat="44.31579" lon="1.58822">
        <ele>254.9</ele>
        <time>2021-11-17T15:21:07Z</time>
      </trkpt>
      <trkpt lat="44.31579" lon="1.58819">
        <ele>254.9</ele>
        <time>2021-11-17T15:21:08Z</time>
      </trkpt>
      <trkpt lat="44.31579" lon="1.58811">
        <ele>254.9</ele>
        <time>2021-11-17T15:21:10Z</time>
      </trkpt>
      <trkpt lat="44.3158" lon="1.58804">
        <ele>254.9</ele>
        <time>2021-11-17T15:21:12Z</time>
      </trkpt>
      <trkpt lat="44.3158" lon="1.58798">
        <ele>254.9</ele>
        <time>2021-11-17T15:21:14Z</time>
      </trkpt>
      <trkpt lat="44.3158" lon="1.58791">
        <ele>254.9</ele>
        <time>2021-11-17T15:21:16Z</time>
      </trkpt>
      <trkpt lat="44.3158" lon="1.58783">
        <ele>255</ele>
        <time>2021-11-17T15:21:18Z</time>
      </trkpt>
      <trkpt lat="44.31583" lon="1.58775">
        <ele>255</ele>
        <time>2021-11-17T15:21:20Z</time>
      </trkpt>
      <trkpt lat="44.31584" lon="1.58765">
        <ele>255</ele>
        <time>2021-11-17T15:21:22Z</time>
      </trkpt>
      <trkpt lat="44.31585" lon="1.58752">
        <ele>255.1</ele>
        <time>2021-11-17T15:21:24Z</time>
      </trkpt>
      <trkpt lat="44.31586" lon="1.58739">
        <ele>255.2</ele>
        <time>2021-11-17T15:21:26Z</time>
      </trkpt>
      <trkpt lat="44.31587" lon="1.58732">
        <ele>255.2</ele>
        <time>2021-11-17T15:21:27Z</time>
      </trkpt>
      <trkpt lat="44.31587" lon="1.58725">
        <ele>255.1</ele>
        <time>2021-11-17T15:21:28Z</time>
      </trkpt>
      <trkpt lat="44.31588" lon="1.58712">
        <ele>254.9</ele>
        <time>2021-11-17T15:21:30Z</time>
      </trkpt>
      <trkpt lat="44.31589" lon="1.58699">
        <ele>254.5</ele>
        <time>2021-11-17T15:21:32Z</time>
      </trkpt>
      <trkpt lat="44.3159" lon="1.58686">
        <ele>254.4</ele>
        <time>2021-11-17T15:21:34Z</time>
      </trkpt>
      <trkpt lat="44.31591" lon="1.58672">
        <ele>254.3</ele>
        <time>2021-11-17T15:21:36Z</time>
      </trkpt>
      <trkpt lat="44.31592" lon="1.58659">
        <ele>254.3</ele>
        <time>2021-11-17T15:21:38Z</time>
      </trkpt>
      <trkpt lat="44.31593" lon="1.58646">
        <ele>254.3</ele>
        <time>2021-11-17T15:21:40Z</time>
      </trkpt>
      <trkpt lat="44.31593" lon="1.5864">
        <ele>254.3</ele>
        <time>2021-11-17T15:21:41Z</time>
      </trkpt>
      <trkpt lat="44.31593" lon="1.58635">
        <ele>254.4</ele>
        <time>2021-11-17T15:21:42Z</time>
      </trkpt>
      <trkpt lat="44.31591" lon="1.58624">
        <ele>254.7</ele>
        <time>2021-11-17T15:21:44Z</time>
      </trkpt>
      <trkpt lat="44.31591" lon="1.58618">
        <ele>254.8</ele>
        <time>2021-11-17T15:21:45Z</time>
      </trkpt>
      <trkpt lat="44.3159" lon="1.58613">
        <ele>254.9</ele>
        <time>2021-11-17T15:21:46Z</time>
      </trkpt>
      <trkpt lat="44.31589" lon="1.58603">
        <ele>254.8</ele>
        <time>2021-11-17T15:21:48Z</time>
      </trkpt>
      <trkpt lat="44.31591" lon="1.58593">
        <ele>254.5</ele>
        <time>2021-11-17T15:21:50Z</time>
      </trkpt>
      <trkpt lat="44.31593" lon="1.58588">
        <ele>254.5</ele>
        <time>2021-11-17T15:21:51Z</time>
      </trkpt>
      <trkpt lat="44.31594" lon="1.58583">
        <ele>254.4</ele>
        <time>2021-11-17T15:21:52Z</time>
      </trkpt>
      <trkpt lat="44.31596" lon="1.58573">
        <ele>254.1</ele>
        <time>2021-11-17T15:21:54Z</time>
      </trkpt>
      <trkpt lat="44.31596" lon="1.58567">
        <ele>253.9</ele>
        <time>2021-11-17T15:21:55Z</time>
      </trkpt>
      <trkpt lat="44.31597" lon="1.58561">
        <ele>253.7</ele>
        <time>2021-11-17T15:21:56Z</time>
      </trkpt>
      <trkpt lat="44.31597" lon="1.58549">
        <ele>253.3</ele>
        <time>2021-11-17T15:21:58Z</time>
      </trkpt>
      <trkpt lat="44.31597" lon="1.58535">
        <ele>252.8</ele>
        <time>2021-11-17T15:22:00Z</time>
      </trkpt>
      <trkpt lat="44.31597" lon="1.58529">
        <ele>252.5</ele>
        <time>2021-11-17T15:22:01Z</time>
      </trkpt>
      <trkpt lat="44.31596" lon="1.58521">
        <ele>252.2</ele>
        <time>2021-11-17T15:22:02Z</time>
      </trkpt>
      <trkpt lat="44.31596" lon="1.58507">
        <ele>251.7</ele>
        <time>2021-11-17T15:22:04Z</time>
      </trkpt>
      <trkpt lat="44.31595" lon="1.58499">
        <ele>251.4</ele>
        <time>2021-11-17T15:22:05Z</time>
      </trkpt>
      <trkpt lat="44.31595" lon="1.58491">
        <ele>251.2</ele>
        <time>2021-11-17T15:22:06Z</time>
      </trkpt>
      <trkpt lat="44.31595" lon="1.58483">
        <ele>251.1</ele>
        <time>2021-11-17T15:22:07Z</time>
      </trkpt>
      <trkpt lat="44.31594" lon="1.58476">
        <ele>250.9</ele>
        <time>2021-11-17T15:22:08Z</time>
      </trkpt>
      <trkpt lat="44.31592" lon="1.58461">
        <ele>250.6</ele>
        <time>2021-11-17T15:22:10Z</time>
      </trkpt>
      <trkpt lat="44.31591" lon="1.58454">
        <ele>250.6</ele>
        <time>2021-11-17T15:22:11Z</time>
      </trkpt>
      <trkpt lat="44.31591" lon="1.58447">
        <ele>250.6</ele>
        <time>2021-11-17T15:22:12Z</time>
      </trkpt>
      <trkpt lat="44.31591" lon="1.5844">
        <ele>250.6</ele>
        <time>2021-11-17T15:22:13Z</time>
      </trkpt>
      <trkpt lat="44.3159" lon="1.58434">
        <ele>250.5</ele>
        <time>2021-11-17T15:22:14Z</time>
      </trkpt>
      <trkpt lat="44.3159" lon="1.58421">
        <ele>250.5</ele>
        <time>2021-11-17T15:22:16Z</time>
      </trkpt>
      <trkpt lat="44.3159" lon="1.58414">
        <ele>250.5</ele>
        <time>2021-11-17T15:22:17Z</time>
      </trkpt>
      <trkpt lat="44.3159" lon="1.58407">
        <ele>250.4</ele>
        <time>2021-11-17T15:22:18Z</time>
      </trkpt>
      <trkpt lat="44.3159" lon="1.58401">
        <ele>250.3</ele>
        <time>2021-11-17T15:22:19Z</time>
      </trkpt>
      <trkpt lat="44.31591" lon="1.58396">
        <ele>250.3</ele>
        <time>2021-11-17T15:22:20Z</time>
      </trkpt>
      <trkpt lat="44.31593" lon="1.58383">
        <ele>250.3</ele>
        <time>2021-11-17T15:22:22Z</time>
      </trkpt>
      <trkpt lat="44.31595" lon="1.58376">
        <ele>250.4</ele>
        <time>2021-11-17T15:22:23Z</time>
      </trkpt>
      <trkpt lat="44.31596" lon="1.58369">
        <ele>250.5</ele>
        <time>2021-11-17T15:22:24Z</time>
      </trkpt>
      <trkpt lat="44.31597" lon="1.58357">
        <ele>250.5</ele>
        <time>2021-11-17T15:22:26Z</time>
      </trkpt>
      <trkpt lat="44.31599" lon="1.58342">
        <ele>250.6</ele>
        <time>2021-11-17T15:22:28Z</time>
      </trkpt>
      <trkpt lat="44.31599" lon="1.58336">
        <ele>250.6</ele>
        <time>2021-11-17T15:22:29Z</time>
      </trkpt>
      <trkpt lat="44.31598" lon="1.5833">
        <ele>250.5</ele>
        <time>2021-11-17T15:22:30Z</time>
      </trkpt>
      <trkpt lat="44.31593" lon="1.58322">
        <ele>250.3</ele>
        <time>2021-11-17T15:22:32Z</time>
      </trkpt>
      <trkpt lat="44.31589" lon="1.58313">
        <ele>250.2</ele>
        <time>2021-11-17T15:22:34Z</time>
      </trkpt>
      <trkpt lat="44.31586" lon="1.583">
        <ele>250.1</ele>
        <time>2021-11-17T15:22:36Z</time>
      </trkpt>
      <trkpt lat="44.31584" lon="1.58287">
        <ele>250</ele>
        <time>2021-11-17T15:22:38Z</time>
      </trkpt>
      <trkpt lat="44.31582" lon="1.58276">
        <ele>250</ele>
        <time>2021-11-17T15:22:40Z</time>
      </trkpt>
      <trkpt lat="44.31582" lon="1.58272">
        <ele>250</ele>
        <time>2021-11-17T15:22:41Z</time>
      </trkpt>
      <trkpt lat="44.31579" lon="1.58238">
        <ele>249.8</ele>
        <time>2021-12-15T10:20:22Z</time>
      </trkpt>
      <trkpt lat="44.31578" lon="1.58234">
        <ele>249.8</ele>
        <time>2021-12-15T10:20:23Z</time>
      </trkpt>
      <trkpt lat="44.31578" lon="1.58225">
        <ele>249.8</ele>
        <time>2021-12-15T10:20:25Z</time>
      </trkpt>
      <trkpt lat="44.31581" lon="1.58215">
        <ele>249.9</ele>
        <time>2021-12-15T10:20:27Z</time>
      </trkpt>
      <trkpt lat="44.31584" lon="1.58211">
        <ele>250</ele>
        <time>2021-12-15T10:20:28Z</time>
      </trkpt>
      <trkpt lat="44.31587" lon="1.58209">
        <ele>250.2</ele>
        <time>2021-12-15T10:20:29Z</time>
      </trkpt>
      <trkpt lat="44.31594" lon="1.58209">
        <ele>250.6</ele>
        <time>2021-12-15T10:20:31Z</time>
      </trkpt>
      <trkpt lat="44.31601" lon="1.5821">
        <ele>250.9</ele>
        <time>2021-12-15T10:20:33Z</time>
      </trkpt>
      <trkpt lat="44.31611" lon="1.58211">
        <ele>251.4</ele>
        <time>2021-12-15T10:20:35Z</time>
      </trkpt>
      <trkpt lat="44.31615" lon="1.58211">
        <ele>251.6</ele>
        <time>2021-12-15T10:20:36Z</time>
      </trkpt>
      <trkpt lat="44.3162" lon="1.58211">
        <ele>251.9</ele>
        <time>2021-12-15T10:20:37Z</time>
      </trkpt>
      <trkpt lat="44.31631" lon="1.58212">
        <ele>252.5</ele>
        <time>2021-12-15T10:20:39Z</time>
      </trkpt>
      <trkpt lat="44.31641" lon="1.58213">
        <ele>253.1</ele>
        <time>2021-12-15T10:20:41Z</time>
      </trkpt>
      <trkpt lat="44.31652" lon="1.58212">
        <ele>253.5</ele>
        <time>2021-12-15T10:20:43Z</time>
      </trkpt>
      <trkpt lat="44.31657" lon="1.58212">
        <ele>253.7</ele>
        <time>2021-12-15T10:20:44Z</time>
      </trkpt>
      <trkpt lat="44.31663" lon="1.58212">
        <ele>253.9</ele>
        <time>2021-12-15T10:20:45Z</time>
      </trkpt>
      <trkpt lat="44.31668" lon="1.58212">
        <ele>254.1</ele>
        <time>2021-12-15T10:20:46Z</time>
      </trkpt>
      <trkpt lat="44.31674" lon="1.58213">
        <ele>254.4</ele>
        <time>2021-12-15T10:20:47Z</time>
      </trkpt>
      <trkpt lat="44.31685" lon="1.58218">
        <ele>255.2</ele>
        <time>2021-12-15T10:20:49Z</time>
      </trkpt>
      <trkpt lat="44.3169" lon="1.58221">
        <ele>255.6</ele>
        <time>2021-12-15T10:20:50Z</time>
      </trkpt>
      <trkpt lat="44.31696" lon="1.58224">
        <ele>256.1</ele>
        <time>2021-12-15T10:20:51Z</time>
      </trkpt>
      <trkpt lat="44.31702" lon="1.58226">
        <ele>256.3</ele>
        <time>2021-12-15T10:20:52Z</time>
      </trkpt>
      <trkpt lat="44.31707" lon="1.58228">
        <ele>256.5</ele>
        <time>2021-12-15T10:20:53Z</time>
      </trkpt>
      <trkpt lat="44.31713" lon="1.58229">
        <ele>256.7</ele>
        <time>2021-12-15T10:20:54Z</time>
      </trkpt>
      <trkpt lat="44.31718" lon="1.5823">
        <ele>256.8</ele>
        <time>2021-12-15T10:20:55Z</time>
      </trkpt>
      <trkpt lat="44.31729" lon="1.58232">
        <ele>257.5</ele>
        <time>2021-12-15T10:20:57Z</time>
      </trkpt>
      <trkpt lat="44.31734" lon="1.58233">
        <ele>257.8</ele>
        <time>2021-12-15T10:20:58Z</time>
      </trkpt>
      <trkpt lat="44.3174" lon="1.58234">
        <ele>258.3</ele>
        <time>2021-12-15T10:20:59Z</time>
      </trkpt>
      <trkpt lat="44.3175" lon="1.58236">
        <ele>259</ele>
        <time>2021-12-15T10:21:01Z</time>
      </trkpt>
      <trkpt lat="44.31761" lon="1.58239">
        <ele>259.6</ele>
        <time>2021-12-15T10:21:03Z</time>
      </trkpt>
      <trkpt lat="44.31766" lon="1.58239">
        <ele>259.8</ele>
        <time>2021-12-15T10:21:04Z</time>
      </trkpt>
      <trkpt lat="44.31771" lon="1.58239">
        <ele>260.1</ele>
        <time>2021-12-15T10:21:05Z</time>
      </trkpt>
      <trkpt lat="44.3178" lon="1.58238">
        <ele>260.6</ele>
        <time>2021-12-15T10:21:07Z</time>
      </trkpt>
      <trkpt lat="44.31785" lon="1.58239">
        <ele>260.8</ele>
        <time>2021-12-15T10:21:08Z</time>
      </trkpt>
      <trkpt lat="44.3179" lon="1.5824">
        <ele>261.1</ele>
        <time>2021-12-15T10:21:09Z</time>
      </trkpt>
      <trkpt lat="44.318" lon="1.58243">
        <ele>261.7</ele>
        <time>2021-12-15T10:21:11Z</time>
      </trkpt>
      <trkpt lat="44.3181" lon="1.58243">
        <ele>262.2</ele>
        <time>2021-12-15T10:21:13Z</time>
      </trkpt>
      <trkpt lat="44.31815" lon="1.58242">
        <ele>262.4</ele>
        <time>2021-12-15T10:21:14Z</time>
      </trkpt>
      <trkpt lat="44.3182" lon="1.58243">
        <ele>262.7</ele>
        <time>2021-12-15T10:21:15Z</time>
      </trkpt>
      <trkpt lat="44.3183" lon="1.58242">
        <ele>263.1</ele>
        <time>2021-12-15T10:21:17Z</time>
      </trkpt>
      <trkpt lat="44.31834" lon="1.58243">
        <ele>263.3</ele>
        <time>2021-12-15T10:21:18Z</time>
      </trkpt>
      <trkpt lat="44.31839" lon="1.58243">
        <ele>263.5</ele>
        <time>2021-12-15T10:21:19Z</time>
      </trkpt>
      <trkpt lat="44.31845" lon="1.58243">
        <ele>263.7</ele>
        <time>2021-12-15T10:21:20Z</time>
      </trkpt>
      <trkpt lat="44.3185" lon="1.58243">
        <ele>263.9</ele>
        <time>2021-12-15T10:21:21Z</time>
      </trkpt>
      <trkpt lat="44.31861" lon="1.58243">
        <ele>264.2</ele>
        <time>2021-12-15T10:21:23Z</time>
      </trkpt>
      <trkpt lat="44.31873" lon="1.58241">
        <ele>264.8</ele>
        <time>2021-12-15T10:21:25Z</time>
      </trkpt>
      <trkpt lat="44.31884" lon="1.58238">
        <ele>265.3</ele>
        <time>2021-12-15T10:21:27Z</time>
      </trkpt>
      <trkpt lat="44.31895" lon="1.58237">
        <ele>265.7</ele>
        <time>2021-12-15T10:21:29Z</time>
      </trkpt>
      <trkpt lat="44.31907" lon="1.58237">
        <ele>266.1</ele>
        <time>2021-12-15T10:21:31Z</time>
      </trkpt>
      <trkpt lat="44.31919" lon="1.58234">
        <ele>266.6</ele>
        <time>2021-12-15T10:21:33Z</time>
      </trkpt>
      <trkpt lat="44.3193" lon="1.58231">
        <ele>267</ele>
        <time>2021-12-15T10:21:35Z</time>
      </trkpt>
      <trkpt lat="44.31936" lon="1.5823">
        <ele>267.2</ele>
        <time>2021-12-15T10:21:36Z</time>
      </trkpt>
      <trkpt lat="44.31941" lon="1.5823">
        <ele>267.4</ele>
        <time>2021-12-15T10:21:37Z</time>
      </trkpt>
      <trkpt lat="44.3195" lon="1.58228">
        <ele>267.4</ele>
        <time>2021-12-15T10:21:39Z</time>
      </trkpt>
      <trkpt lat="44.31954" lon="1.58225">
        <ele>267.5</ele>
        <time>2021-12-15T10:21:40Z</time>
      </trkpt>
      <trkpt lat="44.31958" lon="1.58222">
        <ele>267.5</ele>
        <time>2021-12-15T10:21:41Z</time>
      </trkpt>
      <trkpt lat="44.31966" lon="1.58218">
        <ele>267.5</ele>
        <time>2021-12-15T10:21:43Z</time>
      </trkpt>
      <trkpt lat="44.31978" lon="1.58217">
        <ele>267.4</ele>
        <time>2021-12-15T10:21:45Z</time>
      </trkpt>
      <trkpt lat="44.31984" lon="1.58216">
        <ele>267.4</ele>
        <time>2021-12-15T10:21:46Z</time>
      </trkpt>
      <trkpt lat="44.3199" lon="1.58215">
        <ele>267.5</ele>
        <time>2021-12-15T10:21:47Z</time>
      </trkpt>
      <trkpt lat="44.32002" lon="1.58211">
        <ele>267.7</ele>
        <time>2021-12-15T10:21:49Z</time>
      </trkpt>
      <trkpt lat="44.32008" lon="1.58209">
        <ele>267.7</ele>
        <time>2021-12-15T10:21:50Z</time>
      </trkpt>
      <trkpt lat="44.32013" lon="1.58208">
        <ele>267.6</ele>
        <time>2021-12-15T10:21:51Z</time>
      </trkpt>
      <trkpt lat="44.32025" lon="1.58204">
        <ele>267.4</ele>
        <time>2021-12-15T10:21:53Z</time>
      </trkpt>
      <trkpt lat="44.32036" lon="1.58198">
        <ele>267.5</ele>
        <time>2021-12-15T10:21:55Z</time>
      </trkpt>
      <trkpt lat="44.3204" lon="1.58197">
        <ele>267.4</ele>
        <time>2021-12-15T10:21:56Z</time>
      </trkpt>
      <trkpt lat="44.32045" lon="1.58197">
        <ele>267.3</ele>
        <time>2021-12-15T10:21:57Z</time>
      </trkpt>
      <trkpt lat="44.32049" lon="1.58194">
        <ele>267.3</ele>
        <time>2021-12-15T10:21:58Z</time>
      </trkpt>
      <trkpt lat="44.32053" lon="1.58191">
        <ele>267.3</ele>
        <time>2021-12-15T10:21:59Z</time>
      </trkpt>
      <trkpt lat="44.32062" lon="1.5818">
        <ele>267.9</ele>
        <time>2021-12-15T10:22:01Z</time>
      </trkpt>
      <trkpt lat="44.32067" lon="1.58174">
        <ele>268.2</ele>
        <time>2021-12-15T10:22:02Z</time>
      </trkpt>
      <trkpt lat="44.32071" lon="1.58169">
        <ele>268.3</ele>
        <time>2021-12-15T10:22:03Z</time>
      </trkpt>
      <trkpt lat="44.32081" lon="1.58158">
        <ele>268.7</ele>
        <time>2021-12-15T10:22:05Z</time>
      </trkpt>
      <trkpt lat="44.3209" lon="1.58149">
        <ele>269.1</ele>
        <time>2021-12-15T10:22:07Z</time>
      </trkpt>
      <trkpt lat="44.32094" lon="1.58145">
        <ele>269.3</ele>
        <time>2021-12-15T10:22:08Z</time>
      </trkpt>
      <trkpt lat="44.32097" lon="1.5814">
        <ele>269.4</ele>
        <time>2021-12-15T10:22:09Z</time>
      </trkpt>
      <trkpt lat="44.32099" lon="1.58131">
        <ele>269.7</ele>
        <time>2021-12-15T10:22:11Z</time>
      </trkpt>
      <trkpt lat="44.32098" lon="1.58129">
        <ele>269.8</ele>
        <time>2021-12-15T10:22:12Z</time>
      </trkpt>
      <trkpt lat="44.32097" lon="1.58128">
        <ele>269.9</ele>
        <time>2021-12-15T10:22:13Z</time>
      </trkpt>
      <trkpt lat="44.32096" lon="1.58127">
        <ele>270</ele>
        <time>2021-12-15T10:22:14Z</time>
      </trkpt>
      <trkpt lat="44.32094" lon="1.58126">
        <ele>270.1</ele>
        <time>2021-12-15T10:22:15Z</time>
      </trkpt>
      <trkpt lat="44.32093" lon="1.58125">
        <ele>270.2</ele>
        <time>2021-12-15T10:22:16Z</time>
      </trkpt>
      <trkpt lat="44.32092" lon="1.58124">
        <ele>270.2</ele>
        <time>2021-12-15T10:22:17Z</time>
      </trkpt>
      <trkpt lat="44.32091" lon="1.58123">
        <ele>270.3</ele>
        <time>2021-12-15T10:22:18Z</time>
      </trkpt>
      <trkpt lat="44.32083" lon="1.58124">
        <ele>270.5</ele>
        <time>2021-12-15T10:25:09Z</time>
      </trkpt>
      <trkpt lat="44.32082" lon="1.58122">
        <ele>270.6</ele>
        <time>2021-12-15T10:25:10Z</time>
      </trkpt>
      <trkpt lat="44.3208" lon="1.5812">
        <ele>270.8</ele>
        <time>2021-12-15T10:25:11Z</time>
      </trkpt>
      <trkpt lat="44.32078" lon="1.58113">
        <ele>271.1</ele>
        <time>2021-12-15T10:25:13Z</time>
      </trkpt>
      <trkpt lat="44.32076" lon="1.58109">
        <ele>271.4</ele>
        <time>2021-12-15T10:25:14Z</time>
      </trkpt>
      <trkpt lat="44.32073" lon="1.58106">
        <ele>271.7</ele>
        <time>2021-12-15T10:25:15Z</time>
      </trkpt>
      <trkpt lat="44.32068" lon="1.581">
        <ele>272.4</ele>
        <time>2021-12-15T10:25:17Z</time>
      </trkpt>
      <trkpt lat="44.32063" lon="1.58097">
        <ele>272.7</ele>
        <time>2021-12-15T10:25:19Z</time>
      </trkpt>
      <trkpt lat="44.32056" lon="1.58092">
        <ele>273.4</ele>
        <time>2021-12-15T10:25:21Z</time>
      </trkpt>
      <trkpt lat="44.3205" lon="1.58086">
        <ele>274</ele>
        <time>2021-12-15T10:25:23Z</time>
      </trkpt>
      <trkpt lat="44.32047" lon="1.58082">
        <ele>274.4</ele>
        <time>2021-12-15T10:25:24Z</time>
      </trkpt>
      <trkpt lat="44.32045" lon="1.58079">
        <ele>274.5</ele>
        <time>2021-12-15T10:25:25Z</time>
      </trkpt>
      <trkpt lat="44.32043" lon="1.58075">
        <ele>274.8</ele>
        <time>2021-12-15T10:25:27Z</time>
      </trkpt>
      <trkpt lat="44.32041" lon="1.5807">
        <ele>275</ele>
        <time>2021-12-15T10:25:54Z</time>
      </trkpt>
      <trkpt lat="44.32041" lon="1.58067">
        <ele>275.1</ele>
        <time>2021-12-15T10:25:55Z</time>
      </trkpt>
      <trkpt lat="44.32039" lon="1.58059">
        <ele>275.5</ele>
        <time>2021-12-15T10:25:57Z</time>
      </trkpt>
      <trkpt lat="44.32037" lon="1.5805">
        <ele>275.9</ele>
        <time>2021-12-15T10:25:59Z</time>
      </trkpt>
      <trkpt lat="44.32036" lon="1.58041">
        <ele>276.2</ele>
        <time>2021-12-15T10:26:01Z</time>
      </trkpt>
      <trkpt lat="44.32035" lon="1.58032">
        <ele>276.6</ele>
        <time>2021-12-15T10:26:03Z</time>
      </trkpt>
      <trkpt lat="44.32034" lon="1.58021">
        <ele>276.8</ele>
        <time>2021-12-15T10:26:05Z</time>
      </trkpt>
      <trkpt lat="44.32034" lon="1.58015">
        <ele>276.9</ele>
        <time>2021-12-15T10:26:06Z</time>
      </trkpt>
      <trkpt lat="44.32034" lon="1.58009">
        <ele>276.9</ele>
        <time>2021-12-15T10:26:07Z</time>
      </trkpt>
      <trkpt lat="44.32035" lon="1.57997">
        <ele>277</ele>
        <time>2021-12-15T10:26:09Z</time>
      </trkpt>
      <trkpt lat="44.32035" lon="1.57985">
        <ele>277</ele>
        <time>2021-12-15T10:26:11Z</time>
      </trkpt>
      <trkpt lat="44.32035" lon="1.57973">
        <ele>277</ele>
        <time>2021-12-15T10:26:13Z</time>
      </trkpt>
      <trkpt lat="44.32035" lon="1.57967">
        <ele>277.1</ele>
        <time>2021-12-15T10:26:14Z</time>
      </trkpt>
      <trkpt lat="44.32035" lon="1.57961">
        <ele>277.3</ele>
        <time>2021-12-15T10:26:15Z</time>
      </trkpt>
      <trkpt lat="44.32037" lon="1.57949">
        <ele>277.6</ele>
        <time>2021-12-15T10:26:17Z</time>
      </trkpt>
      <trkpt lat="44.32038" lon="1.57943">
        <ele>277.6</ele>
        <time>2021-12-15T10:26:18Z</time>
      </trkpt>
      <trkpt lat="44.32039" lon="1.57937">
        <ele>277.6</ele>
        <time>2021-12-15T10:26:19Z</time>
      </trkpt>
      <trkpt lat="44.32043" lon="1.57925">
        <ele>277.5</ele>
        <time>2021-12-15T10:26:21Z</time>
      </trkpt>
      <trkpt lat="44.32044" lon="1.57918">
        <ele>277.4</ele>
        <time>2021-12-15T10:26:22Z</time>
      </trkpt>
      <trkpt lat="44.32046" lon="1.57911">
        <ele>277.3</ele>
        <time>2021-12-15T10:26:23Z</time>
      </trkpt>
      <trkpt lat="44.32047" lon="1.57904">
        <ele>277.3</ele>
        <time>2021-12-15T10:26:24Z</time>
      </trkpt>
      <trkpt lat="44.32047" lon="1.57896">
        <ele>277.3</ele>
        <time>2021-12-15T10:26:25Z</time>
      </trkpt>
      <trkpt lat="44.32048" lon="1.57888">
        <ele>277.3</ele>
        <time>2021-12-15T10:26:26Z</time>
      </trkpt>
      <trkpt lat="44.32048" lon="1.5788">
        <ele>277.4</ele>
        <time>2021-12-15T10:26:27Z</time>
      </trkpt>
      <trkpt lat="44.32048" lon="1.57865">
        <ele>277.7</ele>
        <time>2021-12-15T10:26:29Z</time>
      </trkpt>
      <trkpt lat="44.32048" lon="1.57857">
        <ele>277.7</ele>
        <time>2021-12-15T10:26:30Z</time>
      </trkpt>
      <trkpt lat="44.32049" lon="1.57849">
        <ele>277.8</ele>
        <time>2021-12-15T10:26:31Z</time>
      </trkpt>
      <trkpt lat="44.32051" lon="1.57833">
        <ele>277.8</ele>
        <time>2021-12-15T10:26:33Z</time>
      </trkpt>
      <trkpt lat="44.32053" lon="1.57826">
        <ele>277.9</ele>
        <time>2021-12-15T10:26:34Z</time>
      </trkpt>
      <trkpt lat="44.32056" lon="1.5782">
        <ele>278</ele>
        <time>2021-12-15T10:26:35Z</time>
      </trkpt>
      <trkpt lat="44.32058" lon="1.57813">
        <ele>278.1</ele>
        <time>2021-12-15T10:26:36Z</time>
      </trkpt>
      <trkpt lat="44.32061" lon="1.57806">
        <ele>278.2</ele>
        <time>2021-12-15T10:26:37Z</time>
      </trkpt>
      <trkpt lat="44.32067" lon="1.57794">
        <ele>278.7</ele>
        <time>2021-12-15T10:26:39Z</time>
      </trkpt>
      <trkpt lat="44.32074" lon="1.5778">
        <ele>279</ele>
        <time>2021-12-15T10:26:41Z</time>
      </trkpt>
      <trkpt lat="44.32081" lon="1.57768">
        <ele>279.3</ele>
        <time>2021-12-15T10:26:43Z</time>
      </trkpt>
      <trkpt lat="44.32089" lon="1.57757">
        <ele>279.8</ele>
        <time>2021-12-15T10:26:45Z</time>
      </trkpt>
      <trkpt lat="44.32092" lon="1.57751">
        <ele>280</ele>
        <time>2021-12-15T10:26:46Z</time>
      </trkpt>
      <trkpt lat="44.32094" lon="1.57743">
        <ele>280</ele>
        <time>2021-12-15T10:26:47Z</time>
      </trkpt>
      <trkpt lat="44.32096" lon="1.57736">
        <ele>280</ele>
        <time>2021-12-15T10:26:48Z</time>
      </trkpt>
      <trkpt lat="44.32098" lon="1.57728">
        <ele>280</ele>
        <time>2021-12-15T10:26:49Z</time>
      </trkpt>
      <trkpt lat="44.32102" lon="1.57712">
        <ele>280.1</ele>
        <time>2021-12-15T10:26:51Z</time>
      </trkpt>
      <trkpt lat="44.32107" lon="1.57696">
        <ele>280.1</ele>
        <time>2021-12-15T10:26:53Z</time>
      </trkpt>
      <trkpt lat="44.32109" lon="1.57688">
        <ele>280.1</ele>
        <time>2021-12-15T10:26:54Z</time>
      </trkpt>
      <trkpt lat="44.32111" lon="1.5768">
        <ele>280</ele>
        <time>2021-12-15T10:26:55Z</time>
      </trkpt>
      <trkpt lat="44.32114" lon="1.57663">
        <ele>279.9</ele>
        <time>2021-12-15T10:26:57Z</time>
      </trkpt>
      <trkpt lat="44.32118" lon="1.57647">
        <ele>279.8</ele>
        <time>2021-12-15T10:26:59Z</time>
      </trkpt>
      <trkpt lat="44.32124" lon="1.57632">
        <ele>279.5</ele>
        <time>2021-12-15T10:27:01Z</time>
      </trkpt>
      <trkpt lat="44.32131" lon="1.57618">
        <ele>279.3</ele>
        <time>2021-12-15T10:27:03Z</time>
      </trkpt>
      <trkpt lat="44.32138" lon="1.57603">
        <ele>279</ele>
        <time>2021-12-15T10:27:05Z</time>
      </trkpt>
      <trkpt lat="44.32146" lon="1.57589">
        <ele>278.7</ele>
        <time>2021-12-15T10:27:07Z</time>
      </trkpt>
      <trkpt lat="44.32153" lon="1.57576">
        <ele>278.5</ele>
        <time>2021-12-15T10:27:09Z</time>
      </trkpt>
      <trkpt lat="44.3216" lon="1.57564">
        <ele>278.2</ele>
        <time>2021-12-15T10:27:11Z</time>
      </trkpt>
      <trkpt lat="44.32163" lon="1.57558">
        <ele>278.1</ele>
        <time>2021-12-15T10:27:12Z</time>
      </trkpt>
      <trkpt lat="44.32166" lon="1.57552">
        <ele>278</ele>
        <time>2021-12-15T10:27:13Z</time>
      </trkpt>
      <trkpt lat="44.32172" lon="1.57541">
        <ele>277.8</ele>
        <time>2021-12-15T10:27:15Z</time>
      </trkpt>
      <trkpt lat="44.32178" lon="1.57529">
        <ele>277.6</ele>
        <time>2021-12-15T10:27:17Z</time>
      </trkpt>
      <trkpt lat="44.32184" lon="1.57517">
        <ele>277.6</ele>
        <time>2021-12-15T10:27:19Z</time>
      </trkpt>
      <trkpt lat="44.32192" lon="1.57504">
        <ele>277.9</ele>
        <time>2021-12-15T10:27:21Z</time>
      </trkpt>
      <trkpt lat="44.322" lon="1.57492">
        <ele>277.5</ele>
        <time>2021-12-15T10:27:23Z</time>
      </trkpt>
      <trkpt lat="44.32209" lon="1.5748">
        <ele>276.8</ele>
        <time>2021-12-15T10:27:25Z</time>
      </trkpt>
      <trkpt lat="44.32217" lon="1.57467">
        <ele>276.4</ele>
        <time>2021-12-15T10:27:27Z</time>
      </trkpt>
      <trkpt lat="44.32218" lon="1.57462">
        <ele>276.5</ele>
      </trkpt>
      <trkpt lat="44.32226" lon="1.57455">
        <ele>276.5</ele>
        <time>2021-12-15T10:27:29Z</time>
      </trkpt>
      <trkpt lat="44.32234" lon="1.57441">
        <ele>276.6</ele>
        <time>2021-12-15T10:27:31Z</time>
      </trkpt>
      <trkpt lat="44.32238" lon="1.57434">
        <ele>276.4</ele>
        <time>2021-12-15T10:27:32Z</time>
      </trkpt>
      <trkpt lat="44.32243" lon="1.57428">
        <ele>276.3</ele>
        <time>2021-12-15T10:27:33Z</time>
      </trkpt>
      <trkpt lat="44.32251" lon="1.57415">
        <ele>276</ele>
        <time>2021-12-15T10:27:35Z</time>
      </trkpt>
      <trkpt lat="44.32258" lon="1.57402">
        <ele>275.6</ele>
        <time>2021-12-15T10:27:37Z</time>
      </trkpt>
      <trkpt lat="44.3226" lon="1.57396">
        <ele>275.4</ele>
        <time>2021-12-15T10:27:38Z</time>
      </trkpt>
      <trkpt lat="44.32263" lon="1.57392">
        <ele>275.1</ele>
        <time>2021-12-15T10:27:39Z</time>
      </trkpt>
      <trkpt lat="44.32265" lon="1.57387">
        <ele>275</ele>
        <time>2021-12-15T10:27:40Z</time>
      </trkpt>
      <trkpt lat="44.32267" lon="1.57381">
        <ele>275.1</ele>
        <time>2021-12-15T10:27:41Z</time>
      </trkpt>
      <trkpt lat="44.32268" lon="1.57375">
        <ele>275.2</ele>
        <time>2021-12-15T10:27:42Z</time>
      </trkpt>
      <trkpt lat="44.32268" lon="1.57369">
        <ele>275.4</ele>
        <time>2021-12-15T10:27:43Z</time>
      </trkpt>
      <trkpt lat="44.32268" lon="1.57363">
        <ele>275.6</ele>
        <time>2021-12-15T10:27:44Z</time>
      </trkpt>
      <trkpt lat="44.32269" lon="1.57357">
        <ele>275.6</ele>
        <time>2021-12-15T10:27:45Z</time>
      </trkpt>
      <trkpt lat="44.32269" lon="1.57345">
        <ele>275.6</ele>
        <time>2021-12-15T10:27:47Z</time>
      </trkpt>
      <trkpt lat="44.3227" lon="1.57333">
        <ele>275.6</ele>
        <time>2021-12-15T10:27:49Z</time>
      </trkpt>
      <trkpt lat="44.32272" lon="1.57323">
        <ele>275.4</ele>
        <time>2021-12-15T10:27:51Z</time>
      </trkpt>
      <trkpt lat="44.32273" lon="1.57319">
        <ele>275.3</ele>
        <time>2021-12-15T10:27:52Z</time>
      </trkpt>
      <trkpt lat="44.32274" lon="1.57316">
        <ele>275.3</ele>
        <time>2021-12-15T10:27:53Z</time>
      </trkpt>
      <trkpt lat="44.32275" lon="1.57314">
        <ele>275.2</ele>
        <time>2021-12-15T10:27:54Z</time>
      </trkpt>
      <trkpt lat="44.32287" lon="1.57304">
        <ele>274.7</ele>
        <time>2021-12-15T10:33:29Z</time>
      </trkpt>
      <trkpt lat="44.3229" lon="1.57302">
        <ele>274.7</ele>
        <time>2021-12-15T10:33:30Z</time>
      </trkpt>
      <trkpt lat="44.32293" lon="1.573">
        <ele>274.6</ele>
        <time>2021-12-15T10:33:31Z</time>
      </trkpt>
      <trkpt lat="44.323" lon="1.57295">
        <ele>274.4</ele>
        <time>2021-12-15T10:33:33Z</time>
      </trkpt>
      <trkpt lat="44.32305" lon="1.57289">
        <ele>274</ele>
        <time>2021-12-15T10:33:35Z</time>
      </trkpt>
      <trkpt lat="44.3231" lon="1.57283">
        <ele>273.7</ele>
        <time>2021-12-15T10:33:37Z</time>
      </trkpt>
      <trkpt lat="44.32313" lon="1.57275">
        <ele>273.6</ele>
        <time>2021-12-15T10:33:39Z</time>
      </trkpt>
      <trkpt lat="44.32315" lon="1.5727">
        <ele>273.6</ele>
        <time>2021-12-15T10:33:40Z</time>
      </trkpt>
      <trkpt lat="44.32317" lon="1.57266">
        <ele>273.6</ele>
        <time>2021-12-15T10:33:41Z</time>
      </trkpt>
      <trkpt lat="44.32321" lon="1.57256">
        <ele>273.7</ele>
        <time>2021-12-15T10:33:43Z</time>
      </trkpt>
      <trkpt lat="44.32326" lon="1.57248">
        <ele>273.5</ele>
        <time>2021-12-15T10:33:45Z</time>
      </trkpt>
      <trkpt lat="44.3233" lon="1.57238">
        <ele>273.2</ele>
        <time>2021-12-15T10:33:47Z</time>
      </trkpt>
      <trkpt lat="44.32335" lon="1.57229">
        <ele>272.9</ele>
        <time>2021-12-15T10:33:49Z</time>
      </trkpt>
      <trkpt lat="44.3234" lon="1.57221">
        <ele>272.6</ele>
        <time>2021-12-15T10:33:51Z</time>
      </trkpt>
      <trkpt lat="44.32344" lon="1.57213">
        <ele>272.4</ele>
        <time>2021-12-15T10:33:53Z</time>
      </trkpt>
      <trkpt lat="44.32345" lon="1.57209">
        <ele>272.4</ele>
        <time>2021-12-15T10:33:54Z</time>
      </trkpt>
      <trkpt lat="44.32345" lon="1.57206">
        <ele>272.5</ele>
        <time>2021-12-15T10:33:55Z</time>
      </trkpt>
      <trkpt lat="44.32346" lon="1.57201">
        <ele>272.5</ele>
        <time>2021-12-15T10:33:57Z</time>
      </trkpt>
      <trkpt lat="44.32352" lon="1.57194">
        <ele>272</ele>
        <time>2021-12-15T10:38:10Z</time>
      </trkpt>
      <trkpt lat="44.32354" lon="1.57193">
        <ele>271.8</ele>
        <time>2021-12-15T10:38:11Z</time>
      </trkpt>
      <trkpt lat="44.32357" lon="1.57192">
        <ele>271.5</ele>
        <time>2021-12-15T10:38:13Z</time>
      </trkpt>
      <trkpt lat="44.32358" lon="1.57192">
        <ele>271.4</ele>
        <time>2021-12-15T10:38:19Z</time>
      </trkpt>
      <trkpt lat="44.32361" lon="1.57189">
        <ele>271.2</ele>
        <time>2021-12-15T10:38:21Z</time>
      </trkpt>
      <trkpt lat="44.32362" lon="1.57188">
        <ele>271.2</ele>
        <time>2021-12-15T10:38:22Z</time>
      </trkpt>
      <trkpt lat="44.32364" lon="1.57187">
        <ele>271.2</ele>
        <time>2021-12-15T10:38:23Z</time>
      </trkpt>
      <trkpt lat="44.3237" lon="1.57183">
        <ele>271.1</ele>
        <time>2021-12-15T10:38:25Z</time>
      </trkpt>
      <trkpt lat="44.32372" lon="1.57181">
        <ele>271.1</ele>
        <time>2021-12-15T10:38:26Z</time>
      </trkpt>
      <trkpt lat="44.32374" lon="1.57178">
        <ele>271</ele>
        <time>2021-12-15T10:38:27Z</time>
      </trkpt>
      <trkpt lat="44.32378" lon="1.57173">
        <ele>270.8</ele>
        <time>2021-12-15T10:38:29Z</time>
      </trkpt>
      <trkpt lat="44.32382" lon="1.5717">
        <ele>270.6</ele>
        <time>2021-12-15T10:38:31Z</time>
      </trkpt>
      <trkpt lat="44.32384" lon="1.57168">
        <ele>270.4</ele>
        <time>2021-12-15T10:38:32Z</time>
      </trkpt>
      <trkpt lat="44.32385" lon="1.57167">
        <ele>270.3</ele>
        <time>2021-12-15T10:38:33Z</time>
      </trkpt>
      <trkpt lat="44.32388" lon="1.57163">
        <ele>270.2</ele>
        <time>2021-12-15T10:38:35Z</time>
      </trkpt>
      <trkpt lat="44.32399" lon="1.57149">
        <ele>269.9</ele>
      </trkpt>
      <trkpt lat="44.32413" lon="1.57141">
        <ele>269.2</ele>
      </trkpt>
      <trkpt lat="44.32423" lon="1.57132">
        <ele>268.6</ele>
      </trkpt>
      <trkpt lat="44.32435" lon="1.57119">
        <ele>268.2</ele>
      </trkpt>
      <trkpt lat="44.32445" lon="1.57107">
        <ele>268</ele>
      </trkpt>
      <trkpt lat="44.32466" lon="1.57059">
        <ele>265</ele>
      </trkpt>
      <trkpt lat="44.3247" lon="1.57042">
        <ele>264.8</ele>
      </trkpt>
      <trkpt lat="44.32474" lon="1.57024">
        <ele>264.8</ele>
      </trkpt>
      <trkpt lat="44.32474" lon="1.57007">
        <ele>264.8</ele>
      </trkpt>
      <trkpt lat="44.32465" lon="1.56981">
        <ele>264.6</ele>
      </trkpt>
      <trkpt lat="44.3246" lon="1.56969">
        <ele>264.8</ele>
      </trkpt>
      <trkpt lat="44.32461" lon="1.56953">
        <ele>264.9</ele>
      </trkpt>
      <trkpt lat="44.3247" lon="1.56891">
        <ele>261.5</ele>
      </trkpt>
      <trkpt lat="44.32471" lon="1.56863">
        <ele>261.2</ele>
      </trkpt>
      <trkpt lat="44.32473" lon="1.56852">
        <ele>261</ele>
      </trkpt>
      <trkpt lat="44.32484" lon="1.56846">
        <ele>261</ele>
      </trkpt>
      <trkpt lat="44.3249" lon="1.56842">
        <ele>261</ele>
      </trkpt>
      <trkpt lat="44.32496" lon="1.56838">
        <ele>261</ele>
      </trkpt>
      <trkpt lat="44.32507" lon="1.56836">
        <ele>261.8</ele>
      </trkpt>
      <trkpt lat="44.32514" lon="1.56834">
        <ele>262.5</ele>
      </trkpt>
      <trkpt lat="44.32526" lon="1.56814">
        <ele>262.5</ele>
      </trkpt>
      <trkpt lat="44.32533" lon="1.56804">
        <ele>262.3</ele>
      </trkpt>
      <trkpt lat="44.32536" lon="1.56794">
        <ele>262.2</ele>
      </trkpt>
      <trkpt lat="44.32536" lon="1.56792">
        <ele>262.1</ele>
      </trkpt>
      <trkpt lat="44.32536" lon="1.56794">
        <ele>262.2</ele>
      </trkpt>
      <trkpt lat="44.3254" lon="1.56796">
        <ele>262.5</ele>
      </trkpt>
      <trkpt lat="44.32548" lon="1.56793">
        <ele>263</ele>
      </trkpt>
      <trkpt lat="44.32562" lon="1.56778">
        <ele>263.5</ele>
      </trkpt>
      <trkpt lat="44.32567" lon="1.56769">
        <ele>263.6</ele>
        <time>2023-09-20T15:21:15Z</time>
      </trkpt>
      <trkpt lat="44.32567" lon="1.56769">
        <ele>263.6</ele>
        <time>2023-09-20T15:21:15Z</time>
      </trkpt>
      <trkpt lat="44.32573" lon="1.56763">
        <ele>263.6</ele>
        <time>2023-09-20T15:21:16Z</time>
      </trkpt>
      <trkpt lat="44.32578" lon="1.56758">
        <ele>263.4</ele>
        <time>2023-09-20T15:21:17Z</time>
      </trkpt>
      <trkpt lat="44.32583" lon="1.56752">
        <ele>263.2</ele>
        <time>2023-09-20T15:21:18Z</time>
      </trkpt>
      <trkpt lat="44.32588" lon="1.56747">
        <ele>263.5</ele>
        <time>2023-09-20T15:21:19Z</time>
      </trkpt>
      <trkpt lat="44.32592" lon="1.56742">
        <ele>264</ele>
        <time>2023-09-20T15:21:20Z</time>
      </trkpt>
      <trkpt lat="44.32597" lon="1.56737">
        <ele>264.2</ele>
        <time>2023-09-20T15:21:21Z</time>
      </trkpt>
      <trkpt lat="44.32602" lon="1.56732">
        <ele>264.4</ele>
        <time>2023-09-20T15:21:22Z</time>
      </trkpt>
      <trkpt lat="44.32607" lon="1.56727">
        <ele>264.3</ele>
        <time>2023-09-20T15:21:23Z</time>
      </trkpt>
      <trkpt lat="44.32613" lon="1.56722">
        <ele>264.2</ele>
        <time>2023-09-20T15:21:24Z</time>
      </trkpt>
      <trkpt lat="44.32618" lon="1.56718">
        <ele>264.7</ele>
        <time>2023-09-20T15:21:25Z</time>
      </trkpt>
      <trkpt lat="44.32624" lon="1.56713">
        <ele>265</ele>
        <time>2023-09-20T15:21:26Z</time>
      </trkpt>
      <trkpt lat="44.32629" lon="1.56708">
        <ele>265.3</ele>
        <time>2023-09-20T15:21:27Z</time>
      </trkpt>
      <trkpt lat="44.32634" lon="1.56703">
        <ele>265.3</ele>
        <time>2023-09-20T15:21:28Z</time>
      </trkpt>
      <trkpt lat="44.32639" lon="1.56698">
        <ele>265.3</ele>
        <time>2023-09-20T15:21:29Z</time>
      </trkpt>
      <trkpt lat="44.32644" lon="1.56693">
        <ele>265.7</ele>
        <time>2023-09-20T15:21:30Z</time>
      </trkpt>
      <trkpt lat="44.32649" lon="1.56688">
        <ele>266.2</ele>
        <time>2023-09-20T15:21:31Z</time>
      </trkpt>
      <trkpt lat="44.32654" lon="1.56684">
        <ele>266.5</ele>
        <time>2023-09-20T15:21:32Z</time>
      </trkpt>
      <trkpt lat="44.32659" lon="1.56679">
        <ele>266.7</ele>
        <time>2023-09-20T15:21:33Z</time>
      </trkpt>
      <trkpt lat="44.32664" lon="1.56674">
        <ele>266.6</ele>
        <time>2023-09-20T15:21:34Z</time>
      </trkpt>
      <trkpt lat="44.32663" lon="1.56672">
        <ele>266.3</ele>
      </trkpt>
      <trkpt lat="44.32668" lon="1.56669">
        <ele>266.5</ele>
        <time>2023-09-20T15:21:35Z</time>
      </trkpt>
      <trkpt lat="44.32673" lon="1.56663">
        <ele>266.9</ele>
        <time>2023-09-20T15:21:36Z</time>
      </trkpt>
      <trkpt lat="44.32679" lon="1.56659">
        <ele>267.3</ele>
        <time>2023-09-20T15:21:37Z</time>
      </trkpt>
      <trkpt lat="44.32684" lon="1.56654">
        <ele>267.7</ele>
        <time>2023-09-20T15:21:38Z</time>
      </trkpt>
      <trkpt lat="44.32689" lon="1.56651">
        <ele>267.8</ele>
        <time>2023-09-20T15:21:39Z</time>
      </trkpt>
      <trkpt lat="44.32695" lon="1.56647">
        <ele>267.9</ele>
        <time>2023-09-20T15:21:40Z</time>
      </trkpt>
      <trkpt lat="44.32701" lon="1.56644">
        <ele>268</ele>
        <time>2023-09-20T15:21:41Z</time>
      </trkpt>
      <trkpt lat="44.32707" lon="1.56641">
        <ele>268.1</ele>
        <time>2023-09-20T15:21:42Z</time>
      </trkpt>
      <trkpt lat="44.32712" lon="1.56638">
        <ele>268.2</ele>
        <time>2023-09-20T15:21:43Z</time>
      </trkpt>
      <trkpt lat="44.32717" lon="1.56636">
        <ele>268.6</ele>
        <time>2023-09-20T15:21:44Z</time>
      </trkpt>
      <trkpt lat="44.32723" lon="1.56633">
        <ele>268.8</ele>
        <time>2023-09-20T15:21:45Z</time>
      </trkpt>
      <trkpt lat="44.32729" lon="1.56632">
        <ele>269.1</ele>
        <time>2023-09-20T15:21:46Z</time>
      </trkpt>
      <trkpt lat="44.32734" lon="1.56631">
        <ele>269.3</ele>
        <time>2023-09-20T15:21:47Z</time>
      </trkpt>
      <trkpt lat="44.3274" lon="1.5663">
        <ele>269.6</ele>
        <time>2023-09-20T15:21:48Z</time>
      </trkpt>
      <trkpt lat="44.32745" lon="1.56629">
        <ele>269.7</ele>
        <time>2023-09-20T15:21:49Z</time>
      </trkpt>
      <trkpt lat="44.32751" lon="1.56629">
        <ele>269.9</ele>
        <time>2023-09-20T15:21:50Z</time>
      </trkpt>
      <trkpt lat="44.32757" lon="1.56628">
        <ele>270.1</ele>
        <time>2023-09-20T15:21:51Z</time>
      </trkpt>
      <trkpt lat="44.32762" lon="1.56627">
        <ele>270.2</ele>
        <time>2023-09-20T15:21:52Z</time>
      </trkpt>
      <trkpt lat="44.32768" lon="1.56627">
        <ele>270.4</ele>
        <time>2023-09-20T15:21:53Z</time>
      </trkpt>
      <trkpt lat="44.32774" lon="1.56626">
        <ele>270.5</ele>
        <time>2023-09-20T15:21:54Z</time>
      </trkpt>
      <trkpt lat="44.3278" lon="1.56625">
        <ele>270.5</ele>
        <time>2023-09-20T15:21:55Z</time>
      </trkpt>
      <trkpt lat="44.32786" lon="1.56623">
        <ele>270.4</ele>
        <time>2023-09-20T15:21:56Z</time>
      </trkpt>
      <trkpt lat="44.32792" lon="1.56621">
        <ele>270.4</ele>
        <time>2023-09-20T15:21:57Z</time>
      </trkpt>
      <trkpt lat="44.32799" lon="1.5662">
        <ele>270.5</ele>
        <time>2023-09-20T15:21:58Z</time>
      </trkpt>
      <trkpt lat="44.32806" lon="1.56618">
        <ele>270.5</ele>
        <time>2023-09-20T15:21:59Z</time>
      </trkpt>
      <trkpt lat="44.32813" lon="1.56615">
        <ele>270.6</ele>
        <time>2023-09-20T15:22:00Z</time>
      </trkpt>
      <trkpt lat="44.3282" lon="1.56613">
        <ele>270.7</ele>
        <time>2023-09-20T15:22:01Z</time>
      </trkpt>
      <trkpt lat="44.32827" lon="1.56611">
        <ele>270.8</ele>
        <time>2023-09-20T15:22:02Z</time>
      </trkpt>
      <trkpt lat="44.32833" lon="1.56609">
        <ele>270.9</ele>
        <time>2023-09-20T15:22:03Z</time>
      </trkpt>
      <trkpt lat="44.32839" lon="1.56607">
        <ele>271.3</ele>
        <time>2023-09-20T15:22:04Z</time>
      </trkpt>
      <trkpt lat="44.32845" lon="1.56605">
        <ele>271.5</ele>
        <time>2023-09-20T15:22:05Z</time>
      </trkpt>
      <trkpt lat="44.32851" lon="1.56603">
        <ele>271.8</ele>
        <time>2023-09-20T15:22:06Z</time>
      </trkpt>
      <trkpt lat="44.32856" lon="1.56601">
        <ele>272</ele>
        <time>2023-09-20T15:22:07Z</time>
      </trkpt>
      <trkpt lat="44.32862" lon="1.566">
        <ele>272.2</ele>
        <time>2023-09-20T15:22:08Z</time>
      </trkpt>
      <trkpt lat="44.32867" lon="1.56597">
        <ele>272.4</ele>
        <time>2023-09-20T15:22:09Z</time>
      </trkpt>
      <trkpt lat="44.32871" lon="1.56592">
        <ele>272.4</ele>
        <time>2023-09-20T15:22:10Z</time>
      </trkpt>
      <trkpt lat="44.32874" lon="1.56584">
        <ele>272</ele>
        <time>2023-09-20T15:22:11Z</time>
      </trkpt>
      <trkpt lat="44.32875" lon="1.56575">
        <ele>272</ele>
        <time>2023-09-20T15:22:12Z</time>
      </trkpt>
      <trkpt lat="44.32875" lon="1.56565">
        <ele>272</ele>
        <time>2023-09-20T15:22:13Z</time>
      </trkpt>
      <trkpt lat="44.32876" lon="1.56557">
        <ele>272</ele>
        <time>2023-09-20T15:22:14Z</time>
      </trkpt>
      <trkpt lat="44.32878" lon="1.56548">
        <ele>272.3</ele>
        <time>2023-09-20T15:22:15Z</time>
      </trkpt>
      <trkpt lat="44.32879" lon="1.5654">
        <ele>272.6</ele>
        <time>2023-09-20T15:22:16Z</time>
      </trkpt>
      <trkpt lat="44.32881" lon="1.56532">
        <ele>272.8</ele>
        <time>2023-09-20T15:22:17Z</time>
      </trkpt>
      <trkpt lat="44.32883" lon="1.56525">
        <ele>273.1</ele>
        <time>2023-09-20T15:22:18Z</time>
      </trkpt>
      <trkpt lat="44.32885" lon="1.56518">
        <ele>273.4</ele>
        <time>2023-09-20T15:22:19Z</time>
      </trkpt>
      <trkpt lat="44.32887" lon="1.5651">
        <ele>273.6</ele>
        <time>2023-09-20T15:22:20Z</time>
      </trkpt>
      <trkpt lat="44.32889" lon="1.56503">
        <ele>273.9</ele>
        <time>2023-09-20T15:22:21Z</time>
      </trkpt>
      <trkpt lat="44.32892" lon="1.56496">
        <ele>274.1</ele>
        <time>2023-09-20T15:22:22Z</time>
      </trkpt>
      <trkpt lat="44.32894" lon="1.56489">
        <ele>274.4</ele>
        <time>2023-09-20T15:22:23Z</time>
      </trkpt>
      <trkpt lat="44.32897" lon="1.56481">
        <ele>274.7</ele>
        <time>2023-09-20T15:22:24Z</time>
      </trkpt>
      <trkpt lat="44.32899" lon="1.56473">
        <ele>275</ele>
        <time>2023-09-20T15:22:25Z</time>
      </trkpt>
      <trkpt lat="44.32901" lon="1.56466">
        <ele>275.2</ele>
        <time>2023-09-20T15:22:26Z</time>
      </trkpt>
      <trkpt lat="44.32903" lon="1.56458">
        <ele>275.5</ele>
        <time>2023-09-20T15:22:27Z</time>
      </trkpt>
      <trkpt lat="44.32905" lon="1.5645">
        <ele>275.8</ele>
        <time>2023-09-20T15:22:28Z</time>
      </trkpt>
      <trkpt lat="44.32906" lon="1.56442">
        <ele>276</ele>
        <time>2023-09-20T15:22:29Z</time>
      </trkpt>
      <trkpt lat="44.32908" lon="1.56435">
        <ele>276.2</ele>
        <time>2023-09-20T15:22:30Z</time>
      </trkpt>
      <trkpt lat="44.3291" lon="1.56427">
        <ele>276.5</ele>
        <time>2023-09-20T15:22:31Z</time>
      </trkpt>
      <trkpt lat="44.32911" lon="1.56419">
        <ele>276.7</ele>
        <time>2023-09-20T15:22:32Z</time>
      </trkpt>
      <trkpt lat="44.32913" lon="1.56412">
        <ele>276.9</ele>
        <time>2023-09-20T15:22:33Z</time>
      </trkpt>
      <trkpt lat="44.32915" lon="1.56404">
        <ele>276.9</ele>
        <time>2023-09-20T15:22:34Z</time>
      </trkpt>
      <trkpt lat="44.32916" lon="1.56397">
        <ele>277</ele>
        <time>2023-09-20T15:22:35Z</time>
      </trkpt>
      <trkpt lat="44.32919" lon="1.56391">
        <ele>277</ele>
        <time>2023-09-20T15:22:36Z</time>
      </trkpt>
      <trkpt lat="44.32921" lon="1.56384">
        <ele>277</ele>
        <time>2023-09-20T15:22:37Z</time>
      </trkpt>
      <trkpt lat="44.32923" lon="1.56377">
        <ele>277</ele>
        <time>2023-09-20T15:22:38Z</time>
      </trkpt>
      <trkpt lat="44.32925" lon="1.56372">
        <ele>277</ele>
        <time>2023-09-20T15:22:39Z</time>
      </trkpt>
      <trkpt lat="44.32927" lon="1.56367">
        <ele>277</ele>
        <time>2023-09-20T15:22:40Z</time>
      </trkpt>
      <trkpt lat="44.32929" lon="1.56363">
        <ele>277</ele>
        <time>2023-09-20T15:22:41Z</time>
      </trkpt>
      <trkpt lat="44.32931" lon="1.56361">
        <ele>277</ele>
        <time>2023-09-20T15:22:42Z</time>
      </trkpt>
      <trkpt lat="44.32934" lon="1.5636">
        <ele>277</ele>
        <time>2023-09-20T15:22:43Z</time>
      </trkpt>
      <trkpt lat="44.32938" lon="1.56363">
        <ele>277</ele>
        <time>2023-09-20T15:22:44Z</time>
      </trkpt>
      <trkpt lat="44.32941" lon="1.56369">
        <ele>277</ele>
        <time>2023-09-20T15:22:45Z</time>
      </trkpt>
      <trkpt lat="44.32945" lon="1.56374">
        <ele>277</ele>
        <time>2023-09-20T15:22:46Z</time>
      </trkpt>
      <trkpt lat="44.32949" lon="1.56376">
        <ele>277</ele>
        <time>2023-09-20T15:22:47Z</time>
      </trkpt>
      <trkpt lat="44.32954" lon="1.56379">
        <ele>277</ele>
        <time>2023-09-20T15:22:48Z</time>
      </trkpt>
      <trkpt lat="44.32959" lon="1.56381">
        <ele>277</ele>
        <time>2023-09-20T15:22:49Z</time>
      </trkpt>
      <trkpt lat="44.32964" lon="1.56383">
        <ele>277</ele>
        <time>2023-09-20T15:22:50Z</time>
      </trkpt>
      <trkpt lat="44.32969" lon="1.56385">
        <ele>277</ele>
        <time>2023-09-20T15:22:51Z</time>
      </trkpt>
      <trkpt lat="44.32975" lon="1.56388">
        <ele>277.1</ele>
        <time>2023-09-20T15:22:52Z</time>
      </trkpt>
      <trkpt lat="44.3298" lon="1.56391">
        <ele>277.3</ele>
        <time>2023-09-20T15:22:53Z</time>
      </trkpt>
      <trkpt lat="44.32986" lon="1.56393">
        <ele>277.5</ele>
        <time>2023-09-20T15:22:54Z</time>
      </trkpt>
      <trkpt lat="44.32992" lon="1.56395">
        <ele>277.7</ele>
        <time>2023-09-20T15:22:55Z</time>
      </trkpt>
      <trkpt lat="44.32997" lon="1.56397">
        <ele>277.9</ele>
        <time>2023-09-20T15:22:56Z</time>
      </trkpt>
      <trkpt lat="44.33003" lon="1.56398">
        <ele>278</ele>
        <time>2023-09-20T15:22:57Z</time>
      </trkpt>
      <trkpt lat="44.33009" lon="1.56399">
        <ele>278</ele>
        <time>2023-09-20T15:22:58Z</time>
      </trkpt>
      <trkpt lat="44.33016" lon="1.564">
        <ele>278</ele>
        <time>2023-09-20T15:22:59Z</time>
      </trkpt>
      <trkpt lat="44.33022" lon="1.56401">
        <ele>278</ele>
        <time>2023-09-20T15:23:00Z</time>
      </trkpt>
      <trkpt lat="44.33028" lon="1.56402">
        <ele>278</ele>
        <time>2023-09-20T15:23:01Z</time>
      </trkpt>
      <trkpt lat="44.33034" lon="1.56402">
        <ele>278.1</ele>
        <time>2023-09-20T15:23:02Z</time>
      </trkpt>
      <trkpt lat="44.33039" lon="1.56399">
        <ele>278.3</ele>
        <time>2023-09-20T15:23:03Z</time>
      </trkpt>
      <trkpt lat="44.33045" lon="1.56392">
        <ele>278.5</ele>
        <time>2023-09-20T15:23:04Z</time>
      </trkpt>
      <trkpt lat="44.33051" lon="1.56385">
        <ele>278.8</ele>
        <time>2023-09-20T15:23:05Z</time>
      </trkpt>
      <trkpt lat="44.33057" lon="1.5638">
        <ele>279</ele>
        <time>2023-09-20T15:23:06Z</time>
      </trkpt>
      <trkpt lat="44.33063" lon="1.56374">
        <ele>279</ele>
        <time>2023-09-20T15:23:07Z</time>
      </trkpt>
      <trkpt lat="44.33068" lon="1.56367">
        <ele>279</ele>
        <time>2023-09-20T15:23:08Z</time>
      </trkpt>
      <trkpt lat="44.33072" lon="1.5636">
        <ele>279</ele>
        <time>2023-09-20T15:23:09Z</time>
      </trkpt>
      <trkpt lat="44.33077" lon="1.56353">
        <ele>279.2</ele>
        <time>2023-09-20T15:23:10Z</time>
      </trkpt>
      <trkpt lat="44.33081" lon="1.56347">
        <ele>279.5</ele>
        <time>2023-09-20T15:23:11Z</time>
      </trkpt>
      <trkpt lat="44.33086" lon="1.5634">
        <ele>279.7</ele>
        <time>2023-09-20T15:23:12Z</time>
      </trkpt>
      <trkpt lat="44.3309" lon="1.56334">
        <ele>279.7</ele>
        <time>2023-09-20T15:23:13Z</time>
      </trkpt>
      <trkpt lat="44.33095" lon="1.56327">
        <ele>279.8</ele>
        <time>2023-09-20T15:23:14Z</time>
      </trkpt>
      <trkpt lat="44.33099" lon="1.56321">
        <ele>279.9</ele>
        <time>2023-09-20T15:23:15Z</time>
      </trkpt>
      <trkpt lat="44.33103" lon="1.56315">
        <ele>280</ele>
        <time>2023-09-20T15:23:16Z</time>
      </trkpt>
      <trkpt lat="44.33105" lon="1.56308">
        <ele>280.1</ele>
        <time>2023-09-20T15:23:17Z</time>
      </trkpt>
      <trkpt lat="44.33106" lon="1.56302">
        <ele>280.2</ele>
        <time>2023-09-20T15:23:18Z</time>
      </trkpt>
      <trkpt lat="44.33103" lon="1.56297">
        <ele>280.4</ele>
        <time>2023-09-20T15:23:19Z</time>
      </trkpt>
      <trkpt lat="44.3318" lon="1.56328">
        <ele>278.2</ele>
      </trkpt>
      <trkpt lat="44.33203" lon="1.56306">
        <ele>277.3</ele>
      </trkpt>
      <trkpt lat="44.33252" lon="1.56214">
        <ele>275.8</ele>
      </trkpt>
      <trkpt lat="44.33315" lon="1.56108">
        <ele>276</ele>
      </trkpt>
      <trkpt lat="44.33339" lon="1.56081">
        <ele>274.9</ele>
      </trkpt>
      <trkpt lat="44.33361" lon="1.5604">
        <ele>273.4</ele>
      </trkpt>
      <trkpt lat="44.33435" lon="1.55791">
        <ele>265.2</ele>
      </trkpt>
      <trkpt lat="44.33462" lon="1.55747">
        <ele>263.6</ele>
      </trkpt>
      <trkpt lat="44.33491" lon="1.55692">
        <ele>261.3</ele>
      </trkpt>
      <trkpt lat="44.33512" lon="1.5562">
        <ele>258.8</ele>
      </trkpt>
      <trkpt lat="44.33519" lon="1.55578">
        <ele>258.2</ele>
      </trkpt>
      <trkpt lat="44.33518" lon="1.55576">
        <ele>258.1</ele>
      </trkpt>
      <trkpt lat="44.3352" lon="1.55554">
        <ele>259</ele>
        <time>2023-09-20T15:30:31Z</time>
      </trkpt>
      <trkpt lat="44.33523" lon="1.55554">
        <ele>259.5</ele>
        <time>2023-09-20T15:30:32Z</time>
      </trkpt>
      <trkpt lat="44.33527" lon="1.55547">
        <ele>260.8</ele>
        <time>2023-09-20T15:30:33Z</time>
      </trkpt>
      <trkpt lat="44.33528" lon="1.55541">
        <ele>261.7</ele>
        <time>2023-09-20T15:30:34Z</time>
      </trkpt>
      <trkpt lat="44.3353" lon="1.5553">
        <ele>262.9</ele>
        <time>2023-09-20T15:30:36Z</time>
      </trkpt>
      <trkpt lat="44.33532" lon="1.55524">
        <ele>263.1</ele>
        <time>2023-09-20T15:30:38Z</time>
      </trkpt>
      <trkpt lat="44.33535" lon="1.55518">
        <ele>263</ele>
        <time>2023-09-20T15:30:39Z</time>
      </trkpt>
      <trkpt lat="44.3354" lon="1.55506">
        <ele>263.3</ele>
        <time>2023-09-20T15:30:40Z</time>
      </trkpt>
      <trkpt lat="44.33543" lon="1.55502">
        <ele>263.8</ele>
        <time>2023-09-20T15:30:42Z</time>
      </trkpt>
      <trkpt lat="44.33546" lon="1.55499">
        <ele>264.1</ele>
        <time>2023-09-20T15:30:43Z</time>
      </trkpt>
      <trkpt lat="44.33551" lon="1.55489">
        <ele>264.5</ele>
        <time>2023-09-20T15:30:44Z</time>
      </trkpt>
      <trkpt lat="44.33555" lon="1.55484">
        <ele>264.8</ele>
        <time>2023-09-20T15:30:46Z</time>
      </trkpt>
      <trkpt lat="44.33559" lon="1.55479">
        <ele>264.9</ele>
        <time>2023-09-20T15:30:47Z</time>
      </trkpt>
      <trkpt lat="44.33563" lon="1.55474">
        <ele>265.1</ele>
        <time>2023-09-20T15:30:48Z</time>
      </trkpt>
      <trkpt lat="44.33566" lon="1.55469">
        <ele>265.4</ele>
        <time>2023-09-20T15:30:49Z</time>
      </trkpt>
      <trkpt lat="44.3357" lon="1.55464">
        <ele>265.7</ele>
        <time>2023-09-20T15:30:50Z</time>
      </trkpt>
      <trkpt lat="44.33573" lon="1.5546">
        <ele>266.1</ele>
        <time>2023-09-20T15:30:51Z</time>
      </trkpt>
      <trkpt lat="44.33576" lon="1.55455">
        <ele>266.3</ele>
        <time>2023-09-20T15:30:52Z</time>
      </trkpt>
      <trkpt lat="44.33579" lon="1.5545">
        <ele>266.6</ele>
        <time>2023-09-20T15:30:53Z</time>
      </trkpt>
      <trkpt lat="44.3358" lon="1.55445">
        <ele>266.6</ele>
        <time>2023-09-20T15:30:54Z</time>
      </trkpt>
      <trkpt lat="44.33582" lon="1.5544">
        <ele>266.9</ele>
        <time>2023-09-20T15:30:55Z</time>
      </trkpt>
      <trkpt lat="44.33585" lon="1.55429">
        <ele>267.1</ele>
        <time>2023-09-20T15:30:56Z</time>
      </trkpt>
      <trkpt lat="44.33586" lon="1.55415">
        <ele>267.3</ele>
        <time>2023-09-20T15:30:58Z</time>
      </trkpt>
      <trkpt lat="44.33586" lon="1.55403">
        <ele>268.1</ele>
        <time>2023-09-20T15:31:00Z</time>
      </trkpt>
      <trkpt lat="44.33586" lon="1.55398">
        <ele>268.5</ele>
        <time>2023-09-20T15:31:01Z</time>
      </trkpt>
      <trkpt lat="44.33586" lon="1.55388">
        <ele>269.2</ele>
        <time>2023-09-20T15:31:03Z</time>
      </trkpt>
      <trkpt lat="44.33584" lon="1.55378">
        <ele>269.8</ele>
        <time>2023-09-20T15:31:05Z</time>
      </trkpt>
      <trkpt lat="44.33583" lon="1.55373">
        <ele>270.2</ele>
        <time>2023-09-20T15:31:07Z</time>
      </trkpt>
      <trkpt lat="44.33579" lon="1.55364">
        <ele>271.3</ele>
        <time>2023-09-20T15:31:08Z</time>
      </trkpt>
      <trkpt lat="44.33576" lon="1.55357">
        <ele>272</ele>
        <time>2023-09-20T15:31:09Z</time>
      </trkpt>
      <trkpt lat="44.33575" lon="1.55352">
        <ele>272.4</ele>
        <time>2023-09-20T15:31:11Z</time>
      </trkpt>
      <trkpt lat="44.33572" lon="1.5534">
        <ele>273.1</ele>
        <time>2023-09-20T15:31:12Z</time>
      </trkpt>
      <trkpt lat="44.33569" lon="1.55328">
        <ele>273.7</ele>
        <time>2023-09-20T15:31:14Z</time>
      </trkpt>
      <trkpt lat="44.33568" lon="1.55321">
        <ele>274</ele>
        <time>2023-09-20T15:31:16Z</time>
      </trkpt>
      <trkpt lat="44.33567" lon="1.55313">
        <ele>274.3</ele>
        <time>2023-09-20T15:31:17Z</time>
      </trkpt>
      <trkpt lat="44.33566" lon="1.55302">
        <ele>274.6</ele>
        <time>2023-09-20T15:31:18Z</time>
      </trkpt>
      <trkpt lat="44.33566" lon="1.55293">
        <ele>274.6</ele>
        <time>2023-09-20T15:31:19Z</time>
      </trkpt>
      <trkpt lat="44.33565" lon="1.55284">
        <ele>274.7</ele>
        <time>2023-09-20T15:31:20Z</time>
      </trkpt>
      <trkpt lat="44.33564" lon="1.55275">
        <ele>274.7</ele>
        <time>2023-09-20T15:31:21Z</time>
      </trkpt>
      <trkpt lat="44.33564" lon="1.55265">
        <ele>274.7</ele>
        <time>2023-09-20T15:31:22Z</time>
      </trkpt>
      <trkpt lat="44.33564" lon="1.55256">
        <ele>274.7</ele>
        <time>2023-09-20T15:31:23Z</time>
      </trkpt>
      <trkpt lat="44.33564" lon="1.55247">
        <ele>274.7</ele>
        <time>2023-09-20T15:31:24Z</time>
      </trkpt>
      <trkpt lat="44.33565" lon="1.55238">
        <ele>274.7</ele>
        <time>2023-09-20T15:31:25Z</time>
      </trkpt>
      <trkpt lat="44.33566" lon="1.55229">
        <ele>274.6</ele>
        <time>2023-09-20T15:31:26Z</time>
      </trkpt>
      <trkpt lat="44.33568" lon="1.55219">
        <ele>274.6</ele>
        <time>2023-09-20T15:31:27Z</time>
      </trkpt>
      <trkpt lat="44.33569" lon="1.5521">
        <ele>274.5</ele>
        <time>2023-09-20T15:31:28Z</time>
      </trkpt>
      <trkpt lat="44.33571" lon="1.55201">
        <ele>274.4</ele>
        <time>2023-09-20T15:31:29Z</time>
      </trkpt>
      <trkpt lat="44.33573" lon="1.55192">
        <ele>274.4</ele>
        <time>2023-09-20T15:31:30Z</time>
      </trkpt>
      <trkpt lat="44.33575" lon="1.55184">
        <ele>274.3</ele>
        <time>2023-09-20T15:31:31Z</time>
      </trkpt>
      <trkpt lat="44.33576" lon="1.55175">
        <ele>274.3</ele>
        <time>2023-09-20T15:31:32Z</time>
      </trkpt>
      <trkpt lat="44.33578" lon="1.55165">
        <ele>274.2</ele>
        <time>2023-09-20T15:31:33Z</time>
      </trkpt>
      <trkpt lat="44.33579" lon="1.55156">
        <ele>273.8</ele>
        <time>2023-09-20T15:31:34Z</time>
      </trkpt>
      <trkpt lat="44.33582" lon="1.55147">
        <ele>273.4</ele>
        <time>2023-09-20T15:31:35Z</time>
      </trkpt>
      <trkpt lat="44.33584" lon="1.55138">
        <ele>273</ele>
        <time>2023-09-20T15:31:36Z</time>
      </trkpt>
      <trkpt lat="44.33586" lon="1.55129">
        <ele>273</ele>
        <time>2023-09-20T15:31:37Z</time>
      </trkpt>
      <trkpt lat="44.33589" lon="1.5512">
        <ele>272.9</ele>
        <time>2023-09-20T15:31:38Z</time>
      </trkpt>
      <trkpt lat="44.33666" lon="1.54854">
        <ele>259.2</ele>
      </trkpt>
      <trkpt lat="44.3368" lon="1.54816">
        <ele>259.1</ele>
      </trkpt>
      <trkpt lat="44.33707" lon="1.54791">
        <ele>261</ele>
        <time>2023-09-20T15:32:45Z</time>
      </trkpt>
      <trkpt lat="44.33713" lon="1.54789">
        <ele>261</ele>
        <time>2023-09-20T15:32:46Z</time>
      </trkpt>
      <trkpt lat="44.33719" lon="1.54786">
        <ele>261</ele>
        <time>2023-09-20T15:32:47Z</time>
      </trkpt>
      <trkpt lat="44.33725" lon="1.54785">
        <ele>261.2</ele>
        <time>2023-09-20T15:32:48Z</time>
      </trkpt>
      <trkpt lat="44.33731" lon="1.54782">
        <ele>261.8</ele>
        <time>2023-09-20T15:32:49Z</time>
      </trkpt>
      <trkpt lat="44.33736" lon="1.54779">
        <ele>262.4</ele>
        <time>2023-09-20T15:32:50Z</time>
      </trkpt>
      <trkpt lat="44.33741" lon="1.54775">
        <ele>263.2</ele>
        <time>2023-09-20T15:32:51Z</time>
      </trkpt>
      <trkpt lat="44.33746" lon="1.54769">
        <ele>263.7</ele>
        <time>2023-09-20T15:32:52Z</time>
      </trkpt>
      <trkpt lat="44.3375" lon="1.54763">
        <ele>264</ele>
        <time>2023-09-20T15:32:53Z</time>
      </trkpt>
      <trkpt lat="44.33753" lon="1.54756">
        <ele>264.1</ele>
        <time>2023-09-20T15:32:54Z</time>
      </trkpt>
      <trkpt lat="44.33755" lon="1.54751">
        <ele>264.2</ele>
        <time>2023-09-20T15:32:55Z</time>
      </trkpt>
      <trkpt lat="44.33758" lon="1.54748">
        <ele>264.4</ele>
        <time>2023-09-20T15:32:56Z</time>
      </trkpt>
      <trkpt lat="44.33762" lon="1.54749">
        <ele>264.5</ele>
        <time>2023-09-20T15:32:57Z</time>
      </trkpt>
      <trkpt lat="44.33763" lon="1.54749">
        <ele>264.5</ele>
        <time>2023-09-20T15:32:58Z</time>
      </trkpt>
      <trkpt lat="44.33767" lon="1.54752">
        <ele>264.6</ele>
        <time>2023-09-20T15:32:59Z</time>
      </trkpt>
      <trkpt lat="44.3377" lon="1.54753">
        <ele>264.6</ele>
        <time>2023-09-20T15:33:00Z</time>
      </trkpt>
      <trkpt lat="44.33773" lon="1.54753">
        <ele>264.7</ele>
        <time>2023-09-20T15:33:01Z</time>
      </trkpt>
      <trkpt lat="44.33777" lon="1.54749">
        <ele>265</ele>
        <time>2023-09-20T15:33:02Z</time>
      </trkpt>
      <trkpt lat="44.33778" lon="1.54747">
        <ele>265.1</ele>
        <time>2023-09-20T15:33:03Z</time>
      </trkpt>
      <trkpt lat="44.33778" lon="1.54745">
        <ele>265.2</ele>
      </trkpt>
      <trkpt lat="44.33778" lon="1.54739">
        <ele>265.4</ele>
      </trkpt>
      <trkpt lat="44.33773" lon="1.54731">
        <ele>265.6</ele>
      </trkpt>
      <trkpt lat="44.33793" lon="1.54686">
        <ele>267.4</ele>
      </trkpt>
      <trkpt lat="44.33801" lon="1.54661">
        <ele>268.4</ele>
        <extensions>
          <visugpx:TrkExtension xmlns:visugpx="https://www.visugpx.com/editgpx/">
            <visugpx:node>16</visugpx:node>
            </visugpx:TrkExtension>
        </extensions>
      </trkpt>
    </trkseg>
  </trk>
</gpx>